<?xml version='1.0' encoding='UTF-8'?><gpx version="1.1" creator="JPX - https://github.com/jenetics/jpx" xmlns="http://www.topografix.com/GPX/1/1"><trk><trkseg><trkpt lat="45.4090183" lon="10.540925"><ele>133.0</ele><time>2026-04-11T08:00:26.139Z</time></trkpt><trkpt lat="45.40904" lon="10.5402217"><ele>133.0</ele><time>2026-04-11T08:00:29.451Z</time></trkpt><trkpt lat="45.4090167" lon="10.5400967"><ele>133.0</ele><time>2026-04-11T08:00:31.449Z</time></trkpt><trkpt lat="45.40902" lon="10.5397217"><ele>133.0</ele><time>2026-04-11T08:00:32.45Z</time></trkpt><trkpt lat="45.40902" lon="10.5392617"><ele>131.66666666666669</ele><time>2026-04-11T08:00:34.448Z</time></trkpt><trkpt lat="45.4090067" lon="10.5389383"><ele>130.33333333333334</ele><time>2026-04-11T08:00:36.446Z</time></trkpt><trkpt lat="45.4089667" lon="10.5386717"><ele>129.0</ele><time>2026-04-11T08:00:38.454Z</time></trkpt><trkpt lat="45.4088733" lon="10.5384667"><ele>128.75</ele><time>2026-04-11T08:00:41.452Z</time></trkpt><trkpt lat="45.4088733" lon="10.5383333"><ele>128.5</ele><time>2026-04-11T08:00:42.443Z</time></trkpt><trkpt lat="45.40897" lon="10.5381433"><ele>128.25</ele><time>2026-04-11T08:00:43.445Z</time></trkpt><trkpt lat="45.4089233" lon="10.537965"><ele>128.0</ele><time>2026-04-11T08:00:44.447Z</time></trkpt><trkpt lat="45.408765" lon="10.5378483"><ele>123.5</ele><time>2026-04-11T08:00:45.459Z</time></trkpt><trkpt lat="45.4085383" lon="10.5379467"><ele>119.0</ele><time>2026-04-11T08:00:46.457Z</time></trkpt><trkpt lat="45.4088017" lon="10.538695"><ele>119.0</ele><time>2026-04-11T08:00:47.451Z</time></trkpt><trkpt lat="45.4084283" lon="10.5382933"><ele>130.0</ele><time>2026-04-11T08:00:48.461Z</time></trkpt><trkpt lat="45.4100217" lon="10.5386233"><ele>131.5</ele><time>2026-04-11T08:00:49.456Z</time></trkpt><trkpt lat="45.4102167" lon="10.538775"><ele>133.0</ele><time>2026-04-11T08:00:50.451Z</time></trkpt><trkpt lat="45.41029" lon="10.539305"><ele>127.0</ele><time>2026-04-11T08:00:51.45Z</time></trkpt><trkpt lat="45.4109833" lon="10.539315"><ele>127.0</ele><time>2026-04-11T08:00:52.447Z</time></trkpt><trkpt lat="45.4109033" lon="10.5387033"><ele>127.0</ele><time>2026-04-11T08:00:53.454Z</time></trkpt><trkpt lat="45.4107033" lon="10.5388217"><ele>130.0</ele><time>2026-04-11T08:00:54.453Z</time></trkpt><trkpt lat="45.4102033" lon="10.5387167"><ele>127.0</ele><time>2026-04-11T08:00:55.448Z</time></trkpt><trkpt lat="45.4111883" lon="10.5394483"><ele>134.0</ele><time>2026-04-11T08:00:56.445Z</time></trkpt><trkpt lat="45.411305" lon="10.54031"><ele>125.0</ele><time>2026-04-11T08:00:57.451Z</time></trkpt><trkpt lat="45.4115717" lon="10.53973"><ele>125.0</ele><time>2026-04-11T08:00:58.446Z</time></trkpt><trkpt lat="45.4118933" lon="10.5396283"><ele>125.0</ele><time>2026-04-11T08:00:59.451Z</time></trkpt><trkpt lat="45.4121383" lon="10.5394017"><ele>124.66666666666666</ele><time>2026-04-11T08:01:00.449Z</time></trkpt><trkpt lat="45.4123017" lon="10.5393317"><ele>124.33333333333334</ele><time>2026-04-11T08:01:01.452Z</time></trkpt><trkpt lat="45.4125517" lon="10.5393433"><ele>124.0</ele><time>2026-04-11T08:01:02.449Z</time></trkpt><trkpt lat="45.4126417" lon="10.5394367"><ele>124.0</ele><time>2026-04-11T08:01:03.459Z</time></trkpt><trkpt lat="45.4119367" lon="10.539485"><ele>126.0</ele><time>2026-04-11T08:01:04.468Z</time></trkpt><trkpt lat="45.4125967" lon="10.53999"><ele>126.0</ele><time>2026-04-11T08:01:06.487Z</time></trkpt><trkpt lat="45.412665" lon="10.539975"><ele>126.0</ele><time>2026-04-11T08:01:07.448Z</time></trkpt><trkpt lat="45.4126733" lon="10.54016"><ele>126.0</ele><time>2026-04-11T08:01:08.445Z</time></trkpt><trkpt lat="45.4127367" lon="10.5402367"><ele>126.0</ele><time>2026-04-11T08:01:09.462Z</time></trkpt><trkpt lat="45.4127067" lon="10.54043"><ele>126.0</ele><time>2026-04-11T08:01:10.463Z</time></trkpt><trkpt lat="45.412755" lon="10.5405617"><ele>126.5</ele><time>2026-04-11T08:01:11.446Z</time></trkpt><trkpt lat="45.41278" lon="10.5407017"><ele>127.0</ele><time>2026-04-11T08:01:12.455Z</time></trkpt><trkpt lat="45.4127833" lon="10.5408383"><ele>127.5</ele><time>2026-04-11T08:01:13.459Z</time></trkpt><trkpt lat="45.4128283" lon="10.540935"><ele>128.0</ele><time>2026-04-11T08:01:14.446Z</time></trkpt><trkpt lat="45.412885" lon="10.541015"><ele>128.5</ele><time>2026-04-11T08:01:15.451Z</time></trkpt><trkpt lat="45.4129317" lon="10.54109"><ele>129.0</ele><time>2026-04-11T08:01:16.448Z</time></trkpt><trkpt lat="45.412815" lon="10.5412667"><ele>129.25</ele><time>2026-04-11T08:01:18.454Z</time></trkpt><trkpt lat="45.4127317" lon="10.5413717"><ele>129.5</ele><time>2026-04-11T08:01:19.452Z</time></trkpt><trkpt lat="45.4126483" lon="10.5414867"><ele>129.75</ele><time>2026-04-11T08:01:20.449Z</time></trkpt><trkpt lat="45.412555" lon="10.5416117"><ele>130.0</ele><time>2026-04-11T08:01:21.45Z</time></trkpt><trkpt lat="45.4124233" lon="10.5417733"><ele>130.0</ele><time>2026-04-11T08:01:22.457Z</time></trkpt><trkpt lat="45.4122783" lon="10.5419567"><ele>130.0</ele><time>2026-04-11T08:01:23.453Z</time></trkpt><trkpt lat="45.4121533" lon="10.5421667"><ele>130.0</ele><time>2026-04-11T08:01:24.448Z</time></trkpt><trkpt lat="45.41201" lon="10.5424067"><ele>128.0</ele><time>2026-04-11T08:01:25.458Z</time></trkpt><trkpt lat="45.411875" lon="10.5426567"><ele>126.0</ele><time>2026-04-11T08:01:26.453Z</time></trkpt><trkpt lat="45.4117317" lon="10.5429133"><ele>126.0</ele><time>2026-04-11T08:01:27.445Z</time></trkpt><trkpt lat="45.411615" lon="10.54315"><ele>126.0</ele><time>2026-04-11T08:01:28.449Z</time></trkpt><trkpt lat="45.4115183" lon="10.5433867"><ele>126.0</ele><time>2026-04-11T08:01:29.452Z</time></trkpt><trkpt lat="45.4114133" lon="10.54364"><ele>124.66666666666666</ele><time>2026-04-11T08:01:30.474Z</time></trkpt><trkpt lat="45.4113067" lon="10.5438783"><ele>123.33333333333333</ele><time>2026-04-11T08:01:31.471Z</time></trkpt><trkpt lat="45.411215" lon="10.544085"><ele>122.0</ele><time>2026-04-11T08:01:32.454Z</time></trkpt><trkpt lat="45.41111" lon="10.5442767"><ele>122.0</ele><time>2026-04-11T08:01:33.453Z</time></trkpt><trkpt lat="45.4109767" lon="10.54446"><ele>122.0</ele><time>2026-04-11T08:01:34.465Z</time></trkpt><trkpt lat="45.4108267" lon="10.5446433"><ele>122.0</ele><time>2026-04-11T08:01:35.455Z</time></trkpt><trkpt lat="45.4106433" lon="10.544845"><ele>121.5</ele><time>2026-04-11T08:01:36.446Z</time></trkpt><trkpt lat="45.4104117" lon="10.5450267"><ele>121.0</ele><time>2026-04-11T08:01:37.455Z</time></trkpt><trkpt lat="45.4102017" lon="10.54521"><ele>121.33333333333334</ele><time>2026-04-11T08:01:38.461Z</time></trkpt><trkpt lat="45.410015" lon="10.5453983"><ele>121.66666666666666</ele><time>2026-04-11T08:01:39.462Z</time></trkpt><trkpt lat="45.4098367" lon="10.545565"><ele>122.0</ele><time>2026-04-11T08:01:40.448Z</time></trkpt><trkpt lat="45.40968" lon="10.54571"><ele>119.33333333333333</ele><time>2026-04-11T08:01:41.451Z</time></trkpt><trkpt lat="45.4095267" lon="10.5458233"><ele>116.66666666666666</ele><time>2026-04-11T08:01:42.457Z</time></trkpt><trkpt lat="45.40937" lon="10.5459017"><ele>114.0</ele><time>2026-04-11T08:01:43.454Z</time></trkpt><trkpt lat="45.4091983" lon="10.5459467"><ele>114.0</ele><time>2026-04-11T08:01:44.471Z</time></trkpt><trkpt lat="45.4090317" lon="10.5459617"><ele>114.0</ele><time>2026-04-11T08:01:45.448Z</time></trkpt><trkpt lat="45.40886" lon="10.545945"><ele>114.0</ele><time>2026-04-11T08:01:46.445Z</time></trkpt><trkpt lat="45.4086867" lon="10.54591"><ele>113.33333333333334</ele><time>2026-04-11T08:01:47.456Z</time></trkpt><trkpt lat="45.4085133" lon="10.545875"><ele>112.66666666666667</ele><time>2026-04-11T08:01:48.455Z</time></trkpt><trkpt lat="45.4083467" lon="10.5458483"><ele>112.0</ele><time>2026-04-11T08:01:49.449Z</time></trkpt><trkpt lat="45.4081883" lon="10.5458367"><ele>112.0</ele><time>2026-04-11T08:01:50.446Z</time></trkpt><trkpt lat="45.40803" lon="10.5458483"><ele>112.0</ele><time>2026-04-11T08:01:51.45Z</time></trkpt><trkpt lat="45.4078667" lon="10.5458767"><ele>112.0</ele><time>2026-04-11T08:01:52.456Z</time></trkpt><trkpt lat="45.4077" lon="10.5459117"><ele>112.0</ele><time>2026-04-11T08:01:53.447Z</time></trkpt><trkpt lat="45.4075367" lon="10.5459467"><ele>112.0</ele><time>2026-04-11T08:01:54.453Z</time></trkpt><trkpt lat="45.407385" lon="10.5459817"><ele>112.0</ele><time>2026-04-11T08:01:55.451Z</time></trkpt><trkpt lat="45.4072467" lon="10.5460317"><ele>112.5</ele><time>2026-04-11T08:01:56.447Z</time></trkpt><trkpt lat="45.4071183" lon="10.54611"><ele>113.0</ele><time>2026-04-11T08:01:57.457Z</time></trkpt><trkpt lat="45.4069967" lon="10.5462167"><ele>113.5</ele><time>2026-04-11T08:01:58.459Z</time></trkpt><trkpt lat="45.40688" lon="10.5463517"><ele>114.0</ele><time>2026-04-11T08:01:59.446Z</time></trkpt><trkpt lat="45.4067617" lon="10.546505"><ele>114.66666666666666</ele><time>2026-04-11T08:02:00.447Z</time></trkpt><trkpt lat="45.4066433" lon="10.5466617"><ele>115.33333333333333</ele><time>2026-04-11T08:02:01.454Z</time></trkpt><trkpt lat="45.4065217" lon="10.5468167"><ele>116.0</ele><time>2026-04-11T08:02:02.443Z</time></trkpt><trkpt lat="45.4063967" lon="10.5469617"><ele>118.0</ele><time>2026-04-11T08:02:03.457Z</time></trkpt><trkpt lat="45.4062667" lon="10.54709"><ele>120.0</ele><time>2026-04-11T08:02:04.455Z</time></trkpt><trkpt lat="45.4061267" lon="10.547195"><ele>122.0</ele><time>2026-04-11T08:02:05.456Z</time></trkpt><trkpt lat="45.4059783" lon="10.5472817"><ele>122.0</ele><time>2026-04-11T08:02:06.446Z</time></trkpt><trkpt lat="45.4058217" lon="10.5473517"><ele>122.0</ele><time>2026-04-11T08:02:07.451Z</time></trkpt><trkpt lat="45.4056683" lon="10.54741"><ele>122.0</ele><time>2026-04-11T08:02:08.449Z</time></trkpt><trkpt lat="45.4055233" lon="10.5474733"><ele>121.25</ele><time>2026-04-11T08:02:09.453Z</time></trkpt><trkpt lat="45.4053783" lon="10.54754"><ele>120.5</ele><time>2026-04-11T08:02:10.451Z</time></trkpt><trkpt lat="45.4052517" lon="10.5476283"><ele>119.75</ele><time>2026-04-11T08:02:11.475Z</time></trkpt><trkpt lat="45.405135" lon="10.5477433"><ele>119.0</ele><time>2026-04-11T08:02:12.458Z</time></trkpt><trkpt lat="45.405" lon="10.5478567"><ele>118.66666666666666</ele><time>2026-04-11T08:02:13.47Z</time></trkpt><trkpt lat="45.4048617" lon="10.547975"><ele>118.33333333333334</ele><time>2026-04-11T08:02:14.47Z</time></trkpt><trkpt lat="45.40472" lon="10.548095"><ele>118.0</ele><time>2026-04-11T08:02:15.449Z</time></trkpt><trkpt lat="45.40458" lon="10.5482167"><ele>118.0</ele><time>2026-04-11T08:02:16.45Z</time></trkpt><trkpt lat="45.4044417" lon="10.5483267"><ele>118.0</ele><time>2026-04-11T08:02:17.451Z</time></trkpt><trkpt lat="45.4043167" lon="10.5484233"><ele>118.0</ele><time>2026-04-11T08:02:18.448Z</time></trkpt><trkpt lat="45.4042083" lon="10.548505"><ele>118.0</ele><time>2026-04-11T08:02:19.448Z</time></trkpt><trkpt lat="45.4041267" lon="10.5485683"><ele>118.0</ele><time>2026-04-11T08:02:20.472Z</time></trkpt><trkpt lat="45.4040567" lon="10.5486317"><ele>118.00000000000001</ele><time>2026-04-11T08:02:21.45Z</time></trkpt><trkpt lat="45.403985" lon="10.548705"><ele>118.00000000000001</ele><time>2026-04-11T08:02:22.458Z</time></trkpt><trkpt lat="45.4039133" lon="10.5487867"><ele>118.0</ele><time>2026-04-11T08:02:23.458Z</time></trkpt><trkpt lat="45.403835" lon="10.5488817"><ele>118.0</ele><time>2026-04-11T08:02:24.454Z</time></trkpt><trkpt lat="45.4037517" lon="10.5490033"><ele>117.75</ele><time>2026-04-11T08:02:25.45Z</time></trkpt><trkpt lat="45.403665" lon="10.54912"><ele>117.5</ele><time>2026-04-11T08:02:26.453Z</time></trkpt><trkpt lat="45.4035767" lon="10.54922"><ele>117.25</ele><time>2026-04-11T08:02:27.448Z</time></trkpt><trkpt lat="45.4034833" lon="10.549305"><ele>117.0</ele><time>2026-04-11T08:02:28.447Z</time></trkpt><trkpt lat="45.4033783" lon="10.5493767"><ele>117.0</ele><time>2026-04-11T08:02:29.458Z</time></trkpt><trkpt lat="45.4032617" lon="10.5494433"><ele>117.0</ele><time>2026-04-11T08:02:30.455Z</time></trkpt><trkpt lat="45.40314" lon="10.5494883"><ele>117.0</ele><time>2026-04-11T08:02:31.451Z</time></trkpt><trkpt lat="45.4030217" lon="10.5495083"><ele>117.0</ele><time>2026-04-11T08:02:32.444Z</time></trkpt><trkpt lat="45.4029067" lon="10.5495"><ele>116.6</ele><time>2026-04-11T08:02:33.453Z</time></trkpt><trkpt lat="45.4027867" lon="10.549475"><ele>116.19999999999999</ele><time>2026-04-11T08:02:34.45Z</time></trkpt><trkpt lat="45.40267" lon="10.5494533"><ele>115.8</ele><time>2026-04-11T08:02:35.452Z</time></trkpt><trkpt lat="45.402565" lon="10.549455"><ele>115.4</ele><time>2026-04-11T08:02:36.45Z</time></trkpt><trkpt lat="45.4024683" lon="10.5494817"><ele>115.0</ele><time>2026-04-11T08:02:37.456Z</time></trkpt><trkpt lat="45.4023717" lon="10.5495317"><ele>115.25</ele><time>2026-04-11T08:02:38.446Z</time></trkpt><trkpt lat="45.4022767" lon="10.5496033"><ele>115.5</ele><time>2026-04-11T08:02:39.457Z</time></trkpt><trkpt lat="45.40218" lon="10.549715"><ele>115.75</ele><time>2026-04-11T08:02:40.446Z</time></trkpt><trkpt lat="45.4020833" lon="10.5498533"><ele>116.0</ele><time>2026-04-11T08:02:41.457Z</time></trkpt><trkpt lat="45.4019817" lon="10.5500017"><ele>116.0</ele><time>2026-04-11T08:02:42.451Z</time></trkpt><trkpt lat="45.40188" lon="10.5501467"><ele>116.0</ele><time>2026-04-11T08:02:43.454Z</time></trkpt><trkpt lat="45.4017717" lon="10.550295"><ele>116.0</ele><time>2026-04-11T08:02:44.445Z</time></trkpt><trkpt lat="45.4016617" lon="10.55045"><ele>116.0</ele><time>2026-04-11T08:02:45.453Z</time></trkpt><trkpt lat="45.4015533" lon="10.550605"><ele>116.25</ele><time>2026-04-11T08:02:46.453Z</time></trkpt><trkpt lat="45.4014467" lon="10.5507467"><ele>116.5</ele><time>2026-04-11T08:02:47.453Z</time></trkpt><trkpt lat="45.4013533" lon="10.55087"><ele>116.75</ele><time>2026-04-11T08:02:48.456Z</time></trkpt><trkpt lat="45.40126" lon="10.550965"><ele>117.0</ele><time>2026-04-11T08:02:49.457Z</time></trkpt><trkpt lat="45.4011733" lon="10.5510283"><ele>116.25</ele><time>2026-04-11T08:02:50.445Z</time></trkpt><trkpt lat="45.4010733" lon="10.5510717"><ele>115.5</ele><time>2026-04-11T08:02:51.446Z</time></trkpt><trkpt lat="45.400965" lon="10.5511033"><ele>114.75</ele><time>2026-04-11T08:02:52.45Z</time></trkpt><trkpt lat="45.4008383" lon="10.5510983"><ele>114.0</ele><time>2026-04-11T08:02:53.452Z</time></trkpt><trkpt lat="45.4007033" lon="10.5510783"><ele>114.0</ele><time>2026-04-11T08:02:54.454Z</time></trkpt><trkpt lat="45.4005767" lon="10.551075"><ele>114.0</ele><time>2026-04-11T08:02:55.46Z</time></trkpt><trkpt lat="45.4004417" lon="10.5510883"><ele>114.0</ele><time>2026-04-11T08:02:56.452Z</time></trkpt><trkpt lat="45.4003133" lon="10.5511267"><ele>114.0</ele><time>2026-04-11T08:02:57.445Z</time></trkpt><trkpt lat="45.4001917" lon="10.5511817"><ele>113.25</ele><time>2026-04-11T08:02:58.452Z</time></trkpt><trkpt lat="45.4000783" lon="10.55126"><ele>112.5</ele><time>2026-04-11T08:02:59.452Z</time></trkpt><trkpt lat="45.3999717" lon="10.551355"><ele>111.75</ele><time>2026-04-11T08:03:00.446Z</time></trkpt><trkpt lat="45.3998733" lon="10.55143"><ele>111.0</ele><time>2026-04-11T08:03:01.455Z</time></trkpt><trkpt lat="45.3997733" lon="10.55148"><ele>112.0</ele><time>2026-04-11T08:03:02.455Z</time></trkpt><trkpt lat="45.399665" lon="10.5515167"><ele>113.0</ele><time>2026-04-11T08:03:03.452Z</time></trkpt><trkpt lat="45.3995467" lon="10.5515283"><ele>114.0</ele><time>2026-04-11T08:03:04.445Z</time></trkpt><trkpt lat="45.3994183" lon="10.5515317"><ele>115.0</ele><time>2026-04-11T08:03:05.455Z</time></trkpt><trkpt lat="45.39929" lon="10.5515367"><ele>115.0</ele><time>2026-04-11T08:03:06.447Z</time></trkpt><trkpt lat="45.3991633" lon="10.5515367"><ele>115.0</ele><time>2026-04-11T08:03:07.452Z</time></trkpt><trkpt lat="45.399045" lon="10.55152"><ele>115.0</ele><time>2026-04-11T08:03:08.451Z</time></trkpt><trkpt lat="45.3989317" lon="10.5515117"><ele>115.0</ele><time>2026-04-11T08:03:09.46Z</time></trkpt><trkpt lat="45.3988217" lon="10.5515183"><ele>117.0</ele><time>2026-04-11T08:03:10.445Z</time></trkpt><trkpt lat="45.39871" lon="10.5515533"><ele>119.0</ele><time>2026-04-11T08:03:11.465Z</time></trkpt><trkpt lat="45.3985967" lon="10.5516083"><ele>121.0</ele><time>2026-04-11T08:03:12.449Z</time></trkpt><trkpt lat="45.3984783" lon="10.5516733"><ele>123.0</ele><time>2026-04-11T08:03:13.451Z</time></trkpt><trkpt lat="45.39837" lon="10.55174"><ele>123.0</ele><time>2026-04-11T08:03:14.452Z</time></trkpt><trkpt lat="45.398265" lon="10.5517933"><ele>123.00000000000001</ele><time>2026-04-11T08:03:15.45Z</time></trkpt><trkpt lat="45.3981617" lon="10.5518217"><ele>123.00000000000001</ele><time>2026-04-11T08:03:16.453Z</time></trkpt><trkpt lat="45.3980517" lon="10.5518383"><ele>123.0</ele><time>2026-04-11T08:03:17.456Z</time></trkpt><trkpt lat="45.3979433" lon="10.5518283"><ele>123.0</ele><time>2026-04-11T08:03:18.46Z</time></trkpt><trkpt lat="45.39783" lon="10.5518167"><ele>122.80000000000001</ele><time>2026-04-11T08:03:19.447Z</time></trkpt><trkpt lat="45.3977167" lon="10.5517983"><ele>122.60000000000001</ele><time>2026-04-11T08:03:20.451Z</time></trkpt><trkpt lat="45.397605" lon="10.5517817"><ele>122.39999999999999</ele><time>2026-04-11T08:03:21.456Z</time></trkpt><trkpt lat="45.3974933" lon="10.5517667"><ele>122.19999999999999</ele><time>2026-04-11T08:03:22.446Z</time></trkpt><trkpt lat="45.397385" lon="10.5517483"><ele>122.0</ele><time>2026-04-11T08:03:23.448Z</time></trkpt><trkpt lat="45.397285" lon="10.5517367"><ele>121.99999999999999</ele><time>2026-04-11T08:03:24.454Z</time></trkpt><trkpt lat="45.3971933" lon="10.55172"><ele>122.0</ele><time>2026-04-11T08:03:25.453Z</time></trkpt><trkpt lat="45.3971167" lon="10.5517067"><ele>122.0</ele><time>2026-04-11T08:03:26.453Z</time></trkpt><trkpt lat="45.3970117" lon="10.5516917"><ele>122.0</ele><time>2026-04-11T08:03:28.449Z</time></trkpt><trkpt lat="45.3969383" lon="10.5517067"><ele>121.99999999999999</ele><time>2026-04-11T08:03:30.453Z</time></trkpt><trkpt lat="45.3968983" lon="10.55179"><ele>122.0</ele><time>2026-04-11T08:03:32.461Z</time></trkpt><trkpt lat="45.396885" lon="10.551935"><ele>121.8</ele><time>2026-04-11T08:03:34.462Z</time></trkpt><trkpt lat="45.3968833" lon="10.5520367"><ele>121.6</ele><time>2026-04-11T08:03:35.463Z</time></trkpt><trkpt lat="45.3968833" lon="10.55216"><ele>121.39999999999999</ele><time>2026-04-11T08:03:36.448Z</time></trkpt><trkpt lat="45.3968983" lon="10.5523033"><ele>121.19999999999999</ele><time>2026-04-11T08:03:37.461Z</time></trkpt><trkpt lat="45.3969367" lon="10.5524633"><ele>121.0</ele><time>2026-04-11T08:03:38.449Z</time></trkpt><trkpt lat="45.3969833" lon="10.5526267"><ele>119.5</ele><time>2026-04-11T08:03:39.455Z</time></trkpt><trkpt lat="45.3970433" lon="10.5527983"><ele>118.0</ele><time>2026-04-11T08:03:40.451Z</time></trkpt><trkpt lat="45.3971217" lon="10.553005"><ele>116.5</ele><time>2026-04-11T08:03:41.456Z</time></trkpt><trkpt lat="45.3971767" lon="10.5532"><ele>115.0</ele><time>2026-04-11T08:03:42.447Z</time></trkpt><trkpt lat="45.3972283" lon="10.553395"><ele>115.0</ele><time>2026-04-11T08:03:43.452Z</time></trkpt><trkpt lat="45.3972917" lon="10.5535817"><ele>115.0</ele><time>2026-04-11T08:03:44.451Z</time></trkpt><trkpt lat="45.3973533" lon="10.5537667"><ele>115.0</ele><time>2026-04-11T08:03:45.459Z</time></trkpt><trkpt lat="45.3974117" lon="10.553945"><ele>115.0</ele><time>2026-04-11T08:03:46.455Z</time></trkpt><trkpt lat="45.3974683" lon="10.5541117"><ele>114.5</ele><time>2026-04-11T08:03:47.459Z</time></trkpt><trkpt lat="45.3975233" lon="10.5542817"><ele>114.0</ele><time>2026-04-11T08:03:48.448Z</time></trkpt><trkpt lat="45.3975733" lon="10.5544583"><ele>113.5</ele><time>2026-04-11T08:03:49.46Z</time></trkpt><trkpt lat="45.3976067" lon="10.5546367"><ele>113.0</ele><time>2026-04-11T08:03:50.456Z</time></trkpt><trkpt lat="45.3976183" lon="10.55482"><ele>112.0</ele><time>2026-04-11T08:03:51.465Z</time></trkpt><trkpt lat="45.3976" lon="10.555015"><ele>111.0</ele><time>2026-04-11T08:03:52.454Z</time></trkpt><trkpt lat="45.39756" lon="10.5552217"><ele>110.0</ele><time>2026-04-11T08:03:53.454Z</time></trkpt><trkpt lat="45.3974983" lon="10.55544"><ele>108.33333333333333</ele><time>2026-04-11T08:03:54.448Z</time></trkpt><trkpt lat="45.3974317" lon="10.5556667"><ele>106.66666666666666</ele><time>2026-04-11T08:03:55.452Z</time></trkpt><trkpt lat="45.3973767" lon="10.5558983"><ele>105.0</ele><time>2026-04-11T08:03:56.453Z</time></trkpt><trkpt lat="45.3973367" lon="10.5561517"><ele>105.33333333333334</ele><time>2026-04-11T08:03:57.45Z</time></trkpt><trkpt lat="45.397305" lon="10.5564017"><ele>105.66666666666667</ele><time>2026-04-11T08:03:58.451Z</time></trkpt><trkpt lat="45.397275" lon="10.55664"><ele>106.0</ele><time>2026-04-11T08:03:59.453Z</time></trkpt><trkpt lat="45.3972417" lon="10.5568567"><ele>106.0</ele><time>2026-04-11T08:04:00.464Z</time></trkpt><trkpt lat="45.3972067" lon="10.55705"><ele>106.0</ele><time>2026-04-11T08:04:01.454Z</time></trkpt><trkpt lat="45.3971683" lon="10.5572167"><ele>106.0</ele><time>2026-04-11T08:04:02.449Z</time></trkpt><trkpt lat="45.3971083" lon="10.5573633"><ele>106.0</ele><time>2026-04-11T08:04:03.448Z</time></trkpt><trkpt lat="45.3970267" lon="10.5575083"><ele>105.33333333333334</ele><time>2026-04-11T08:04:04.446Z</time></trkpt><trkpt lat="45.3969367" lon="10.557665"><ele>104.66666666666666</ele><time>2026-04-11T08:04:05.462Z</time></trkpt><trkpt lat="45.3968483" lon="10.5578483"><ele>104.0</ele><time>2026-04-11T08:04:06.451Z</time></trkpt><trkpt lat="45.396785" lon="10.5580683"><ele>104.0</ele><time>2026-04-11T08:04:07.46Z</time></trkpt><trkpt lat="45.3967467" lon="10.558315"><ele>104.0</ele><time>2026-04-11T08:04:08.46Z</time></trkpt><trkpt lat="45.3967333" lon="10.5585767"><ele>104.0</ele><time>2026-04-11T08:04:09.457Z</time></trkpt><trkpt lat="45.3967417" lon="10.5588467"><ele>104.0</ele><time>2026-04-11T08:04:10.455Z</time></trkpt><trkpt lat="45.3967583" lon="10.5591167"><ele>104.0</ele><time>2026-04-11T08:04:11.468Z</time></trkpt><trkpt lat="45.39678" lon="10.5593883"><ele>104.0</ele><time>2026-04-11T08:04:12.465Z</time></trkpt><trkpt lat="45.3968033" lon="10.5596683"><ele>104.0</ele><time>2026-04-11T08:04:13.461Z</time></trkpt><trkpt lat="45.3968283" lon="10.5599533"><ele>104.0</ele><time>2026-04-11T08:04:14.452Z</time></trkpt><trkpt lat="45.3968467" lon="10.5602383"><ele>104.0</ele><time>2026-04-11T08:04:15.459Z</time></trkpt><trkpt lat="45.3968583" lon="10.5605283"><ele>104.0</ele><time>2026-04-11T08:04:16.456Z</time></trkpt><trkpt lat="45.3968617" lon="10.5608133"><ele>104.0</ele><time>2026-04-11T08:04:17.456Z</time></trkpt><trkpt lat="45.39685" lon="10.56108"><ele>104.0</ele><time>2026-04-11T08:04:18.455Z</time></trkpt><trkpt lat="45.3968167" lon="10.5613367"><ele>104.0</ele><time>2026-04-11T08:04:19.458Z</time></trkpt><trkpt lat="45.3967667" lon="10.5615983"><ele>104.0</ele><time>2026-04-11T08:04:20.447Z</time></trkpt><trkpt lat="45.3967067" lon="10.5618667"><ele>104.0</ele><time>2026-04-11T08:04:21.464Z</time></trkpt><trkpt lat="45.3966367" lon="10.5621367"><ele>103.0</ele><time>2026-04-11T08:04:22.456Z</time></trkpt><trkpt lat="45.39657" lon="10.5623917"><ele>102.0</ele><time>2026-04-11T08:04:23.45Z</time></trkpt><trkpt lat="45.3965017" lon="10.5626217"><ele>101.0</ele><time>2026-04-11T08:04:24.461Z</time></trkpt><trkpt lat="45.3964317" lon="10.5628267"><ele>101.0</ele><time>2026-04-11T08:04:25.459Z</time></trkpt><trkpt lat="45.3963617" lon="10.5630133"><ele>101.0</ele><time>2026-04-11T08:04:26.455Z</time></trkpt><trkpt lat="45.396295" lon="10.56318"><ele>101.0</ele><time>2026-04-11T08:04:27.445Z</time></trkpt><trkpt lat="45.3962383" lon="10.563325"><ele>101.0</ele><time>2026-04-11T08:04:28.456Z</time></trkpt><trkpt lat="45.3961917" lon="10.56344"><ele>100.99999999999999</ele><time>2026-04-11T08:04:29.453Z</time></trkpt><trkpt lat="45.3961517" lon="10.5635267"><ele>101.0</ele><time>2026-04-11T08:04:30.454Z</time></trkpt><trkpt lat="45.396105" lon="10.563615"><ele>101.0</ele><time>2026-04-11T08:04:32.459Z</time></trkpt><trkpt lat="45.3961433" lon="10.5637633"><ele>101.0</ele><time>2026-04-11T08:05:03.457Z</time></trkpt><trkpt lat="45.396205" lon="10.5638467"><ele>100.99999999999999</ele><time>2026-04-11T08:05:04.455Z</time></trkpt><trkpt lat="45.3962783" lon="10.5639433"><ele>101.0</ele><time>2026-04-11T08:05:05.457Z</time></trkpt><trkpt lat="45.3963467" lon="10.5640317"><ele>100.99999999999999</ele><time>2026-04-11T08:05:06.475Z</time></trkpt><trkpt lat="45.3964017" lon="10.5641067"><ele>101.0</ele><time>2026-04-11T08:05:07.455Z</time></trkpt><trkpt lat="45.3964133" lon="10.5642033"><ele>101.0</ele><time>2026-04-11T08:05:09.457Z</time></trkpt><trkpt lat="45.396345" lon="10.5642617"><ele>101.0</ele><time>2026-04-11T08:05:11.461Z</time></trkpt><trkpt lat="45.396285" lon="10.5643017"><ele>100.99999999999999</ele><time>2026-04-11T08:05:12.458Z</time></trkpt><trkpt lat="45.3962033" lon="10.56436"><ele>101.0</ele><time>2026-04-11T08:05:13.457Z</time></trkpt><trkpt lat="45.3961083" lon="10.5644417"><ele>101.0</ele><time>2026-04-11T08:05:14.446Z</time></trkpt><trkpt lat="45.3959983" lon="10.5645333"><ele>101.0</ele><time>2026-04-11T08:05:15.461Z</time></trkpt><trkpt lat="45.3958783" lon="10.5646367"><ele>101.0</ele><time>2026-04-11T08:05:16.457Z</time></trkpt><trkpt lat="45.3957517" lon="10.5647433"><ele>101.0</ele><time>2026-04-11T08:05:17.455Z</time></trkpt><trkpt lat="45.3956217" lon="10.5648533"><ele>101.25</ele><time>2026-04-11T08:05:18.453Z</time></trkpt><trkpt lat="45.3954917" lon="10.5649617"><ele>101.5</ele><time>2026-04-11T08:05:19.459Z</time></trkpt><trkpt lat="45.3953733" lon="10.5650667"><ele>101.75</ele><time>2026-04-11T08:05:20.448Z</time></trkpt><trkpt lat="45.39526" lon="10.5651583"><ele>102.0</ele><time>2026-04-11T08:05:21.479Z</time></trkpt><trkpt lat="45.3951533" lon="10.5652517"><ele>102.0</ele><time>2026-04-11T08:05:22.454Z</time></trkpt><trkpt lat="45.3950617" lon="10.5653483"><ele>102.0</ele><time>2026-04-11T08:05:23.461Z</time></trkpt><trkpt lat="45.394985" lon="10.5654683"><ele>102.0</ele><time>2026-04-11T08:05:24.452Z</time></trkpt><trkpt lat="45.3949133" lon="10.5656083"><ele>102.0</ele><time>2026-04-11T08:05:25.457Z</time></trkpt><trkpt lat="45.3948367" lon="10.5657617"><ele>101.66666666666666</ele><time>2026-04-11T08:05:26.459Z</time></trkpt><trkpt lat="45.3947617" lon="10.5659317"><ele>101.33333333333333</ele><time>2026-04-11T08:05:27.449Z</time></trkpt><trkpt lat="45.3946733" lon="10.5660933"><ele>101.0</ele><time>2026-04-11T08:05:28.455Z</time></trkpt><trkpt lat="45.3945667" lon="10.56632"><ele>101.0</ele><time>2026-04-11T08:05:29.46Z</time></trkpt><trkpt lat="45.3944783" lon="10.5664683"><ele>101.0</ele><time>2026-04-11T08:05:30.45Z</time></trkpt><trkpt lat="45.3943833" lon="10.5666217"><ele>101.0</ele><time>2026-04-11T08:05:31.451Z</time></trkpt><trkpt lat="45.3942767" lon="10.5667967"><ele>101.0</ele><time>2026-04-11T08:05:32.456Z</time></trkpt><trkpt lat="45.3941683" lon="10.5669483"><ele>100.66666666666666</ele><time>2026-04-11T08:05:33.456Z</time></trkpt><trkpt lat="45.3940617" lon="10.567125"><ele>100.33333333333334</ele><time>2026-04-11T08:05:34.459Z</time></trkpt><trkpt lat="45.3939417" lon="10.5672767"><ele>100.0</ele><time>2026-04-11T08:05:35.475Z</time></trkpt><trkpt lat="45.3938167" lon="10.5674083"><ele>100.0</ele><time>2026-04-11T08:05:36.452Z</time></trkpt><trkpt lat="45.39373" lon="10.5675433"><ele>100.0</ele><time>2026-04-11T08:05:37.451Z</time></trkpt><trkpt lat="45.3936567" lon="10.5676533"><ele>100.0</ele><time>2026-04-11T08:05:38.451Z</time></trkpt><trkpt lat="45.3935883" lon="10.5677583"><ele>100.0</ele><time>2026-04-11T08:05:39.451Z</time></trkpt><trkpt lat="45.3935133" lon="10.5678433"><ele>100.0</ele><time>2026-04-11T08:05:40.446Z</time></trkpt><trkpt lat="45.39343" lon="10.5679233"><ele>100.0</ele><time>2026-04-11T08:05:42.46Z</time></trkpt><trkpt lat="45.393335" lon="10.567885"><ele>100.0</ele><time>2026-04-11T08:05:44.45Z</time></trkpt><trkpt lat="45.393275" lon="10.5678083"><ele>100.0</ele><time>2026-04-11T08:05:45.456Z</time></trkpt><trkpt lat="45.3932083" lon="10.5677017"><ele>100.0</ele><time>2026-04-11T08:05:46.443Z</time></trkpt><trkpt lat="45.3931267" lon="10.567565"><ele>100.0</ele><time>2026-04-11T08:05:47.456Z</time></trkpt><trkpt lat="45.3930083" lon="10.567415"><ele>100.0</ele><time>2026-04-11T08:05:48.466Z</time></trkpt><trkpt lat="45.39291" lon="10.567235"><ele>100.0</ele><time>2026-04-11T08:05:49.456Z</time></trkpt><trkpt lat="45.3927767" lon="10.5670667"><ele>100.0</ele><time>2026-04-11T08:05:50.465Z</time></trkpt><trkpt lat="45.3926583" lon="10.5669183"><ele>100.4</ele><time>2026-04-11T08:05:51.453Z</time></trkpt><trkpt lat="45.3925817" lon="10.5667733"><ele>100.8</ele><time>2026-04-11T08:05:52.458Z</time></trkpt><trkpt lat="45.3925217" lon="10.5666417"><ele>101.19999999999999</ele><time>2026-04-11T08:05:53.455Z</time></trkpt><trkpt lat="45.392475" lon="10.5665317"><ele>101.6</ele><time>2026-04-11T08:05:54.462Z</time></trkpt><trkpt lat="45.39242" lon="10.566445"><ele>102.0</ele><time>2026-04-11T08:05:55.452Z</time></trkpt><trkpt lat="45.3923433" lon="10.5663867"><ele>102.0</ele><time>2026-04-11T08:05:56.467Z</time></trkpt><trkpt lat="45.3922383" lon="10.566385"><ele>102.0</ele><time>2026-04-11T08:05:58.454Z</time></trkpt><trkpt lat="45.3921783" lon="10.56649"><ele>102.0</ele><time>2026-04-11T08:05:59.449Z</time></trkpt><trkpt lat="45.3921083" lon="10.5665883"><ele>102.0</ele><time>2026-04-11T08:06:00.455Z</time></trkpt><trkpt lat="45.3920383" lon="10.5667267"><ele>102.0</ele><time>2026-04-11T08:06:01.458Z</time></trkpt><trkpt lat="45.3919617" lon="10.5668567"><ele>102.19999999999999</ele><time>2026-04-11T08:06:02.454Z</time></trkpt><trkpt lat="45.391875" lon="10.5669717"><ele>102.4</ele><time>2026-04-11T08:06:03.466Z</time></trkpt><trkpt lat="45.3918167" lon="10.56705"><ele>102.6</ele><time>2026-04-11T08:06:04.451Z</time></trkpt><trkpt lat="45.3917533" lon="10.567115"><ele>102.80000000000001</ele><time>2026-04-11T08:06:05.446Z</time></trkpt><trkpt lat="45.3916583" lon="10.5671583"><ele>103.0</ele><time>2026-04-11T08:06:07.454Z</time></trkpt><trkpt lat="45.3916133" lon="10.5670483"><ele>103.80000000000001</ele><time>2026-04-11T08:06:09.451Z</time></trkpt><trkpt lat="45.39158" lon="10.566915"><ele>104.6</ele><time>2026-04-11T08:06:11.45Z</time></trkpt><trkpt lat="45.3915333" lon="10.566775"><ele>105.39999999999999</ele><time>2026-04-11T08:06:13.454Z</time></trkpt><trkpt lat="45.3914683" lon="10.566665"><ele>106.19999999999999</ele><time>2026-04-11T08:06:15.454Z</time></trkpt><trkpt lat="45.39138" lon="10.56654"><ele>107.0</ele><time>2026-04-11T08:06:17.458Z</time></trkpt><trkpt lat="45.39133" lon="10.5664633"><ele>107.33333333333333</ele><time>2026-04-11T08:06:18.451Z</time></trkpt><trkpt lat="45.3912783" lon="10.5663867"><ele>107.66666666666666</ele><time>2026-04-11T08:06:19.457Z</time></trkpt><trkpt lat="45.3912317" lon="10.5663083"><ele>108.0</ele><time>2026-04-11T08:06:20.452Z</time></trkpt><trkpt lat="45.39118" lon="10.566225"><ele>108.33333333333334</ele><time>2026-04-11T08:06:21.461Z</time></trkpt><trkpt lat="45.3911283" lon="10.5661367"><ele>108.66666666666667</ele><time>2026-04-11T08:06:22.455Z</time></trkpt><trkpt lat="45.3910833" lon="10.566045"><ele>109.0</ele><time>2026-04-11T08:06:23.46Z</time></trkpt><trkpt lat="45.3910333" lon="10.5659467"><ele>110.33333333333334</ele><time>2026-04-11T08:06:24.45Z</time></trkpt><trkpt lat="45.39099" lon="10.565845"><ele>111.66666666666667</ele><time>2026-04-11T08:06:25.454Z</time></trkpt><trkpt lat="45.390945" lon="10.5657433"><ele>113.0</ele><time>2026-04-11T08:06:26.46Z</time></trkpt><trkpt lat="45.3908983" lon="10.5656417"><ele>114.33333333333334</ele><time>2026-04-11T08:06:27.465Z</time></trkpt><trkpt lat="45.3908517" lon="10.5655467"><ele>115.66666666666667</ele><time>2026-04-11T08:06:28.448Z</time></trkpt><trkpt lat="45.3908033" lon="10.5654617"><ele>117.0</ele><time>2026-04-11T08:06:29.451Z</time></trkpt><trkpt lat="45.3907583" lon="10.565395"><ele>117.0</ele><time>2026-04-11T08:06:30.462Z</time></trkpt><trkpt lat="45.3906817" lon="10.56534"><ele>117.0</ele><time>2026-04-11T08:06:32.468Z</time></trkpt><trkpt lat="45.3906367" lon="10.5654267"><ele>117.0</ele><time>2026-04-11T08:06:34.453Z</time></trkpt><trkpt lat="45.3905983" lon="10.565505"><ele>117.0</ele><time>2026-04-11T08:06:35.449Z</time></trkpt><trkpt lat="45.390555" lon="10.56561"><ele>117.0</ele><time>2026-04-11T08:06:36.458Z</time></trkpt><trkpt lat="45.390505" lon="10.5657167"><ele>117.0</ele><time>2026-04-11T08:06:37.448Z</time></trkpt><trkpt lat="45.390445" lon="10.565835"><ele>116.5</ele><time>2026-04-11T08:06:38.46Z</time></trkpt><trkpt lat="45.3903867" lon="10.5659533"><ele>116.0</ele><time>2026-04-11T08:06:39.456Z</time></trkpt><trkpt lat="45.3903067" lon="10.5660717"><ele>115.5</ele><time>2026-04-11T08:06:40.453Z</time></trkpt><trkpt lat="45.3902167" lon="10.5662017"><ele>115.0</ele><time>2026-04-11T08:06:41.444Z</time></trkpt><trkpt lat="45.3901517" lon="10.5663383"><ele>114.5</ele><time>2026-04-11T08:06:42.456Z</time></trkpt><trkpt lat="45.390055" lon="10.5664517"><ele>114.0</ele><time>2026-04-11T08:06:43.45Z</time></trkpt><trkpt lat="45.3899367" lon="10.566555"><ele>113.5</ele><time>2026-04-11T08:06:44.447Z</time></trkpt><trkpt lat="45.389825" lon="10.566645"><ele>113.0</ele><time>2026-04-11T08:06:45.449Z</time></trkpt><trkpt lat="45.3896867" lon="10.5667283"><ele>113.33333333333333</ele><time>2026-04-11T08:06:46.46Z</time></trkpt><trkpt lat="45.389545" lon="10.5668183"><ele>113.66666666666666</ele><time>2026-04-11T08:06:47.443Z</time></trkpt><trkpt lat="45.389405" lon="10.5669133"><ele>114.0</ele><time>2026-04-11T08:06:48.453Z</time></trkpt><trkpt lat="45.3892667" lon="10.5670017"><ele>114.0</ele><time>2026-04-11T08:06:49.455Z</time></trkpt><trkpt lat="45.3891233" lon="10.567105"><ele>114.0</ele><time>2026-04-11T08:06:50.459Z</time></trkpt><trkpt lat="45.3890017" lon="10.5671917"><ele>114.0</ele><time>2026-04-11T08:06:51.454Z</time></trkpt><trkpt lat="45.38889" lon="10.5673033"><ele>114.0</ele><time>2026-04-11T08:06:52.456Z</time></trkpt><trkpt lat="45.3888017" lon="10.5674117"><ele>114.0</ele><time>2026-04-11T08:06:53.45Z</time></trkpt><trkpt lat="45.3887183" lon="10.5675317"><ele>114.0</ele><time>2026-04-11T08:06:54.452Z</time></trkpt><trkpt lat="45.3886283" lon="10.5676517"><ele>114.0</ele><time>2026-04-11T08:06:55.45Z</time></trkpt><trkpt lat="45.3885283" lon="10.567785"><ele>114.0</ele><time>2026-04-11T08:06:56.453Z</time></trkpt><trkpt lat="45.3884217" lon="10.5678933"><ele>113.75</ele><time>2026-04-11T08:06:57.45Z</time></trkpt><trkpt lat="45.3883133" lon="10.5680183"><ele>113.5</ele><time>2026-04-11T08:06:58.462Z</time></trkpt><trkpt lat="45.3881833" lon="10.5681267"><ele>113.25</ele><time>2026-04-11T08:06:59.45Z</time></trkpt><trkpt lat="45.38806" lon="10.568235"><ele>113.0</ele><time>2026-04-11T08:07:00.458Z</time></trkpt><trkpt lat="45.3879317" lon="10.56834"><ele>113.0</ele><time>2026-04-11T08:07:01.457Z</time></trkpt><trkpt lat="45.3877917" lon="10.5684433"><ele>113.0</ele><time>2026-04-11T08:07:02.454Z</time></trkpt><trkpt lat="45.3876533" lon="10.568555"><ele>113.0</ele><time>2026-04-11T08:07:03.446Z</time></trkpt><trkpt lat="45.3875167" lon="10.5686717"><ele>113.0</ele><time>2026-04-11T08:07:04.454Z</time></trkpt><trkpt lat="45.38741" lon="10.5687817"><ele>113.0</ele><time>2026-04-11T08:07:05.455Z</time></trkpt><trkpt lat="45.3872983" lon="10.568885"><ele>113.0</ele><time>2026-04-11T08:07:06.45Z</time></trkpt><trkpt lat="45.3871933" lon="10.5689933"><ele>113.0</ele><time>2026-04-11T08:07:07.458Z</time></trkpt><trkpt lat="45.3870783" lon="10.5691067"><ele>113.0</ele><time>2026-04-11T08:07:08.453Z</time></trkpt><trkpt lat="45.3869683" lon="10.5692267"><ele>113.0</ele><time>2026-04-11T08:07:09.447Z</time></trkpt><trkpt lat="45.38686" lon="10.56937"><ele>113.0</ele><time>2026-04-11T08:07:10.453Z</time></trkpt><trkpt lat="45.386755" lon="10.56951"><ele>113.0</ele><time>2026-04-11T08:07:11.449Z</time></trkpt><trkpt lat="45.3866683" lon="10.56967"><ele>113.0</ele><time>2026-04-11T08:07:12.453Z</time></trkpt><trkpt lat="45.3865883" lon="10.5698383"><ele>113.0</ele><time>2026-04-11T08:07:13.453Z</time></trkpt><trkpt lat="45.3865317" lon="10.5699833"><ele>113.0</ele><time>2026-04-11T08:07:14.456Z</time></trkpt><trkpt lat="45.386445" lon="10.5701183"><ele>113.0</ele><time>2026-04-11T08:07:15.453Z</time></trkpt><trkpt lat="45.386425" lon="10.5702733"><ele>112.0</ele><time>2026-04-11T08:07:16.449Z</time></trkpt><trkpt lat="45.38635" lon="10.57043"><ele>111.0</ele><time>2026-04-11T08:07:17.458Z</time></trkpt><trkpt lat="45.3863067" lon="10.5706017"><ele>110.0</ele><time>2026-04-11T08:07:18.458Z</time></trkpt><trkpt lat="45.3862833" lon="10.5707833"><ele>109.0</ele><time>2026-04-11T08:07:19.451Z</time></trkpt><trkpt lat="45.3862167" lon="10.5709717"><ele>109.0</ele><time>2026-04-11T08:07:20.451Z</time></trkpt><trkpt lat="45.386195" lon="10.5711567"><ele>109.0</ele><time>2026-04-11T08:07:21.46Z</time></trkpt><trkpt lat="45.3861767" lon="10.5713167"><ele>109.0</ele><time>2026-04-11T08:07:22.459Z</time></trkpt><trkpt lat="45.3861583" lon="10.5714583"><ele>109.0</ele><time>2026-04-11T08:07:23.45Z</time></trkpt><trkpt lat="45.3861483" lon="10.5716183"><ele>108.80000000000001</ele><time>2026-04-11T08:07:24.456Z</time></trkpt><trkpt lat="45.3861717" lon="10.5717383"><ele>108.60000000000001</ele><time>2026-04-11T08:07:25.462Z</time></trkpt><trkpt lat="45.386195" lon="10.5718533"><ele>108.4</ele><time>2026-04-11T08:07:26.446Z</time></trkpt><trkpt lat="45.3862533" lon="10.5719667"><ele>108.2</ele><time>2026-04-11T08:07:27.454Z</time></trkpt><trkpt lat="45.38635" lon="10.5720717"><ele>108.0</ele><time>2026-04-11T08:07:28.452Z</time></trkpt><trkpt lat="45.3864333" lon="10.5721267"><ele>107.16666666666667</ele><time>2026-04-11T08:07:29.481Z</time></trkpt><trkpt lat="45.3864733" lon="10.572225"><ele>106.33333333333334</ele><time>2026-04-11T08:07:30.468Z</time></trkpt><trkpt lat="45.3865533" lon="10.572245"><ele>105.5</ele><time>2026-04-11T08:07:31.461Z</time></trkpt><trkpt lat="45.38661" lon="10.5723017"><ele>104.66666666666667</ele><time>2026-04-11T08:07:32.47Z</time></trkpt><trkpt lat="45.3866567" lon="10.5724467"><ele>103.83333333333334</ele><time>2026-04-11T08:07:34.451Z</time></trkpt><trkpt lat="45.3866133" lon="10.5725333"><ele>103.0</ele><time>2026-04-11T08:07:35.446Z</time></trkpt><trkpt lat="45.3865483" lon="10.572615"><ele>103.00000000000001</ele><time>2026-04-11T08:07:36.448Z</time></trkpt><trkpt lat="45.3864817" lon="10.572695"><ele>103.0</ele><time>2026-04-11T08:07:37.452Z</time></trkpt><trkpt lat="45.386405" lon="10.57278"><ele>103.0</ele><time>2026-04-11T08:07:38.447Z</time></trkpt><trkpt lat="45.38636" lon="10.5728733"><ele>103.0</ele><time>2026-04-11T08:07:39.444Z</time></trkpt><trkpt lat="45.3863567" lon="10.5729983"><ele>103.00000000000001</ele><time>2026-04-11T08:07:40.456Z</time></trkpt><trkpt lat="45.3863633" lon="10.573135"><ele>103.0</ele><time>2026-04-11T08:07:41.447Z</time></trkpt><trkpt lat="45.3863733" lon="10.57329"><ele>103.0</ele><time>2026-04-11T08:07:42.453Z</time></trkpt><trkpt lat="45.38642" lon="10.57343"><ele>103.0</ele><time>2026-04-11T08:07:43.451Z</time></trkpt><trkpt lat="45.3864433" lon="10.57359"><ele>103.0</ele><time>2026-04-11T08:07:44.47Z</time></trkpt><trkpt lat="45.386485" lon="10.5737683"><ele>103.0</ele><time>2026-04-11T08:07:45.446Z</time></trkpt><trkpt lat="45.386515" lon="10.5739417"><ele>102.75</ele><time>2026-04-11T08:07:46.452Z</time></trkpt><trkpt lat="45.386535" lon="10.57412"><ele>102.5</ele><time>2026-04-11T08:07:47.448Z</time></trkpt><trkpt lat="45.3865467" lon="10.57431"><ele>102.25</ele><time>2026-04-11T08:07:48.452Z</time></trkpt><trkpt lat="45.3865217" lon="10.574485"><ele>102.0</ele><time>2026-04-11T08:07:49.45Z</time></trkpt><trkpt lat="45.3865333" lon="10.5745817"><ele>101.75</ele><time>2026-04-11T08:07:50.458Z</time></trkpt><trkpt lat="45.38652" lon="10.57471"><ele>101.5</ele><time>2026-04-11T08:07:51.447Z</time></trkpt><trkpt lat="45.3864733" lon="10.5748483"><ele>101.25</ele><time>2026-04-11T08:07:52.451Z</time></trkpt><trkpt lat="45.3863883" lon="10.5749767"><ele>101.0</ele><time>2026-04-11T08:07:53.453Z</time></trkpt><trkpt lat="45.3862917" lon="10.5750983"><ele>102.0</ele><time>2026-04-11T08:07:54.453Z</time></trkpt><trkpt lat="45.386195" lon="10.5752"><ele>103.0</ele><time>2026-04-11T08:07:55.448Z</time></trkpt><trkpt lat="45.3860967" lon="10.5753383"><ele>104.0</ele><time>2026-04-11T08:07:56.458Z</time></trkpt><trkpt lat="45.386025" lon="10.575485"><ele>105.0</ele><time>2026-04-11T08:07:57.449Z</time></trkpt><trkpt lat="45.3859367" lon="10.5756483"><ele>105.0</ele><time>2026-04-11T08:07:58.455Z</time></trkpt><trkpt lat="45.38588" lon="10.5758433"><ele>105.0</ele><time>2026-04-11T08:07:59.451Z</time></trkpt><trkpt lat="45.3858083" lon="10.576025"><ele>105.0</ele><time>2026-04-11T08:08:00.451Z</time></trkpt><trkpt lat="45.3857483" lon="10.5762017"><ele>105.0</ele><time>2026-04-11T08:08:01.46Z</time></trkpt><trkpt lat="45.385695" lon="10.576395"><ele>105.5</ele><time>2026-04-11T08:08:02.462Z</time></trkpt><trkpt lat="45.3856683" lon="10.5765883"><ele>106.0</ele><time>2026-04-11T08:08:03.453Z</time></trkpt><trkpt lat="45.3856433" lon="10.5767667"><ele>106.5</ele><time>2026-04-11T08:08:04.461Z</time></trkpt><trkpt lat="45.3856083" lon="10.57699"><ele>107.0</ele><time>2026-04-11T08:08:05.45Z</time></trkpt><trkpt lat="45.3855817" lon="10.5772"><ele>107.0</ele><time>2026-04-11T08:08:06.466Z</time></trkpt><trkpt lat="45.385565" lon="10.5774"><ele>107.0</ele><time>2026-04-11T08:08:07.47Z</time></trkpt><trkpt lat="45.3855233" lon="10.5776117"><ele>107.0</ele><time>2026-04-11T08:08:08.452Z</time></trkpt><trkpt lat="45.385485" lon="10.5778133"><ele>107.0</ele><time>2026-04-11T08:08:09.464Z</time></trkpt><trkpt lat="45.3854533" lon="10.5780033"><ele>106.8</ele><time>2026-04-11T08:08:10.458Z</time></trkpt><trkpt lat="45.3854283" lon="10.57818"><ele>106.6</ele><time>2026-04-11T08:08:11.45Z</time></trkpt><trkpt lat="45.3854017" lon="10.5783317"><ele>106.39999999999999</ele><time>2026-04-11T08:08:12.458Z</time></trkpt><trkpt lat="45.385405" lon="10.5784517"><ele>106.19999999999999</ele><time>2026-04-11T08:08:13.452Z</time></trkpt><trkpt lat="45.38539" lon="10.57855"><ele>106.0</ele><time>2026-04-11T08:08:14.457Z</time></trkpt><trkpt lat="45.3854467" lon="10.578675"><ele>104.5</ele><time>2026-04-11T08:08:16.456Z</time></trkpt><trkpt lat="45.38554" lon="10.5787517"><ele>103.0</ele><time>2026-04-11T08:08:18.449Z</time></trkpt><trkpt lat="45.3856383" lon="10.578765"><ele>101.5</ele><time>2026-04-11T08:08:19.447Z</time></trkpt><trkpt lat="45.3857567" lon="10.5787767"><ele>100.0</ele><time>2026-04-11T08:08:20.449Z</time></trkpt><trkpt lat="45.38592" lon="10.57881"><ele>100.0</ele><time>2026-04-11T08:08:21.452Z</time></trkpt><trkpt lat="45.3860683" lon="10.5788217"><ele>100.0</ele><time>2026-04-11T08:08:22.463Z</time></trkpt><trkpt lat="45.3862133" lon="10.5788333"><ele>100.0</ele><time>2026-04-11T08:08:23.446Z</time></trkpt><trkpt lat="45.38638" lon="10.5788783"><ele>100.33333333333334</ele><time>2026-04-11T08:08:24.449Z</time></trkpt><trkpt lat="45.3865483" lon="10.5788933"><ele>100.66666666666666</ele><time>2026-04-11T08:08:25.449Z</time></trkpt><trkpt lat="45.3867167" lon="10.5789267"><ele>101.0</ele><time>2026-04-11T08:08:26.445Z</time></trkpt><trkpt lat="45.3868717" lon="10.5789617"><ele>101.0</ele><time>2026-04-11T08:08:27.45Z</time></trkpt><trkpt lat="45.38704" lon="10.57898"><ele>101.0</ele><time>2026-04-11T08:08:28.465Z</time></trkpt><trkpt lat="45.38722" lon="10.5790583"><ele>101.0</ele><time>2026-04-11T08:08:29.453Z</time></trkpt><trkpt lat="45.3873933" lon="10.5791383"><ele>100.66666666666666</ele><time>2026-04-11T08:08:30.473Z</time></trkpt><trkpt lat="45.3875817" lon="10.5792017"><ele>100.33333333333334</ele><time>2026-04-11T08:08:31.452Z</time></trkpt><trkpt lat="45.387755" lon="10.57926"><ele>100.0</ele><time>2026-04-11T08:08:32.448Z</time></trkpt><trkpt lat="45.38791" lon="10.5793917"><ele>100.66666666666667</ele><time>2026-04-11T08:08:33.45Z</time></trkpt><trkpt lat="45.38809" lon="10.5794417"><ele>101.33333333333334</ele><time>2026-04-11T08:08:34.453Z</time></trkpt><trkpt lat="45.38827" lon="10.5794733"><ele>102.0</ele><time>2026-04-11T08:08:35.452Z</time></trkpt><trkpt lat="45.3884133" lon="10.579525"><ele>102.0</ele><time>2026-04-11T08:08:36.449Z</time></trkpt><trkpt lat="45.3885483" lon="10.57958"><ele>102.0</ele><time>2026-04-11T08:08:37.451Z</time></trkpt><trkpt lat="45.38869" lon="10.5796467"><ele>102.0</ele><time>2026-04-11T08:08:38.461Z</time></trkpt><trkpt lat="45.3888417" lon="10.5797"><ele>102.0</ele><time>2026-04-11T08:08:39.443Z</time></trkpt><trkpt lat="45.3889583" lon="10.579765"><ele>103.0</ele><time>2026-04-11T08:08:40.457Z</time></trkpt><trkpt lat="45.3890433" lon="10.5798133"><ele>104.0</ele><time>2026-04-11T08:08:41.459Z</time></trkpt><trkpt lat="45.3891367" lon="10.5798417"><ele>104.99999999999999</ele><time>2026-04-11T08:08:42.457Z</time></trkpt><trkpt lat="45.389205" lon="10.579875"><ele>106.0</ele><time>2026-04-11T08:08:43.447Z</time></trkpt><trkpt lat="45.3892333" lon="10.5800267"><ele>107.0</ele><time>2026-04-11T08:08:45.457Z</time></trkpt><trkpt lat="45.389205" lon="10.58016"><ele>107.0</ele><time>2026-04-11T08:08:46.461Z</time></trkpt><trkpt lat="45.3891633" lon="10.5803117"><ele>107.0</ele><time>2026-04-11T08:08:47.474Z</time></trkpt><trkpt lat="45.3890967" lon="10.5805433"><ele>107.0</ele><time>2026-04-11T08:08:48.449Z</time></trkpt><trkpt lat="45.3890267" lon="10.5808117"><ele>107.0</ele><time>2026-04-11T08:08:49.445Z</time></trkpt><trkpt lat="45.38895" lon="10.5810717"><ele>107.0</ele><time>2026-04-11T08:08:50.454Z</time></trkpt><trkpt lat="45.3888717" lon="10.5813917"><ele>107.0</ele><time>2026-04-11T08:08:51.472Z</time></trkpt><trkpt lat="45.38881" lon="10.581685"><ele>105.66666666666666</ele><time>2026-04-11T08:08:52.471Z</time></trkpt><trkpt lat="45.38876" lon="10.5819533"><ele>104.33333333333334</ele><time>2026-04-11T08:08:53.448Z</time></trkpt><trkpt lat="45.3887233" lon="10.5822117"><ele>103.0</ele><time>2026-04-11T08:08:54.455Z</time></trkpt><trkpt lat="45.38868" lon="10.5824383"><ele>103.00000000000001</ele><time>2026-04-11T08:08:55.452Z</time></trkpt><trkpt lat="45.3886467" lon="10.5826033"><ele>103.0</ele><time>2026-04-11T08:08:56.452Z</time></trkpt><trkpt lat="45.38862" lon="10.5827133"><ele>103.0</ele><time>2026-04-11T08:08:57.454Z</time></trkpt><trkpt lat="45.388605" lon="10.5828033"><ele>103.0</ele><time>2026-04-11T08:08:58.453Z</time></trkpt><trkpt lat="45.3886533" lon="10.5829033"><ele>103.00000000000001</ele><time>2026-04-11T08:09:00.455Z</time></trkpt><trkpt lat="45.388715" lon="10.5829233"><ele>103.0</ele><time>2026-04-11T08:09:01.455Z</time></trkpt><trkpt lat="45.3887967" lon="10.5829367"><ele>104.75</ele><time>2026-04-11T08:09:02.457Z</time></trkpt><trkpt lat="45.3889067" lon="10.58295"><ele>106.5</ele><time>2026-04-11T08:09:03.451Z</time></trkpt><trkpt lat="45.3890483" lon="10.58297"><ele>108.25</ele><time>2026-04-11T08:09:04.45Z</time></trkpt><trkpt lat="45.389185" lon="10.5829817"><ele>110.0</ele><time>2026-04-11T08:09:05.455Z</time></trkpt><trkpt lat="45.3893267" lon="10.582995"><ele>110.0</ele><time>2026-04-11T08:09:06.453Z</time></trkpt><trkpt lat="45.389455" lon="10.583005"><ele>110.0</ele><time>2026-04-11T08:09:07.458Z</time></trkpt><trkpt lat="45.38958" lon="10.5829867"><ele>110.0</ele><time>2026-04-11T08:09:08.451Z</time></trkpt><trkpt lat="45.3897067" lon="10.58297"><ele>110.0</ele><time>2026-04-11T08:09:09.457Z</time></trkpt><trkpt lat="45.3898067" lon="10.5829867"><ele>112.0</ele><time>2026-04-11T08:09:10.457Z</time></trkpt><trkpt lat="45.3899083" lon="10.5830083"><ele>114.0</ele><time>2026-04-11T08:09:11.446Z</time></trkpt><trkpt lat="45.3899767" lon="10.5830217"><ele>116.0</ele><time>2026-04-11T08:09:12.458Z</time></trkpt><trkpt lat="45.3900267" lon="10.5830767"><ele>118.0</ele><time>2026-04-11T08:09:14.444Z</time></trkpt><trkpt lat="45.389985" lon="10.5832267"><ele>120.0</ele><time>2026-04-11T08:09:17.446Z</time></trkpt><trkpt lat="45.3899133" lon="10.5833767"><ele>120.0</ele><time>2026-04-11T08:09:19.451Z</time></trkpt><trkpt lat="45.3898867" lon="10.583535"><ele>120.0</ele><time>2026-04-11T08:09:21.444Z</time></trkpt><trkpt lat="45.3898933" lon="10.5836317"><ele>120.0</ele><time>2026-04-11T08:09:22.452Z</time></trkpt><trkpt lat="45.3899133" lon="10.58373"><ele>120.0</ele><time>2026-04-11T08:09:23.447Z</time></trkpt><trkpt lat="45.389955" lon="10.5838183"><ele>120.0</ele><time>2026-04-11T08:09:24.45Z</time></trkpt><trkpt lat="45.3900033" lon="10.583895"><ele>120.0</ele><time>2026-04-11T08:09:25.456Z</time></trkpt><trkpt lat="45.39007" lon="10.58395"><ele>119.83333333333333</ele><time>2026-04-11T08:09:26.447Z</time></trkpt><trkpt lat="45.390145" lon="10.583985"><ele>119.66666666666666</ele><time>2026-04-11T08:09:27.453Z</time></trkpt><trkpt lat="45.3902367" lon="10.5839917"><ele>119.5</ele><time>2026-04-11T08:09:28.455Z</time></trkpt><trkpt lat="45.39034" lon="10.583975"><ele>119.33333333333333</ele><time>2026-04-11T08:09:29.446Z</time></trkpt><trkpt lat="45.3904267" lon="10.5839717"><ele>119.16666666666666</ele><time>2026-04-11T08:09:30.451Z</time></trkpt><trkpt lat="45.3905067" lon="10.5839667"><ele>119.0</ele><time>2026-04-11T08:09:31.452Z</time></trkpt><trkpt lat="45.3905833" lon="10.5839567"><ele>119.0</ele><time>2026-04-11T08:09:32.458Z</time></trkpt><trkpt lat="45.3906583" lon="10.5839433"><ele>119.0</ele><time>2026-04-11T08:09:33.45Z</time></trkpt><trkpt lat="45.390725" lon="10.5839383"><ele>119.0</ele><time>2026-04-11T08:09:34.45Z</time></trkpt><trkpt lat="45.3907933" lon="10.58393"><ele>119.0</ele><time>2026-04-11T08:09:35.451Z</time></trkpt><trkpt lat="45.3908617" lon="10.5839217"><ele>119.0</ele><time>2026-04-11T08:09:36.45Z</time></trkpt><trkpt lat="45.3909333" lon="10.5839117"><ele>119.0</ele><time>2026-04-11T08:09:37.454Z</time></trkpt><trkpt lat="45.391005" lon="10.58391"><ele>119.0</ele><time>2026-04-11T08:09:38.453Z</time></trkpt><trkpt lat="45.3910767" lon="10.5839283"><ele>118.99999999999999</ele><time>2026-04-11T08:09:39.448Z</time></trkpt><trkpt lat="45.391145" lon="10.5839617"><ele>119.0</ele><time>2026-04-11T08:09:40.461Z</time></trkpt><trkpt lat="45.3912117" lon="10.584025"><ele>119.0</ele><time>2026-04-11T08:09:41.453Z</time></trkpt><trkpt lat="45.3912733" lon="10.5841183"><ele>119.0</ele><time>2026-04-11T08:09:42.454Z</time></trkpt><trkpt lat="45.39134" lon="10.5842117"><ele>118.99999999999999</ele><time>2026-04-11T08:09:43.445Z</time></trkpt><trkpt lat="45.3914117" lon="10.584295"><ele>119.0</ele><time>2026-04-11T08:09:44.452Z</time></trkpt><trkpt lat="45.39148" lon="10.5843783"><ele>118.33333333333333</ele><time>2026-04-11T08:09:45.45Z</time></trkpt><trkpt lat="45.39155" lon="10.5844517"><ele>117.66666666666666</ele><time>2026-04-11T08:09:46.455Z</time></trkpt><trkpt lat="45.3916167" lon="10.5845333"><ele>117.0</ele><time>2026-04-11T08:09:47.452Z</time></trkpt><trkpt lat="45.3916783" lon="10.5846167"><ele>116.33333333333334</ele><time>2026-04-11T08:09:48.453Z</time></trkpt><trkpt lat="45.3917233" lon="10.5847067"><ele>115.66666666666667</ele><time>2026-04-11T08:09:49.447Z</time></trkpt><trkpt lat="45.3917533" lon="10.5848033"><ele>115.0</ele><time>2026-04-11T08:09:50.463Z</time></trkpt><trkpt lat="45.3917633" lon="10.5849067"><ele>115.00000000000001</ele><time>2026-04-11T08:09:51.452Z</time></trkpt><trkpt lat="45.3917567" lon="10.5850133"><ele>115.0</ele><time>2026-04-11T08:09:52.451Z</time></trkpt><trkpt lat="45.3917417" lon="10.585125"><ele>115.0</ele><time>2026-04-11T08:09:53.445Z</time></trkpt><trkpt lat="45.3917183" lon="10.5852417"><ele>115.0</ele><time>2026-04-11T08:09:54.454Z</time></trkpt><trkpt lat="45.3916967" lon="10.585375"><ele>115.00000000000001</ele><time>2026-04-11T08:09:55.446Z</time></trkpt><trkpt lat="45.3916817" lon="10.5855317"><ele>115.0</ele><time>2026-04-11T08:09:56.45Z</time></trkpt><trkpt lat="45.391655" lon="10.585695"><ele>115.0</ele><time>2026-04-11T08:09:57.448Z</time></trkpt><trkpt lat="45.39162" lon="10.5858817"><ele>115.0</ele><time>2026-04-11T08:09:58.453Z</time></trkpt><trkpt lat="45.39158" lon="10.5860533"><ele>115.0</ele><time>2026-04-11T08:09:59.447Z</time></trkpt><trkpt lat="45.39156" lon="10.5861783"><ele>115.0</ele><time>2026-04-11T08:10:00.447Z</time></trkpt><trkpt lat="45.3915317" lon="10.5863133"><ele>115.0</ele><time>2026-04-11T08:10:01.468Z</time></trkpt><trkpt lat="45.3914917" lon="10.5864483"><ele>115.0</ele><time>2026-04-11T08:10:02.455Z</time></trkpt><trkpt lat="45.3914233" lon="10.586585"><ele>115.0</ele><time>2026-04-11T08:10:03.45Z</time></trkpt><trkpt lat="45.3913567" lon="10.58672"><ele>115.0</ele><time>2026-04-11T08:10:04.456Z</time></trkpt><trkpt lat="45.39131" lon="10.586865"><ele>115.0</ele><time>2026-04-11T08:10:05.455Z</time></trkpt><trkpt lat="45.3912833" lon="10.5870233"><ele>115.0</ele><time>2026-04-11T08:10:06.462Z</time></trkpt><trkpt lat="45.3912583" lon="10.5871833"><ele>115.0</ele><time>2026-04-11T08:10:07.45Z</time></trkpt><trkpt lat="45.3912683" lon="10.5873317"><ele>115.0</ele><time>2026-04-11T08:10:08.446Z</time></trkpt><trkpt lat="45.3913367" lon="10.587465"><ele>115.0</ele><time>2026-04-11T08:10:09.449Z</time></trkpt><trkpt lat="45.3914167" lon="10.587585"><ele>115.0</ele><time>2026-04-11T08:10:10.454Z</time></trkpt><trkpt lat="45.391535" lon="10.5876883"><ele>115.0</ele><time>2026-04-11T08:10:11.449Z</time></trkpt><trkpt lat="45.391635" lon="10.5877833"><ele>115.0</ele><time>2026-04-11T08:10:12.447Z</time></trkpt><trkpt lat="45.3917283" lon="10.5879483"><ele>115.0</ele><time>2026-04-11T08:10:13.456Z</time></trkpt><trkpt lat="45.391805" lon="10.588115"><ele>115.75</ele><time>2026-04-11T08:10:14.456Z</time></trkpt><trkpt lat="45.3918517" lon="10.5882833"><ele>116.5</ele><time>2026-04-11T08:10:15.444Z</time></trkpt><trkpt lat="45.3918917" lon="10.588445"><ele>117.25</ele><time>2026-04-11T08:10:16.453Z</time></trkpt><trkpt lat="45.3919367" lon="10.5886217"><ele>118.0</ele><time>2026-04-11T08:10:17.452Z</time></trkpt><trkpt lat="45.3919733" lon="10.588795"><ele>118.0</ele><time>2026-04-11T08:10:18.451Z</time></trkpt><trkpt lat="45.3920033" lon="10.5889867"><ele>118.0</ele><time>2026-04-11T08:10:19.445Z</time></trkpt><trkpt lat="45.3920267" lon="10.5891983"><ele>118.0</ele><time>2026-04-11T08:10:20.454Z</time></trkpt><trkpt lat="45.3920083" lon="10.589445"><ele>117.75</ele><time>2026-04-11T08:10:21.446Z</time></trkpt><trkpt lat="45.39204" lon="10.589615"><ele>117.5</ele><time>2026-04-11T08:10:22.454Z</time></trkpt><trkpt lat="45.3920283" lon="10.58986"><ele>117.25</ele><time>2026-04-11T08:10:23.453Z</time></trkpt><trkpt lat="45.3920267" lon="10.5900683"><ele>117.0</ele><time>2026-04-11T08:10:24.459Z</time></trkpt><trkpt lat="45.3920267" lon="10.59032"><ele>116.75</ele><time>2026-04-11T08:10:25.445Z</time></trkpt><trkpt lat="45.3920367" lon="10.5905267"><ele>116.5</ele><time>2026-04-11T08:10:26.454Z</time></trkpt><trkpt lat="45.3920417" lon="10.59074"><ele>116.25</ele><time>2026-04-11T08:10:27.453Z</time></trkpt><trkpt lat="45.3920867" lon="10.59088"><ele>116.0</ele><time>2026-04-11T08:10:28.441Z</time></trkpt><trkpt lat="45.39213" lon="10.5910483"><ele>117.25</ele><time>2026-04-11T08:10:29.448Z</time></trkpt><trkpt lat="45.3921967" lon="10.5912017"><ele>118.5</ele><time>2026-04-11T08:10:30.465Z</time></trkpt><trkpt lat="45.39228" lon="10.5913517"><ele>119.75</ele><time>2026-04-11T08:10:31.443Z</time></trkpt><trkpt lat="45.3923833" lon="10.5915067"><ele>121.0</ele><time>2026-04-11T08:10:32.448Z</time></trkpt><trkpt lat="45.3924733" lon="10.5916667"><ele>121.0</ele><time>2026-04-11T08:10:33.453Z</time></trkpt><trkpt lat="45.3925433" lon="10.5918367"><ele>121.0</ele><time>2026-04-11T08:10:34.453Z</time></trkpt><trkpt lat="45.3925833" lon="10.5920233"><ele>121.0</ele><time>2026-04-11T08:10:35.451Z</time></trkpt><trkpt lat="45.3926067" lon="10.5922117"><ele>121.0</ele><time>2026-04-11T08:10:36.463Z</time></trkpt><trkpt lat="45.3926" lon="10.5923733"><ele>120.8</ele><time>2026-04-11T08:10:37.449Z</time></trkpt><trkpt lat="45.3925833" lon="10.5925167"><ele>120.6</ele><time>2026-04-11T08:10:38.45Z</time></trkpt><trkpt lat="45.3925367" lon="10.5927017"><ele>120.4</ele><time>2026-04-11T08:10:39.45Z</time></trkpt><trkpt lat="45.39252" lon="10.5928283"><ele>120.2</ele><time>2026-04-11T08:10:40.445Z</time></trkpt><trkpt lat="45.3925267" lon="10.5929217"><ele>120.0</ele><time>2026-04-11T08:10:41.453Z</time></trkpt><trkpt lat="45.39255" lon="10.5930133"><ele>119.75</ele><time>2026-04-11T08:10:42.457Z</time></trkpt><trkpt lat="45.3926033" lon="10.593095"><ele>119.5</ele><time>2026-04-11T08:10:43.448Z</time></trkpt><trkpt lat="45.392705" lon="10.5931567"><ele>119.25</ele><time>2026-04-11T08:10:44.451Z</time></trkpt><trkpt lat="45.392835" lon="10.59317"><ele>119.0</ele><time>2026-04-11T08:10:45.479Z</time></trkpt><trkpt lat="45.3929783" lon="10.5932133"><ele>118.25</ele><time>2026-04-11T08:10:46.461Z</time></trkpt><trkpt lat="45.3931417" lon="10.5932617"><ele>117.5</ele><time>2026-04-11T08:10:47.445Z</time></trkpt><trkpt lat="45.3932717" lon="10.5933083"><ele>116.75</ele><time>2026-04-11T08:10:48.458Z</time></trkpt><trkpt lat="45.3933617" lon="10.5934033"><ele>116.0</ele><time>2026-04-11T08:10:49.455Z</time></trkpt><trkpt lat="45.393455" lon="10.593525"><ele>116.0</ele><time>2026-04-11T08:10:50.451Z</time></trkpt><trkpt lat="45.393605" lon="10.5936233"><ele>116.0</ele><time>2026-04-11T08:10:51.442Z</time></trkpt><trkpt lat="45.39372" lon="10.593755"><ele>116.0</ele><time>2026-04-11T08:10:52.46Z</time></trkpt><trkpt lat="45.393835" lon="10.593795"><ele>116.0</ele><time>2026-04-11T08:10:53.455Z</time></trkpt><trkpt lat="45.3939067" lon="10.5938567"><ele>115.6</ele><time>2026-04-11T08:10:54.46Z</time></trkpt><trkpt lat="45.3939533" lon="10.5939517"><ele>115.19999999999999</ele><time>2026-04-11T08:10:55.449Z</time></trkpt><trkpt lat="45.3939817" lon="10.59405"><ele>114.80000000000001</ele><time>2026-04-11T08:10:56.454Z</time></trkpt><trkpt lat="45.39399" lon="10.594185"><ele>114.4</ele><time>2026-04-11T08:10:57.452Z</time></trkpt><trkpt lat="45.393975" lon="10.594355"><ele>114.0</ele><time>2026-04-11T08:10:58.451Z</time></trkpt><trkpt lat="45.39396" lon="10.59453"><ele>113.75</ele><time>2026-04-11T08:10:59.447Z</time></trkpt><trkpt lat="45.3939417" lon="10.5947067"><ele>113.5</ele><time>2026-04-11T08:11:00.447Z</time></trkpt><trkpt lat="45.3939267" lon="10.5948767"><ele>113.25</ele><time>2026-04-11T08:11:01.451Z</time></trkpt><trkpt lat="45.3939117" lon="10.59505"><ele>113.0</ele><time>2026-04-11T08:11:02.45Z</time></trkpt><trkpt lat="45.3938917" lon="10.5952083"><ele>112.83333333333333</ele><time>2026-04-11T08:11:03.446Z</time></trkpt><trkpt lat="45.3938717" lon="10.5953583"><ele>112.66666666666666</ele><time>2026-04-11T08:11:04.449Z</time></trkpt><trkpt lat="45.3938567" lon="10.5954967"><ele>112.5</ele><time>2026-04-11T08:11:05.449Z</time></trkpt><trkpt lat="45.3938333" lon="10.5956283"><ele>112.33333333333334</ele><time>2026-04-11T08:11:06.451Z</time></trkpt><trkpt lat="45.39385" lon="10.5957317"><ele>112.16666666666667</ele><time>2026-04-11T08:11:07.453Z</time></trkpt><trkpt lat="45.3938933" lon="10.5958067"><ele>112.0</ele><time>2026-04-11T08:11:08.457Z</time></trkpt><trkpt lat="45.393955" lon="10.595875"><ele>112.8</ele><time>2026-04-11T08:11:09.449Z</time></trkpt><trkpt lat="45.3940383" lon="10.5959233"><ele>113.6</ele><time>2026-04-11T08:11:10.448Z</time></trkpt><trkpt lat="45.39413" lon="10.5959483"><ele>114.39999999999999</ele><time>2026-04-11T08:11:11.449Z</time></trkpt><trkpt lat="45.3942133" lon="10.5959933"><ele>115.19999999999999</ele><time>2026-04-11T08:11:12.458Z</time></trkpt><trkpt lat="45.3942983" lon="10.5960317"><ele>116.0</ele><time>2026-04-11T08:11:13.45Z</time></trkpt><trkpt lat="45.3943917" lon="10.5960667"><ele>116.0</ele><time>2026-04-11T08:11:14.454Z</time></trkpt><trkpt lat="45.3944817" lon="10.5960983"><ele>116.0</ele><time>2026-04-11T08:11:15.454Z</time></trkpt><trkpt lat="45.3945783" lon="10.596155"><ele>116.0</ele><time>2026-04-11T08:11:16.451Z</time></trkpt><trkpt lat="45.3946717" lon="10.5961683"><ele>116.0</ele><time>2026-04-11T08:11:17.457Z</time></trkpt><trkpt lat="45.3947683" lon="10.59619"><ele>116.0</ele><time>2026-04-11T08:11:18.478Z</time></trkpt><trkpt lat="45.3948883" lon="10.5962367"><ele>115.19999999999999</ele><time>2026-04-11T08:11:19.453Z</time></trkpt><trkpt lat="45.3949983" lon="10.596245"><ele>114.39999999999999</ele><time>2026-04-11T08:11:20.46Z</time></trkpt><trkpt lat="45.3951033" lon="10.5962967"><ele>113.6</ele><time>2026-04-11T08:11:21.459Z</time></trkpt><trkpt lat="45.3952067" lon="10.5963483"><ele>112.8</ele><time>2026-04-11T08:11:22.45Z</time></trkpt><trkpt lat="45.3952967" lon="10.596405"><ele>112.0</ele><time>2026-04-11T08:11:23.453Z</time></trkpt><trkpt lat="45.39538" lon="10.596485"><ele>112.0</ele><time>2026-04-11T08:11:24.454Z</time></trkpt><trkpt lat="45.395445" lon="10.5966117"><ele>111.99999999999999</ele><time>2026-04-11T08:11:25.448Z</time></trkpt><trkpt lat="45.3955217" lon="10.5967183"><ele>111.99999999999999</ele><time>2026-04-11T08:11:26.464Z</time></trkpt><trkpt lat="45.3955817" lon="10.5968583"><ele>112.0</ele><time>2026-04-11T08:11:27.463Z</time></trkpt><trkpt lat="45.395645" lon="10.5969333"><ele>112.0</ele><time>2026-04-11T08:11:28.464Z</time></trkpt><trkpt lat="45.3957283" lon="10.5970233"><ele>111.0</ele><time>2026-04-11T08:11:29.456Z</time></trkpt><trkpt lat="45.3958317" lon="10.5970933"><ele>110.0</ele><time>2026-04-11T08:11:30.451Z</time></trkpt><trkpt lat="45.3959683" lon="10.597125"><ele>109.0</ele><time>2026-04-11T08:11:31.452Z</time></trkpt><trkpt lat="45.3960717" lon="10.59718"><ele>108.0</ele><time>2026-04-11T08:11:32.447Z</time></trkpt><trkpt lat="45.3961933" lon="10.5972"><ele>108.0</ele><time>2026-04-11T08:11:33.467Z</time></trkpt><trkpt lat="45.396315" lon="10.5972233"><ele>108.00000000000001</ele><time>2026-04-11T08:11:34.455Z</time></trkpt><trkpt lat="45.39642" lon="10.597245"><ele>108.00000000000001</ele><time>2026-04-11T08:11:35.45Z</time></trkpt><trkpt lat="45.396535" lon="10.597245"><ele>108.0</ele><time>2026-04-11T08:11:36.453Z</time></trkpt><trkpt lat="45.396635" lon="10.597205"><ele>108.0</ele><time>2026-04-11T08:11:37.454Z</time></trkpt><trkpt lat="45.3967517" lon="10.59716"><ele>107.2</ele><time>2026-04-11T08:11:38.448Z</time></trkpt><trkpt lat="45.396865" lon="10.5970817"><ele>106.4</ele><time>2026-04-11T08:11:39.453Z</time></trkpt><trkpt lat="45.396965" lon="10.5970467"><ele>105.60000000000001</ele><time>2026-04-11T08:11:40.461Z</time></trkpt><trkpt lat="45.3970733" lon="10.5970483"><ele>104.80000000000001</ele><time>2026-04-11T08:11:41.462Z</time></trkpt><trkpt lat="45.397175" lon="10.5970483"><ele>104.0</ele><time>2026-04-11T08:11:42.465Z</time></trkpt><trkpt lat="45.39724" lon="10.5970267"><ele>103.83333333333333</ele><time>2026-04-11T08:11:43.462Z</time></trkpt><trkpt lat="45.397325" lon="10.5969233"><ele>103.66666666666666</ele><time>2026-04-11T08:11:45.458Z</time></trkpt><trkpt lat="45.39734" lon="10.59683"><ele>103.5</ele><time>2026-04-11T08:11:46.457Z</time></trkpt><trkpt lat="45.3973567" lon="10.5967267"><ele>103.33333333333334</ele><time>2026-04-11T08:11:47.457Z</time></trkpt><trkpt lat="45.3973967" lon="10.5966217"><ele>103.16666666666667</ele><time>2026-04-11T08:11:48.462Z</time></trkpt><trkpt lat="45.3974467" lon="10.5965133"><ele>103.0</ele><time>2026-04-11T08:11:49.455Z</time></trkpt><trkpt lat="45.3975067" lon="10.5964033"><ele>103.0</ele><time>2026-04-11T08:11:50.448Z</time></trkpt><trkpt lat="45.3975683" lon="10.5962783"><ele>103.0</ele><time>2026-04-11T08:11:51.451Z</time></trkpt><trkpt lat="45.3976533" lon="10.5961633"><ele>103.0</ele><time>2026-04-11T08:11:52.458Z</time></trkpt><trkpt lat="45.3977183" lon="10.5960917"><ele>103.0</ele><time>2026-04-11T08:11:53.462Z</time></trkpt><trkpt lat="45.3977967" lon="10.59597"><ele>103.0</ele><time>2026-04-11T08:11:54.449Z</time></trkpt><trkpt lat="45.3978567" lon="10.59588"><ele>103.50000000000001</ele><time>2026-04-11T08:11:55.454Z</time></trkpt><trkpt lat="45.397905" lon="10.5958167"><ele>104.0</ele><time>2026-04-11T08:11:56.471Z</time></trkpt><trkpt lat="45.3980133" lon="10.5958317"><ele>104.5</ele><time>2026-04-11T08:11:58.449Z</time></trkpt><trkpt lat="45.398085" lon="10.595875"><ele>105.0</ele><time>2026-04-11T08:11:59.453Z</time></trkpt><trkpt lat="45.39816" lon="10.5959417"><ele>105.50000000000001</ele><time>2026-04-11T08:12:00.457Z</time></trkpt><trkpt lat="45.398255" lon="10.5960017"><ele>106.0</ele><time>2026-04-11T08:12:01.443Z</time></trkpt><trkpt lat="45.3983717" lon="10.59608"><ele>106.0</ele><time>2026-04-11T08:12:02.454Z</time></trkpt><trkpt lat="45.3985" lon="10.596145"><ele>106.0</ele><time>2026-04-11T08:12:03.443Z</time></trkpt><trkpt lat="45.3986167" lon="10.5962367"><ele>106.0</ele><time>2026-04-11T08:12:04.461Z</time></trkpt><trkpt lat="45.3987267" lon="10.59632"><ele>106.0</ele><time>2026-04-11T08:12:05.456Z</time></trkpt><trkpt lat="45.3988483" lon="10.5964133"><ele>107.33333333333334</ele><time>2026-04-11T08:12:06.456Z</time></trkpt><trkpt lat="45.3989983" lon="10.5964783"><ele>108.66666666666666</ele><time>2026-04-11T08:12:07.45Z</time></trkpt><trkpt lat="45.3991433" lon="10.5965483"><ele>110.0</ele><time>2026-04-11T08:12:08.446Z</time></trkpt><trkpt lat="45.3992867" lon="10.5966183"><ele>110.0</ele><time>2026-04-11T08:12:09.458Z</time></trkpt><trkpt lat="45.399425" lon="10.5967"><ele>110.0</ele><time>2026-04-11T08:12:10.451Z</time></trkpt><trkpt lat="45.3995583" lon="10.5967767"><ele>110.0</ele><time>2026-04-11T08:12:11.447Z</time></trkpt><trkpt lat="45.39968" lon="10.59685"><ele>110.0</ele><time>2026-04-11T08:12:12.456Z</time></trkpt><trkpt lat="45.39978" lon="10.5969067"><ele>111.2</ele><time>2026-04-11T08:12:13.455Z</time></trkpt><trkpt lat="45.3998633" lon="10.5969633"><ele>112.4</ele><time>2026-04-11T08:12:14.474Z</time></trkpt><trkpt lat="45.399935" lon="10.5969917"><ele>113.6</ele><time>2026-04-11T08:12:15.465Z</time></trkpt><trkpt lat="45.3999983" lon="10.5970183"><ele>114.8</ele><time>2026-04-11T08:12:16.451Z</time></trkpt><trkpt lat="45.4000917" lon="10.5970683"><ele>116.0</ele><time>2026-04-11T08:12:18.463Z</time></trkpt><trkpt lat="45.400135" lon="10.5972233"><ele>115.99999999999999</ele><time>2026-04-11T08:12:20.449Z</time></trkpt><trkpt lat="45.4001467" lon="10.597325"><ele>116.0</ele><time>2026-04-11T08:12:21.466Z</time></trkpt><trkpt lat="45.4001633" lon="10.5974383"><ele>116.0</ele><time>2026-04-11T08:12:22.452Z</time></trkpt><trkpt lat="45.400185" lon="10.5975383"><ele>116.0</ele><time>2026-04-11T08:12:23.449Z</time></trkpt><trkpt lat="45.4002333" lon="10.5976567"><ele>115.99999999999999</ele><time>2026-04-11T08:12:25.447Z</time></trkpt><trkpt lat="45.40035" lon="10.59764"><ele>116.0</ele><time>2026-04-11T08:12:27.448Z</time></trkpt><trkpt lat="45.4004317" lon="10.5976083"><ele>117.25</ele><time>2026-04-11T08:12:28.454Z</time></trkpt><trkpt lat="45.4005367" lon="10.59756"><ele>118.5</ele><time>2026-04-11T08:12:29.451Z</time></trkpt><trkpt lat="45.4006583" lon="10.5975067"><ele>119.75</ele><time>2026-04-11T08:12:30.459Z</time></trkpt><trkpt lat="45.4007833" lon="10.59743"><ele>121.0</ele><time>2026-04-11T08:12:31.463Z</time></trkpt><trkpt lat="45.40088" lon="10.597365"><ele>121.0</ele><time>2026-04-11T08:12:32.464Z</time></trkpt><trkpt lat="45.4010133" lon="10.59726"><ele>121.0</ele><time>2026-04-11T08:12:34.461Z</time></trkpt><trkpt lat="45.4010683" lon="10.5972083"><ele>121.0</ele><time>2026-04-11T08:12:35.451Z</time></trkpt><trkpt lat="45.4011267" lon="10.5971617"><ele>121.0</ele><time>2026-04-11T08:12:36.464Z</time></trkpt><trkpt lat="45.401205" lon="10.5971417"><ele>121.0</ele><time>2026-04-11T08:12:37.465Z</time></trkpt><trkpt lat="45.4013417" lon="10.59709"><ele>119.66666666666667</ele><time>2026-04-11T08:12:39.449Z</time></trkpt><trkpt lat="45.4014183" lon="10.5970917"><ele>118.33333333333334</ele><time>2026-04-11T08:12:40.447Z</time></trkpt><trkpt lat="45.4014867" lon="10.597095"><ele>117.0</ele><time>2026-04-11T08:12:41.459Z</time></trkpt><trkpt lat="45.40155" lon="10.5970867"><ele>115.66666666666666</ele><time>2026-04-11T08:12:42.447Z</time></trkpt><trkpt lat="45.401645" lon="10.5969967"><ele>114.33333333333333</ele><time>2026-04-11T08:12:44.457Z</time></trkpt><trkpt lat="45.4016883" lon="10.596905"><ele>113.0</ele><time>2026-04-11T08:12:45.455Z</time></trkpt><trkpt lat="45.401735" lon="10.5968017"><ele>112.33333333333333</ele><time>2026-04-11T08:12:46.449Z</time></trkpt><trkpt lat="45.4017867" lon="10.596735"><ele>111.66666666666666</ele><time>2026-04-11T08:12:47.469Z</time></trkpt><trkpt lat="45.40186" lon="10.5967317"><ele>111.0</ele><time>2026-04-11T08:12:48.45Z</time></trkpt><trkpt lat="45.40194" lon="10.5967283"><ele>110.33333333333334</ele><time>2026-04-11T08:12:49.452Z</time></trkpt><trkpt lat="45.4020417" lon="10.5967533"><ele>109.66666666666667</ele><time>2026-04-11T08:12:50.461Z</time></trkpt><trkpt lat="45.4021633" lon="10.59678"><ele>109.0</ele><time>2026-04-11T08:12:51.45Z</time></trkpt><trkpt lat="45.40228" lon="10.5968233"><ele>107.25</ele><time>2026-04-11T08:12:52.454Z</time></trkpt><trkpt lat="45.4023983" lon="10.5968683"><ele>105.5</ele><time>2026-04-11T08:12:53.453Z</time></trkpt><trkpt lat="45.40251" lon="10.59689"><ele>103.75</ele><time>2026-04-11T08:12:54.452Z</time></trkpt><trkpt lat="45.402615" lon="10.5969117"><ele>102.0</ele><time>2026-04-11T08:12:55.452Z</time></trkpt><trkpt lat="45.4027467" lon="10.59692"><ele>102.0</ele><time>2026-04-11T08:12:56.455Z</time></trkpt><trkpt lat="45.4028717" lon="10.5969033"><ele>102.0</ele><time>2026-04-11T08:12:57.45Z</time></trkpt><trkpt lat="45.4029967" lon="10.5969183"><ele>102.0</ele><time>2026-04-11T08:12:58.446Z</time></trkpt><trkpt lat="45.4031117" lon="10.59691"><ele>102.0</ele><time>2026-04-11T08:12:59.456Z</time></trkpt><trkpt lat="45.4031917" lon="10.596905"><ele>102.0</ele><time>2026-04-11T08:13:00.453Z</time></trkpt><trkpt lat="45.4032717" lon="10.5969017"><ele>100.8</ele><time>2026-04-11T08:13:01.446Z</time></trkpt><trkpt lat="45.4033767" lon="10.596915"><ele>99.6</ele><time>2026-04-11T08:13:03.446Z</time></trkpt><trkpt lat="45.4034233" lon="10.5970067"><ele>98.39999999999999</ele><time>2026-04-11T08:13:05.444Z</time></trkpt><trkpt lat="45.4034233" lon="10.5971683"><ele>97.19999999999999</ele><time>2026-04-11T08:13:07.442Z</time></trkpt><trkpt lat="45.4034083" lon="10.597295"><ele>96.0</ele><time>2026-04-11T08:13:08.46Z</time></trkpt><trkpt lat="45.4033967" lon="10.5974167"><ele>95.8</ele><time>2026-04-11T08:13:09.461Z</time></trkpt><trkpt lat="45.4033867" lon="10.59752"><ele>95.6</ele><time>2026-04-11T08:13:10.453Z</time></trkpt><trkpt lat="45.40329" lon="10.5975933"><ele>95.4</ele><time>2026-04-11T08:13:12.449Z</time></trkpt><trkpt lat="45.403225" lon="10.5975883"><ele>95.2</ele><time>2026-04-11T08:13:13.453Z</time></trkpt><trkpt lat="45.403105" lon="10.5976017"><ele>95.0</ele><time>2026-04-11T08:13:15.454Z</time></trkpt><trkpt lat="45.4030467" lon="10.5977217"><ele>95.2</ele><time>2026-04-11T08:13:17.449Z</time></trkpt><trkpt lat="45.40304" lon="10.5978383"><ele>95.4</ele><time>2026-04-11T08:13:18.449Z</time></trkpt><trkpt lat="45.40304" lon="10.5979683"><ele>95.6</ele><time>2026-04-11T08:13:19.446Z</time></trkpt><trkpt lat="45.4030433" lon="10.5981033"><ele>95.8</ele><time>2026-04-11T08:13:20.443Z</time></trkpt><trkpt lat="45.4030383" lon="10.5982733"><ele>96.0</ele><time>2026-04-11T08:13:21.447Z</time></trkpt><trkpt lat="45.403045" lon="10.5984067"><ele>96.0</ele><time>2026-04-11T08:13:22.462Z</time></trkpt><trkpt lat="45.4030467" lon="10.5985183"><ele>96.0</ele><time>2026-04-11T08:13:23.448Z</time></trkpt><trkpt lat="45.4030433" lon="10.59865"><ele>96.0</ele><time>2026-04-11T08:13:24.449Z</time></trkpt><trkpt lat="45.4030417" lon="10.5987983"><ele>96.0</ele><time>2026-04-11T08:13:25.447Z</time></trkpt><trkpt lat="45.40304" lon="10.5989633"><ele>96.0</ele><time>2026-04-11T08:13:26.458Z</time></trkpt><trkpt lat="45.4030417" lon="10.5991483"><ele>96.25</ele><time>2026-04-11T08:13:27.444Z</time></trkpt><trkpt lat="45.4030367" lon="10.5993533"><ele>96.5</ele><time>2026-04-11T08:13:28.455Z</time></trkpt><trkpt lat="45.40301" lon="10.5995183"><ele>96.75</ele><time>2026-04-11T08:13:29.445Z</time></trkpt><trkpt lat="45.4030033" lon="10.59971"><ele>97.0</ele><time>2026-04-11T08:13:30.455Z</time></trkpt><trkpt lat="45.4029867" lon="10.5998667"><ele>96.75</ele><time>2026-04-11T08:13:31.458Z</time></trkpt><trkpt lat="45.4029867" lon="10.6000267"><ele>96.5</ele><time>2026-04-11T08:13:32.473Z</time></trkpt><trkpt lat="45.40301" lon="10.6001983"><ele>96.25</ele><time>2026-04-11T08:13:33.452Z</time></trkpt><trkpt lat="45.40304" lon="10.6004"><ele>96.0</ele><time>2026-04-11T08:13:34.452Z</time></trkpt><trkpt lat="45.403065" lon="10.6006067"><ele>96.0</ele><time>2026-04-11T08:13:35.452Z</time></trkpt><trkpt lat="45.4030733" lon="10.6008117"><ele>96.0</ele><time>2026-04-11T08:13:36.453Z</time></trkpt><trkpt lat="45.4030667" lon="10.6010033"><ele>96.0</ele><time>2026-04-11T08:13:37.451Z</time></trkpt><trkpt lat="45.4030517" lon="10.60122"><ele>96.0</ele><time>2026-04-11T08:13:38.449Z</time></trkpt><trkpt lat="45.403035" lon="10.6014467"><ele>96.0</ele><time>2026-04-11T08:13:39.445Z</time></trkpt><trkpt lat="45.40302" lon="10.6016517"><ele>96.0</ele><time>2026-04-11T08:13:40.448Z</time></trkpt><trkpt lat="45.4030133" lon="10.60184"><ele>96.0</ele><time>2026-04-11T08:13:41.454Z</time></trkpt><trkpt lat="45.4030217" lon="10.60205"><ele>96.0</ele><time>2026-04-11T08:13:42.454Z</time></trkpt><trkpt lat="45.4030383" lon="10.6022533"><ele>96.0</ele><time>2026-04-11T08:13:43.451Z</time></trkpt><trkpt lat="45.4030133" lon="10.6024017"><ele>96.0</ele><time>2026-04-11T08:13:44.456Z</time></trkpt><trkpt lat="45.4030183" lon="10.602565"><ele>96.0</ele><time>2026-04-11T08:13:45.459Z</time></trkpt><trkpt lat="45.4030217" lon="10.6026783"><ele>96.0</ele><time>2026-04-11T08:13:46.448Z</time></trkpt><trkpt lat="45.403015" lon="10.602825"><ele>96.0</ele><time>2026-04-11T08:13:48.453Z</time></trkpt><trkpt lat="45.4030783" lon="10.6029433"><ele>95.83333333333333</ele><time>2026-04-11T08:13:50.449Z</time></trkpt><trkpt lat="45.4031367" lon="10.602985"><ele>95.66666666666667</ele><time>2026-04-11T08:13:51.453Z</time></trkpt><trkpt lat="45.40322" lon="10.6030283"><ele>95.5</ele><time>2026-04-11T08:13:52.451Z</time></trkpt><trkpt lat="45.4033233" lon="10.6030567"><ele>95.33333333333334</ele><time>2026-04-11T08:13:53.462Z</time></trkpt><trkpt lat="45.4034067" lon="10.6030683"><ele>95.16666666666667</ele><time>2026-04-11T08:13:54.458Z</time></trkpt><trkpt lat="45.40348" lon="10.60307"><ele>95.0</ele><time>2026-04-11T08:13:55.455Z</time></trkpt><trkpt lat="45.4035567" lon="10.6030683"><ele>95.0</ele><time>2026-04-11T08:13:56.473Z</time></trkpt><trkpt lat="45.4036333" lon="10.6030733"><ele>95.0</ele><time>2026-04-11T08:13:57.455Z</time></trkpt><trkpt lat="45.4037" lon="10.6030833"><ele>95.0</ele><time>2026-04-11T08:13:58.458Z</time></trkpt><trkpt lat="45.403775" lon="10.6030967"><ele>95.0</ele><time>2026-04-11T08:13:59.453Z</time></trkpt><trkpt lat="45.4038467" lon="10.6030967"><ele>95.0</ele><time>2026-04-11T08:14:00.464Z</time></trkpt><trkpt lat="45.403915" lon="10.60309"><ele>95.0</ele><time>2026-04-11T08:14:01.453Z</time></trkpt><trkpt lat="45.4040117" lon="10.6031217"><ele>94.6</ele><time>2026-04-11T08:14:03.464Z</time></trkpt><trkpt lat="45.40404" lon="10.6032617"><ele>94.2</ele><time>2026-04-11T08:14:05.455Z</time></trkpt><trkpt lat="45.404015" lon="10.6033667"><ele>93.80000000000001</ele><time>2026-04-11T08:14:06.457Z</time></trkpt><trkpt lat="45.403975" lon="10.6034867"><ele>93.4</ele><time>2026-04-11T08:14:07.452Z</time></trkpt><trkpt lat="45.4039267" lon="10.60362"><ele>93.0</ele><time>2026-04-11T08:14:08.451Z</time></trkpt><trkpt lat="45.4038983" lon="10.6037217"><ele>93.0</ele><time>2026-04-11T08:14:09.45Z</time></trkpt><trkpt lat="45.403895" lon="10.603815"><ele>93.0</ele><time>2026-04-11T08:14:10.468Z</time></trkpt><trkpt lat="45.403965" lon="10.6039683"><ele>93.0</ele><time>2026-04-11T08:14:12.444Z</time></trkpt><trkpt lat="45.4040383" lon="10.6040317"><ele>93.0</ele><time>2026-04-11T08:14:13.456Z</time></trkpt><trkpt lat="45.4041133" lon="10.6040633"><ele>93.0</ele><time>2026-04-11T08:14:14.449Z</time></trkpt><trkpt lat="45.4041883" lon="10.604095"><ele>93.0</ele><time>2026-04-11T08:14:15.451Z</time></trkpt><trkpt lat="45.40427" lon="10.6041333"><ele>93.0</ele><time>2026-04-11T08:14:16.452Z</time></trkpt><trkpt lat="45.40435" lon="10.6041867"><ele>93.0</ele><time>2026-04-11T08:14:17.475Z</time></trkpt><trkpt lat="45.4044367" lon="10.6042383"><ele>93.0</ele><time>2026-04-11T08:14:18.449Z</time></trkpt><trkpt lat="45.4045183" lon="10.6042817"><ele>93.0</ele><time>2026-04-11T08:14:19.449Z</time></trkpt><trkpt lat="45.4045933" lon="10.6043033"><ele>93.0</ele><time>2026-04-11T08:14:20.46Z</time></trkpt><trkpt lat="45.404675" lon="10.6042967"><ele>93.0</ele><time>2026-04-11T08:14:21.456Z</time></trkpt><trkpt lat="45.404745" lon="10.6042833"><ele>93.5</ele><time>2026-04-11T08:14:22.448Z</time></trkpt><trkpt lat="45.4048117" lon="10.6042867"><ele>94.0</ele><time>2026-04-11T08:14:23.456Z</time></trkpt><trkpt lat="45.4048733" lon="10.6043167"><ele>94.5</ele><time>2026-04-11T08:14:24.454Z</time></trkpt><trkpt lat="45.4049433" lon="10.6043967"><ele>95.0</ele><time>2026-04-11T08:14:25.458Z</time></trkpt><trkpt lat="45.4050033" lon="10.6044933"><ele>95.5</ele><time>2026-04-11T08:14:26.458Z</time></trkpt><trkpt lat="45.4050633" lon="10.6046033"><ele>96.0</ele><time>2026-04-11T08:14:27.448Z</time></trkpt><trkpt lat="45.4051133" lon="10.6047467"><ele>96.4</ele><time>2026-04-11T08:14:28.453Z</time></trkpt><trkpt lat="45.4051817" lon="10.6049"><ele>96.8</ele><time>2026-04-11T08:14:29.451Z</time></trkpt><trkpt lat="45.4052267" lon="10.6050317"><ele>97.2</ele><time>2026-04-11T08:14:30.457Z</time></trkpt><trkpt lat="45.405255" lon="10.6051283"><ele>97.60000000000001</ele><time>2026-04-11T08:14:31.455Z</time></trkpt><trkpt lat="45.4052733" lon="10.6052633"><ele>98.0</ele><time>2026-04-11T08:14:32.454Z</time></trkpt><trkpt lat="45.4052533" lon="10.6054483"><ele>98.0</ele><time>2026-04-11T08:14:33.452Z</time></trkpt><trkpt lat="45.4052383" lon="10.60562"><ele>98.0</ele><time>2026-04-11T08:14:34.451Z</time></trkpt><trkpt lat="45.40522" lon="10.6058117"><ele>98.0</ele><time>2026-04-11T08:14:35.446Z</time></trkpt><trkpt lat="45.4051933" lon="10.6059883"><ele>98.0</ele><time>2026-04-11T08:14:36.448Z</time></trkpt><trkpt lat="45.4051467" lon="10.60618"><ele>97.75</ele><time>2026-04-11T08:14:37.447Z</time></trkpt><trkpt lat="45.4051117" lon="10.606375"><ele>97.5</ele><time>2026-04-11T08:14:38.455Z</time></trkpt><trkpt lat="45.4050833" lon="10.6065583"><ele>97.25</ele><time>2026-04-11T08:14:39.497Z</time></trkpt><trkpt lat="45.40506" lon="10.6067417"><ele>97.0</ele><time>2026-04-11T08:14:40.449Z</time></trkpt><trkpt lat="45.40503" lon="10.606945"><ele>97.5</ele><time>2026-04-11T08:14:41.452Z</time></trkpt><trkpt lat="45.4050067" lon="10.6071483"><ele>98.0</ele><time>2026-04-11T08:14:42.462Z</time></trkpt><trkpt lat="45.4049967" lon="10.607355"><ele>98.5</ele><time>2026-04-11T08:14:43.45Z</time></trkpt><trkpt lat="45.4050117" lon="10.607535"><ele>99.0</ele><time>2026-04-11T08:14:44.45Z</time></trkpt><trkpt lat="45.4049983" lon="10.6077483"><ele>99.4</ele><time>2026-04-11T08:14:45.446Z</time></trkpt><trkpt lat="45.4050183" lon="10.6079033"><ele>99.80000000000001</ele><time>2026-04-11T08:14:46.455Z</time></trkpt><trkpt lat="45.4050233" lon="10.6080683"><ele>100.19999999999999</ele><time>2026-04-11T08:14:47.445Z</time></trkpt><trkpt lat="45.40502" lon="10.6082117"><ele>100.6</ele><time>2026-04-11T08:14:48.46Z</time></trkpt><trkpt lat="45.40502" lon="10.6083167"><ele>101.0</ele><time>2026-04-11T08:14:49.453Z</time></trkpt><trkpt lat="45.4050117" lon="10.6084083"><ele>100.99999999999999</ele><time>2026-04-11T08:14:50.443Z</time></trkpt><trkpt lat="45.4050083" lon="10.6085533"><ele>101.0</ele><time>2026-04-11T08:14:52.455Z</time></trkpt><trkpt lat="45.4049933" lon="10.6087033"><ele>101.0</ele><time>2026-04-11T08:14:54.448Z</time></trkpt><trkpt lat="45.40498" lon="10.608795"><ele>101.0</ele><time>2026-04-11T08:14:55.453Z</time></trkpt><trkpt lat="45.404965" lon="10.6089033"><ele>100.99999999999999</ele><time>2026-04-11T08:14:56.454Z</time></trkpt><trkpt lat="45.4049483" lon="10.6090267"><ele>101.0</ele><time>2026-04-11T08:14:57.45Z</time></trkpt><trkpt lat="45.4049333" lon="10.609165"><ele>101.0</ele><time>2026-04-11T08:14:58.45Z</time></trkpt><trkpt lat="45.4049067" lon="10.6093417"><ele>101.0</ele><time>2026-04-11T08:14:59.449Z</time></trkpt><trkpt lat="45.4048883" lon="10.6095"><ele>101.0</ele><time>2026-04-11T08:15:00.459Z</time></trkpt><trkpt lat="45.404875" lon="10.609675"><ele>101.0</ele><time>2026-04-11T08:15:01.447Z</time></trkpt><trkpt lat="45.404855" lon="10.60987"><ele>100.5</ele><time>2026-04-11T08:15:02.454Z</time></trkpt><trkpt lat="45.4048367" lon="10.610085"><ele>100.0</ele><time>2026-04-11T08:15:03.442Z</time></trkpt><trkpt lat="45.404825" lon="10.6102967"><ele>99.5</ele><time>2026-04-11T08:15:04.451Z</time></trkpt><trkpt lat="45.4048133" lon="10.61047"><ele>99.0</ele><time>2026-04-11T08:15:05.451Z</time></trkpt><trkpt lat="45.4048033" lon="10.6106517"><ele>99.0</ele><time>2026-04-11T08:15:06.442Z</time></trkpt><trkpt lat="45.4048117" lon="10.6108267"><ele>99.0</ele><time>2026-04-11T08:15:07.444Z</time></trkpt><trkpt lat="45.40482" lon="10.6110083"><ele>99.0</ele><time>2026-04-11T08:15:08.456Z</time></trkpt><trkpt lat="45.4048367" lon="10.6111817"><ele>99.0</ele><time>2026-04-11T08:15:09.456Z</time></trkpt><trkpt lat="45.4048683" lon="10.6113367"><ele>98.80000000000001</ele><time>2026-04-11T08:15:10.447Z</time></trkpt><trkpt lat="45.4048633" lon="10.6114967"><ele>98.60000000000001</ele><time>2026-04-11T08:15:11.449Z</time></trkpt><trkpt lat="45.4048783" lon="10.61162"><ele>98.4</ele><time>2026-04-11T08:15:12.453Z</time></trkpt><trkpt lat="45.404895" lon="10.61175"><ele>98.2</ele><time>2026-04-11T08:15:13.442Z</time></trkpt><trkpt lat="45.4049583" lon="10.611855"><ele>98.0</ele><time>2026-04-11T08:15:14.45Z</time></trkpt><trkpt lat="45.40502" lon="10.6119383"><ele>97.60000000000001</ele><time>2026-04-11T08:15:15.445Z</time></trkpt><trkpt lat="45.4050933" lon="10.61202"><ele>97.2</ele><time>2026-04-11T08:15:16.439Z</time></trkpt><trkpt lat="45.4051717" lon="10.612095"><ele>96.8</ele><time>2026-04-11T08:15:17.456Z</time></trkpt><trkpt lat="45.405255" lon="10.61216"><ele>96.4</ele><time>2026-04-11T08:15:18.455Z</time></trkpt><trkpt lat="45.4053417" lon="10.612225"><ele>96.0</ele><time>2026-04-11T08:15:19.451Z</time></trkpt><trkpt lat="45.40543" lon="10.612265"><ele>96.0</ele><time>2026-04-11T08:15:20.451Z</time></trkpt><trkpt lat="45.4054917" lon="10.612345"><ele>96.0</ele><time>2026-04-11T08:15:21.458Z</time></trkpt><trkpt lat="45.4055283" lon="10.6124567"><ele>96.0</ele><time>2026-04-11T08:15:22.448Z</time></trkpt><trkpt lat="45.4055433" lon="10.6125767"><ele>96.0</ele><time>2026-04-11T08:15:23.455Z</time></trkpt><trkpt lat="45.405535" lon="10.6127117"><ele>96.0</ele><time>2026-04-11T08:15:24.463Z</time></trkpt><trkpt lat="45.4055233" lon="10.6128533"><ele>95.25</ele><time>2026-04-11T08:15:25.448Z</time></trkpt><trkpt lat="45.4055083" lon="10.6130267"><ele>94.5</ele><time>2026-04-11T08:15:26.454Z</time></trkpt><trkpt lat="45.4054817" lon="10.6132417"><ele>93.75</ele><time>2026-04-11T08:15:27.451Z</time></trkpt><trkpt lat="45.4054967" lon="10.613395"><ele>93.0</ele><time>2026-04-11T08:15:28.464Z</time></trkpt><trkpt lat="45.4055083" lon="10.6136"><ele>95.33333333333334</ele><time>2026-04-11T08:15:29.447Z</time></trkpt><trkpt lat="45.40552" lon="10.6138133"><ele>97.66666666666667</ele><time>2026-04-11T08:15:30.446Z</time></trkpt><trkpt lat="45.405525" lon="10.614025"><ele>100.0</ele><time>2026-04-11T08:15:31.457Z</time></trkpt><trkpt lat="45.405535" lon="10.6142467"><ele>100.0</ele><time>2026-04-11T08:15:32.444Z</time></trkpt><trkpt lat="45.4055183" lon="10.61445"><ele>100.0</ele><time>2026-04-11T08:15:33.453Z</time></trkpt><trkpt lat="45.4055" lon="10.614645"><ele>100.0</ele><time>2026-04-11T08:15:34.454Z</time></trkpt><trkpt lat="45.40546" lon="10.6148483"><ele>100.0</ele><time>2026-04-11T08:15:35.451Z</time></trkpt><trkpt lat="45.40543" lon="10.615035"><ele>98.25</ele><time>2026-04-11T08:15:36.477Z</time></trkpt><trkpt lat="45.4054033" lon="10.6152233"><ele>96.5</ele><time>2026-04-11T08:15:37.446Z</time></trkpt><trkpt lat="45.405405" lon="10.615445"><ele>94.75</ele><time>2026-04-11T08:15:38.442Z</time></trkpt><trkpt lat="45.40541" lon="10.6156483"><ele>93.0</ele><time>2026-04-11T08:15:39.447Z</time></trkpt><trkpt lat="45.4054167" lon="10.6158533"><ele>93.0</ele><time>2026-04-11T08:15:40.448Z</time></trkpt><trkpt lat="45.405425" lon="10.6160467"><ele>93.0</ele><time>2026-04-11T08:15:41.439Z</time></trkpt><trkpt lat="45.4054267" lon="10.6163933"><ele>93.0</ele><time>2026-04-11T08:15:43.45Z</time></trkpt><trkpt lat="45.405425" lon="10.6165667"><ele>92.80000000000001</ele><time>2026-04-11T08:15:44.449Z</time></trkpt><trkpt lat="45.4054417" lon="10.61673"><ele>92.6</ele><time>2026-04-11T08:15:45.446Z</time></trkpt><trkpt lat="45.4054533" lon="10.616875"><ele>92.4</ele><time>2026-04-11T08:15:46.449Z</time></trkpt><trkpt lat="45.405475" lon="10.6170283"><ele>92.19999999999999</ele><time>2026-04-11T08:15:47.454Z</time></trkpt><trkpt lat="45.4054883" lon="10.6171633"><ele>92.0</ele><time>2026-04-11T08:15:48.463Z</time></trkpt><trkpt lat="45.4054983" lon="10.6172833"><ele>91.83333333333334</ele><time>2026-04-11T08:15:49.449Z</time></trkpt><trkpt lat="45.4055067" lon="10.6173967"><ele>91.66666666666667</ele><time>2026-04-11T08:15:50.446Z</time></trkpt><trkpt lat="45.4055233" lon="10.6175"><ele>91.5</ele><time>2026-04-11T08:15:51.446Z</time></trkpt><trkpt lat="45.4055617" lon="10.6175983"><ele>91.33333333333333</ele><time>2026-04-11T08:15:52.446Z</time></trkpt><trkpt lat="45.40562" lon="10.61769"><ele>91.16666666666666</ele><time>2026-04-11T08:15:53.455Z</time></trkpt><trkpt lat="45.4056967" lon="10.6177683"><ele>91.0</ele><time>2026-04-11T08:15:54.452Z</time></trkpt><trkpt lat="45.4058033" lon="10.6178567"><ele>91.0</ele><time>2026-04-11T08:15:55.457Z</time></trkpt><trkpt lat="45.4059083" lon="10.6179417"><ele>91.0</ele><time>2026-04-11T08:15:56.45Z</time></trkpt><trkpt lat="45.4060067" lon="10.6180367"><ele>91.0</ele><time>2026-04-11T08:15:57.451Z</time></trkpt><trkpt lat="45.4061167" lon="10.6181717"><ele>91.0</ele><time>2026-04-11T08:15:58.447Z</time></trkpt><trkpt lat="45.4062233" lon="10.6182867"><ele>91.0</ele><time>2026-04-11T08:15:59.454Z</time></trkpt><trkpt lat="45.4063233" lon="10.6184217"><ele>91.0</ele><time>2026-04-11T08:16:00.456Z</time></trkpt><trkpt lat="45.4064117" lon="10.61852"><ele>91.0</ele><time>2026-04-11T08:16:01.461Z</time></trkpt><trkpt lat="45.4064983" lon="10.61862"><ele>91.0</ele><time>2026-04-11T08:16:02.463Z</time></trkpt><trkpt lat="45.4065817" lon="10.618705"><ele>91.0</ele><time>2026-04-11T08:16:03.449Z</time></trkpt><trkpt lat="45.4066233" lon="10.6187867"><ele>91.0</ele><time>2026-04-11T08:16:04.442Z</time></trkpt><trkpt lat="45.406665" lon="10.6188617"><ele>91.0</ele><time>2026-04-11T08:16:05.448Z</time></trkpt><trkpt lat="45.4066967" lon="10.61896"><ele>91.0</ele><time>2026-04-11T08:16:06.451Z</time></trkpt><trkpt lat="45.4067117" lon="10.6190767"><ele>91.0</ele><time>2026-04-11T08:16:07.444Z</time></trkpt><trkpt lat="45.4067083" lon="10.6192"><ele>91.0</ele><time>2026-04-11T08:16:08.444Z</time></trkpt><trkpt lat="45.40669" lon="10.6193133"><ele>91.0</ele><time>2026-04-11T08:16:09.455Z</time></trkpt><trkpt lat="45.4066767" lon="10.61941"><ele>91.0</ele><time>2026-04-11T08:16:10.451Z</time></trkpt><trkpt lat="45.40669" lon="10.6195167"><ele>91.0</ele><time>2026-04-11T08:16:12.453Z</time></trkpt><trkpt lat="45.4067917" lon="10.61955"><ele>91.0</ele><time>2026-04-11T08:16:14.451Z</time></trkpt><trkpt lat="45.4068833" lon="10.6195383"><ele>91.0</ele><time>2026-04-11T08:16:15.45Z</time></trkpt><trkpt lat="45.4069617" lon="10.619545"><ele>91.0</ele><time>2026-04-11T08:16:16.446Z</time></trkpt><trkpt lat="45.407035" lon="10.6195733"><ele>90.8</ele><time>2026-04-11T08:16:17.442Z</time></trkpt><trkpt lat="45.4070933" lon="10.61963"><ele>90.6</ele><time>2026-04-11T08:16:18.454Z</time></trkpt><trkpt lat="45.4071467" lon="10.6197083"><ele>90.4</ele><time>2026-04-11T08:16:19.451Z</time></trkpt><trkpt lat="45.407195" lon="10.6198217"><ele>90.2</ele><time>2026-04-11T08:16:20.447Z</time></trkpt><trkpt lat="45.4072467" lon="10.61995"><ele>90.0</ele><time>2026-04-11T08:16:21.446Z</time></trkpt><trkpt lat="45.407315" lon="10.6200767"><ele>91.25</ele><time>2026-04-11T08:16:22.454Z</time></trkpt><trkpt lat="45.407405" lon="10.6201817"><ele>92.5</ele><time>2026-04-11T08:16:23.444Z</time></trkpt><trkpt lat="45.407505" lon="10.6202683"><ele>93.75</ele><time>2026-04-11T08:16:24.446Z</time></trkpt><trkpt lat="45.4075883" lon="10.62038"><ele>95.0</ele><time>2026-04-11T08:16:25.461Z</time></trkpt><trkpt lat="45.4077083" lon="10.6205033"><ele>95.0</ele><time>2026-04-11T08:16:26.441Z</time></trkpt><trkpt lat="45.4078183" lon="10.6206083"><ele>95.0</ele><time>2026-04-11T08:16:27.452Z</time></trkpt><trkpt lat="45.4079333" lon="10.6207083"><ele>95.0</ele><time>2026-04-11T08:16:28.451Z</time></trkpt><trkpt lat="45.4080333" lon="10.6208367"><ele>95.0</ele><time>2026-04-11T08:16:29.453Z</time></trkpt><trkpt lat="45.4081267" lon="10.6209883"><ele>95.25</ele><time>2026-04-11T08:16:30.459Z</time></trkpt><trkpt lat="45.4082183" lon="10.621115"><ele>95.5</ele><time>2026-04-11T08:16:31.459Z</time></trkpt><trkpt lat="45.4083117" lon="10.6212433"><ele>95.75</ele><time>2026-04-11T08:16:32.447Z</time></trkpt><trkpt lat="45.4084067" lon="10.6213467"><ele>96.0</ele><time>2026-04-11T08:16:33.458Z</time></trkpt><trkpt lat="45.4084733" lon="10.62143"><ele>96.0</ele><time>2026-04-11T08:16:34.455Z</time></trkpt><trkpt lat="45.4085383" lon="10.62154"><ele>96.0</ele><time>2026-04-11T08:16:35.453Z</time></trkpt><trkpt lat="45.4086083" lon="10.6216367"><ele>96.0</ele><time>2026-04-11T08:16:36.454Z</time></trkpt><trkpt lat="45.4086767" lon="10.6217283"><ele>96.0</ele><time>2026-04-11T08:16:37.453Z</time></trkpt><trkpt lat="45.4087783" lon="10.621825"><ele>96.0</ele><time>2026-04-11T08:16:38.447Z</time></trkpt><trkpt lat="45.4088683" lon="10.6218883"><ele>96.33333333333333</ele><time>2026-04-11T08:16:39.446Z</time></trkpt><trkpt lat="45.408945" lon="10.621945"><ele>96.66666666666666</ele><time>2026-04-11T08:16:40.445Z</time></trkpt><trkpt lat="45.40901" lon="10.622005"><ele>97.0</ele><time>2026-04-11T08:16:41.455Z</time></trkpt><trkpt lat="45.4090817" lon="10.62208"><ele>97.33333333333333</ele><time>2026-04-11T08:16:42.449Z</time></trkpt><trkpt lat="45.4091483" lon="10.622155"><ele>97.66666666666666</ele><time>2026-04-11T08:16:43.448Z</time></trkpt><trkpt lat="45.4092133" lon="10.6222217"><ele>98.0</ele><time>2026-04-11T08:16:44.449Z</time></trkpt><trkpt lat="45.40928" lon="10.62229"><ele>97.99999999999999</ele><time>2026-04-11T08:16:45.453Z</time></trkpt><trkpt lat="45.4093467" lon="10.62236"><ele>98.0</ele><time>2026-04-11T08:16:46.454Z</time></trkpt><trkpt lat="45.4094133" lon="10.6224283"><ele>98.0</ele><time>2026-04-11T08:16:47.457Z</time></trkpt><trkpt lat="45.40948" lon="10.6224917"><ele>98.0</ele><time>2026-04-11T08:16:48.453Z</time></trkpt><trkpt lat="45.40955" lon="10.62257"><ele>97.99999999999999</ele><time>2026-04-11T08:16:49.45Z</time></trkpt><trkpt lat="45.409615" lon="10.6226517"><ele>98.0</ele><time>2026-04-11T08:16:50.447Z</time></trkpt><trkpt lat="45.4096867" lon="10.62273"><ele>98.33333333333333</ele><time>2026-04-11T08:16:51.446Z</time></trkpt><trkpt lat="45.4097633" lon="10.6228"><ele>98.66666666666666</ele><time>2026-04-11T08:16:52.452Z</time></trkpt><trkpt lat="45.4098433" lon="10.62287"><ele>99.0</ele><time>2026-04-11T08:16:53.448Z</time></trkpt><trkpt lat="45.40991" lon="10.6229283"><ele>99.33333333333334</ele><time>2026-04-11T08:16:54.457Z</time></trkpt><trkpt lat="45.4099783" lon="10.6229817"><ele>99.66666666666667</ele><time>2026-04-11T08:16:55.446Z</time></trkpt><trkpt lat="45.4100533" lon="10.6230367"><ele>100.0</ele><time>2026-04-11T08:16:56.447Z</time></trkpt><trkpt lat="45.4101317" lon="10.6230867"><ele>100.00000000000001</ele><time>2026-04-11T08:16:57.449Z</time></trkpt><trkpt lat="45.41021" lon="10.623135"><ele>100.0</ele><time>2026-04-11T08:16:58.444Z</time></trkpt><trkpt lat="45.4102917" lon="10.6231767"><ele>100.0</ele><time>2026-04-11T08:16:59.455Z</time></trkpt><trkpt lat="45.4103717" lon="10.6232167"><ele>100.0</ele><time>2026-04-11T08:17:00.453Z</time></trkpt><trkpt lat="45.4104533" lon="10.6232467"><ele>100.00000000000001</ele><time>2026-04-11T08:17:01.448Z</time></trkpt><trkpt lat="45.4105417" lon="10.62327"><ele>100.0</ele><time>2026-04-11T08:17:02.444Z</time></trkpt><trkpt lat="45.410655" lon="10.6232933"><ele>102.2</ele><time>2026-04-11T08:17:03.448Z</time></trkpt><trkpt lat="45.410735" lon="10.6233183"><ele>104.4</ele><time>2026-04-11T08:17:04.446Z</time></trkpt><trkpt lat="45.4108017" lon="10.6233333"><ele>106.6</ele><time>2026-04-11T08:17:05.446Z</time></trkpt><trkpt lat="45.4109017" lon="10.6233683"><ele>108.8</ele><time>2026-04-11T08:17:07.455Z</time></trkpt><trkpt lat="45.4108883" lon="10.62348"><ele>111.0</ele><time>2026-04-11T08:17:17.457Z</time></trkpt><trkpt lat="45.4107767" lon="10.62361"><ele>111.66666666666666</ele><time>2026-04-11T08:17:19.455Z</time></trkpt><trkpt lat="45.410695" lon="10.62371"><ele>112.33333333333333</ele><time>2026-04-11T08:17:20.457Z</time></trkpt><trkpt lat="45.410585" lon="10.6238967"><ele>113.0</ele><time>2026-04-11T08:17:21.446Z</time></trkpt><trkpt lat="45.4104883" lon="10.6240983"><ele>108.0</ele><time>2026-04-11T08:17:22.451Z</time></trkpt><trkpt lat="45.4104167" lon="10.62433"><ele>103.0</ele><time>2026-04-11T08:17:23.446Z</time></trkpt><trkpt lat="45.4103833" lon="10.624605"><ele>98.0</ele><time>2026-04-11T08:17:24.445Z</time></trkpt><trkpt lat="45.4103533" lon="10.6248567"><ele>98.0</ele><time>2026-04-11T08:17:25.452Z</time></trkpt><trkpt lat="45.4103167" lon="10.6250983"><ele>98.0</ele><time>2026-04-11T08:17:26.452Z</time></trkpt><trkpt lat="45.4102683" lon="10.6253233"><ele>98.0</ele><time>2026-04-11T08:17:27.443Z</time></trkpt><trkpt lat="45.4102017" lon="10.625535"><ele>97.66666666666666</ele><time>2026-04-11T08:17:28.442Z</time></trkpt><trkpt lat="45.4100867" lon="10.625725"><ele>97.33333333333334</ele><time>2026-04-11T08:17:29.447Z</time></trkpt><trkpt lat="45.4099333" lon="10.6259083"><ele>97.0</ele><time>2026-04-11T08:17:30.444Z</time></trkpt><trkpt lat="45.4097667" lon="10.6260683"><ele>96.33333333333334</ele><time>2026-04-11T08:17:31.455Z</time></trkpt><trkpt lat="45.4095917" lon="10.6262183"><ele>95.66666666666667</ele><time>2026-04-11T08:17:32.44Z</time></trkpt><trkpt lat="45.4094333" lon="10.6263283"><ele>95.0</ele><time>2026-04-11T08:17:33.442Z</time></trkpt><trkpt lat="45.4092867" lon="10.62646"><ele>95.0</ele><time>2026-04-11T08:17:34.44Z</time></trkpt><trkpt lat="45.409175" lon="10.6265467"><ele>95.0</ele><time>2026-04-11T08:17:35.442Z</time></trkpt><trkpt lat="45.4090817" lon="10.6265867"><ele>95.0</ele><time>2026-04-11T08:17:36.46Z</time></trkpt><trkpt lat="45.40899" lon="10.6265967"><ele>95.0</ele><time>2026-04-11T08:17:37.461Z</time></trkpt><trkpt lat="45.4089233" lon="10.6265533"><ele>95.0</ele><time>2026-04-11T08:17:38.453Z</time></trkpt><trkpt lat="45.4088117" lon="10.6265133"><ele>95.2</ele><time>2026-04-11T08:17:40.452Z</time></trkpt><trkpt lat="45.408755" lon="10.6266067"><ele>95.4</ele><time>2026-04-11T08:23:22.438Z</time></trkpt><trkpt lat="45.408685" lon="10.6267117"><ele>95.6</ele><time>2026-04-11T08:23:24.454Z</time></trkpt><trkpt lat="45.4086433" lon="10.626845"><ele>95.8</ele><time>2026-04-11T08:23:26.45Z</time></trkpt><trkpt lat="45.4085717" lon="10.6269783"><ele>96.0</ele><time>2026-04-11T08:23:28.448Z</time></trkpt><trkpt lat="45.4085067" lon="10.6270417"><ele>97.0</ele><time>2026-04-11T08:23:29.445Z</time></trkpt><trkpt lat="45.4084183" lon="10.6271"><ele>98.0</ele><time>2026-04-11T08:23:30.461Z</time></trkpt><trkpt lat="45.4083133" lon="10.62715"><ele>99.0</ele><time>2026-04-11T08:23:31.459Z</time></trkpt><trkpt lat="45.4081867" lon="10.6271917"><ele>100.0</ele><time>2026-04-11T08:23:32.439Z</time></trkpt><trkpt lat="45.4080417" lon="10.6272233"><ele>100.25</ele><time>2026-04-11T08:23:33.449Z</time></trkpt><trkpt lat="45.4079117" lon="10.6272717"><ele>100.5</ele><time>2026-04-11T08:23:34.446Z</time></trkpt><trkpt lat="45.4077867" lon="10.6273233"><ele>100.75</ele><time>2026-04-11T08:23:35.45Z</time></trkpt><trkpt lat="45.407675" lon="10.6274033"><ele>101.0</ele><time>2026-04-11T08:23:36.454Z</time></trkpt><trkpt lat="45.4075583" lon="10.6275133"><ele>101.0</ele><time>2026-04-11T08:23:37.457Z</time></trkpt><trkpt lat="45.40747" lon="10.6275033"><ele>101.0</ele><time>2026-04-11T08:23:38.444Z</time></trkpt><trkpt lat="45.4073717" lon="10.6275767"><ele>101.0</ele><time>2026-04-11T08:23:39.449Z</time></trkpt><trkpt lat="45.4072483" lon="10.6276467"><ele>101.0</ele><time>2026-04-11T08:23:40.463Z</time></trkpt><trkpt lat="45.40714" lon="10.6276867"><ele>101.0</ele><time>2026-04-11T08:23:41.449Z</time></trkpt><trkpt lat="45.40701" lon="10.62766"><ele>100.75</ele><time>2026-04-11T08:23:42.443Z</time></trkpt><trkpt lat="45.4068783" lon="10.6276317"><ele>100.5</ele><time>2026-04-11T08:23:43.443Z</time></trkpt><trkpt lat="45.4067167" lon="10.62761"><ele>100.25</ele><time>2026-04-11T08:23:44.446Z</time></trkpt><trkpt lat="45.4065767" lon="10.6275917"><ele>100.0</ele><time>2026-04-11T08:23:45.443Z</time></trkpt><trkpt lat="45.4064333" lon="10.6275433"><ele>100.33333333333334</ele><time>2026-04-11T08:23:46.458Z</time></trkpt><trkpt lat="45.4062667" lon="10.627495"><ele>100.66666666666666</ele><time>2026-04-11T08:23:47.447Z</time></trkpt><trkpt lat="45.4060933" lon="10.6274617"><ele>101.0</ele><time>2026-04-11T08:23:48.44Z</time></trkpt><trkpt lat="45.40592" lon="10.6274217"><ele>101.0</ele><time>2026-04-11T08:23:49.445Z</time></trkpt><trkpt lat="45.4057483" lon="10.62736"><ele>101.0</ele><time>2026-04-11T08:23:50.448Z</time></trkpt><trkpt lat="45.4055933" lon="10.6272767"><ele>101.0</ele><time>2026-04-11T08:23:51.44Z</time></trkpt><trkpt lat="45.405425" lon="10.6272083"><ele>103.0</ele><time>2026-04-11T08:23:52.445Z</time></trkpt><trkpt lat="45.4052717" lon="10.627125"><ele>105.0</ele><time>2026-04-11T08:23:53.453Z</time></trkpt><trkpt lat="45.40513" lon="10.6270433"><ele>107.0</ele><time>2026-04-11T08:23:54.449Z</time></trkpt><trkpt lat="45.4049883" lon="10.6269633"><ele>109.5</ele><time>2026-04-11T08:23:55.451Z</time></trkpt><trkpt lat="45.4048467" lon="10.6269033"><ele>112.0</ele><time>2026-04-11T08:23:56.45Z</time></trkpt><trkpt lat="45.4046933" lon="10.6268667"><ele>114.5</ele><time>2026-04-11T08:23:57.446Z</time></trkpt><trkpt lat="45.404555" lon="10.6268217"><ele>117.0</ele><time>2026-04-11T08:23:58.444Z</time></trkpt><trkpt lat="45.4044117" lon="10.6267783"><ele>119.0</ele><time>2026-04-11T08:23:59.455Z</time></trkpt><trkpt lat="45.4042517" lon="10.6267417"><ele>121.0</ele><time>2026-04-11T08:24:00.446Z</time></trkpt><trkpt lat="45.40408" lon="10.626735"><ele>123.0</ele><time>2026-04-11T08:24:01.447Z</time></trkpt><trkpt lat="45.4039233" lon="10.626745"><ele>123.25</ele><time>2026-04-11T08:24:02.456Z</time></trkpt><trkpt lat="45.40378" lon="10.6267533"><ele>123.5</ele><time>2026-04-11T08:24:03.484Z</time></trkpt><trkpt lat="45.4036517" lon="10.6267717"><ele>123.75</ele><time>2026-04-11T08:24:04.448Z</time></trkpt><trkpt lat="45.40354" lon="10.6267817"><ele>124.0</ele><time>2026-04-11T08:24:05.451Z</time></trkpt><trkpt lat="45.40344" lon="10.626765"><ele>124.0</ele><time>2026-04-11T08:24:06.457Z</time></trkpt><trkpt lat="45.4033783" lon="10.6267167"><ele>124.0</ele><time>2026-04-11T08:24:07.443Z</time></trkpt><trkpt lat="45.4033167" lon="10.62658"><ele>124.0</ele><time>2026-04-11T08:24:09.444Z</time></trkpt><trkpt lat="45.4033783" lon="10.626395"><ele>124.0</ele><time>2026-04-11T08:24:11.443Z</time></trkpt><trkpt lat="45.4034383" lon="10.626265"><ele>124.0</ele><time>2026-04-11T08:24:12.459Z</time></trkpt><trkpt lat="45.4034883" lon="10.6260983"><ele>124.0</ele><time>2026-04-11T08:24:13.442Z</time></trkpt><trkpt lat="45.403525" lon="10.6259667"><ele>124.0</ele><time>2026-04-11T08:24:14.446Z</time></trkpt><trkpt lat="45.40354" lon="10.6258533"><ele>124.0</ele><time>2026-04-11T08:24:15.447Z</time></trkpt><trkpt lat="45.4035333" lon="10.6257"><ele>124.0</ele><time>2026-04-11T08:24:16.449Z</time></trkpt><trkpt lat="45.4034867" lon="10.6256167"><ele>124.0</ele><time>2026-04-11T08:24:17.453Z</time></trkpt><trkpt lat="45.4035033" lon="10.6254867"><ele>124.00000000000001</ele><time>2026-04-11T08:24:18.455Z</time></trkpt><trkpt lat="45.403525" lon="10.625375"><ele>124.0</ele><time>2026-04-11T08:24:19.454Z</time></trkpt><trkpt lat="45.40357" lon="10.6252733"><ele>124.0</ele><time>2026-04-11T08:24:20.441Z</time></trkpt><trkpt lat="45.4036267" lon="10.6251933"><ele>124.0</ele><time>2026-04-11T08:24:21.452Z</time></trkpt><trkpt lat="45.4036933" lon="10.6251083"><ele>124.00000000000001</ele><time>2026-04-11T08:24:22.452Z</time></trkpt><trkpt lat="45.4037817" lon="10.625015"><ele>124.0</ele><time>2026-04-11T08:24:23.445Z</time></trkpt><trkpt lat="45.4038667" lon="10.6249183"><ele>122.6</ele><time>2026-04-11T08:24:24.459Z</time></trkpt><trkpt lat="45.4039183" lon="10.62481"><ele>121.2</ele><time>2026-04-11T08:24:25.458Z</time></trkpt><trkpt lat="45.4039567" lon="10.6247183"><ele>119.79999999999998</ele><time>2026-04-11T08:24:26.451Z</time></trkpt><trkpt lat="45.4039817" lon="10.62463"><ele>118.39999999999999</ele><time>2026-04-11T08:24:27.452Z</time></trkpt><trkpt lat="45.4039817" lon="10.624535"><ele>117.0</ele><time>2026-04-11T08:24:28.442Z</time></trkpt><trkpt lat="45.4039133" lon="10.6242683"><ele>116.0</ele><time>2026-04-11T08:24:30.444Z</time></trkpt><trkpt lat="45.403855" lon="10.62413"><ele>115.0</ele><time>2026-04-11T08:24:31.466Z</time></trkpt><trkpt lat="45.4038217" lon="10.6240133"><ele>114.0</ele><time>2026-04-11T08:24:32.446Z</time></trkpt><trkpt lat="45.403765" lon="10.62388"><ele>113.0</ele><time>2026-04-11T08:24:33.444Z</time></trkpt><trkpt lat="45.4036583" lon="10.6237233"><ele>111.80000000000001</ele><time>2026-04-11T08:24:34.468Z</time></trkpt><trkpt lat="45.4035683" lon="10.6235933"><ele>110.60000000000001</ele><time>2026-04-11T08:24:35.456Z</time></trkpt><trkpt lat="45.403495" lon="10.62347"><ele>109.39999999999999</ele><time>2026-04-11T08:24:36.457Z</time></trkpt><trkpt lat="45.40344" lon="10.6233467"><ele>108.19999999999999</ele><time>2026-04-11T08:24:37.457Z</time></trkpt><trkpt lat="45.4034067" lon="10.6232217"><ele>107.0</ele><time>2026-04-11T08:24:38.451Z</time></trkpt><trkpt lat="45.40344" lon="10.623095"><ele>107.0</ele><time>2026-04-11T08:24:39.446Z</time></trkpt><trkpt lat="45.40349" lon="10.622915"><ele>107.0</ele><time>2026-04-11T08:24:40.447Z</time></trkpt><trkpt lat="45.4035467" lon="10.62274"><ele>107.0</ele><time>2026-04-11T08:24:41.449Z</time></trkpt><trkpt lat="45.4036267" lon="10.6225717"><ele>107.0</ele><time>2026-04-11T08:24:42.448Z</time></trkpt><trkpt lat="45.4036767" lon="10.6223667"><ele>105.33333333333333</ele><time>2026-04-11T08:24:43.442Z</time></trkpt><trkpt lat="45.4037033" lon="10.6221533"><ele>103.66666666666666</ele><time>2026-04-11T08:24:44.457Z</time></trkpt><trkpt lat="45.4037267" lon="10.62192"><ele>102.0</ele><time>2026-04-11T08:24:45.441Z</time></trkpt><trkpt lat="45.40376" lon="10.6216733"><ele>100.5</ele><time>2026-04-11T08:24:46.458Z</time></trkpt><trkpt lat="45.4037933" lon="10.6214767"><ele>99.0</ele><time>2026-04-11T08:24:47.448Z</time></trkpt><trkpt lat="45.403815" lon="10.621285"><ele>97.5</ele><time>2026-04-11T08:24:48.462Z</time></trkpt><trkpt lat="45.4038317" lon="10.62111"><ele>96.0</ele><time>2026-04-11T08:24:49.454Z</time></trkpt><trkpt lat="45.4038517" lon="10.6209183"><ele>95.0</ele><time>2026-04-11T08:24:50.46Z</time></trkpt><trkpt lat="45.4038933" lon="10.620725"><ele>94.0</ele><time>2026-04-11T08:24:51.46Z</time></trkpt><trkpt lat="45.4039433" lon="10.6205817"><ele>93.0</ele><time>2026-04-11T08:24:52.441Z</time></trkpt><trkpt lat="45.4040233" lon="10.6204617"><ele>92.0</ele><time>2026-04-11T08:24:53.451Z</time></trkpt><trkpt lat="45.4041217" lon="10.62036"><ele>92.25</ele><time>2026-04-11T08:24:54.461Z</time></trkpt><trkpt lat="45.4042017" lon="10.62023"><ele>92.5</ele><time>2026-04-11T08:24:55.445Z</time></trkpt><trkpt lat="45.4042783" lon="10.6201033"><ele>92.75</ele><time>2026-04-11T08:24:56.446Z</time></trkpt><trkpt lat="45.4043767" lon="10.6199683"><ele>93.0</ele><time>2026-04-11T08:24:57.451Z</time></trkpt><trkpt lat="45.40446" lon="10.6198533"><ele>93.0</ele><time>2026-04-11T08:24:58.445Z</time></trkpt><trkpt lat="45.4045717" lon="10.6197433"><ele>93.0</ele><time>2026-04-11T08:24:59.45Z</time></trkpt><trkpt lat="45.4046917" lon="10.6196483"><ele>93.0</ele><time>2026-04-11T08:25:00.464Z</time></trkpt><trkpt lat="45.404805" lon="10.619535"><ele>93.0</ele><time>2026-04-11T08:25:01.472Z</time></trkpt><trkpt lat="45.4049117" lon="10.6194717"><ele>92.4</ele><time>2026-04-11T08:25:02.453Z</time></trkpt><trkpt lat="45.4050167" lon="10.6194133"><ele>91.80000000000001</ele><time>2026-04-11T08:25:03.454Z</time></trkpt><trkpt lat="45.4050933" lon="10.6193467"><ele>91.2</ele><time>2026-04-11T08:25:04.448Z</time></trkpt><trkpt lat="45.4051683" lon="10.6193217"><ele>90.6</ele><time>2026-04-11T08:25:05.449Z</time></trkpt><trkpt lat="45.405245" lon="10.6192883"><ele>90.0</ele><time>2026-04-11T08:25:06.459Z</time></trkpt><trkpt lat="45.4053317" lon="10.6192117"><ele>90.0</ele><time>2026-04-11T08:25:08.446Z</time></trkpt><trkpt lat="45.40527" lon="10.6190333"><ele>90.0</ele><time>2026-04-11T08:25:12.447Z</time></trkpt><trkpt lat="45.4052017" lon="10.618995"><ele>90.0</ele><time>2026-04-11T08:25:13.452Z</time></trkpt><trkpt lat="45.4051183" lon="10.61895"><ele>90.0</ele><time>2026-04-11T08:25:14.467Z</time></trkpt><trkpt lat="45.40502" lon="10.6188983"><ele>90.0</ele><time>2026-04-11T08:25:15.442Z</time></trkpt><trkpt lat="45.4048867" lon="10.61883"><ele>90.0</ele><time>2026-04-11T08:25:16.451Z</time></trkpt><trkpt lat="45.404775" lon="10.618785"><ele>90.0</ele><time>2026-04-11T08:25:17.442Z</time></trkpt><trkpt lat="45.4046767" lon="10.6187683"><ele>90.0</ele><time>2026-04-11T08:25:18.461Z</time></trkpt><trkpt lat="45.4045633" lon="10.6187317"><ele>90.0</ele><time>2026-04-11T08:25:19.451Z</time></trkpt><trkpt lat="45.4044267" lon="10.61871"><ele>90.0</ele><time>2026-04-11T08:25:20.448Z</time></trkpt><trkpt lat="45.4042783" lon="10.61868"><ele>90.0</ele><time>2026-04-11T08:25:21.453Z</time></trkpt><trkpt lat="45.404205" lon="10.6186417"><ele>90.0</ele><time>2026-04-11T08:25:22.455Z</time></trkpt><trkpt lat="45.4040983" lon="10.61862"><ele>90.0</ele><time>2026-04-11T08:25:23.44Z</time></trkpt><trkpt lat="45.4039633" lon="10.61858"><ele>90.0</ele><time>2026-04-11T08:25:24.45Z</time></trkpt><trkpt lat="45.40386" lon="10.6185283"><ele>90.0</ele><time>2026-04-11T08:25:25.449Z</time></trkpt><trkpt lat="45.40371" lon="10.618485"><ele>90.0</ele><time>2026-04-11T08:25:26.457Z</time></trkpt><trkpt lat="45.403585" lon="10.6184533"><ele>90.0</ele><time>2026-04-11T08:25:27.452Z</time></trkpt><trkpt lat="45.4034617" lon="10.6184067"><ele>90.75</ele><time>2026-04-11T08:25:28.449Z</time></trkpt><trkpt lat="45.4033183" lon="10.618375"><ele>91.5</ele><time>2026-04-11T08:25:29.45Z</time></trkpt><trkpt lat="45.4031733" lon="10.6183883"><ele>92.25</ele><time>2026-04-11T08:25:30.456Z</time></trkpt><trkpt lat="45.4030483" lon="10.618405"><ele>93.0</ele><time>2026-04-11T08:25:31.468Z</time></trkpt><trkpt lat="45.4029283" lon="10.6184083"><ele>93.0</ele><time>2026-04-11T08:25:32.449Z</time></trkpt><trkpt lat="45.4028217" lon="10.6184283"><ele>93.0</ele><time>2026-04-11T08:25:33.453Z</time></trkpt><trkpt lat="45.4027483" lon="10.6184533"><ele>93.0</ele><time>2026-04-11T08:25:34.445Z</time></trkpt><trkpt lat="45.402685" lon="10.618505"><ele>93.0</ele><time>2026-04-11T08:25:35.453Z</time></trkpt><trkpt lat="45.4025767" lon="10.6186633"><ele>93.0</ele><time>2026-04-11T08:25:37.45Z</time></trkpt><trkpt lat="45.4025467" lon="10.6187733"><ele>93.33333333333333</ele><time>2026-04-11T08:25:38.448Z</time></trkpt><trkpt lat="45.4025117" lon="10.618885"><ele>93.66666666666667</ele><time>2026-04-11T08:25:39.45Z</time></trkpt><trkpt lat="45.402465" lon="10.61898"><ele>94.0</ele><time>2026-04-11T08:25:40.442Z</time></trkpt><trkpt lat="45.402415" lon="10.6190583"><ele>94.33333333333334</ele><time>2026-04-11T08:25:41.448Z</time></trkpt><trkpt lat="45.4023617" lon="10.6191333"><ele>94.66666666666667</ele><time>2026-04-11T08:25:42.453Z</time></trkpt><trkpt lat="45.4023083" lon="10.6192083"><ele>95.0</ele><time>2026-04-11T08:25:43.447Z</time></trkpt><trkpt lat="45.4022583" lon="10.6192833"><ele>95.0</ele><time>2026-04-11T08:25:44.446Z</time></trkpt><trkpt lat="45.402205" lon="10.6193567"><ele>95.0</ele><time>2026-04-11T08:25:45.45Z</time></trkpt><trkpt lat="45.4021517" lon="10.6194333"><ele>95.0</ele><time>2026-04-11T08:25:46.44Z</time></trkpt><trkpt lat="45.4021" lon="10.6195117"><ele>95.0</ele><time>2026-04-11T08:25:47.441Z</time></trkpt><trkpt lat="45.4020417" lon="10.6196017"><ele>95.0</ele><time>2026-04-11T08:25:48.446Z</time></trkpt><trkpt lat="45.40198" lon="10.6196967"><ele>95.0</ele><time>2026-04-11T08:25:49.447Z</time></trkpt><trkpt lat="45.401915" lon="10.6198133"><ele>95.0</ele><time>2026-04-11T08:25:50.443Z</time></trkpt><trkpt lat="45.4018533" lon="10.6199333"><ele>95.0</ele><time>2026-04-11T08:25:51.452Z</time></trkpt><trkpt lat="45.4017933" lon="10.6200433"><ele>95.0</ele><time>2026-04-11T08:25:52.442Z</time></trkpt><trkpt lat="45.401735" lon="10.62015"><ele>95.0</ele><time>2026-04-11T08:25:53.441Z</time></trkpt><trkpt lat="45.4016633" lon="10.6202533"><ele>95.0</ele><time>2026-04-11T08:25:54.453Z</time></trkpt><trkpt lat="45.4015817" lon="10.6203633"><ele>95.25</ele><time>2026-04-11T08:25:55.441Z</time></trkpt><trkpt lat="45.4015033" lon="10.6204833"><ele>95.5</ele><time>2026-04-11T08:25:56.442Z</time></trkpt><trkpt lat="45.40142" lon="10.6206083"><ele>95.75</ele><time>2026-04-11T08:25:57.449Z</time></trkpt><trkpt lat="45.401315" lon="10.62071"><ele>96.0</ele><time>2026-04-11T08:25:58.451Z</time></trkpt><trkpt lat="45.4012533" lon="10.6208483"><ele>96.25</ele><time>2026-04-11T08:25:59.445Z</time></trkpt><trkpt lat="45.4011667" lon="10.6210117"><ele>96.5</ele><time>2026-04-11T08:26:00.457Z</time></trkpt><trkpt lat="45.40109" lon="10.621145"><ele>96.75</ele><time>2026-04-11T08:26:01.459Z</time></trkpt><trkpt lat="45.40102" lon="10.621245"><ele>97.0</ele><time>2026-04-11T08:26:02.447Z</time></trkpt><trkpt lat="45.400945" lon="10.6213583"><ele>98.50000000000001</ele><time>2026-04-11T08:26:03.46Z</time></trkpt><trkpt lat="45.4008833" lon="10.6214317"><ele>100.0</ele><time>2026-04-11T08:26:04.446Z</time></trkpt><trkpt lat="45.4008133" lon="10.6214833"><ele>101.5</ele><time>2026-04-11T08:26:05.453Z</time></trkpt><trkpt lat="45.40075" lon="10.6214983"><ele>103.0</ele><time>2026-04-11T08:26:06.447Z</time></trkpt><trkpt lat="45.4006667" lon="10.6214667"><ele>104.50000000000001</ele><time>2026-04-11T08:26:07.462Z</time></trkpt><trkpt lat="45.4005667" lon="10.6214283"><ele>106.0</ele><time>2026-04-11T08:26:08.449Z</time></trkpt><trkpt lat="45.4004633" lon="10.621375"><ele>106.0</ele><time>2026-04-11T08:26:09.451Z</time></trkpt><trkpt lat="45.4003567" lon="10.6213233"><ele>106.0</ele><time>2026-04-11T08:26:10.453Z</time></trkpt><trkpt lat="45.4002483" lon="10.62127"><ele>106.0</ele><time>2026-04-11T08:26:11.45Z</time></trkpt><trkpt lat="45.4001417" lon="10.6212133"><ele>106.0</ele><time>2026-04-11T08:26:12.452Z</time></trkpt><trkpt lat="45.400055" lon="10.6211467"><ele>106.0</ele><time>2026-04-11T08:26:13.465Z</time></trkpt><trkpt lat="45.3999933" lon="10.6211"><ele>106.0</ele><time>2026-04-11T08:26:14.449Z</time></trkpt><trkpt lat="45.3998733" lon="10.62104"><ele>106.0</ele><time>2026-04-11T08:26:16.457Z</time></trkpt><trkpt lat="45.3997617" lon="10.6209767"><ele>106.0</ele><time>2026-04-11T08:26:18.458Z</time></trkpt><trkpt lat="45.399665" lon="10.6209483"><ele>106.0</ele><time>2026-04-11T08:26:20.463Z</time></trkpt><trkpt lat="45.39958" lon="10.621045"><ele>106.6</ele><time>2026-04-11T08:26:22.481Z</time></trkpt><trkpt lat="45.399535" lon="10.6211517"><ele>107.19999999999999</ele><time>2026-04-11T08:26:23.48Z</time></trkpt><trkpt lat="45.3994933" lon="10.6212733"><ele>107.80000000000001</ele><time>2026-04-11T08:26:24.447Z</time></trkpt><trkpt lat="45.3994367" lon="10.621435"><ele>108.4</ele><time>2026-04-11T08:26:25.44Z</time></trkpt><trkpt lat="45.3994117" lon="10.6215433"><ele>109.0</ele><time>2026-04-11T08:26:26.461Z</time></trkpt><trkpt lat="45.399385" lon="10.6217133"><ele>109.0</ele><time>2026-04-11T08:26:27.449Z</time></trkpt><trkpt lat="45.3993717" lon="10.621865"><ele>109.0</ele><time>2026-04-11T08:26:28.447Z</time></trkpt><trkpt lat="45.39939" lon="10.6220233"><ele>109.0</ele><time>2026-04-11T08:26:29.45Z</time></trkpt><trkpt lat="45.3993917" lon="10.6221683"><ele>109.0</ele><time>2026-04-11T08:26:30.461Z</time></trkpt><trkpt lat="45.3994" lon="10.622285"><ele>109.0</ele><time>2026-04-11T08:26:31.442Z</time></trkpt><trkpt lat="45.3994167" lon="10.6223867"><ele>109.5</ele><time>2026-04-11T08:26:32.45Z</time></trkpt><trkpt lat="45.399405" lon="10.62248"><ele>110.0</ele><time>2026-04-11T08:26:34.446Z</time></trkpt><trkpt lat="45.3993367" lon="10.6224767"><ele>110.5</ele><time>2026-04-11T08:26:36.445Z</time></trkpt><trkpt lat="45.3991633" lon="10.6223867"><ele>111.0</ele><time>2026-04-11T08:26:38.441Z</time></trkpt><trkpt lat="45.39904" lon="10.6223083"><ele>111.0</ele><time>2026-04-11T08:26:39.441Z</time></trkpt><trkpt lat="45.398885" lon="10.622285"><ele>111.0</ele><time>2026-04-11T08:26:40.441Z</time></trkpt><trkpt lat="45.3987167" lon="10.6222517"><ele>111.0</ele><time>2026-04-11T08:26:41.441Z</time></trkpt><trkpt lat="45.398535" lon="10.6222383"><ele>109.33333333333334</ele><time>2026-04-11T08:26:42.448Z</time></trkpt><trkpt lat="45.3983533" lon="10.6222317"><ele>107.66666666666667</ele><time>2026-04-11T08:26:43.446Z</time></trkpt><trkpt lat="45.398175" lon="10.622235"><ele>106.0</ele><time>2026-04-11T08:26:44.443Z</time></trkpt><trkpt lat="45.398" lon="10.622235"><ele>104.33333333333334</ele><time>2026-04-11T08:26:45.442Z</time></trkpt><trkpt lat="45.397845" lon="10.62224"><ele>102.66666666666666</ele><time>2026-04-11T08:26:46.453Z</time></trkpt><trkpt lat="45.3976933" lon="10.6222417"><ele>101.0</ele><time>2026-04-11T08:26:47.447Z</time></trkpt><trkpt lat="45.3975417" lon="10.6223033"><ele>101.0</ele><time>2026-04-11T08:26:48.451Z</time></trkpt><trkpt lat="45.397395" lon="10.622375"><ele>101.0</ele><time>2026-04-11T08:26:49.448Z</time></trkpt><trkpt lat="45.397245" lon="10.6224483"><ele>101.0</ele><time>2026-04-11T08:26:50.463Z</time></trkpt><trkpt lat="45.3971" lon="10.6225017"><ele>99.0</ele><time>2026-04-11T08:26:51.443Z</time></trkpt><trkpt lat="45.3969617" lon="10.62257"><ele>97.0</ele><time>2026-04-11T08:26:52.446Z</time></trkpt><trkpt lat="45.3967933" lon="10.6226083"><ele>95.0</ele><time>2026-04-11T08:26:53.465Z</time></trkpt><trkpt lat="45.3966367" lon="10.6226817"><ele>95.0</ele><time>2026-04-11T08:26:54.447Z</time></trkpt><trkpt lat="45.3964783" lon="10.62276"><ele>95.0</ele><time>2026-04-11T08:26:55.466Z</time></trkpt><trkpt lat="45.3963383" lon="10.6228183"><ele>95.0</ele><time>2026-04-11T08:26:56.442Z</time></trkpt><trkpt lat="45.3961983" lon="10.622795"><ele>94.0</ele><time>2026-04-11T08:26:57.442Z</time></trkpt><trkpt lat="45.39609" lon="10.6227833"><ele>93.0</ele><time>2026-04-11T08:26:58.45Z</time></trkpt><trkpt lat="45.3959967" lon="10.622725"><ele>92.0</ele><time>2026-04-11T08:26:59.457Z</time></trkpt><trkpt lat="45.39593" lon="10.6226167"><ele>91.0</ele><time>2026-04-11T08:27:00.456Z</time></trkpt><trkpt lat="45.3958667" lon="10.6224817"><ele>90.0</ele><time>2026-04-11T08:27:01.452Z</time></trkpt><trkpt lat="45.395795" lon="10.6223733"><ele>90.0</ele><time>2026-04-11T08:27:02.459Z</time></trkpt><trkpt lat="45.3957" lon="10.6222767"><ele>90.0</ele><time>2026-04-11T08:27:04.443Z</time></trkpt><trkpt lat="45.3956267" lon="10.6222733"><ele>90.0</ele><time>2026-04-11T08:27:05.46Z</time></trkpt><trkpt lat="45.3955533" lon="10.6223083"><ele>90.0</ele><time>2026-04-11T08:27:06.446Z</time></trkpt><trkpt lat="45.39547" lon="10.6224067"><ele>90.0</ele><time>2026-04-11T08:27:07.459Z</time></trkpt><trkpt lat="45.3953667" lon="10.622535"><ele>90.0</ele><time>2026-04-11T08:27:08.447Z</time></trkpt><trkpt lat="45.39524" lon="10.6227"><ele>90.0</ele><time>2026-04-11T08:27:09.449Z</time></trkpt><trkpt lat="45.3951167" lon="10.6227567"><ele>90.0</ele><time>2026-04-11T08:27:10.446Z</time></trkpt><trkpt lat="45.3949783" lon="10.62277"><ele>90.0</ele><time>2026-04-11T08:27:11.451Z</time></trkpt><trkpt lat="45.3948233" lon="10.622775"><ele>92.0</ele><time>2026-04-11T08:27:12.455Z</time></trkpt><trkpt lat="45.3946667" lon="10.6228433"><ele>94.0</ele><time>2026-04-11T08:27:13.451Z</time></trkpt><trkpt lat="45.3945333" lon="10.6229067"><ele>96.0</ele><time>2026-04-11T08:27:14.449Z</time></trkpt><trkpt lat="45.3944083" lon="10.6229883"><ele>98.0</ele><time>2026-04-11T08:27:15.469Z</time></trkpt><trkpt lat="45.394305" lon="10.6230733"><ele>98.0</ele><time>2026-04-11T08:27:16.446Z</time></trkpt><trkpt lat="45.39422" lon="10.6231933"><ele>98.0</ele><time>2026-04-11T08:27:17.452Z</time></trkpt><trkpt lat="45.3941583" lon="10.6232217"><ele>98.0</ele><time>2026-04-11T08:27:18.455Z</time></trkpt><trkpt lat="45.3940133" lon="10.6231817"><ele>98.0</ele><time>2026-04-11T08:27:20.45Z</time></trkpt><trkpt lat="45.3939167" lon="10.6231467"><ele>98.0</ele><time>2026-04-11T08:27:21.447Z</time></trkpt><trkpt lat="45.3938133" lon="10.623105"><ele>97.33333333333333</ele><time>2026-04-11T08:27:22.448Z</time></trkpt><trkpt lat="45.3937167" lon="10.62307"><ele>96.66666666666666</ele><time>2026-04-11T08:27:23.444Z</time></trkpt><trkpt lat="45.3936217" lon="10.6230467"><ele>96.0</ele><time>2026-04-11T08:27:24.466Z</time></trkpt><trkpt lat="45.3935383" lon="10.6230017"><ele>95.33333333333333</ele><time>2026-04-11T08:27:25.442Z</time></trkpt><trkpt lat="45.3934667" lon="10.622975"><ele>94.66666666666666</ele><time>2026-04-11T08:27:26.446Z</time></trkpt><trkpt lat="45.39339" lon="10.6229517"><ele>94.0</ele><time>2026-04-11T08:27:27.449Z</time></trkpt><trkpt lat="45.3933133" lon="10.6229217"><ele>94.0</ele><time>2026-04-11T08:27:28.449Z</time></trkpt><trkpt lat="45.39324" lon="10.6228967"><ele>94.0</ele><time>2026-04-11T08:27:29.447Z</time></trkpt><trkpt lat="45.39317" lon="10.6228717"><ele>94.0</ele><time>2026-04-11T08:27:30.449Z</time></trkpt><trkpt lat="45.3930983" lon="10.6228417"><ele>94.0</ele><time>2026-04-11T08:27:31.441Z</time></trkpt><trkpt lat="45.39303" lon="10.6228083"><ele>94.0</ele><time>2026-04-11T08:27:32.455Z</time></trkpt><trkpt lat="45.392965" lon="10.6227733"><ele>94.0</ele><time>2026-04-11T08:27:33.448Z</time></trkpt><trkpt lat="45.3928983" lon="10.62274"><ele>94.0</ele><time>2026-04-11T08:27:34.443Z</time></trkpt><trkpt lat="45.392835" lon="10.6226967"><ele>93.57142857142857</ele><time>2026-04-11T08:27:35.444Z</time></trkpt><trkpt lat="45.39277" lon="10.622655"><ele>93.14285714285714</ele><time>2026-04-11T08:27:36.462Z</time></trkpt><trkpt lat="45.39271" lon="10.6226167"><ele>92.71428571428572</ele><time>2026-04-11T08:27:37.444Z</time></trkpt><trkpt lat="45.3926433" lon="10.62258"><ele>92.28571428571428</ele><time>2026-04-11T08:27:38.454Z</time></trkpt><trkpt lat="45.392575" lon="10.622545"><ele>91.85714285714286</ele><time>2026-04-11T08:27:39.453Z</time></trkpt><trkpt lat="45.3925033" lon="10.622515"><ele>91.42857142857143</ele><time>2026-04-11T08:27:40.453Z</time></trkpt><trkpt lat="45.3924383" lon="10.6224717"><ele>91.0</ele><time>2026-04-11T08:27:41.468Z</time></trkpt><trkpt lat="45.3923783" lon="10.6224283"><ele>91.0</ele><time>2026-04-11T08:27:42.443Z</time></trkpt><trkpt lat="45.3923283" lon="10.6223667"><ele>91.0</ele><time>2026-04-11T08:27:43.447Z</time></trkpt><trkpt lat="45.39227" lon="10.6223217"><ele>91.0</ele><time>2026-04-11T08:27:44.451Z</time></trkpt><trkpt lat="45.3922117" lon="10.622275"><ele>91.0</ele><time>2026-04-11T08:27:45.443Z</time></trkpt><trkpt lat="45.3920983" lon="10.6221867"><ele>91.0</ele><time>2026-04-11T08:27:47.448Z</time></trkpt><trkpt lat="45.3920417" lon="10.622145"><ele>91.0</ele><time>2026-04-11T08:27:48.448Z</time></trkpt><trkpt lat="45.39198" lon="10.6221183"><ele>91.14285714285714</ele><time>2026-04-11T08:27:49.457Z</time></trkpt><trkpt lat="45.3919217" lon="10.6220717"><ele>91.28571428571428</ele><time>2026-04-11T08:27:50.447Z</time></trkpt><trkpt lat="45.3918633" lon="10.6220233"><ele>91.42857142857143</ele><time>2026-04-11T08:27:51.449Z</time></trkpt><trkpt lat="45.391805" lon="10.6219733"><ele>91.57142857142857</ele><time>2026-04-11T08:27:52.463Z</time></trkpt><trkpt lat="45.3917483" lon="10.6219283"><ele>91.71428571428571</ele><time>2026-04-11T08:27:53.456Z</time></trkpt><trkpt lat="45.3916883" lon="10.6218933"><ele>91.85714285714286</ele><time>2026-04-11T08:27:54.447Z</time></trkpt><trkpt lat="45.3916233" lon="10.6218583"><ele>92.0</ele><time>2026-04-11T08:27:55.449Z</time></trkpt><trkpt lat="45.3915617" lon="10.6218167"><ele>92.0</ele><time>2026-04-11T08:27:56.451Z</time></trkpt><trkpt lat="45.3914933" lon="10.6217733"><ele>92.0</ele><time>2026-04-11T08:27:57.451Z</time></trkpt><trkpt lat="45.3914267" lon="10.62172"><ele>92.0</ele><time>2026-04-11T08:27:58.453Z</time></trkpt><trkpt lat="45.3913567" lon="10.6216617"><ele>92.0</ele><time>2026-04-11T08:27:59.456Z</time></trkpt><trkpt lat="45.3912767" lon="10.6215967"><ele>92.0</ele><time>2026-04-11T08:28:00.463Z</time></trkpt><trkpt lat="45.391185" lon="10.6215017"><ele>92.0</ele><time>2026-04-11T08:28:01.447Z</time></trkpt><trkpt lat="45.3910667" lon="10.6214233"><ele>92.66666666666667</ele><time>2026-04-11T08:28:02.454Z</time></trkpt><trkpt lat="45.3909" lon="10.6213283"><ele>93.33333333333333</ele><time>2026-04-11T08:28:03.446Z</time></trkpt><trkpt lat="45.3907783" lon="10.62123"><ele>94.0</ele><time>2026-04-11T08:28:04.438Z</time></trkpt><trkpt lat="45.3906483" lon="10.6211517"><ele>93.6</ele><time>2026-04-11T08:28:05.453Z</time></trkpt><trkpt lat="45.3905467" lon="10.6210733"><ele>93.2</ele><time>2026-04-11T08:28:06.443Z</time></trkpt><trkpt lat="45.39047" lon="10.620995"><ele>92.8</ele><time>2026-04-11T08:28:07.441Z</time></trkpt><trkpt lat="45.3903983" lon="10.620965"><ele>92.39999999999999</ele><time>2026-04-11T08:28:08.451Z</time></trkpt><trkpt lat="45.39031" lon="10.620945"><ele>92.0</ele><time>2026-04-11T08:28:09.453Z</time></trkpt><trkpt lat="45.3902333" lon="10.6209483"><ele>92.0</ele><time>2026-04-11T08:28:10.45Z</time></trkpt><trkpt lat="45.3901317" lon="10.6209833"><ele>92.0</ele><time>2026-04-11T08:28:11.458Z</time></trkpt><trkpt lat="45.3900267" lon="10.62104"><ele>92.0</ele><time>2026-04-11T08:28:12.448Z</time></trkpt><trkpt lat="45.3899033" lon="10.621055"><ele>92.0</ele><time>2026-04-11T08:28:13.462Z</time></trkpt><trkpt lat="45.3897683" lon="10.621055"><ele>91.5</ele><time>2026-04-11T08:28:14.453Z</time></trkpt><trkpt lat="45.389665" lon="10.6210567"><ele>91.0</ele><time>2026-04-11T08:28:15.469Z</time></trkpt><trkpt lat="45.3895233" lon="10.621055"><ele>90.5</ele><time>2026-04-11T08:28:16.444Z</time></trkpt><trkpt lat="45.389375" lon="10.62104"><ele>90.0</ele><time>2026-04-11T08:28:17.441Z</time></trkpt><trkpt lat="45.3892233" lon="10.6210467"><ele>90.0</ele><time>2026-04-11T08:28:18.447Z</time></trkpt><trkpt lat="45.3890983" lon="10.6210283"><ele>90.0</ele><time>2026-04-11T08:28:19.454Z</time></trkpt><trkpt lat="45.3889933" lon="10.6210367"><ele>90.0</ele><time>2026-04-11T08:28:20.448Z</time></trkpt><trkpt lat="45.3888417" lon="10.621005"><ele>90.0</ele><time>2026-04-11T08:28:21.45Z</time></trkpt><trkpt lat="45.3887417" lon="10.621015"><ele>89.66666666666667</ele><time>2026-04-11T08:28:22.45Z</time></trkpt><trkpt lat="45.3886667" lon="10.6210033"><ele>89.33333333333333</ele><time>2026-04-11T08:28:23.442Z</time></trkpt><trkpt lat="45.3885867" lon="10.6210117"><ele>89.0</ele><time>2026-04-11T08:28:24.448Z</time></trkpt><trkpt lat="45.3884717" lon="10.6210033"><ele>88.66666666666666</ele><time>2026-04-11T08:28:26.455Z</time></trkpt><trkpt lat="45.38843" lon="10.62093"><ele>88.33333333333333</ele><time>2026-04-11T08:28:29.44Z</time></trkpt><trkpt lat="45.3884783" lon="10.6208683"><ele>88.0</ele><time>2026-04-11T08:28:31.443Z</time></trkpt><trkpt lat="45.388565" lon="10.620765"><ele>88.0</ele><time>2026-04-11T08:28:33.453Z</time></trkpt><trkpt lat="45.388625" lon="10.6207"><ele>88.0</ele><time>2026-04-11T08:28:34.447Z</time></trkpt><trkpt lat="45.38869" lon="10.62062"><ele>88.0</ele><time>2026-04-11T08:28:35.447Z</time></trkpt><trkpt lat="45.3887617" lon="10.6205267"><ele>88.0</ele><time>2026-04-11T08:28:36.444Z</time></trkpt><trkpt lat="45.38885" lon="10.62042"><ele>88.0</ele><time>2026-04-11T08:28:37.448Z</time></trkpt><trkpt lat="45.3889367" lon="10.6203233"><ele>88.33333333333333</ele><time>2026-04-11T08:28:38.457Z</time></trkpt><trkpt lat="45.38901" lon="10.6202667"><ele>88.66666666666666</ele><time>2026-04-11T08:28:39.443Z</time></trkpt><trkpt lat="45.389075" lon="10.6202183"><ele>89.0</ele><time>2026-04-11T08:28:40.447Z</time></trkpt><trkpt lat="45.3891283" lon="10.6201433"><ele>89.33333333333333</ele><time>2026-04-11T08:28:41.446Z</time></trkpt><trkpt lat="45.3891617" lon="10.6199833"><ele>89.66666666666667</ele><time>2026-04-11T08:28:43.443Z</time></trkpt><trkpt lat="45.389135" lon="10.6198517"><ele>90.0</ele><time>2026-04-11T08:28:45.452Z</time></trkpt><trkpt lat="45.3890483" lon="10.6197383"><ele>90.0</ele><time>2026-04-11T08:28:47.45Z</time></trkpt><trkpt lat="45.388985" lon="10.619685"><ele>90.0</ele><time>2026-04-11T08:28:48.448Z</time></trkpt><trkpt lat="45.388925" lon="10.6196283"><ele>90.0</ele><time>2026-04-11T08:28:49.446Z</time></trkpt><trkpt lat="45.3888383" lon="10.6195133"><ele>90.0</ele><time>2026-04-11T08:28:51.453Z</time></trkpt><trkpt lat="45.38883" lon="10.6194117"><ele>90.0</ele><time>2026-04-11T08:28:53.45Z</time></trkpt><trkpt lat="45.3889333" lon="10.6193033"><ele>89.8</ele><time>2026-04-11T08:28:55.444Z</time></trkpt><trkpt lat="45.3889967" lon="10.6192117"><ele>89.6</ele><time>2026-04-11T08:28:56.451Z</time></trkpt><trkpt lat="45.3890567" lon="10.61909"><ele>89.4</ele><time>2026-04-11T08:28:57.448Z</time></trkpt><trkpt lat="45.3891133" lon="10.6189383"><ele>89.2</ele><time>2026-04-11T08:28:58.456Z</time></trkpt><trkpt lat="45.3891717" lon="10.6187767"><ele>89.0</ele><time>2026-04-11T08:28:59.46Z</time></trkpt><trkpt lat="45.3892283" lon="10.6185917"><ele>89.0</ele><time>2026-04-11T08:29:00.448Z</time></trkpt><trkpt lat="45.38929" lon="10.6183933"><ele>89.0</ele><time>2026-04-11T08:29:01.442Z</time></trkpt><trkpt lat="45.3893383" lon="10.6182233"><ele>89.0</ele><time>2026-04-11T08:29:02.456Z</time></trkpt><trkpt lat="45.3893967" lon="10.6180333"><ele>89.0</ele><time>2026-04-11T08:29:03.453Z</time></trkpt><trkpt lat="45.3894483" lon="10.617885"><ele>89.33333333333334</ele><time>2026-04-11T08:29:04.45Z</time></trkpt><trkpt lat="45.3894883" lon="10.6177817"><ele>89.66666666666667</ele><time>2026-04-11T08:29:05.455Z</time></trkpt><trkpt lat="45.3895417" lon="10.617665"><ele>90.0</ele><time>2026-04-11T08:29:06.454Z</time></trkpt><trkpt lat="45.3896033" lon="10.6175683"><ele>90.33333333333333</ele><time>2026-04-11T08:29:07.447Z</time></trkpt><trkpt lat="45.389665" lon="10.61744"><ele>90.66666666666666</ele><time>2026-04-11T08:29:09.454Z</time></trkpt><trkpt lat="45.3896933" lon="10.6173533"><ele>91.0</ele><time>2026-04-11T08:29:12.445Z</time></trkpt><trkpt lat="45.389625" lon="10.6173217"><ele>91.0</ele><time>2026-04-11T08:29:14.442Z</time></trkpt><trkpt lat="45.389525" lon="10.61727"><ele>91.0</ele><time>2026-04-11T08:29:16.448Z</time></trkpt><trkpt lat="45.3894067" lon="10.6171917"><ele>91.0</ele><time>2026-04-11T08:29:18.445Z</time></trkpt><trkpt lat="45.3893417" lon="10.6171417"><ele>91.0</ele><time>2026-04-11T08:29:19.443Z</time></trkpt><trkpt lat="45.38927" lon="10.6170967"><ele>91.0</ele><time>2026-04-11T08:29:20.445Z</time></trkpt><trkpt lat="45.3891917" lon="10.61705"><ele>91.0</ele><time>2026-04-11T08:29:21.447Z</time></trkpt><trkpt lat="45.3891033" lon="10.616995"><ele>91.0</ele><time>2026-04-11T08:29:22.452Z</time></trkpt><trkpt lat="45.3890067" lon="10.6169233"><ele>91.0</ele><time>2026-04-11T08:29:23.449Z</time></trkpt><trkpt lat="45.3889133" lon="10.6168617"><ele>91.0</ele><time>2026-04-11T08:29:24.492Z</time></trkpt><trkpt lat="45.3888233" lon="10.6168333"><ele>91.0</ele><time>2026-04-11T08:29:25.452Z</time></trkpt><trkpt lat="45.3887433" lon="10.6168483"><ele>90.75</ele><time>2026-04-11T08:29:26.453Z</time></trkpt><trkpt lat="45.3886583" lon="10.616895"><ele>90.5</ele><time>2026-04-11T08:29:27.449Z</time></trkpt><trkpt lat="45.38858" lon="10.6169883"><ele>90.25</ele><time>2026-04-11T08:29:28.453Z</time></trkpt><trkpt lat="45.3884867" lon="10.6171133"><ele>90.0</ele><time>2026-04-11T08:29:29.446Z</time></trkpt><trkpt lat="45.3883833" lon="10.617235"><ele>89.75</ele><time>2026-04-11T08:29:30.446Z</time></trkpt><trkpt lat="45.3882817" lon="10.617345"><ele>89.5</ele><time>2026-04-11T08:29:31.441Z</time></trkpt><trkpt lat="45.3881783" lon="10.6174583"><ele>89.25</ele><time>2026-04-11T08:29:32.449Z</time></trkpt><trkpt lat="45.388085" lon="10.6175783"><ele>89.0</ele><time>2026-04-11T08:29:33.448Z</time></trkpt><trkpt lat="45.3879767" lon="10.6177183"><ele>89.25</ele><time>2026-04-11T08:29:34.449Z</time></trkpt><trkpt lat="45.3878917" lon="10.6178667"><ele>89.5</ele><time>2026-04-11T08:29:35.453Z</time></trkpt><trkpt lat="45.387805" lon="10.6180317"><ele>89.75</ele><time>2026-04-11T08:29:36.458Z</time></trkpt><trkpt lat="45.3877133" lon="10.6181833"><ele>90.0</ele><time>2026-04-11T08:29:37.439Z</time></trkpt><trkpt lat="45.387665" lon="10.6183267"><ele>90.0</ele><time>2026-04-11T08:29:38.443Z</time></trkpt><trkpt lat="45.3876183" lon="10.6184833"><ele>90.0</ele><time>2026-04-11T08:29:39.444Z</time></trkpt><trkpt lat="45.387555" lon="10.618655"><ele>90.0</ele><time>2026-04-11T08:29:40.446Z</time></trkpt><trkpt lat="45.3874983" lon="10.6188517"><ele>90.0</ele><time>2026-04-11T08:29:41.449Z</time></trkpt><trkpt lat="45.3874133" lon="10.61905"><ele>89.5</ele><time>2026-04-11T08:29:42.476Z</time></trkpt><trkpt lat="45.38735" lon="10.6192333"><ele>89.0</ele><time>2026-04-11T08:29:43.447Z</time></trkpt><trkpt lat="45.3872817" lon="10.6194117"><ele>88.5</ele><time>2026-04-11T08:29:44.449Z</time></trkpt><trkpt lat="45.387225" lon="10.6195733"><ele>88.0</ele><time>2026-04-11T08:29:45.444Z</time></trkpt><trkpt lat="45.38718" lon="10.6197133"><ele>88.0</ele><time>2026-04-11T08:29:46.441Z</time></trkpt><trkpt lat="45.387145" lon="10.6198217"><ele>88.0</ele><time>2026-04-11T08:29:47.449Z</time></trkpt><trkpt lat="45.3871033" lon="10.6199067"><ele>88.0</ele><time>2026-04-11T08:29:48.45Z</time></trkpt><trkpt lat="45.3870033" lon="10.6199467"><ele>88.0</ele><time>2026-04-11T08:29:50.459Z</time></trkpt><trkpt lat="45.3869233" lon="10.61989"><ele>88.0</ele><time>2026-04-11T08:29:51.448Z</time></trkpt><trkpt lat="45.386835" lon="10.619835"><ele>88.0</ele><time>2026-04-11T08:29:52.443Z</time></trkpt><trkpt lat="45.3867283" lon="10.6197617"><ele>88.0</ele><time>2026-04-11T08:29:53.439Z</time></trkpt><trkpt lat="45.3866167" lon="10.6196633"><ele>88.0</ele><time>2026-04-11T08:29:54.452Z</time></trkpt><trkpt lat="45.3864617" lon="10.6195917"><ele>88.0</ele><time>2026-04-11T08:29:55.447Z</time></trkpt><trkpt lat="45.386315" lon="10.619525"><ele>88.0</ele><time>2026-04-11T08:29:56.449Z</time></trkpt><trkpt lat="45.38617" lon="10.6194567"><ele>89.25</ele><time>2026-04-11T08:29:57.462Z</time></trkpt><trkpt lat="45.38603" lon="10.6194067"><ele>90.5</ele><time>2026-04-11T08:29:58.45Z</time></trkpt><trkpt lat="45.3859433" lon="10.6193817"><ele>91.75</ele><time>2026-04-11T08:29:59.443Z</time></trkpt><trkpt lat="45.3858467" lon="10.6193867"><ele>93.0</ele><time>2026-04-11T08:30:01.448Z</time></trkpt><trkpt lat="45.3857933" lon="10.6195467"><ele>93.0</ele><time>2026-04-11T08:30:03.444Z</time></trkpt><trkpt lat="45.385775" lon="10.6196617"><ele>93.0</ele><time>2026-04-11T08:30:04.451Z</time></trkpt><trkpt lat="45.3857417" lon="10.6198017"><ele>93.0</ele><time>2026-04-11T08:30:05.453Z</time></trkpt><trkpt lat="45.3857217" lon="10.6199283"><ele>93.0</ele><time>2026-04-11T08:30:06.457Z</time></trkpt><trkpt lat="45.38567" lon="10.6200417"><ele>93.0</ele><time>2026-04-11T08:30:08.456Z</time></trkpt><trkpt lat="45.3855867" lon="10.6200167"><ele>93.0</ele><time>2026-04-11T08:30:10.447Z</time></trkpt><trkpt lat="45.3855233" lon="10.6199717"><ele>93.0</ele><time>2026-04-11T08:30:11.443Z</time></trkpt><trkpt lat="45.3854567" lon="10.6198983"><ele>93.0</ele><time>2026-04-11T08:30:12.446Z</time></trkpt><trkpt lat="45.385385" lon="10.619825"><ele>93.0</ele><time>2026-04-11T08:30:13.456Z</time></trkpt><trkpt lat="45.385305" lon="10.61977"><ele>93.0</ele><time>2026-04-11T08:30:14.449Z</time></trkpt><trkpt lat="45.3852267" lon="10.61972"><ele>93.0</ele><time>2026-04-11T08:30:15.446Z</time></trkpt><trkpt lat="45.3851517" lon="10.6196817"><ele>94.16666666666667</ele><time>2026-04-11T08:30:16.449Z</time></trkpt><trkpt lat="45.3850783" lon="10.6196483"><ele>95.33333333333334</ele><time>2026-04-11T08:30:17.446Z</time></trkpt><trkpt lat="45.38499" lon="10.6196517"><ele>96.5</ele><time>2026-04-11T08:30:19.452Z</time></trkpt><trkpt lat="45.384945" lon="10.6197583"><ele>97.66666666666667</ele><time>2026-04-11T08:30:21.452Z</time></trkpt><trkpt lat="45.3849217" lon="10.6198583"><ele>98.83333333333334</ele><time>2026-04-11T08:30:22.458Z</time></trkpt><trkpt lat="45.3848883" lon="10.6199733"><ele>100.0</ele><time>2026-04-11T08:30:23.441Z</time></trkpt><trkpt lat="45.3848517" lon="10.6200983"><ele>100.0</ele><time>2026-04-11T08:30:24.451Z</time></trkpt><trkpt lat="45.3848067" lon="10.62024"><ele>100.0</ele><time>2026-04-11T08:30:25.446Z</time></trkpt><trkpt lat="45.384755" lon="10.6203983"><ele>100.0</ele><time>2026-04-11T08:30:26.451Z</time></trkpt><trkpt lat="45.3847033" lon="10.6205483"><ele>100.0</ele><time>2026-04-11T08:30:27.447Z</time></trkpt><trkpt lat="45.38466" lon="10.6206967"><ele>100.4</ele><time>2026-04-11T08:30:28.442Z</time></trkpt><trkpt lat="45.3846183" lon="10.6208683"><ele>100.8</ele><time>2026-04-11T08:30:29.45Z</time></trkpt><trkpt lat="45.38458" lon="10.6210217"><ele>101.19999999999999</ele><time>2026-04-11T08:30:30.456Z</time></trkpt><trkpt lat="45.38454" lon="10.6211617"><ele>101.6</ele><time>2026-04-11T08:30:31.445Z</time></trkpt><trkpt lat="45.3844933" lon="10.6212883"><ele>102.0</ele><time>2026-04-11T08:30:32.443Z</time></trkpt><trkpt lat="45.384455" lon="10.6214033"><ele>102.0</ele><time>2026-04-11T08:30:33.462Z</time></trkpt><trkpt lat="45.3844217" lon="10.6215167"><ele>102.0</ele><time>2026-04-11T08:30:34.465Z</time></trkpt><trkpt lat="45.3844033" lon="10.6216133"><ele>102.0</ele><time>2026-04-11T08:30:35.465Z</time></trkpt><trkpt lat="45.38439" lon="10.62171"><ele>102.0</ele><time>2026-04-11T08:30:36.463Z</time></trkpt><trkpt lat="45.3843683" lon="10.6218683"><ele>102.0</ele><time>2026-04-11T08:30:38.455Z</time></trkpt><trkpt lat="45.384365" lon="10.6219683"><ele>102.0</ele><time>2026-04-11T08:30:40.454Z</time></trkpt><trkpt lat="45.3843367" lon="10.6220517"><ele>102.39999999999999</ele><time>2026-04-11T08:32:16.456Z</time></trkpt><trkpt lat="45.3842733" lon="10.6221283"><ele>102.8</ele><time>2026-04-11T08:32:19.447Z</time></trkpt><trkpt lat="45.38426" lon="10.6222867"><ele>103.2</ele><time>2026-04-11T08:32:21.442Z</time></trkpt><trkpt lat="45.38423" lon="10.622375"><ele>103.6</ele><time>2026-04-11T08:32:22.45Z</time></trkpt><trkpt lat="45.38419" lon="10.62248"><ele>104.0</ele><time>2026-04-11T08:32:23.443Z</time></trkpt><trkpt lat="45.3841433" lon="10.62261"><ele>104.0</ele><time>2026-04-11T08:32:24.463Z</time></trkpt><trkpt lat="45.3840883" lon="10.6227383"><ele>104.0</ele><time>2026-04-11T08:32:25.454Z</time></trkpt><trkpt lat="45.38402" lon="10.6228683"><ele>104.0</ele><time>2026-04-11T08:32:26.439Z</time></trkpt><trkpt lat="45.3839483" lon="10.623005"><ele>104.0</ele><time>2026-04-11T08:32:27.448Z</time></trkpt><trkpt lat="45.3838883" lon="10.6231117"><ele>104.0</ele><time>2026-04-11T08:32:28.459Z</time></trkpt><trkpt lat="45.383825" lon="10.62321"><ele>103.49999999999999</ele><time>2026-04-11T08:32:29.445Z</time></trkpt><trkpt lat="45.3837917" lon="10.6232883"><ele>103.0</ele><time>2026-04-11T08:32:30.444Z</time></trkpt><trkpt lat="45.3837567" lon="10.6233667"><ele>102.5</ele><time>2026-04-11T08:32:31.46Z</time></trkpt><trkpt lat="45.3836767" lon="10.6234217"><ele>102.0</ele><time>2026-04-11T08:32:33.444Z</time></trkpt><trkpt lat="45.3835583" lon="10.62341"><ele>101.49999999999999</ele><time>2026-04-11T08:32:35.459Z</time></trkpt><trkpt lat="45.38349" lon="10.62342"><ele>101.0</ele><time>2026-04-11T08:32:36.44Z</time></trkpt><trkpt lat="45.38339" lon="10.6234967"><ele>100.99999999999999</ele><time>2026-04-11T08:32:38.444Z</time></trkpt><trkpt lat="45.383355" lon="10.623585"><ele>101.0</ele><time>2026-04-11T08:32:39.445Z</time></trkpt><trkpt lat="45.3833267" lon="10.62367"><ele>101.0</ele><time>2026-04-11T08:32:40.453Z</time></trkpt><trkpt lat="45.3832533" lon="10.62376"><ele>101.0</ele><time>2026-04-11T08:32:42.447Z</time></trkpt><trkpt lat="45.3831517" lon="10.6237233"><ele>100.99999999999999</ele><time>2026-04-11T08:32:44.447Z</time></trkpt><trkpt lat="45.3830917" lon="10.6236733"><ele>101.0</ele><time>2026-04-11T08:32:45.445Z</time></trkpt><trkpt lat="45.3830217" lon="10.6236233"><ele>100.83333333333333</ele><time>2026-04-11T08:32:46.446Z</time></trkpt><trkpt lat="45.3829483" lon="10.6235617"><ele>100.66666666666666</ele><time>2026-04-11T08:32:47.45Z</time></trkpt><trkpt lat="45.3828867" lon="10.6235033"><ele>100.5</ele><time>2026-04-11T08:32:48.454Z</time></trkpt><trkpt lat="45.3828283" lon="10.6234467"><ele>100.33333333333334</ele><time>2026-04-11T08:32:49.441Z</time></trkpt><trkpt lat="45.3827717" lon="10.623405"><ele>100.16666666666667</ele><time>2026-04-11T08:32:50.446Z</time></trkpt><trkpt lat="45.38266" lon="10.623325"><ele>100.0</ele><time>2026-04-11T08:32:52.446Z</time></trkpt><trkpt lat="45.3825933" lon="10.6232867"><ele>100.0</ele><time>2026-04-11T08:32:53.454Z</time></trkpt><trkpt lat="45.3825083" lon="10.6232717"><ele>100.0</ele><time>2026-04-11T08:32:54.45Z</time></trkpt><trkpt lat="45.3824067" lon="10.6232617"><ele>100.0</ele><time>2026-04-11T08:32:55.448Z</time></trkpt><trkpt lat="45.3822967" lon="10.623235"><ele>100.0</ele><time>2026-04-11T08:32:56.447Z</time></trkpt><trkpt lat="45.3822167" lon="10.6232283"><ele>100.0</ele><time>2026-04-11T08:32:57.457Z</time></trkpt><trkpt lat="45.3821433" lon="10.623225"><ele>100.00000000000001</ele><time>2026-04-11T08:32:58.451Z</time></trkpt><trkpt lat="45.3820617" lon="10.6232217"><ele>100.0</ele><time>2026-04-11T08:32:59.452Z</time></trkpt><trkpt lat="45.38197" lon="10.6232233"><ele>100.0</ele><time>2026-04-11T08:33:00.449Z</time></trkpt><trkpt lat="45.381885" lon="10.623225"><ele>100.0</ele><time>2026-04-11T08:33:01.451Z</time></trkpt><trkpt lat="45.3818083" lon="10.623225"><ele>100.00000000000001</ele><time>2026-04-11T08:33:02.447Z</time></trkpt><trkpt lat="45.3817" lon="10.6232483"><ele>100.0</ele><time>2026-04-11T08:33:04.443Z</time></trkpt><trkpt lat="45.3816683" lon="10.6233517"><ele>100.0</ele><time>2026-04-11T08:33:06.467Z</time></trkpt><trkpt lat="45.3816833" lon="10.6235117"><ele>100.0</ele><time>2026-04-11T08:33:08.443Z</time></trkpt><trkpt lat="45.381685" lon="10.6236167"><ele>100.0</ele><time>2026-04-11T08:33:09.447Z</time></trkpt><trkpt lat="45.3816883" lon="10.6237483"><ele>100.0</ele><time>2026-04-11T08:33:10.449Z</time></trkpt><trkpt lat="45.381675" lon="10.62393"><ele>100.0</ele><time>2026-04-11T08:33:11.444Z</time></trkpt><trkpt lat="45.38164" lon="10.624115"><ele>100.25</ele><time>2026-04-11T08:33:12.445Z</time></trkpt><trkpt lat="45.3816267" lon="10.6243267"><ele>100.5</ele><time>2026-04-11T08:33:13.465Z</time></trkpt><trkpt lat="45.3816133" lon="10.6245167"><ele>100.75</ele><time>2026-04-11T08:33:14.438Z</time></trkpt><trkpt lat="45.3816133" lon="10.6247267"><ele>101.0</ele><time>2026-04-11T08:33:15.45Z</time></trkpt><trkpt lat="45.38162" lon="10.6249267"><ele>100.75</ele><time>2026-04-11T08:33:16.446Z</time></trkpt><trkpt lat="45.3816033" lon="10.6251133"><ele>100.5</ele><time>2026-04-11T08:33:17.441Z</time></trkpt><trkpt lat="45.3815833" lon="10.6252767"><ele>100.25</ele><time>2026-04-11T08:33:18.456Z</time></trkpt><trkpt lat="45.3815683" lon="10.62547"><ele>100.0</ele><time>2026-04-11T08:33:19.453Z</time></trkpt><trkpt lat="45.38155" lon="10.62567"><ele>100.0</ele><time>2026-04-11T08:33:20.448Z</time></trkpt><trkpt lat="45.3815367" lon="10.6258367"><ele>100.0</ele><time>2026-04-11T08:33:21.445Z</time></trkpt><trkpt lat="45.3815033" lon="10.6259867"><ele>100.0</ele><time>2026-04-11T08:33:22.446Z</time></trkpt><trkpt lat="45.381475" lon="10.6261117"><ele>100.0</ele><time>2026-04-11T08:33:23.439Z</time></trkpt><trkpt lat="45.381455" lon="10.62624"><ele>100.0</ele><time>2026-04-11T08:33:24.441Z</time></trkpt><trkpt lat="45.3814367" lon="10.6263633"><ele>100.16666666666667</ele><time>2026-04-11T08:33:25.449Z</time></trkpt><trkpt lat="45.3814167" lon="10.62647"><ele>100.33333333333334</ele><time>2026-04-11T08:33:26.445Z</time></trkpt><trkpt lat="45.3813983" lon="10.62657"><ele>100.5</ele><time>2026-04-11T08:33:27.449Z</time></trkpt><trkpt lat="45.3813817" lon="10.6266733"><ele>100.66666666666666</ele><time>2026-04-11T08:33:28.444Z</time></trkpt><trkpt lat="45.3813717" lon="10.6267817"><ele>100.83333333333333</ele><time>2026-04-11T08:33:29.451Z</time></trkpt><trkpt lat="45.3813617" lon="10.6269067"><ele>101.0</ele><time>2026-04-11T08:33:30.443Z</time></trkpt><trkpt lat="45.3813583" lon="10.62705"><ele>102.19999999999999</ele><time>2026-04-11T08:33:31.444Z</time></trkpt><trkpt lat="45.3813467" lon="10.62719"><ele>103.39999999999999</ele><time>2026-04-11T08:33:32.452Z</time></trkpt><trkpt lat="45.3812967" lon="10.6273567"><ele>104.6</ele><time>2026-04-11T08:33:33.452Z</time></trkpt><trkpt lat="45.3812717" lon="10.6275183"><ele>105.8</ele><time>2026-04-11T08:33:34.47Z</time></trkpt><trkpt lat="45.381265" lon="10.6276467"><ele>107.0</ele><time>2026-04-11T08:33:35.443Z</time></trkpt><trkpt lat="45.3812467" lon="10.6277767"><ele>105.6</ele><time>2026-04-11T08:33:36.445Z</time></trkpt><trkpt lat="45.3811933" lon="10.6279017"><ele>104.19999999999999</ele><time>2026-04-11T08:33:38.445Z</time></trkpt><trkpt lat="45.381135" lon="10.6279383"><ele>102.8</ele><time>2026-04-11T08:33:39.446Z</time></trkpt><trkpt lat="45.3810467" lon="10.6279483"><ele>101.4</ele><time>2026-04-11T08:33:40.44Z</time></trkpt><trkpt lat="45.3809417" lon="10.627975"><ele>100.0</ele><time>2026-04-11T08:33:41.445Z</time></trkpt><trkpt lat="45.3808317" lon="10.6279867"><ele>100.0</ele><time>2026-04-11T08:33:42.449Z</time></trkpt><trkpt lat="45.3806917" lon="10.628035"><ele>100.0</ele><time>2026-04-11T08:33:43.448Z</time></trkpt><trkpt lat="45.3805533" lon="10.6280817"><ele>100.0</ele><time>2026-04-11T08:33:44.459Z</time></trkpt><trkpt lat="45.3804183" lon="10.6281683"><ele>100.0</ele><time>2026-04-11T08:33:45.45Z</time></trkpt><trkpt lat="45.3803133" lon="10.6282583"><ele>99.83333333333334</ele><time>2026-04-11T08:33:46.454Z</time></trkpt><trkpt lat="45.38024" lon="10.6283467"><ele>99.66666666666667</ele><time>2026-04-11T08:33:47.448Z</time></trkpt><trkpt lat="45.3801733" lon="10.628425"><ele>99.5</ele><time>2026-04-11T08:33:48.445Z</time></trkpt><trkpt lat="45.380105" lon="10.628475"><ele>99.33333333333334</ele><time>2026-04-11T08:33:49.439Z</time></trkpt><trkpt lat="45.3800417" lon="10.628535"><ele>99.16666666666667</ele><time>2026-04-11T08:33:50.452Z</time></trkpt><trkpt lat="45.3800167" lon="10.6286367"><ele>99.0</ele><time>2026-04-11T08:33:52.452Z</time></trkpt><trkpt lat="45.380105" lon="10.6287183"><ele>99.0</ele><time>2026-04-11T08:33:54.449Z</time></trkpt><trkpt lat="45.380185" lon="10.62876"><ele>99.0</ele><time>2026-04-11T08:33:55.439Z</time></trkpt><trkpt lat="45.3802683" lon="10.6288217"><ele>99.0</ele><time>2026-04-11T08:33:56.449Z</time></trkpt><trkpt lat="45.38038" lon="10.628915"><ele>99.0</ele><time>2026-04-11T08:33:57.444Z</time></trkpt><trkpt lat="45.3805167" lon="10.6290467"><ele>98.66666666666666</ele><time>2026-04-11T08:33:58.454Z</time></trkpt><trkpt lat="45.380675" lon="10.62916"><ele>98.33333333333333</ele><time>2026-04-11T08:33:59.438Z</time></trkpt><trkpt lat="45.3808183" lon="10.6292967"><ele>98.0</ele><time>2026-04-11T08:34:00.441Z</time></trkpt><trkpt lat="45.3809617" lon="10.6294033"><ele>97.66666666666666</ele><time>2026-04-11T08:34:01.444Z</time></trkpt><trkpt lat="45.3810967" lon="10.62953"><ele>97.33333333333334</ele><time>2026-04-11T08:34:02.442Z</time></trkpt><trkpt lat="45.381245" lon="10.6296683"><ele>97.0</ele><time>2026-04-11T08:34:03.445Z</time></trkpt><trkpt lat="45.3813967" lon="10.6298067"><ele>98.33333333333334</ele><time>2026-04-11T08:34:04.452Z</time></trkpt><trkpt lat="45.3815633" lon="10.629955"><ele>99.66666666666666</ele><time>2026-04-11T08:34:05.445Z</time></trkpt><trkpt lat="45.3817417" lon="10.6300783"><ele>101.0</ele><time>2026-04-11T08:34:06.441Z</time></trkpt><trkpt lat="45.3818983" lon="10.63024"><ele>100.66666666666666</ele><time>2026-04-11T08:34:07.467Z</time></trkpt><trkpt lat="45.3820433" lon="10.6303517"><ele>100.33333333333334</ele><time>2026-04-11T08:34:08.437Z</time></trkpt><trkpt lat="45.382175" lon="10.6304933"><ele>100.0</ele><time>2026-04-11T08:34:09.449Z</time></trkpt><trkpt lat="45.3822783" lon="10.6306183"><ele>101.2</ele><time>2026-04-11T08:34:10.45Z</time></trkpt><trkpt lat="45.382365" lon="10.6307167"><ele>102.4</ele><time>2026-04-11T08:34:11.45Z</time></trkpt><trkpt lat="45.38246" lon="10.6307883"><ele>103.6</ele><time>2026-04-11T08:34:12.451Z</time></trkpt><trkpt lat="45.3825567" lon="10.6308183"><ele>104.8</ele><time>2026-04-11T08:34:13.446Z</time></trkpt><trkpt lat="45.3825817" lon="10.6309317"><ele>106.0</ele><time>2026-04-11T08:34:14.454Z</time></trkpt><trkpt lat="45.382595" lon="10.6310283"><ele>106.0</ele><time>2026-04-11T08:34:15.438Z</time></trkpt><trkpt lat="45.3825917" lon="10.6311283"><ele>106.0</ele><time>2026-04-11T08:34:16.445Z</time></trkpt><trkpt lat="45.382545" lon="10.6312633"><ele>106.0</ele><time>2026-04-11T08:34:17.442Z</time></trkpt><trkpt lat="45.3824933" lon="10.6314283"><ele>106.0</ele><time>2026-04-11T08:34:18.459Z</time></trkpt><trkpt lat="45.38242" lon="10.6316117"><ele>105.33333333333334</ele><time>2026-04-11T08:34:19.438Z</time></trkpt><trkpt lat="45.382345" lon="10.631805"><ele>104.66666666666666</ele><time>2026-04-11T08:34:20.45Z</time></trkpt><trkpt lat="45.3822733" lon="10.6319917"><ele>104.0</ele><time>2026-04-11T08:34:21.44Z</time></trkpt><trkpt lat="45.38219" lon="10.63219"><ele>102.75</ele><time>2026-04-11T08:34:22.446Z</time></trkpt><trkpt lat="45.3821" lon="10.6323917"><ele>101.5</ele><time>2026-04-11T08:34:23.45Z</time></trkpt><trkpt lat="45.3820317" lon="10.6325517"><ele>100.25</ele><time>2026-04-11T08:34:24.457Z</time></trkpt><trkpt lat="45.3819683" lon="10.6327317"><ele>99.0</ele><time>2026-04-11T08:34:25.447Z</time></trkpt><trkpt lat="45.3819083" lon="10.6329"><ele>99.0</ele><time>2026-04-11T08:34:26.448Z</time></trkpt><trkpt lat="45.381835" lon="10.6330533"><ele>99.0</ele><time>2026-04-11T08:34:27.449Z</time></trkpt><trkpt lat="45.3817767" lon="10.633215"><ele>99.0</ele><time>2026-04-11T08:34:28.45Z</time></trkpt><trkpt lat="45.3817233" lon="10.6333917"><ele>99.0</ele><time>2026-04-11T08:34:29.451Z</time></trkpt><trkpt lat="45.3816667" lon="10.633545"><ele>100.0</ele><time>2026-04-11T08:34:30.453Z</time></trkpt><trkpt lat="45.3816083" lon="10.633705"><ele>101.0</ele><time>2026-04-11T08:34:31.452Z</time></trkpt><trkpt lat="45.3815467" lon="10.6338783"><ele>102.0</ele><time>2026-04-11T08:34:32.453Z</time></trkpt><trkpt lat="45.381485" lon="10.63404"><ele>103.0</ele><time>2026-04-11T08:34:33.46Z</time></trkpt><trkpt lat="45.381415" lon="10.6342167"><ele>103.0</ele><time>2026-04-11T08:34:34.445Z</time></trkpt><trkpt lat="45.3813617" lon="10.6343517"><ele>103.0</ele><time>2026-04-11T08:34:35.453Z</time></trkpt><trkpt lat="45.38129" lon="10.6345217"><ele>103.0</ele><time>2026-04-11T08:34:36.445Z</time></trkpt><trkpt lat="45.38122" lon="10.6346433"><ele>103.0</ele><time>2026-04-11T08:34:37.453Z</time></trkpt><trkpt lat="45.381145" lon="10.6347667"><ele>102.25</ele><time>2026-04-11T08:34:38.445Z</time></trkpt><trkpt lat="45.381065" lon="10.6348667"><ele>101.5</ele><time>2026-04-11T08:34:39.451Z</time></trkpt><trkpt lat="45.38098" lon="10.6349867"><ele>100.75</ele><time>2026-04-11T08:34:40.441Z</time></trkpt><trkpt lat="45.38088" lon="10.6351133"><ele>100.0</ele><time>2026-04-11T08:34:41.453Z</time></trkpt><trkpt lat="45.380785" lon="10.6352683"><ele>101.25</ele><time>2026-04-11T08:34:42.46Z</time></trkpt><trkpt lat="45.380705" lon="10.635415"><ele>102.5</ele><time>2026-04-11T08:34:43.445Z</time></trkpt><trkpt lat="45.3806333" lon="10.63554"><ele>103.75</ele><time>2026-04-11T08:34:44.447Z</time></trkpt><trkpt lat="45.3805883" lon="10.6356667"><ele>105.0</ele><time>2026-04-11T08:34:45.448Z</time></trkpt><trkpt lat="45.3805333" lon="10.6358133"><ele>104.6</ele><time>2026-04-11T08:34:46.457Z</time></trkpt><trkpt lat="45.380505" lon="10.6359583"><ele>104.2</ele><time>2026-04-11T08:34:47.462Z</time></trkpt><trkpt lat="45.380465" lon="10.636125"><ele>103.80000000000001</ele><time>2026-04-11T08:34:48.448Z</time></trkpt><trkpt lat="45.380475" lon="10.63626"><ele>103.4</ele><time>2026-04-11T08:34:49.447Z</time></trkpt><trkpt lat="45.3804767" lon="10.6364033"><ele>103.0</ele><time>2026-04-11T08:34:50.458Z</time></trkpt><trkpt lat="45.3804883" lon="10.6365733"><ele>103.0</ele><time>2026-04-11T08:34:51.44Z</time></trkpt><trkpt lat="45.3805083" lon="10.636735"><ele>103.0</ele><time>2026-04-11T08:34:52.449Z</time></trkpt><trkpt lat="45.3805517" lon="10.6368817"><ele>103.0</ele><time>2026-04-11T08:34:53.446Z</time></trkpt><trkpt lat="45.3805833" lon="10.6370317"><ele>103.0</ele><time>2026-04-11T08:34:54.445Z</time></trkpt><trkpt lat="45.380605" lon="10.6371717"><ele>103.0</ele><time>2026-04-11T08:34:55.447Z</time></trkpt><trkpt lat="45.3806383" lon="10.63731"><ele>103.0</ele><time>2026-04-11T08:34:56.447Z</time></trkpt><trkpt lat="45.3806717" lon="10.6374367"><ele>103.0</ele><time>2026-04-11T08:34:57.449Z</time></trkpt><trkpt lat="45.3806783" lon="10.6375933"><ele>103.0</ele><time>2026-04-11T08:34:59.453Z</time></trkpt><trkpt lat="45.3807583" lon="10.6376517"><ele>103.0</ele><time>2026-04-11T08:35:26.45Z</time></trkpt><trkpt lat="45.3808383" lon="10.6376983"><ele>103.0</ele><time>2026-04-11T08:35:27.452Z</time></trkpt><trkpt lat="45.3809317" lon="10.637765"><ele>103.25</ele><time>2026-04-11T08:35:28.454Z</time></trkpt><trkpt lat="45.381045" lon="10.6378683"><ele>103.5</ele><time>2026-04-11T08:35:29.442Z</time></trkpt><trkpt lat="45.3811683" lon="10.6379983"><ele>103.75</ele><time>2026-04-11T08:35:30.457Z</time></trkpt><trkpt lat="45.381275" lon="10.63812"><ele>104.0</ele><time>2026-04-11T08:35:31.449Z</time></trkpt><trkpt lat="45.3813917" lon="10.6382517"><ele>104.0</ele><time>2026-04-11T08:35:32.444Z</time></trkpt><trkpt lat="45.3815033" lon="10.6384167"><ele>104.0</ele><time>2026-04-11T08:35:33.458Z</time></trkpt><trkpt lat="45.3816333" lon="10.6385967"><ele>104.0</ele><time>2026-04-11T08:35:34.45Z</time></trkpt><trkpt lat="45.3817617" lon="10.6387833"><ele>103.33333333333333</ele><time>2026-04-11T08:35:35.445Z</time></trkpt><trkpt lat="45.3818667" lon="10.6390033"><ele>102.66666666666666</ele><time>2026-04-11T08:35:36.442Z</time></trkpt><trkpt lat="45.3819867" lon="10.639195"><ele>102.0</ele><time>2026-04-11T08:35:37.449Z</time></trkpt><trkpt lat="45.3821017" lon="10.639395"><ele>103.0</ele><time>2026-04-11T08:35:38.449Z</time></trkpt><trkpt lat="45.382225" lon="10.6395617"><ele>104.0</ele><time>2026-04-11T08:35:39.452Z</time></trkpt><trkpt lat="45.3823483" lon="10.6397367"><ele>105.0</ele><time>2026-04-11T08:35:40.447Z</time></trkpt><trkpt lat="45.3824717" lon="10.6399067"><ele>105.0</ele><time>2026-04-11T08:35:41.449Z</time></trkpt><trkpt lat="45.3825883" lon="10.6400617"><ele>105.0</ele><time>2026-04-11T08:35:42.452Z</time></trkpt><trkpt lat="45.3827317" lon="10.6401933"><ele>105.0</ele><time>2026-04-11T08:35:43.463Z</time></trkpt><trkpt lat="45.3828833" lon="10.640325"><ele>105.66666666666666</ele><time>2026-04-11T08:35:44.472Z</time></trkpt><trkpt lat="45.3830383" lon="10.640445"><ele>106.33333333333333</ele><time>2026-04-11T08:35:45.45Z</time></trkpt><trkpt lat="45.3831883" lon="10.64055"><ele>107.0</ele><time>2026-04-11T08:35:46.469Z</time></trkpt><trkpt lat="45.3833417" lon="10.6406467"><ele>107.0</ele><time>2026-04-11T08:35:47.497Z</time></trkpt><trkpt lat="45.38347" lon="10.6407467"><ele>107.0</ele><time>2026-04-11T08:35:48.457Z</time></trkpt><trkpt lat="45.3836033" lon="10.6408267"><ele>107.0</ele><time>2026-04-11T08:35:49.465Z</time></trkpt><trkpt lat="45.3837233" lon="10.6409233"><ele>107.0</ele><time>2026-04-11T08:35:50.449Z</time></trkpt><trkpt lat="45.3838417" lon="10.6410167"><ele>106.33333333333333</ele><time>2026-04-11T08:35:51.446Z</time></trkpt><trkpt lat="45.3839683" lon="10.6411117"><ele>105.66666666666666</ele><time>2026-04-11T08:35:52.447Z</time></trkpt><trkpt lat="45.3841367" lon="10.6411833"><ele>105.0</ele><time>2026-04-11T08:35:53.463Z</time></trkpt><trkpt lat="45.3842867" lon="10.64124"><ele>105.0</ele><time>2026-04-11T08:35:54.448Z</time></trkpt><trkpt lat="45.3843617" lon="10.6413367"><ele>105.0</ele><time>2026-04-11T08:35:55.444Z</time></trkpt><trkpt lat="45.384525" lon="10.641405"><ele>105.0</ele><time>2026-04-11T08:35:56.44Z</time></trkpt><trkpt lat="45.384665" lon="10.641445"><ele>105.0</ele><time>2026-04-11T08:35:57.436Z</time></trkpt><trkpt lat="45.3847917" lon="10.6415233"><ele>105.75</ele><time>2026-04-11T08:35:58.456Z</time></trkpt><trkpt lat="45.3849033" lon="10.6415967"><ele>106.5</ele><time>2026-04-11T08:35:59.447Z</time></trkpt><trkpt lat="45.3849983" lon="10.641665"><ele>107.25</ele><time>2026-04-11T08:36:00.449Z</time></trkpt><trkpt lat="45.3851067" lon="10.6417317"><ele>108.0</ele><time>2026-04-11T08:36:01.443Z</time></trkpt><trkpt lat="45.3852233" lon="10.64177"><ele>108.0</ele><time>2026-04-11T08:36:02.446Z</time></trkpt><trkpt lat="45.385345" lon="10.64182"><ele>108.0</ele><time>2026-04-11T08:36:03.44Z</time></trkpt><trkpt lat="45.3854383" lon="10.6418967"><ele>108.0</ele><time>2026-04-11T08:36:04.443Z</time></trkpt><trkpt lat="45.3855367" lon="10.6419783"><ele>108.0</ele><time>2026-04-11T08:36:05.441Z</time></trkpt><trkpt lat="45.385655" lon="10.6420267"><ele>107.4</ele><time>2026-04-11T08:36:06.459Z</time></trkpt><trkpt lat="45.3857467" lon="10.6420717"><ele>106.80000000000001</ele><time>2026-04-11T08:36:07.438Z</time></trkpt><trkpt lat="45.3858183" lon="10.64212"><ele>106.2</ele><time>2026-04-11T08:36:08.458Z</time></trkpt><trkpt lat="45.385915" lon="10.642165"><ele>105.6</ele><time>2026-04-11T08:36:09.444Z</time></trkpt><trkpt lat="45.386005" lon="10.6422283"><ele>105.0</ele><time>2026-04-11T08:36:10.455Z</time></trkpt><trkpt lat="45.3860933" lon="10.6422467"><ele>105.0</ele><time>2026-04-11T08:36:11.445Z</time></trkpt><trkpt lat="45.3861633" lon="10.6422783"><ele>105.0</ele><time>2026-04-11T08:36:12.445Z</time></trkpt><trkpt lat="45.3862317" lon="10.6423133"><ele>105.0</ele><time>2026-04-11T08:36:13.446Z</time></trkpt><trkpt lat="45.3863083" lon="10.6423517"><ele>105.0</ele><time>2026-04-11T08:36:14.444Z</time></trkpt><trkpt lat="45.386395" lon="10.6424"><ele>105.0</ele><time>2026-04-11T08:36:15.447Z</time></trkpt><trkpt lat="45.3864833" lon="10.6424517"><ele>105.0</ele><time>2026-04-11T08:36:16.441Z</time></trkpt><trkpt lat="45.3865917" lon="10.6425"><ele>105.2</ele><time>2026-04-11T08:36:17.439Z</time></trkpt><trkpt lat="45.3866883" lon="10.6425417"><ele>105.4</ele><time>2026-04-11T08:36:18.454Z</time></trkpt><trkpt lat="45.386795" lon="10.6425917"><ele>105.6</ele><time>2026-04-11T08:36:19.465Z</time></trkpt><trkpt lat="45.3869017" lon="10.64263"><ele>105.8</ele><time>2026-04-11T08:36:20.447Z</time></trkpt><trkpt lat="45.3869983" lon="10.6426933"><ele>106.0</ele><time>2026-04-11T08:36:21.455Z</time></trkpt><trkpt lat="45.3870833" lon="10.6427467"><ele>106.00000000000001</ele><time>2026-04-11T08:36:22.449Z</time></trkpt><trkpt lat="45.3871533" lon="10.6427783"><ele>106.0</ele><time>2026-04-11T08:36:23.444Z</time></trkpt><trkpt lat="45.3872267" lon="10.6428167"><ele>106.0</ele><time>2026-04-11T08:36:24.454Z</time></trkpt><trkpt lat="45.3872967" lon="10.6428733"><ele>106.0</ele><time>2026-04-11T08:36:25.459Z</time></trkpt><trkpt lat="45.387365" lon="10.64294"><ele>106.00000000000001</ele><time>2026-04-11T08:36:26.452Z</time></trkpt><trkpt lat="45.3874283" lon="10.6430083"><ele>106.0</ele><time>2026-04-11T08:36:27.44Z</time></trkpt><trkpt lat="45.3875383" lon="10.64309"><ele>105.4</ele><time>2026-04-11T08:36:29.447Z</time></trkpt><trkpt lat="45.387625" lon="10.64318"><ele>104.8</ele><time>2026-04-11T08:36:31.446Z</time></trkpt><trkpt lat="45.387645" lon="10.64332"><ele>104.2</ele><time>2026-04-11T08:36:33.442Z</time></trkpt><trkpt lat="45.3875817" lon="10.643495"><ele>103.60000000000001</ele><time>2026-04-11T08:36:35.443Z</time></trkpt><trkpt lat="45.3875483" lon="10.6435867"><ele>103.0</ele><time>2026-04-11T08:36:36.456Z</time></trkpt><trkpt lat="45.3875083" lon="10.64368"><ele>101.4</ele><time>2026-04-11T08:36:37.458Z</time></trkpt><trkpt lat="45.38747" lon="10.6437783"><ele>99.80000000000001</ele><time>2026-04-11T08:36:38.457Z</time></trkpt><trkpt lat="45.38743" lon="10.6438833"><ele>98.2</ele><time>2026-04-11T08:36:39.441Z</time></trkpt><trkpt lat="45.3873717" lon="10.6440067"><ele>96.6</ele><time>2026-04-11T08:36:40.446Z</time></trkpt><trkpt lat="45.38731" lon="10.64415"><ele>95.0</ele><time>2026-04-11T08:36:41.453Z</time></trkpt><trkpt lat="45.3871983" lon="10.6442917"><ele>94.75</ele><time>2026-04-11T08:36:42.438Z</time></trkpt><trkpt lat="45.3871367" lon="10.6444533"><ele>94.5</ele><time>2026-04-11T08:36:43.446Z</time></trkpt><trkpt lat="45.3870533" lon="10.6446033"><ele>94.25</ele><time>2026-04-11T08:36:44.443Z</time></trkpt><trkpt lat="45.3869683" lon="10.6447467"><ele>94.0</ele><time>2026-04-11T08:36:45.448Z</time></trkpt><trkpt lat="45.3868933" lon="10.644855"><ele>93.75</ele><time>2026-04-11T08:36:46.453Z</time></trkpt><trkpt lat="45.38679" lon="10.64497"><ele>93.5</ele><time>2026-04-11T08:36:47.462Z</time></trkpt><trkpt lat="45.3867067" lon="10.6450983"><ele>93.25</ele><time>2026-04-11T08:36:48.453Z</time></trkpt><trkpt lat="45.3866433" lon="10.6452833"><ele>93.0</ele><time>2026-04-11T08:36:49.445Z</time></trkpt><trkpt lat="45.386555" lon="10.6454267"><ele>93.5</ele><time>2026-04-11T08:36:50.441Z</time></trkpt><trkpt lat="45.3865033" lon="10.6455767"><ele>94.0</ele><time>2026-04-11T08:36:51.448Z</time></trkpt><trkpt lat="45.3864383" lon="10.645735"><ele>94.5</ele><time>2026-04-11T08:36:52.444Z</time></trkpt><trkpt lat="45.3863733" lon="10.6459017"><ele>95.0</ele><time>2026-04-11T08:36:53.45Z</time></trkpt><trkpt lat="45.386295" lon="10.646055"><ele>96.8</ele><time>2026-04-11T08:36:54.448Z</time></trkpt><trkpt lat="45.38625" lon="10.646175"><ele>98.6</ele><time>2026-04-11T08:36:55.459Z</time></trkpt><trkpt lat="45.3861567" lon="10.6462933"><ele>100.4</ele><time>2026-04-11T08:36:56.45Z</time></trkpt><trkpt lat="45.3860917" lon="10.6463917"><ele>102.2</ele><time>2026-04-11T08:36:57.444Z</time></trkpt><trkpt lat="45.38602" lon="10.6465183"><ele>104.0</ele><time>2026-04-11T08:36:58.441Z</time></trkpt><trkpt lat="45.3859733" lon="10.6466633"><ele>103.99999999999999</ele><time>2026-04-11T08:36:59.44Z</time></trkpt><trkpt lat="45.38596" lon="10.646785"><ele>104.0</ele><time>2026-04-11T08:37:00.461Z</time></trkpt><trkpt lat="45.3859483" lon="10.6468983"><ele>104.0</ele><time>2026-04-11T08:37:01.447Z</time></trkpt><trkpt lat="45.3859617" lon="10.64701"><ele>104.0</ele><time>2026-04-11T08:37:02.447Z</time></trkpt><trkpt lat="45.3860083" lon="10.6471"><ele>103.99999999999999</ele><time>2026-04-11T08:37:03.458Z</time></trkpt><trkpt lat="45.38606" lon="10.6471817"><ele>104.0</ele><time>2026-04-11T08:37:04.457Z</time></trkpt><trkpt lat="45.3861317" lon="10.647265"><ele>104.75</ele><time>2026-04-11T08:37:05.44Z</time></trkpt><trkpt lat="45.3862267" lon="10.6473367"><ele>105.5</ele><time>2026-04-11T08:37:06.466Z</time></trkpt><trkpt lat="45.3863667" lon="10.6473967"><ele>106.25</ele><time>2026-04-11T08:37:07.438Z</time></trkpt><trkpt lat="45.3864733" lon="10.6474417"><ele>107.0</ele><time>2026-04-11T08:37:08.445Z</time></trkpt><trkpt lat="45.3865867" lon="10.6475233"><ele>107.0</ele><time>2026-04-11T08:37:09.443Z</time></trkpt><trkpt lat="45.386705" lon="10.64761"><ele>106.99999999999999</ele><time>2026-04-11T08:37:10.453Z</time></trkpt><trkpt lat="45.38679" lon="10.6476933"><ele>106.99999999999999</ele><time>2026-04-11T08:37:11.443Z</time></trkpt><trkpt lat="45.3868683" lon="10.647765"><ele>107.0</ele><time>2026-04-11T08:37:12.459Z</time></trkpt><trkpt lat="45.3869567" lon="10.6478317"><ele>107.0</ele><time>2026-04-11T08:37:13.451Z</time></trkpt><trkpt lat="45.3870233" lon="10.64791"><ele>108.16666666666666</ele><time>2026-04-11T08:37:14.457Z</time></trkpt><trkpt lat="45.3870783" lon="10.648055"><ele>109.33333333333333</ele><time>2026-04-11T08:37:16.449Z</time></trkpt><trkpt lat="45.38709" lon="10.648145"><ele>110.5</ele><time>2026-04-11T08:37:17.454Z</time></trkpt><trkpt lat="45.387095" lon="10.6482467"><ele>111.66666666666666</ele><time>2026-04-11T08:37:18.442Z</time></trkpt><trkpt lat="45.3870817" lon="10.6483817"><ele>112.83333333333333</ele><time>2026-04-11T08:37:19.45Z</time></trkpt><trkpt lat="45.387065" lon="10.64852"><ele>114.0</ele><time>2026-04-11T08:37:20.451Z</time></trkpt><trkpt lat="45.3870533" lon="10.648665"><ele>114.5</ele><time>2026-04-11T08:37:21.454Z</time></trkpt><trkpt lat="45.3870483" lon="10.6487883"><ele>115.0</ele><time>2026-04-11T08:37:22.459Z</time></trkpt><trkpt lat="45.3870467" lon="10.648915"><ele>115.5</ele><time>2026-04-11T08:37:23.449Z</time></trkpt><trkpt lat="45.3870433" lon="10.6490333"><ele>116.0</ele><time>2026-04-11T08:37:24.444Z</time></trkpt><trkpt lat="45.3870567" lon="10.6491217"><ele>116.5</ele><time>2026-04-11T08:37:25.455Z</time></trkpt><trkpt lat="45.387005" lon="10.6492333"><ele>117.0</ele><time>2026-04-11T08:37:26.452Z</time></trkpt><trkpt lat="45.3869483" lon="10.6493833"><ele>115.5</ele><time>2026-04-11T08:37:27.438Z</time></trkpt><trkpt lat="45.3869117" lon="10.6494933"><ele>114.0</ele><time>2026-04-11T08:37:28.449Z</time></trkpt><trkpt lat="45.3868533" lon="10.649585"><ele>112.5</ele><time>2026-04-11T08:37:29.447Z</time></trkpt><trkpt lat="45.386795" lon="10.64965"><ele>111.0</ele><time>2026-04-11T08:37:30.449Z</time></trkpt><trkpt lat="45.3867" lon="10.6496767"><ele>109.5</ele><time>2026-04-11T08:37:31.45Z</time></trkpt><trkpt lat="45.38662" lon="10.6496933"><ele>108.0</ele><time>2026-04-11T08:37:32.449Z</time></trkpt><trkpt lat="45.3865017" lon="10.6496967"><ele>108.0</ele><time>2026-04-11T08:37:33.456Z</time></trkpt><trkpt lat="45.386415" lon="10.6497183"><ele>108.0</ele><time>2026-04-11T08:37:34.469Z</time></trkpt><trkpt lat="45.3863433" lon="10.6497583"><ele>108.0</ele><time>2026-04-11T08:37:35.469Z</time></trkpt><trkpt lat="45.386275" lon="10.64985"><ele>108.0</ele><time>2026-04-11T08:37:36.462Z</time></trkpt><trkpt lat="45.386205" lon="10.6499567"><ele>108.0</ele><time>2026-04-11T08:37:37.441Z</time></trkpt><trkpt lat="45.3861567" lon="10.6500333"><ele>108.0</ele><time>2026-04-11T08:37:38.46Z</time></trkpt><trkpt lat="45.3861217" lon="10.65018"><ele>107.66666666666667</ele><time>2026-04-11T08:37:40.448Z</time></trkpt><trkpt lat="45.3861117" lon="10.6503"><ele>107.33333333333334</ele><time>2026-04-11T08:37:42.459Z</time></trkpt><trkpt lat="45.386035" lon="10.6503783"><ele>107.0</ele><time>2026-04-11T08:37:44.446Z</time></trkpt><trkpt lat="45.3859333" lon="10.6504"><ele>106.66666666666667</ele><time>2026-04-11T08:37:46.446Z</time></trkpt><trkpt lat="45.3858683" lon="10.6504167"><ele>106.33333333333334</ele><time>2026-04-11T08:37:47.448Z</time></trkpt><trkpt lat="45.3857933" lon="10.65043"><ele>106.0</ele><time>2026-04-11T08:37:48.45Z</time></trkpt><trkpt lat="45.3857067" lon="10.6504317"><ele>106.00000000000001</ele><time>2026-04-11T08:37:49.449Z</time></trkpt><trkpt lat="45.3856067" lon="10.65044"><ele>106.0</ele><time>2026-04-11T08:37:50.456Z</time></trkpt><trkpt lat="45.3855183" lon="10.6504633"><ele>106.0</ele><time>2026-04-11T08:37:51.455Z</time></trkpt><trkpt lat="45.38545" lon="10.6504967"><ele>106.0</ele><time>2026-04-11T08:37:52.453Z</time></trkpt><trkpt lat="45.385385" lon="10.6505383"><ele>106.00000000000001</ele><time>2026-04-11T08:37:53.453Z</time></trkpt><trkpt lat="45.3853267" lon="10.6506067"><ele>106.0</ele><time>2026-04-11T08:37:54.466Z</time></trkpt><trkpt lat="45.3852867" lon="10.6507033"><ele>107.19999999999999</ele><time>2026-04-11T08:37:55.46Z</time></trkpt><trkpt lat="45.3852417" lon="10.6508117"><ele>108.39999999999999</ele><time>2026-04-11T08:37:56.453Z</time></trkpt><trkpt lat="45.3851933" lon="10.6509367"><ele>109.6</ele><time>2026-04-11T08:37:57.459Z</time></trkpt><trkpt lat="45.3851283" lon="10.6510883"><ele>110.8</ele><time>2026-04-11T08:37:58.457Z</time></trkpt><trkpt lat="45.38508" lon="10.65119"><ele>112.0</ele><time>2026-04-11T08:37:59.467Z</time></trkpt><trkpt lat="45.38497" lon="10.6513383"><ele>112.0</ele><time>2026-04-11T08:38:01.465Z</time></trkpt><trkpt lat="45.3849" lon="10.6513933"><ele>111.99999999999999</ele><time>2026-04-11T08:38:02.463Z</time></trkpt><trkpt lat="45.38478" lon="10.65143"><ele>111.99999999999999</ele><time>2026-04-11T08:38:03.439Z</time></trkpt><trkpt lat="45.3846867" lon="10.6514783"><ele>112.0</ele><time>2026-04-11T08:38:04.444Z</time></trkpt><trkpt lat="45.3845867" lon="10.6515267"><ele>112.0</ele><time>2026-04-11T08:38:05.44Z</time></trkpt><trkpt lat="45.3844833" lon="10.6515767"><ele>113.8</ele><time>2026-04-11T08:38:06.445Z</time></trkpt><trkpt lat="45.3843617" lon="10.6516533"><ele>115.6</ele><time>2026-04-11T08:38:07.447Z</time></trkpt><trkpt lat="45.384225" lon="10.65176"><ele>117.39999999999999</ele><time>2026-04-11T08:38:08.451Z</time></trkpt><trkpt lat="45.3841417" lon="10.6517383"><ele>119.19999999999999</ele><time>2026-04-11T08:38:09.439Z</time></trkpt><trkpt lat="45.3840783" lon="10.6517183"><ele>121.0</ele><time>2026-04-11T08:38:10.443Z</time></trkpt><trkpt lat="45.3839667" lon="10.6516517"><ele>121.00000000000001</ele><time>2026-04-11T08:38:12.45Z</time></trkpt><trkpt lat="45.3839" lon="10.651645"><ele>121.0</ele><time>2026-04-11T08:38:13.441Z</time></trkpt><trkpt lat="45.3838367" lon="10.651675"><ele>121.0</ele><time>2026-04-11T08:38:14.451Z</time></trkpt><trkpt lat="45.3837467" lon="10.6517133"><ele>121.0</ele><time>2026-04-11T08:38:16.443Z</time></trkpt><trkpt lat="45.3837017" lon="10.6518133"><ele>121.00000000000001</ele><time>2026-04-11T08:38:18.443Z</time></trkpt><trkpt lat="45.383695" lon="10.6519067"><ele>121.0</ele><time>2026-04-11T08:38:19.443Z</time></trkpt><trkpt lat="45.3837" lon="10.6520167"><ele>120.6</ele><time>2026-04-11T08:38:20.449Z</time></trkpt><trkpt lat="45.3837117" lon="10.652135"><ele>120.19999999999999</ele><time>2026-04-11T08:38:21.443Z</time></trkpt><trkpt lat="45.38373" lon="10.652275"><ele>119.80000000000001</ele><time>2026-04-11T08:38:22.439Z</time></trkpt><trkpt lat="45.3837433" lon="10.6524483"><ele>119.4</ele><time>2026-04-11T08:38:23.444Z</time></trkpt><trkpt lat="45.3837483" lon="10.6526317"><ele>119.0</ele><time>2026-04-11T08:38:24.441Z</time></trkpt><trkpt lat="45.383775" lon="10.6528"><ele>119.0</ele><time>2026-04-11T08:38:25.439Z</time></trkpt><trkpt lat="45.38379" lon="10.6530067"><ele>119.0</ele><time>2026-04-11T08:38:26.446Z</time></trkpt><trkpt lat="45.3837667" lon="10.6532333"><ele>119.0</ele><time>2026-04-11T08:38:27.443Z</time></trkpt><trkpt lat="45.383745" lon="10.653465"><ele>119.0</ele><time>2026-04-11T08:38:28.459Z</time></trkpt><trkpt lat="45.383705" lon="10.65372"><ele>119.0</ele><time>2026-04-11T08:38:29.445Z</time></trkpt><trkpt lat="45.3836667" lon="10.653965"><ele>119.0</ele><time>2026-04-11T08:38:30.443Z</time></trkpt><trkpt lat="45.38362" lon="10.6542233"><ele>119.0</ele><time>2026-04-11T08:38:31.445Z</time></trkpt><trkpt lat="45.383585" lon="10.65445"><ele>119.0</ele><time>2026-04-11T08:38:32.449Z</time></trkpt><trkpt lat="45.38355" lon="10.654635"><ele>119.0</ele><time>2026-04-11T08:38:33.441Z</time></trkpt><trkpt lat="45.3835017" lon="10.654835"><ele>119.0</ele><time>2026-04-11T08:38:34.474Z</time></trkpt><trkpt lat="45.3834717" lon="10.65502"><ele>119.25</ele><time>2026-04-11T08:38:35.435Z</time></trkpt><trkpt lat="45.3834083" lon="10.6552067"><ele>119.5</ele><time>2026-04-11T08:38:36.455Z</time></trkpt><trkpt lat="45.3833683" lon="10.6554"><ele>119.75</ele><time>2026-04-11T08:38:37.446Z</time></trkpt><trkpt lat="45.3833067" lon="10.6555683"><ele>120.0</ele><time>2026-04-11T08:38:38.441Z</time></trkpt><trkpt lat="45.38329" lon="10.6557617"><ele>120.0</ele><time>2026-04-11T08:38:39.446Z</time></trkpt><trkpt lat="45.38323" lon="10.6559183"><ele>120.0</ele><time>2026-04-11T08:38:40.445Z</time></trkpt><trkpt lat="45.3831883" lon="10.656085"><ele>120.0</ele><time>2026-04-11T08:38:41.438Z</time></trkpt><trkpt lat="45.3831367" lon="10.6562783"><ele>120.0</ele><time>2026-04-11T08:38:42.462Z</time></trkpt><trkpt lat="45.3830617" lon="10.6564417"><ele>120.25</ele><time>2026-04-11T08:38:43.439Z</time></trkpt><trkpt lat="45.3829967" lon="10.656605"><ele>120.5</ele><time>2026-04-11T08:38:44.467Z</time></trkpt><trkpt lat="45.3829217" lon="10.6567467"><ele>120.75</ele><time>2026-04-11T08:38:45.442Z</time></trkpt><trkpt lat="45.3829117" lon="10.65694"><ele>121.0</ele><time>2026-04-11T08:38:46.445Z</time></trkpt><trkpt lat="45.38294" lon="10.6571"><ele>120.75</ele><time>2026-04-11T08:38:47.455Z</time></trkpt><trkpt lat="45.3829867" lon="10.6573067"><ele>120.5</ele><time>2026-04-11T08:38:48.442Z</time></trkpt><trkpt lat="45.3830233" lon="10.6574567"><ele>120.25</ele><time>2026-04-11T08:38:49.442Z</time></trkpt><trkpt lat="45.38304" lon="10.6576017"><ele>120.0</ele><time>2026-04-11T08:38:50.442Z</time></trkpt><trkpt lat="45.3830533" lon="10.6578167"><ele>120.0</ele><time>2026-04-11T08:38:51.452Z</time></trkpt><trkpt lat="45.38306" lon="10.6580183"><ele>120.0</ele><time>2026-04-11T08:38:52.447Z</time></trkpt><trkpt lat="45.3830283" lon="10.658215"><ele>120.0</ele><time>2026-04-11T08:38:53.442Z</time></trkpt><trkpt lat="45.3829717" lon="10.6584033"><ele>120.0</ele><time>2026-04-11T08:38:54.436Z</time></trkpt><trkpt lat="45.3829183" lon="10.6585983"><ele>119.0</ele><time>2026-04-11T08:38:55.457Z</time></trkpt><trkpt lat="45.3828367" lon="10.6587967"><ele>118.0</ele><time>2026-04-11T08:38:56.46Z</time></trkpt><trkpt lat="45.3827433" lon="10.6589683"><ele>117.0</ele><time>2026-04-11T08:38:57.446Z</time></trkpt><trkpt lat="45.3826483" lon="10.6591267"><ele>117.0</ele><time>2026-04-11T08:38:58.447Z</time></trkpt><trkpt lat="45.3825533" lon="10.65922"><ele>117.0</ele><time>2026-04-11T08:38:59.448Z</time></trkpt><trkpt lat="45.3824517" lon="10.65936"><ele>117.0</ele><time>2026-04-11T08:39:00.439Z</time></trkpt><trkpt lat="45.3823733" lon="10.6595733"><ele>117.0</ele><time>2026-04-11T08:39:01.466Z</time></trkpt><trkpt lat="45.382315" lon="10.65979"><ele>118.0</ele><time>2026-04-11T08:39:02.459Z</time></trkpt><trkpt lat="45.3822867" lon="10.6600017"><ele>119.0</ele><time>2026-04-11T08:39:03.448Z</time></trkpt><trkpt lat="45.3822617" lon="10.6602233"><ele>120.0</ele><time>2026-04-11T08:39:04.444Z</time></trkpt><trkpt lat="45.38222" lon="10.6604433"><ele>120.25</ele><time>2026-04-11T08:39:05.457Z</time></trkpt><trkpt lat="45.3821817" lon="10.6606617"><ele>120.5</ele><time>2026-04-11T08:39:06.446Z</time></trkpt><trkpt lat="45.382105" lon="10.6608433"><ele>120.75</ele><time>2026-04-11T08:39:07.443Z</time></trkpt><trkpt lat="45.3820233" lon="10.6609867"><ele>121.0</ele><time>2026-04-11T08:39:08.453Z</time></trkpt><trkpt lat="45.3819183" lon="10.6611117"><ele>120.5</ele><time>2026-04-11T08:39:09.443Z</time></trkpt><trkpt lat="45.3818617" lon="10.6612683"><ele>120.0</ele><time>2026-04-11T08:39:10.445Z</time></trkpt><trkpt lat="45.3818383" lon="10.6614667"><ele>119.5</ele><time>2026-04-11T08:39:11.446Z</time></trkpt><trkpt lat="45.3818467" lon="10.6616633"><ele>119.0</ele><time>2026-04-11T08:39:12.449Z</time></trkpt><trkpt lat="45.3818767" lon="10.6618617"><ele>119.0</ele><time>2026-04-11T08:39:13.442Z</time></trkpt><trkpt lat="45.381935" lon="10.6620633"><ele>119.0</ele><time>2026-04-11T08:39:14.447Z</time></trkpt><trkpt lat="45.3819867" lon="10.6622817"><ele>119.0</ele><time>2026-04-11T08:39:15.438Z</time></trkpt><trkpt lat="45.382035" lon="10.662485"><ele>119.0</ele><time>2026-04-11T08:39:16.447Z</time></trkpt><trkpt lat="45.3820617" lon="10.6626933"><ele>119.0</ele><time>2026-04-11T08:39:17.457Z</time></trkpt><trkpt lat="45.382075" lon="10.6628983"><ele>119.0</ele><time>2026-04-11T08:39:18.444Z</time></trkpt><trkpt lat="45.3820533" lon="10.6631067"><ele>119.0</ele><time>2026-04-11T08:39:19.436Z</time></trkpt><trkpt lat="45.3820617" lon="10.6632533"><ele>119.75</ele><time>2026-04-11T08:39:20.436Z</time></trkpt><trkpt lat="45.3820217" lon="10.6634217"><ele>120.5</ele><time>2026-04-11T08:39:21.451Z</time></trkpt><trkpt lat="45.3819817" lon="10.6635933"><ele>121.25</ele><time>2026-04-11T08:39:22.443Z</time></trkpt><trkpt lat="45.3819383" lon="10.66371"><ele>122.0</ele><time>2026-04-11T08:39:23.441Z</time></trkpt><trkpt lat="45.3819083" lon="10.6638567"><ele>122.75</ele><time>2026-04-11T08:39:24.443Z</time></trkpt><trkpt lat="45.3819117" lon="10.6640167"><ele>123.5</ele><time>2026-04-11T08:39:25.446Z</time></trkpt><trkpt lat="45.3819483" lon="10.6642133"><ele>124.25</ele><time>2026-04-11T08:39:26.445Z</time></trkpt><trkpt lat="45.3819983" lon="10.6644233"><ele>125.0</ele><time>2026-04-11T08:39:27.447Z</time></trkpt><trkpt lat="45.3820167" lon="10.66463"><ele>125.5</ele><time>2026-04-11T08:39:28.445Z</time></trkpt><trkpt lat="45.3820333" lon="10.664835"><ele>126.0</ele><time>2026-04-11T08:39:29.437Z</time></trkpt><trkpt lat="45.382065" lon="10.665015"><ele>126.5</ele><time>2026-04-11T08:39:30.446Z</time></trkpt><trkpt lat="45.3820833" lon="10.665195"><ele>127.0</ele><time>2026-04-11T08:39:31.443Z</time></trkpt><trkpt lat="45.382125" lon="10.6654"><ele>128.0</ele><time>2026-04-11T08:39:32.44Z</time></trkpt><trkpt lat="45.3821817" lon="10.6655783"><ele>129.0</ele><time>2026-04-11T08:39:33.444Z</time></trkpt><trkpt lat="45.3822283" lon="10.6657733"><ele>130.0</ele><time>2026-04-11T08:39:34.451Z</time></trkpt><trkpt lat="45.3822767" lon="10.665925"><ele>131.0</ele><time>2026-04-11T08:39:35.459Z</time></trkpt><trkpt lat="45.38232" lon="10.666095"><ele>131.2</ele><time>2026-04-11T08:39:36.443Z</time></trkpt><trkpt lat="45.3823633" lon="10.6662567"><ele>131.39999999999998</ele><time>2026-04-11T08:39:37.449Z</time></trkpt><trkpt lat="45.3824" lon="10.6664017"><ele>131.6</ele><time>2026-04-11T08:39:38.485Z</time></trkpt><trkpt lat="45.3824383" lon="10.6665467"><ele>131.79999999999998</ele><time>2026-04-11T08:39:39.448Z</time></trkpt><trkpt lat="45.3824683" lon="10.6666667"><ele>132.0</ele><time>2026-04-11T08:39:40.446Z</time></trkpt><trkpt lat="45.382465" lon="10.6668"><ele>132.0</ele><time>2026-04-11T08:39:41.44Z</time></trkpt><trkpt lat="45.3824517" lon="10.6669317"><ele>132.0</ele><time>2026-04-11T08:39:42.448Z</time></trkpt><trkpt lat="45.3824167" lon="10.6670883"><ele>132.0</ele><time>2026-04-11T08:39:43.444Z</time></trkpt><trkpt lat="45.3823917" lon="10.6672467"><ele>132.0</ele><time>2026-04-11T08:39:44.443Z</time></trkpt><trkpt lat="45.38236" lon="10.6674"><ele>132.0</ele><time>2026-04-11T08:39:45.441Z</time></trkpt><trkpt lat="45.3823383" lon="10.6675033"><ele>132.16666666666666</ele><time>2026-04-11T08:39:46.45Z</time></trkpt><trkpt lat="45.382325" lon="10.6676117"><ele>132.33333333333334</ele><time>2026-04-11T08:39:47.452Z</time></trkpt><trkpt lat="45.38232" lon="10.6677067"><ele>132.5</ele><time>2026-04-11T08:39:48.444Z</time></trkpt><trkpt lat="45.3823617" lon="10.6678"><ele>132.66666666666669</ele><time>2026-04-11T08:39:50.445Z</time></trkpt><trkpt lat="45.3824467" lon="10.6678167"><ele>132.83333333333334</ele><time>2026-04-11T08:39:52.436Z</time></trkpt><trkpt lat="45.3825667" lon="10.6678483"><ele>133.0</ele><time>2026-04-11T08:39:54.445Z</time></trkpt><trkpt lat="45.3826433" lon="10.667875"><ele>133.0</ele><time>2026-04-11T08:39:55.449Z</time></trkpt><trkpt lat="45.38272" lon="10.6679067"><ele>133.0</ele><time>2026-04-11T08:39:56.444Z</time></trkpt><trkpt lat="45.3828033" lon="10.6679533"><ele>133.0</ele><time>2026-04-11T08:39:57.442Z</time></trkpt><trkpt lat="45.3829033" lon="10.6679983"><ele>133.0</ele><time>2026-04-11T08:39:58.439Z</time></trkpt><trkpt lat="45.3829917" lon="10.6680317"><ele>133.0</ele><time>2026-04-11T08:39:59.442Z</time></trkpt><trkpt lat="45.3830583" lon="10.66806"><ele>133.0</ele><time>2026-04-11T08:40:00.447Z</time></trkpt><trkpt lat="45.3831367" lon="10.6680783"><ele>134.0</ele><time>2026-04-11T08:40:01.437Z</time></trkpt><trkpt lat="45.3832217" lon="10.6680983"><ele>135.0</ele><time>2026-04-11T08:40:02.446Z</time></trkpt><trkpt lat="45.3833083" lon="10.6681083"><ele>136.0</ele><time>2026-04-11T08:40:03.446Z</time></trkpt><trkpt lat="45.3833867" lon="10.66811"><ele>137.0</ele><time>2026-04-11T08:40:04.439Z</time></trkpt><trkpt lat="45.383465" lon="10.6681167"><ele>138.0</ele><time>2026-04-11T08:40:05.441Z</time></trkpt><trkpt lat="45.3835317" lon="10.668135"><ele>139.0</ele><time>2026-04-11T08:40:06.442Z</time></trkpt><trkpt lat="45.3836033" lon="10.6681567"><ele>139.0</ele><time>2026-04-11T08:40:07.437Z</time></trkpt><trkpt lat="45.3836783" lon="10.6681983"><ele>139.0</ele><time>2026-04-11T08:40:08.452Z</time></trkpt><trkpt lat="45.383755" lon="10.668245"><ele>139.0</ele><time>2026-04-11T08:40:09.443Z</time></trkpt><trkpt lat="45.38384" lon="10.6682817"><ele>139.0</ele><time>2026-04-11T08:40:10.44Z</time></trkpt><trkpt lat="45.3839133" lon="10.6683017"><ele>139.0</ele><time>2026-04-11T08:40:11.446Z</time></trkpt><trkpt lat="45.3839833" lon="10.6683083"><ele>139.0</ele><time>2026-04-11T08:40:12.451Z</time></trkpt><trkpt lat="45.3840483" lon="10.66832"><ele>138.8</ele><time>2026-04-11T08:40:13.438Z</time></trkpt><trkpt lat="45.38414" lon="10.6683667"><ele>138.60000000000002</ele><time>2026-04-11T08:40:15.445Z</time></trkpt><trkpt lat="45.3842017" lon="10.6684533"><ele>138.4</ele><time>2026-04-11T08:40:17.437Z</time></trkpt><trkpt lat="45.38429" lon="10.6685483"><ele>138.20000000000002</ele><time>2026-04-11T08:40:19.447Z</time></trkpt><trkpt lat="45.3844167" lon="10.6685983"><ele>138.0</ele><time>2026-04-11T08:40:21.443Z</time></trkpt><trkpt lat="45.3844933" lon="10.6686183"><ele>138.0</ele><time>2026-04-11T08:40:22.446Z</time></trkpt><trkpt lat="45.3845733" lon="10.66864"><ele>138.0</ele><time>2026-04-11T08:40:23.438Z</time></trkpt><trkpt lat="45.3846567" lon="10.6686733"><ele>138.0</ele><time>2026-04-11T08:40:24.442Z</time></trkpt><trkpt lat="45.384725" lon="10.6687133"><ele>138.0</ele><time>2026-04-11T08:40:25.442Z</time></trkpt><trkpt lat="45.3847833" lon="10.668755"><ele>138.0</ele><time>2026-04-11T08:40:26.443Z</time></trkpt><trkpt lat="45.3848467" lon="10.6688033"><ele>138.0</ele><time>2026-04-11T08:40:27.444Z</time></trkpt><trkpt lat="45.3849183" lon="10.66885"><ele>136.33333333333334</ele><time>2026-04-11T08:40:28.447Z</time></trkpt><trkpt lat="45.3850083" lon="10.6688817"><ele>134.66666666666666</ele><time>2026-04-11T08:40:29.443Z</time></trkpt><trkpt lat="45.3850917" lon="10.6689083"><ele>133.0</ele><time>2026-04-11T08:40:30.442Z</time></trkpt><trkpt lat="45.3851683" lon="10.6689433"><ele>131.33333333333331</ele><time>2026-04-11T08:40:31.44Z</time></trkpt><trkpt lat="45.385245" lon="10.6689767"><ele>129.66666666666666</ele><time>2026-04-11T08:40:32.439Z</time></trkpt><trkpt lat="45.3853183" lon="10.6690017"><ele>128.0</ele><time>2026-04-11T08:40:33.438Z</time></trkpt><trkpt lat="45.3854367" lon="10.6690467"><ele>124.2</ele><time>2026-04-11T08:40:35.449Z</time></trkpt><trkpt lat="45.3855217" lon="10.669105"><ele>120.4</ele><time>2026-04-11T08:40:37.442Z</time></trkpt><trkpt lat="45.3855467" lon="10.669215"><ele>116.60000000000001</ele><time>2026-04-11T08:40:39.448Z</time></trkpt><trkpt lat="45.3855617" lon="10.669355"><ele>112.80000000000001</ele><time>2026-04-11T08:40:41.445Z</time></trkpt><trkpt lat="45.3855667" lon="10.66953"><ele>109.0</ele><time>2026-04-11T08:40:43.436Z</time></trkpt><trkpt lat="45.385565" lon="10.6696217"><ele>109.16666666666667</ele><time>2026-04-11T08:40:44.447Z</time></trkpt><trkpt lat="45.385565" lon="10.6697117"><ele>109.33333333333334</ele><time>2026-04-11T08:40:45.44Z</time></trkpt><trkpt lat="45.3855533" lon="10.6698083"><ele>109.5</ele><time>2026-04-11T08:40:46.442Z</time></trkpt><trkpt lat="45.3855333" lon="10.6698983"><ele>109.66666666666666</ele><time>2026-04-11T08:40:47.452Z</time></trkpt><trkpt lat="45.3855" lon="10.670055"><ele>109.83333333333333</ele><time>2026-04-11T08:40:49.445Z</time></trkpt><trkpt lat="45.38547" lon="10.6702033"><ele>110.0</ele><time>2026-04-11T08:40:51.445Z</time></trkpt><trkpt lat="45.3854533" lon="10.6703"><ele>109.99999999999999</ele><time>2026-04-11T08:40:52.443Z</time></trkpt><trkpt lat="45.3854133" lon="10.6703867"><ele>110.0</ele><time>2026-04-11T08:40:53.456Z</time></trkpt><trkpt lat="45.38539" lon="10.6704983"><ele>110.0</ele><time>2026-04-11T08:40:54.462Z</time></trkpt><trkpt lat="45.38536" lon="10.6705983"><ele>110.0</ele><time>2026-04-11T08:40:55.44Z</time></trkpt><trkpt lat="45.3853267" lon="10.67069"><ele>110.0</ele><time>2026-04-11T08:40:56.446Z</time></trkpt><trkpt lat="45.385295" lon="10.670775"><ele>109.99999999999999</ele><time>2026-04-11T08:40:57.456Z</time></trkpt><trkpt lat="45.38526" lon="10.6708533"><ele>110.0</ele><time>2026-04-11T08:40:58.447Z</time></trkpt><trkpt lat="45.3852233" lon="10.6709367"><ele>110.0</ele><time>2026-04-11T08:40:59.447Z</time></trkpt><trkpt lat="45.3851917" lon="10.671015"><ele>110.0</ele><time>2026-04-11T08:41:00.459Z</time></trkpt><trkpt lat="45.3851183" lon="10.6711617"><ele>110.0</ele><time>2026-04-11T08:41:02.458Z</time></trkpt><trkpt lat="45.38505" lon="10.6713033"><ele>110.0</ele><time>2026-04-11T08:41:04.454Z</time></trkpt><trkpt lat="45.3850067" lon="10.6714567"><ele>110.0</ele><time>2026-04-11T08:41:06.442Z</time></trkpt><trkpt lat="45.3849467" lon="10.6715833"><ele>107.6</ele><time>2026-04-11T08:41:08.44Z</time></trkpt><trkpt lat="45.3849267" lon="10.6716833"><ele>105.2</ele><time>2026-04-11T08:41:10.448Z</time></trkpt><trkpt lat="45.385" lon="10.671795"><ele>102.80000000000001</ele><time>2026-04-11T08:41:12.458Z</time></trkpt><trkpt lat="45.385075" lon="10.6718533"><ele>100.4</ele><time>2026-04-11T08:41:13.454Z</time></trkpt><trkpt lat="45.385155" lon="10.671915"><ele>98.0</ele><time>2026-04-11T08:41:14.438Z</time></trkpt><trkpt lat="45.3852433" lon="10.67199"><ele>96.49999999999999</ele><time>2026-04-11T08:41:15.442Z</time></trkpt><trkpt lat="45.3853167" lon="10.67206"><ele>95.0</ele><time>2026-04-11T08:41:16.456Z</time></trkpt><trkpt lat="45.385385" lon="10.672125"><ele>93.5</ele><time>2026-04-11T08:41:17.446Z</time></trkpt><trkpt lat="45.385455" lon="10.67219"><ele>92.0</ele><time>2026-04-11T08:41:18.441Z</time></trkpt><trkpt lat="45.3855133" lon="10.6722717"><ele>90.5</ele><time>2026-04-11T08:41:19.45Z</time></trkpt><trkpt lat="45.3855667" lon="10.6723717"><ele>89.0</ele><time>2026-04-11T08:41:20.452Z</time></trkpt><trkpt lat="45.3856233" lon="10.6724833"><ele>88.75</ele><time>2026-04-11T08:41:21.45Z</time></trkpt><trkpt lat="45.3856983" lon="10.6726"><ele>88.5</ele><time>2026-04-11T08:41:22.451Z</time></trkpt><trkpt lat="45.3857817" lon="10.6727083"><ele>88.25</ele><time>2026-04-11T08:41:23.445Z</time></trkpt><trkpt lat="45.38589" lon="10.6727933"><ele>88.0</ele><time>2026-04-11T08:41:24.442Z</time></trkpt><trkpt lat="45.3859767" lon="10.6728767"><ele>89.0</ele><time>2026-04-11T08:41:25.448Z</time></trkpt><trkpt lat="45.3860467" lon="10.6729833"><ele>90.0</ele><time>2026-04-11T08:41:26.466Z</time></trkpt><trkpt lat="45.38613" lon="10.67309"><ele>91.0</ele><time>2026-04-11T08:41:27.443Z</time></trkpt><trkpt lat="45.3861917" lon="10.6731767"><ele>92.0</ele><time>2026-04-11T08:41:28.452Z</time></trkpt><trkpt lat="45.3862533" lon="10.6732783"><ele>93.0</ele><time>2026-04-11T08:41:29.452Z</time></trkpt><trkpt lat="45.38631" lon="10.6733817"><ele>91.60000000000001</ele><time>2026-04-11T08:41:30.441Z</time></trkpt><trkpt lat="45.3863483" lon="10.6734967"><ele>90.2</ele><time>2026-04-11T08:41:31.443Z</time></trkpt><trkpt lat="45.386385" lon="10.6736083"><ele>88.8</ele><time>2026-04-11T08:41:32.454Z</time></trkpt><trkpt lat="45.3864083" lon="10.67373"><ele>87.4</ele><time>2026-04-11T08:41:33.443Z</time></trkpt><trkpt lat="45.386425" lon="10.6738717"><ele>86.0</ele><time>2026-04-11T08:41:34.44Z</time></trkpt><trkpt lat="45.3864333" lon="10.6740117"><ele>85.6</ele><time>2026-04-11T08:41:35.444Z</time></trkpt><trkpt lat="45.3864417" lon="10.6741617"><ele>85.19999999999999</ele><time>2026-04-11T08:41:36.439Z</time></trkpt><trkpt lat="45.386455" lon="10.674275"><ele>84.80000000000001</ele><time>2026-04-11T08:41:37.438Z</time></trkpt><trkpt lat="45.3864683" lon="10.6744017"><ele>84.4</ele><time>2026-04-11T08:41:38.454Z</time></trkpt><trkpt lat="45.3864667" lon="10.6745283"><ele>84.0</ele><time>2026-04-11T08:41:39.441Z</time></trkpt><trkpt lat="45.3864567" lon="10.6746917"><ele>84.0</ele><time>2026-04-11T08:41:40.438Z</time></trkpt><trkpt lat="45.3864417" lon="10.674845"><ele>84.0</ele><time>2026-04-11T08:41:41.442Z</time></trkpt><trkpt lat="45.3864617" lon="10.675"><ele>84.0</ele><time>2026-04-11T08:41:42.447Z</time></trkpt><trkpt lat="45.3865233" lon="10.675165"><ele>84.0</ele><time>2026-04-11T08:41:43.439Z</time></trkpt><trkpt lat="45.3865533" lon="10.6753333"><ele>84.0</ele><time>2026-04-11T08:41:44.455Z</time></trkpt><trkpt lat="45.3866033" lon="10.67549"><ele>84.0</ele><time>2026-04-11T08:41:45.443Z</time></trkpt><trkpt lat="45.3866633" lon="10.6756467"><ele>84.0</ele><time>2026-04-11T08:41:46.44Z</time></trkpt><trkpt lat="45.386705" lon="10.6757917"><ele>84.0</ele><time>2026-04-11T08:41:47.441Z</time></trkpt><trkpt lat="45.386735" lon="10.6758917"><ele>84.0</ele><time>2026-04-11T08:41:48.45Z</time></trkpt><trkpt lat="45.3867617" lon="10.676"><ele>84.80000000000001</ele><time>2026-04-11T08:41:49.438Z</time></trkpt><trkpt lat="45.3867883" lon="10.6761067"><ele>85.60000000000001</ele><time>2026-04-11T08:41:50.446Z</time></trkpt><trkpt lat="45.38682" lon="10.6762283"><ele>86.4</ele><time>2026-04-11T08:41:51.441Z</time></trkpt><trkpt lat="45.3868267" lon="10.6763967"><ele>87.2</ele><time>2026-04-11T08:41:52.444Z</time></trkpt><trkpt lat="45.3868767" lon="10.67654"><ele>88.0</ele><time>2026-04-11T08:41:53.438Z</time></trkpt><trkpt lat="45.3869133" lon="10.6766917"><ele>88.0</ele><time>2026-04-11T08:41:54.447Z</time></trkpt><trkpt lat="45.3869183" lon="10.67688"><ele>88.0</ele><time>2026-04-11T08:41:55.454Z</time></trkpt><trkpt lat="45.386925" lon="10.677055"><ele>88.0</ele><time>2026-04-11T08:41:56.449Z</time></trkpt><trkpt lat="45.3869767" lon="10.6772217"><ele>88.0</ele><time>2026-04-11T08:41:57.45Z</time></trkpt><trkpt lat="45.386965" lon="10.67738"><ele>88.2</ele><time>2026-04-11T08:41:58.448Z</time></trkpt><trkpt lat="45.3869683" lon="10.6775067"><ele>88.4</ele><time>2026-04-11T08:41:59.442Z</time></trkpt><trkpt lat="45.3869933" lon="10.6776"><ele>88.60000000000001</ele><time>2026-04-11T08:42:00.448Z</time></trkpt><trkpt lat="45.386995" lon="10.6777617"><ele>88.80000000000001</ele><time>2026-04-11T08:42:01.448Z</time></trkpt><trkpt lat="45.387035" lon="10.677895"><ele>89.0</ele><time>2026-04-11T08:42:02.448Z</time></trkpt><trkpt lat="45.3870533" lon="10.6780733"><ele>88.2</ele><time>2026-04-11T08:42:03.445Z</time></trkpt><trkpt lat="45.3871333" lon="10.6781767"><ele>87.4</ele><time>2026-04-11T08:42:04.449Z</time></trkpt><trkpt lat="45.3872" lon="10.6782933"><ele>86.6</ele><time>2026-04-11T08:42:05.456Z</time></trkpt><trkpt lat="45.3873" lon="10.678395"><ele>85.8</ele><time>2026-04-11T08:42:06.45Z</time></trkpt><trkpt lat="45.3873883" lon="10.6784883"><ele>85.0</ele><time>2026-04-11T08:42:07.447Z</time></trkpt><trkpt lat="45.3874617" lon="10.67857"><ele>85.0</ele><time>2026-04-11T08:42:08.446Z</time></trkpt><trkpt lat="45.3875317" lon="10.6786517"><ele>85.0</ele><time>2026-04-11T08:42:09.451Z</time></trkpt><trkpt lat="45.3875917" lon="10.6787217"><ele>85.0</ele><time>2026-04-11T08:42:10.454Z</time></trkpt><trkpt lat="45.3876433" lon="10.6787883"><ele>85.0</ele><time>2026-04-11T08:42:11.446Z</time></trkpt><trkpt lat="45.3876983" lon="10.67886"><ele>85.0</ele><time>2026-04-11T08:42:12.453Z</time></trkpt><trkpt lat="45.3877533" lon="10.6789517"><ele>85.0</ele><time>2026-04-11T08:42:13.448Z</time></trkpt><trkpt lat="45.3878117" lon="10.67905"><ele>85.0</ele><time>2026-04-11T08:42:14.456Z</time></trkpt><trkpt lat="45.3878683" lon="10.6791383"><ele>85.0</ele><time>2026-04-11T08:42:15.442Z</time></trkpt><trkpt lat="45.387915" lon="10.6792183"><ele>85.0</ele><time>2026-04-11T08:42:16.452Z</time></trkpt><trkpt lat="45.38797" lon="10.6793233"><ele>85.0</ele><time>2026-04-11T08:42:18.448Z</time></trkpt><trkpt lat="45.38807" lon="10.6792433"><ele>85.0</ele><time>2026-04-11T08:42:21.442Z</time></trkpt><trkpt lat="45.388105" lon="10.6791417"><ele>85.0</ele><time>2026-04-11T08:42:22.453Z</time></trkpt><trkpt lat="45.3881317" lon="10.6790417"><ele>85.8</ele><time>2026-04-11T08:42:23.445Z</time></trkpt><trkpt lat="45.3881717" lon="10.6789317"><ele>86.6</ele><time>2026-04-11T08:42:24.453Z</time></trkpt><trkpt lat="45.3882233" lon="10.678815"><ele>87.4</ele><time>2026-04-11T08:42:25.438Z</time></trkpt><trkpt lat="45.388285" lon="10.6787033"><ele>88.2</ele><time>2026-04-11T08:42:26.457Z</time></trkpt><trkpt lat="45.3883717" lon="10.6785617"><ele>89.0</ele><time>2026-04-11T08:42:27.443Z</time></trkpt><trkpt lat="45.3884617" lon="10.67844"><ele>89.0</ele><time>2026-04-11T08:42:28.445Z</time></trkpt><trkpt lat="45.388565" lon="10.6783267"><ele>89.0</ele><time>2026-04-11T08:42:29.449Z</time></trkpt><trkpt lat="45.388655" lon="10.6782283"><ele>89.0</ele><time>2026-04-11T08:42:30.444Z</time></trkpt><trkpt lat="45.3887617" lon="10.6781167"><ele>89.0</ele><time>2026-04-11T08:42:31.438Z</time></trkpt><trkpt lat="45.3888767" lon="10.67801"><ele>89.25</ele><time>2026-04-11T08:42:32.436Z</time></trkpt><trkpt lat="45.3889867" lon="10.677895"><ele>89.5</ele><time>2026-04-11T08:42:33.44Z</time></trkpt><trkpt lat="45.3891033" lon="10.6777817"><ele>89.75</ele><time>2026-04-11T08:42:34.441Z</time></trkpt><trkpt lat="45.3892267" lon="10.6776533"><ele>90.0</ele><time>2026-04-11T08:42:35.444Z</time></trkpt><trkpt lat="45.3893533" lon="10.677555"><ele>90.0</ele><time>2026-04-11T08:42:36.442Z</time></trkpt><trkpt lat="45.3894783" lon="10.6774467"><ele>90.0</ele><time>2026-04-11T08:42:37.442Z</time></trkpt><trkpt lat="45.38958" lon="10.6773133"><ele>90.0</ele><time>2026-04-11T08:42:38.437Z</time></trkpt><trkpt lat="45.389685" lon="10.6771633"><ele>90.0</ele><time>2026-04-11T08:42:39.443Z</time></trkpt><trkpt lat="45.3898117" lon="10.6770783"><ele>90.75</ele><time>2026-04-11T08:42:40.446Z</time></trkpt><trkpt lat="45.3899417" lon="10.6769717"><ele>91.5</ele><time>2026-04-11T08:42:41.444Z</time></trkpt><trkpt lat="45.3900683" lon="10.6768817"><ele>92.25</ele><time>2026-04-11T08:42:42.447Z</time></trkpt><trkpt lat="45.3902033" lon="10.67678"><ele>93.0</ele><time>2026-04-11T08:42:43.441Z</time></trkpt><trkpt lat="45.390345" lon="10.676715"><ele>93.33333333333333</ele><time>2026-04-11T08:42:44.439Z</time></trkpt><trkpt lat="45.3904833" lon="10.6766283"><ele>93.66666666666666</ele><time>2026-04-11T08:42:45.446Z</time></trkpt><trkpt lat="45.3906433" lon="10.67652"><ele>94.0</ele><time>2026-04-11T08:42:46.438Z</time></trkpt><trkpt lat="45.39079" lon="10.676425"><ele>94.0</ele><time>2026-04-11T08:42:47.443Z</time></trkpt><trkpt lat="45.3909133" lon="10.6762967"><ele>94.0</ele><time>2026-04-11T08:42:48.449Z</time></trkpt><trkpt lat="45.3910183" lon="10.6761283"><ele>94.0</ele><time>2026-04-11T08:42:49.444Z</time></trkpt><trkpt lat="45.3911067" lon="10.6759467"><ele>92.66666666666666</ele><time>2026-04-11T08:42:50.439Z</time></trkpt><trkpt lat="45.3911917" lon="10.67575"><ele>91.33333333333333</ele><time>2026-04-11T08:42:51.438Z</time></trkpt><trkpt lat="45.3912833" lon="10.6755867"><ele>90.0</ele><time>2026-04-11T08:42:52.456Z</time></trkpt><trkpt lat="45.3913683" lon="10.67537"><ele>92.66666666666666</ele><time>2026-04-11T08:42:53.436Z</time></trkpt><trkpt lat="45.3914567" lon="10.6751917"><ele>95.33333333333333</ele><time>2026-04-11T08:42:54.448Z</time></trkpt><trkpt lat="45.391555" lon="10.6750483"><ele>98.0</ele><time>2026-04-11T08:42:55.441Z</time></trkpt><trkpt lat="45.3916483" lon="10.674855"><ele>98.0</ele><time>2026-04-11T08:42:56.446Z</time></trkpt><trkpt lat="45.3917167" lon="10.6746467"><ele>98.0</ele><time>2026-04-11T08:42:57.442Z</time></trkpt><trkpt lat="45.3917833" lon="10.67442"><ele>98.0</ele><time>2026-04-11T08:42:58.443Z</time></trkpt><trkpt lat="45.3918417" lon="10.6742167"><ele>98.0</ele><time>2026-04-11T08:42:59.457Z</time></trkpt><trkpt lat="45.3918983" lon="10.6740233"><ele>98.0</ele><time>2026-04-11T08:43:00.447Z</time></trkpt><trkpt lat="45.39195" lon="10.6738483"><ele>98.0</ele><time>2026-04-11T08:43:01.452Z</time></trkpt><trkpt lat="45.39199" lon="10.6736517"><ele>98.0</ele><time>2026-04-11T08:43:02.45Z</time></trkpt><trkpt lat="45.392005" lon="10.6734733"><ele>97.66666666666666</ele><time>2026-04-11T08:43:03.442Z</time></trkpt><trkpt lat="45.3919917" lon="10.673235"><ele>97.33333333333334</ele><time>2026-04-11T08:43:04.438Z</time></trkpt><trkpt lat="45.3919517" lon="10.673005"><ele>97.0</ele><time>2026-04-11T08:43:05.442Z</time></trkpt><trkpt lat="45.3919033" lon="10.6727867"><ele>98.0</ele><time>2026-04-11T08:43:06.454Z</time></trkpt><trkpt lat="45.3918483" lon="10.67256"><ele>99.0</ele><time>2026-04-11T08:43:07.447Z</time></trkpt><trkpt lat="45.3917867" lon="10.6723767"><ele>100.0</ele><time>2026-04-11T08:43:08.456Z</time></trkpt><trkpt lat="45.3917917" lon="10.6721767"><ele>100.0</ele><time>2026-04-11T08:43:09.447Z</time></trkpt><trkpt lat="45.3917783" lon="10.67204"><ele>100.0</ele><time>2026-04-11T08:43:10.447Z</time></trkpt><trkpt lat="45.391775" lon="10.6717933"><ele>100.0</ele><time>2026-04-11T08:43:11.447Z</time></trkpt><trkpt lat="45.3917667" lon="10.671585"><ele>100.0</ele><time>2026-04-11T08:43:12.448Z</time></trkpt><trkpt lat="45.391825" lon="10.6714233"><ele>100.75</ele><time>2026-04-11T08:43:13.435Z</time></trkpt><trkpt lat="45.3918833" lon="10.6712567"><ele>101.5</ele><time>2026-04-11T08:43:14.459Z</time></trkpt><trkpt lat="45.391955" lon="10.6711017"><ele>102.25</ele><time>2026-04-11T08:43:15.449Z</time></trkpt><trkpt lat="45.3919533" lon="10.670975"><ele>103.0</ele><time>2026-04-11T08:43:16.442Z</time></trkpt><trkpt lat="45.39198" lon="10.6708117"><ele>103.0</ele><time>2026-04-11T08:43:17.442Z</time></trkpt><trkpt lat="45.3919983" lon="10.6706683"><ele>103.0</ele><time>2026-04-11T08:43:18.459Z</time></trkpt><trkpt lat="45.3920367" lon="10.6704667"><ele>103.0</ele><time>2026-04-11T08:43:19.437Z</time></trkpt><trkpt lat="45.3920417" lon="10.6703167"><ele>103.0</ele><time>2026-04-11T08:43:20.441Z</time></trkpt><trkpt lat="45.3920667" lon="10.6701833"><ele>102.80000000000001</ele><time>2026-04-11T08:43:22.441Z</time></trkpt><trkpt lat="45.3921667" lon="10.67019"><ele>102.6</ele><time>2026-04-11T08:43:24.449Z</time></trkpt><trkpt lat="45.392285" lon="10.6702567"><ele>102.4</ele><time>2026-04-11T08:43:26.441Z</time></trkpt><trkpt lat="45.3923517" lon="10.6703"><ele>102.19999999999999</ele><time>2026-04-11T08:43:27.445Z</time></trkpt><trkpt lat="45.3924333" lon="10.6703383"><ele>102.0</ele><time>2026-04-11T08:43:28.449Z</time></trkpt><trkpt lat="45.3925267" lon="10.6703883"><ele>103.0</ele><time>2026-04-11T08:43:29.438Z</time></trkpt><trkpt lat="45.3926117" lon="10.6704233"><ele>104.0</ele><time>2026-04-11T08:43:30.459Z</time></trkpt><trkpt lat="45.3926883" lon="10.6704617"><ele>104.99999999999999</ele><time>2026-04-11T08:43:31.437Z</time></trkpt><trkpt lat="45.39277" lon="10.6704717"><ele>106.0</ele><time>2026-04-11T08:43:32.439Z</time></trkpt><trkpt lat="45.39284" lon="10.6704783"><ele>107.0</ele><time>2026-04-11T08:43:33.447Z</time></trkpt><trkpt lat="45.3929717" lon="10.6704733"><ele>107.75</ele><time>2026-04-11T08:43:35.437Z</time></trkpt><trkpt lat="45.393095" lon="10.6705117"><ele>108.5</ele><time>2026-04-11T08:43:37.442Z</time></trkpt><trkpt lat="45.3931983" lon="10.6704867"><ele>109.25</ele><time>2026-04-11T08:43:39.45Z</time></trkpt><trkpt lat="45.3932967" lon="10.670335"><ele>110.0</ele><time>2026-04-11T08:43:41.442Z</time></trkpt><trkpt lat="45.39335" lon="10.67023"><ele>110.4</ele><time>2026-04-11T08:43:42.44Z</time></trkpt><trkpt lat="45.393405" lon="10.670105"><ele>110.8</ele><time>2026-04-11T08:43:43.443Z</time></trkpt><trkpt lat="45.3934583" lon="10.6699733"><ele>111.19999999999999</ele><time>2026-04-11T08:43:44.44Z</time></trkpt><trkpt lat="45.3935217" lon="10.6698933"><ele>111.6</ele><time>2026-04-11T08:43:45.437Z</time></trkpt><trkpt lat="45.3935917" lon="10.669805"><ele>112.0</ele><time>2026-04-11T08:43:46.441Z</time></trkpt><trkpt lat="45.3936567" lon="10.6697367"><ele>112.0</ele><time>2026-04-11T08:43:47.441Z</time></trkpt><trkpt lat="45.393735" lon="10.669695"><ele>112.0</ele><time>2026-04-11T08:43:48.446Z</time></trkpt><trkpt lat="45.39382" lon="10.6696833"><ele>112.0</ele><time>2026-04-11T08:43:49.45Z</time></trkpt><trkpt lat="45.3938817" lon="10.66965"><ele>112.0</ele><time>2026-04-11T08:43:50.446Z</time></trkpt><trkpt lat="45.3939417" lon="10.6696033"><ele>112.0</ele><time>2026-04-11T08:43:51.437Z</time></trkpt><trkpt lat="45.3939933" lon="10.669545"><ele>112.0</ele><time>2026-04-11T08:43:52.457Z</time></trkpt><trkpt lat="45.3940417" lon="10.6694617"><ele>112.0</ele><time>2026-04-11T08:43:53.445Z</time></trkpt><trkpt lat="45.3940833" lon="10.6693583"><ele>113.00000000000001</ele><time>2026-04-11T08:43:54.441Z</time></trkpt><trkpt lat="45.3941317" lon="10.669245"><ele>114.0</ele><time>2026-04-11T08:43:55.445Z</time></trkpt><trkpt lat="45.3941633" lon="10.66915"><ele>115.0</ele><time>2026-04-11T08:43:56.463Z</time></trkpt><trkpt lat="45.3942033" lon="10.6690617"><ele>116.0</ele><time>2026-04-11T08:43:57.44Z</time></trkpt><trkpt lat="45.3942633" lon="10.6689883"><ele>117.00000000000001</ele><time>2026-04-11T08:43:58.434Z</time></trkpt><trkpt lat="45.394335" lon="10.6689233"><ele>118.0</ele><time>2026-04-11T08:43:59.445Z</time></trkpt><trkpt lat="45.39442" lon="10.6688767"><ele>118.0</ele><time>2026-04-11T08:44:00.445Z</time></trkpt><trkpt lat="45.3945183" lon="10.66884"><ele>118.00000000000001</ele><time>2026-04-11T08:44:01.438Z</time></trkpt><trkpt lat="45.3946083" lon="10.6688017"><ele>118.00000000000001</ele><time>2026-04-11T08:44:02.454Z</time></trkpt><trkpt lat="45.39469" lon="10.66876"><ele>118.0</ele><time>2026-04-11T08:44:03.437Z</time></trkpt><trkpt lat="45.394775" lon="10.6687133"><ele>118.0</ele><time>2026-04-11T08:44:04.44Z</time></trkpt><trkpt lat="45.39486" lon="10.6686783"><ele>117.25</ele><time>2026-04-11T08:44:05.441Z</time></trkpt><trkpt lat="45.3949467" lon="10.6686483"><ele>116.5</ele><time>2026-04-11T08:44:06.454Z</time></trkpt><trkpt lat="45.3950817" lon="10.6686617"><ele>115.75</ele><time>2026-04-11T08:44:07.443Z</time></trkpt><trkpt lat="45.3952283" lon="10.6686633"><ele>115.0</ele><time>2026-04-11T08:44:08.438Z</time></trkpt><trkpt lat="45.395365" lon="10.6685817"><ele>117.0</ele><time>2026-04-11T08:44:09.444Z</time></trkpt><trkpt lat="45.39548" lon="10.6685517"><ele>119.0</ele><time>2026-04-11T08:44:10.442Z</time></trkpt><trkpt lat="45.3955883" lon="10.66851"><ele>121.0</ele><time>2026-04-11T08:44:11.44Z</time></trkpt><trkpt lat="45.3956983" lon="10.6684633"><ele>123.0</ele><time>2026-04-11T08:44:12.448Z</time></trkpt><trkpt lat="45.3958017" lon="10.668415"><ele>123.2</ele><time>2026-04-11T08:44:13.458Z</time></trkpt><trkpt lat="45.39589" lon="10.6683667"><ele>123.4</ele><time>2026-04-11T08:44:14.448Z</time></trkpt><trkpt lat="45.3959967" lon="10.668295"><ele>123.60000000000001</ele><time>2026-04-11T08:44:15.442Z</time></trkpt><trkpt lat="45.3961" lon="10.6682267"><ele>123.80000000000001</ele><time>2026-04-11T08:44:16.437Z</time></trkpt><trkpt lat="45.39621" lon="10.668165"><ele>124.0</ele><time>2026-04-11T08:44:17.438Z</time></trkpt><trkpt lat="45.3963033" lon="10.6681017"><ele>123.0</ele><time>2026-04-11T08:44:18.454Z</time></trkpt><trkpt lat="45.3963833" lon="10.6680517"><ele>122.0</ele><time>2026-04-11T08:44:19.446Z</time></trkpt><trkpt lat="45.3965117" lon="10.6679867"><ele>121.0</ele><time>2026-04-11T08:44:20.439Z</time></trkpt><trkpt lat="45.396605" lon="10.66793"><ele>120.0</ele><time>2026-04-11T08:44:21.448Z</time></trkpt><trkpt lat="45.3966867" lon="10.667875"><ele>119.0</ele><time>2026-04-11T08:44:22.442Z</time></trkpt><trkpt lat="45.3967767" lon="10.6678117"><ele>120.5</ele><time>2026-04-11T08:44:23.435Z</time></trkpt><trkpt lat="45.39687" lon="10.6677167"><ele>122.0</ele><time>2026-04-11T08:44:24.445Z</time></trkpt><trkpt lat="45.396965" lon="10.667615"><ele>123.5</ele><time>2026-04-11T08:44:25.441Z</time></trkpt><trkpt lat="45.3970633" lon="10.6675183"><ele>125.0</ele><time>2026-04-11T08:44:26.45Z</time></trkpt><trkpt lat="45.3971617" lon="10.6674383"><ele>124.4</ele><time>2026-04-11T08:44:27.44Z</time></trkpt><trkpt lat="45.39727" lon="10.6673717"><ele>123.8</ele><time>2026-04-11T08:44:28.447Z</time></trkpt><trkpt lat="45.3973517" lon="10.6674067"><ele>123.19999999999999</ele><time>2026-04-11T08:44:29.436Z</time></trkpt><trkpt lat="45.3974383" lon="10.667355"><ele>122.6</ele><time>2026-04-11T08:44:30.447Z</time></trkpt><trkpt lat="45.39752" lon="10.6673067"><ele>122.0</ele><time>2026-04-11T08:44:31.453Z</time></trkpt><trkpt lat="45.3975867" lon="10.6672383"><ele>121.99999999999999</ele><time>2026-04-11T08:44:32.455Z</time></trkpt><trkpt lat="45.3976283" lon="10.6671233"><ele>122.0</ele><time>2026-04-11T08:44:33.306Z</time></trkpt><trkpt lat="45.39767" lon="10.6670183"><ele>122.0</ele><time>2026-04-11T08:44:34.33Z</time></trkpt><trkpt lat="45.3977083" lon="10.6669183"><ele>122.0</ele><time>2026-04-11T08:44:35.309Z</time></trkpt><trkpt lat="45.3977883" lon="10.6668017"><ele>121.99999999999999</ele><time>2026-04-11T08:44:37.355Z</time></trkpt><trkpt lat="45.397855" lon="10.66678"><ele>122.0</ele><time>2026-04-11T08:44:38.081Z</time></trkpt><trkpt lat="45.3979383" lon="10.6667867"><ele>121.6</ele><time>2026-04-11T08:44:39.071Z</time></trkpt><trkpt lat="45.3980333" lon="10.666805"><ele>121.19999999999999</ele><time>2026-04-11T08:44:40.072Z</time></trkpt><trkpt lat="45.398135" lon="10.6668517"><ele>120.8</ele><time>2026-04-11T08:44:41.081Z</time></trkpt><trkpt lat="45.3982533" lon="10.6668767"><ele>120.4</ele><time>2026-04-11T08:44:42.073Z</time></trkpt><trkpt lat="45.3983433" lon="10.666905"><ele>120.0</ele><time>2026-04-11T08:44:43.077Z</time></trkpt><trkpt lat="45.3984467" lon="10.666975"><ele>120.0</ele><time>2026-04-11T08:44:44.08Z</time></trkpt><trkpt lat="45.3985117" lon="10.667085"><ele>120.0</ele><time>2026-04-11T08:44:45.082Z</time></trkpt><trkpt lat="45.3985867" lon="10.66719"><ele>120.0</ele><time>2026-04-11T08:44:46.073Z</time></trkpt><trkpt lat="45.398685" lon="10.6672567"><ele>120.0</ele><time>2026-04-11T08:44:47.085Z</time></trkpt><trkpt lat="45.3987833" lon="10.6673067"><ele>120.0</ele><time>2026-04-11T08:44:48.09Z</time></trkpt><trkpt lat="45.39886" lon="10.66737"><ele>120.83333333333333</ele><time>2026-04-11T08:44:49.088Z</time></trkpt><trkpt lat="45.3989367" lon="10.6674267"><ele>121.66666666666666</ele><time>2026-04-11T08:44:50.073Z</time></trkpt><trkpt lat="45.399015" lon="10.6674767"><ele>122.5</ele><time>2026-04-11T08:44:51.078Z</time></trkpt><trkpt lat="45.3990867" lon="10.6675117"><ele>123.33333333333333</ele><time>2026-04-11T08:44:52.075Z</time></trkpt><trkpt lat="45.3991883" lon="10.6675917"><ele>124.16666666666666</ele><time>2026-04-11T08:44:54.075Z</time></trkpt><trkpt lat="45.399235" lon="10.6676917"><ele>125.0</ele><time>2026-04-11T08:44:56.077Z</time></trkpt><trkpt lat="45.39918" lon="10.6678533"><ele>125.16666666666666</ele><time>2026-04-11T08:44:58.07Z</time></trkpt><trkpt lat="45.3991467" lon="10.66794"><ele>125.33333333333333</ele><time>2026-04-11T08:44:59.068Z</time></trkpt><trkpt lat="45.3990983" lon="10.66803"><ele>125.5</ele><time>2026-04-11T08:45:00.079Z</time></trkpt><trkpt lat="45.39905" lon="10.6681217"><ele>125.66666666666666</ele><time>2026-04-11T08:45:01.066Z</time></trkpt><trkpt lat="45.3989967" lon="10.6682167"><ele>125.83333333333333</ele><time>2026-04-11T08:45:02.075Z</time></trkpt><trkpt lat="45.398945" lon="10.668315"><ele>126.0</ele><time>2026-04-11T08:45:03.068Z</time></trkpt><trkpt lat="45.3989083" lon="10.6684283"><ele>126.0</ele><time>2026-04-11T08:45:04.071Z</time></trkpt><trkpt lat="45.3988617" lon="10.6685617"><ele>126.0</ele><time>2026-04-11T08:45:05.066Z</time></trkpt><trkpt lat="45.3988033" lon="10.6686917"><ele>126.0</ele><time>2026-04-11T08:45:06.083Z</time></trkpt><trkpt lat="45.398785" lon="10.66879"><ele>126.0</ele><time>2026-04-11T08:45:07.064Z</time></trkpt><trkpt lat="45.398735" lon="10.6689433"><ele>126.0</ele><time>2026-04-11T08:45:08.071Z</time></trkpt><trkpt lat="45.3986967" lon="10.669075"><ele>126.0</ele><time>2026-04-11T08:45:09.073Z</time></trkpt><trkpt lat="45.398655" lon="10.6691633"><ele>126.0</ele><time>2026-04-11T08:45:10.076Z</time></trkpt><trkpt lat="45.398645" lon="10.6692817"><ele>126.0</ele><time>2026-04-11T08:45:11.066Z</time></trkpt><trkpt lat="45.398645" lon="10.6694333"><ele>126.0</ele><time>2026-04-11T08:45:13.072Z</time></trkpt><trkpt lat="45.3987183" lon="10.6694967"><ele>126.0</ele><time>2026-04-11T08:45:15.073Z</time></trkpt><trkpt lat="45.398865" lon="10.669535"><ele>126.16666666666667</ele><time>2026-04-11T08:45:17.074Z</time></trkpt><trkpt lat="45.398945" lon="10.669545"><ele>126.33333333333334</ele><time>2026-04-11T08:45:18.069Z</time></trkpt><trkpt lat="45.3990183" lon="10.6695483"><ele>126.5</ele><time>2026-04-11T08:45:19.07Z</time></trkpt><trkpt lat="45.3990933" lon="10.6695417"><ele>126.66666666666667</ele><time>2026-04-11T08:45:20.067Z</time></trkpt><trkpt lat="45.3991667" lon="10.66955"><ele>126.83333333333334</ele><time>2026-04-11T08:45:21.074Z</time></trkpt><trkpt lat="45.399245" lon="10.6695533"><ele>127.0</ele><time>2026-04-11T08:45:22.088Z</time></trkpt><trkpt lat="45.3993167" lon="10.6695617"><ele>127.00000000000001</ele><time>2026-04-11T08:45:23.081Z</time></trkpt><trkpt lat="45.3993867" lon="10.6695633"><ele>127.0</ele><time>2026-04-11T08:45:24.071Z</time></trkpt><trkpt lat="45.3994517" lon="10.669575"><ele>127.0</ele><time>2026-04-11T08:45:25.08Z</time></trkpt><trkpt lat="45.39955" lon="10.6695717"><ele>127.0</ele><time>2026-04-11T08:45:27.069Z</time></trkpt><trkpt lat="45.399635" lon="10.6696117"><ele>127.00000000000001</ele><time>2026-04-11T08:45:29.08Z</time></trkpt><trkpt lat="45.3997183" lon="10.6697133"><ele>127.0</ele><time>2026-04-11T08:45:31.075Z</time></trkpt><trkpt lat="45.39981" lon="10.6698383"><ele>123.66666666666667</ele><time>2026-04-11T08:45:33.08Z</time></trkpt><trkpt lat="45.3998467" lon="10.66992"><ele>120.33333333333334</ele><time>2026-04-11T08:45:34.072Z</time></trkpt><trkpt lat="45.3998733" lon="10.6700917"><ele>117.0</ele><time>2026-04-11T08:45:36.077Z</time></trkpt><trkpt lat="45.3998733" lon="10.6701883"><ele>113.66666666666666</ele><time>2026-04-11T08:45:37.071Z</time></trkpt><trkpt lat="45.3998783" lon="10.6703017"><ele>110.33333333333333</ele><time>2026-04-11T08:45:38.071Z</time></trkpt><trkpt lat="45.399885" lon="10.6704183"><ele>107.0</ele><time>2026-04-11T08:45:39.077Z</time></trkpt><trkpt lat="45.399915" lon="10.670535"><ele>107.0</ele><time>2026-04-11T08:45:40.075Z</time></trkpt><trkpt lat="45.399925" lon="10.6706633"><ele>106.99999999999999</ele><time>2026-04-11T08:45:41.09Z</time></trkpt><trkpt lat="45.3999633" lon="10.6707883"><ele>106.99999999999999</ele><time>2026-04-11T08:45:42.076Z</time></trkpt><trkpt lat="45.3999883" lon="10.670925"><ele>107.0</ele><time>2026-04-11T08:45:43.069Z</time></trkpt><trkpt lat="45.4000317" lon="10.6710433"><ele>107.0</ele><time>2026-04-11T08:45:44.091Z</time></trkpt><trkpt lat="45.4000433" lon="10.6711683"><ele>106.99999999999999</ele><time>2026-04-11T08:45:45.1Z</time></trkpt><trkpt lat="45.40009" lon="10.671275"><ele>107.0</ele><time>2026-04-11T08:45:46.079Z</time></trkpt><trkpt lat="45.4001317" lon="10.6713817"><ele>107.0</ele><time>2026-04-11T08:45:47.079Z</time></trkpt><trkpt lat="45.400185" lon="10.67146"><ele>107.0</ele><time>2026-04-11T08:45:48.086Z</time></trkpt><trkpt lat="45.4002317" lon="10.6715483"><ele>106.99999999999999</ele><time>2026-04-11T08:45:49.088Z</time></trkpt><trkpt lat="45.4002667" lon="10.6716267"><ele>107.0</ele><time>2026-04-11T08:45:50.071Z</time></trkpt><trkpt lat="45.4003267" lon="10.671745"><ele>107.0</ele><time>2026-04-11T08:45:52.077Z</time></trkpt><trkpt lat="45.40042" lon="10.6718017"><ele>106.99999999999999</ele><time>2026-04-11T08:45:54.092Z</time></trkpt><trkpt lat="45.4004983" lon="10.6717933"><ele>106.99999999999999</ele><time>2026-04-11T08:45:55.073Z</time></trkpt><trkpt lat="45.4005917" lon="10.6717833"><ele>107.0</ele><time>2026-04-11T08:45:56.074Z</time></trkpt><trkpt lat="45.4006883" lon="10.6717767"><ele>107.0</ele><time>2026-04-11T08:45:57.072Z</time></trkpt><trkpt lat="45.40079" lon="10.67176"><ele>106.19999999999999</ele><time>2026-04-11T08:45:58.077Z</time></trkpt><trkpt lat="45.4009033" lon="10.671735"><ele>105.39999999999999</ele><time>2026-04-11T08:45:59.067Z</time></trkpt><trkpt lat="45.40101" lon="10.671735"><ele>104.6</ele><time>2026-04-11T08:46:00.075Z</time></trkpt><trkpt lat="45.4011217" lon="10.6716917"><ele>103.80000000000001</ele><time>2026-04-11T08:46:01.074Z</time></trkpt><trkpt lat="45.4012283" lon="10.6716683"><ele>103.0</ele><time>2026-04-11T08:46:02.069Z</time></trkpt><trkpt lat="45.40133" lon="10.67166"><ele>102.4</ele><time>2026-04-11T08:46:03.092Z</time></trkpt><trkpt lat="45.4014283" lon="10.671625"><ele>101.80000000000001</ele><time>2026-04-11T08:46:04.071Z</time></trkpt><trkpt lat="45.401515" lon="10.6716267"><ele>101.2</ele><time>2026-04-11T08:46:05.068Z</time></trkpt><trkpt lat="45.4016283" lon="10.6716583"><ele>100.6</ele><time>2026-04-11T08:46:06.085Z</time></trkpt><trkpt lat="45.4017067" lon="10.6716433"><ele>100.0</ele><time>2026-04-11T08:46:07.084Z</time></trkpt><trkpt lat="45.401795" lon="10.67163"><ele>100.0</ele><time>2026-04-11T08:46:08.08Z</time></trkpt><trkpt lat="45.4018883" lon="10.6716117"><ele>100.0</ele><time>2026-04-11T08:46:09.082Z</time></trkpt><trkpt lat="45.4019933" lon="10.6715833"><ele>100.0</ele><time>2026-04-11T08:46:10.075Z</time></trkpt><trkpt lat="45.402105" lon="10.6715767"><ele>100.0</ele><time>2026-04-11T08:46:11.067Z</time></trkpt><trkpt lat="45.4022367" lon="10.6715583"><ele>100.0</ele><time>2026-04-11T08:46:12.073Z</time></trkpt><trkpt lat="45.4023683" lon="10.6715383"><ele>99.25</ele><time>2026-04-11T08:46:13.077Z</time></trkpt><trkpt lat="45.402485" lon="10.6715167"><ele>98.5</ele><time>2026-04-11T08:46:14.092Z</time></trkpt><trkpt lat="45.4026033" lon="10.6715167"><ele>97.75</ele><time>2026-04-11T08:46:15.068Z</time></trkpt><trkpt lat="45.40271" lon="10.6715083"><ele>97.0</ele><time>2026-04-11T08:46:16.068Z</time></trkpt><trkpt lat="45.4028217" lon="10.6715417"><ele>97.0</ele><time>2026-04-11T08:46:17.084Z</time></trkpt><trkpt lat="45.4029417" lon="10.671575"><ele>97.0</ele><time>2026-04-11T08:46:18.087Z</time></trkpt><trkpt lat="45.4029983" lon="10.6715033"><ele>97.0</ele><time>2026-04-11T08:46:19.084Z</time></trkpt><trkpt lat="45.403065" lon="10.67148"><ele>97.0</ele><time>2026-04-11T08:46:20.097Z</time></trkpt><trkpt lat="45.40313" lon="10.671435"><ele>97.0</ele><time>2026-04-11T08:46:21.09Z</time></trkpt><trkpt lat="45.4032167" lon="10.6713333"><ele>96.0</ele><time>2026-04-11T08:46:23.079Z</time></trkpt><trkpt lat="45.4032567" lon="10.67117"><ele>95.0</ele><time>2026-04-11T08:46:25.076Z</time></trkpt><trkpt lat="45.40331" lon="10.6710367"><ele>94.0</ele><time>2026-04-11T08:46:27.075Z</time></trkpt><trkpt lat="45.4034317" lon="10.6709933"><ele>93.0</ele><time>2026-04-11T08:46:29.071Z</time></trkpt><trkpt lat="45.4035283" lon="10.6710367"><ele>93.0</ele><time>2026-04-11T08:46:30.084Z</time></trkpt><trkpt lat="45.40363" lon="10.6710783"><ele>93.0</ele><time>2026-04-11T08:46:31.077Z</time></trkpt><trkpt lat="45.40374" lon="10.671155"><ele>93.0</ele><time>2026-04-11T08:46:32.07Z</time></trkpt><trkpt lat="45.4038467" lon="10.6712483"><ele>93.0</ele><time>2026-04-11T08:46:33.072Z</time></trkpt><trkpt lat="45.4039733" lon="10.6713033"><ele>91.75</ele><time>2026-04-11T08:46:34.07Z</time></trkpt><trkpt lat="45.4040633" lon="10.671325"><ele>90.5</ele><time>2026-04-11T08:46:35.074Z</time></trkpt><trkpt lat="45.4042133" lon="10.6713417"><ele>89.25</ele><time>2026-04-11T08:46:36.075Z</time></trkpt><trkpt lat="45.4043433" lon="10.671355"><ele>88.0</ele><time>2026-04-11T08:46:37.072Z</time></trkpt><trkpt lat="45.4044617" lon="10.6713617"><ele>88.0</ele><time>2026-04-11T08:46:38.075Z</time></trkpt><trkpt lat="45.4045817" lon="10.67134"><ele>88.0</ele><time>2026-04-11T08:46:39.068Z</time></trkpt><trkpt lat="45.404665" lon="10.671355"><ele>88.0</ele><time>2026-04-11T08:46:40.071Z</time></trkpt><trkpt lat="45.40473" lon="10.67138"><ele>88.0</ele><time>2026-04-11T08:46:41.065Z</time></trkpt><trkpt lat="45.4047917" lon="10.6714667"><ele>88.0</ele><time>2026-04-11T08:46:43.066Z</time></trkpt><trkpt lat="45.4048383" lon="10.6716483"><ele>89.0</ele><time>2026-04-11T08:46:45.07Z</time></trkpt><trkpt lat="45.404845" lon="10.671775"><ele>90.0</ele><time>2026-04-11T08:46:46.074Z</time></trkpt><trkpt lat="45.4048383" lon="10.67195"><ele>91.0</ele><time>2026-04-11T08:46:47.063Z</time></trkpt><trkpt lat="45.40483" lon="10.6721567"><ele>92.0</ele><time>2026-04-11T08:46:48.066Z</time></trkpt><trkpt lat="45.40485" lon="10.6723517"><ele>92.0</ele><time>2026-04-11T08:46:49.07Z</time></trkpt><trkpt lat="45.4048617" lon="10.6725483"><ele>92.0</ele><time>2026-04-11T08:46:50.068Z</time></trkpt><trkpt lat="45.4048683" lon="10.6727233"><ele>92.0</ele><time>2026-04-11T08:46:51.077Z</time></trkpt><trkpt lat="45.4048883" lon="10.6728733"><ele>92.0</ele><time>2026-04-11T08:46:52.069Z</time></trkpt><trkpt lat="45.4048983" lon="10.6730383"><ele>92.0</ele><time>2026-04-11T08:46:53.078Z</time></trkpt><trkpt lat="45.4049133" lon="10.67322"><ele>92.0</ele><time>2026-04-11T08:46:54.068Z</time></trkpt><trkpt lat="45.4049233" lon="10.673405"><ele>92.0</ele><time>2026-04-11T08:46:55.084Z</time></trkpt><trkpt lat="45.4049267" lon="10.6736"><ele>92.0</ele><time>2026-04-11T08:46:56.069Z</time></trkpt><trkpt lat="45.4049217" lon="10.6737583"><ele>91.6</ele><time>2026-04-11T08:46:57.072Z</time></trkpt><trkpt lat="45.4049383" lon="10.6739067"><ele>91.19999999999999</ele><time>2026-04-11T08:46:58.07Z</time></trkpt><trkpt lat="45.4049433" lon="10.6740367"><ele>90.8</ele><time>2026-04-11T08:46:59.083Z</time></trkpt><trkpt lat="45.4049617" lon="10.6741817"><ele>90.4</ele><time>2026-04-11T08:47:00.071Z</time></trkpt><trkpt lat="45.4049733" lon="10.67432"><ele>90.0</ele><time>2026-04-11T08:47:01.088Z</time></trkpt><trkpt lat="45.4049783" lon="10.674415"><ele>90.0</ele><time>2026-04-11T08:47:02.076Z</time></trkpt><trkpt lat="45.405005" lon="10.674565"><ele>90.0</ele><time>2026-04-11T08:47:04.069Z</time></trkpt><trkpt lat="45.4050883" lon="10.67461"><ele>90.0</ele><time>2026-04-11T08:47:07.065Z</time></trkpt><trkpt lat="45.4052017" lon="10.6745517"><ele>90.0</ele><time>2026-04-11T08:47:09.077Z</time></trkpt><trkpt lat="45.4052733" lon="10.6745067"><ele>90.0</ele><time>2026-04-11T08:47:10.091Z</time></trkpt><trkpt lat="45.4053467" lon="10.67447"><ele>90.0</ele><time>2026-04-11T08:47:11.097Z</time></trkpt><trkpt lat="45.4054267" lon="10.67444"><ele>90.0</ele><time>2026-04-11T08:47:12.07Z</time></trkpt><trkpt lat="45.4055117" lon="10.67442"><ele>90.0</ele><time>2026-04-11T08:47:13.069Z</time></trkpt><trkpt lat="45.4056083" lon="10.6744"><ele>90.0</ele><time>2026-04-11T08:47:14.073Z</time></trkpt><trkpt lat="45.4056967" lon="10.6743833"><ele>90.0</ele><time>2026-04-11T08:47:15.068Z</time></trkpt><trkpt lat="45.4057983" lon="10.6743783"><ele>90.5</ele><time>2026-04-11T08:47:16.066Z</time></trkpt><trkpt lat="45.405895" lon="10.6743583"><ele>91.0</ele><time>2026-04-11T08:47:17.072Z</time></trkpt><trkpt lat="45.40598" lon="10.6743617"><ele>91.5</ele><time>2026-04-11T08:47:18.074Z</time></trkpt><trkpt lat="45.40604" lon="10.6743917"><ele>92.0</ele><time>2026-04-11T08:47:19.065Z</time></trkpt><trkpt lat="45.4060967" lon="10.6744483"><ele>92.5</ele><time>2026-04-11T08:47:20.063Z</time></trkpt><trkpt lat="45.4061317" lon="10.6745383"><ele>93.0</ele><time>2026-04-11T08:47:21.07Z</time></trkpt><trkpt lat="45.406145" lon="10.6746867"><ele>93.2</ele><time>2026-04-11T08:47:22.071Z</time></trkpt><trkpt lat="45.4061433" lon="10.6748417"><ele>93.4</ele><time>2026-04-11T08:47:23.07Z</time></trkpt><trkpt lat="45.4061383" lon="10.6750283"><ele>93.60000000000001</ele><time>2026-04-11T08:47:24.07Z</time></trkpt><trkpt lat="45.40612" lon="10.6751683"><ele>93.80000000000001</ele><time>2026-04-11T08:47:25.071Z</time></trkpt><trkpt lat="45.4061083" lon="10.6753067"><ele>94.0</ele><time>2026-04-11T08:47:26.072Z</time></trkpt><trkpt lat="45.406095" lon="10.6754283"><ele>94.0</ele><time>2026-04-11T08:47:27.07Z</time></trkpt><trkpt lat="45.4060667" lon="10.6755617"><ele>94.0</ele><time>2026-04-11T08:47:28.066Z</time></trkpt><trkpt lat="45.4060267" lon="10.6757017"><ele>94.0</ele><time>2026-04-11T08:47:29.068Z</time></trkpt><trkpt lat="45.40599" lon="10.675855"><ele>94.0</ele><time>2026-04-11T08:47:30.069Z</time></trkpt><trkpt lat="45.4059483" lon="10.6760183"><ele>94.0</ele><time>2026-04-11T08:47:31.069Z</time></trkpt><trkpt lat="45.4059033" lon="10.6761817"><ele>94.0</ele><time>2026-04-11T08:47:32.068Z</time></trkpt><trkpt lat="45.405855" lon="10.6763433"><ele>94.0</ele><time>2026-04-11T08:47:33.075Z</time></trkpt><trkpt lat="45.4058217" lon="10.6765217"><ele>94.0</ele><time>2026-04-11T08:47:34.072Z</time></trkpt><trkpt lat="45.4057867" lon="10.6766983"><ele>94.0</ele><time>2026-04-11T08:47:35.065Z</time></trkpt><trkpt lat="45.4057483" lon="10.6768867"><ele>93.5</ele><time>2026-04-11T08:47:36.077Z</time></trkpt><trkpt lat="45.4057183" lon="10.67706"><ele>93.0</ele><time>2026-04-11T08:47:37.073Z</time></trkpt><trkpt lat="45.40569" lon="10.6772417"><ele>92.5</ele><time>2026-04-11T08:47:38.068Z</time></trkpt><trkpt lat="45.4056717" lon="10.6774133"><ele>92.0</ele><time>2026-04-11T08:47:39.064Z</time></trkpt><trkpt lat="45.4056533" lon="10.6775783"><ele>92.0</ele><time>2026-04-11T08:47:40.078Z</time></trkpt><trkpt lat="45.4056383" lon="10.67773"><ele>92.0</ele><time>2026-04-11T08:47:41.065Z</time></trkpt><trkpt lat="45.4056283" lon="10.6778833"><ele>92.0</ele><time>2026-04-11T08:47:42.083Z</time></trkpt><trkpt lat="45.405655" lon="10.678025"><ele>92.0</ele><time>2026-04-11T08:47:43.074Z</time></trkpt><trkpt lat="45.4056733" lon="10.678145"><ele>92.0</ele><time>2026-04-11T08:47:44.076Z</time></trkpt><trkpt lat="45.4056717" lon="10.6783"><ele>91.39999999999999</ele><time>2026-04-11T08:47:45.07Z</time></trkpt><trkpt lat="45.40571" lon="10.6784117"><ele>90.8</ele><time>2026-04-11T08:47:46.068Z</time></trkpt><trkpt lat="45.4057467" lon="10.6785233"><ele>90.2</ele><time>2026-04-11T08:47:47.072Z</time></trkpt><trkpt lat="45.405795" lon="10.6786517"><ele>89.6</ele><time>2026-04-11T08:47:48.068Z</time></trkpt><trkpt lat="45.405845" lon="10.6787567"><ele>89.0</ele><time>2026-04-11T08:47:49.07Z</time></trkpt><trkpt lat="45.4059183" lon="10.678855"><ele>88.66666666666667</ele><time>2026-04-11T08:47:50.079Z</time></trkpt><trkpt lat="45.4059867" lon="10.6789017"><ele>88.33333333333334</ele><time>2026-04-11T08:47:51.063Z</time></trkpt><trkpt lat="45.40606" lon="10.67895"><ele>88.0</ele><time>2026-04-11T08:47:52.069Z</time></trkpt><trkpt lat="45.4061417" lon="10.6789783"><ele>87.66666666666667</ele><time>2026-04-11T08:47:53.082Z</time></trkpt><trkpt lat="45.406235" lon="10.6789967"><ele>87.33333333333333</ele><time>2026-04-11T08:47:54.075Z</time></trkpt><trkpt lat="45.406335" lon="10.678965"><ele>87.0</ele><time>2026-04-11T08:47:55.071Z</time></trkpt><trkpt lat="45.4064333" lon="10.6789283"><ele>88.0</ele><time>2026-04-11T08:47:56.073Z</time></trkpt><trkpt lat="45.406545" lon="10.67892"><ele>89.0</ele><time>2026-04-11T08:47:57.069Z</time></trkpt><trkpt lat="45.4066683" lon="10.678905"><ele>90.0</ele><time>2026-04-11T08:47:58.07Z</time></trkpt><trkpt lat="45.4068083" lon="10.678895"><ele>91.0</ele><time>2026-04-11T08:47:59.068Z</time></trkpt><trkpt lat="45.4069033" lon="10.67888"><ele>91.0</ele><time>2026-04-11T08:48:00.068Z</time></trkpt><trkpt lat="45.407025" lon="10.6788817"><ele>91.0</ele><time>2026-04-11T08:48:01.074Z</time></trkpt><trkpt lat="45.4071283" lon="10.6789167"><ele>91.0</ele><time>2026-04-11T08:48:02.084Z</time></trkpt><trkpt lat="45.4072267" lon="10.6789683"><ele>91.0</ele><time>2026-04-11T08:48:03.075Z</time></trkpt><trkpt lat="45.4072933" lon="10.67897"><ele>91.0</ele><time>2026-04-11T08:48:04.072Z</time></trkpt><trkpt lat="45.4073667" lon="10.67899"><ele>91.66666666666666</ele><time>2026-04-11T08:48:05.078Z</time></trkpt><trkpt lat="45.4074467" lon="10.679"><ele>92.33333333333333</ele><time>2026-04-11T08:48:06.084Z</time></trkpt><trkpt lat="45.407525" lon="10.6789983"><ele>93.0</ele><time>2026-04-11T08:48:07.068Z</time></trkpt><trkpt lat="45.407615" lon="10.6789983"><ele>93.66666666666667</ele><time>2026-04-11T08:48:08.072Z</time></trkpt><trkpt lat="45.4077067" lon="10.679005"><ele>94.33333333333334</ele><time>2026-04-11T08:48:09.073Z</time></trkpt><trkpt lat="45.4078017" lon="10.6790233"><ele>95.0</ele><time>2026-04-11T08:48:10.072Z</time></trkpt><trkpt lat="45.4079217" lon="10.6790483"><ele>95.2</ele><time>2026-04-11T08:48:11.072Z</time></trkpt><trkpt lat="45.4080183" lon="10.6790417"><ele>95.4</ele><time>2026-04-11T08:48:12.074Z</time></trkpt><trkpt lat="45.4081217" lon="10.6790333"><ele>95.6</ele><time>2026-04-11T08:48:13.071Z</time></trkpt><trkpt lat="45.4082317" lon="10.6790233"><ele>95.8</ele><time>2026-04-11T08:48:14.07Z</time></trkpt><trkpt lat="45.40834" lon="10.6790433"><ele>96.0</ele><time>2026-04-11T08:48:15.079Z</time></trkpt><trkpt lat="45.4084683" lon="10.6790717"><ele>96.0</ele><time>2026-04-11T08:48:16.092Z</time></trkpt><trkpt lat="45.4085933" lon="10.67909"><ele>96.0</ele><time>2026-04-11T08:48:17.071Z</time></trkpt><trkpt lat="45.4087067" lon="10.679105"><ele>96.0</ele><time>2026-04-11T08:48:18.09Z</time></trkpt><trkpt lat="45.4088117" lon="10.6791083"><ele>96.0</ele><time>2026-04-11T08:48:19.077Z</time></trkpt><trkpt lat="45.4089033" lon="10.6791083"><ele>96.0</ele><time>2026-04-11T08:48:20.074Z</time></trkpt><trkpt lat="45.4089717" lon="10.6791317"><ele>96.0</ele><time>2026-04-11T08:48:21.08Z</time></trkpt><trkpt lat="45.4090417" lon="10.679155"><ele>96.0</ele><time>2026-04-11T08:48:22.087Z</time></trkpt><trkpt lat="45.4091083" lon="10.6791983"><ele>96.0</ele><time>2026-04-11T08:48:23.068Z</time></trkpt><trkpt lat="45.4091517" lon="10.6792833"><ele>96.0</ele><time>2026-04-11T08:48:24.099Z</time></trkpt><trkpt lat="45.4091867" lon="10.6794083"><ele>96.0</ele><time>2026-04-11T08:48:25.068Z</time></trkpt><trkpt lat="45.4092083" lon="10.67953"><ele>96.0</ele><time>2026-04-11T08:48:26.072Z</time></trkpt><trkpt lat="45.409215" lon="10.6796717"><ele>96.0</ele><time>2026-04-11T08:48:27.077Z</time></trkpt><trkpt lat="45.409205" lon="10.67982"><ele>96.0</ele><time>2026-04-11T08:48:28.096Z</time></trkpt><trkpt lat="45.4091933" lon="10.679975"><ele>96.0</ele><time>2026-04-11T08:48:29.084Z</time></trkpt><trkpt lat="45.4091733" lon="10.680145"><ele>96.0</ele><time>2026-04-11T08:48:30.076Z</time></trkpt><trkpt lat="45.409165" lon="10.68029"><ele>96.0</ele><time>2026-04-11T08:48:31.076Z</time></trkpt><trkpt lat="45.409165" lon="10.6804133"><ele>95.8</ele><time>2026-04-11T08:48:32.085Z</time></trkpt><trkpt lat="45.4091617" lon="10.680545"><ele>95.6</ele><time>2026-04-11T08:48:33.072Z</time></trkpt><trkpt lat="45.40914" lon="10.6806883"><ele>95.4</ele><time>2026-04-11T08:48:34.075Z</time></trkpt><trkpt lat="45.409115" lon="10.680835"><ele>95.2</ele><time>2026-04-11T08:48:35.071Z</time></trkpt><trkpt lat="45.4090767" lon="10.6809833"><ele>95.0</ele><time>2026-04-11T08:48:36.071Z</time></trkpt><trkpt lat="45.40904" lon="10.681125"><ele>94.75</ele><time>2026-04-11T08:48:37.083Z</time></trkpt><trkpt lat="45.4089983" lon="10.68129"><ele>94.5</ele><time>2026-04-11T08:48:38.079Z</time></trkpt><trkpt lat="45.4089583" lon="10.6814667"><ele>94.25</ele><time>2026-04-11T08:48:39.082Z</time></trkpt><trkpt lat="45.4089517" lon="10.68164"><ele>94.0</ele><time>2026-04-11T08:48:40.096Z</time></trkpt><trkpt lat="45.4089167" lon="10.6818367"><ele>94.0</ele><time>2026-04-11T08:48:41.088Z</time></trkpt><trkpt lat="45.40887" lon="10.6820133"><ele>94.0</ele><time>2026-04-11T08:48:42.091Z</time></trkpt><trkpt lat="45.4088083" lon="10.6822"><ele>94.0</ele><time>2026-04-11T08:48:43.073Z</time></trkpt><trkpt lat="45.40876" lon="10.682395"><ele>94.0</ele><time>2026-04-11T08:48:44.078Z</time></trkpt><trkpt lat="45.4087033" lon="10.6825867"><ele>93.0</ele><time>2026-04-11T08:48:45.072Z</time></trkpt><trkpt lat="45.4086617" lon="10.6827833"><ele>92.0</ele><time>2026-04-11T08:48:46.078Z</time></trkpt><trkpt lat="45.408595" lon="10.6829533"><ele>91.0</ele><time>2026-04-11T08:48:47.088Z</time></trkpt><trkpt lat="45.4085233" lon="10.68314"><ele>90.0</ele><time>2026-04-11T08:48:48.085Z</time></trkpt><trkpt lat="45.4084517" lon="10.683315"><ele>90.0</ele><time>2026-04-11T08:48:49.1Z</time></trkpt><trkpt lat="45.4084" lon="10.6834733"><ele>90.0</ele><time>2026-04-11T08:48:50.078Z</time></trkpt><trkpt lat="45.4083567" lon="10.6836417"><ele>90.0</ele><time>2026-04-11T08:48:51.071Z</time></trkpt><trkpt lat="45.408305" lon="10.6838217"><ele>90.0</ele><time>2026-04-11T08:48:52.071Z</time></trkpt><trkpt lat="45.4082533" lon="10.6840017"><ele>90.2</ele><time>2026-04-11T08:48:53.087Z</time></trkpt><trkpt lat="45.4082267" lon="10.684165"><ele>90.4</ele><time>2026-04-11T08:48:54.098Z</time></trkpt><trkpt lat="45.4081967" lon="10.68433"><ele>90.6</ele><time>2026-04-11T08:48:55.075Z</time></trkpt><trkpt lat="45.4081783" lon="10.6844583"><ele>90.8</ele><time>2026-04-11T08:48:56.089Z</time></trkpt><trkpt lat="45.4081783" lon="10.6845767"><ele>91.0</ele><time>2026-04-11T08:48:57.083Z</time></trkpt><trkpt lat="45.4081983" lon="10.684705"><ele>91.33333333333333</ele><time>2026-04-11T08:48:58.085Z</time></trkpt><trkpt lat="45.4082183" lon="10.684795"><ele>91.66666666666666</ele><time>2026-04-11T08:48:59.087Z</time></trkpt><trkpt lat="45.4082533" lon="10.6848783"><ele>92.0</ele><time>2026-04-11T08:49:00.09Z</time></trkpt><trkpt lat="45.4083067" lon="10.68496"><ele>92.33333333333333</ele><time>2026-04-11T08:49:01.09Z</time></trkpt><trkpt lat="45.4083733" lon="10.6850433"><ele>92.66666666666667</ele><time>2026-04-11T08:49:02.089Z</time></trkpt><trkpt lat="45.4084417" lon="10.685125"><ele>93.0</ele><time>2026-04-11T08:49:03.077Z</time></trkpt><trkpt lat="45.4085167" lon="10.6852"><ele>93.16666666666667</ele><time>2026-04-11T08:49:04.062Z</time></trkpt><trkpt lat="45.4085933" lon="10.6852983"><ele>93.33333333333333</ele><time>2026-04-11T08:49:05.076Z</time></trkpt><trkpt lat="45.4086633" lon="10.685405"><ele>93.5</ele><time>2026-04-11T08:49:06.072Z</time></trkpt><trkpt lat="45.408725" lon="10.6855017"><ele>93.66666666666666</ele><time>2026-04-11T08:49:07.079Z</time></trkpt><trkpt lat="45.4087833" lon="10.6855867"><ele>93.83333333333333</ele><time>2026-04-11T08:49:08.075Z</time></trkpt><trkpt lat="45.4088333" lon="10.685645"><ele>94.0</ele><time>2026-04-11T08:49:09.077Z</time></trkpt><trkpt lat="45.4089017" lon="10.6857083"><ele>94.16666666666666</ele><time>2026-04-11T08:49:41.073Z</time></trkpt><trkpt lat="45.4089783" lon="10.6857817"><ele>94.33333333333333</ele><time>2026-04-11T08:49:43.067Z</time></trkpt><trkpt lat="45.4090317" lon="10.6858367"><ele>94.5</ele><time>2026-04-11T08:49:44.072Z</time></trkpt><trkpt lat="45.409085" lon="10.6859167"><ele>94.66666666666667</ele><time>2026-04-11T08:49:45.076Z</time></trkpt><trkpt lat="45.409135" lon="10.6860133"><ele>94.83333333333334</ele><time>2026-04-11T08:49:46.067Z</time></trkpt><trkpt lat="45.409185" lon="10.6861183"><ele>95.0</ele><time>2026-04-11T08:49:47.063Z</time></trkpt><trkpt lat="45.40928" lon="10.6862267"><ele>95.0</ele><time>2026-04-11T08:49:48.083Z</time></trkpt><trkpt lat="45.409305" lon="10.6863367"><ele>95.0</ele><time>2026-04-11T08:49:49.067Z</time></trkpt><trkpt lat="45.4093283" lon="10.6864417"><ele>95.0</ele><time>2026-04-11T08:49:50.08Z</time></trkpt><trkpt lat="45.4093467" lon="10.6865333"><ele>95.0</ele><time>2026-04-11T08:49:51.069Z</time></trkpt><trkpt lat="45.409365" lon="10.68662"><ele>95.0</ele><time>2026-04-11T08:49:52.068Z</time></trkpt><trkpt lat="45.4093767" lon="10.68674"><ele>95.0</ele><time>2026-04-11T08:49:54.087Z</time></trkpt><trkpt lat="45.40932" lon="10.6867933"><ele>95.0</ele><time>2026-04-11T08:49:56.067Z</time></trkpt><trkpt lat="45.4092567" lon="10.6868067"><ele>95.0</ele><time>2026-04-11T08:49:57.073Z</time></trkpt><trkpt lat="45.40918" lon="10.6868317"><ele>95.0</ele><time>2026-04-11T08:49:58.083Z</time></trkpt><trkpt lat="45.4090967" lon="10.6868583"><ele>95.0</ele><time>2026-04-11T08:49:59.065Z</time></trkpt><trkpt lat="45.409005" lon="10.6868917"><ele>95.0</ele><time>2026-04-11T08:50:00.072Z</time></trkpt><trkpt lat="45.4089083" lon="10.6869233"><ele>95.0</ele><time>2026-04-11T08:50:01.07Z</time></trkpt><trkpt lat="45.4088217" lon="10.686945"><ele>95.0</ele><time>2026-04-11T08:50:02.065Z</time></trkpt><trkpt lat="45.408745" lon="10.6869633"><ele>95.0</ele><time>2026-04-11T08:50:03.079Z</time></trkpt><trkpt lat="45.4086783" lon="10.6869767"><ele>95.0</ele><time>2026-04-11T08:50:04.072Z</time></trkpt><trkpt lat="45.4085867" lon="10.687015"><ele>95.0</ele><time>2026-04-11T08:50:06.069Z</time></trkpt><trkpt lat="45.40853" lon="10.687065"><ele>95.0</ele><time>2026-04-11T08:50:20.065Z</time></trkpt><trkpt lat="45.4084567" lon="10.687095"><ele>95.0</ele><time>2026-04-11T08:50:21.066Z</time></trkpt><trkpt lat="45.40836" lon="10.6871367"><ele>95.0</ele><time>2026-04-11T08:50:22.07Z</time></trkpt><trkpt lat="45.4082517" lon="10.68718"><ele>95.0</ele><time>2026-04-11T08:50:23.082Z</time></trkpt><trkpt lat="45.40813" lon="10.687235"><ele>95.0</ele><time>2026-04-11T08:50:24.069Z</time></trkpt><trkpt lat="45.408" lon="10.6872917"><ele>95.0</ele><time>2026-04-11T08:50:25.067Z</time></trkpt><trkpt lat="45.4078617" lon="10.687335"><ele>95.0</ele><time>2026-04-11T08:50:26.077Z</time></trkpt><trkpt lat="45.40772" lon="10.6874033"><ele>95.0</ele><time>2026-04-11T08:50:27.063Z</time></trkpt><trkpt lat="45.40758" lon="10.687475"><ele>95.0</ele><time>2026-04-11T08:50:28.07Z</time></trkpt><trkpt lat="45.4074433" lon="10.68758"><ele>95.0</ele><time>2026-04-11T08:50:29.074Z</time></trkpt><trkpt lat="45.407325" lon="10.68774"><ele>95.0</ele><time>2026-04-11T08:50:30.068Z</time></trkpt><trkpt lat="45.4072017" lon="10.6878767"><ele>95.0</ele><time>2026-04-11T08:50:31.072Z</time></trkpt><trkpt lat="45.4070933" lon="10.6880433"><ele>95.0</ele><time>2026-04-11T08:50:32.068Z</time></trkpt><trkpt lat="45.4069967" lon="10.6882333"><ele>92.66666666666667</ele><time>2026-04-11T08:50:33.071Z</time></trkpt><trkpt lat="45.4069217" lon="10.6884267"><ele>90.33333333333333</ele><time>2026-04-11T08:50:34.071Z</time></trkpt><trkpt lat="45.4068583" lon="10.6886383"><ele>88.0</ele><time>2026-04-11T08:50:35.069Z</time></trkpt><trkpt lat="45.40683" lon="10.6888617"><ele>88.0</ele><time>2026-04-11T08:50:36.071Z</time></trkpt><trkpt lat="45.406795" lon="10.6890467"><ele>88.0</ele><time>2026-04-11T08:50:37.069Z</time></trkpt><trkpt lat="45.406765" lon="10.689245"><ele>88.0</ele><time>2026-04-11T08:50:38.073Z</time></trkpt><trkpt lat="45.4067783" lon="10.6894033"><ele>88.0</ele><time>2026-04-11T08:50:39.07Z</time></trkpt><trkpt lat="45.406755" lon="10.6895983"><ele>88.0</ele><time>2026-04-11T08:50:40.073Z</time></trkpt><trkpt lat="45.4067417" lon="10.6897767"><ele>88.0</ele><time>2026-04-11T08:50:41.073Z</time></trkpt><trkpt lat="45.4066933" lon="10.6899767"><ele>88.0</ele><time>2026-04-11T08:50:42.075Z</time></trkpt><trkpt lat="45.4066567" lon="10.6902"><ele>88.0</ele><time>2026-04-11T08:50:43.076Z</time></trkpt><trkpt lat="45.4066317" lon="10.6904067"><ele>87.0</ele><time>2026-04-11T08:50:44.072Z</time></trkpt><trkpt lat="45.4066083" lon="10.690595"><ele>86.0</ele><time>2026-04-11T08:50:45.069Z</time></trkpt><trkpt lat="45.4065983" lon="10.6907717"><ele>85.0</ele><time>2026-04-11T08:50:46.076Z</time></trkpt><trkpt lat="45.4066033" lon="10.690955"><ele>84.0</ele><time>2026-04-11T08:50:47.063Z</time></trkpt><trkpt lat="45.406615" lon="10.6911267"><ele>83.33333333333333</ele><time>2026-04-11T08:50:48.07Z</time></trkpt><trkpt lat="45.406585" lon="10.6912383"><ele>82.66666666666667</ele><time>2026-04-11T08:50:49.07Z</time></trkpt><trkpt lat="45.4065667" lon="10.6913317"><ele>82.0</ele><time>2026-04-11T08:50:50.076Z</time></trkpt><trkpt lat="45.4065517" lon="10.6914283"><ele>81.33333333333334</ele><time>2026-04-11T08:50:52.121Z</time></trkpt><trkpt lat="45.4066017" lon="10.6915017"><ele>80.66666666666667</ele><time>2026-04-11T08:50:54.067Z</time></trkpt><trkpt lat="45.4066633" lon="10.6915333"><ele>80.0</ele><time>2026-04-11T08:50:55.089Z</time></trkpt><trkpt lat="45.4067533" lon="10.6915533"><ele>80.0</ele><time>2026-04-11T08:50:56.085Z</time></trkpt><trkpt lat="45.4068683" lon="10.691585"><ele>80.0</ele><time>2026-04-11T08:50:57.069Z</time></trkpt><trkpt lat="45.40702" lon="10.6916317"><ele>80.0</ele><time>2026-04-11T08:50:58.065Z</time></trkpt><trkpt lat="45.407335" lon="10.6917817"><ele>79.66666666666667</ele><time>2026-04-11T08:51:00.07Z</time></trkpt><trkpt lat="45.4075017" lon="10.6918567"><ele>79.33333333333333</ele><time>2026-04-11T08:51:01.071Z</time></trkpt><trkpt lat="45.4076983" lon="10.6919283"><ele>79.0</ele><time>2026-04-11T08:51:02.071Z</time></trkpt><trkpt lat="45.40788" lon="10.692045"><ele>80.0</ele><time>2026-04-11T08:51:03.067Z</time></trkpt><trkpt lat="45.4080817" lon="10.6921333"><ele>81.0</ele><time>2026-04-11T08:51:04.079Z</time></trkpt><trkpt lat="45.4082783" lon="10.6922167"><ele>82.0</ele><time>2026-04-11T08:51:05.067Z</time></trkpt><trkpt lat="45.4084533" lon="10.692305"><ele>82.0</ele><time>2026-04-11T08:51:06.07Z</time></trkpt><trkpt lat="45.4086117" lon="10.69239"><ele>82.0</ele><time>2026-04-11T08:51:07.074Z</time></trkpt><trkpt lat="45.4087583" lon="10.6924867"><ele>82.0</ele><time>2026-04-11T08:51:08.067Z</time></trkpt><trkpt lat="45.408875" lon="10.6925833"><ele>82.5</ele><time>2026-04-11T08:51:09.111Z</time></trkpt><trkpt lat="45.4090083" lon="10.6926617"><ele>83.0</ele><time>2026-04-11T08:51:10.068Z</time></trkpt><trkpt lat="45.4091267" lon="10.692745"><ele>83.5</ele><time>2026-04-11T08:51:11.073Z</time></trkpt><trkpt lat="45.40921" lon="10.69289"><ele>84.0</ele><time>2026-04-11T08:51:12.064Z</time></trkpt><trkpt lat="45.4092617" lon="10.6930833"><ele>84.2</ele><time>2026-04-11T08:51:13.065Z</time></trkpt><trkpt lat="45.40929" lon="10.693245"><ele>84.4</ele><time>2026-04-11T08:51:14.094Z</time></trkpt><trkpt lat="45.4093167" lon="10.6933283"><ele>84.6</ele><time>2026-04-11T08:51:15.081Z</time></trkpt><trkpt lat="45.409385" lon="10.693345"><ele>84.8</ele><time>2026-04-11T08:51:17.074Z</time></trkpt><trkpt lat="45.4094383" lon="10.6931867"><ele>85.0</ele><time>2026-04-11T08:51:19.074Z</time></trkpt><trkpt lat="45.4094733" lon="10.6930467"><ele>85.0</ele><time>2026-04-11T08:51:20.07Z</time></trkpt><trkpt lat="45.4094917" lon="10.69289"><ele>85.0</ele><time>2026-04-11T08:51:21.082Z</time></trkpt><trkpt lat="45.4095367" lon="10.69273"><ele>85.0</ele><time>2026-04-11T08:51:22.081Z</time></trkpt><trkpt lat="45.409605" lon="10.6925483"><ele>85.0</ele><time>2026-04-11T08:51:23.078Z</time></trkpt><trkpt lat="45.4096633" lon="10.6923467"><ele>85.0</ele><time>2026-04-11T08:51:24.075Z</time></trkpt><trkpt lat="45.40975" lon="10.6921417"><ele>85.0</ele><time>2026-04-11T08:51:25.071Z</time></trkpt><trkpt lat="45.4098383" lon="10.6919167"><ele>85.0</ele><time>2026-04-11T08:51:26.072Z</time></trkpt><trkpt lat="45.40995" lon="10.6917"><ele>85.0</ele><time>2026-04-11T08:51:27.075Z</time></trkpt><trkpt lat="45.4100567" lon="10.6915117"><ele>85.0</ele><time>2026-04-11T08:51:28.07Z</time></trkpt><trkpt lat="45.4101467" lon="10.6913583"><ele>85.0</ele><time>2026-04-11T08:51:29.074Z</time></trkpt><trkpt lat="45.410275" lon="10.6912117"><ele>84.5</ele><time>2026-04-11T08:51:30.071Z</time></trkpt><trkpt lat="45.4103967" lon="10.69108"><ele>84.0</ele><time>2026-04-11T08:51:31.071Z</time></trkpt><trkpt lat="45.410515" lon="10.6909717"><ele>83.5</ele><time>2026-04-11T08:51:32.076Z</time></trkpt><trkpt lat="45.41063" lon="10.6908517"><ele>83.0</ele><time>2026-04-11T08:51:33.07Z</time></trkpt><trkpt lat="45.4107367" lon="10.690755"><ele>83.0</ele><time>2026-04-11T08:51:34.076Z</time></trkpt><trkpt lat="45.4108483" lon="10.690705"><ele>83.0</ele><time>2026-04-11T08:51:35.067Z</time></trkpt><trkpt lat="45.4109533" lon="10.6906683"><ele>83.0</ele><time>2026-04-11T08:51:36.067Z</time></trkpt><trkpt lat="45.4110633" lon="10.690625"><ele>83.0</ele><time>2026-04-11T08:51:37.077Z</time></trkpt><trkpt lat="45.4111517" lon="10.6905967"><ele>83.0</ele><time>2026-04-11T08:51:38.075Z</time></trkpt><trkpt lat="45.4112667" lon="10.69056"><ele>84.4</ele><time>2026-04-11T08:51:39.073Z</time></trkpt><trkpt lat="45.411365" lon="10.6905217"><ele>85.80000000000001</ele><time>2026-04-11T08:51:40.069Z</time></trkpt><trkpt lat="45.4114533" lon="10.6904883"><ele>87.2</ele><time>2026-04-11T08:51:41.08Z</time></trkpt><trkpt lat="45.4115583" lon="10.690475"><ele>88.6</ele><time>2026-04-11T08:51:42.067Z</time></trkpt><trkpt lat="45.4116533" lon="10.6904433"><ele>90.0</ele><time>2026-04-11T08:51:43.075Z</time></trkpt><trkpt lat="45.411725" lon="10.6904217"><ele>90.0</ele><time>2026-04-11T08:51:44.068Z</time></trkpt><trkpt lat="45.4118067" lon="10.6903317"><ele>90.0</ele><time>2026-04-11T08:51:46.078Z</time></trkpt><trkpt lat="45.4118517" lon="10.6902283"><ele>90.0</ele><time>2026-04-11T08:51:47.077Z</time></trkpt><trkpt lat="45.4118867" lon="10.6901017"><ele>90.0</ele><time>2026-04-11T08:51:48.066Z</time></trkpt><trkpt lat="45.4119133" lon="10.6899833"><ele>90.0</ele><time>2026-04-11T08:51:49.068Z</time></trkpt><trkpt lat="45.4119367" lon="10.68987"><ele>89.66666666666667</ele><time>2026-04-11T08:51:50.073Z</time></trkpt><trkpt lat="45.4119683" lon="10.68978"><ele>89.33333333333333</ele><time>2026-04-11T08:51:51.063Z</time></trkpt><trkpt lat="45.4120167" lon="10.6897083"><ele>89.0</ele><time>2026-04-11T08:51:52.074Z</time></trkpt><trkpt lat="45.412085" lon="10.6896583"><ele>88.66666666666666</ele><time>2026-04-11T08:51:53.074Z</time></trkpt><trkpt lat="45.4121733" lon="10.6896217"><ele>88.33333333333333</ele><time>2026-04-11T08:51:54.067Z</time></trkpt><trkpt lat="45.412295" lon="10.68962"><ele>88.0</ele><time>2026-04-11T08:51:55.067Z</time></trkpt><trkpt lat="45.4124633" lon="10.6895983"><ele>88.0</ele><time>2026-04-11T08:51:56.07Z</time></trkpt><trkpt lat="45.4126283" lon="10.6895917"><ele>88.0</ele><time>2026-04-11T08:51:57.067Z</time></trkpt><trkpt lat="45.41278" lon="10.689585"><ele>88.0</ele><time>2026-04-11T08:51:58.07Z</time></trkpt><trkpt lat="45.412955" lon="10.689605"><ele>89.33333333333333</ele><time>2026-04-11T08:51:59.069Z</time></trkpt><trkpt lat="45.413115" lon="10.6896267"><ele>90.66666666666667</ele><time>2026-04-11T08:52:00.073Z</time></trkpt><trkpt lat="45.4132817" lon="10.6896967"><ele>92.0</ele><time>2026-04-11T08:52:01.067Z</time></trkpt><trkpt lat="45.4134717" lon="10.6897633"><ele>92.0</ele><time>2026-04-11T08:52:02.073Z</time></trkpt><trkpt lat="45.413655" lon="10.689795"><ele>92.0</ele><time>2026-04-11T08:52:03.072Z</time></trkpt><trkpt lat="45.4138433" lon="10.6898333"><ele>92.0</ele><time>2026-04-11T08:52:04.066Z</time></trkpt><trkpt lat="45.4140183" lon="10.68987"><ele>91.33333333333334</ele><time>2026-04-11T08:52:05.08Z</time></trkpt><trkpt lat="45.4141833" lon="10.6899033"><ele>90.66666666666667</ele><time>2026-04-11T08:52:06.07Z</time></trkpt><trkpt lat="45.4143517" lon="10.689945"><ele>90.0</ele><time>2026-04-11T08:52:07.065Z</time></trkpt><trkpt lat="45.4145133" lon="10.6899867"><ele>89.66666666666667</ele><time>2026-04-11T08:52:08.073Z</time></trkpt><trkpt lat="45.4146667" lon="10.6900133"><ele>89.33333333333334</ele><time>2026-04-11T08:52:09.072Z</time></trkpt><trkpt lat="45.4148183" lon="10.6900417"><ele>89.0</ele><time>2026-04-11T08:52:10.065Z</time></trkpt><trkpt lat="45.41496" lon="10.6900667"><ele>89.0</ele><time>2026-04-11T08:52:11.068Z</time></trkpt><trkpt lat="45.4150967" lon="10.69009"><ele>89.0</ele><time>2026-04-11T08:52:12.072Z</time></trkpt><trkpt lat="45.41524" lon="10.69014"><ele>89.0</ele><time>2026-04-11T08:52:13.069Z</time></trkpt><trkpt lat="45.4153817" lon="10.6901867"><ele>89.0</ele><time>2026-04-11T08:52:14.07Z</time></trkpt><trkpt lat="45.4155317" lon="10.6902233"><ele>93.66666666666667</ele><time>2026-04-11T08:52:15.077Z</time></trkpt><trkpt lat="45.415685" lon="10.6902683"><ele>98.33333333333334</ele><time>2026-04-11T08:52:16.064Z</time></trkpt><trkpt lat="45.41584" lon="10.6903283"><ele>103.0</ele><time>2026-04-11T08:52:17.07Z</time></trkpt><trkpt lat="45.4159917" lon="10.6904"><ele>103.0</ele><time>2026-04-11T08:52:18.078Z</time></trkpt><trkpt lat="45.4161383" lon="10.6904683"><ele>103.0</ele><time>2026-04-11T08:52:19.082Z</time></trkpt><trkpt lat="45.4162667" lon="10.6905067"><ele>103.0</ele><time>2026-04-11T08:52:20.065Z</time></trkpt><trkpt lat="45.41637" lon="10.6906333"><ele>103.0</ele><time>2026-04-11T08:52:21.072Z</time></trkpt><trkpt lat="45.4165033" lon="10.69066"><ele>101.0</ele><time>2026-04-11T08:52:22.073Z</time></trkpt><trkpt lat="45.4166083" lon="10.6907867"><ele>99.0</ele><time>2026-04-11T08:52:23.064Z</time></trkpt><trkpt lat="45.4166833" lon="10.69093"><ele>97.0</ele><time>2026-04-11T08:52:24.096Z</time></trkpt><trkpt lat="45.4167317" lon="10.69116"><ele>95.0</ele><time>2026-04-11T08:52:25.09Z</time></trkpt><trkpt lat="45.416745" lon="10.6913283"><ele>95.0</ele><time>2026-04-11T08:52:26.079Z</time></trkpt><trkpt lat="45.4167383" lon="10.6914767"><ele>95.0</ele><time>2026-04-11T08:52:27.075Z</time></trkpt><trkpt lat="45.4167017" lon="10.6916283"><ele>95.0</ele><time>2026-04-11T08:52:28.083Z</time></trkpt><trkpt lat="45.4167" lon="10.6917633"><ele>95.0</ele><time>2026-04-11T08:52:29.068Z</time></trkpt><trkpt lat="45.41679" lon="10.69191"><ele>95.0</ele><time>2026-04-11T08:52:31.072Z</time></trkpt><trkpt lat="45.416875" lon="10.6919817"><ele>95.25</ele><time>2026-04-11T08:52:32.065Z</time></trkpt><trkpt lat="45.41698" lon="10.692055"><ele>95.5</ele><time>2026-04-11T08:52:33.059Z</time></trkpt><trkpt lat="45.417095" lon="10.6921183"><ele>95.75</ele><time>2026-04-11T08:52:34.074Z</time></trkpt><trkpt lat="45.4171967" lon="10.6921917"><ele>96.0</ele><time>2026-04-11T08:52:35.07Z</time></trkpt><trkpt lat="45.417315" lon="10.6922617"><ele>94.25</ele><time>2026-04-11T08:52:36.069Z</time></trkpt><trkpt lat="45.417425" lon="10.6923217"><ele>92.5</ele><time>2026-04-11T08:52:37.069Z</time></trkpt><trkpt lat="45.4175367" lon="10.6923833"><ele>90.75</ele><time>2026-04-11T08:52:38.071Z</time></trkpt><trkpt lat="45.4176383" lon="10.69244"><ele>89.0</ele><time>2026-04-11T08:52:39.065Z</time></trkpt><trkpt lat="45.4177417" lon="10.6925167"><ele>89.0</ele><time>2026-04-11T08:52:40.071Z</time></trkpt><trkpt lat="45.4178367" lon="10.692585"><ele>89.0</ele><time>2026-04-11T08:52:41.071Z</time></trkpt><trkpt lat="45.41793" lon="10.6926567"><ele>89.0</ele><time>2026-04-11T08:52:42.068Z</time></trkpt><trkpt lat="45.4180233" lon="10.6927233"><ele>89.0</ele><time>2026-04-11T08:52:43.068Z</time></trkpt><trkpt lat="45.4181217" lon="10.69278"><ele>89.0</ele><time>2026-04-11T08:52:44.083Z</time></trkpt><trkpt lat="45.4182167" lon="10.692795"><ele>89.4</ele><time>2026-04-11T08:52:45.066Z</time></trkpt><trkpt lat="45.4183133" lon="10.6928033"><ele>89.80000000000001</ele><time>2026-04-11T08:52:46.07Z</time></trkpt><trkpt lat="45.4184133" lon="10.6928117"><ele>90.19999999999999</ele><time>2026-04-11T08:52:47.069Z</time></trkpt><trkpt lat="45.41852" lon="10.6927967"><ele>90.6</ele><time>2026-04-11T08:52:48.064Z</time></trkpt><trkpt lat="45.4186517" lon="10.692785"><ele>91.0</ele><time>2026-04-11T08:52:49.065Z</time></trkpt><trkpt lat="45.4187833" lon="10.6927817"><ele>92.0</ele><time>2026-04-11T08:52:50.08Z</time></trkpt><trkpt lat="45.4188983" lon="10.6927433"><ele>93.0</ele><time>2026-04-11T08:52:51.068Z</time></trkpt><trkpt lat="45.4190233" lon="10.6927233"><ele>94.0</ele><time>2026-04-11T08:52:52.066Z</time></trkpt><trkpt lat="45.4191267" lon="10.6927067"><ele>95.0</ele><time>2026-04-11T08:52:53.068Z</time></trkpt><trkpt lat="45.419225" lon="10.6926933"><ele>96.0</ele><time>2026-04-11T08:52:54.067Z</time></trkpt><trkpt lat="45.4193183" lon="10.6926817"><ele>96.0</ele><time>2026-04-11T08:52:55.06Z</time></trkpt><trkpt lat="45.4194083" lon="10.6926767"><ele>96.0</ele><time>2026-04-11T08:52:56.066Z</time></trkpt><trkpt lat="45.419485" lon="10.6926917"><ele>96.0</ele><time>2026-04-11T08:52:57.072Z</time></trkpt><trkpt lat="45.4195567" lon="10.6927283"><ele>96.0</ele><time>2026-04-11T08:52:58.067Z</time></trkpt><trkpt lat="45.4196283" lon="10.6927983"><ele>96.0</ele><time>2026-04-11T08:52:59.065Z</time></trkpt><trkpt lat="45.41971" lon="10.6928817"><ele>96.0</ele><time>2026-04-11T08:53:00.086Z</time></trkpt><trkpt lat="45.4197833" lon="10.6929833"><ele>96.4</ele><time>2026-04-11T08:53:01.072Z</time></trkpt><trkpt lat="45.4198667" lon="10.6930817"><ele>96.8</ele><time>2026-04-11T08:53:02.074Z</time></trkpt><trkpt lat="45.419955" lon="10.6931867"><ele>97.2</ele><time>2026-04-11T08:53:03.086Z</time></trkpt><trkpt lat="45.4200417" lon="10.6933067"><ele>97.60000000000001</ele><time>2026-04-11T08:53:04.082Z</time></trkpt><trkpt lat="45.420125" lon="10.6933733"><ele>98.0</ele><time>2026-04-11T08:53:05.065Z</time></trkpt><trkpt lat="45.4201917" lon="10.6934417"><ele>97.99999999999999</ele><time>2026-04-11T08:53:06.083Z</time></trkpt><trkpt lat="45.42026" lon="10.6934833"><ele>98.0</ele><time>2026-04-11T08:53:07.071Z</time></trkpt><trkpt lat="45.4203233" lon="10.6934967"><ele>98.0</ele><time>2026-04-11T08:53:08.07Z</time></trkpt><trkpt lat="45.42039" lon="10.6934833"><ele>98.0</ele><time>2026-04-11T08:53:09.079Z</time></trkpt><trkpt lat="45.4204583" lon="10.6934483"><ele>97.99999999999999</ele><time>2026-04-11T08:53:10.077Z</time></trkpt><trkpt lat="45.4205183" lon="10.6933983"><ele>98.0</ele><time>2026-04-11T08:53:11.067Z</time></trkpt><trkpt lat="45.4206283" lon="10.6933283"><ele>98.25</ele><time>2026-04-11T08:53:13.084Z</time></trkpt><trkpt lat="45.4207483" lon="10.6933617"><ele>98.5</ele><time>2026-04-11T08:53:15.118Z</time></trkpt><trkpt lat="45.4208283" lon="10.6934033"><ele>98.75</ele><time>2026-04-11T08:53:16.077Z</time></trkpt><trkpt lat="45.420945" lon="10.6934767"><ele>99.0</ele><time>2026-04-11T08:53:17.08Z</time></trkpt><trkpt lat="45.42106" lon="10.6935667"><ele>99.2</ele><time>2026-04-11T08:53:18.078Z</time></trkpt><trkpt lat="45.421185" lon="10.6936417"><ele>99.4</ele><time>2026-04-11T08:53:19.071Z</time></trkpt><trkpt lat="45.4212667" lon="10.6937117"><ele>99.6</ele><time>2026-04-11T08:53:20.063Z</time></trkpt><trkpt lat="45.421325" lon="10.6938133"><ele>99.8</ele><time>2026-04-11T08:53:21.063Z</time></trkpt><trkpt lat="45.4213867" lon="10.6939117"><ele>100.0</ele><time>2026-04-11T08:53:22.071Z</time></trkpt><trkpt lat="45.42145" lon="10.6939883"><ele>100.0</ele><time>2026-04-11T08:53:23.079Z</time></trkpt><trkpt lat="45.421515" lon="10.69406"><ele>100.0</ele><time>2026-04-11T08:53:24.071Z</time></trkpt><trkpt lat="45.4215933" lon="10.6941383"><ele>100.0</ele><time>2026-04-11T08:53:25.067Z</time></trkpt><trkpt lat="45.4216817" lon="10.69422"><ele>100.0</ele><time>2026-04-11T08:53:26.08Z</time></trkpt><trkpt lat="45.4217683" lon="10.694305"><ele>100.0</ele><time>2026-04-11T08:53:27.075Z</time></trkpt><trkpt lat="45.4218433" lon="10.6943633"><ele>99.00000000000001</ele><time>2026-04-11T08:53:28.077Z</time></trkpt><trkpt lat="45.4219117" lon="10.694425"><ele>98.0</ele><time>2026-04-11T08:53:29.076Z</time></trkpt><trkpt lat="45.42197" lon="10.6945017"><ele>97.0</ele><time>2026-04-11T08:53:30.064Z</time></trkpt><trkpt lat="45.4220367" lon="10.6945667"><ele>96.0</ele><time>2026-04-11T08:53:31.071Z</time></trkpt><trkpt lat="45.422115" lon="10.694645"><ele>95.0</ele><time>2026-04-11T08:53:32.074Z</time></trkpt><trkpt lat="45.422185" lon="10.694715"><ele>94.0</ele><time>2026-04-11T08:53:33.066Z</time></trkpt><trkpt lat="45.4222467" lon="10.6947733"><ele>93.5</ele><time>2026-04-11T08:53:34.076Z</time></trkpt><trkpt lat="45.422305" lon="10.6948233"><ele>93.0</ele><time>2026-04-11T08:53:35.077Z</time></trkpt><trkpt lat="45.4223667" lon="10.6948733"><ele>92.5</ele><time>2026-04-11T08:53:36.071Z</time></trkpt><trkpt lat="45.4224267" lon="10.694925"><ele>92.0</ele><time>2026-04-11T08:53:37.07Z</time></trkpt><trkpt lat="45.4225183" lon="10.695015"><ele>91.5</ele><time>2026-04-11T08:53:39.067Z</time></trkpt><trkpt lat="45.4225783" lon="10.69505"><ele>91.0</ele><time>2026-04-11T08:53:41.079Z</time></trkpt><trkpt lat="45.42266" lon="10.6949767"><ele>91.0</ele><time>2026-04-11T08:53:43.069Z</time></trkpt><trkpt lat="45.422715" lon="10.69491"><ele>91.0</ele><time>2026-04-11T08:53:44.077Z</time></trkpt><trkpt lat="45.422785" lon="10.69483"><ele>91.0</ele><time>2026-04-11T08:53:45.069Z</time></trkpt><trkpt lat="45.422845" lon="10.6947733"><ele>91.0</ele><time>2026-04-11T08:53:46.065Z</time></trkpt><trkpt lat="45.422915" lon="10.6947433"><ele>91.0</ele><time>2026-04-11T08:53:47.07Z</time></trkpt><trkpt lat="45.42299" lon="10.6947183"><ele>91.0</ele><time>2026-04-11T08:53:48.071Z</time></trkpt><trkpt lat="45.4230533" lon="10.6946967"><ele>91.0</ele><time>2026-04-11T08:53:49.075Z</time></trkpt><trkpt lat="45.423155" lon="10.6946017"><ele>90.16666666666666</ele><time>2026-04-11T08:53:51.068Z</time></trkpt><trkpt lat="45.4232033" lon="10.69452"><ele>89.33333333333333</ele><time>2026-04-11T08:53:52.07Z</time></trkpt><trkpt lat="45.4232533" lon="10.6944267"><ele>88.5</ele><time>2026-04-11T08:53:53.067Z</time></trkpt><trkpt lat="45.4233067" lon="10.6943233"><ele>87.66666666666667</ele><time>2026-04-11T08:53:54.086Z</time></trkpt><trkpt lat="45.4233517" lon="10.694225"><ele>86.83333333333334</ele><time>2026-04-11T08:53:55.074Z</time></trkpt><trkpt lat="45.4233867" lon="10.6941283"><ele>86.0</ele><time>2026-04-11T08:53:56.072Z</time></trkpt><trkpt lat="45.423425" lon="10.694025"><ele>86.0</ele><time>2026-04-11T08:53:57.068Z</time></trkpt><trkpt lat="45.4234583" lon="10.69393"><ele>86.0</ele><time>2026-04-11T08:53:58.068Z</time></trkpt><trkpt lat="45.4234917" lon="10.6938383"><ele>86.0</ele><time>2026-04-11T08:53:59.063Z</time></trkpt><trkpt lat="45.4235283" lon="10.6937283"><ele>86.0</ele><time>2026-04-11T08:54:00.073Z</time></trkpt><trkpt lat="45.42357" lon="10.6936233"><ele>86.0</ele><time>2026-04-11T08:54:01.069Z</time></trkpt><trkpt lat="45.4236083" lon="10.693525"><ele>86.0</ele><time>2026-04-11T08:54:02.062Z</time></trkpt><trkpt lat="45.42365" lon="10.6934317"><ele>85.19999999999999</ele><time>2026-04-11T08:54:03.067Z</time></trkpt><trkpt lat="45.4236883" lon="10.6933367"><ele>84.39999999999999</ele><time>2026-04-11T08:54:04.071Z</time></trkpt><trkpt lat="45.42372" lon="10.6932233"><ele>83.6</ele><time>2026-04-11T08:54:05.064Z</time></trkpt><trkpt lat="45.4237567" lon="10.693095"><ele>82.8</ele><time>2026-04-11T08:54:06.075Z</time></trkpt><trkpt lat="45.4237933" lon="10.6929533"><ele>82.0</ele><time>2026-04-11T08:54:07.069Z</time></trkpt><trkpt lat="45.423835" lon="10.69283"><ele>82.8</ele><time>2026-04-11T08:54:08.078Z</time></trkpt><trkpt lat="45.4238733" lon="10.692695"><ele>83.6</ele><time>2026-04-11T08:54:09.067Z</time></trkpt><trkpt lat="45.4239117" lon="10.6925933"><ele>84.39999999999999</ele><time>2026-04-11T08:54:10.078Z</time></trkpt><trkpt lat="45.4239367" lon="10.6924967"><ele>85.19999999999999</ele><time>2026-04-11T08:54:11.068Z</time></trkpt><trkpt lat="45.423975" lon="10.692325"><ele>86.0</ele><time>2026-04-11T08:54:13.072Z</time></trkpt><trkpt lat="45.424015" lon="10.692215"><ele>86.0</ele><time>2026-04-11T08:54:14.075Z</time></trkpt><trkpt lat="45.4240533" lon="10.6921133"><ele>86.0</ele><time>2026-04-11T08:54:15.068Z</time></trkpt><trkpt lat="45.4240783" lon="10.6920133"><ele>86.0</ele><time>2026-04-11T08:54:16.065Z</time></trkpt><trkpt lat="45.4241017" lon="10.6919083"><ele>86.0</ele><time>2026-04-11T08:54:17.079Z</time></trkpt><trkpt lat="45.42412" lon="10.6918033"><ele>86.0</ele><time>2026-04-11T08:54:18.071Z</time></trkpt><trkpt lat="45.4241333" lon="10.6917117"><ele>86.0</ele><time>2026-04-11T08:54:19.081Z</time></trkpt><trkpt lat="45.42413" lon="10.6916017"><ele>87.6</ele><time>2026-04-11T08:54:21.084Z</time></trkpt><trkpt lat="45.424155" lon="10.6914683"><ele>89.19999999999999</ele><time>2026-04-11T08:54:23.079Z</time></trkpt><trkpt lat="45.42419" lon="10.6913833"><ele>90.80000000000001</ele><time>2026-04-11T08:54:24.078Z</time></trkpt><trkpt lat="45.4242367" lon="10.6912917"><ele>92.4</ele><time>2026-04-11T08:54:25.065Z</time></trkpt><trkpt lat="45.4242983" lon="10.69119"><ele>94.0</ele><time>2026-04-11T08:54:26.073Z</time></trkpt><trkpt lat="45.4243817" lon="10.691075"><ele>94.33333333333333</ele><time>2026-04-11T08:54:27.078Z</time></trkpt><trkpt lat="45.424455" lon="10.69096"><ele>94.66666666666666</ele><time>2026-04-11T08:54:28.076Z</time></trkpt><trkpt lat="45.4245217" lon="10.69086"><ele>95.0</ele><time>2026-04-11T08:54:29.08Z</time></trkpt><trkpt lat="45.424575" lon="10.690775"><ele>95.33333333333333</ele><time>2026-04-11T08:54:30.078Z</time></trkpt><trkpt lat="45.4246283" lon="10.6906933"><ele>95.66666666666667</ele><time>2026-04-11T08:54:31.07Z</time></trkpt><trkpt lat="45.424685" lon="10.69061"><ele>96.0</ele><time>2026-04-11T08:54:32.085Z</time></trkpt><trkpt lat="45.42474" lon="10.6905283"><ele>95.16666666666667</ele><time>2026-04-11T08:54:33.071Z</time></trkpt><trkpt lat="45.4248" lon="10.6904467"><ele>94.33333333333333</ele><time>2026-04-11T08:54:34.071Z</time></trkpt><trkpt lat="45.4248567" lon="10.6903717"><ele>93.5</ele><time>2026-04-11T08:54:35.067Z</time></trkpt><trkpt lat="45.424905" lon="10.6903083"><ele>92.66666666666666</ele><time>2026-04-11T08:54:36.087Z</time></trkpt><trkpt lat="45.424965" lon="10.6902617"><ele>91.83333333333333</ele><time>2026-04-11T08:54:38.082Z</time></trkpt><trkpt lat="45.42505" lon="10.6902367"><ele>91.0</ele><time>2026-04-11T08:54:41.071Z</time></trkpt><trkpt lat="45.42512" lon="10.6902083"><ele>90.19999999999999</ele><time>2026-04-11T08:54:43.07Z</time></trkpt><trkpt lat="45.4252117" lon="10.69027"><ele>89.39999999999999</ele><time>2026-04-11T08:54:45.07Z</time></trkpt><trkpt lat="45.4252817" lon="10.69033"><ele>88.6</ele><time>2026-04-11T08:54:46.066Z</time></trkpt><trkpt lat="45.42536" lon="10.69042"><ele>87.8</ele><time>2026-04-11T08:54:47.068Z</time></trkpt><trkpt lat="45.4254367" lon="10.6905233"><ele>87.0</ele><time>2026-04-11T08:54:48.061Z</time></trkpt><trkpt lat="45.425535" lon="10.6906233"><ele>86.19999999999999</ele><time>2026-04-11T08:54:49.071Z</time></trkpt><trkpt lat="45.4256283" lon="10.69071"><ele>85.4</ele><time>2026-04-11T08:54:50.078Z</time></trkpt><trkpt lat="45.4257083" lon="10.6907983"><ele>84.6</ele><time>2026-04-11T08:54:51.07Z</time></trkpt><trkpt lat="45.4258" lon="10.6908783"><ele>83.80000000000001</ele><time>2026-04-11T08:54:52.071Z</time></trkpt><trkpt lat="45.4258733" lon="10.6909883"><ele>83.0</ele><time>2026-04-11T08:54:53.076Z</time></trkpt><trkpt lat="45.42595" lon="10.6910917"><ele>83.0</ele><time>2026-04-11T08:54:54.067Z</time></trkpt><trkpt lat="45.4260433" lon="10.6911833"><ele>83.0</ele><time>2026-04-11T08:54:55.073Z</time></trkpt><trkpt lat="45.4261217" lon="10.6912767"><ele>83.0</ele><time>2026-04-11T08:54:56.075Z</time></trkpt><trkpt lat="45.4261967" lon="10.6913767"><ele>83.0</ele><time>2026-04-11T08:54:57.069Z</time></trkpt><trkpt lat="45.4262833" lon="10.6914767"><ele>83.0</ele><time>2026-04-11T08:54:58.069Z</time></trkpt><trkpt lat="45.42636" lon="10.6915967"><ele>83.0</ele><time>2026-04-11T08:54:59.075Z</time></trkpt><trkpt lat="45.4264217" lon="10.6917117"><ele>83.0</ele><time>2026-04-11T08:55:00.09Z</time></trkpt><trkpt lat="45.4264783" lon="10.6918117"><ele>83.0</ele><time>2026-04-11T08:55:01.079Z</time></trkpt><trkpt lat="45.4265133" lon="10.691935"><ele>83.0</ele><time>2026-04-11T08:55:02.077Z</time></trkpt><trkpt lat="45.4265833" lon="10.6920133"><ele>83.0</ele><time>2026-04-11T08:55:03.079Z</time></trkpt><trkpt lat="45.4266367" lon="10.6920933"><ele>83.0</ele><time>2026-04-11T08:55:04.096Z</time></trkpt><trkpt lat="45.42668" lon="10.69217"><ele>83.0</ele><time>2026-04-11T08:55:05.077Z</time></trkpt><trkpt lat="45.4267217" lon="10.69225"><ele>83.0</ele><time>2026-04-11T08:55:06.075Z</time></trkpt><trkpt lat="45.4267767" lon="10.692335"><ele>83.0</ele><time>2026-04-11T08:55:07.07Z</time></trkpt><trkpt lat="45.4268267" lon="10.692435"><ele>83.0</ele><time>2026-04-11T08:55:08.075Z</time></trkpt><trkpt lat="45.426875" lon="10.6925383"><ele>83.0</ele><time>2026-04-11T08:55:09.086Z</time></trkpt><trkpt lat="45.4269217" lon="10.6926533"><ele>82.75</ele><time>2026-04-11T08:55:10.077Z</time></trkpt><trkpt lat="45.4269633" lon="10.6927917"><ele>82.5</ele><time>2026-04-11T08:55:11.077Z</time></trkpt><trkpt lat="45.4270067" lon="10.6929133"><ele>82.25</ele><time>2026-04-11T08:55:12.109Z</time></trkpt><trkpt lat="45.4270533" lon="10.69304"><ele>82.0</ele><time>2026-04-11T08:55:13.08Z</time></trkpt><trkpt lat="45.4271233" lon="10.69326"><ele>81.8</ele><time>2026-04-11T08:55:15.073Z</time></trkpt><trkpt lat="45.4271567" lon="10.6933867"><ele>81.6</ele><time>2026-04-11T08:55:16.072Z</time></trkpt><trkpt lat="45.4271917" lon="10.6935217"><ele>81.39999999999999</ele><time>2026-04-11T08:55:17.078Z</time></trkpt><trkpt lat="45.4272183" lon="10.693665"><ele>81.19999999999999</ele><time>2026-04-11T08:55:18.076Z</time></trkpt><trkpt lat="45.4272467" lon="10.6938017"><ele>81.0</ele><time>2026-04-11T08:55:19.073Z</time></trkpt><trkpt lat="45.4272717" lon="10.6939083"><ele>81.0</ele><time>2026-04-11T08:55:20.076Z</time></trkpt><trkpt lat="45.427295" lon="10.6940067"><ele>81.0</ele><time>2026-04-11T08:55:21.081Z</time></trkpt><trkpt lat="45.42731" lon="10.6940983"><ele>81.0</ele><time>2026-04-11T08:55:22.072Z</time></trkpt><trkpt lat="45.4273217" lon="10.6942317"><ele>81.0</ele><time>2026-04-11T08:55:24.075Z</time></trkpt><trkpt lat="45.4272667" lon="10.6943333"><ele>81.0</ele><time>2026-04-11T08:55:26.076Z</time></trkpt><trkpt lat="45.42715" lon="10.6943817"><ele>81.0</ele><time>2026-04-11T08:55:28.079Z</time></trkpt><trkpt lat="45.4270683" lon="10.694395"><ele>81.16666666666667</ele><time>2026-04-11T08:55:29.078Z</time></trkpt><trkpt lat="45.42697" lon="10.6943933"><ele>81.33333333333333</ele><time>2026-04-11T08:55:30.103Z</time></trkpt><trkpt lat="45.4268817" lon="10.6943883"><ele>81.5</ele><time>2026-04-11T08:55:31.07Z</time></trkpt><trkpt lat="45.4268" lon="10.6943783"><ele>81.66666666666666</ele><time>2026-04-11T08:55:32.098Z</time></trkpt><trkpt lat="45.426725" lon="10.6943583"><ele>81.83333333333333</ele><time>2026-04-11T08:55:33.082Z</time></trkpt><trkpt lat="45.42665" lon="10.6943333"><ele>82.0</ele><time>2026-04-11T08:55:34.089Z</time></trkpt><trkpt lat="45.4265633" lon="10.6943133"><ele>82.0</ele><time>2026-04-11T08:55:35.069Z</time></trkpt><trkpt lat="45.426465" lon="10.69429"><ele>82.0</ele><time>2026-04-11T08:55:36.078Z</time></trkpt><trkpt lat="45.426355" lon="10.6942517"><ele>82.0</ele><time>2026-04-11T08:55:37.072Z</time></trkpt><trkpt lat="45.4260583" lon="10.6942133"><ele>81.33333333333333</ele><time>2026-04-11T08:55:39.067Z</time></trkpt><trkpt lat="45.4258983" lon="10.6942133"><ele>80.66666666666667</ele><time>2026-04-11T08:55:40.076Z</time></trkpt><trkpt lat="45.4257417" lon="10.6942133"><ele>80.0</ele><time>2026-04-11T08:55:41.074Z</time></trkpt><trkpt lat="45.4256083" lon="10.69424"><ele>80.0</ele><time>2026-04-11T08:55:42.075Z</time></trkpt><trkpt lat="45.4254817" lon="10.6942333"><ele>80.0</ele><time>2026-04-11T08:55:43.08Z</time></trkpt><trkpt lat="45.425385" lon="10.6942233"><ele>80.0</ele><time>2026-04-11T08:55:44.101Z</time></trkpt><trkpt lat="45.4252817" lon="10.694195"><ele>80.0</ele><time>2026-04-11T08:55:45.076Z</time></trkpt><trkpt lat="45.4250533" lon="10.6941017"><ele>80.0</ele><time>2026-04-11T08:55:47.068Z</time></trkpt><trkpt lat="45.4249333" lon="10.6940467"><ele>80.0</ele><time>2026-04-11T08:55:48.076Z</time></trkpt><trkpt lat="45.4247983" lon="10.6940117"><ele>80.0</ele><time>2026-04-11T08:55:49.087Z</time></trkpt><trkpt lat="45.4246667" lon="10.6939967"><ele>80.0</ele><time>2026-04-11T08:55:50.075Z</time></trkpt><trkpt lat="45.4245033" lon="10.693965"><ele>80.0</ele><time>2026-04-11T08:55:51.07Z</time></trkpt><trkpt lat="45.424375" lon="10.6939217"><ele>80.0</ele><time>2026-04-11T08:55:52.073Z</time></trkpt><trkpt lat="45.4242417" lon="10.6939233"><ele>80.0</ele><time>2026-04-11T08:55:53.077Z</time></trkpt><trkpt lat="45.42413" lon="10.6939267"><ele>80.0</ele><time>2026-04-11T08:55:54.07Z</time></trkpt><trkpt lat="45.4239933" lon="10.69397"><ele>80.0</ele><time>2026-04-11T08:55:55.078Z</time></trkpt><trkpt lat="45.423875" lon="10.6940183"><ele>80.0</ele><time>2026-04-11T08:55:56.075Z</time></trkpt><trkpt lat="45.4237767" lon="10.69407"><ele>80.0</ele><time>2026-04-11T08:55:57.073Z</time></trkpt><trkpt lat="45.4236817" lon="10.6941083"><ele>80.0</ele><time>2026-04-11T08:55:58.089Z</time></trkpt><trkpt lat="45.4235983" lon="10.6941467"><ele>80.0</ele><time>2026-04-11T08:55:59.082Z</time></trkpt><trkpt lat="45.4235267" lon="10.694175"><ele>80.0</ele><time>2026-04-11T08:56:00.076Z</time></trkpt><trkpt lat="45.423465" lon="10.6942283"><ele>80.0</ele><time>2026-04-11T08:56:01.068Z</time></trkpt><trkpt lat="45.42342" lon="10.6943267"><ele>80.0</ele><time>2026-04-11T08:56:02.079Z</time></trkpt><trkpt lat="45.4234" lon="10.69447"><ele>80.0</ele><time>2026-04-11T08:56:03.13Z</time></trkpt><trkpt lat="45.42338" lon="10.6946217"><ele>80.0</ele><time>2026-04-11T08:56:04.076Z</time></trkpt><trkpt lat="45.4233767" lon="10.6947983"><ele>80.0</ele><time>2026-04-11T08:56:05.069Z</time></trkpt><trkpt lat="45.4233683" lon="10.695"><ele>80.0</ele><time>2026-04-11T08:56:06.077Z</time></trkpt><trkpt lat="45.42332" lon="10.69521"><ele>80.0</ele><time>2026-04-11T08:56:07.077Z</time></trkpt><trkpt lat="45.4232867" lon="10.6953817"><ele>80.0</ele><time>2026-04-11T08:56:08.077Z</time></trkpt><trkpt lat="45.4232733" lon="10.6955133"><ele>80.4</ele><time>2026-04-11T08:56:09.073Z</time></trkpt><trkpt lat="45.4232583" lon="10.6956167"><ele>80.8</ele><time>2026-04-11T08:56:10.066Z</time></trkpt><trkpt lat="45.4232567" lon="10.6957383"><ele>81.19999999999999</ele><time>2026-04-11T08:56:12.071Z</time></trkpt><trkpt lat="45.423145" lon="10.6957433"><ele>81.6</ele><time>2026-04-11T08:56:15.08Z</time></trkpt><trkpt lat="45.4230733" lon="10.6956967"><ele>82.0</ele><time>2026-04-11T08:56:16.075Z</time></trkpt><trkpt lat="45.42298" lon="10.6956433"><ele>82.0</ele><time>2026-04-11T08:56:17.072Z</time></trkpt><trkpt lat="45.422885" lon="10.695565"><ele>82.0</ele><time>2026-04-11T08:56:18.07Z</time></trkpt><trkpt lat="45.4227883" lon="10.6954683"><ele>82.0</ele><time>2026-04-11T08:56:19.062Z</time></trkpt><trkpt lat="45.4227267" lon="10.6954383"><ele>82.0</ele><time>2026-04-11T08:56:20.07Z</time></trkpt><trkpt lat="45.4226383" lon="10.6954633"><ele>82.0</ele><time>2026-04-11T08:56:22.077Z</time></trkpt><trkpt lat="45.4226183" lon="10.6955667"><ele>82.0</ele><time>2026-04-11T08:56:23.087Z</time></trkpt><trkpt lat="45.422585" lon="10.6956733"><ele>82.0</ele><time>2026-04-11T08:56:24.073Z</time></trkpt><trkpt lat="45.4225333" lon="10.695825"><ele>82.0</ele><time>2026-04-11T08:56:25.085Z</time></trkpt><trkpt lat="45.4224833" lon="10.6959967"><ele>82.0</ele><time>2026-04-11T08:56:26.062Z</time></trkpt><trkpt lat="45.4224383" lon="10.6961383"><ele>82.0</ele><time>2026-04-11T08:56:27.07Z</time></trkpt><trkpt lat="45.422385" lon="10.69623"><ele>81.0</ele><time>2026-04-11T08:56:28.065Z</time></trkpt><trkpt lat="45.4223567" lon="10.6963167"><ele>80.0</ele><time>2026-04-11T08:56:30.08Z</time></trkpt><trkpt lat="45.4224667" lon="10.6963933"><ele>79.0</ele><time>2026-04-11T08:56:33.076Z</time></trkpt><trkpt lat="45.4225367" lon="10.696425"><ele>78.0</ele><time>2026-04-11T08:56:34.068Z</time></trkpt><trkpt lat="45.4225983" lon="10.6964633"><ele>77.0</ele><time>2026-04-11T08:56:35.074Z</time></trkpt><trkpt lat="45.4226533" lon="10.6965583"><ele>76.0</ele><time>2026-04-11T08:56:37.081Z</time></trkpt><trkpt lat="45.4226467" lon="10.6966733"><ele>76.0</ele><time>2026-04-11T08:56:39.065Z</time></trkpt><trkpt lat="45.422625" lon="10.6967617"><ele>76.0</ele><time>2026-04-11T08:56:40.076Z</time></trkpt><trkpt lat="45.4225833" lon="10.6968967"><ele>76.0</ele><time>2026-04-11T08:56:41.072Z</time></trkpt><trkpt lat="45.4225317" lon="10.6970533"><ele>76.0</ele><time>2026-04-11T08:56:42.07Z</time></trkpt><trkpt lat="45.4224817" lon="10.6971983"><ele>76.0</ele><time>2026-04-11T08:56:43.069Z</time></trkpt><trkpt lat="45.4224517" lon="10.6973133"><ele>76.0</ele><time>2026-04-11T08:56:44.069Z</time></trkpt><trkpt lat="45.42244" lon="10.6974233"><ele>76.0</ele><time>2026-04-11T08:56:45.064Z</time></trkpt><trkpt lat="45.4224333" lon="10.6975483"><ele>76.0</ele><time>2026-04-11T08:56:46.065Z</time></trkpt><trkpt lat="45.4224067" lon="10.6976383"><ele>76.0</ele><time>2026-04-11T08:56:48.071Z</time></trkpt><trkpt lat="45.4223383" lon="10.6977183"><ele>76.0</ele><time>2026-04-11T08:56:52.066Z</time></trkpt><trkpt lat="45.4222167" lon="10.6977317"><ele>76.0</ele><time>2026-04-11T08:56:54.069Z</time></trkpt><trkpt lat="45.4221367" lon="10.6977383"><ele>76.6</ele><time>2026-04-11T08:56:55.061Z</time></trkpt><trkpt lat="45.422045" lon="10.697745"><ele>77.19999999999999</ele><time>2026-04-11T08:56:56.074Z</time></trkpt><trkpt lat="45.4219417" lon="10.6977567"><ele>77.80000000000001</ele><time>2026-04-11T08:56:57.068Z</time></trkpt><trkpt lat="45.42183" lon="10.6977783"><ele>78.4</ele><time>2026-04-11T08:56:58.069Z</time></trkpt><trkpt lat="45.4217167" lon="10.6977933"><ele>79.0</ele><time>2026-04-11T08:56:59.067Z</time></trkpt><trkpt lat="45.4215967" lon="10.697825"><ele>79.0</ele><time>2026-04-11T08:57:00.069Z</time></trkpt><trkpt lat="45.42146" lon="10.6978367"><ele>79.0</ele><time>2026-04-11T08:57:01.071Z</time></trkpt><trkpt lat="45.4213267" lon="10.6978383"><ele>79.0</ele><time>2026-04-11T08:57:02.073Z</time></trkpt><trkpt lat="45.4212117" lon="10.6978483"><ele>79.0</ele><time>2026-04-11T08:57:03.079Z</time></trkpt><trkpt lat="45.4211083" lon="10.6978633"><ele>79.25</ele><time>2026-04-11T08:57:04.066Z</time></trkpt><trkpt lat="45.420995" lon="10.69794"><ele>79.5</ele><time>2026-04-11T08:57:05.074Z</time></trkpt><trkpt lat="45.4208817" lon="10.6980383"><ele>79.75</ele><time>2026-04-11T08:57:06.072Z</time></trkpt><trkpt lat="45.4207583" lon="10.6981267"><ele>80.0</ele><time>2026-04-11T08:57:07.076Z</time></trkpt><trkpt lat="45.4206167" lon="10.6981717"><ele>80.0</ele><time>2026-04-11T08:57:08.064Z</time></trkpt><trkpt lat="45.420505" lon="10.6982567"><ele>80.0</ele><time>2026-04-11T08:57:09.068Z</time></trkpt><trkpt lat="45.4203583" lon="10.6983"><ele>80.0</ele><time>2026-04-11T08:57:10.072Z</time></trkpt><trkpt lat="45.4202183" lon="10.6983583"><ele>80.0</ele><time>2026-04-11T08:57:11.079Z</time></trkpt><trkpt lat="45.42008" lon="10.6984283"><ele>80.0</ele><time>2026-04-11T08:57:12.076Z</time></trkpt><trkpt lat="45.4199417" lon="10.6984883"><ele>80.0</ele><time>2026-04-11T08:57:13.072Z</time></trkpt><trkpt lat="45.4198133" lon="10.6985233"><ele>80.0</ele><time>2026-04-11T08:57:14.063Z</time></trkpt><trkpt lat="45.419695" lon="10.6985317"><ele>80.0</ele><time>2026-04-11T08:57:15.064Z</time></trkpt><trkpt lat="45.4195883" lon="10.6985067"><ele>80.0</ele><time>2026-04-11T08:57:16.076Z</time></trkpt><trkpt lat="45.4194867" lon="10.6984683"><ele>80.0</ele><time>2026-04-11T08:57:17.073Z</time></trkpt><trkpt lat="45.4193883" lon="10.69841"><ele>80.0</ele><time>2026-04-11T08:57:18.069Z</time></trkpt><trkpt lat="45.4193033" lon="10.69831"><ele>80.0</ele><time>2026-04-11T08:57:19.076Z</time></trkpt><trkpt lat="45.4192367" lon="10.6981933"><ele>80.0</ele><time>2026-04-11T08:57:20.073Z</time></trkpt><trkpt lat="45.419165" lon="10.6980833"><ele>80.0</ele><time>2026-04-11T08:57:21.061Z</time></trkpt><trkpt lat="45.4191133" lon="10.698015"><ele>80.0</ele><time>2026-04-11T08:57:22.071Z</time></trkpt><trkpt lat="45.418985" lon="10.698015"><ele>80.0</ele><time>2026-04-11T08:57:24.082Z</time></trkpt><trkpt lat="45.4189033" lon="10.6981183"><ele>80.0</ele><time>2026-04-11T08:57:25.083Z</time></trkpt><trkpt lat="45.4188283" lon="10.69824"><ele>80.0</ele><time>2026-04-11T08:57:26.078Z</time></trkpt><trkpt lat="45.4187433" lon="10.69838"><ele>80.0</ele><time>2026-04-11T08:57:27.066Z</time></trkpt><trkpt lat="45.4186517" lon="10.6985317"><ele>80.0</ele><time>2026-04-11T08:57:28.07Z</time></trkpt><trkpt lat="45.4185433" lon="10.6987033"><ele>80.0</ele><time>2026-04-11T08:57:29.077Z</time></trkpt><trkpt lat="45.418435" lon="10.698885"><ele>80.0</ele><time>2026-04-11T08:57:30.068Z</time></trkpt><trkpt lat="45.4183067" lon="10.69907"><ele>80.0</ele><time>2026-04-11T08:57:31.071Z</time></trkpt><trkpt lat="45.4181917" lon="10.6992533"><ele>80.0</ele><time>2026-04-11T08:57:32.068Z</time></trkpt><trkpt lat="45.418095" lon="10.6994317"><ele>80.0</ele><time>2026-04-11T08:57:33.068Z</time></trkpt><trkpt lat="45.4179983" lon="10.6995567"><ele>80.0</ele><time>2026-04-11T08:57:34.078Z</time></trkpt><trkpt lat="45.4179433" lon="10.6996333"><ele>80.0</ele><time>2026-04-11T08:57:35.083Z</time></trkpt><trkpt lat="45.4178933" lon="10.6996933"><ele>80.0</ele><time>2026-04-11T08:57:36.066Z</time></trkpt><trkpt lat="45.4178367" lon="10.699755"><ele>80.0</ele><time>2026-04-11T08:57:37.068Z</time></trkpt><trkpt lat="45.4177783" lon="10.6998433"><ele>80.0</ele><time>2026-04-11T08:57:38.082Z</time></trkpt><trkpt lat="45.41769" lon="10.6999833"><ele>80.0</ele><time>2026-04-11T08:57:39.071Z</time></trkpt><trkpt lat="45.4176317" lon="10.7001567"><ele>80.0</ele><time>2026-04-11T08:57:40.078Z</time></trkpt><trkpt lat="45.4175467" lon="10.7003583"><ele>80.0</ele><time>2026-04-11T08:57:41.083Z</time></trkpt><trkpt lat="45.4174733" lon="10.70058"><ele>79.33333333333334</ele><time>2026-04-11T08:57:42.084Z</time></trkpt><trkpt lat="45.41742" lon="10.7008233"><ele>78.66666666666667</ele><time>2026-04-11T08:57:43.1Z</time></trkpt><trkpt lat="45.4173733" lon="10.7011033"><ele>78.0</ele><time>2026-04-11T08:57:44.084Z</time></trkpt><trkpt lat="45.4173067" lon="10.7013967"><ele>78.0</ele><time>2026-04-11T08:57:45.076Z</time></trkpt><trkpt lat="45.4172383" lon="10.7016683"><ele>78.0</ele><time>2026-04-11T08:57:46.07Z</time></trkpt><trkpt lat="45.4171717" lon="10.7019483"><ele>78.0</ele><time>2026-04-11T08:57:47.08Z</time></trkpt><trkpt lat="45.4171" lon="10.702215"><ele>77.0</ele><time>2026-04-11T08:57:48.076Z</time></trkpt><trkpt lat="45.41706" lon="10.7024583"><ele>76.0</ele><time>2026-04-11T08:57:49.079Z</time></trkpt><trkpt lat="45.4170133" lon="10.7026967"><ele>75.0</ele><time>2026-04-11T08:57:50.081Z</time></trkpt><trkpt lat="45.4169533" lon="10.702935"><ele>75.0</ele><time>2026-04-11T08:57:51.08Z</time></trkpt><trkpt lat="45.4168883" lon="10.7031633"><ele>75.0</ele><time>2026-04-11T08:57:52.087Z</time></trkpt><trkpt lat="45.41685" lon="10.703455"><ele>75.0</ele><time>2026-04-11T08:57:53.076Z</time></trkpt><trkpt lat="45.4168083" lon="10.7036983"><ele>75.33333333333333</ele><time>2026-04-11T08:57:54.075Z</time></trkpt><trkpt lat="45.4167733" lon="10.703955"><ele>75.66666666666666</ele><time>2026-04-11T08:57:55.071Z</time></trkpt><trkpt lat="45.41676" lon="10.704195"><ele>76.0</ele><time>2026-04-11T08:57:56.073Z</time></trkpt><trkpt lat="45.4167267" lon="10.7044233"><ele>76.0</ele><time>2026-04-11T08:57:57.076Z</time></trkpt><trkpt lat="45.4166817" lon="10.704655"><ele>76.0</ele><time>2026-04-11T08:57:58.071Z</time></trkpt><trkpt lat="45.416645" lon="10.7048883"><ele>76.0</ele><time>2026-04-11T08:57:59.065Z</time></trkpt><trkpt lat="45.4166033" lon="10.70513"><ele>75.66666666666666</ele><time>2026-04-11T08:58:00.065Z</time></trkpt><trkpt lat="45.41656" lon="10.7054"><ele>75.33333333333333</ele><time>2026-04-11T08:58:01.07Z</time></trkpt><trkpt lat="45.41654" lon="10.705655"><ele>75.0</ele><time>2026-04-11T08:58:02.068Z</time></trkpt><trkpt lat="45.4165217" lon="10.7058983"><ele>75.33333333333333</ele><time>2026-04-11T08:58:03.069Z</time></trkpt><trkpt lat="45.416525" lon="10.70613"><ele>75.66666666666666</ele><time>2026-04-11T08:58:04.07Z</time></trkpt><trkpt lat="45.41651" lon="10.7063633"><ele>76.0</ele><time>2026-04-11T08:58:05.07Z</time></trkpt><trkpt lat="45.4164883" lon="10.7065817"><ele>76.0</ele><time>2026-04-11T08:58:06.081Z</time></trkpt><trkpt lat="45.416475" lon="10.7068183"><ele>76.0</ele><time>2026-04-11T08:58:07.073Z</time></trkpt><trkpt lat="45.4164617" lon="10.7070483"><ele>76.0</ele><time>2026-04-11T08:58:08.065Z</time></trkpt><trkpt lat="45.4164517" lon="10.7072967"><ele>77.0</ele><time>2026-04-11T08:58:09.068Z</time></trkpt><trkpt lat="45.416435" lon="10.7075517"><ele>78.0</ele><time>2026-04-11T08:58:10.072Z</time></trkpt><trkpt lat="45.4164033" lon="10.7077767"><ele>79.0</ele><time>2026-04-11T08:58:11.08Z</time></trkpt><trkpt lat="45.4163767" lon="10.7079833"><ele>79.25</ele><time>2026-04-11T08:58:12.075Z</time></trkpt><trkpt lat="45.4163567" lon="10.7081917"><ele>79.5</ele><time>2026-04-11T08:58:13.068Z</time></trkpt><trkpt lat="45.41634" lon="10.7083617"><ele>79.75</ele><time>2026-04-11T08:58:14.067Z</time></trkpt><trkpt lat="45.4163367" lon="10.7085783"><ele>80.0</ele><time>2026-04-11T08:58:15.063Z</time></trkpt><trkpt lat="45.4163067" lon="10.7088283"><ele>80.0</ele><time>2026-04-11T08:58:16.072Z</time></trkpt><trkpt lat="45.4162617" lon="10.70903"><ele>80.0</ele><time>2026-04-11T08:58:17.084Z</time></trkpt><trkpt lat="45.41624" lon="10.7092433"><ele>80.0</ele><time>2026-04-11T08:58:18.068Z</time></trkpt><trkpt lat="45.4162183" lon="10.7094833"><ele>80.25</ele><time>2026-04-11T08:58:19.063Z</time></trkpt><trkpt lat="45.41618" lon="10.7097267"><ele>80.5</ele><time>2026-04-11T08:58:20.069Z</time></trkpt><trkpt lat="45.4161367" lon="10.709925"><ele>80.75</ele><time>2026-04-11T08:58:21.063Z</time></trkpt><trkpt lat="45.4160917" lon="10.7100933"><ele>81.0</ele><time>2026-04-11T08:58:22.071Z</time></trkpt><trkpt lat="45.4160367" lon="10.710275"><ele>81.75</ele><time>2026-04-11T08:58:23.068Z</time></trkpt><trkpt lat="45.41597" lon="10.71041"><ele>82.5</ele><time>2026-04-11T08:58:24.072Z</time></trkpt><trkpt lat="45.415885" lon="10.7105467"><ele>83.25</ele><time>2026-04-11T08:58:25.067Z</time></trkpt><trkpt lat="45.4157983" lon="10.710645"><ele>84.0</ele><time>2026-04-11T08:58:26.071Z</time></trkpt><trkpt lat="45.41571" lon="10.7107283"><ele>84.0</ele><time>2026-04-11T08:58:27.064Z</time></trkpt><trkpt lat="45.4156017" lon="10.7107867"><ele>84.0</ele><time>2026-04-11T08:58:28.062Z</time></trkpt><trkpt lat="45.41546" lon="10.7108333"><ele>84.0</ele><time>2026-04-11T08:58:29.071Z</time></trkpt><trkpt lat="45.415335" lon="10.7108767"><ele>84.0</ele><time>2026-04-11T08:58:30.07Z</time></trkpt><trkpt lat="45.4151917" lon="10.71091"><ele>83.80000000000001</ele><time>2026-04-11T08:58:31.061Z</time></trkpt><trkpt lat="45.4150467" lon="10.71094"><ele>83.60000000000001</ele><time>2026-04-11T08:58:32.06Z</time></trkpt><trkpt lat="45.4149233" lon="10.7109217"><ele>83.4</ele><time>2026-04-11T08:58:33.069Z</time></trkpt><trkpt lat="45.4148267" lon="10.7109433"><ele>83.2</ele><time>2026-04-11T08:58:34.063Z</time></trkpt><trkpt lat="45.41475" lon="10.7109783"><ele>83.0</ele><time>2026-04-11T08:58:35.066Z</time></trkpt><trkpt lat="45.4146867" lon="10.7110317"><ele>83.2</ele><time>2026-04-11T08:58:36.072Z</time></trkpt><trkpt lat="45.4146467" lon="10.711125"><ele>83.4</ele><time>2026-04-11T08:58:37.067Z</time></trkpt><trkpt lat="45.4146933" lon="10.711285"><ele>83.60000000000001</ele><time>2026-04-11T08:58:38.071Z</time></trkpt><trkpt lat="45.41469" lon="10.711435"><ele>83.80000000000001</ele><time>2026-04-11T08:58:39.067Z</time></trkpt><trkpt lat="45.4147083" lon="10.7116"><ele>84.0</ele><time>2026-04-11T08:58:40.062Z</time></trkpt><trkpt lat="45.41473" lon="10.7118167"><ele>83.5</ele><time>2026-04-11T08:58:41.061Z</time></trkpt><trkpt lat="45.4147483" lon="10.712025"><ele>83.0</ele><time>2026-04-11T08:58:42.065Z</time></trkpt><trkpt lat="45.4147683" lon="10.7122133"><ele>82.5</ele><time>2026-04-11T08:58:43.076Z</time></trkpt><trkpt lat="45.4147717" lon="10.71239"><ele>82.0</ele><time>2026-04-11T08:58:44.071Z</time></trkpt><trkpt lat="45.4147933" lon="10.712515"><ele>82.0</ele><time>2026-04-11T08:58:45.076Z</time></trkpt><trkpt lat="45.4147917" lon="10.7126533"><ele>82.0</ele><time>2026-04-11T08:58:46.076Z</time></trkpt><trkpt lat="45.414785" lon="10.7128083"><ele>82.0</ele><time>2026-04-11T08:58:47.088Z</time></trkpt><trkpt lat="45.4147667" lon="10.7129533"><ele>82.0</ele><time>2026-04-11T08:58:48.068Z</time></trkpt><trkpt lat="45.4147933" lon="10.71313"><ele>82.0</ele><time>2026-04-11T08:58:49.08Z</time></trkpt><trkpt lat="45.414795" lon="10.71328"><ele>81.0</ele><time>2026-04-11T08:58:50.069Z</time></trkpt><trkpt lat="45.4148083" lon="10.7134317"><ele>80.0</ele><time>2026-04-11T08:58:51.065Z</time></trkpt><trkpt lat="45.4148117" lon="10.713555"><ele>79.0</ele><time>2026-04-11T08:58:52.069Z</time></trkpt><trkpt lat="45.41481" lon="10.7136567"><ele>78.0</ele><time>2026-04-11T08:58:53.074Z</time></trkpt><trkpt lat="45.4147517" lon="10.713805"><ele>77.0</ele><time>2026-04-11T08:58:55.079Z</time></trkpt><trkpt lat="45.4146433" lon="10.7138167"><ele>75.75</ele><time>2026-04-11T08:58:56.07Z</time></trkpt><trkpt lat="45.4145367" lon="10.7138167"><ele>74.5</ele><time>2026-04-11T08:58:57.067Z</time></trkpt><trkpt lat="45.4144033" lon="10.713775"><ele>73.25</ele><time>2026-04-11T08:58:58.072Z</time></trkpt><trkpt lat="45.4142633" lon="10.7138017"><ele>72.0</ele><time>2026-04-11T08:58:59.064Z</time></trkpt><trkpt lat="45.414115" lon="10.7138283"><ele>72.0</ele><time>2026-04-11T08:59:00.068Z</time></trkpt><trkpt lat="45.4139833" lon="10.71386"><ele>72.0</ele><time>2026-04-11T08:59:01.068Z</time></trkpt><trkpt lat="45.4138467" lon="10.7139017"><ele>72.0</ele><time>2026-04-11T08:59:02.068Z</time></trkpt><trkpt lat="45.41369" lon="10.7139567"><ele>72.0</ele><time>2026-04-11T08:59:03.078Z</time></trkpt><trkpt lat="45.4135583" lon="10.714025"><ele>71.66666666666667</ele><time>2026-04-11T08:59:04.063Z</time></trkpt><trkpt lat="45.41342" lon="10.714095"><ele>71.33333333333334</ele><time>2026-04-11T08:59:05.074Z</time></trkpt><trkpt lat="45.4132583" lon="10.7141617"><ele>71.0</ele><time>2026-04-11T08:59:06.072Z</time></trkpt><trkpt lat="45.413075" lon="10.7141933"><ele>71.66666666666667</ele><time>2026-04-11T08:59:07.07Z</time></trkpt><trkpt lat="45.4129217" lon="10.7142417"><ele>72.33333333333333</ele><time>2026-04-11T08:59:08.082Z</time></trkpt><trkpt lat="45.4127633" lon="10.7142733"><ele>73.0</ele><time>2026-04-11T08:59:09.084Z</time></trkpt><trkpt lat="45.4125817" lon="10.7142983"><ele>73.0</ele><time>2026-04-11T08:59:10.069Z</time></trkpt><trkpt lat="45.4124167" lon="10.7143317"><ele>73.0</ele><time>2026-04-11T08:59:11.082Z</time></trkpt><trkpt lat="45.4122667" lon="10.714365"><ele>73.0</ele><time>2026-04-11T08:59:12.065Z</time></trkpt><trkpt lat="45.4121183" lon="10.7144217"><ele>70.66666666666666</ele><time>2026-04-11T08:59:13.065Z</time></trkpt><trkpt lat="45.4119467" lon="10.7144933"><ele>68.33333333333333</ele><time>2026-04-11T08:59:14.069Z</time></trkpt><trkpt lat="45.4117767" lon="10.7145533"><ele>66.0</ele><time>2026-04-11T08:59:15.075Z</time></trkpt><trkpt lat="45.4116183" lon="10.71463"><ele>66.0</ele><time>2026-04-11T08:59:16.072Z</time></trkpt><trkpt lat="45.4114617" lon="10.7147067"><ele>66.0</ele><time>2026-04-11T08:59:17.067Z</time></trkpt><trkpt lat="45.4112917" lon="10.7147717"><ele>66.0</ele><time>2026-04-11T08:59:18.069Z</time></trkpt><trkpt lat="45.4111233" lon="10.7148467"><ele>67.0</ele><time>2026-04-11T08:59:19.063Z</time></trkpt><trkpt lat="45.410965" lon="10.71491"><ele>68.0</ele><time>2026-04-11T08:59:20.065Z</time></trkpt><trkpt lat="45.41079" lon="10.7149567"><ele>69.0</ele><time>2026-04-11T08:59:21.07Z</time></trkpt><trkpt lat="45.4106067" lon="10.7150167"><ele>71.33333333333333</ele><time>2026-04-11T08:59:22.065Z</time></trkpt><trkpt lat="45.410445" lon="10.7150567"><ele>73.66666666666666</ele><time>2026-04-11T08:59:23.065Z</time></trkpt><trkpt lat="45.4102883" lon="10.7151"><ele>76.0</ele><time>2026-04-11T08:59:24.073Z</time></trkpt><trkpt lat="45.4101217" lon="10.71513"><ele>76.0</ele><time>2026-04-11T08:59:25.065Z</time></trkpt><trkpt lat="45.4099567" lon="10.71514"><ele>76.0</ele><time>2026-04-11T08:59:26.067Z</time></trkpt><trkpt lat="45.4097867" lon="10.7151617"><ele>76.0</ele><time>2026-04-11T08:59:27.066Z</time></trkpt><trkpt lat="45.40963" lon="10.7152517"><ele>73.33333333333333</ele><time>2026-04-11T08:59:28.074Z</time></trkpt><trkpt lat="45.409445" lon="10.715345"><ele>70.66666666666667</ele><time>2026-04-11T08:59:29.062Z</time></trkpt><trkpt lat="45.4092917" lon="10.715375"><ele>68.0</ele><time>2026-04-11T08:59:30.07Z</time></trkpt><trkpt lat="45.409155" lon="10.7154183"><ele>68.0</ele><time>2026-04-11T08:59:31.082Z</time></trkpt><trkpt lat="45.4090167" lon="10.7154567"><ele>68.0</ele><time>2026-04-11T08:59:32.062Z</time></trkpt><trkpt lat="45.4088883" lon="10.7154983"><ele>68.0</ele><time>2026-04-11T08:59:33.077Z</time></trkpt><trkpt lat="45.40873" lon="10.7155183"><ele>68.0</ele><time>2026-04-11T08:59:34.075Z</time></trkpt><trkpt lat="45.4085767" lon="10.7155167"><ele>68.33333333333334</ele><time>2026-04-11T08:59:35.065Z</time></trkpt><trkpt lat="45.4084217" lon="10.7155083"><ele>68.66666666666667</ele><time>2026-04-11T08:59:36.06Z</time></trkpt><trkpt lat="45.4082683" lon="10.7154867"><ele>69.0</ele><time>2026-04-11T08:59:37.071Z</time></trkpt><trkpt lat="45.408115" lon="10.715485"><ele>67.66666666666667</ele><time>2026-04-11T08:59:38.071Z</time></trkpt><trkpt lat="45.40795" lon="10.7154917"><ele>66.33333333333334</ele><time>2026-04-11T08:59:39.072Z</time></trkpt><trkpt lat="45.4078083" lon="10.7154967"><ele>65.0</ele><time>2026-04-11T08:59:40.073Z</time></trkpt><trkpt lat="45.4076517" lon="10.7154617"><ele>65.0</ele><time>2026-04-11T08:59:41.071Z</time></trkpt><trkpt lat="45.40751" lon="10.715425"><ele>65.0</ele><time>2026-04-11T08:59:42.062Z</time></trkpt><trkpt lat="45.4073667" lon="10.7153783"><ele>65.0</ele><time>2026-04-11T08:59:43.071Z</time></trkpt><trkpt lat="45.4072317" lon="10.7153083"><ele>65.0</ele><time>2026-04-11T08:59:44.089Z</time></trkpt><trkpt lat="45.40711" lon="10.715235"><ele>66.6</ele><time>2026-04-11T08:59:45.064Z</time></trkpt><trkpt lat="45.40699" lon="10.7151917"><ele>68.2</ele><time>2026-04-11T08:59:46.072Z</time></trkpt><trkpt lat="45.40687" lon="10.7151733"><ele>69.8</ele><time>2026-04-11T08:59:47.074Z</time></trkpt><trkpt lat="45.4067933" lon="10.7151467"><ele>71.4</ele><time>2026-04-11T08:59:48.07Z</time></trkpt><trkpt lat="45.4067317" lon="10.715025"><ele>73.0</ele><time>2026-04-11T08:59:50.074Z</time></trkpt><trkpt lat="45.4067117" lon="10.7149033"><ele>73.0</ele><time>2026-04-11T08:59:51.065Z</time></trkpt><trkpt lat="45.4067017" lon="10.7147967"><ele>73.0</ele><time>2026-04-11T08:59:52.071Z</time></trkpt><trkpt lat="45.40674" lon="10.7146833"><ele>73.0</ele><time>2026-04-11T08:59:53.068Z</time></trkpt><trkpt lat="45.4067917" lon="10.7145467"><ele>73.0</ele><time>2026-04-11T08:59:54.07Z</time></trkpt><trkpt lat="45.4068533" lon="10.7144017"><ele>73.0</ele><time>2026-04-11T08:59:55.063Z</time></trkpt><trkpt lat="45.4069183" lon="10.7142433"><ele>73.75</ele><time>2026-04-11T08:59:56.068Z</time></trkpt><trkpt lat="45.4070017" lon="10.7141133"><ele>74.5</ele><time>2026-04-11T08:59:57.063Z</time></trkpt><trkpt lat="45.4070683" lon="10.71394"><ele>75.25</ele><time>2026-04-11T08:59:58.08Z</time></trkpt><trkpt lat="45.4071333" lon="10.7137883"><ele>76.0</ele><time>2026-04-11T08:59:59.069Z</time></trkpt><trkpt lat="45.4072133" lon="10.7135967"><ele>77.33333333333333</ele><time>2026-04-11T09:00:00.07Z</time></trkpt><trkpt lat="45.407335" lon="10.7134317"><ele>78.66666666666667</ele><time>2026-04-11T09:00:01.065Z</time></trkpt><trkpt lat="45.40747" lon="10.7132533"><ele>80.0</ele><time>2026-04-11T09:00:02.081Z</time></trkpt><trkpt lat="45.40759" lon="10.713055"><ele>80.0</ele><time>2026-04-11T09:00:03.063Z</time></trkpt><trkpt lat="45.4077067" lon="10.7128767"><ele>80.0</ele><time>2026-04-11T09:00:04.066Z</time></trkpt><trkpt lat="45.4078183" lon="10.712715"><ele>80.0</ele><time>2026-04-11T09:00:05.072Z</time></trkpt><trkpt lat="45.407915" lon="10.7125433"><ele>81.66666666666667</ele><time>2026-04-11T09:00:06.082Z</time></trkpt><trkpt lat="45.408" lon="10.71236"><ele>83.33333333333333</ele><time>2026-04-11T09:00:07.091Z</time></trkpt><trkpt lat="45.4080667" lon="10.7121533"><ele>85.0</ele><time>2026-04-11T09:00:08.071Z</time></trkpt><trkpt lat="45.4081183" lon="10.7119317"><ele>85.33333333333333</ele><time>2026-04-11T09:00:09.068Z</time></trkpt><trkpt lat="45.4081683" lon="10.7116733"><ele>85.66666666666667</ele><time>2026-04-11T09:00:10.062Z</time></trkpt><trkpt lat="45.408205" lon="10.7114333"><ele>86.0</ele><time>2026-04-11T09:00:11.062Z</time></trkpt><trkpt lat="45.4082433" lon="10.71118"><ele>85.66666666666667</ele><time>2026-04-11T09:00:12.065Z</time></trkpt><trkpt lat="45.4082833" lon="10.7109583"><ele>85.33333333333333</ele><time>2026-04-11T09:00:13.07Z</time></trkpt><trkpt lat="45.408305" lon="10.7107117"><ele>85.0</ele><time>2026-04-11T09:00:14.071Z</time></trkpt><trkpt lat="45.408325" lon="10.710505"><ele>85.0</ele><time>2026-04-11T09:00:15.069Z</time></trkpt><trkpt lat="45.40835" lon="10.7102967"><ele>85.0</ele><time>2026-04-11T09:00:16.063Z</time></trkpt><trkpt lat="45.4083717" lon="10.7101167"><ele>85.0</ele><time>2026-04-11T09:00:17.066Z</time></trkpt><trkpt lat="45.4084483" lon="10.7099583"><ele>85.0</ele><time>2026-04-11T09:00:18.068Z</time></trkpt><trkpt lat="45.408575" lon="10.7097917"><ele>84.0</ele><time>2026-04-11T09:00:19.076Z</time></trkpt><trkpt lat="45.40869" lon="10.709625"><ele>83.0</ele><time>2026-04-11T09:00:20.063Z</time></trkpt><trkpt lat="45.4088167" lon="10.7094567"><ele>82.0</ele><time>2026-04-11T09:00:21.072Z</time></trkpt><trkpt lat="45.4089233" lon="10.7093233"><ele>82.0</ele><time>2026-04-11T09:00:22.067Z</time></trkpt><trkpt lat="45.40904" lon="10.7091883"><ele>82.0</ele><time>2026-04-11T09:00:23.065Z</time></trkpt><trkpt lat="45.4091183" lon="10.70903"><ele>82.0</ele><time>2026-04-11T09:00:24.069Z</time></trkpt><trkpt lat="45.4091933" lon="10.7088183"><ele>82.0</ele><time>2026-04-11T09:00:25.099Z</time></trkpt><trkpt lat="45.4092667" lon="10.7086267"><ele>82.0</ele><time>2026-04-11T09:00:26.072Z</time></trkpt><trkpt lat="45.409325" lon="10.70844"><ele>82.0</ele><time>2026-04-11T09:00:27.064Z</time></trkpt><trkpt lat="45.4093867" lon="10.7082133"><ele>81.33333333333333</ele><time>2026-04-11T09:00:28.073Z</time></trkpt><trkpt lat="45.40947" lon="10.7079933"><ele>80.66666666666667</ele><time>2026-04-11T09:00:29.067Z</time></trkpt><trkpt lat="45.4095583" lon="10.7077833"><ele>80.0</ele><time>2026-04-11T09:00:30.068Z</time></trkpt><trkpt lat="45.409615" lon="10.7075467"><ele>80.0</ele><time>2026-04-11T09:00:31.065Z</time></trkpt><trkpt lat="45.4096517" lon="10.7073083"><ele>80.0</ele><time>2026-04-11T09:00:32.067Z</time></trkpt><trkpt lat="45.4097" lon="10.7070817"><ele>80.0</ele><time>2026-04-11T09:00:33.064Z</time></trkpt><trkpt lat="45.40975" lon="10.7068317"><ele>79.66666666666667</ele><time>2026-04-11T09:00:34.068Z</time></trkpt><trkpt lat="45.4097817" lon="10.7066083"><ele>79.33333333333333</ele><time>2026-04-11T09:00:35.064Z</time></trkpt><trkpt lat="45.40984" lon="10.70638"><ele>79.0</ele><time>2026-04-11T09:00:36.073Z</time></trkpt><trkpt lat="45.4098533" lon="10.7061767"><ele>78.8</ele><time>2026-04-11T09:00:37.079Z</time></trkpt><trkpt lat="45.4098667" lon="10.7060117"><ele>78.60000000000001</ele><time>2026-04-11T09:00:38.073Z</time></trkpt><trkpt lat="45.4099117" lon="10.7058767"><ele>78.4</ele><time>2026-04-11T09:00:39.069Z</time></trkpt><trkpt lat="45.4099333" lon="10.7057517"><ele>78.2</ele><time>2026-04-11T09:00:40.059Z</time></trkpt><trkpt lat="45.40992" lon="10.7056533"><ele>78.0</ele><time>2026-04-11T09:00:41.064Z</time></trkpt><trkpt lat="45.4098067" lon="10.705535"><ele>78.0</ele><time>2026-04-11T09:00:43.067Z</time></trkpt><trkpt lat="45.4097167" lon="10.705495"><ele>78.0</ele><time>2026-04-11T09:00:44.072Z</time></trkpt><trkpt lat="45.4096183" lon="10.705465"><ele>78.0</ele><time>2026-04-11T09:00:45.067Z</time></trkpt><trkpt lat="45.4094883" lon="10.7054833"><ele>78.0</ele><time>2026-04-11T09:00:46.067Z</time></trkpt><trkpt lat="45.4093367" lon="10.7054667"><ele>78.4</ele><time>2026-04-11T09:00:47.078Z</time></trkpt><trkpt lat="45.4092133" lon="10.7054467"><ele>78.8</ele><time>2026-04-11T09:00:48.069Z</time></trkpt><trkpt lat="45.409115" lon="10.7053967"><ele>79.2</ele><time>2026-04-11T09:00:49.068Z</time></trkpt><trkpt lat="45.4090467" lon="10.70531"><ele>79.6</ele><time>2026-04-11T09:00:50.069Z</time></trkpt><trkpt lat="45.4090017" lon="10.7052183"><ele>80.0</ele><time>2026-04-11T09:00:51.063Z</time></trkpt><trkpt lat="45.40899" lon="10.7050767"><ele>80.0</ele><time>2026-04-11T09:00:52.065Z</time></trkpt><trkpt lat="45.408995" lon="10.7049017"><ele>80.0</ele><time>2026-04-11T09:00:53.064Z</time></trkpt><trkpt lat="45.4090133" lon="10.7047417"><ele>80.0</ele><time>2026-04-11T09:00:54.067Z</time></trkpt><trkpt lat="45.4090283" lon="10.7045317"><ele>80.0</ele><time>2026-04-11T09:00:55.075Z</time></trkpt><trkpt lat="45.40905" lon="10.7043483"><ele>80.25</ele><time>2026-04-11T09:00:56.071Z</time></trkpt><trkpt lat="45.4090617" lon="10.7041467"><ele>80.5</ele><time>2026-04-11T09:00:57.066Z</time></trkpt><trkpt lat="45.4091033" lon="10.70395"><ele>80.75</ele><time>2026-04-11T09:00:58.059Z</time></trkpt><trkpt lat="45.409115" lon="10.703755"><ele>81.0</ele><time>2026-04-11T09:00:59.065Z</time></trkpt><trkpt lat="45.4091267" lon="10.7035683"><ele>82.0</ele><time>2026-04-11T09:01:00.064Z</time></trkpt><trkpt lat="45.4091267" lon="10.703435"><ele>83.0</ele><time>2026-04-11T09:01:01.062Z</time></trkpt><trkpt lat="45.4091083" lon="10.7032767"><ele>84.0</ele><time>2026-04-11T09:01:02.065Z</time></trkpt><trkpt lat="45.4090567" lon="10.7031833"><ele>85.0</ele><time>2026-04-11T09:01:03.07Z</time></trkpt><trkpt lat="45.4089967" lon="10.702985"><ele>86.0</ele><time>2026-04-11T09:01:04.079Z</time></trkpt><trkpt lat="45.4089517" lon="10.7028233"><ele>86.19999999999999</ele><time>2026-04-11T09:01:05.064Z</time></trkpt><trkpt lat="45.4088667" lon="10.702695"><ele>86.39999999999999</ele><time>2026-04-11T09:01:06.074Z</time></trkpt><trkpt lat="45.4088183" lon="10.7025667"><ele>86.6</ele><time>2026-04-11T09:01:07.07Z</time></trkpt><trkpt lat="45.40878" lon="10.7024617"><ele>86.8</ele><time>2026-04-11T09:01:08.072Z</time></trkpt><trkpt lat="45.408755" lon="10.702365"><ele>87.0</ele><time>2026-04-11T09:01:09.067Z</time></trkpt><trkpt lat="45.4087267" lon="10.702265"><ele>87.33333333333333</ele><time>2026-04-11T09:01:10.066Z</time></trkpt><trkpt lat="45.4086983" lon="10.7021617"><ele>87.66666666666667</ele><time>2026-04-11T09:01:11.067Z</time></trkpt><trkpt lat="45.4086767" lon="10.7020583"><ele>88.0</ele><time>2026-04-11T09:01:12.064Z</time></trkpt><trkpt lat="45.4086583" lon="10.701955"><ele>88.33333333333334</ele><time>2026-04-11T09:01:13.072Z</time></trkpt><trkpt lat="45.4086467" lon="10.7018667"><ele>88.66666666666667</ele><time>2026-04-11T09:01:14.061Z</time></trkpt><trkpt lat="45.40863" lon="10.7017017"><ele>89.0</ele><time>2026-04-11T09:01:16.067Z</time></trkpt><trkpt lat="45.408615" lon="10.701555"><ele>89.66666666666667</ele><time>2026-04-11T09:01:18.066Z</time></trkpt><trkpt lat="45.4086067" lon="10.70141"><ele>90.33333333333334</ele><time>2026-04-11T09:01:20.062Z</time></trkpt><trkpt lat="45.408595" lon="10.7012417"><ele>91.0</ele><time>2026-04-11T09:01:22.071Z</time></trkpt><trkpt lat="45.4086" lon="10.70115"><ele>91.66666666666667</ele><time>2026-04-11T09:01:23.084Z</time></trkpt><trkpt lat="45.4086017" lon="10.7010517"><ele>92.33333333333333</ele><time>2026-04-11T09:01:24.064Z</time></trkpt><trkpt lat="45.4086117" lon="10.700945"><ele>93.0</ele><time>2026-04-11T09:01:25.073Z</time></trkpt><trkpt lat="45.4086267" lon="10.7008217"><ele>94.2</ele><time>2026-04-11T09:01:26.064Z</time></trkpt><trkpt lat="45.4086433" lon="10.7006767"><ele>95.4</ele><time>2026-04-11T09:01:27.071Z</time></trkpt><trkpt lat="45.4086617" lon="10.7005117"><ele>96.60000000000001</ele><time>2026-04-11T09:01:28.071Z</time></trkpt><trkpt lat="45.4086783" lon="10.7003667"><ele>97.80000000000001</ele><time>2026-04-11T09:01:29.072Z</time></trkpt><trkpt lat="45.4087" lon="10.7002417"><ele>99.0</ele><time>2026-04-11T09:01:30.065Z</time></trkpt><trkpt lat="45.40871" lon="10.700105"><ele>99.0</ele><time>2026-04-11T09:01:31.066Z</time></trkpt><trkpt lat="45.4087067" lon="10.700005"><ele>99.0</ele><time>2026-04-11T09:01:32.072Z</time></trkpt><trkpt lat="45.4086983" lon="10.699915"><ele>99.0</ele><time>2026-04-11T09:01:33.075Z</time></trkpt><trkpt lat="45.408685" lon="10.6997867"><ele>99.0</ele><time>2026-04-11T09:01:35.073Z</time></trkpt><trkpt lat="45.40863" lon="10.6997383"><ele>99.0</ele><time>2026-04-11T09:01:37.061Z</time></trkpt><trkpt lat="45.4085667" lon="10.6997817"><ele>99.0</ele><time>2026-04-11T09:01:38.068Z</time></trkpt><trkpt lat="45.4085083" lon="10.6998283"><ele>99.0</ele><time>2026-04-11T09:01:39.065Z</time></trkpt><trkpt lat="45.4084267" lon="10.699885"><ele>99.0</ele><time>2026-04-11T09:01:40.06Z</time></trkpt><trkpt lat="45.4083483" lon="10.699945"><ele>99.0</ele><time>2026-04-11T09:01:41.079Z</time></trkpt><trkpt lat="45.4082367" lon="10.700055"><ele>99.0</ele><time>2026-04-11T09:01:42.073Z</time></trkpt><trkpt lat="45.40811" lon="10.7001767"><ele>99.0</ele><time>2026-04-11T09:01:43.063Z</time></trkpt><trkpt lat="45.4080017" lon="10.70028"><ele>98.66666666666666</ele><time>2026-04-11T09:01:44.068Z</time></trkpt><trkpt lat="45.40789" lon="10.70036"><ele>98.33333333333333</ele><time>2026-04-11T09:01:45.065Z</time></trkpt><trkpt lat="45.4077833" lon="10.7004567"><ele>98.0</ele><time>2026-04-11T09:01:46.064Z</time></trkpt><trkpt lat="45.40759" lon="10.7006233"><ele>98.0</ele><time>2026-04-11T09:01:48.077Z</time></trkpt><trkpt lat="45.4075" lon="10.7007017"><ele>98.0</ele><time>2026-04-11T09:01:49.068Z</time></trkpt><trkpt lat="45.4074233" lon="10.7007883"><ele>98.0</ele><time>2026-04-11T09:01:50.078Z</time></trkpt><trkpt lat="45.4073533" lon="10.7008833"><ele>98.0</ele><time>2026-04-11T09:01:51.069Z</time></trkpt><trkpt lat="45.4073183" lon="10.7009633"><ele>98.0</ele><time>2026-04-11T09:01:52.063Z</time></trkpt><trkpt lat="45.4072867" lon="10.701075"><ele>97.2</ele><time>2026-04-11T09:01:53.062Z</time></trkpt><trkpt lat="45.407275" lon="10.7011683"><ele>96.4</ele><time>2026-04-11T09:01:54.071Z</time></trkpt><trkpt lat="45.40727" lon="10.701265"><ele>95.60000000000001</ele><time>2026-04-11T09:01:55.065Z</time></trkpt><trkpt lat="45.4072783" lon="10.70143"><ele>94.80000000000001</ele><time>2026-04-11T09:01:57.072Z</time></trkpt><trkpt lat="45.4072633" lon="10.7015883"><ele>94.0</ele><time>2026-04-11T09:01:59.069Z</time></trkpt><trkpt lat="45.4072183" lon="10.7017117"><ele>94.0</ele><time>2026-04-11T09:02:01.061Z</time></trkpt><trkpt lat="45.40717" lon="10.7018417"><ele>94.0</ele><time>2026-04-11T09:02:03.062Z</time></trkpt><trkpt lat="45.4071567" lon="10.7020083"><ele>94.0</ele><time>2026-04-11T09:02:05.063Z</time></trkpt><trkpt lat="45.4071533" lon="10.7021083"><ele>94.0</ele><time>2026-04-11T09:02:06.069Z</time></trkpt><trkpt lat="45.4071467" lon="10.70222"><ele>94.0</ele><time>2026-04-11T09:02:07.064Z</time></trkpt><trkpt lat="45.4071333" lon="10.70234"><ele>92.4</ele><time>2026-04-11T09:02:08.068Z</time></trkpt><trkpt lat="45.40713" lon="10.7024867"><ele>90.80000000000001</ele><time>2026-04-11T09:02:09.063Z</time></trkpt><trkpt lat="45.40712" lon="10.702625"><ele>89.19999999999999</ele><time>2026-04-11T09:02:10.071Z</time></trkpt><trkpt lat="45.4071133" lon="10.702785"><ele>87.6</ele><time>2026-04-11T09:02:11.066Z</time></trkpt><trkpt lat="45.4070917" lon="10.7029033"><ele>86.0</ele><time>2026-04-11T09:02:12.066Z</time></trkpt><trkpt lat="45.4070667" lon="10.70305"><ele>86.0</ele><time>2026-04-11T09:02:13.069Z</time></trkpt><trkpt lat="45.40704" lon="10.7031733"><ele>86.0</ele><time>2026-04-11T09:02:14.066Z</time></trkpt><trkpt lat="45.407025" lon="10.7032867"><ele>86.0</ele><time>2026-04-11T09:02:15.064Z</time></trkpt><trkpt lat="45.40702" lon="10.703415"><ele>86.0</ele><time>2026-04-11T09:02:16.06Z</time></trkpt><trkpt lat="45.40701" lon="10.7035283"><ele>86.0</ele><time>2026-04-11T09:02:17.069Z</time></trkpt><trkpt lat="45.406995" lon="10.7036367"><ele>86.0</ele><time>2026-04-11T09:02:18.064Z</time></trkpt><trkpt lat="45.406975" lon="10.7038133"><ele>86.0</ele><time>2026-04-11T09:02:20.069Z</time></trkpt><trkpt lat="45.406945" lon="10.7039117"><ele>86.0</ele><time>2026-04-11T09:02:21.068Z</time></trkpt><trkpt lat="45.4069017" lon="10.70402"><ele>86.0</ele><time>2026-04-11T09:02:22.063Z</time></trkpt><trkpt lat="45.4068533" lon="10.7041683"><ele>86.0</ele><time>2026-04-11T09:02:23.069Z</time></trkpt><trkpt lat="45.406815" lon="10.7043167"><ele>86.0</ele><time>2026-04-11T09:02:24.063Z</time></trkpt><trkpt lat="45.40677" lon="10.704465"><ele>86.0</ele><time>2026-04-11T09:02:25.063Z</time></trkpt><trkpt lat="45.40673" lon="10.7046067"><ele>86.0</ele><time>2026-04-11T09:02:26.071Z</time></trkpt><trkpt lat="45.40668" lon="10.704755"><ele>86.0</ele><time>2026-04-11T09:02:27.071Z</time></trkpt><trkpt lat="45.4066333" lon="10.70489"><ele>86.0</ele><time>2026-04-11T09:02:28.06Z</time></trkpt><trkpt lat="45.4065767" lon="10.7050333"><ele>86.0</ele><time>2026-04-11T09:02:29.076Z</time></trkpt><trkpt lat="45.4065217" lon="10.7051617"><ele>85.4</ele><time>2026-04-11T09:02:30.072Z</time></trkpt><trkpt lat="45.4064517" lon="10.7052783"><ele>84.8</ele><time>2026-04-11T09:02:31.068Z</time></trkpt><trkpt lat="45.4064017" lon="10.70539"><ele>84.2</ele><time>2026-04-11T09:02:32.094Z</time></trkpt><trkpt lat="45.40636" lon="10.7054967"><ele>83.60000000000001</ele><time>2026-04-11T09:02:33.075Z</time></trkpt><trkpt lat="45.40632" lon="10.7056167"><ele>83.0</ele><time>2026-04-11T09:02:34.067Z</time></trkpt><trkpt lat="45.406295" lon="10.7057217"><ele>82.0</ele><time>2026-04-11T09:02:35.065Z</time></trkpt><trkpt lat="45.4062717" lon="10.7058217"><ele>81.0</ele><time>2026-04-11T09:02:36.074Z</time></trkpt><trkpt lat="45.40625" lon="10.70591"><ele>80.0</ele><time>2026-04-11T09:02:37.068Z</time></trkpt><trkpt lat="45.406205" lon="10.7059933"><ele>79.0</ele><time>2026-04-11T09:02:38.07Z</time></trkpt><trkpt lat="45.4061567" lon="10.7060567"><ele>78.0</ele><time>2026-04-11T09:02:39.065Z</time></trkpt><trkpt lat="45.4060933" lon="10.706135"><ele>77.0</ele><time>2026-04-11T09:02:40.07Z</time></trkpt><trkpt lat="45.4060317" lon="10.7062167"><ele>76.0</ele><time>2026-04-11T09:02:41.066Z</time></trkpt><trkpt lat="45.4059767" lon="10.7062967"><ele>76.0</ele><time>2026-04-11T09:02:42.069Z</time></trkpt><trkpt lat="45.4059267" lon="10.70638"><ele>76.0</ele><time>2026-04-11T09:02:43.065Z</time></trkpt><trkpt lat="45.4058833" lon="10.706485"><ele>76.0</ele><time>2026-04-11T09:02:44.063Z</time></trkpt><trkpt lat="45.405845" lon="10.7066117"><ele>76.0</ele><time>2026-04-11T09:02:45.064Z</time></trkpt><trkpt lat="45.405815" lon="10.70675"><ele>76.0</ele><time>2026-04-11T09:02:46.072Z</time></trkpt><trkpt lat="45.405785" lon="10.706895"><ele>76.5</ele><time>2026-04-11T09:02:47.064Z</time></trkpt><trkpt lat="45.4057433" lon="10.70705"><ele>77.0</ele><time>2026-04-11T09:02:48.074Z</time></trkpt><trkpt lat="45.4057283" lon="10.707215"><ele>77.5</ele><time>2026-04-11T09:02:49.084Z</time></trkpt><trkpt lat="45.405715" lon="10.70737"><ele>78.0</ele><time>2026-04-11T09:02:50.069Z</time></trkpt><trkpt lat="45.4057233" lon="10.707525"><ele>78.0</ele><time>2026-04-11T09:02:51.075Z</time></trkpt><trkpt lat="45.4057417" lon="10.7076567"><ele>78.0</ele><time>2026-04-11T09:02:52.071Z</time></trkpt><trkpt lat="45.405765" lon="10.707765"><ele>78.0</ele><time>2026-04-11T09:02:53.09Z</time></trkpt><trkpt lat="45.405785" lon="10.7078633"><ele>78.0</ele><time>2026-04-11T09:02:54.065Z</time></trkpt><trkpt lat="45.4058033" lon="10.70795"><ele>78.0</ele><time>2026-04-11T09:02:55.068Z</time></trkpt><trkpt lat="45.4058217" lon="10.7080767"><ele>78.0</ele><time>2026-04-11T09:02:57.062Z</time></trkpt><trkpt lat="45.405885" lon="10.7080717"><ele>78.0</ele><time>2026-04-11T09:03:08.059Z</time></trkpt><trkpt lat="45.40585" lon="10.7079717"><ele>78.0</ele><time>2026-04-11T09:03:10.067Z</time></trkpt><trkpt lat="45.4058167" lon="10.7077883"><ele>78.0</ele><time>2026-04-11T09:03:12.077Z</time></trkpt><trkpt lat="45.4058017" lon="10.7076667"><ele>78.0</ele><time>2026-04-11T09:03:13.06Z</time></trkpt><trkpt lat="45.40577" lon="10.7075283"><ele>78.0</ele><time>2026-04-11T09:03:14.076Z</time></trkpt><trkpt lat="45.4057333" lon="10.707355"><ele>78.0</ele><time>2026-04-11T09:03:15.08Z</time></trkpt><trkpt lat="45.4056917" lon="10.7072117"><ele>78.0</ele><time>2026-04-11T09:03:16.06Z</time></trkpt><trkpt lat="45.4056967" lon="10.7070867"><ele>78.0</ele><time>2026-04-11T09:03:17.081Z</time></trkpt><trkpt lat="45.40571" lon="10.7069533"><ele>78.0</ele><time>2026-04-11T09:03:18.079Z</time></trkpt><trkpt lat="45.4057433" lon="10.7068017"><ele>78.0</ele><time>2026-04-11T09:03:19.073Z</time></trkpt><trkpt lat="45.40576" lon="10.7066617"><ele>77.6</ele><time>2026-04-11T09:03:20.073Z</time></trkpt><trkpt lat="45.4058083" lon="10.706575"><ele>77.19999999999999</ele><time>2026-04-11T09:03:21.07Z</time></trkpt><trkpt lat="45.40587" lon="10.7064617"><ele>76.8</ele><time>2026-04-11T09:03:22.058Z</time></trkpt><trkpt lat="45.40594" lon="10.7063467"><ele>76.39999999999999</ele><time>2026-04-11T09:03:23.066Z</time></trkpt><trkpt lat="45.4060283" lon="10.706225"><ele>76.0</ele><time>2026-04-11T09:03:24.077Z</time></trkpt><trkpt lat="45.4061" lon="10.7061467"><ele>75.66666666666666</ele><time>2026-04-11T09:03:25.072Z</time></trkpt><trkpt lat="45.4061783" lon="10.7060667"><ele>75.33333333333333</ele><time>2026-04-11T09:03:26.075Z</time></trkpt><trkpt lat="45.40623" lon="10.7059667"><ele>75.0</ele><time>2026-04-11T09:03:27.068Z</time></trkpt><trkpt lat="45.4062617" lon="10.7058533"><ele>74.66666666666667</ele><time>2026-04-11T09:03:28.068Z</time></trkpt><trkpt lat="45.406285" lon="10.7057433"><ele>74.33333333333334</ele><time>2026-04-11T09:03:29.069Z</time></trkpt><trkpt lat="45.4063067" lon="10.7056533"><ele>74.0</ele><time>2026-04-11T09:03:30.071Z</time></trkpt><trkpt lat="45.4063233" lon="10.7055383"><ele>74.0</ele><time>2026-04-11T09:03:32.065Z</time></trkpt><trkpt lat="45.4062567" lon="10.7055983"><ele>74.0</ele><time>2026-04-11T09:03:37.06Z</time></trkpt><trkpt lat="45.4062117" lon="10.705735"><ele>74.0</ele><time>2026-04-11T09:03:39.07Z</time></trkpt><trkpt lat="45.40618" lon="10.7058217"><ele>74.0</ele><time>2026-04-11T09:03:40.067Z</time></trkpt><trkpt lat="45.4061467" lon="10.7059017"><ele>74.0</ele><time>2026-04-11T09:03:41.07Z</time></trkpt><trkpt lat="45.4061117" lon="10.7059817"><ele>74.0</ele><time>2026-04-11T09:03:42.073Z</time></trkpt><trkpt lat="45.4060683" lon="10.7060733"><ele>74.33333333333334</ele><time>2026-04-11T09:03:43.075Z</time></trkpt><trkpt lat="45.4060133" lon="10.706155"><ele>74.66666666666667</ele><time>2026-04-11T09:03:44.078Z</time></trkpt><trkpt lat="45.4059567" lon="10.7062233"><ele>75.0</ele><time>2026-04-11T09:03:45.082Z</time></trkpt><trkpt lat="45.4058983" lon="10.70629"><ele>75.33333333333333</ele><time>2026-04-11T09:03:46.071Z</time></trkpt><trkpt lat="45.4058467" lon="10.7063517"><ele>75.66666666666666</ele><time>2026-04-11T09:03:47.065Z</time></trkpt><trkpt lat="45.4058" lon="10.7064167"><ele>76.0</ele><time>2026-04-11T09:03:48.069Z</time></trkpt><trkpt lat="45.405715" lon="10.70655"><ele>76.0</ele><time>2026-04-11T09:03:50.069Z</time></trkpt><trkpt lat="45.4056767" lon="10.7066383"><ele>76.0</ele><time>2026-04-11T09:03:51.075Z</time></trkpt><trkpt lat="45.4056083" lon="10.7067917"><ele>76.0</ele><time>2026-04-11T09:03:53.071Z</time></trkpt><trkpt lat="45.405575" lon="10.7068733"><ele>76.0</ele><time>2026-04-11T09:03:54.065Z</time></trkpt><trkpt lat="45.4055083" lon="10.7070133"><ele>76.0</ele><time>2026-04-11T09:03:56.071Z</time></trkpt><trkpt lat="45.4054483" lon="10.7070783"><ele>75.16666666666666</ele><time>2026-04-11T09:03:58.064Z</time></trkpt><trkpt lat="45.4054283" lon="10.7069783"><ele>74.33333333333333</ele><time>2026-04-11T09:04:02.082Z</time></trkpt><trkpt lat="45.405475" lon="10.7068667"><ele>73.5</ele><time>2026-04-11T09:04:04.08Z</time></trkpt><trkpt lat="45.40549" lon="10.7067783"><ele>72.66666666666667</ele><time>2026-04-11T09:04:07.072Z</time></trkpt><trkpt lat="45.4054183" lon="10.7068433"><ele>71.83333333333334</ele><time>2026-04-11T09:04:13.077Z</time></trkpt><trkpt lat="45.4053733" lon="10.7069267"><ele>71.0</ele><time>2026-04-11T09:04:14.076Z</time></trkpt><trkpt lat="45.4053217" lon="10.70705"><ele>70.75</ele><time>2026-04-11T09:04:15.082Z</time></trkpt><trkpt lat="45.4052583" lon="10.707185"><ele>70.5</ele><time>2026-04-11T09:04:16.065Z</time></trkpt><trkpt lat="45.4051917" lon="10.7073333"><ele>70.25</ele><time>2026-04-11T09:04:17.068Z</time></trkpt><trkpt lat="45.4051233" lon="10.7075033"><ele>70.0</ele><time>2026-04-11T09:04:18.07Z</time></trkpt><trkpt lat="45.4050417" lon="10.7076667"><ele>69.25</ele><time>2026-04-11T09:04:19.085Z</time></trkpt><trkpt lat="45.4049633" lon="10.7078167"><ele>68.5</ele><time>2026-04-11T09:04:20.074Z</time></trkpt><trkpt lat="45.4048783" lon="10.7079817"><ele>67.75</ele><time>2026-04-11T09:04:21.07Z</time></trkpt><trkpt lat="45.4047967" lon="10.70816"><ele>67.0</ele><time>2026-04-11T09:04:22.069Z</time></trkpt><trkpt lat="45.4047117" lon="10.7083417"><ele>67.25</ele><time>2026-04-11T09:04:23.073Z</time></trkpt><trkpt lat="45.4046417" lon="10.7085233"><ele>67.5</ele><time>2026-04-11T09:04:24.065Z</time></trkpt><trkpt lat="45.4045733" lon="10.7086933"><ele>67.75</ele><time>2026-04-11T09:04:25.081Z</time></trkpt><trkpt lat="45.4045" lon="10.7088467"><ele>68.0</ele><time>2026-04-11T09:04:26.079Z</time></trkpt><trkpt lat="45.4044267" lon="10.7089883"><ele>68.0</ele><time>2026-04-11T09:04:27.097Z</time></trkpt><trkpt lat="45.4043583" lon="10.7091217"><ele>68.0</ele><time>2026-04-11T09:04:28.074Z</time></trkpt><trkpt lat="45.4042983" lon="10.7092483"><ele>68.0</ele><time>2026-04-11T09:04:29.071Z</time></trkpt><trkpt lat="45.40424" lon="10.7093567"><ele>68.0</ele><time>2026-04-11T09:04:30.08Z</time></trkpt><trkpt lat="45.40416" lon="10.709455"><ele>68.0</ele><time>2026-04-11T09:04:31.072Z</time></trkpt><trkpt lat="45.4040517" lon="10.70942"><ele>68.0</ele><time>2026-04-11T09:04:33.068Z</time></trkpt><trkpt lat="45.40401" lon="10.7093467"><ele>68.0</ele><time>2026-04-11T09:04:34.073Z</time></trkpt><trkpt lat="45.40399" lon="10.7092217"><ele>68.0</ele><time>2026-04-11T09:04:35.064Z</time></trkpt><trkpt lat="45.403965" lon="10.7090867"><ele>68.0</ele><time>2026-04-11T09:04:36.066Z</time></trkpt><trkpt lat="45.4039433" lon="10.7089067"><ele>68.0</ele><time>2026-04-11T09:04:37.068Z</time></trkpt><trkpt lat="45.40392" lon="10.7087383"><ele>68.0</ele><time>2026-04-11T09:04:38.09Z</time></trkpt><trkpt lat="45.4038717" lon="10.7085717"><ele>68.0</ele><time>2026-04-11T09:04:39.081Z</time></trkpt><trkpt lat="45.4038333" lon="10.7084133"><ele>68.0</ele><time>2026-04-11T09:04:40.075Z</time></trkpt><trkpt lat="45.40378" lon="10.7082767"><ele>68.0</ele><time>2026-04-11T09:04:41.067Z</time></trkpt><trkpt lat="45.403725" lon="10.70816"><ele>68.5</ele><time>2026-04-11T09:04:42.07Z</time></trkpt><trkpt lat="45.4036367" lon="10.7080583"><ele>69.0</ele><time>2026-04-11T09:04:43.081Z</time></trkpt><trkpt lat="45.4035367" lon="10.7079717"><ele>69.5</ele><time>2026-04-11T09:04:44.077Z</time></trkpt><trkpt lat="45.403425" lon="10.7079167"><ele>70.0</ele><time>2026-04-11T09:04:45.068Z</time></trkpt><trkpt lat="45.40329" lon="10.7078967"><ele>70.0</ele><time>2026-04-11T09:04:46.07Z</time></trkpt><trkpt lat="45.4031867" lon="10.7078633"><ele>70.0</ele><time>2026-04-11T09:04:47.07Z</time></trkpt><trkpt lat="45.4030767" lon="10.7078583"><ele>70.0</ele><time>2026-04-11T09:04:48.071Z</time></trkpt><trkpt lat="45.4029683" lon="10.7078867"><ele>70.0</ele><time>2026-04-11T09:04:49.078Z</time></trkpt><trkpt lat="45.4028767" lon="10.7078983"><ele>70.0</ele><time>2026-04-11T09:04:50.065Z</time></trkpt><trkpt lat="45.4027933" lon="10.7079417"><ele>70.0</ele><time>2026-04-11T09:04:51.062Z</time></trkpt><trkpt lat="45.402685" lon="10.707995"><ele>70.0</ele><time>2026-04-11T09:04:52.071Z</time></trkpt><trkpt lat="45.4025667" lon="10.7080483"><ele>70.0</ele><time>2026-04-11T09:04:53.065Z</time></trkpt><trkpt lat="45.4024417" lon="10.70808"><ele>70.0</ele><time>2026-04-11T09:04:54.07Z</time></trkpt><trkpt lat="45.402325" lon="10.70807"><ele>70.0</ele><time>2026-04-11T09:04:55.068Z</time></trkpt><trkpt lat="45.40222" lon="10.708055"><ele>70.0</ele><time>2026-04-11T09:04:56.066Z</time></trkpt><trkpt lat="45.402125" lon="10.70803"><ele>70.0</ele><time>2026-04-11T09:04:57.069Z</time></trkpt><trkpt lat="45.402035" lon="10.7080033"><ele>70.0</ele><time>2026-04-11T09:04:58.062Z</time></trkpt><trkpt lat="45.4019467" lon="10.7079583"><ele>70.0</ele><time>2026-04-11T09:04:59.072Z</time></trkpt><trkpt lat="45.4018483" lon="10.70793"><ele>69.8</ele><time>2026-04-11T09:05:00.082Z</time></trkpt><trkpt lat="45.4017583" lon="10.7079117"><ele>69.6</ele><time>2026-04-11T09:05:01.069Z</time></trkpt><trkpt lat="45.401675" lon="10.7078717"><ele>69.4</ele><time>2026-04-11T09:05:02.063Z</time></trkpt><trkpt lat="45.4016017" lon="10.7078717"><ele>69.2</ele><time>2026-04-11T09:05:03.07Z</time></trkpt><trkpt lat="45.4015167" lon="10.707875"><ele>69.0</ele><time>2026-04-11T09:05:52.06Z</time></trkpt><trkpt lat="45.40139" lon="10.7079633"><ele>69.0</ele><time>2026-04-11T09:05:54.063Z</time></trkpt><trkpt lat="45.4013" lon="10.70804"><ele>69.0</ele><time>2026-04-11T09:05:55.066Z</time></trkpt><trkpt lat="45.4011983" lon="10.70813"><ele>69.0</ele><time>2026-04-11T09:05:56.068Z</time></trkpt><trkpt lat="45.4010983" lon="10.7082167"><ele>69.0</ele><time>2026-04-11T09:05:57.067Z</time></trkpt><trkpt lat="45.4009733" lon="10.708295"><ele>69.0</ele><time>2026-04-11T09:05:58.065Z</time></trkpt><trkpt lat="45.40086" lon="10.708385"><ele>69.0</ele><time>2026-04-11T09:05:59.063Z</time></trkpt><trkpt lat="45.40074" lon="10.70849"><ele>69.0</ele><time>2026-04-11T09:06:00.069Z</time></trkpt><trkpt lat="45.4005967" lon="10.708595"><ele>69.0</ele><time>2026-04-11T09:06:01.07Z</time></trkpt><trkpt lat="45.4004467" lon="10.7086867"><ele>68.66666666666667</ele><time>2026-04-11T09:06:02.059Z</time></trkpt><trkpt lat="45.400315" lon="10.7087883"><ele>68.33333333333334</ele><time>2026-04-11T09:06:03.066Z</time></trkpt><trkpt lat="45.4001767" lon="10.708905"><ele>68.0</ele><time>2026-04-11T09:06:04.082Z</time></trkpt><trkpt lat="45.4000183" lon="10.70902"><ele>68.0</ele><time>2026-04-11T09:06:05.068Z</time></trkpt><trkpt lat="45.3998633" lon="10.7091267"><ele>68.0</ele><time>2026-04-11T09:06:06.064Z</time></trkpt><trkpt lat="45.399695" lon="10.7092217"><ele>68.0</ele><time>2026-04-11T09:06:07.067Z</time></trkpt><trkpt lat="45.3995417" lon="10.7093183"><ele>68.0</ele><time>2026-04-11T09:06:08.069Z</time></trkpt><trkpt lat="45.3993817" lon="10.7093633"><ele>68.0</ele><time>2026-04-11T09:06:09.065Z</time></trkpt><trkpt lat="45.39924" lon="10.7094283"><ele>68.0</ele><time>2026-04-11T09:06:10.067Z</time></trkpt><trkpt lat="45.399075" lon="10.7094867"><ele>68.0</ele><time>2026-04-11T09:06:11.075Z</time></trkpt><trkpt lat="45.398905" lon="10.70957"><ele>68.0</ele><time>2026-04-11T09:06:12.062Z</time></trkpt><trkpt lat="45.3987583" lon="10.7096233"><ele>68.0</ele><time>2026-04-11T09:06:13.073Z</time></trkpt><trkpt lat="45.3986133" lon="10.709675"><ele>68.5</ele><time>2026-04-11T09:06:14.072Z</time></trkpt><trkpt lat="45.39848" lon="10.7097283"><ele>69.0</ele><time>2026-04-11T09:06:15.065Z</time></trkpt><trkpt lat="45.39837" lon="10.7097583"><ele>69.5</ele><time>2026-04-11T09:06:16.074Z</time></trkpt><trkpt lat="45.3982567" lon="10.709745"><ele>70.0</ele><time>2026-04-11T09:06:17.067Z</time></trkpt><trkpt lat="45.3981583" lon="10.709715"><ele>70.0</ele><time>2026-04-11T09:06:18.065Z</time></trkpt><trkpt lat="45.39806" lon="10.70963"><ele>70.0</ele><time>2026-04-11T09:06:19.064Z</time></trkpt><trkpt lat="45.3979933" lon="10.7095183"><ele>70.0</ele><time>2026-04-11T09:06:20.061Z</time></trkpt><trkpt lat="45.3979117" lon="10.7093867"><ele>70.0</ele><time>2026-04-11T09:06:21.062Z</time></trkpt><trkpt lat="45.3978283" lon="10.7092383"><ele>69.0</ele><time>2026-04-11T09:06:22.068Z</time></trkpt><trkpt lat="45.3977883" lon="10.7090417"><ele>68.0</ele><time>2026-04-11T09:06:23.069Z</time></trkpt><trkpt lat="45.3977383" lon="10.7088667"><ele>67.0</ele><time>2026-04-11T09:06:24.077Z</time></trkpt><trkpt lat="45.39768" lon="10.7087367"><ele>66.0</ele><time>2026-04-11T09:06:25.067Z</time></trkpt><trkpt lat="45.3976183" lon="10.708595"><ele>66.25</ele><time>2026-04-11T09:06:26.065Z</time></trkpt><trkpt lat="45.39752" lon="10.7084967"><ele>66.5</ele><time>2026-04-11T09:06:27.069Z</time></trkpt><trkpt lat="45.397405" lon="10.7084683"><ele>66.75</ele><time>2026-04-11T09:06:28.062Z</time></trkpt><trkpt lat="45.3972817" lon="10.7084333"><ele>67.0</ele><time>2026-04-11T09:06:29.068Z</time></trkpt><trkpt lat="45.3971533" lon="10.70841"><ele>67.0</ele><time>2026-04-11T09:06:30.101Z</time></trkpt><trkpt lat="45.397005" lon="10.7084133"><ele>67.0</ele><time>2026-04-11T09:06:31.077Z</time></trkpt><trkpt lat="45.3968533" lon="10.7084267"><ele>67.0</ele><time>2026-04-11T09:06:32.062Z</time></trkpt><trkpt lat="45.3966817" lon="10.7084267"><ele>67.0</ele><time>2026-04-11T09:06:33.068Z</time></trkpt><trkpt lat="45.3965083" lon="10.70841"><ele>67.0</ele><time>2026-04-11T09:06:34.073Z</time></trkpt><trkpt lat="45.3963433" lon="10.7083583"><ele>67.0</ele><time>2026-04-11T09:06:35.071Z</time></trkpt><trkpt lat="45.3961767" lon="10.7083"><ele>65.33333333333333</ele><time>2026-04-11T09:06:36.113Z</time></trkpt><trkpt lat="45.3960033" lon="10.7082417"><ele>63.66666666666667</ele><time>2026-04-11T09:06:37.067Z</time></trkpt><trkpt lat="45.3958133" lon="10.70816"><ele>62.0</ele><time>2026-04-11T09:06:38.071Z</time></trkpt><trkpt lat="45.3956267" lon="10.7081"><ele>63.0</ele><time>2026-04-11T09:06:39.065Z</time></trkpt><trkpt lat="45.3954683" lon="10.708055"><ele>64.0</ele><time>2026-04-11T09:06:40.061Z</time></trkpt><trkpt lat="45.3953233" lon="10.70803"><ele>65.0</ele><time>2026-04-11T09:06:41.061Z</time></trkpt><trkpt lat="45.3952033" lon="10.7079733"><ele>66.0</ele><time>2026-04-11T09:06:42.066Z</time></trkpt><trkpt lat="45.39511" lon="10.7079017"><ele>66.0</ele><time>2026-04-11T09:06:43.071Z</time></trkpt><trkpt lat="45.39504" lon="10.7078283"><ele>66.0</ele><time>2026-04-11T09:06:44.068Z</time></trkpt><trkpt lat="45.3950233" lon="10.707695"><ele>66.0</ele><time>2026-04-11T09:06:45.069Z</time></trkpt><trkpt lat="45.395015" lon="10.7075283"><ele>66.0</ele><time>2026-04-11T09:06:46.068Z</time></trkpt><trkpt lat="45.395035" lon="10.707325"><ele>66.0</ele><time>2026-04-11T09:06:47.063Z</time></trkpt><trkpt lat="45.3950467" lon="10.7071033"><ele>65.33333333333333</ele><time>2026-04-11T09:06:48.069Z</time></trkpt><trkpt lat="45.39504" lon="10.7068917"><ele>64.66666666666666</ele><time>2026-04-11T09:06:49.066Z</time></trkpt><trkpt lat="45.3950367" lon="10.70667"><ele>64.0</ele><time>2026-04-11T09:06:50.069Z</time></trkpt><trkpt lat="45.3950383" lon="10.7064417"><ele>64.0</ele><time>2026-04-11T09:06:51.063Z</time></trkpt><trkpt lat="45.3950167" lon="10.706205"><ele>64.0</ele><time>2026-04-11T09:06:52.077Z</time></trkpt><trkpt lat="45.3950183" lon="10.7059733"><ele>64.0</ele><time>2026-04-11T09:06:53.063Z</time></trkpt><trkpt lat="45.3950167" lon="10.7057017"><ele>63.33333333333333</ele><time>2026-04-11T09:06:54.07Z</time></trkpt><trkpt lat="45.3950467" lon="10.7054417"><ele>62.66666666666667</ele><time>2026-04-11T09:06:55.068Z</time></trkpt><trkpt lat="45.395045" lon="10.7052"><ele>62.0</ele><time>2026-04-11T09:06:56.091Z</time></trkpt><trkpt lat="45.3950517" lon="10.7049583"><ele>62.0</ele><time>2026-04-11T09:06:57.063Z</time></trkpt><trkpt lat="45.3950483" lon="10.7047367"><ele>62.0</ele><time>2026-04-11T09:06:58.075Z</time></trkpt><trkpt lat="45.3950867" lon="10.7044833"><ele>62.0</ele><time>2026-04-11T09:06:59.073Z</time></trkpt><trkpt lat="45.395145" lon="10.70424"><ele>63.0</ele><time>2026-04-11T09:07:00.068Z</time></trkpt><trkpt lat="45.3951817" lon="10.7040067"><ele>64.0</ele><time>2026-04-11T09:07:01.08Z</time></trkpt><trkpt lat="45.39523" lon="10.7037717"><ele>65.0</ele><time>2026-04-11T09:07:02.068Z</time></trkpt><trkpt lat="45.3952483" lon="10.7035517"><ele>67.0</ele><time>2026-04-11T09:07:03.063Z</time></trkpt><trkpt lat="45.395285" lon="10.7033467"><ele>69.0</ele><time>2026-04-11T09:07:04.064Z</time></trkpt><trkpt lat="45.3953083" lon="10.70319"><ele>71.0</ele><time>2026-04-11T09:07:05.076Z</time></trkpt><trkpt lat="45.39534" lon="10.7030267"><ele>73.0</ele><time>2026-04-11T09:07:06.063Z</time></trkpt><trkpt lat="45.3953733" lon="10.70285"><ele>73.6</ele><time>2026-04-11T09:07:07.079Z</time></trkpt><trkpt lat="45.395425" lon="10.7027117"><ele>74.19999999999999</ele><time>2026-04-11T09:07:08.067Z</time></trkpt><trkpt lat="45.3955067" lon="10.7025933"><ele>74.8</ele><time>2026-04-11T09:07:09.079Z</time></trkpt><trkpt lat="45.3955833" lon="10.7025033"><ele>75.39999999999999</ele><time>2026-04-11T09:07:10.063Z</time></trkpt><trkpt lat="45.395685" lon="10.7024667"><ele>76.0</ele><time>2026-04-11T09:07:11.071Z</time></trkpt><trkpt lat="45.3957633" lon="10.7024683"><ele>76.0</ele><time>2026-04-11T09:07:12.067Z</time></trkpt><trkpt lat="45.3958517" lon="10.70248"><ele>76.0</ele><time>2026-04-11T09:07:13.061Z</time></trkpt><trkpt lat="45.3959583" lon="10.70246"><ele>76.0</ele><time>2026-04-11T09:07:14.069Z</time></trkpt><trkpt lat="45.396085" lon="10.70242"><ele>76.0</ele><time>2026-04-11T09:07:15.066Z</time></trkpt><trkpt lat="45.3962117" lon="10.7024067"><ele>74.33333333333333</ele><time>2026-04-11T09:07:16.06Z</time></trkpt><trkpt lat="45.396355" lon="10.7023767"><ele>72.66666666666667</ele><time>2026-04-11T09:07:17.067Z</time></trkpt><trkpt lat="45.3965167" lon="10.7023717"><ele>71.0</ele><time>2026-04-11T09:07:18.071Z</time></trkpt><trkpt lat="45.3966867" lon="10.702385"><ele>71.0</ele><time>2026-04-11T09:07:19.064Z</time></trkpt><trkpt lat="45.3968367" lon="10.702425"><ele>71.0</ele><time>2026-04-11T09:07:20.071Z</time></trkpt><trkpt lat="45.3970017" lon="10.7024483"><ele>71.0</ele><time>2026-04-11T09:07:21.068Z</time></trkpt><trkpt lat="45.3971717" lon="10.702475"><ele>70.0</ele><time>2026-04-11T09:07:22.063Z</time></trkpt><trkpt lat="45.3973483" lon="10.702495"><ele>69.0</ele><time>2026-04-11T09:07:23.064Z</time></trkpt><trkpt lat="45.3975133" lon="10.7025183"><ele>68.0</ele><time>2026-04-11T09:07:24.076Z</time></trkpt><trkpt lat="45.39767" lon="10.7025433"><ele>68.0</ele><time>2026-04-11T09:07:25.122Z</time></trkpt><trkpt lat="45.3978433" lon="10.70252"><ele>68.0</ele><time>2026-04-11T09:07:26.064Z</time></trkpt><trkpt lat="45.3979933" lon="10.7025383"><ele>68.0</ele><time>2026-04-11T09:07:27.081Z</time></trkpt><trkpt lat="45.39813" lon="10.7025667"><ele>68.6</ele><time>2026-04-11T09:07:28.064Z</time></trkpt><trkpt lat="45.3982433" lon="10.702595"><ele>69.19999999999999</ele><time>2026-04-11T09:07:29.072Z</time></trkpt><trkpt lat="45.3983383" lon="10.702595"><ele>69.8</ele><time>2026-04-11T09:07:30.069Z</time></trkpt><trkpt lat="45.39844" lon="10.7025467"><ele>70.39999999999999</ele><time>2026-04-11T09:07:31.061Z</time></trkpt><trkpt lat="45.3985233" lon="10.7024967"><ele>71.0</ele><time>2026-04-11T09:07:32.067Z</time></trkpt><trkpt lat="45.398595" lon="10.7023533"><ele>71.0</ele><time>2026-04-11T09:07:33.068Z</time></trkpt><trkpt lat="45.3986317" lon="10.70219"><ele>71.0</ele><time>2026-04-11T09:07:34.066Z</time></trkpt><trkpt lat="45.3986683" lon="10.7019917"><ele>71.0</ele><time>2026-04-11T09:07:35.064Z</time></trkpt><trkpt lat="45.398725" lon="10.701785"><ele>71.0</ele><time>2026-04-11T09:07:36.064Z</time></trkpt><trkpt lat="45.3987617" lon="10.7015983"><ele>71.33333333333334</ele><time>2026-04-11T09:07:37.068Z</time></trkpt><trkpt lat="45.3987933" lon="10.701385"><ele>71.66666666666667</ele><time>2026-04-11T09:07:38.061Z</time></trkpt><trkpt lat="45.3988167" lon="10.701165"><ele>72.0</ele><time>2026-04-11T09:07:39.065Z</time></trkpt><trkpt lat="45.398825" lon="10.700935"><ele>73.25</ele><time>2026-04-11T09:07:40.068Z</time></trkpt><trkpt lat="45.3988517" lon="10.7007283"><ele>74.5</ele><time>2026-04-11T09:07:41.068Z</time></trkpt><trkpt lat="45.39888" lon="10.7005217"><ele>75.75</ele><time>2026-04-11T09:07:42.072Z</time></trkpt><trkpt lat="45.39889" lon="10.7003167"><ele>77.0</ele><time>2026-04-11T09:07:43.068Z</time></trkpt><trkpt lat="45.39892" lon="10.700115"><ele>77.0</ele><time>2026-04-11T09:07:44.068Z</time></trkpt><trkpt lat="45.3989817" lon="10.699925"><ele>77.0</ele><time>2026-04-11T09:07:45.059Z</time></trkpt><trkpt lat="45.3990067" lon="10.6997233"><ele>77.0</ele><time>2026-04-11T09:07:46.065Z</time></trkpt><trkpt lat="45.399035" lon="10.69953"><ele>77.0</ele><time>2026-04-11T09:07:47.068Z</time></trkpt><trkpt lat="45.3991033" lon="10.6993517"><ele>77.2</ele><time>2026-04-11T09:07:48.067Z</time></trkpt><trkpt lat="45.3991433" lon="10.69917"><ele>77.4</ele><time>2026-04-11T09:07:49.068Z</time></trkpt><trkpt lat="45.399185" lon="10.6990067"><ele>77.6</ele><time>2026-04-11T09:07:50.079Z</time></trkpt><trkpt lat="45.399245" lon="10.6988817"><ele>77.8</ele><time>2026-04-11T09:07:51.061Z</time></trkpt><trkpt lat="45.39931" lon="10.6988067"><ele>78.0</ele><time>2026-04-11T09:07:52.067Z</time></trkpt><trkpt lat="45.39936" lon="10.698725"><ele>78.0</ele><time>2026-04-11T09:07:53.074Z</time></trkpt><trkpt lat="45.3994167" lon="10.6986217"><ele>78.0</ele><time>2026-04-11T09:07:55.073Z</time></trkpt><trkpt lat="45.39934" lon="10.6985517"><ele>78.0</ele><time>2026-04-11T09:08:09.063Z</time></trkpt><trkpt lat="45.3993567" lon="10.6986417"><ele>78.0</ele><time>2026-04-11T09:08:27.071Z</time></trkpt><trkpt lat="45.3994217" lon="10.6986733"><ele>78.0</ele><time>2026-04-11T09:08:29.064Z</time></trkpt><trkpt lat="45.3995433" lon="10.6986833"><ele>78.0</ele><time>2026-04-11T09:08:31.066Z</time></trkpt><trkpt lat="45.3996383" lon="10.6986683"><ele>78.2</ele><time>2026-04-11T09:08:32.065Z</time></trkpt><trkpt lat="45.399745" lon="10.6986417"><ele>78.4</ele><time>2026-04-11T09:08:33.064Z</time></trkpt><trkpt lat="45.3998617" lon="10.6986017"><ele>78.60000000000001</ele><time>2026-04-11T09:08:34.074Z</time></trkpt><trkpt lat="45.399925" lon="10.698575"><ele>78.8</ele><time>2026-04-11T09:08:35.071Z</time></trkpt><trkpt lat="45.399995" lon="10.6985133"><ele>79.0</ele><time>2026-04-11T09:09:57.076Z</time></trkpt><trkpt lat="45.4000967" lon="10.6985283"><ele>79.0</ele><time>2026-04-11T09:09:59.062Z</time></trkpt><trkpt lat="45.4001683" lon="10.698555"><ele>79.0</ele><time>2026-04-11T09:10:00.071Z</time></trkpt><trkpt lat="45.4002567" lon="10.6986"><ele>79.0</ele><time>2026-04-11T09:10:01.064Z</time></trkpt><trkpt lat="45.4003683" lon="10.6986567"><ele>79.0</ele><time>2026-04-11T09:10:02.065Z</time></trkpt><trkpt lat="45.40047" lon="10.6987583"><ele>79.0</ele><time>2026-04-11T09:10:03.061Z</time></trkpt><trkpt lat="45.4005617" lon="10.6988867"><ele>79.6</ele><time>2026-04-11T09:10:04.074Z</time></trkpt><trkpt lat="45.4006483" lon="10.698995"><ele>80.2</ele><time>2026-04-11T09:10:05.063Z</time></trkpt><trkpt lat="45.4007367" lon="10.699085"><ele>80.8</ele><time>2026-04-11T09:10:06.072Z</time></trkpt><trkpt lat="45.4008283" lon="10.69913"><ele>81.39999999999999</ele><time>2026-04-11T09:10:07.066Z</time></trkpt><trkpt lat="45.4009233" lon="10.6991617"><ele>82.0</ele><time>2026-04-11T09:10:08.07Z</time></trkpt><trkpt lat="45.4010433" lon="10.69916"><ele>82.0</ele><time>2026-04-11T09:10:09.063Z</time></trkpt><trkpt lat="45.401165" lon="10.6991617"><ele>82.0</ele><time>2026-04-11T09:10:10.071Z</time></trkpt><trkpt lat="45.4013033" lon="10.6991567"><ele>82.0</ele><time>2026-04-11T09:10:11.063Z</time></trkpt><trkpt lat="45.4014533" lon="10.6991433"><ele>82.0</ele><time>2026-04-11T09:10:12.063Z</time></trkpt><trkpt lat="45.4016067" lon="10.6991433"><ele>83.0</ele><time>2026-04-11T09:10:13.093Z</time></trkpt><trkpt lat="45.4017333" lon="10.699125"><ele>84.0</ele><time>2026-04-11T09:10:14.061Z</time></trkpt><trkpt lat="45.4018733" lon="10.699135"><ele>85.0</ele><time>2026-04-11T09:10:15.062Z</time></trkpt><trkpt lat="45.402005" lon="10.6991383"><ele>86.0</ele><time>2026-04-11T09:10:16.061Z</time></trkpt><trkpt lat="45.402115" lon="10.69915"><ele>85.83333333333334</ele><time>2026-04-11T09:10:17.066Z</time></trkpt><trkpt lat="45.4022183" lon="10.6991367"><ele>85.66666666666667</ele><time>2026-04-11T09:10:18.063Z</time></trkpt><trkpt lat="45.4023133" lon="10.6991117"><ele>85.5</ele><time>2026-04-11T09:10:19.065Z</time></trkpt><trkpt lat="45.4023783" lon="10.6990917"><ele>85.33333333333333</ele><time>2026-04-11T09:10:20.069Z</time></trkpt><trkpt lat="45.4024267" lon="10.6990083"><ele>85.16666666666666</ele><time>2026-04-11T09:10:21.065Z</time></trkpt><trkpt lat="45.4024667" lon="10.6989083"><ele>85.0</ele><time>2026-04-11T09:10:22.061Z</time></trkpt><trkpt lat="45.4024633" lon="10.6987583"><ele>85.25</ele><time>2026-04-11T09:10:23.069Z</time></trkpt><trkpt lat="45.4024467" lon="10.6985717"><ele>85.5</ele><time>2026-04-11T09:10:24.061Z</time></trkpt><trkpt lat="45.4024283" lon="10.69838"><ele>85.75</ele><time>2026-04-11T09:10:25.061Z</time></trkpt><trkpt lat="45.40241" lon="10.6981683"><ele>86.0</ele><time>2026-04-11T09:10:26.065Z</time></trkpt><trkpt lat="45.402395" lon="10.6979567"><ele>85.5</ele><time>2026-04-11T09:10:27.062Z</time></trkpt><trkpt lat="45.4023883" lon="10.6977483"><ele>85.0</ele><time>2026-04-11T09:10:28.062Z</time></trkpt><trkpt lat="45.4023733" lon="10.6975433"><ele>84.5</ele><time>2026-04-11T09:10:29.067Z</time></trkpt><trkpt lat="45.4023767" lon="10.69735"><ele>84.0</ele><time>2026-04-11T09:10:30.076Z</time></trkpt><trkpt lat="45.4023917" lon="10.6971767"><ele>84.0</ele><time>2026-04-11T09:10:31.064Z</time></trkpt><trkpt lat="45.4024117" lon="10.6970217"><ele>84.0</ele><time>2026-04-11T09:10:32.069Z</time></trkpt><trkpt lat="45.402435" lon="10.696905"><ele>84.0</ele><time>2026-04-11T09:10:33.071Z</time></trkpt><trkpt lat="45.402455" lon="10.6968083"><ele>84.0</ele><time>2026-04-11T09:10:34.065Z</time></trkpt><trkpt lat="45.40257" lon="10.6967033"><ele>84.0</ele><time>2026-04-11T09:10:36.069Z</time></trkpt><trkpt lat="45.4026667" lon="10.696675"><ele>84.25</ele><time>2026-04-11T09:10:37.06Z</time></trkpt><trkpt lat="45.4027817" lon="10.69667"><ele>84.5</ele><time>2026-04-11T09:10:38.063Z</time></trkpt><trkpt lat="45.402915" lon="10.6966217"><ele>84.75</ele><time>2026-04-11T09:10:39.061Z</time></trkpt><trkpt lat="45.4030517" lon="10.6965683"><ele>85.0</ele><time>2026-04-11T09:10:40.068Z</time></trkpt><trkpt lat="45.403225" lon="10.69657"><ele>85.0</ele><time>2026-04-11T09:10:41.064Z</time></trkpt><trkpt lat="45.4033783" lon="10.6965233"><ele>85.0</ele><time>2026-04-11T09:10:42.066Z</time></trkpt><trkpt lat="45.4035333" lon="10.6964867"><ele>85.0</ele><time>2026-04-11T09:10:43.062Z</time></trkpt><trkpt lat="45.4036717" lon="10.6964217"><ele>85.0</ele><time>2026-04-11T09:10:44.064Z</time></trkpt><trkpt lat="45.4037867" lon="10.6963567"><ele>85.0</ele><time>2026-04-11T09:10:45.068Z</time></trkpt><trkpt lat="45.403895" lon="10.696275"><ele>85.0</ele><time>2026-04-11T09:10:46.077Z</time></trkpt><trkpt lat="45.4040167" lon="10.696155"><ele>85.0</ele><time>2026-04-11T09:10:47.064Z</time></trkpt><trkpt lat="45.4041217" lon="10.6960183"><ele>85.75</ele><time>2026-04-11T09:10:48.064Z</time></trkpt><trkpt lat="45.40423" lon="10.69584"><ele>86.5</ele><time>2026-04-11T09:10:49.066Z</time></trkpt><trkpt lat="45.4042983" lon="10.6957033"><ele>87.25</ele><time>2026-04-11T09:10:50.068Z</time></trkpt><trkpt lat="45.4043367" lon="10.69554"><ele>88.0</ele><time>2026-04-11T09:10:51.064Z</time></trkpt><trkpt lat="45.4043767" lon="10.6954033"><ele>88.0</ele><time>2026-04-11T09:10:52.066Z</time></trkpt><trkpt lat="45.4044217" lon="10.6952717"><ele>88.0</ele><time>2026-04-11T09:10:53.063Z</time></trkpt><trkpt lat="45.40445" lon="10.6951467"><ele>88.0</ele><time>2026-04-11T09:10:54.06Z</time></trkpt><trkpt lat="45.40447" lon="10.6950467"><ele>88.0</ele><time>2026-04-11T09:10:55.064Z</time></trkpt><trkpt lat="45.4044817" lon="10.6949367"><ele>88.0</ele><time>2026-04-11T09:10:57.061Z</time></trkpt><trkpt lat="45.404405" lon="10.6948867"><ele>88.0</ele><time>2026-04-11T09:11:04.069Z</time></trkpt><trkpt lat="45.4043367" lon="10.6949017"><ele>87.25</ele><time>2026-04-11T09:11:05.079Z</time></trkpt><trkpt lat="45.4042517" lon="10.6949317"><ele>86.5</ele><time>2026-04-11T09:11:06.063Z</time></trkpt><trkpt lat="45.4041417" lon="10.6949633"><ele>85.75</ele><time>2026-04-11T09:11:07.065Z</time></trkpt><trkpt lat="45.4040017" lon="10.6949867"><ele>85.0</ele><time>2026-04-11T09:11:08.064Z</time></trkpt><trkpt lat="45.40385" lon="10.6950083"><ele>85.0</ele><time>2026-04-11T09:11:09.063Z</time></trkpt><trkpt lat="45.403715" lon="10.6950333"><ele>85.0</ele><time>2026-04-11T09:11:10.068Z</time></trkpt><trkpt lat="45.4035467" lon="10.6950233"><ele>85.0</ele><time>2026-04-11T09:11:11.072Z</time></trkpt><trkpt lat="45.403365" lon="10.6949717"><ele>85.0</ele><time>2026-04-11T09:11:12.077Z</time></trkpt><trkpt lat="45.4031817" lon="10.6949183"><ele>85.0</ele><time>2026-04-11T09:11:13.066Z</time></trkpt><trkpt lat="45.4029883" lon="10.6948583"><ele>85.0</ele><time>2026-04-11T09:11:14.079Z</time></trkpt><trkpt lat="45.402785" lon="10.694825"><ele>85.66666666666666</ele><time>2026-04-11T09:11:15.073Z</time></trkpt><trkpt lat="45.4025833" lon="10.6948067"><ele>86.33333333333333</ele><time>2026-04-11T09:11:16.063Z</time></trkpt><trkpt lat="45.4023733" lon="10.694815"><ele>87.0</ele><time>2026-04-11T09:11:17.064Z</time></trkpt><trkpt lat="45.402175" lon="10.6947883"><ele>87.0</ele><time>2026-04-11T09:11:18.094Z</time></trkpt><trkpt lat="45.4019883" lon="10.694765"><ele>87.0</ele><time>2026-04-11T09:11:19.065Z</time></trkpt><trkpt lat="45.4017967" lon="10.6947583"><ele>87.0</ele><time>2026-04-11T09:11:20.073Z</time></trkpt><trkpt lat="45.4016" lon="10.6947583"><ele>87.0</ele><time>2026-04-11T09:11:21.073Z</time></trkpt><trkpt lat="45.4014083" lon="10.6947833"><ele>87.0</ele><time>2026-04-11T09:11:22.081Z</time></trkpt><trkpt lat="45.401215" lon="10.69484"><ele>87.0</ele><time>2026-04-11T09:11:23.072Z</time></trkpt><trkpt lat="45.401015" lon="10.6949283"><ele>88.66666666666667</ele><time>2026-04-11T09:11:24.069Z</time></trkpt><trkpt lat="45.4008183" lon="10.694995"><ele>90.33333333333334</ele><time>2026-04-11T09:11:25.08Z</time></trkpt><trkpt lat="45.400645" lon="10.6950417"><ele>92.0</ele><time>2026-04-11T09:11:26.071Z</time></trkpt><trkpt lat="45.400465" lon="10.6951017"><ele>92.33333333333334</ele><time>2026-04-11T09:11:27.072Z</time></trkpt><trkpt lat="45.4003" lon="10.69512"><ele>92.66666666666667</ele><time>2026-04-11T09:11:28.069Z</time></trkpt><trkpt lat="45.400115" lon="10.69514"><ele>93.0</ele><time>2026-04-11T09:11:29.062Z</time></trkpt><trkpt lat="45.3999383" lon="10.6951183"><ele>93.0</ele><time>2026-04-11T09:11:30.077Z</time></trkpt><trkpt lat="45.3997633" lon="10.695105"><ele>93.0</ele><time>2026-04-11T09:11:31.063Z</time></trkpt><trkpt lat="45.3995767" lon="10.6950717"><ele>93.0</ele><time>2026-04-11T09:11:32.064Z</time></trkpt><trkpt lat="45.3994117" lon="10.695015"><ele>92.33333333333333</ele><time>2026-04-11T09:11:33.064Z</time></trkpt><trkpt lat="45.3992433" lon="10.6949483"><ele>91.66666666666666</ele><time>2026-04-11T09:11:34.069Z</time></trkpt><trkpt lat="45.399075" lon="10.69489"><ele>91.0</ele><time>2026-04-11T09:11:35.068Z</time></trkpt><trkpt lat="45.3988883" lon="10.6948383"><ele>89.0</ele><time>2026-04-11T09:11:36.077Z</time></trkpt><trkpt lat="45.3987367" lon="10.694745"><ele>87.0</ele><time>2026-04-11T09:11:37.065Z</time></trkpt><trkpt lat="45.3985983" lon="10.6946167"><ele>85.0</ele><time>2026-04-11T09:11:38.07Z</time></trkpt><trkpt lat="45.3984633" lon="10.69448"><ele>87.33333333333333</ele><time>2026-04-11T09:11:39.063Z</time></trkpt><trkpt lat="45.3983217" lon="10.6943367"><ele>89.66666666666667</ele><time>2026-04-11T09:11:40.073Z</time></trkpt><trkpt lat="45.3981567" lon="10.694235"><ele>92.0</ele><time>2026-04-11T09:11:41.064Z</time></trkpt><trkpt lat="45.3980017" lon="10.6941533"><ele>91.66666666666667</ele><time>2026-04-11T09:11:42.078Z</time></trkpt><trkpt lat="45.397845" lon="10.6941117"><ele>91.33333333333333</ele><time>2026-04-11T09:11:43.069Z</time></trkpt><trkpt lat="45.3977017" lon="10.69406"><ele>91.0</ele><time>2026-04-11T09:11:44.077Z</time></trkpt><trkpt lat="45.397545" lon="10.6940333"><ele>91.0</ele><time>2026-04-11T09:11:45.068Z</time></trkpt><trkpt lat="45.397375" lon="10.6940117"><ele>91.0</ele><time>2026-04-11T09:11:46.073Z</time></trkpt><trkpt lat="45.3972167" lon="10.693975"><ele>91.0</ele><time>2026-04-11T09:11:47.065Z</time></trkpt><trkpt lat="45.39705" lon="10.6939583"><ele>89.0</ele><time>2026-04-11T09:11:48.066Z</time></trkpt><trkpt lat="45.3968717" lon="10.69394"><ele>87.0</ele><time>2026-04-11T09:11:49.069Z</time></trkpt><trkpt lat="45.3967033" lon="10.693915"><ele>85.0</ele><time>2026-04-11T09:11:50.067Z</time></trkpt><trkpt lat="45.3965433" lon="10.6938533"><ele>85.0</ele><time>2026-04-11T09:11:51.068Z</time></trkpt><trkpt lat="45.39638" lon="10.69381"><ele>85.0</ele><time>2026-04-11T09:11:52.064Z</time></trkpt><trkpt lat="45.3962217" lon="10.693765"><ele>85.0</ele><time>2026-04-11T09:11:53.082Z</time></trkpt><trkpt lat="45.3960483" lon="10.693755"><ele>85.33333333333333</ele><time>2026-04-11T09:11:54.067Z</time></trkpt><trkpt lat="45.3958733" lon="10.6937367"><ele>85.66666666666667</ele><time>2026-04-11T09:11:55.069Z</time></trkpt><trkpt lat="45.395715" lon="10.6937217"><ele>86.0</ele><time>2026-04-11T09:11:56.073Z</time></trkpt><trkpt lat="45.39555" lon="10.6937267"><ele>86.33333333333334</ele><time>2026-04-11T09:11:57.065Z</time></trkpt><trkpt lat="45.3953967" lon="10.6937"><ele>86.66666666666667</ele><time>2026-04-11T09:11:58.064Z</time></trkpt><trkpt lat="45.3952333" lon="10.6937133"><ele>87.0</ele><time>2026-04-11T09:11:59.069Z</time></trkpt><trkpt lat="45.39506" lon="10.6936833"><ele>87.0</ele><time>2026-04-11T09:12:00.065Z</time></trkpt><trkpt lat="45.3948917" lon="10.6936533"><ele>87.0</ele><time>2026-04-11T09:12:01.065Z</time></trkpt><trkpt lat="45.3947483" lon="10.6936233"><ele>87.0</ele><time>2026-04-11T09:12:02.066Z</time></trkpt><trkpt lat="45.39459" lon="10.6935633"><ele>86.66666666666667</ele><time>2026-04-11T09:12:03.059Z</time></trkpt><trkpt lat="45.39441" lon="10.6934883"><ele>86.33333333333334</ele><time>2026-04-11T09:12:04.07Z</time></trkpt><trkpt lat="45.3942667" lon="10.69339"><ele>86.0</ele><time>2026-04-11T09:12:05.063Z</time></trkpt><trkpt lat="45.394125" lon="10.69327"><ele>86.0</ele><time>2026-04-11T09:12:06.077Z</time></trkpt><trkpt lat="45.3939917" lon="10.6931217"><ele>86.0</ele><time>2026-04-11T09:12:07.063Z</time></trkpt><trkpt lat="45.3938617" lon="10.6929567"><ele>86.0</ele><time>2026-04-11T09:12:08.064Z</time></trkpt><trkpt lat="45.3937317" lon="10.692775"><ele>84.66666666666667</ele><time>2026-04-11T09:12:09.07Z</time></trkpt><trkpt lat="45.3936367" lon="10.6925783"><ele>83.33333333333333</ele><time>2026-04-11T09:12:10.064Z</time></trkpt><trkpt lat="45.393515" lon="10.69238"><ele>82.0</ele><time>2026-04-11T09:12:11.064Z</time></trkpt><trkpt lat="45.393405" lon="10.6922117"><ele>82.0</ele><time>2026-04-11T09:12:12.063Z</time></trkpt><trkpt lat="45.3932917" lon="10.6920233"><ele>82.0</ele><time>2026-04-11T09:12:13.075Z</time></trkpt><trkpt lat="45.39318" lon="10.691855"><ele>82.0</ele><time>2026-04-11T09:12:14.075Z</time></trkpt><trkpt lat="45.3930683" lon="10.6916783"><ele>81.33333333333333</ele><time>2026-04-11T09:12:15.072Z</time></trkpt><trkpt lat="45.3929683" lon="10.69152"><ele>80.66666666666667</ele><time>2026-04-11T09:12:16.071Z</time></trkpt><trkpt lat="45.3928667" lon="10.6913383"><ele>80.0</ele><time>2026-04-11T09:12:17.065Z</time></trkpt><trkpt lat="45.3927633" lon="10.691165"><ele>82.33333333333334</ele><time>2026-04-11T09:12:18.072Z</time></trkpt><trkpt lat="45.3926783" lon="10.6910483"><ele>84.66666666666667</ele><time>2026-04-11T09:12:19.074Z</time></trkpt><trkpt lat="45.39256" lon="10.6908433"><ele>87.0</ele><time>2026-04-11T09:12:20.072Z</time></trkpt><trkpt lat="45.3924383" lon="10.6906567"><ele>87.0</ele><time>2026-04-11T09:12:21.07Z</time></trkpt><trkpt lat="45.39229" lon="10.690495"><ele>87.0</ele><time>2026-04-11T09:12:22.073Z</time></trkpt><trkpt lat="45.3921617" lon="10.69034"><ele>87.0</ele><time>2026-04-11T09:12:23.078Z</time></trkpt><trkpt lat="45.392" lon="10.6902383"><ele>88.66666666666667</ele><time>2026-04-11T09:12:24.094Z</time></trkpt><trkpt lat="45.3918233" lon="10.6901417"><ele>90.33333333333334</ele><time>2026-04-11T09:12:25.072Z</time></trkpt><trkpt lat="45.391655" lon="10.6900367"><ele>92.0</ele><time>2026-04-11T09:12:26.071Z</time></trkpt><trkpt lat="45.391505" lon="10.689945"><ele>91.33333333333334</ele><time>2026-04-11T09:12:27.072Z</time></trkpt><trkpt lat="45.3913383" lon="10.6898567"><ele>90.66666666666667</ele><time>2026-04-11T09:12:28.071Z</time></trkpt><trkpt lat="45.39116" lon="10.6897733"><ele>90.0</ele><time>2026-04-11T09:12:29.068Z</time></trkpt><trkpt lat="45.3910133" lon="10.6896933"><ele>90.0</ele><time>2026-04-11T09:12:30.067Z</time></trkpt><trkpt lat="45.3908433" lon="10.6896067"><ele>90.0</ele><time>2026-04-11T09:12:31.067Z</time></trkpt><trkpt lat="45.3906867" lon="10.6894933"><ele>90.0</ele><time>2026-04-11T09:12:32.065Z</time></trkpt><trkpt lat="45.3905333" lon="10.6893917"><ele>89.33333333333333</ele><time>2026-04-11T09:12:33.065Z</time></trkpt><trkpt lat="45.39037" lon="10.6892867"><ele>88.66666666666666</ele><time>2026-04-11T09:12:34.07Z</time></trkpt><trkpt lat="45.3902133" lon="10.6892067"><ele>88.0</ele><time>2026-04-11T09:12:35.068Z</time></trkpt><trkpt lat="45.3900567" lon="10.689105"><ele>88.0</ele><time>2026-04-11T09:12:36.082Z</time></trkpt><trkpt lat="45.38991" lon="10.68901"><ele>88.0</ele><time>2026-04-11T09:12:37.076Z</time></trkpt><trkpt lat="45.3897633" lon="10.6889233"><ele>88.0</ele><time>2026-04-11T09:12:38.071Z</time></trkpt><trkpt lat="45.3896033" lon="10.6888417"><ele>88.66666666666666</ele><time>2026-04-11T09:12:39.063Z</time></trkpt><trkpt lat="45.38945" lon="10.6887733"><ele>89.33333333333333</ele><time>2026-04-11T09:12:40.069Z</time></trkpt><trkpt lat="45.3893083" lon="10.68869"><ele>90.0</ele><time>2026-04-11T09:12:41.075Z</time></trkpt><trkpt lat="45.3891633" lon="10.6886067"><ele>90.33333333333333</ele><time>2026-04-11T09:12:42.061Z</time></trkpt><trkpt lat="45.3890083" lon="10.688535"><ele>90.66666666666666</ele><time>2026-04-11T09:12:43.063Z</time></trkpt><trkpt lat="45.38885" lon="10.68845"><ele>91.0</ele><time>2026-04-11T09:12:44.071Z</time></trkpt><trkpt lat="45.3886933" lon="10.688375"><ele>92.0</ele><time>2026-04-11T09:12:45.06Z</time></trkpt><trkpt lat="45.3885183" lon="10.68827"><ele>93.0</ele><time>2026-04-11T09:12:46.066Z</time></trkpt><trkpt lat="45.388375" lon="10.68819"><ele>94.0</ele><time>2026-04-11T09:12:47.069Z</time></trkpt><trkpt lat="45.3882317" lon="10.6880967"><ele>94.0</ele><time>2026-04-11T09:12:48.068Z</time></trkpt><trkpt lat="45.3880717" lon="10.68802"><ele>94.0</ele><time>2026-04-11T09:12:49.064Z</time></trkpt><trkpt lat="45.38792" lon="10.6879517"><ele>94.0</ele><time>2026-04-11T09:12:50.065Z</time></trkpt><trkpt lat="45.38776" lon="10.6878683"><ele>95.0</ele><time>2026-04-11T09:12:51.064Z</time></trkpt><trkpt lat="45.3875983" lon="10.6877783"><ele>96.0</ele><time>2026-04-11T09:12:52.066Z</time></trkpt><trkpt lat="45.3874317" lon="10.6877167"><ele>97.0</ele><time>2026-04-11T09:12:53.071Z</time></trkpt><trkpt lat="45.3872617" lon="10.6876233"><ele>93.66666666666667</ele><time>2026-04-11T09:12:54.076Z</time></trkpt><trkpt lat="45.3870967" lon="10.687565"><ele>90.33333333333334</ele><time>2026-04-11T09:12:55.074Z</time></trkpt><trkpt lat="45.386955" lon="10.6874717"><ele>87.0</ele><time>2026-04-11T09:12:56.078Z</time></trkpt><trkpt lat="45.3867867" lon="10.6874283"><ele>87.0</ele><time>2026-04-11T09:12:57.089Z</time></trkpt><trkpt lat="45.3866217" lon="10.687435"><ele>87.0</ele><time>2026-04-11T09:12:58.082Z</time></trkpt><trkpt lat="45.386455" lon="10.68744"><ele>87.0</ele><time>2026-04-11T09:12:59.075Z</time></trkpt><trkpt lat="45.3862817" lon="10.687425"><ele>86.0</ele><time>2026-04-11T09:13:00.09Z</time></trkpt><trkpt lat="45.3861233" lon="10.6874217"><ele>85.0</ele><time>2026-04-11T09:13:01.072Z</time></trkpt><trkpt lat="45.3859583" lon="10.68744"><ele>84.0</ele><time>2026-04-11T09:13:02.069Z</time></trkpt><trkpt lat="45.3857667" lon="10.6874633"><ele>84.0</ele><time>2026-04-11T09:13:03.077Z</time></trkpt><trkpt lat="45.3856017" lon="10.6874883"><ele>84.0</ele><time>2026-04-11T09:13:04.067Z</time></trkpt><trkpt lat="45.3854533" lon="10.6874983"><ele>84.0</ele><time>2026-04-11T09:13:05.07Z</time></trkpt><trkpt lat="45.385335" lon="10.687515"><ele>84.0</ele><time>2026-04-11T09:13:06.08Z</time></trkpt><trkpt lat="45.3852383" lon="10.6875117"><ele>84.0</ele><time>2026-04-11T09:13:07.076Z</time></trkpt><trkpt lat="45.3851483" lon="10.687535"><ele>84.0</ele><time>2026-04-11T09:13:08.093Z</time></trkpt><trkpt lat="45.3850733" lon="10.68753"><ele>84.0</ele><time>2026-04-11T09:13:09.085Z</time></trkpt><trkpt lat="45.38501" lon="10.6875233"><ele>84.0</ele><time>2026-04-11T09:13:10.079Z</time></trkpt><trkpt lat="45.3849117" lon="10.6875233"><ele>84.0</ele><time>2026-04-11T09:13:12.072Z</time></trkpt><trkpt lat="45.3848133" lon="10.6875333"><ele>84.0</ele><time>2026-04-11T09:13:22.083Z</time></trkpt><trkpt lat="45.384735" lon="10.6875267"><ele>84.2</ele><time>2026-04-11T09:13:28.068Z</time></trkpt><trkpt lat="45.38465" lon="10.687545"><ele>84.4</ele><time>2026-04-11T09:13:30.066Z</time></trkpt><trkpt lat="45.3845533" lon="10.68759"><ele>84.6</ele><time>2026-04-11T09:13:32.079Z</time></trkpt><trkpt lat="45.3844733" lon="10.687735"><ele>84.8</ele><time>2026-04-11T09:13:34.068Z</time></trkpt><trkpt lat="45.3844533" lon="10.68784"><ele>85.0</ele><time>2026-04-11T09:13:35.071Z</time></trkpt><trkpt lat="45.3844467" lon="10.6879533"><ele>85.33333333333333</ele><time>2026-04-11T09:13:36.059Z</time></trkpt><trkpt lat="45.3844433" lon="10.6880717"><ele>85.66666666666666</ele><time>2026-04-11T09:13:37.064Z</time></trkpt><trkpt lat="45.3844383" lon="10.6881817"><ele>86.0</ele><time>2026-04-11T09:13:38.065Z</time></trkpt><trkpt lat="45.384425" lon="10.6882767"><ele>86.33333333333333</ele><time>2026-04-11T09:13:39.062Z</time></trkpt><trkpt lat="45.3843817" lon="10.68842"><ele>86.66666666666667</ele><time>2026-04-11T09:13:41.065Z</time></trkpt><trkpt lat="45.384345" lon="10.6884933"><ele>87.0</ele><time>2026-04-11T09:13:43.061Z</time></trkpt><trkpt lat="45.3842717" lon="10.6886317"><ele>87.39999999999999</ele><time>2026-04-11T09:13:46.061Z</time></trkpt><trkpt lat="45.3842283" lon="10.68881"><ele>87.8</ele><time>2026-04-11T09:13:48.066Z</time></trkpt><trkpt lat="45.38422" lon="10.6889283"><ele>88.2</ele><time>2026-04-11T09:13:49.062Z</time></trkpt><trkpt lat="45.3842217" lon="10.6890633"><ele>88.6</ele><time>2026-04-11T09:13:50.067Z</time></trkpt><trkpt lat="45.3842167" lon="10.6892183"><ele>89.0</ele><time>2026-04-11T09:13:51.066Z</time></trkpt><trkpt lat="45.384205" lon="10.6893583"><ele>88.80000000000001</ele><time>2026-04-11T09:13:52.07Z</time></trkpt><trkpt lat="45.3841767" lon="10.6895067"><ele>88.60000000000001</ele><time>2026-04-11T09:13:53.06Z</time></trkpt><trkpt lat="45.3841683" lon="10.689645"><ele>88.4</ele><time>2026-04-11T09:13:54.072Z</time></trkpt><trkpt lat="45.38413" lon="10.6897817"><ele>88.2</ele><time>2026-04-11T09:13:55.059Z</time></trkpt><trkpt lat="45.3840733" lon="10.68992"><ele>88.0</ele><time>2026-04-11T09:13:56.064Z</time></trkpt><trkpt lat="45.3840133" lon="10.6900467"><ele>88.0</ele><time>2026-04-11T09:13:57.067Z</time></trkpt><trkpt lat="45.38394" lon="10.69017"><ele>88.0</ele><time>2026-04-11T09:13:58.065Z</time></trkpt><trkpt lat="45.3838633" lon="10.6902867"><ele>88.0</ele><time>2026-04-11T09:13:59.059Z</time></trkpt><trkpt lat="45.383765" lon="10.6903717"><ele>88.0</ele><time>2026-04-11T09:14:00.059Z</time></trkpt><trkpt lat="45.3836567" lon="10.690425"><ele>87.25</ele><time>2026-04-11T09:14:01.067Z</time></trkpt><trkpt lat="45.383535" lon="10.6904567"><ele>86.5</ele><time>2026-04-11T09:14:02.073Z</time></trkpt><trkpt lat="45.38341" lon="10.69049"><ele>85.75</ele><time>2026-04-11T09:14:03.067Z</time></trkpt><trkpt lat="45.3832867" lon="10.69055"><ele>85.0</ele><time>2026-04-11T09:14:04.072Z</time></trkpt><trkpt lat="45.3831667" lon="10.6906367"><ele>85.0</ele><time>2026-04-11T09:14:05.061Z</time></trkpt><trkpt lat="45.3830583" lon="10.690745"><ele>85.0</ele><time>2026-04-11T09:14:06.058Z</time></trkpt><trkpt lat="45.382965" lon="10.69088"><ele>85.0</ele><time>2026-04-11T09:14:07.073Z</time></trkpt><trkpt lat="45.3828917" lon="10.69103"><ele>85.0</ele><time>2026-04-11T09:14:08.067Z</time></trkpt><trkpt lat="45.3828417" lon="10.691205"><ele>83.5</ele><time>2026-04-11T09:14:09.07Z</time></trkpt><trkpt lat="45.382805" lon="10.6913933"><ele>82.0</ele><time>2026-04-11T09:14:10.068Z</time></trkpt><trkpt lat="45.3827867" lon="10.6915833"><ele>80.5</ele><time>2026-04-11T09:14:11.069Z</time></trkpt><trkpt lat="45.3827933" lon="10.691785"><ele>79.0</ele><time>2026-04-11T09:14:12.071Z</time></trkpt><trkpt lat="45.3828033" lon="10.6919983"><ele>77.5</ele><time>2026-04-11T09:14:13.071Z</time></trkpt><trkpt lat="45.3828733" lon="10.69221"><ele>76.0</ele><time>2026-04-11T09:14:14.068Z</time></trkpt><trkpt lat="45.3829317" lon="10.692395"><ele>74.5</ele><time>2026-04-11T09:14:15.062Z</time></trkpt><trkpt lat="45.3830033" lon="10.69255"><ele>73.0</ele><time>2026-04-11T09:14:16.079Z</time></trkpt><trkpt lat="45.3831167" lon="10.6926833"><ele>72.4</ele><time>2026-04-11T09:14:17.074Z</time></trkpt><trkpt lat="45.3831983" lon="10.6927883"><ele>71.8</ele><time>2026-04-11T09:14:18.066Z</time></trkpt><trkpt lat="45.3832783" lon="10.6929"><ele>71.2</ele><time>2026-04-11T09:14:19.069Z</time></trkpt><trkpt lat="45.3833583" lon="10.6930017"><ele>70.6</ele><time>2026-04-11T09:14:20.074Z</time></trkpt><trkpt lat="45.38344" lon="10.6931067"><ele>70.0</ele><time>2026-04-11T09:14:21.062Z</time></trkpt><trkpt lat="45.3835333" lon="10.6932167"><ele>70.0</ele><time>2026-04-11T09:14:22.074Z</time></trkpt><trkpt lat="45.3836233" lon="10.6933267"><ele>70.0</ele><time>2026-04-11T09:14:23.067Z</time></trkpt><trkpt lat="45.3837067" lon="10.6934233"><ele>70.0</ele><time>2026-04-11T09:14:24.071Z</time></trkpt><trkpt lat="45.38377" lon="10.6935067"><ele>70.0</ele><time>2026-04-11T09:14:25.066Z</time></trkpt><trkpt lat="45.3837733" lon="10.6936667"><ele>70.0</ele><time>2026-04-11T09:14:27.06Z</time></trkpt><trkpt lat="45.38363" lon="10.69372"><ele>68.75</ele><time>2026-04-11T09:14:29.068Z</time></trkpt><trkpt lat="45.383535" lon="10.6937417"><ele>67.5</ele><time>2026-04-11T09:14:30.066Z</time></trkpt><trkpt lat="45.3834233" lon="10.6937667"><ele>66.25</ele><time>2026-04-11T09:14:31.061Z</time></trkpt><trkpt lat="45.38327" lon="10.6938017"><ele>65.0</ele><time>2026-04-11T09:14:32.063Z</time></trkpt><trkpt lat="45.3831417" lon="10.6938817"><ele>65.0</ele><time>2026-04-11T09:14:33.074Z</time></trkpt><trkpt lat="45.3830267" lon="10.693965"><ele>65.0</ele><time>2026-04-11T09:14:34.062Z</time></trkpt><trkpt lat="45.3828867" lon="10.6940133"><ele>65.0</ele><time>2026-04-11T09:14:35.064Z</time></trkpt><trkpt lat="45.3827583" lon="10.6940617"><ele>65.0</ele><time>2026-04-11T09:14:36.064Z</time></trkpt><trkpt lat="45.3826233" lon="10.6941133"><ele>64.75</ele><time>2026-04-11T09:14:37.06Z</time></trkpt><trkpt lat="45.3825033" lon="10.69416"><ele>64.5</ele><time>2026-04-11T09:14:38.071Z</time></trkpt><trkpt lat="45.3823533" lon="10.6942133"><ele>64.25</ele><time>2026-04-11T09:14:39.075Z</time></trkpt><trkpt lat="45.3822117" lon="10.694255"><ele>64.0</ele><time>2026-04-11T09:14:40.067Z</time></trkpt><trkpt lat="45.3820867" lon="10.6942767"><ele>64.0</ele><time>2026-04-11T09:14:41.065Z</time></trkpt><trkpt lat="45.382" lon="10.6942817"><ele>64.0</ele><time>2026-04-11T09:14:42.069Z</time></trkpt><trkpt lat="45.38188" lon="10.6943667"><ele>64.0</ele><time>2026-04-11T09:14:43.065Z</time></trkpt><trkpt lat="45.3817583" lon="10.6944667"><ele>64.0</ele><time>2026-04-11T09:14:44.066Z</time></trkpt><trkpt lat="45.3816333" lon="10.6945733"><ele>64.0</ele><time>2026-04-11T09:14:45.067Z</time></trkpt><trkpt lat="45.38151" lon="10.6946683"><ele>64.0</ele><time>2026-04-11T09:14:46.074Z</time></trkpt><trkpt lat="45.3813883" lon="10.69475"><ele>64.0</ele><time>2026-04-11T09:14:47.059Z</time></trkpt><trkpt lat="45.3812433" lon="10.6948717"><ele>64.0</ele><time>2026-04-11T09:14:48.068Z</time></trkpt><trkpt lat="45.381105" lon="10.6949617"><ele>66.0</ele><time>2026-04-11T09:14:49.062Z</time></trkpt><trkpt lat="45.38095" lon="10.695055"><ele>68.0</ele><time>2026-04-11T09:14:50.06Z</time></trkpt><trkpt lat="45.38079" lon="10.6951367"><ele>70.0</ele><time>2026-04-11T09:14:51.064Z</time></trkpt><trkpt lat="45.38064" lon="10.69522"><ele>69.33333333333333</ele><time>2026-04-11T09:14:52.063Z</time></trkpt><trkpt lat="45.3805017" lon="10.695265"><ele>68.66666666666667</ele><time>2026-04-11T09:14:53.063Z</time></trkpt><trkpt lat="45.380355" lon="10.695335"><ele>68.0</ele><time>2026-04-11T09:14:54.069Z</time></trkpt><trkpt lat="45.3802083" lon="10.6954083"><ele>68.0</ele><time>2026-04-11T09:14:55.07Z</time></trkpt><trkpt lat="45.3800667" lon="10.6954733"><ele>68.0</ele><time>2026-04-11T09:14:56.061Z</time></trkpt><trkpt lat="45.379915" lon="10.695555"><ele>68.0</ele><time>2026-04-11T09:14:57.066Z</time></trkpt><trkpt lat="45.3797683" lon="10.6956067"><ele>70.75</ele><time>2026-04-11T09:14:58.065Z</time></trkpt><trkpt lat="45.3796283" lon="10.6956517"><ele>73.5</ele><time>2026-04-11T09:14:59.06Z</time></trkpt><trkpt lat="45.379495" lon="10.6957033"><ele>76.25</ele><time>2026-04-11T09:15:00.064Z</time></trkpt><trkpt lat="45.379365" lon="10.69577"><ele>79.0</ele><time>2026-04-11T09:15:01.069Z</time></trkpt><trkpt lat="45.3792617" lon="10.6957883"><ele>79.0</ele><time>2026-04-11T09:15:02.064Z</time></trkpt><trkpt lat="45.3791533" lon="10.6958467"><ele>79.0</ele><time>2026-04-11T09:15:03.068Z</time></trkpt><trkpt lat="45.379045" lon="10.69591"><ele>79.0</ele><time>2026-04-11T09:15:04.058Z</time></trkpt><trkpt lat="45.3789483" lon="10.6959783"><ele>79.0</ele><time>2026-04-11T09:15:05.065Z</time></trkpt><trkpt lat="45.3788333" lon="10.696015"><ele>78.4</ele><time>2026-04-11T09:15:06.068Z</time></trkpt><trkpt lat="45.3787333" lon="10.6961"><ele>77.80000000000001</ele><time>2026-04-11T09:15:07.09Z</time></trkpt><trkpt lat="45.378645" lon="10.6961317"><ele>77.19999999999999</ele><time>2026-04-11T09:15:08.07Z</time></trkpt><trkpt lat="45.3785533" lon="10.6962333"><ele>76.6</ele><time>2026-04-11T09:15:09.062Z</time></trkpt><trkpt lat="45.37844" lon="10.69628"><ele>76.0</ele><time>2026-04-11T09:15:10.065Z</time></trkpt><trkpt lat="45.37836" lon="10.6963167"><ele>76.0</ele><time>2026-04-11T09:15:11.081Z</time></trkpt><trkpt lat="45.3782767" lon="10.6963567"><ele>76.0</ele><time>2026-04-11T09:15:12.079Z</time></trkpt><trkpt lat="45.37815" lon="10.6963767"><ele>76.0</ele><time>2026-04-11T09:15:13.067Z</time></trkpt><trkpt lat="45.3780117" lon="10.696385"><ele>76.0</ele><time>2026-04-11T09:15:14.063Z</time></trkpt><trkpt lat="45.3778717" lon="10.696375"><ele>75.25</ele><time>2026-04-11T09:15:15.068Z</time></trkpt><trkpt lat="45.3777033" lon="10.6963767"><ele>74.5</ele><time>2026-04-11T09:15:16.059Z</time></trkpt><trkpt lat="45.3775617" lon="10.69638"><ele>73.75</ele><time>2026-04-11T09:15:17.089Z</time></trkpt><trkpt lat="45.377425" lon="10.6963967"><ele>73.0</ele><time>2026-04-11T09:15:18.091Z</time></trkpt><trkpt lat="45.3773033" lon="10.6963933"><ele>73.0</ele><time>2026-04-11T09:15:19.073Z</time></trkpt><trkpt lat="45.3771867" lon="10.6963983"><ele>73.0</ele><time>2026-04-11T09:15:20.08Z</time></trkpt><trkpt lat="45.377075" lon="10.696415"><ele>73.0</ele><time>2026-04-11T09:15:21.065Z</time></trkpt><trkpt lat="45.3769917" lon="10.6964233"><ele>73.0</ele><time>2026-04-11T09:15:22.068Z</time></trkpt><trkpt lat="45.3768967" lon="10.69645"><ele>73.0</ele><time>2026-04-11T09:15:23.065Z</time></trkpt><trkpt lat="45.3768183" lon="10.69646"><ele>73.33333333333333</ele><time>2026-04-11T09:15:24.073Z</time></trkpt><trkpt lat="45.3767433" lon="10.696445"><ele>73.66666666666666</ele><time>2026-04-11T09:15:25.075Z</time></trkpt><trkpt lat="45.3766733" lon="10.69639"><ele>74.0</ele><time>2026-04-11T09:15:26.083Z</time></trkpt><trkpt lat="45.376625" lon="10.6963083"><ele>74.33333333333333</ele><time>2026-04-11T09:15:27.07Z</time></trkpt><trkpt lat="45.3765767" lon="10.6962217"><ele>74.66666666666667</ele><time>2026-04-11T09:15:28.065Z</time></trkpt><trkpt lat="45.3765183" lon="10.69613"><ele>75.0</ele><time>2026-04-11T09:15:29.067Z</time></trkpt><trkpt lat="45.3764517" lon="10.6960533"><ele>75.0</ele><time>2026-04-11T09:15:30.076Z</time></trkpt><trkpt lat="45.37639" lon="10.6959933"><ele>75.0</ele><time>2026-04-11T09:15:31.064Z</time></trkpt><trkpt lat="45.376325" lon="10.6959183"><ele>75.0</ele><time>2026-04-11T09:15:33.068Z</time></trkpt><trkpt lat="45.37624" lon="10.6958567"><ele>75.0</ele><time>2026-04-11T09:15:35.059Z</time></trkpt><trkpt lat="45.3761967" lon="10.6957833"><ele>75.0</ele><time>2026-04-11T09:15:36.067Z</time></trkpt><trkpt lat="45.3761483" lon="10.6956883"><ele>75.0</ele><time>2026-04-11T09:15:37.065Z</time></trkpt><trkpt lat="45.3760917" lon="10.6955833"><ele>75.25</ele><time>2026-04-11T09:15:38.063Z</time></trkpt><trkpt lat="45.3760267" lon="10.69545"><ele>75.5</ele><time>2026-04-11T09:15:39.061Z</time></trkpt><trkpt lat="45.375945" lon="10.6953233"><ele>75.75</ele><time>2026-04-11T09:15:40.068Z</time></trkpt><trkpt lat="45.3758667" lon="10.6951717"><ele>76.0</ele><time>2026-04-11T09:15:41.061Z</time></trkpt><trkpt lat="45.37575" lon="10.6950633"><ele>76.66666666666666</ele><time>2026-04-11T09:15:42.062Z</time></trkpt><trkpt lat="45.3756433" lon="10.6949033"><ele>77.33333333333333</ele><time>2026-04-11T09:15:43.068Z</time></trkpt><trkpt lat="45.37554" lon="10.69473"><ele>78.0</ele><time>2026-04-11T09:15:44.064Z</time></trkpt><trkpt lat="45.3754417" lon="10.694575"><ele>78.25</ele><time>2026-04-11T09:15:45.062Z</time></trkpt><trkpt lat="45.3753583" lon="10.6944067"><ele>78.5</ele><time>2026-04-11T09:15:46.07Z</time></trkpt><trkpt lat="45.375285" lon="10.6942817"><ele>78.75</ele><time>2026-04-11T09:15:47.062Z</time></trkpt><trkpt lat="45.375175" lon="10.694105"><ele>79.0</ele><time>2026-04-11T09:15:48.062Z</time></trkpt><trkpt lat="45.3750667" lon="10.693975"><ele>79.0</ele><time>2026-04-11T09:15:49.067Z</time></trkpt><trkpt lat="45.37499" lon="10.6938967"><ele>79.0</ele><time>2026-04-11T09:15:50.069Z</time></trkpt><trkpt lat="45.3748967" lon="10.69376"><ele>79.0</ele><time>2026-04-11T09:15:51.059Z</time></trkpt><trkpt lat="45.3748217" lon="10.6937167"><ele>79.0</ele><time>2026-04-11T09:15:52.064Z</time></trkpt><trkpt lat="45.374735" lon="10.6936733"><ele>79.0</ele><time>2026-04-11T09:15:53.061Z</time></trkpt><trkpt lat="45.3746483" lon="10.6935983"><ele>80.75</ele><time>2026-04-11T09:15:54.06Z</time></trkpt><trkpt lat="45.3745433" lon="10.6935733"><ele>82.5</ele><time>2026-04-11T09:15:55.065Z</time></trkpt><trkpt lat="45.3744433" lon="10.6935083"><ele>84.25</ele><time>2026-04-11T09:15:56.063Z</time></trkpt><trkpt lat="45.3743633" lon="10.6934233"><ele>86.0</ele><time>2026-04-11T09:15:57.066Z</time></trkpt><trkpt lat="45.3742267" lon="10.6933233"><ele>86.0</ele><time>2026-04-11T09:15:59.062Z</time></trkpt><trkpt lat="45.374165" lon="10.69323"><ele>86.0</ele><time>2026-04-11T09:16:00.068Z</time></trkpt><trkpt lat="45.3741117" lon="10.6931033"><ele>86.0</ele><time>2026-04-11T09:16:01.06Z</time></trkpt><trkpt lat="45.37406" lon="10.6929667"><ele>86.0</ele><time>2026-04-11T09:16:02.071Z</time></trkpt><trkpt lat="45.3740167" lon="10.6928033"><ele>86.0</ele><time>2026-04-11T09:16:03.061Z</time></trkpt><trkpt lat="45.3739833" lon="10.6926567"><ele>85.25</ele><time>2026-04-11T09:16:04.063Z</time></trkpt><trkpt lat="45.373915" lon="10.6924817"><ele>84.5</ele><time>2026-04-11T09:16:05.064Z</time></trkpt><trkpt lat="45.3738533" lon="10.6923167"><ele>83.75</ele><time>2026-04-11T09:16:06.062Z</time></trkpt><trkpt lat="45.3737917" lon="10.692135"><ele>83.0</ele><time>2026-04-11T09:16:07.06Z</time></trkpt><trkpt lat="45.3737483" lon="10.6919567"><ele>83.2</ele><time>2026-04-11T09:16:08.059Z</time></trkpt><trkpt lat="45.3737133" lon="10.6917983"><ele>83.4</ele><time>2026-04-11T09:16:09.064Z</time></trkpt><trkpt lat="45.3736817" lon="10.6916733"><ele>83.60000000000001</ele><time>2026-04-11T09:16:10.063Z</time></trkpt><trkpt lat="45.373655" lon="10.6915633"><ele>83.80000000000001</ele><time>2026-04-11T09:16:11.065Z</time></trkpt><trkpt lat="45.37355" lon="10.6914567"><ele>84.0</ele><time>2026-04-11T09:16:13.073Z</time></trkpt><trkpt lat="45.3734767" lon="10.6914383"><ele>84.0</ele><time>2026-04-11T09:16:14.065Z</time></trkpt><trkpt lat="45.373385" lon="10.6914417"><ele>84.0</ele><time>2026-04-11T09:16:15.069Z</time></trkpt><trkpt lat="45.3732817" lon="10.691455"><ele>84.0</ele><time>2026-04-11T09:16:16.071Z</time></trkpt><trkpt lat="45.3731683" lon="10.691465"><ele>84.0</ele><time>2026-04-11T09:16:17.062Z</time></trkpt><trkpt lat="45.3730383" lon="10.6915317"><ele>84.0</ele><time>2026-04-11T09:16:18.062Z</time></trkpt><trkpt lat="45.372895" lon="10.691585"><ele>83.0</ele><time>2026-04-11T09:16:19.068Z</time></trkpt><trkpt lat="45.372745" lon="10.6916367"><ele>82.0</ele><time>2026-04-11T09:16:20.061Z</time></trkpt><trkpt lat="45.372595" lon="10.6916933"><ele>81.0</ele><time>2026-04-11T09:16:21.064Z</time></trkpt><trkpt lat="45.3724533" lon="10.6917433"><ele>81.0</ele><time>2026-04-11T09:16:22.072Z</time></trkpt><trkpt lat="45.3723083" lon="10.6918"><ele>81.0</ele><time>2026-04-11T09:16:23.06Z</time></trkpt><trkpt lat="45.37217" lon="10.691835"><ele>81.0</ele><time>2026-04-11T09:16:24.069Z</time></trkpt><trkpt lat="45.3720267" lon="10.691845"><ele>81.0</ele><time>2026-04-11T09:16:25.061Z</time></trkpt><trkpt lat="45.3718767" lon="10.6918283"><ele>81.0</ele><time>2026-04-11T09:16:26.061Z</time></trkpt><trkpt lat="45.3717283" lon="10.69179"><ele>81.0</ele><time>2026-04-11T09:16:27.065Z</time></trkpt><trkpt lat="45.3715783" lon="10.6917517"><ele>81.0</ele><time>2026-04-11T09:16:28.088Z</time></trkpt><trkpt lat="45.3714267" lon="10.6917183"><ele>81.33333333333333</ele><time>2026-04-11T09:16:29.064Z</time></trkpt><trkpt lat="45.3712683" lon="10.691685"><ele>81.66666666666666</ele><time>2026-04-11T09:16:30.08Z</time></trkpt><trkpt lat="45.3711133" lon="10.691665"><ele>82.0</ele><time>2026-04-11T09:16:31.065Z</time></trkpt><trkpt lat="45.3709617" lon="10.69164"><ele>82.0</ele><time>2026-04-11T09:16:32.064Z</time></trkpt><trkpt lat="45.3707933" lon="10.691625"><ele>82.0</ele><time>2026-04-11T09:16:33.06Z</time></trkpt><trkpt lat="45.3706367" lon="10.69161"><ele>82.0</ele><time>2026-04-11T09:16:34.063Z</time></trkpt><trkpt lat="45.370475" lon="10.69161"><ele>82.25</ele><time>2026-04-11T09:16:35.06Z</time></trkpt><trkpt lat="45.3703383" lon="10.6915983"><ele>82.5</ele><time>2026-04-11T09:16:36.061Z</time></trkpt><trkpt lat="45.3701867" lon="10.6916267"><ele>82.75</ele><time>2026-04-11T09:16:37.065Z</time></trkpt><trkpt lat="45.37005" lon="10.6916617"><ele>83.0</ele><time>2026-04-11T09:16:38.07Z</time></trkpt><trkpt lat="45.3699217" lon="10.6916883"><ele>83.0</ele><time>2026-04-11T09:16:39.061Z</time></trkpt><trkpt lat="45.3697933" lon="10.6917067"><ele>83.0</ele><time>2026-04-11T09:16:40.059Z</time></trkpt><trkpt lat="45.3696583" lon="10.6917283"><ele>83.0</ele><time>2026-04-11T09:16:41.064Z</time></trkpt><trkpt lat="45.3695183" lon="10.6917367"><ele>83.0</ele><time>2026-04-11T09:16:42.061Z</time></trkpt><trkpt lat="45.3693717" lon="10.69172"><ele>82.75</ele><time>2026-04-11T09:16:43.066Z</time></trkpt><trkpt lat="45.3692267" lon="10.6917"><ele>82.5</ele><time>2026-04-11T09:16:44.062Z</time></trkpt><trkpt lat="45.36908" lon="10.6916767"><ele>82.25</ele><time>2026-04-11T09:16:45.06Z</time></trkpt><trkpt lat="45.36893" lon="10.6916483"><ele>82.0</ele><time>2026-04-11T09:16:46.061Z</time></trkpt><trkpt lat="45.368785" lon="10.6916283"><ele>82.5</ele><time>2026-04-11T09:16:47.062Z</time></trkpt><trkpt lat="45.3686517" lon="10.6916133"><ele>83.0</ele><time>2026-04-11T09:16:48.063Z</time></trkpt><trkpt lat="45.36853" lon="10.6916017"><ele>83.5</ele><time>2026-04-11T09:16:49.064Z</time></trkpt><trkpt lat="45.3684117" lon="10.6915883"><ele>84.0</ele><time>2026-04-11T09:16:50.075Z</time></trkpt><trkpt lat="45.3682917" lon="10.691565"><ele>84.0</ele><time>2026-04-11T09:16:51.061Z</time></trkpt><trkpt lat="45.3681483" lon="10.69153"><ele>84.0</ele><time>2026-04-11T09:16:52.063Z</time></trkpt><trkpt lat="45.3680267" lon="10.6915167"><ele>84.0</ele><time>2026-04-11T09:16:53.063Z</time></trkpt><trkpt lat="45.3679283" lon="10.6914867"><ele>84.0</ele><time>2026-04-11T09:16:54.081Z</time></trkpt><trkpt lat="45.36784" lon="10.6914683"><ele>84.0</ele><time>2026-04-11T09:16:55.062Z</time></trkpt><trkpt lat="45.3677017" lon="10.691415"><ele>84.0</ele><time>2026-04-11T09:16:56.068Z</time></trkpt><trkpt lat="45.3675867" lon="10.6915"><ele>84.0</ele><time>2026-04-11T09:16:57.081Z</time></trkpt><trkpt lat="45.3674767" lon="10.69149"><ele>84.0</ele><time>2026-04-11T09:16:58.062Z</time></trkpt><trkpt lat="45.36735" lon="10.6914867"><ele>84.0</ele><time>2026-04-11T09:16:59.059Z</time></trkpt><trkpt lat="45.3672233" lon="10.69147"><ele>84.0</ele><time>2026-04-11T09:17:00.079Z</time></trkpt><trkpt lat="45.367095" lon="10.69147"><ele>84.0</ele><time>2026-04-11T09:17:01.07Z</time></trkpt><trkpt lat="45.3669667" lon="10.6914817"><ele>84.0</ele><time>2026-04-11T09:17:02.066Z</time></trkpt><trkpt lat="45.3668317" lon="10.6915117"><ele>84.0</ele><time>2026-04-11T09:17:03.064Z</time></trkpt><trkpt lat="45.366685" lon="10.6915283"><ele>84.0</ele><time>2026-04-11T09:17:04.065Z</time></trkpt><trkpt lat="45.36655" lon="10.691545"><ele>84.0</ele><time>2026-04-11T09:17:05.059Z</time></trkpt><trkpt lat="45.3664183" lon="10.6915667"><ele>84.0</ele><time>2026-04-11T09:17:06.067Z</time></trkpt><trkpt lat="45.3662967" lon="10.6915867"><ele>84.0</ele><time>2026-04-11T09:17:07.061Z</time></trkpt><trkpt lat="45.3661483" lon="10.69158"><ele>84.0</ele><time>2026-04-11T09:17:08.06Z</time></trkpt><trkpt lat="45.3660117" lon="10.691575"><ele>84.0</ele><time>2026-04-11T09:17:09.071Z</time></trkpt><trkpt lat="45.365875" lon="10.69155"><ele>84.0</ele><time>2026-04-11T09:17:10.062Z</time></trkpt><trkpt lat="45.3657483" lon="10.6915433"><ele>84.0</ele><time>2026-04-11T09:17:11.062Z</time></trkpt><trkpt lat="45.365635" lon="10.6915333"><ele>84.0</ele><time>2026-04-11T09:17:12.059Z</time></trkpt><trkpt lat="45.3655217" lon="10.6915133"><ele>84.0</ele><time>2026-04-11T09:17:13.063Z</time></trkpt><trkpt lat="45.3654317" lon="10.6914867"><ele>84.0</ele><time>2026-04-11T09:17:14.063Z</time></trkpt><trkpt lat="45.3653633" lon="10.69148"><ele>84.0</ele><time>2026-04-11T09:17:15.066Z</time></trkpt><trkpt lat="45.3652767" lon="10.69153"><ele>84.0</ele><time>2026-04-11T09:17:17.062Z</time></trkpt><trkpt lat="45.3652367" lon="10.6917167"><ele>84.0</ele><time>2026-04-11T09:17:19.065Z</time></trkpt><trkpt lat="45.3652317" lon="10.6918667"><ele>84.0</ele><time>2026-04-11T09:17:20.065Z</time></trkpt><trkpt lat="45.36523" lon="10.6920467"><ele>84.0</ele><time>2026-04-11T09:17:21.061Z</time></trkpt><trkpt lat="45.3652133" lon="10.692235"><ele>84.0</ele><time>2026-04-11T09:17:22.064Z</time></trkpt><trkpt lat="45.3651783" lon="10.692425"><ele>84.0</ele><time>2026-04-11T09:17:23.059Z</time></trkpt><trkpt lat="45.365165" lon="10.69261"><ele>84.0</ele><time>2026-04-11T09:17:24.057Z</time></trkpt><trkpt lat="45.3651317" lon="10.6928183"><ele>84.0</ele><time>2026-04-11T09:17:25.063Z</time></trkpt><trkpt lat="45.365105" lon="10.69304"><ele>83.33333333333333</ele><time>2026-04-11T09:17:26.065Z</time></trkpt><trkpt lat="45.365065" lon="10.69326"><ele>82.66666666666666</ele><time>2026-04-11T09:17:27.062Z</time></trkpt><trkpt lat="45.3650467" lon="10.6934733"><ele>82.0</ele><time>2026-04-11T09:17:28.073Z</time></trkpt><trkpt lat="45.3650133" lon="10.6937017"><ele>82.0</ele><time>2026-04-11T09:17:29.063Z</time></trkpt><trkpt lat="45.36498" lon="10.693965"><ele>82.0</ele><time>2026-04-11T09:17:30.062Z</time></trkpt><trkpt lat="45.36496" lon="10.6941317"><ele>82.0</ele><time>2026-04-11T09:17:31.071Z</time></trkpt><trkpt lat="45.3649183" lon="10.6943683"><ele>81.66666666666666</ele><time>2026-04-11T09:17:32.07Z</time></trkpt><trkpt lat="45.3649117" lon="10.694635"><ele>81.33333333333333</ele><time>2026-04-11T09:17:33.061Z</time></trkpt><trkpt lat="45.3648617" lon="10.6948483"><ele>81.0</ele><time>2026-04-11T09:17:34.069Z</time></trkpt><trkpt lat="45.364805" lon="10.6950533"><ele>81.0</ele><time>2026-04-11T09:17:35.069Z</time></trkpt><trkpt lat="45.3647833" lon="10.6952117"><ele>81.0</ele><time>2026-04-11T09:17:36.06Z</time></trkpt><trkpt lat="45.3647717" lon="10.695405"><ele>81.0</ele><time>2026-04-11T09:17:37.066Z</time></trkpt><trkpt lat="45.36475" lon="10.6955417"><ele>81.0</ele><time>2026-04-11T09:17:38.067Z</time></trkpt><trkpt lat="45.36471" lon="10.69567"><ele>81.0</ele><time>2026-04-11T09:17:39.064Z</time></trkpt><trkpt lat="45.3646817" lon="10.695815"><ele>80.66666666666667</ele><time>2026-04-11T09:17:40.06Z</time></trkpt><trkpt lat="45.3646367" lon="10.6959317"><ele>80.33333333333333</ele><time>2026-04-11T09:17:41.065Z</time></trkpt><trkpt lat="45.3646217" lon="10.696055"><ele>80.0</ele><time>2026-04-11T09:17:42.064Z</time></trkpt><trkpt lat="45.36461" lon="10.6961617"><ele>79.66666666666666</ele><time>2026-04-11T09:17:43.063Z</time></trkpt><trkpt lat="45.3646267" lon="10.6962833"><ele>79.33333333333333</ele><time>2026-04-11T09:17:44.06Z</time></trkpt><trkpt lat="45.3646567" lon="10.6963967"><ele>79.0</ele><time>2026-04-11T09:17:45.062Z</time></trkpt><trkpt lat="45.364715" lon="10.6965167"><ele>79.0</ele><time>2026-04-11T09:17:46.062Z</time></trkpt><trkpt lat="45.364795" lon="10.6966533"><ele>79.0</ele><time>2026-04-11T09:17:47.059Z</time></trkpt><trkpt lat="45.364895" lon="10.6967933"><ele>79.0</ele><time>2026-04-11T09:17:48.064Z</time></trkpt><trkpt lat="45.364995" lon="10.69694"><ele>79.0</ele><time>2026-04-11T09:17:49.068Z</time></trkpt><trkpt lat="45.3650933" lon="10.6970833"><ele>79.0</ele><time>2026-04-11T09:17:50.076Z</time></trkpt><trkpt lat="45.36518" lon="10.6972117"><ele>79.0</ele><time>2026-04-11T09:17:51.068Z</time></trkpt><trkpt lat="45.365235" lon="10.6973383"><ele>79.0</ele><time>2026-04-11T09:17:52.066Z</time></trkpt><trkpt lat="45.3652983" lon="10.697475"><ele>79.0</ele><time>2026-04-11T09:17:53.065Z</time></trkpt><trkpt lat="45.3653183" lon="10.6976467"><ele>79.25</ele><time>2026-04-11T09:17:54.067Z</time></trkpt><trkpt lat="45.3653183" lon="10.69785"><ele>79.5</ele><time>2026-04-11T09:17:55.067Z</time></trkpt><trkpt lat="45.3653133" lon="10.6980583"><ele>79.75</ele><time>2026-04-11T09:17:56.068Z</time></trkpt><trkpt lat="45.3653033" lon="10.6982783"><ele>80.0</ele><time>2026-04-11T09:17:57.074Z</time></trkpt><trkpt lat="45.36529" lon="10.6985267"><ele>80.66666666666667</ele><time>2026-04-11T09:17:58.073Z</time></trkpt><trkpt lat="45.3652983" lon="10.6988"><ele>81.33333333333333</ele><time>2026-04-11T09:17:59.069Z</time></trkpt><trkpt lat="45.3653133" lon="10.699065"><ele>82.0</ele><time>2026-04-11T09:18:00.092Z</time></trkpt><trkpt lat="45.3653333" lon="10.699345"><ele>82.0</ele><time>2026-04-11T09:18:01.072Z</time></trkpt><trkpt lat="45.3653383" lon="10.6996467"><ele>82.0</ele><time>2026-04-11T09:18:02.079Z</time></trkpt><trkpt lat="45.3653583" lon="10.6999733"><ele>82.0</ele><time>2026-04-11T09:18:03.062Z</time></trkpt><trkpt lat="45.3653417" lon="10.7002867"><ele>81.66666666666666</ele><time>2026-04-11T09:18:04.069Z</time></trkpt><trkpt lat="45.365335" lon="10.700585"><ele>81.33333333333333</ele><time>2026-04-11T09:18:05.072Z</time></trkpt><trkpt lat="45.3653267" lon="10.700865"><ele>81.0</ele><time>2026-04-11T09:18:06.076Z</time></trkpt><trkpt lat="45.365325" lon="10.7010917"><ele>81.0</ele><time>2026-04-11T09:18:07.075Z</time></trkpt><trkpt lat="45.3653" lon="10.7012533"><ele>81.0</ele><time>2026-04-11T09:18:08.061Z</time></trkpt><trkpt lat="45.3652883" lon="10.7014067"><ele>81.0</ele><time>2026-04-11T09:18:09.063Z</time></trkpt><trkpt lat="45.3652867" lon="10.701525"><ele>81.0</ele><time>2026-04-11T09:18:10.069Z</time></trkpt><trkpt lat="45.365265" lon="10.70162"><ele>81.0</ele><time>2026-04-11T09:18:11.064Z</time></trkpt><trkpt lat="45.3652367" lon="10.7017583"><ele>81.0</ele><time>2026-04-11T09:18:13.069Z</time></trkpt><trkpt lat="45.3652267" lon="10.7018583"><ele>81.0</ele><time>2026-04-11T09:18:17.069Z</time></trkpt><trkpt lat="45.3653" lon="10.7018233"><ele>81.0</ele><time>2026-04-11T09:18:28.069Z</time></trkpt><trkpt lat="45.3652033" lon="10.7017367"><ele>81.0</ele><time>2026-04-11T09:18:30.074Z</time></trkpt><trkpt lat="45.36511" lon="10.70164"><ele>81.0</ele><time>2026-04-11T09:18:31.063Z</time></trkpt><trkpt lat="45.3650017" lon="10.7015267"><ele>81.0</ele><time>2026-04-11T09:18:32.066Z</time></trkpt><trkpt lat="45.364875" lon="10.70147"><ele>81.0</ele><time>2026-04-11T09:18:33.056Z</time></trkpt><trkpt lat="45.364705" lon="10.701405"><ele>81.0</ele><time>2026-04-11T09:18:34.079Z</time></trkpt><trkpt lat="45.3645217" lon="10.7013917"><ele>81.66666666666667</ele><time>2026-04-11T09:18:35.061Z</time></trkpt><trkpt lat="45.3643383" lon="10.7013533"><ele>82.33333333333334</ele><time>2026-04-11T09:18:36.064Z</time></trkpt><trkpt lat="45.36414" lon="10.7013"><ele>83.0</ele><time>2026-04-11T09:18:37.095Z</time></trkpt><trkpt lat="45.3639367" lon="10.7012167"><ele>83.0</ele><time>2026-04-11T09:18:38.067Z</time></trkpt><trkpt lat="45.3637217" lon="10.7011033"><ele>83.0</ele><time>2026-04-11T09:18:39.068Z</time></trkpt><trkpt lat="45.3635067" lon="10.7009783"><ele>82.33333333333334</ele><time>2026-04-11T09:18:40.067Z</time></trkpt><trkpt lat="45.3633333" lon="10.7008533"><ele>81.66666666666667</ele><time>2026-04-11T09:18:41.069Z</time></trkpt><trkpt lat="45.3631767" lon="10.7007683"><ele>81.0</ele><time>2026-04-11T09:18:42.071Z</time></trkpt><trkpt lat="45.3630467" lon="10.7007217"><ele>81.4</ele><time>2026-04-11T09:18:43.063Z</time></trkpt><trkpt lat="45.3629333" lon="10.700675"><ele>81.8</ele><time>2026-04-11T09:18:44.061Z</time></trkpt><trkpt lat="45.3628567" lon="10.7006233"><ele>82.2</ele><time>2026-04-11T09:18:45.074Z</time></trkpt><trkpt lat="45.36275" lon="10.7005633"><ele>82.60000000000001</ele><time>2026-04-11T09:18:47.069Z</time></trkpt><trkpt lat="45.3626733" lon="10.70052"><ele>83.0</ele><time>2026-04-11T09:18:49.068Z</time></trkpt><trkpt lat="45.3626217" lon="10.7004433"><ele>83.0</ele><time>2026-04-11T09:19:04.063Z</time></trkpt><trkpt lat="45.3625467" lon="10.7004283"><ele>83.0</ele><time>2026-04-11T09:19:08.064Z</time></trkpt><trkpt lat="45.36264" lon="10.70046"><ele>83.0</ele><time>2026-04-11T09:19:20.055Z</time></trkpt><trkpt lat="45.3627133" lon="10.7005117"><ele>83.0</ele><time>2026-04-11T09:19:21.059Z</time></trkpt><trkpt lat="45.3629417" lon="10.7006533"><ele>82.33333333333334</ele><time>2026-04-11T09:19:23.069Z</time></trkpt><trkpt lat="45.36308" lon="10.700705"><ele>81.66666666666667</ele><time>2026-04-11T09:19:24.071Z</time></trkpt><trkpt lat="45.36322" lon="10.70079"><ele>81.0</ele><time>2026-04-11T09:19:25.076Z</time></trkpt><trkpt lat="45.3633667" lon="10.7008617"><ele>81.0</ele><time>2026-04-11T09:19:26.059Z</time></trkpt><trkpt lat="45.3634917" lon="10.70095"><ele>81.0</ele><time>2026-04-11T09:19:27.066Z</time></trkpt><trkpt lat="45.363645" lon="10.7010267"><ele>81.0</ele><time>2026-04-11T09:19:28.066Z</time></trkpt><trkpt lat="45.3637717" lon="10.701115"><ele>81.0</ele><time>2026-04-11T09:19:29.068Z</time></trkpt><trkpt lat="45.363895" lon="10.7012017"><ele>81.5</ele><time>2026-04-11T09:19:30.07Z</time></trkpt><trkpt lat="45.3640167" lon="10.70127"><ele>82.0</ele><time>2026-04-11T09:19:31.061Z</time></trkpt><trkpt lat="45.36416" lon="10.70131"><ele>82.5</ele><time>2026-04-11T09:19:32.058Z</time></trkpt><trkpt lat="45.3643083" lon="10.7013533"><ele>83.0</ele><time>2026-04-11T09:19:33.07Z</time></trkpt><trkpt lat="45.3644583" lon="10.701375"><ele>83.0</ele><time>2026-04-11T09:19:34.067Z</time></trkpt><trkpt lat="45.364595" lon="10.70141"><ele>83.0</ele><time>2026-04-11T09:19:35.059Z</time></trkpt><trkpt lat="45.36473" lon="10.7014583"><ele>83.0</ele><time>2026-04-11T09:19:36.069Z</time></trkpt><trkpt lat="45.36485" lon="10.7015017"><ele>83.0</ele><time>2026-04-11T09:19:37.067Z</time></trkpt><trkpt lat="45.3649567" lon="10.7015533"><ele>82.66666666666667</ele><time>2026-04-11T09:19:38.059Z</time></trkpt><trkpt lat="45.3650833" lon="10.70166"><ele>82.33333333333333</ele><time>2026-04-11T09:19:39.069Z</time></trkpt><trkpt lat="45.365195" lon="10.70178"><ele>82.0</ele><time>2026-04-11T09:19:40.067Z</time></trkpt><trkpt lat="45.3653117" lon="10.701945"><ele>82.0</ele><time>2026-04-11T09:19:41.068Z</time></trkpt><trkpt lat="45.365415" lon="10.7020767"><ele>82.0</ele><time>2026-04-11T09:19:42.083Z</time></trkpt><trkpt lat="45.3655183" lon="10.7021933"><ele>82.0</ele><time>2026-04-11T09:19:43.085Z</time></trkpt><trkpt lat="45.3656267" lon="10.702305"><ele>82.0</ele><time>2026-04-11T09:19:44.067Z</time></trkpt><trkpt lat="45.3657233" lon="10.7023733"><ele>81.66666666666666</ele><time>2026-04-11T09:19:45.064Z</time></trkpt><trkpt lat="45.3658067" lon="10.7024417"><ele>81.33333333333333</ele><time>2026-04-11T09:19:46.072Z</time></trkpt><trkpt lat="45.365885" lon="10.7025067"><ele>81.0</ele><time>2026-04-11T09:19:48.071Z</time></trkpt><trkpt lat="45.3658333" lon="10.7026317"><ele>80.66666666666667</ele><time>2026-04-11T09:19:51.065Z</time></trkpt><trkpt lat="45.3657767" lon="10.7026783"><ele>80.33333333333334</ele><time>2026-04-11T09:19:52.069Z</time></trkpt><trkpt lat="45.365705" lon="10.702725"><ele>80.0</ele><time>2026-04-11T09:19:53.077Z</time></trkpt><trkpt lat="45.36562" lon="10.7027783"><ele>80.75</ele><time>2026-04-11T09:19:54.068Z</time></trkpt><trkpt lat="45.3655117" lon="10.7028517"><ele>81.5</ele><time>2026-04-11T09:19:55.071Z</time></trkpt><trkpt lat="45.3654017" lon="10.7029167"><ele>82.25</ele><time>2026-04-11T09:19:56.075Z</time></trkpt><trkpt lat="45.365295" lon="10.702965"><ele>83.0</ele><time>2026-04-11T09:19:57.084Z</time></trkpt><trkpt lat="45.365165" lon="10.7030633"><ele>83.0</ele><time>2026-04-11T09:19:58.071Z</time></trkpt><trkpt lat="45.36506" lon="10.7031267"><ele>83.0</ele><time>2026-04-11T09:19:59.074Z</time></trkpt><trkpt lat="45.36496" lon="10.7032167"><ele>83.0</ele><time>2026-04-11T09:20:00.068Z</time></trkpt><trkpt lat="45.3648583" lon="10.70332"><ele>83.0</ele><time>2026-04-11T09:20:01.071Z</time></trkpt><trkpt lat="45.3647833" lon="10.70342"><ele>83.0</ele><time>2026-04-11T09:20:02.083Z</time></trkpt><trkpt lat="45.3647083" lon="10.7035183"><ele>83.0</ele><time>2026-04-11T09:20:03.073Z</time></trkpt><trkpt lat="45.3646267" lon="10.7036367"><ele>83.0</ele><time>2026-04-11T09:20:04.091Z</time></trkpt><trkpt lat="45.364555" lon="10.7037533"><ele>83.0</ele><time>2026-04-11T09:20:05.072Z</time></trkpt><trkpt lat="45.3644733" lon="10.70388"><ele>83.0</ele><time>2026-04-11T09:20:06.075Z</time></trkpt><trkpt lat="45.36439" lon="10.704005"><ele>85.0</ele><time>2026-04-11T09:20:07.065Z</time></trkpt><trkpt lat="45.3643067" lon="10.704135"><ele>87.0</ele><time>2026-04-11T09:20:08.076Z</time></trkpt><trkpt lat="45.364215" lon="10.7042683"><ele>89.0</ele><time>2026-04-11T09:20:09.063Z</time></trkpt><trkpt lat="45.3641267" lon="10.7044017"><ele>91.0</ele><time>2026-04-11T09:20:10.064Z</time></trkpt><trkpt lat="45.364025" lon="10.7045"><ele>92.75</ele><time>2026-04-11T09:20:11.068Z</time></trkpt><trkpt lat="45.3639117" lon="10.704605"><ele>94.5</ele><time>2026-04-11T09:20:12.071Z</time></trkpt><trkpt lat="45.3638033" lon="10.70468"><ele>96.25</ele><time>2026-04-11T09:20:13.061Z</time></trkpt><trkpt lat="45.3637" lon="10.70477"><ele>98.0</ele><time>2026-04-11T09:20:14.066Z</time></trkpt><trkpt lat="45.3635933" lon="10.7048667"><ele>98.0</ele><time>2026-04-11T09:20:15.067Z</time></trkpt><trkpt lat="45.363505" lon="10.7049883"><ele>98.0</ele><time>2026-04-11T09:20:16.075Z</time></trkpt><trkpt lat="45.3634267" lon="10.705115"><ele>98.0</ele><time>2026-04-11T09:20:17.063Z</time></trkpt><trkpt lat="45.3633533" lon="10.705245"><ele>98.0</ele><time>2026-04-11T09:20:18.076Z</time></trkpt><trkpt lat="45.3632783" lon="10.7053683"><ele>98.0</ele><time>2026-04-11T09:20:19.078Z</time></trkpt><trkpt lat="45.36319" lon="10.7054683"><ele>98.0</ele><time>2026-04-11T09:20:20.088Z</time></trkpt><trkpt lat="45.3631483" lon="10.70565"><ele>98.0</ele><time>2026-04-11T09:20:21.07Z</time></trkpt><trkpt lat="45.3630433" lon="10.7057183"><ele>98.0</ele><time>2026-04-11T09:20:22.069Z</time></trkpt><trkpt lat="45.3629583" lon="10.7058"><ele>97.99999999999999</ele><time>2026-04-11T09:20:23.076Z</time></trkpt><trkpt lat="45.362885" lon="10.7058833"><ele>98.0</ele><time>2026-04-11T09:20:24.073Z</time></trkpt><trkpt lat="45.3628233" lon="10.7059633"><ele>98.0</ele><time>2026-04-11T09:20:25.069Z</time></trkpt><trkpt lat="45.3627683" lon="10.7060517"><ele>98.0</ele><time>2026-04-11T09:20:26.073Z</time></trkpt><trkpt lat="45.3626933" lon="10.70615"><ele>97.99999999999999</ele><time>2026-04-11T09:20:27.063Z</time></trkpt><trkpt lat="45.3626267" lon="10.706225"><ele>98.0</ele><time>2026-04-11T09:20:28.065Z</time></trkpt><trkpt lat="45.362515" lon="10.7062683"><ele>97.49999999999999</ele><time>2026-04-11T09:20:30.068Z</time></trkpt><trkpt lat="45.3623933" lon="10.70625"><ele>97.0</ele><time>2026-04-11T09:20:32.067Z</time></trkpt><trkpt lat="45.3623267" lon="10.7062317"><ele>96.5</ele><time>2026-04-11T09:20:33.068Z</time></trkpt><trkpt lat="45.362255" lon="10.7062067"><ele>96.0</ele><time>2026-04-11T09:20:34.072Z</time></trkpt><trkpt lat="45.3621817" lon="10.7061817"><ele>95.5</ele><time>2026-04-11T09:20:35.061Z</time></trkpt><trkpt lat="45.3621067" lon="10.7061617"><ele>95.0</ele><time>2026-04-11T09:20:36.064Z</time></trkpt><trkpt lat="45.3620233" lon="10.7061417"><ele>94.8</ele><time>2026-04-11T09:20:37.062Z</time></trkpt><trkpt lat="45.3619333" lon="10.7061167"><ele>94.6</ele><time>2026-04-11T09:20:38.065Z</time></trkpt><trkpt lat="45.361845" lon="10.7060917"><ele>94.4</ele><time>2026-04-11T09:20:39.062Z</time></trkpt><trkpt lat="45.3617483" lon="10.7060617"><ele>94.2</ele><time>2026-04-11T09:20:40.068Z</time></trkpt><trkpt lat="45.361645" lon="10.7060417"><ele>94.0</ele><time>2026-04-11T09:20:41.059Z</time></trkpt><trkpt lat="45.3615533" lon="10.7060433"><ele>94.5</ele><time>2026-04-11T09:20:42.066Z</time></trkpt><trkpt lat="45.361445" lon="10.706055"><ele>95.0</ele><time>2026-04-11T09:20:43.064Z</time></trkpt><trkpt lat="45.3613417" lon="10.70607"><ele>95.5</ele><time>2026-04-11T09:20:44.076Z</time></trkpt><trkpt lat="45.361225" lon="10.7061033"><ele>96.0</ele><time>2026-04-11T09:20:45.071Z</time></trkpt><trkpt lat="45.3610933" lon="10.7061233"><ele>96.0</ele><time>2026-04-11T09:20:46.07Z</time></trkpt><trkpt lat="45.3609633" lon="10.7061067"><ele>96.0</ele><time>2026-04-11T09:20:47.067Z</time></trkpt><trkpt lat="45.3608167" lon="10.7060767"><ele>96.0</ele><time>2026-04-11T09:20:48.067Z</time></trkpt><trkpt lat="45.3607233" lon="10.7061133"><ele>96.0</ele><time>2026-04-11T09:20:49.062Z</time></trkpt><trkpt lat="45.360615" lon="10.7061717"><ele>93.75</ele><time>2026-04-11T09:20:50.078Z</time></trkpt><trkpt lat="45.3605017" lon="10.7062167"><ele>91.5</ele><time>2026-04-11T09:20:51.062Z</time></trkpt><trkpt lat="45.360365" lon="10.706345"><ele>89.25</ele><time>2026-04-11T09:20:52.063Z</time></trkpt><trkpt lat="45.3602317" lon="10.7064517"><ele>87.0</ele><time>2026-04-11T09:20:53.068Z</time></trkpt><trkpt lat="45.3601233" lon="10.706555"><ele>87.0</ele><time>2026-04-11T09:20:54.076Z</time></trkpt><trkpt lat="45.3600117" lon="10.7066483"><ele>87.0</ele><time>2026-04-11T09:20:55.067Z</time></trkpt><trkpt lat="45.3599017" lon="10.706655"><ele>87.0</ele><time>2026-04-11T09:20:56.067Z</time></trkpt><trkpt lat="45.359805" lon="10.7066717"><ele>87.0</ele><time>2026-04-11T09:20:57.067Z</time></trkpt><trkpt lat="45.3596917" lon="10.7066267"><ele>87.5</ele><time>2026-04-11T09:20:58.084Z</time></trkpt><trkpt lat="45.359565" lon="10.70662"><ele>88.0</ele><time>2026-04-11T09:20:59.078Z</time></trkpt><trkpt lat="45.3594283" lon="10.7066117"><ele>88.5</ele><time>2026-04-11T09:21:00.073Z</time></trkpt><trkpt lat="45.3592883" lon="10.7065617"><ele>89.0</ele><time>2026-04-11T09:21:01.063Z</time></trkpt><trkpt lat="45.359195" lon="10.7065083"><ele>89.0</ele><time>2026-04-11T09:21:02.069Z</time></trkpt><trkpt lat="45.35909" lon="10.7064817"><ele>89.0</ele><time>2026-04-11T09:21:03.076Z</time></trkpt><trkpt lat="45.358985" lon="10.7064733"><ele>89.0</ele><time>2026-04-11T09:21:04.069Z</time></trkpt><trkpt lat="45.3588617" lon="10.7065317"><ele>89.0</ele><time>2026-04-11T09:21:05.066Z</time></trkpt><trkpt lat="45.3587167" lon="10.70659"><ele>89.75</ele><time>2026-04-11T09:21:06.073Z</time></trkpt><trkpt lat="45.358575" lon="10.7066367"><ele>90.5</ele><time>2026-04-11T09:21:07.065Z</time></trkpt><trkpt lat="45.3584333" lon="10.7066667"><ele>91.25</ele><time>2026-04-11T09:21:08.067Z</time></trkpt><trkpt lat="45.3582967" lon="10.7066933"><ele>92.0</ele><time>2026-04-11T09:21:09.069Z</time></trkpt><trkpt lat="45.358165" lon="10.7067417"><ele>91.25</ele><time>2026-04-11T09:21:10.069Z</time></trkpt><trkpt lat="45.3580267" lon="10.7068183"><ele>90.5</ele><time>2026-04-11T09:21:11.061Z</time></trkpt><trkpt lat="45.357885" lon="10.7068983"><ele>89.75</ele><time>2026-04-11T09:21:12.072Z</time></trkpt><trkpt lat="45.35775" lon="10.7069833"><ele>89.0</ele><time>2026-04-11T09:21:13.06Z</time></trkpt><trkpt lat="45.3576217" lon="10.707075"><ele>88.25</ele><time>2026-04-11T09:21:14.067Z</time></trkpt><trkpt lat="45.3574933" lon="10.7071817"><ele>87.5</ele><time>2026-04-11T09:21:15.066Z</time></trkpt><trkpt lat="45.35737" lon="10.7072933"><ele>86.75</ele><time>2026-04-11T09:21:16.067Z</time></trkpt><trkpt lat="45.3572567" lon="10.707405"><ele>86.0</ele><time>2026-04-11T09:21:17.062Z</time></trkpt><trkpt lat="45.35715" lon="10.707515"><ele>86.0</ele><time>2026-04-11T09:21:18.063Z</time></trkpt><trkpt lat="45.3570533" lon="10.7076183"><ele>86.0</ele><time>2026-04-11T09:21:19.063Z</time></trkpt><trkpt lat="45.35696" lon="10.7077233"><ele>86.0</ele><time>2026-04-11T09:21:20.059Z</time></trkpt><trkpt lat="45.356875" lon="10.707835"><ele>86.0</ele><time>2026-04-11T09:21:21.064Z</time></trkpt><trkpt lat="45.3568017" lon="10.7079467"><ele>85.66666666666667</ele><time>2026-04-11T09:21:22.071Z</time></trkpt><trkpt lat="45.3567283" lon="10.7080617"><ele>85.33333333333334</ele><time>2026-04-11T09:21:23.069Z</time></trkpt><trkpt lat="45.3566617" lon="10.7081567"><ele>85.0</ele><time>2026-04-11T09:21:24.067Z</time></trkpt><trkpt lat="45.3565967" lon="10.7082317"><ele>84.66666666666667</ele><time>2026-04-11T09:21:25.064Z</time></trkpt><trkpt lat="45.35653" lon="10.7082817"><ele>84.33333333333333</ele><time>2026-04-11T09:21:26.067Z</time></trkpt><trkpt lat="45.3564567" lon="10.708315"><ele>84.0</ele><time>2026-04-11T09:21:27.072Z</time></trkpt><trkpt lat="45.3563817" lon="10.70831"><ele>84.80000000000001</ele><time>2026-04-11T09:21:28.082Z</time></trkpt><trkpt lat="45.3563" lon="10.708275"><ele>85.60000000000001</ele><time>2026-04-11T09:21:29.076Z</time></trkpt><trkpt lat="45.3561917" lon="10.7082333"><ele>86.4</ele><time>2026-04-11T09:21:30.07Z</time></trkpt><trkpt lat="45.3561033" lon="10.7081517"><ele>87.2</ele><time>2026-04-11T09:21:31.075Z</time></trkpt><trkpt lat="45.356" lon="10.7080983"><ele>88.0</ele><time>2026-04-11T09:21:32.106Z</time></trkpt><trkpt lat="45.3559" lon="10.708045"><ele>88.0</ele><time>2026-04-11T09:21:33.075Z</time></trkpt><trkpt lat="45.3558033" lon="10.7080183"><ele>88.0</ele><time>2026-04-11T09:21:34.071Z</time></trkpt><trkpt lat="45.3557317" lon="10.707995"><ele>88.0</ele><time>2026-04-11T09:21:35.069Z</time></trkpt><trkpt lat="45.35562" lon="10.7079667"><ele>88.0</ele><time>2026-04-11T09:21:37.069Z</time></trkpt><trkpt lat="45.3555517" lon="10.7079467"><ele>88.0</ele><time>2026-04-11T09:21:39.064Z</time></trkpt><trkpt lat="45.3555267" lon="10.7078017"><ele>87.25</ele><time>2026-04-11T09:21:42.069Z</time></trkpt><trkpt lat="45.3555583" lon="10.7075933"><ele>86.5</ele><time>2026-04-11T09:21:44.062Z</time></trkpt><trkpt lat="45.3555817" lon="10.7074267"><ele>85.75</ele><time>2026-04-11T09:21:45.058Z</time></trkpt><trkpt lat="45.3556183" lon="10.7072433"><ele>85.0</ele><time>2026-04-11T09:21:46.06Z</time></trkpt><trkpt lat="45.3556383" lon="10.707075"><ele>84.66666666666666</ele><time>2026-04-11T09:21:47.058Z</time></trkpt><trkpt lat="45.3556567" lon="10.70686"><ele>84.33333333333333</ele><time>2026-04-11T09:21:48.064Z</time></trkpt><trkpt lat="45.3556733" lon="10.7066117"><ele>84.0</ele><time>2026-04-11T09:21:49.061Z</time></trkpt><trkpt lat="45.3556967" lon="10.7064"><ele>84.0</ele><time>2026-04-11T09:21:50.061Z</time></trkpt><trkpt lat="45.3557" lon="10.7061617"><ele>84.0</ele><time>2026-04-11T09:21:51.071Z</time></trkpt><trkpt lat="45.3557083" lon="10.70593"><ele>84.0</ele><time>2026-04-11T09:21:52.059Z</time></trkpt><trkpt lat="45.3557233" lon="10.705705"><ele>84.0</ele><time>2026-04-11T09:21:53.059Z</time></trkpt><trkpt lat="45.355735" lon="10.705475"><ele>84.0</ele><time>2026-04-11T09:21:54.065Z</time></trkpt><trkpt lat="45.355755" lon="10.7052283"><ele>84.0</ele><time>2026-04-11T09:21:55.062Z</time></trkpt><trkpt lat="45.3557567" lon="10.70496"><ele>85.66666666666667</ele><time>2026-04-11T09:21:56.062Z</time></trkpt><trkpt lat="45.3557667" lon="10.7047133"><ele>87.33333333333334</ele><time>2026-04-11T09:21:57.071Z</time></trkpt><trkpt lat="45.35579" lon="10.704505"><ele>89.0</ele><time>2026-04-11T09:21:58.057Z</time></trkpt><trkpt lat="45.3558217" lon="10.7042617"><ele>90.0</ele><time>2026-04-11T09:21:59.061Z</time></trkpt><trkpt lat="45.355845" lon="10.7040217"><ele>91.0</ele><time>2026-04-11T09:22:00.097Z</time></trkpt><trkpt lat="45.3558633" lon="10.70378"><ele>92.0</ele><time>2026-04-11T09:22:01.077Z</time></trkpt><trkpt lat="45.35588" lon="10.7035317"><ele>92.0</ele><time>2026-04-11T09:22:02.063Z</time></trkpt><trkpt lat="45.355885" lon="10.703295"><ele>92.0</ele><time>2026-04-11T09:22:03.065Z</time></trkpt><trkpt lat="45.3558933" lon="10.70305"><ele>92.0</ele><time>2026-04-11T09:22:04.062Z</time></trkpt><trkpt lat="45.3558883" lon="10.702805"><ele>92.0</ele><time>2026-04-11T09:22:05.059Z</time></trkpt><trkpt lat="45.3558833" lon="10.70254"><ele>92.0</ele><time>2026-04-11T09:22:06.068Z</time></trkpt><trkpt lat="45.3558767" lon="10.7022633"><ele>92.0</ele><time>2026-04-11T09:22:07.069Z</time></trkpt><trkpt lat="45.3558667" lon="10.7020067"><ele>92.33333333333334</ele><time>2026-04-11T09:22:08.062Z</time></trkpt><trkpt lat="45.3558567" lon="10.7017383"><ele>92.66666666666667</ele><time>2026-04-11T09:22:09.063Z</time></trkpt><trkpt lat="45.35585" lon="10.701465"><ele>93.0</ele><time>2026-04-11T09:22:10.066Z</time></trkpt><trkpt lat="45.3558333" lon="10.7011917"><ele>93.33333333333333</ele><time>2026-04-11T09:22:11.061Z</time></trkpt><trkpt lat="45.355825" lon="10.7009"><ele>93.66666666666666</ele><time>2026-04-11T09:22:12.063Z</time></trkpt><trkpt lat="45.3558083" lon="10.7006333"><ele>94.0</ele><time>2026-04-11T09:22:13.071Z</time></trkpt><trkpt lat="45.3558117" lon="10.70037"><ele>93.66666666666666</ele><time>2026-04-11T09:22:14.069Z</time></trkpt><trkpt lat="45.3558067" lon="10.7001033"><ele>93.33333333333333</ele><time>2026-04-11T09:22:15.066Z</time></trkpt><trkpt lat="45.3558067" lon="10.6998"><ele>93.0</ele><time>2026-04-11T09:22:16.073Z</time></trkpt><trkpt lat="45.3557933" lon="10.699535"><ele>92.33333333333333</ele><time>2026-04-11T09:22:17.07Z</time></trkpt><trkpt lat="45.3557983" lon="10.6992617"><ele>91.66666666666666</ele><time>2026-04-11T09:22:18.069Z</time></trkpt><trkpt lat="45.3557833" lon="10.6989767"><ele>91.0</ele><time>2026-04-11T09:22:19.072Z</time></trkpt><trkpt lat="45.3557717" lon="10.6987267"><ele>90.33333333333333</ele><time>2026-04-11T09:22:20.068Z</time></trkpt><trkpt lat="45.35581" lon="10.6984567"><ele>89.66666666666667</ele><time>2026-04-11T09:22:21.065Z</time></trkpt><trkpt lat="45.355765" lon="10.6981683"><ele>89.0</ele><time>2026-04-11T09:22:22.061Z</time></trkpt><trkpt lat="45.3557" lon="10.6978517"><ele>88.66666666666667</ele><time>2026-04-11T09:22:23.064Z</time></trkpt><trkpt lat="45.3556583" lon="10.6975667"><ele>88.33333333333333</ele><time>2026-04-11T09:22:24.06Z</time></trkpt><trkpt lat="45.355625" lon="10.6973283"><ele>88.0</ele><time>2026-04-11T09:22:25.056Z</time></trkpt><trkpt lat="45.355605" lon="10.6971233"><ele>88.5</ele><time>2026-04-11T09:22:26.07Z</time></trkpt><trkpt lat="45.3556" lon="10.6969133"><ele>89.0</ele><time>2026-04-11T09:22:27.059Z</time></trkpt><trkpt lat="45.3555933" lon="10.696715"><ele>89.5</ele><time>2026-04-11T09:22:28.06Z</time></trkpt><trkpt lat="45.355565" lon="10.6965317"><ele>90.0</ele><time>2026-04-11T09:22:29.064Z</time></trkpt><trkpt lat="45.3555567" lon="10.6963917"><ele>90.0</ele><time>2026-04-11T09:22:30.065Z</time></trkpt><trkpt lat="45.355545" lon="10.6962917"><ele>90.0</ele><time>2026-04-11T09:22:31.061Z</time></trkpt><trkpt lat="45.3555467" lon="10.6961867"><ele>90.0</ele><time>2026-04-11T09:22:32.076Z</time></trkpt><trkpt lat="45.355565" lon="10.69607"><ele>90.0</ele><time>2026-04-11T09:22:33.074Z</time></trkpt><trkpt lat="45.3556217" lon="10.6959167"><ele>90.0</ele><time>2026-04-11T09:22:34.055Z</time></trkpt><trkpt lat="45.3556767" lon="10.695775"><ele>91.5</ele><time>2026-04-11T09:22:35.063Z</time></trkpt><trkpt lat="45.3557367" lon="10.6956"><ele>93.0</ele><time>2026-04-11T09:22:36.059Z</time></trkpt><trkpt lat="45.355805" lon="10.6954433"><ele>94.5</ele><time>2026-04-11T09:22:37.06Z</time></trkpt><trkpt lat="45.355885" lon="10.695295"><ele>96.0</ele><time>2026-04-11T09:22:38.06Z</time></trkpt><trkpt lat="45.355945" lon="10.6951383"><ele>96.25</ele><time>2026-04-11T09:22:39.066Z</time></trkpt><trkpt lat="45.356" lon="10.69496"><ele>96.5</ele><time>2026-04-11T09:22:40.057Z</time></trkpt><trkpt lat="45.356055" lon="10.694775"><ele>96.75</ele><time>2026-04-11T09:22:41.059Z</time></trkpt><trkpt lat="45.3561133" lon="10.694595"><ele>97.0</ele><time>2026-04-11T09:22:42.065Z</time></trkpt><trkpt lat="45.3561733" lon="10.6944317"><ele>97.0</ele><time>2026-04-11T09:22:43.06Z</time></trkpt><trkpt lat="45.3562283" lon="10.694295"><ele>97.0</ele><time>2026-04-11T09:22:44.06Z</time></trkpt><trkpt lat="45.3562767" lon="10.6941833"><ele>97.0</ele><time>2026-04-11T09:22:45.066Z</time></trkpt><trkpt lat="45.3563167" lon="10.6940783"><ele>97.0</ele><time>2026-04-11T09:22:46.06Z</time></trkpt><trkpt lat="45.356355" lon="10.693965"><ele>97.0</ele><time>2026-04-11T09:22:47.064Z</time></trkpt><trkpt lat="45.3564" lon="10.6938767"><ele>97.75</ele><time>2026-04-11T09:22:48.068Z</time></trkpt><trkpt lat="45.35646" lon="10.69375"><ele>98.5</ele><time>2026-04-11T09:22:49.06Z</time></trkpt><trkpt lat="45.356535" lon="10.6936217"><ele>99.25</ele><time>2026-04-11T09:22:50.064Z</time></trkpt><trkpt lat="45.3566283" lon="10.6935333"><ele>100.0</ele><time>2026-04-11T09:22:51.064Z</time></trkpt><trkpt lat="45.3567233" lon="10.6934333"><ele>98.5</ele><time>2026-04-11T09:22:52.076Z</time></trkpt><trkpt lat="45.356815" lon="10.69331"><ele>97.0</ele><time>2026-04-11T09:22:53.065Z</time></trkpt><trkpt lat="45.3569017" lon="10.69322"><ele>95.5</ele><time>2026-04-11T09:22:54.067Z</time></trkpt><trkpt lat="45.357005" lon="10.693125"><ele>94.0</ele><time>2026-04-11T09:22:55.064Z</time></trkpt><trkpt lat="45.3570867" lon="10.693035"><ele>94.0</ele><time>2026-04-11T09:22:56.06Z</time></trkpt><trkpt lat="45.35714" lon="10.6929417"><ele>94.0</ele><time>2026-04-11T09:22:57.063Z</time></trkpt><trkpt lat="45.3571817" lon="10.69284"><ele>94.0</ele><time>2026-04-11T09:22:58.064Z</time></trkpt><trkpt lat="45.3572517" lon="10.692735"><ele>94.0</ele><time>2026-04-11T09:22:59.06Z</time></trkpt><trkpt lat="45.3573" lon="10.692615"><ele>94.0</ele><time>2026-04-11T09:23:00.063Z</time></trkpt><trkpt lat="45.357345" lon="10.6924883"><ele>94.0</ele><time>2026-04-11T09:23:01.064Z</time></trkpt><trkpt lat="45.3573867" lon="10.692335"><ele>94.0</ele><time>2026-04-11T09:23:02.06Z</time></trkpt><trkpt lat="45.357425" lon="10.69218"><ele>94.0</ele><time>2026-04-11T09:23:03.061Z</time></trkpt><trkpt lat="45.357455" lon="10.6920217"><ele>94.0</ele><time>2026-04-11T09:23:04.06Z</time></trkpt><trkpt lat="45.3574517" lon="10.69188"><ele>94.0</ele><time>2026-04-11T09:23:05.067Z</time></trkpt><trkpt lat="45.3574283" lon="10.6917"><ele>95.0</ele><time>2026-04-11T09:23:06.068Z</time></trkpt><trkpt lat="45.35743" lon="10.6915433"><ele>96.0</ele><time>2026-04-11T09:23:07.066Z</time></trkpt><trkpt lat="45.3574233" lon="10.691375"><ele>97.0</ele><time>2026-04-11T09:23:08.058Z</time></trkpt><trkpt lat="45.3574017" lon="10.6912267"><ele>98.0</ele><time>2026-04-11T09:23:09.06Z</time></trkpt><trkpt lat="45.3573833" lon="10.69107"><ele>99.0</ele><time>2026-04-11T09:23:10.06Z</time></trkpt><trkpt lat="45.3573633" lon="10.6909067"><ele>100.0</ele><time>2026-04-11T09:23:11.064Z</time></trkpt><trkpt lat="45.3573367" lon="10.6907767"><ele>101.0</ele><time>2026-04-11T09:23:12.058Z</time></trkpt><trkpt lat="45.3573267" lon="10.690615"><ele>102.0</ele><time>2026-04-11T09:23:13.059Z</time></trkpt><trkpt lat="45.3573167" lon="10.6904483"><ele>103.0</ele><time>2026-04-11T09:23:14.062Z</time></trkpt><trkpt lat="45.3573017" lon="10.6903167"><ele>104.0</ele><time>2026-04-11T09:23:15.06Z</time></trkpt><trkpt lat="45.3572833" lon="10.6901567"><ele>104.4</ele><time>2026-04-11T09:23:16.059Z</time></trkpt><trkpt lat="45.3572933" lon="10.69"><ele>104.80000000000001</ele><time>2026-04-11T09:23:17.063Z</time></trkpt><trkpt lat="45.3573417" lon="10.689855"><ele>105.19999999999999</ele><time>2026-04-11T09:23:18.073Z</time></trkpt><trkpt lat="45.3573667" lon="10.689715"><ele>105.6</ele><time>2026-04-11T09:23:19.06Z</time></trkpt><trkpt lat="45.357385" lon="10.6895833"><ele>106.0</ele><time>2026-04-11T09:23:20.072Z</time></trkpt><trkpt lat="45.35741" lon="10.689435"><ele>106.25</ele><time>2026-04-11T09:23:21.058Z</time></trkpt><trkpt lat="45.3574017" lon="10.6892617"><ele>106.5</ele><time>2026-04-11T09:23:22.06Z</time></trkpt><trkpt lat="45.35742" lon="10.6890967"><ele>106.75</ele><time>2026-04-11T09:23:23.063Z</time></trkpt><trkpt lat="45.3574217" lon="10.6889367"><ele>107.0</ele><time>2026-04-11T09:23:24.075Z</time></trkpt><trkpt lat="45.3574517" lon="10.68875"><ele>107.0</ele><time>2026-04-11T09:23:25.056Z</time></trkpt><trkpt lat="45.3574833" lon="10.6885817"><ele>106.99999999999999</ele><time>2026-04-11T09:23:26.073Z</time></trkpt><trkpt lat="45.3575017" lon="10.6884067"><ele>106.99999999999999</ele><time>2026-04-11T09:23:27.069Z</time></trkpt><trkpt lat="45.3575367" lon="10.6882667"><ele>107.0</ele><time>2026-04-11T09:23:28.065Z</time></trkpt><trkpt lat="45.35755" lon="10.688145"><ele>107.0</ele><time>2026-04-11T09:23:29.061Z</time></trkpt><trkpt lat="45.35757" lon="10.6880133"><ele>107.0</ele><time>2026-04-11T09:23:30.063Z</time></trkpt><trkpt lat="45.3575867" lon="10.6878767"><ele>106.99999999999999</ele><time>2026-04-11T09:23:31.06Z</time></trkpt><trkpt lat="45.3576183" lon="10.6877383"><ele>106.99999999999999</ele><time>2026-04-11T09:23:32.064Z</time></trkpt><trkpt lat="45.3576667" lon="10.68759"><ele>107.0</ele><time>2026-04-11T09:23:33.062Z</time></trkpt><trkpt lat="45.3577267" lon="10.6874433"><ele>107.0</ele><time>2026-04-11T09:23:34.063Z</time></trkpt><trkpt lat="45.3577917" lon="10.6872983"><ele>107.19999999999999</ele><time>2026-04-11T09:23:35.059Z</time></trkpt><trkpt lat="45.3578617" lon="10.6871667"><ele>107.39999999999999</ele><time>2026-04-11T09:23:36.063Z</time></trkpt><trkpt lat="45.3579333" lon="10.6870583"><ele>107.60000000000001</ele><time>2026-04-11T09:23:37.06Z</time></trkpt><trkpt lat="45.3580083" lon="10.68697"><ele>107.80000000000001</ele><time>2026-04-11T09:23:38.058Z</time></trkpt><trkpt lat="45.3580983" lon="10.6868883"><ele>108.0</ele><time>2026-04-11T09:23:39.064Z</time></trkpt><trkpt lat="45.3582017" lon="10.686815"><ele>109.0</ele><time>2026-04-11T09:23:40.06Z</time></trkpt><trkpt lat="45.3582983" lon="10.686745"><ele>110.00000000000001</ele><time>2026-04-11T09:23:41.058Z</time></trkpt><trkpt lat="45.3583883" lon="10.6866583"><ele>111.00000000000001</ele><time>2026-04-11T09:23:42.062Z</time></trkpt><trkpt lat="45.3584917" lon="10.6865883"><ele>112.0</ele><time>2026-04-11T09:23:43.067Z</time></trkpt><trkpt lat="45.3585967" lon="10.6865167"><ele>113.0</ele><time>2026-04-11T09:23:44.064Z</time></trkpt><trkpt lat="45.3587" lon="10.6864517"><ele>113.0</ele><time>2026-04-11T09:23:45.065Z</time></trkpt><trkpt lat="45.3588367" lon="10.6863567"><ele>113.0</ele><time>2026-04-11T09:23:46.065Z</time></trkpt><trkpt lat="45.358915" lon="10.686285"><ele>113.0</ele><time>2026-04-11T09:23:47.062Z</time></trkpt><trkpt lat="45.358995" lon="10.686205"><ele>113.0</ele><time>2026-04-11T09:23:48.068Z</time></trkpt><trkpt lat="45.3590933" lon="10.6861"><ele>114.4</ele><time>2026-04-11T09:23:49.083Z</time></trkpt><trkpt lat="45.359175" lon="10.68601"><ele>115.80000000000001</ele><time>2026-04-11T09:23:50.072Z</time></trkpt><trkpt lat="45.3592167" lon="10.6858767"><ele>117.2</ele><time>2026-04-11T09:23:51.072Z</time></trkpt><trkpt lat="45.359265" lon="10.685755"><ele>118.6</ele><time>2026-04-11T09:23:52.069Z</time></trkpt><trkpt lat="45.35931" lon="10.6856233"><ele>120.0</ele><time>2026-04-11T09:23:53.065Z</time></trkpt><trkpt lat="45.3593633" lon="10.6854533"><ele>120.0</ele><time>2026-04-11T09:23:54.066Z</time></trkpt><trkpt lat="45.359415" lon="10.6853083"><ele>120.0</ele><time>2026-04-11T09:23:55.062Z</time></trkpt><trkpt lat="45.35947" lon="10.6851667"><ele>120.0</ele><time>2026-04-11T09:23:56.07Z</time></trkpt><trkpt lat="45.3595283" lon="10.6850083"><ele>120.0</ele><time>2026-04-11T09:23:57.066Z</time></trkpt><trkpt lat="45.3595733" lon="10.6848583"><ele>119.75</ele><time>2026-04-11T09:23:58.072Z</time></trkpt><trkpt lat="45.3596333" lon="10.684715"><ele>119.5</ele><time>2026-04-11T09:23:59.075Z</time></trkpt><trkpt lat="45.3596833" lon="10.6845867"><ele>119.25</ele><time>2026-04-11T09:24:00.073Z</time></trkpt><trkpt lat="45.3597533" lon="10.6844483"><ele>119.0</ele><time>2026-04-11T09:24:01.06Z</time></trkpt><trkpt lat="45.35984" lon="10.6842667"><ele>119.0</ele><time>2026-04-11T09:24:02.087Z</time></trkpt><trkpt lat="45.359905" lon="10.684115"><ele>119.0</ele><time>2026-04-11T09:24:03.079Z</time></trkpt><trkpt lat="45.3599667" lon="10.6840083"><ele>119.0</ele><time>2026-04-11T09:24:04.064Z</time></trkpt><trkpt lat="45.3600133" lon="10.6839167"><ele>119.0</ele><time>2026-04-11T09:24:05.071Z</time></trkpt><trkpt lat="45.36006" lon="10.68382"><ele>119.0</ele><time>2026-04-11T09:24:06.072Z</time></trkpt><trkpt lat="45.360105" lon="10.6837417"><ele>119.0</ele><time>2026-04-11T09:24:07.065Z</time></trkpt><trkpt lat="45.3601817" lon="10.68363"><ele>119.0</ele><time>2026-04-11T09:24:09.078Z</time></trkpt><trkpt lat="45.3602567" lon="10.68359"><ele>119.0</ele><time>2026-04-11T09:24:11.066Z</time></trkpt><trkpt lat="45.3603567" lon="10.6836117"><ele>119.0</ele><time>2026-04-11T09:24:13.06Z</time></trkpt><trkpt lat="45.3604317" lon="10.6836233"><ele>119.0</ele><time>2026-04-11T09:24:14.07Z</time></trkpt><trkpt lat="45.3605267" lon="10.6836333"><ele>118.25</ele><time>2026-04-11T09:24:15.084Z</time></trkpt><trkpt lat="45.360625" lon="10.683605"><ele>117.5</ele><time>2026-04-11T09:24:16.068Z</time></trkpt><trkpt lat="45.360735" lon="10.683535"><ele>116.75</ele><time>2026-04-11T09:24:17.065Z</time></trkpt><trkpt lat="45.36082" lon="10.6834217"><ele>116.0</ele><time>2026-04-11T09:24:18.071Z</time></trkpt><trkpt lat="45.3609017" lon="10.683275"><ele>116.0</ele><time>2026-04-11T09:24:19.068Z</time></trkpt><trkpt lat="45.360995" lon="10.6831067"><ele>116.0</ele><time>2026-04-11T09:24:20.058Z</time></trkpt><trkpt lat="45.3610417" lon="10.682985"><ele>116.0</ele><time>2026-04-11T09:24:21.072Z</time></trkpt><trkpt lat="45.361135" lon="10.6828967"><ele>116.0</ele><time>2026-04-11T09:24:22.07Z</time></trkpt><trkpt lat="45.3612267" lon="10.6828117"><ele>115.0</ele><time>2026-04-11T09:24:23.063Z</time></trkpt><trkpt lat="45.3613233" lon="10.6827483"><ele>114.0</ele><time>2026-04-11T09:24:24.076Z</time></trkpt><trkpt lat="45.3614267" lon="10.6827"><ele>113.0</ele><time>2026-04-11T09:24:25.068Z</time></trkpt><trkpt lat="45.3615567" lon="10.6827017"><ele>112.0</ele><time>2026-04-11T09:24:26.067Z</time></trkpt><trkpt lat="45.361675" lon="10.682685"><ele>112.0</ele><time>2026-04-11T09:24:27.068Z</time></trkpt><trkpt lat="45.3617667" lon="10.6826767"><ele>111.99999999999999</ele><time>2026-04-11T09:24:28.092Z</time></trkpt><trkpt lat="45.3618733" lon="10.68264"><ele>111.99999999999999</ele><time>2026-04-11T09:24:29.066Z</time></trkpt><trkpt lat="45.3619833" lon="10.6825967"><ele>112.0</ele><time>2026-04-11T09:24:30.079Z</time></trkpt><trkpt lat="45.362075" lon="10.6825533"><ele>112.0</ele><time>2026-04-11T09:24:31.068Z</time></trkpt><trkpt lat="45.3621717" lon="10.6825083"><ele>108.39999999999999</ele><time>2026-04-11T09:24:32.073Z</time></trkpt><trkpt lat="45.3622817" lon="10.68251"><ele>104.79999999999998</ele><time>2026-04-11T09:24:33.068Z</time></trkpt><trkpt lat="45.3623617" lon="10.6825567"><ele>101.2</ele><time>2026-04-11T09:24:34.069Z</time></trkpt><trkpt lat="45.3624317" lon="10.6826283"><ele>97.6</ele><time>2026-04-11T09:24:35.068Z</time></trkpt><trkpt lat="45.3624733" lon="10.6827617"><ele>94.0</ele><time>2026-04-11T09:24:36.061Z</time></trkpt><trkpt lat="45.362545" lon="10.682885"><ele>92.80000000000001</ele><time>2026-04-11T09:24:37.065Z</time></trkpt><trkpt lat="45.362605" lon="10.6830217"><ele>91.60000000000001</ele><time>2026-04-11T09:24:38.06Z</time></trkpt><trkpt lat="45.362655" lon="10.683165"><ele>90.4</ele><time>2026-04-11T09:24:39.074Z</time></trkpt><trkpt lat="45.3626917" lon="10.6833167"><ele>89.2</ele><time>2026-04-11T09:24:40.073Z</time></trkpt><trkpt lat="45.3627433" lon="10.6834433"><ele>88.0</ele><time>2026-04-11T09:24:41.078Z</time></trkpt><trkpt lat="45.3627967" lon="10.6835567"><ele>88.5</ele><time>2026-04-11T09:24:42.067Z</time></trkpt><trkpt lat="45.3628567" lon="10.6836717"><ele>89.0</ele><time>2026-04-11T09:24:43.061Z</time></trkpt><trkpt lat="45.362925" lon="10.6837833"><ele>89.5</ele><time>2026-04-11T09:24:44.073Z</time></trkpt><trkpt lat="45.36301" lon="10.6838767"><ele>90.0</ele><time>2026-04-11T09:24:45.072Z</time></trkpt><trkpt lat="45.3631317" lon="10.6839767"><ele>90.0</ele><time>2026-04-11T09:24:46.075Z</time></trkpt><trkpt lat="45.3632417" lon="10.6840683"><ele>90.0</ele><time>2026-04-11T09:24:47.07Z</time></trkpt><trkpt lat="45.3633517" lon="10.6841183"><ele>90.0</ele><time>2026-04-11T09:24:48.064Z</time></trkpt><trkpt lat="45.3634567" lon="10.684155"><ele>90.0</ele><time>2026-04-11T09:24:49.069Z</time></trkpt><trkpt lat="45.36355" lon="10.6841817"><ele>90.0</ele><time>2026-04-11T09:24:50.067Z</time></trkpt><trkpt lat="45.3636667" lon="10.68423"><ele>90.0</ele><time>2026-04-11T09:24:51.072Z</time></trkpt><trkpt lat="45.36377" lon="10.6842817"><ele>90.0</ele><time>2026-04-11T09:24:52.081Z</time></trkpt><trkpt lat="45.36388" lon="10.6843183"><ele>90.0</ele><time>2026-04-11T09:24:53.071Z</time></trkpt><trkpt lat="45.3640133" lon="10.684355"><ele>90.0</ele><time>2026-04-11T09:24:54.073Z</time></trkpt><trkpt lat="45.3641467" lon="10.6843833"><ele>90.0</ele><time>2026-04-11T09:24:55.081Z</time></trkpt><trkpt lat="45.3642783" lon="10.684415"><ele>90.0</ele><time>2026-04-11T09:24:56.07Z</time></trkpt><trkpt lat="45.3643933" lon="10.6844383"><ele>90.0</ele><time>2026-04-11T09:24:57.068Z</time></trkpt><trkpt lat="45.3645017" lon="10.6844733"><ele>90.0</ele><time>2026-04-11T09:24:58.057Z</time></trkpt><trkpt lat="45.3646217" lon="10.6844683"><ele>89.5</ele><time>2026-04-11T09:24:59.068Z</time></trkpt><trkpt lat="45.3647283" lon="10.6844483"><ele>89.0</ele><time>2026-04-11T09:25:00.072Z</time></trkpt><trkpt lat="45.364835" lon="10.684425"><ele>88.5</ele><time>2026-04-11T09:25:01.064Z</time></trkpt><trkpt lat="45.364945" lon="10.6843917"><ele>88.0</ele><time>2026-04-11T09:25:02.07Z</time></trkpt><trkpt lat="45.3650767" lon="10.6843583"><ele>89.0</ele><time>2026-04-11T09:25:03.067Z</time></trkpt><trkpt lat="45.3652117" lon="10.684305"><ele>90.0</ele><time>2026-04-11T09:25:04.061Z</time></trkpt><trkpt lat="45.3653417" lon="10.68427"><ele>91.0</ele><time>2026-04-11T09:25:05.067Z</time></trkpt><trkpt lat="45.36547" lon="10.6842417"><ele>92.0</ele><time>2026-04-11T09:25:06.079Z</time></trkpt><trkpt lat="45.365625" lon="10.6841867"><ele>92.0</ele><time>2026-04-11T09:25:07.068Z</time></trkpt><trkpt lat="45.3657867" lon="10.684155"><ele>92.0</ele><time>2026-04-11T09:25:08.081Z</time></trkpt><trkpt lat="45.365945" lon="10.684095"><ele>92.0</ele><time>2026-04-11T09:25:09.087Z</time></trkpt><trkpt lat="45.3660883" lon="10.6840567"><ele>92.0</ele><time>2026-04-11T09:25:10.079Z</time></trkpt><trkpt lat="45.3662317" lon="10.684025"><ele>92.0</ele><time>2026-04-11T09:25:11.072Z</time></trkpt><trkpt lat="45.366375" lon="10.6839683"><ele>92.0</ele><time>2026-04-11T09:25:12.061Z</time></trkpt><trkpt lat="45.3665083" lon="10.6839017"><ele>92.0</ele><time>2026-04-11T09:25:13.07Z</time></trkpt><trkpt lat="45.3666367" lon="10.6838333"><ele>92.39999999999999</ele><time>2026-04-11T09:25:14.061Z</time></trkpt><trkpt lat="45.36676" lon="10.6837617"><ele>92.8</ele><time>2026-04-11T09:25:15.092Z</time></trkpt><trkpt lat="45.3668617" lon="10.683725"><ele>93.2</ele><time>2026-04-11T09:25:16.145Z</time></trkpt><trkpt lat="45.3669533" lon="10.6837183"><ele>93.6</ele><time>2026-04-11T09:25:17.082Z</time></trkpt><trkpt lat="45.36704" lon="10.683775"><ele>94.0</ele><time>2026-04-11T09:25:19.074Z</time></trkpt><trkpt lat="45.3671367" lon="10.68382"><ele>94.0</ele><time>2026-04-11T09:25:21.066Z</time></trkpt><trkpt lat="45.3671767" lon="10.683715"><ele>94.0</ele><time>2026-04-11T09:25:41.075Z</time></trkpt><trkpt lat="45.3670983" lon="10.6835583"><ele>94.0</ele><time>2026-04-11T09:25:43.062Z</time></trkpt><trkpt lat="45.3670433" lon="10.6834783"><ele>94.0</ele><time>2026-04-11T09:25:44.063Z</time></trkpt><trkpt lat="45.3669917" lon="10.6833917"><ele>94.0</ele><time>2026-04-11T09:25:45.065Z</time></trkpt><trkpt lat="45.366945" lon="10.68331"><ele>94.16666666666666</ele><time>2026-04-11T09:25:46.07Z</time></trkpt><trkpt lat="45.3668983" lon="10.68323"><ele>94.33333333333333</ele><time>2026-04-11T09:25:47.067Z</time></trkpt><trkpt lat="45.3668583" lon="10.6831583"><ele>94.5</ele><time>2026-04-11T09:25:48.071Z</time></trkpt><trkpt lat="45.3668117" lon="10.6830217"><ele>94.66666666666667</ele><time>2026-04-11T09:25:50.064Z</time></trkpt><trkpt lat="45.3668667" lon="10.6828917"><ele>94.83333333333334</ele><time>2026-04-11T09:25:52.063Z</time></trkpt><trkpt lat="45.3669117" lon="10.6828217"><ele>95.0</ele><time>2026-04-11T09:25:53.063Z</time></trkpt><trkpt lat="45.3669533" lon="10.6827417"><ele>95.83333333333334</ele><time>2026-04-11T09:25:54.067Z</time></trkpt><trkpt lat="45.366985" lon="10.68265"><ele>96.66666666666667</ele><time>2026-04-11T09:25:55.061Z</time></trkpt><trkpt lat="45.366995" lon="10.682535"><ele>97.5</ele><time>2026-04-11T09:25:56.06Z</time></trkpt><trkpt lat="45.3669817" lon="10.682405"><ele>98.33333333333334</ele><time>2026-04-11T09:25:57.072Z</time></trkpt><trkpt lat="45.3669817" lon="10.6822783"><ele>99.16666666666667</ele><time>2026-04-11T09:25:58.062Z</time></trkpt><trkpt lat="45.3669933" lon="10.682175"><ele>100.0</ele><time>2026-04-11T09:25:59.058Z</time></trkpt><trkpt lat="45.3670317" lon="10.682085"><ele>100.00000000000001</ele><time>2026-04-11T09:26:00.065Z</time></trkpt><trkpt lat="45.3670667" lon="10.6820017"><ele>100.0</ele><time>2026-04-11T09:26:01.059Z</time></trkpt><trkpt lat="45.3671167" lon="10.6819367"><ele>100.0</ele><time>2026-04-11T09:26:02.059Z</time></trkpt><trkpt lat="45.3671767" lon="10.6818883"><ele>100.0</ele><time>2026-04-11T09:26:03.062Z</time></trkpt><trkpt lat="45.3672333" lon="10.6818467"><ele>100.0</ele><time>2026-04-11T09:26:04.061Z</time></trkpt><trkpt lat="45.367305" lon="10.6818"><ele>100.00000000000001</ele><time>2026-04-11T09:26:05.059Z</time></trkpt><trkpt lat="45.367385" lon="10.6817383"><ele>100.0</ele><time>2026-04-11T09:26:06.065Z</time></trkpt><trkpt lat="45.3674717" lon="10.681645"><ele>102.75</ele><time>2026-04-11T09:26:07.063Z</time></trkpt><trkpt lat="45.367575" lon="10.681535"><ele>105.5</ele><time>2026-04-11T09:26:08.072Z</time></trkpt><trkpt lat="45.3676533" lon="10.681415"><ele>108.25</ele><time>2026-04-11T09:26:09.063Z</time></trkpt><trkpt lat="45.3677367" lon="10.681305"><ele>111.0</ele><time>2026-04-11T09:26:10.067Z</time></trkpt><trkpt lat="45.36782" lon="10.681205"><ele>110.5</ele><time>2026-04-11T09:26:11.059Z</time></trkpt><trkpt lat="45.367895" lon="10.68104"><ele>110.0</ele><time>2026-04-11T09:26:12.071Z</time></trkpt><trkpt lat="45.3679667" lon="10.6809183"><ele>109.5</ele><time>2026-04-11T09:26:13.061Z</time></trkpt><trkpt lat="45.368015" lon="10.6807833"><ele>109.0</ele><time>2026-04-11T09:26:14.064Z</time></trkpt><trkpt lat="45.3680817" lon="10.680665"><ele>109.00000000000001</ele><time>2026-04-11T09:26:15.058Z</time></trkpt><trkpt lat="45.3681367" lon="10.680575"><ele>109.0</ele><time>2026-04-11T09:26:16.064Z</time></trkpt><trkpt lat="45.36817" lon="10.6804517"><ele>109.0</ele><time>2026-04-11T09:26:17.063Z</time></trkpt><trkpt lat="45.36819" lon="10.6803383"><ele>109.0</ele><time>2026-04-11T09:26:18.061Z</time></trkpt><trkpt lat="45.3682067" lon="10.6802117"><ele>109.00000000000001</ele><time>2026-04-11T09:26:19.063Z</time></trkpt><trkpt lat="45.368235" lon="10.6800917"><ele>109.0</ele><time>2026-04-11T09:26:20.073Z</time></trkpt><trkpt lat="45.36829" lon="10.679945"><ele>109.2</ele><time>2026-04-11T09:26:21.059Z</time></trkpt><trkpt lat="45.368325" lon="10.6798067"><ele>109.4</ele><time>2026-04-11T09:26:22.06Z</time></trkpt><trkpt lat="45.3683783" lon="10.6797167"><ele>109.6</ele><time>2026-04-11T09:26:23.069Z</time></trkpt><trkpt lat="45.36846" lon="10.6795917"><ele>109.8</ele><time>2026-04-11T09:26:24.07Z</time></trkpt><trkpt lat="45.3684733" lon="10.67945"><ele>110.0</ele><time>2026-04-11T09:26:25.065Z</time></trkpt><trkpt lat="45.3685067" lon="10.6793283"><ele>110.0</ele><time>2026-04-11T09:26:26.072Z</time></trkpt><trkpt lat="45.368515" lon="10.6792033"><ele>110.0</ele><time>2026-04-11T09:26:27.057Z</time></trkpt><trkpt lat="45.3685167" lon="10.6791083"><ele>110.0</ele><time>2026-04-11T09:26:28.059Z</time></trkpt><trkpt lat="45.3685067" lon="10.678975"><ele>110.0</ele><time>2026-04-11T09:26:29.065Z</time></trkpt><trkpt lat="45.3684933" lon="10.6788183"><ele>110.0</ele><time>2026-04-11T09:26:30.063Z</time></trkpt><trkpt lat="45.36849" lon="10.6786733"><ele>110.2</ele><time>2026-04-11T09:26:31.061Z</time></trkpt><trkpt lat="45.3684883" lon="10.6785283"><ele>110.4</ele><time>2026-04-11T09:26:32.066Z</time></trkpt><trkpt lat="45.368465" lon="10.6783817"><ele>110.6</ele><time>2026-04-11T09:26:33.066Z</time></trkpt><trkpt lat="45.3684617" lon="10.6782383"><ele>110.8</ele><time>2026-04-11T09:26:34.064Z</time></trkpt><trkpt lat="45.3684867" lon="10.6781033"><ele>111.0</ele><time>2026-04-11T09:26:35.073Z</time></trkpt><trkpt lat="45.3685083" lon="10.6779683"><ele>111.0</ele><time>2026-04-11T09:26:36.093Z</time></trkpt><trkpt lat="45.3685417" lon="10.677825"><ele>111.0</ele><time>2026-04-11T09:26:37.061Z</time></trkpt><trkpt lat="45.3686117" lon="10.6776683"><ele>111.0</ele><time>2026-04-11T09:26:38.074Z</time></trkpt><trkpt lat="45.3686967" lon="10.677405"><ele>111.0</ele><time>2026-04-11T09:26:40.064Z</time></trkpt><trkpt lat="45.3687133" lon="10.677265"><ele>111.6</ele><time>2026-04-11T09:26:41.066Z</time></trkpt><trkpt lat="45.3687317" lon="10.6771317"><ele>112.19999999999999</ele><time>2026-04-11T09:26:42.076Z</time></trkpt><trkpt lat="45.36874" lon="10.6769983"><ele>112.80000000000001</ele><time>2026-04-11T09:26:43.072Z</time></trkpt><trkpt lat="45.3687617" lon="10.67685"><ele>113.4</ele><time>2026-04-11T09:26:44.073Z</time></trkpt><trkpt lat="45.3687833" lon="10.676715"><ele>114.0</ele><time>2026-04-11T09:26:45.065Z</time></trkpt><trkpt lat="45.36881" lon="10.6766033"><ele>115.0</ele><time>2026-04-11T09:26:46.068Z</time></trkpt><trkpt lat="45.3688467" lon="10.6764917"><ele>116.0</ele><time>2026-04-11T09:26:47.071Z</time></trkpt><trkpt lat="45.3688867" lon="10.676375"><ele>117.0</ele><time>2026-04-11T09:26:48.066Z</time></trkpt><trkpt lat="45.3689317" lon="10.67625"><ele>118.0</ele><time>2026-04-11T09:26:49.061Z</time></trkpt><trkpt lat="45.3689783" lon="10.6761383"><ele>119.0</ele><time>2026-04-11T09:26:50.065Z</time></trkpt><trkpt lat="45.369025" lon="10.676035"><ele>119.83333333333333</ele><time>2026-04-11T09:26:51.077Z</time></trkpt><trkpt lat="45.3690667" lon="10.675945"><ele>120.66666666666666</ele><time>2026-04-11T09:26:52.094Z</time></trkpt><trkpt lat="45.3691083" lon="10.6758683"><ele>121.5</ele><time>2026-04-11T09:26:53.072Z</time></trkpt><trkpt lat="45.369195" lon="10.6758067"><ele>122.33333333333334</ele><time>2026-04-11T09:26:55.066Z</time></trkpt><trkpt lat="45.3692833" lon="10.675845"><ele>123.16666666666667</ele><time>2026-04-11T09:26:57.08Z</time></trkpt><trkpt lat="45.3693333" lon="10.6759133"><ele>124.0</ele><time>2026-04-11T09:26:58.092Z</time></trkpt><trkpt lat="45.3694083" lon="10.67599"><ele>124.00000000000001</ele><time>2026-04-11T09:26:59.091Z</time></trkpt><trkpt lat="45.369485" lon="10.6760633"><ele>124.0</ele><time>2026-04-11T09:27:00.079Z</time></trkpt><trkpt lat="45.3695617" lon="10.6761283"><ele>124.0</ele><time>2026-04-11T09:27:01.119Z</time></trkpt><trkpt lat="45.36963" lon="10.6761833"><ele>124.0</ele><time>2026-04-11T09:27:02.085Z</time></trkpt><trkpt lat="45.3696883" lon="10.6762267"><ele>124.00000000000001</ele><time>2026-04-11T09:27:03.086Z</time></trkpt><trkpt lat="45.3697817" lon="10.67626"><ele>124.0</ele><time>2026-04-11T09:27:05.1Z</time></trkpt><trkpt lat="45.36984" lon="10.6761833"><ele>124.0</ele><time>2026-04-11T09:27:08.074Z</time></trkpt><trkpt lat="45.369785" lon="10.6760267"><ele>124.0</ele><time>2026-04-11T09:27:10.067Z</time></trkpt><trkpt lat="45.36975" lon="10.67592"><ele>124.0</ele><time>2026-04-11T09:27:11.068Z</time></trkpt><trkpt lat="45.369715" lon="10.6757967"><ele>124.0</ele><time>2026-04-11T09:27:12.075Z</time></trkpt><trkpt lat="45.3696667" lon="10.67564"><ele>124.0</ele><time>2026-04-11T09:27:13.077Z</time></trkpt><trkpt lat="45.3696367" lon="10.6754617"><ele>124.5</ele><time>2026-04-11T09:27:14.078Z</time></trkpt><trkpt lat="45.369605" lon="10.675255"><ele>125.0</ele><time>2026-04-11T09:27:15.073Z</time></trkpt><trkpt lat="45.369595" lon="10.675045"><ele>125.5</ele><time>2026-04-11T09:27:16.068Z</time></trkpt><trkpt lat="45.3695883" lon="10.6748533"><ele>126.0</ele><time>2026-04-11T09:27:17.099Z</time></trkpt><trkpt lat="45.3695883" lon="10.674635"><ele>126.0</ele><time>2026-04-11T09:27:18.076Z</time></trkpt><trkpt lat="45.3696117" lon="10.67445"><ele>126.0</ele><time>2026-04-11T09:27:19.074Z</time></trkpt><trkpt lat="45.36962" lon="10.6742567"><ele>126.0</ele><time>2026-04-11T09:27:20.068Z</time></trkpt><trkpt lat="45.369605" lon="10.6740617"><ele>126.0</ele><time>2026-04-11T09:27:21.078Z</time></trkpt><trkpt lat="45.36956" lon="10.673845"><ele>127.25</ele><time>2026-04-11T09:27:22.075Z</time></trkpt><trkpt lat="45.3695067" lon="10.6736633"><ele>128.5</ele><time>2026-04-11T09:27:23.071Z</time></trkpt><trkpt lat="45.3694767" lon="10.6734967"><ele>129.75</ele><time>2026-04-11T09:27:24.083Z</time></trkpt><trkpt lat="45.36945" lon="10.67332"><ele>131.0</ele><time>2026-04-11T09:27:25.077Z</time></trkpt><trkpt lat="45.3694333" lon="10.67316"><ele>131.2</ele><time>2026-04-11T09:27:26.09Z</time></trkpt><trkpt lat="45.3694283" lon="10.6729817"><ele>131.39999999999998</ele><time>2026-04-11T09:27:27.083Z</time></trkpt><trkpt lat="45.3694133" lon="10.672845"><ele>131.6</ele><time>2026-04-11T09:27:28.071Z</time></trkpt><trkpt lat="45.3693917" lon="10.6727083"><ele>131.79999999999998</ele><time>2026-04-11T09:27:29.067Z</time></trkpt><trkpt lat="45.3693767" lon="10.6725967"><ele>132.0</ele><time>2026-04-11T09:27:30.087Z</time></trkpt><trkpt lat="45.3693583" lon="10.6724983"><ele>132.6</ele><time>2026-04-11T09:27:31.067Z</time></trkpt><trkpt lat="45.3693367" lon="10.6723833"><ele>133.2</ele><time>2026-04-11T09:27:33.081Z</time></trkpt><trkpt lat="45.3692317" lon="10.6723767"><ele>133.8</ele><time>2026-04-11T09:27:35.088Z</time></trkpt><trkpt lat="45.3691067" lon="10.672335"><ele>134.4</ele><time>2026-04-11T09:27:37.086Z</time></trkpt><trkpt lat="45.3690383" lon="10.6723117"><ele>135.0</ele><time>2026-04-11T09:27:38.064Z</time></trkpt><trkpt lat="45.36896" lon="10.6723033"><ele>135.0</ele><time>2026-04-11T09:27:39.069Z</time></trkpt><trkpt lat="45.36888" lon="10.67231"><ele>135.0</ele><time>2026-04-11T09:27:40.074Z</time></trkpt><trkpt lat="45.3688183" lon="10.6722817"><ele>135.0</ele><time>2026-04-11T09:27:41.071Z</time></trkpt><trkpt lat="45.3687133" lon="10.6721833"><ele>135.0</ele><time>2026-04-11T09:27:43.08Z</time></trkpt><trkpt lat="45.3686183" lon="10.6721017"><ele>135.0</ele><time>2026-04-11T09:27:45.092Z</time></trkpt><trkpt lat="45.3684917" lon="10.6720883"><ele>137.4</ele><time>2026-04-11T09:27:47.07Z</time></trkpt><trkpt lat="45.3683967" lon="10.6721083"><ele>139.8</ele><time>2026-04-11T09:27:48.068Z</time></trkpt><trkpt lat="45.3682917" lon="10.6721367"><ele>142.2</ele><time>2026-04-11T09:27:49.072Z</time></trkpt><trkpt lat="45.3681967" lon="10.6721583"><ele>144.6</ele><time>2026-04-11T09:27:50.071Z</time></trkpt><trkpt lat="45.3680867" lon="10.672185"><ele>147.0</ele><time>2026-04-11T09:27:51.077Z</time></trkpt><trkpt lat="45.3679817" lon="10.672185"><ele>148.6</ele><time>2026-04-11T09:27:52.082Z</time></trkpt><trkpt lat="45.36788" lon="10.6721583"><ele>150.2</ele><time>2026-04-11T09:27:53.081Z</time></trkpt><trkpt lat="45.36778" lon="10.6721033"><ele>151.8</ele><time>2026-04-11T09:27:54.07Z</time></trkpt><trkpt lat="45.367695" lon="10.6720083"><ele>153.4</ele><time>2026-04-11T09:27:55.082Z</time></trkpt><trkpt lat="45.3676" lon="10.67189"><ele>155.0</ele><time>2026-04-11T09:27:56.075Z</time></trkpt><trkpt lat="45.3674983" lon="10.6717733"><ele>155.0</ele><time>2026-04-11T09:27:57.075Z</time></trkpt><trkpt lat="45.3674117" lon="10.671675"><ele>155.0</ele><time>2026-04-11T09:27:58.081Z</time></trkpt><trkpt lat="45.3673267" lon="10.67158"><ele>155.0</ele><time>2026-04-11T09:27:59.076Z</time></trkpt><trkpt lat="45.3672483" lon="10.6715083"><ele>155.0</ele><time>2026-04-11T09:28:00.081Z</time></trkpt><trkpt lat="45.3671867" lon="10.6714667"><ele>155.0</ele><time>2026-04-11T09:28:01.064Z</time></trkpt><trkpt lat="45.3671383" lon="10.6714033"><ele>155.0</ele><time>2026-04-11T09:28:02.069Z</time></trkpt><trkpt lat="45.3670717" lon="10.6713967"><ele>154.4</ele><time>2026-04-11T09:28:03.066Z</time></trkpt><trkpt lat="45.36698" lon="10.671385"><ele>153.8</ele><time>2026-04-11T09:28:05.067Z</time></trkpt><trkpt lat="45.366865" lon="10.6715"><ele>153.2</ele><time>2026-04-11T09:28:07.062Z</time></trkpt><trkpt lat="45.3668" lon="10.6715783"><ele>152.6</ele><time>2026-04-11T09:28:08.073Z</time></trkpt><trkpt lat="45.3667233" lon="10.6716533"><ele>152.0</ele><time>2026-04-11T09:28:09.059Z</time></trkpt><trkpt lat="45.3666483" lon="10.6717233"><ele>152.0</ele><time>2026-04-11T09:28:10.069Z</time></trkpt><trkpt lat="45.3665683" lon="10.671775"><ele>152.0</ele><time>2026-04-11T09:28:11.06Z</time></trkpt><trkpt lat="45.366485" lon="10.671825"><ele>152.0</ele><time>2026-04-11T09:28:12.075Z</time></trkpt><trkpt lat="45.3664" lon="10.6718583"><ele>152.0</ele><time>2026-04-11T09:28:13.058Z</time></trkpt><trkpt lat="45.3663" lon="10.6718667"><ele>152.0</ele><time>2026-04-11T09:28:14.071Z</time></trkpt><trkpt lat="45.3661733" lon="10.67187"><ele>151.75</ele><time>2026-04-11T09:28:15.085Z</time></trkpt><trkpt lat="45.3660617" lon="10.6718483"><ele>151.5</ele><time>2026-04-11T09:28:16.074Z</time></trkpt><trkpt lat="45.3659267" lon="10.6718217"><ele>151.25</ele><time>2026-04-11T09:28:17.064Z</time></trkpt><trkpt lat="45.3657767" lon="10.6717283"><ele>151.0</ele><time>2026-04-11T09:28:18.079Z</time></trkpt><trkpt lat="45.3656433" lon="10.6717"><ele>151.0</ele><time>2026-04-11T09:28:19.066Z</time></trkpt><trkpt lat="45.36553" lon="10.6716717"><ele>151.0</ele><time>2026-04-11T09:28:20.073Z</time></trkpt><trkpt lat="45.3653967" lon="10.6716433"><ele>151.0</ele><time>2026-04-11T09:28:21.066Z</time></trkpt><trkpt lat="45.3652433" lon="10.671645"><ele>151.0</ele><time>2026-04-11T09:28:22.072Z</time></trkpt><trkpt lat="45.3651167" lon="10.6716117"><ele>150.25</ele><time>2026-04-11T09:28:23.063Z</time></trkpt><trkpt lat="45.36501" lon="10.6716"><ele>149.5</ele><time>2026-04-11T09:28:24.064Z</time></trkpt><trkpt lat="45.36489" lon="10.6716167"><ele>148.75</ele><time>2026-04-11T09:28:25.084Z</time></trkpt><trkpt lat="45.3647517" lon="10.6716467"><ele>148.0</ele><time>2026-04-11T09:28:26.054Z</time></trkpt><trkpt lat="45.3646217" lon="10.671675"><ele>147.0</ele><time>2026-04-11T09:28:27.072Z</time></trkpt><trkpt lat="45.3645183" lon="10.6717067"><ele>146.0</ele><time>2026-04-11T09:28:28.063Z</time></trkpt><trkpt lat="45.364405" lon="10.6717383"><ele>145.0</ele><time>2026-04-11T09:28:29.061Z</time></trkpt><trkpt lat="45.3642983" lon="10.67177"><ele>144.0</ele><time>2026-04-11T09:28:30.065Z</time></trkpt><trkpt lat="45.3642117" lon="10.6718033"><ele>143.0</ele><time>2026-04-11T09:28:31.078Z</time></trkpt><trkpt lat="45.3641017" lon="10.67178"><ele>143.0</ele><time>2026-04-11T09:28:32.068Z</time></trkpt><trkpt lat="45.3639917" lon="10.6717633"><ele>143.0</ele><time>2026-04-11T09:28:33.075Z</time></trkpt><trkpt lat="45.3638767" lon="10.671705"><ele>143.0</ele><time>2026-04-11T09:28:34.066Z</time></trkpt><trkpt lat="45.3637833" lon="10.6716533"><ele>143.0</ele><time>2026-04-11T09:28:35.074Z</time></trkpt><trkpt lat="45.3637467" lon="10.671535"><ele>143.0</ele><time>2026-04-11T09:28:36.071Z</time></trkpt><trkpt lat="45.3636467" lon="10.6715233"><ele>141.5</ele><time>2026-04-11T09:28:37.079Z</time></trkpt><trkpt lat="45.3635417" lon="10.6715233"><ele>140.0</ele><time>2026-04-11T09:28:38.071Z</time></trkpt><trkpt lat="45.3634667" lon="10.67145"><ele>138.5</ele><time>2026-04-11T09:28:39.06Z</time></trkpt><trkpt lat="45.363315" lon="10.6713383"><ele>137.0</ele><time>2026-04-11T09:28:41.067Z</time></trkpt><trkpt lat="45.3632233" lon="10.6713283"><ele>137.0</ele><time>2026-04-11T09:28:42.064Z</time></trkpt><trkpt lat="45.3631333" lon="10.671275"><ele>137.0</ele><time>2026-04-11T09:28:43.076Z</time></trkpt><trkpt lat="45.3630533" lon="10.6711933"><ele>137.0</ele><time>2026-04-11T09:28:44.075Z</time></trkpt><trkpt lat="45.3630117" lon="10.6710883"><ele>137.0</ele><time>2026-04-11T09:28:45.066Z</time></trkpt><trkpt lat="45.3630067" lon="10.67094"><ele>137.0</ele><time>2026-04-11T09:28:46.076Z</time></trkpt><trkpt lat="45.3630417" lon="10.6707533"><ele>137.0</ele><time>2026-04-11T09:28:47.071Z</time></trkpt><trkpt lat="45.3630683" lon="10.6705767"><ele>137.0</ele><time>2026-04-11T09:28:48.071Z</time></trkpt><trkpt lat="45.363095" lon="10.670225"><ele>137.0</ele><time>2026-04-11T09:28:50.076Z</time></trkpt><trkpt lat="45.3631067" lon="10.67007"><ele>137.0</ele><time>2026-04-11T09:28:51.07Z</time></trkpt><trkpt lat="45.36311" lon="10.669935"><ele>137.0</ele><time>2026-04-11T09:28:52.072Z</time></trkpt><trkpt lat="45.3630983" lon="10.669825"><ele>137.0</ele><time>2026-04-11T09:28:53.067Z</time></trkpt><trkpt lat="45.3630817" lon="10.6697367"><ele>137.0</ele><time>2026-04-11T09:28:54.062Z</time></trkpt><trkpt lat="45.363015" lon="10.6696933"><ele>137.0</ele><time>2026-04-11T09:28:55.063Z</time></trkpt><trkpt lat="45.3629383" lon="10.6696483"><ele>137.0</ele><time>2026-04-11T09:28:56.061Z</time></trkpt><trkpt lat="45.362855" lon="10.6696283"><ele>135.83333333333331</ele><time>2026-04-11T09:28:57.066Z</time></trkpt><trkpt lat="45.3627883" lon="10.6696217"><ele>134.66666666666666</ele><time>2026-04-11T09:28:58.062Z</time></trkpt><trkpt lat="45.3626967" lon="10.6695967"><ele>133.5</ele><time>2026-04-11T09:29:00.063Z</time></trkpt><trkpt lat="45.3626467" lon="10.6695383"><ele>132.33333333333334</ele><time>2026-04-11T09:29:03.061Z</time></trkpt><trkpt lat="45.3626367" lon="10.66944"><ele>131.16666666666669</ele><time>2026-04-11T09:29:05.06Z</time></trkpt><trkpt lat="45.3626133" lon="10.66928"><ele>130.0</ele><time>2026-04-11T09:29:07.066Z</time></trkpt><trkpt lat="45.36261" lon="10.6691767"><ele>130.0</ele><time>2026-04-11T09:29:08.067Z</time></trkpt><trkpt lat="45.362615" lon="10.669065"><ele>130.0</ele><time>2026-04-11T09:29:09.059Z</time></trkpt><trkpt lat="45.3626333" lon="10.6689183"><ele>130.0</ele><time>2026-04-11T09:29:10.059Z</time></trkpt><trkpt lat="45.3626533" lon="10.668755"><ele>130.0</ele><time>2026-04-11T09:29:11.059Z</time></trkpt><trkpt lat="45.3626717" lon="10.6685633"><ele>130.0</ele><time>2026-04-11T09:29:12.067Z</time></trkpt><trkpt lat="45.3626817" lon="10.6683683"><ele>129.25</ele><time>2026-04-11T09:29:13.068Z</time></trkpt><trkpt lat="45.362685" lon="10.668185"><ele>128.5</ele><time>2026-04-11T09:29:14.067Z</time></trkpt><trkpt lat="45.3626967" lon="10.66798"><ele>127.75</ele><time>2026-04-11T09:29:15.062Z</time></trkpt><trkpt lat="45.3627083" lon="10.6677667"><ele>127.0</ele><time>2026-04-11T09:29:16.069Z</time></trkpt><trkpt lat="45.3627117" lon="10.6675517"><ele>127.0</ele><time>2026-04-11T09:29:17.064Z</time></trkpt><trkpt lat="45.36271" lon="10.66734"><ele>127.0</ele><time>2026-04-11T09:29:18.072Z</time></trkpt><trkpt lat="45.362705" lon="10.6671233"><ele>127.0</ele><time>2026-04-11T09:29:19.068Z</time></trkpt><trkpt lat="45.3627083" lon="10.6669083"><ele>127.0</ele><time>2026-04-11T09:29:20.068Z</time></trkpt><trkpt lat="45.3627167" lon="10.6667"><ele>127.0</ele><time>2026-04-11T09:29:21.072Z</time></trkpt><trkpt lat="45.3627217" lon="10.6664917"><ele>127.0</ele><time>2026-04-11T09:29:22.065Z</time></trkpt><trkpt lat="45.3627233" lon="10.66628"><ele>127.0</ele><time>2026-04-11T09:29:23.069Z</time></trkpt><trkpt lat="45.3627333" lon="10.6660733"><ele>127.0</ele><time>2026-04-11T09:29:24.075Z</time></trkpt><trkpt lat="45.3627383" lon="10.6658717"><ele>127.0</ele><time>2026-04-11T09:29:25.064Z</time></trkpt><trkpt lat="45.3627367" lon="10.6656833"><ele>127.0</ele><time>2026-04-11T09:29:26.06Z</time></trkpt><trkpt lat="45.362735" lon="10.6655067"><ele>127.0</ele><time>2026-04-11T09:29:27.069Z</time></trkpt><trkpt lat="45.36274" lon="10.6653817"><ele>127.66666666666667</ele><time>2026-04-11T09:29:28.063Z</time></trkpt><trkpt lat="45.3627483" lon="10.6652667"><ele>128.33333333333334</ele><time>2026-04-11T09:29:29.064Z</time></trkpt><trkpt lat="45.3628033" lon="10.6651667"><ele>129.0</ele><time>2026-04-11T09:29:30.08Z</time></trkpt><trkpt lat="45.3628633" lon="10.6650967"><ele>129.66666666666666</ele><time>2026-04-11T09:29:31.06Z</time></trkpt><trkpt lat="45.3629333" lon="10.66499"><ele>130.33333333333331</ele><time>2026-04-11T09:29:32.056Z</time></trkpt><trkpt lat="45.3629917" lon="10.6648983"><ele>131.0</ele><time>2026-04-11T09:29:33.059Z</time></trkpt><trkpt lat="45.3630567" lon="10.6648233"><ele>132.16666666666666</ele><time>2026-04-11T09:29:34.061Z</time></trkpt><trkpt lat="45.3630867" lon="10.664735"><ele>133.33333333333331</ele><time>2026-04-11T09:29:35.06Z</time></trkpt><trkpt lat="45.363125" lon="10.66465"><ele>134.5</ele><time>2026-04-11T09:29:36.061Z</time></trkpt><trkpt lat="45.3631583" lon="10.664555"><ele>135.66666666666666</ele><time>2026-04-11T09:29:37.059Z</time></trkpt><trkpt lat="45.3631583" lon="10.6644183"><ele>136.83333333333334</ele><time>2026-04-11T09:29:38.071Z</time></trkpt><trkpt lat="45.3631417" lon="10.6642717"><ele>138.0</ele><time>2026-04-11T09:29:39.056Z</time></trkpt><trkpt lat="45.3631117" lon="10.664135"><ele>138.4</ele><time>2026-04-11T09:29:40.071Z</time></trkpt><trkpt lat="45.3631083" lon="10.664005"><ele>138.8</ele><time>2026-04-11T09:29:41.062Z</time></trkpt><trkpt lat="45.3630767" lon="10.66389"><ele>139.2</ele><time>2026-04-11T09:29:42.066Z</time></trkpt><trkpt lat="45.36306" lon="10.663735"><ele>139.6</ele><time>2026-04-11T09:29:43.068Z</time></trkpt><trkpt lat="45.3629917" lon="10.6635733"><ele>140.0</ele><time>2026-04-11T09:29:44.073Z</time></trkpt><trkpt lat="45.362945" lon="10.66343"><ele>138.8</ele><time>2026-04-11T09:29:45.064Z</time></trkpt><trkpt lat="45.362915" lon="10.663285"><ele>137.6</ele><time>2026-04-11T09:29:46.062Z</time></trkpt><trkpt lat="45.3628867" lon="10.6631617"><ele>136.4</ele><time>2026-04-11T09:29:47.067Z</time></trkpt><trkpt lat="45.36288" lon="10.6630217"><ele>135.2</ele><time>2026-04-11T09:29:48.072Z</time></trkpt><trkpt lat="45.3629" lon="10.6628783"><ele>134.0</ele><time>2026-04-11T09:29:49.062Z</time></trkpt><trkpt lat="45.362925" lon="10.6627067"><ele>133.5</ele><time>2026-04-11T09:29:50.08Z</time></trkpt><trkpt lat="45.3629317" lon="10.6625483"><ele>133.0</ele><time>2026-04-11T09:29:51.067Z</time></trkpt><trkpt lat="45.3629167" lon="10.6623817"><ele>132.5</ele><time>2026-04-11T09:29:52.064Z</time></trkpt><trkpt lat="45.3628767" lon="10.66218"><ele>132.0</ele><time>2026-04-11T09:29:53.063Z</time></trkpt><trkpt lat="45.3628567" lon="10.661985"><ele>133.0</ele><time>2026-04-11T09:29:54.074Z</time></trkpt><trkpt lat="45.3628267" lon="10.66178"><ele>134.0</ele><time>2026-04-11T09:29:55.068Z</time></trkpt><trkpt lat="45.3627967" lon="10.66157"><ele>135.0</ele><time>2026-04-11T09:29:56.074Z</time></trkpt><trkpt lat="45.3627767" lon="10.6613567"><ele>136.0</ele><time>2026-04-11T09:29:57.066Z</time></trkpt><trkpt lat="45.3627467" lon="10.66111"><ele>136.66666666666669</ele><time>2026-04-11T09:29:58.062Z</time></trkpt><trkpt lat="45.3627283" lon="10.66089"><ele>137.33333333333334</ele><time>2026-04-11T09:29:59.063Z</time></trkpt><trkpt lat="45.3626783" lon="10.6606683"><ele>138.0</ele><time>2026-04-11T09:30:00.081Z</time></trkpt><trkpt lat="45.362645" lon="10.660465"><ele>138.0</ele><time>2026-04-11T09:30:01.08Z</time></trkpt><trkpt lat="45.3626033" lon="10.6602833"><ele>138.0</ele><time>2026-04-11T09:30:02.069Z</time></trkpt><trkpt lat="45.36256" lon="10.6601033"><ele>138.0</ele><time>2026-04-11T09:30:03.073Z</time></trkpt><trkpt lat="45.3625133" lon="10.6599333"><ele>138.0</ele><time>2026-04-11T09:30:04.06Z</time></trkpt><trkpt lat="45.3624767" lon="10.6597833"><ele>139.20000000000002</ele><time>2026-04-11T09:30:05.069Z</time></trkpt><trkpt lat="45.3624133" lon="10.6596667"><ele>140.4</ele><time>2026-04-11T09:30:06.065Z</time></trkpt><trkpt lat="45.3623733" lon="10.6595567"><ele>141.60000000000002</ele><time>2026-04-11T09:30:07.072Z</time></trkpt><trkpt lat="45.3623567" lon="10.6594483"><ele>142.8</ele><time>2026-04-11T09:30:08.065Z</time></trkpt><trkpt lat="45.3623483" lon="10.65932"><ele>144.0</ele><time>2026-04-11T09:30:10.067Z</time></trkpt><trkpt lat="45.3622833" lon="10.659195"><ele>144.2</ele><time>2026-04-11T09:30:12.067Z</time></trkpt><trkpt lat="45.3622333" lon="10.6591317"><ele>144.4</ele><time>2026-04-11T09:30:13.064Z</time></trkpt><trkpt lat="45.362155" lon="10.6590817"><ele>144.6</ele><time>2026-04-11T09:30:14.073Z</time></trkpt><trkpt lat="45.36207" lon="10.6590267"><ele>144.8</ele><time>2026-04-11T09:30:15.062Z</time></trkpt><trkpt lat="45.36196" lon="10.6589683"><ele>145.0</ele><time>2026-04-11T09:30:16.064Z</time></trkpt><trkpt lat="45.361865" lon="10.658905"><ele>144.4</ele><time>2026-04-11T09:30:17.063Z</time></trkpt><trkpt lat="45.3617733" lon="10.6588467"><ele>143.8</ele><time>2026-04-11T09:30:18.075Z</time></trkpt><trkpt lat="45.3616917" lon="10.658795"><ele>143.2</ele><time>2026-04-11T09:30:19.067Z</time></trkpt><trkpt lat="45.3616283" lon="10.65875"><ele>142.6</ele><time>2026-04-11T09:30:20.07Z</time></trkpt><trkpt lat="45.361555" lon="10.6587333"><ele>142.0</ele><time>2026-04-11T09:30:22.068Z</time></trkpt><trkpt lat="45.3615183" lon="10.6589033"><ele>142.0</ele><time>2026-04-11T09:30:24.055Z</time></trkpt><trkpt lat="45.3615183" lon="10.6590333"><ele>142.0</ele><time>2026-04-11T09:30:25.06Z</time></trkpt><trkpt lat="45.361505" lon="10.65917"><ele>142.0</ele><time>2026-04-11T09:30:26.068Z</time></trkpt><trkpt lat="45.361485" lon="10.6592933"><ele>142.0</ele><time>2026-04-11T09:30:27.057Z</time></trkpt><trkpt lat="45.3614633" lon="10.659405"><ele>142.0</ele><time>2026-04-11T09:30:28.061Z</time></trkpt><trkpt lat="45.3614317" lon="10.6594933"><ele>142.0</ele><time>2026-04-11T09:30:29.062Z</time></trkpt><trkpt lat="45.3613883" lon="10.6595783"><ele>139.6</ele><time>2026-04-11T09:30:30.06Z</time></trkpt><trkpt lat="45.3613233" lon="10.6596433"><ele>137.2</ele><time>2026-04-11T09:30:31.061Z</time></trkpt><trkpt lat="45.361245" lon="10.6596933"><ele>134.8</ele><time>2026-04-11T09:30:32.059Z</time></trkpt><trkpt lat="45.3611583" lon="10.659735"><ele>132.4</ele><time>2026-04-11T09:30:33.064Z</time></trkpt><trkpt lat="45.36105" lon="10.6597567"><ele>130.0</ele><time>2026-04-11T09:30:34.062Z</time></trkpt><trkpt lat="45.360925" lon="10.6598067"><ele>130.0</ele><time>2026-04-11T09:30:35.063Z</time></trkpt><trkpt lat="45.360795" lon="10.65986"><ele>130.0</ele><time>2026-04-11T09:30:36.061Z</time></trkpt><trkpt lat="45.360685" lon="10.6598667"><ele>130.0</ele><time>2026-04-11T09:30:37.059Z</time></trkpt><trkpt lat="45.36059" lon="10.65992"><ele>130.0</ele><time>2026-04-11T09:30:38.063Z</time></trkpt><trkpt lat="45.3605217" lon="10.6599417"><ele>130.0</ele><time>2026-04-11T09:30:39.064Z</time></trkpt><trkpt lat="45.3604533" lon="10.659985"><ele>128.75</ele><time>2026-04-11T09:30:40.067Z</time></trkpt><trkpt lat="45.3603383" lon="10.6600167"><ele>127.5</ele><time>2026-04-11T09:30:41.06Z</time></trkpt><trkpt lat="45.3602183" lon="10.66005"><ele>126.25</ele><time>2026-04-11T09:30:42.062Z</time></trkpt><trkpt lat="45.3600833" lon="10.6601133"><ele>125.0</ele><time>2026-04-11T09:30:43.059Z</time></trkpt><trkpt lat="45.3599733" lon="10.6601633"><ele>125.0</ele><time>2026-04-11T09:30:44.077Z</time></trkpt><trkpt lat="45.359865" lon="10.660215"><ele>125.0</ele><time>2026-04-11T09:30:45.069Z</time></trkpt><trkpt lat="45.3597633" lon="10.66028"><ele>125.0</ele><time>2026-04-11T09:30:46.066Z</time></trkpt><trkpt lat="45.359645" lon="10.6603183"><ele>125.0</ele><time>2026-04-11T09:30:47.055Z</time></trkpt><trkpt lat="45.3595167" lon="10.66036"><ele>124.0</ele><time>2026-04-11T09:30:48.077Z</time></trkpt><trkpt lat="45.3594" lon="10.6604317"><ele>123.0</ele><time>2026-04-11T09:30:49.067Z</time></trkpt><trkpt lat="45.3593083" lon="10.6604717"><ele>122.0</ele><time>2026-04-11T09:30:50.065Z</time></trkpt><trkpt lat="45.3592367" lon="10.6605017"><ele>121.0</ele><time>2026-04-11T09:30:51.064Z</time></trkpt><trkpt lat="45.3591417" lon="10.6606667"><ele>120.0</ele><time>2026-04-11T09:30:53.064Z</time></trkpt><trkpt lat="45.3590967" lon="10.6608017"><ele>120.0</ele><time>2026-04-11T09:30:54.066Z</time></trkpt><trkpt lat="45.3590567" lon="10.6609183"><ele>120.0</ele><time>2026-04-11T09:30:55.066Z</time></trkpt><trkpt lat="45.3590117" lon="10.6610667"><ele>120.0</ele><time>2026-04-11T09:30:56.066Z</time></trkpt><trkpt lat="45.3589667" lon="10.66121"><ele>120.0</ele><time>2026-04-11T09:30:57.059Z</time></trkpt><trkpt lat="45.35892" lon="10.6613467"><ele>120.0</ele><time>2026-04-11T09:30:58.071Z</time></trkpt><trkpt lat="45.3588683" lon="10.6614767"><ele>119.2</ele><time>2026-04-11T09:30:59.055Z</time></trkpt><trkpt lat="45.358825" lon="10.661595"><ele>118.4</ele><time>2026-04-11T09:31:00.066Z</time></trkpt><trkpt lat="45.3587567" lon="10.6617"><ele>117.6</ele><time>2026-04-11T09:31:01.063Z</time></trkpt><trkpt lat="45.3586733" lon="10.6617967"><ele>116.8</ele><time>2026-04-11T09:31:02.059Z</time></trkpt><trkpt lat="45.3585867" lon="10.661875"><ele>116.0</ele><time>2026-04-11T09:31:03.06Z</time></trkpt><trkpt lat="45.35851" lon="10.6619567"><ele>116.0</ele><time>2026-04-11T09:31:04.061Z</time></trkpt><trkpt lat="45.3584417" lon="10.6620433"><ele>116.0</ele><time>2026-04-11T09:31:05.064Z</time></trkpt><trkpt lat="45.3583733" lon="10.6621183"><ele>116.0</ele><time>2026-04-11T09:31:06.062Z</time></trkpt><trkpt lat="45.3583017" lon="10.6621717"><ele>116.0</ele><time>2026-04-11T09:31:07.068Z</time></trkpt><trkpt lat="45.3582083" lon="10.662215"><ele>116.0</ele><time>2026-04-11T09:31:08.065Z</time></trkpt><trkpt lat="45.3581" lon="10.66225"><ele>115.25</ele><time>2026-04-11T09:31:09.065Z</time></trkpt><trkpt lat="45.3579717" lon="10.6622733"><ele>114.5</ele><time>2026-04-11T09:31:10.064Z</time></trkpt><trkpt lat="45.3578583" lon="10.6622317"><ele>113.75</ele><time>2026-04-11T09:31:11.067Z</time></trkpt><trkpt lat="45.3576967" lon="10.662275"><ele>113.0</ele><time>2026-04-11T09:31:12.06Z</time></trkpt><trkpt lat="45.3575667" lon="10.6622817"><ele>113.0</ele><time>2026-04-11T09:31:13.069Z</time></trkpt><trkpt lat="45.3574117" lon="10.6622883"><ele>113.0</ele><time>2026-04-11T09:31:14.071Z</time></trkpt><trkpt lat="45.3572583" lon="10.6622867"><ele>113.0</ele><time>2026-04-11T09:31:15.065Z</time></trkpt><trkpt lat="45.357115" lon="10.66225"><ele>112.25</ele><time>2026-04-11T09:31:16.061Z</time></trkpt><trkpt lat="45.35698" lon="10.662255"><ele>111.5</ele><time>2026-04-11T09:31:17.066Z</time></trkpt><trkpt lat="45.3568483" lon="10.6622567"><ele>110.75</ele><time>2026-04-11T09:31:18.08Z</time></trkpt><trkpt lat="45.35673" lon="10.6622483"><ele>110.0</ele><time>2026-04-11T09:31:19.072Z</time></trkpt><trkpt lat="45.356615" lon="10.662215"><ele>110.0</ele><time>2026-04-11T09:31:20.074Z</time></trkpt><trkpt lat="45.3565" lon="10.6622133"><ele>110.0</ele><time>2026-04-11T09:31:21.065Z</time></trkpt><trkpt lat="45.3564117" lon="10.6621833"><ele>110.0</ele><time>2026-04-11T09:31:22.077Z</time></trkpt><trkpt lat="45.3563383" lon="10.6621717"><ele>110.0</ele><time>2026-04-11T09:31:23.07Z</time></trkpt><trkpt lat="45.356245" lon="10.6621133"><ele>110.0</ele><time>2026-04-11T09:31:25.064Z</time></trkpt><trkpt lat="45.3561767" lon="10.6620783"><ele>109.8</ele><time>2026-04-11T09:31:27.065Z</time></trkpt><trkpt lat="45.3561617" lon="10.6619733"><ele>109.6</ele><time>2026-04-11T09:31:29.062Z</time></trkpt><trkpt lat="45.3561783" lon="10.6618783"><ele>109.4</ele><time>2026-04-11T09:31:30.065Z</time></trkpt><trkpt lat="45.3562" lon="10.661755"><ele>109.2</ele><time>2026-04-11T09:31:31.062Z</time></trkpt><trkpt lat="45.3562267" lon="10.6616133"><ele>109.0</ele><time>2026-04-11T09:31:32.067Z</time></trkpt><trkpt lat="45.356255" lon="10.6614467"><ele>109.0</ele><time>2026-04-11T09:31:33.066Z</time></trkpt><trkpt lat="45.356295" lon="10.6612433"><ele>109.0</ele><time>2026-04-11T09:31:34.057Z</time></trkpt><trkpt lat="45.3563233" lon="10.66105"><ele>109.0</ele><time>2026-04-11T09:31:35.06Z</time></trkpt><trkpt lat="45.3563617" lon="10.66082"><ele>110.0</ele><time>2026-04-11T09:31:36.061Z</time></trkpt><trkpt lat="45.3563967" lon="10.66057"><ele>111.0</ele><time>2026-04-11T09:31:37.062Z</time></trkpt><trkpt lat="45.3564383" lon="10.6603233"><ele>112.0</ele><time>2026-04-11T09:31:38.067Z</time></trkpt><trkpt lat="45.3564667" lon="10.6600333"><ele>112.33333333333334</ele><time>2026-04-11T09:31:39.062Z</time></trkpt><trkpt lat="45.3565033" lon="10.6597133"><ele>112.66666666666666</ele><time>2026-04-11T09:31:40.063Z</time></trkpt><trkpt lat="45.35656" lon="10.659435"><ele>113.0</ele><time>2026-04-11T09:31:41.061Z</time></trkpt><trkpt lat="45.3566067" lon="10.659165"><ele>113.0</ele><time>2026-04-11T09:31:42.066Z</time></trkpt><trkpt lat="45.35663" lon="10.6589017"><ele>113.0</ele><time>2026-04-11T09:31:43.059Z</time></trkpt><trkpt lat="45.3566683" lon="10.6586233"><ele>113.0</ele><time>2026-04-11T09:31:44.06Z</time></trkpt><trkpt lat="45.3566967" lon="10.6583467"><ele>112.33333333333333</ele><time>2026-04-11T09:31:45.057Z</time></trkpt><trkpt lat="45.3567417" lon="10.65807"><ele>111.66666666666666</ele><time>2026-04-11T09:31:46.064Z</time></trkpt><trkpt lat="45.3567933" lon="10.6578183"><ele>111.0</ele><time>2026-04-11T09:31:47.061Z</time></trkpt><trkpt lat="45.3568283" lon="10.6576083"><ele>111.0</ele><time>2026-04-11T09:31:48.067Z</time></trkpt><trkpt lat="45.356845" lon="10.657335"><ele>111.0</ele><time>2026-04-11T09:31:49.059Z</time></trkpt><trkpt lat="45.3568667" lon="10.657085"><ele>111.0</ele><time>2026-04-11T09:31:50.067Z</time></trkpt><trkpt lat="45.35691" lon="10.65684"><ele>111.0</ele><time>2026-04-11T09:31:51.06Z</time></trkpt><trkpt lat="45.35692" lon="10.6565783"><ele>111.0</ele><time>2026-04-11T09:31:52.078Z</time></trkpt><trkpt lat="45.356955" lon="10.6563233"><ele>111.0</ele><time>2026-04-11T09:31:53.064Z</time></trkpt><trkpt lat="45.3569967" lon="10.6560583"><ele>111.66666666666666</ele><time>2026-04-11T09:31:54.071Z</time></trkpt><trkpt lat="45.35702" lon="10.65582"><ele>112.33333333333333</ele><time>2026-04-11T09:31:55.064Z</time></trkpt><trkpt lat="45.3570217" lon="10.65557"><ele>113.0</ele><time>2026-04-11T09:31:56.069Z</time></trkpt><trkpt lat="45.3570367" lon="10.65533"><ele>112.0</ele><time>2026-04-11T09:31:57.072Z</time></trkpt><trkpt lat="45.3570367" lon="10.655105"><ele>111.0</ele><time>2026-04-11T09:31:58.069Z</time></trkpt><trkpt lat="45.3570283" lon="10.65488"><ele>110.0</ele><time>2026-04-11T09:31:59.078Z</time></trkpt><trkpt lat="45.3570167" lon="10.654685"><ele>110.0</ele><time>2026-04-11T09:32:00.067Z</time></trkpt><trkpt lat="45.3570117" lon="10.6545017"><ele>110.0</ele><time>2026-04-11T09:32:01.067Z</time></trkpt><trkpt lat="45.3569917" lon="10.65434"><ele>110.0</ele><time>2026-04-11T09:32:02.063Z</time></trkpt><trkpt lat="45.3569833" lon="10.6541933"><ele>110.0</ele><time>2026-04-11T09:32:03.064Z</time></trkpt><trkpt lat="45.3569067" lon="10.654105"><ele>110.0</ele><time>2026-04-11T09:32:05.062Z</time></trkpt><trkpt lat="45.3568317" lon="10.6540883"><ele>109.0</ele><time>2026-04-11T09:32:06.072Z</time></trkpt><trkpt lat="45.35674" lon="10.6540967"><ele>108.0</ele><time>2026-04-11T09:32:07.062Z</time></trkpt><trkpt lat="45.35665" lon="10.6541233"><ele>107.0</ele><time>2026-04-11T09:32:08.063Z</time></trkpt><trkpt lat="45.35657" lon="10.6541533"><ele>106.0</ele><time>2026-04-11T09:32:09.061Z</time></trkpt><trkpt lat="45.35646" lon="10.6542167"><ele>105.0</ele><time>2026-04-11T09:32:10.06Z</time></trkpt><trkpt lat="45.3563683" lon="10.6542783"><ele>104.6</ele><time>2026-04-11T09:32:11.061Z</time></trkpt><trkpt lat="45.3562733" lon="10.6543383"><ele>104.2</ele><time>2026-04-11T09:32:12.058Z</time></trkpt><trkpt lat="45.3562017" lon="10.6544133"><ele>103.80000000000001</ele><time>2026-04-11T09:32:13.055Z</time></trkpt><trkpt lat="45.35614" lon="10.6544917"><ele>103.4</ele><time>2026-04-11T09:32:14.067Z</time></trkpt><trkpt lat="45.3560833" lon="10.654605"><ele>103.0</ele><time>2026-04-11T09:32:15.065Z</time></trkpt><trkpt lat="45.3560367" lon="10.6547"><ele>103.80000000000001</ele><time>2026-04-11T09:32:16.055Z</time></trkpt><trkpt lat="45.3559883" lon="10.6547917"><ele>104.6</ele><time>2026-04-11T09:32:17.061Z</time></trkpt><trkpt lat="45.3559167" lon="10.6548767"><ele>105.39999999999999</ele><time>2026-04-11T09:32:18.063Z</time></trkpt><trkpt lat="45.3558067" lon="10.6549417"><ele>106.19999999999999</ele><time>2026-04-11T09:32:19.056Z</time></trkpt><trkpt lat="45.355695" lon="10.6549917"><ele>107.0</ele><time>2026-04-11T09:32:20.067Z</time></trkpt><trkpt lat="45.355585" lon="10.6550367"><ele>106.39999999999999</ele><time>2026-04-11T09:32:21.062Z</time></trkpt><trkpt lat="45.3554733" lon="10.655115"><ele>105.79999999999998</ele><time>2026-04-11T09:32:22.061Z</time></trkpt><trkpt lat="45.3553733" lon="10.6551783"><ele>105.2</ele><time>2026-04-11T09:32:23.06Z</time></trkpt><trkpt lat="45.35527" lon="10.655225"><ele>104.6</ele><time>2026-04-11T09:32:24.063Z</time></trkpt><trkpt lat="45.3551733" lon="10.6552617"><ele>104.0</ele><time>2026-04-11T09:32:25.06Z</time></trkpt><trkpt lat="45.3550867" lon="10.655275"><ele>104.0</ele><time>2026-04-11T09:32:26.07Z</time></trkpt><trkpt lat="45.355" lon="10.6552817"><ele>104.0</ele><time>2026-04-11T09:32:27.064Z</time></trkpt><trkpt lat="45.3549033" lon="10.6552867"><ele>104.0</ele><time>2026-04-11T09:32:28.063Z</time></trkpt><trkpt lat="45.3548017" lon="10.6552833"><ele>104.0</ele><time>2026-04-11T09:32:29.055Z</time></trkpt><trkpt lat="45.3546967" lon="10.6552733"><ele>104.0</ele><time>2026-04-11T09:32:30.07Z</time></trkpt><trkpt lat="45.3545783" lon="10.65526"><ele>103.83333333333333</ele><time>2026-04-11T09:32:31.061Z</time></trkpt><trkpt lat="45.3545" lon="10.655275"><ele>103.66666666666666</ele><time>2026-04-11T09:32:32.058Z</time></trkpt><trkpt lat="45.354425" lon="10.655295"><ele>103.5</ele><time>2026-04-11T09:32:33.058Z</time></trkpt><trkpt lat="45.35433" lon="10.6553333"><ele>103.33333333333334</ele><time>2026-04-11T09:32:34.065Z</time></trkpt><trkpt lat="45.3542383" lon="10.655375"><ele>103.16666666666667</ele><time>2026-04-11T09:32:35.063Z</time></trkpt><trkpt lat="45.3541533" lon="10.6554083"><ele>103.0</ele><time>2026-04-11T09:32:36.068Z</time></trkpt><trkpt lat="45.354065" lon="10.6554433"><ele>103.33333333333334</ele><time>2026-04-11T09:32:37.064Z</time></trkpt><trkpt lat="45.3539867" lon="10.655455"><ele>103.66666666666667</ele><time>2026-04-11T09:32:38.067Z</time></trkpt><trkpt lat="45.3539117" lon="10.6554517"><ele>104.0</ele><time>2026-04-11T09:32:39.06Z</time></trkpt><trkpt lat="45.3538383" lon="10.6554267"><ele>104.33333333333334</ele><time>2026-04-11T09:32:40.061Z</time></trkpt><trkpt lat="45.3537433" lon="10.6553817"><ele>104.66666666666667</ele><time>2026-04-11T09:32:41.064Z</time></trkpt><trkpt lat="45.35365" lon="10.6553283"><ele>105.0</ele><time>2026-04-11T09:32:42.062Z</time></trkpt><trkpt lat="45.35355" lon="10.655295"><ele>104.8</ele><time>2026-04-11T09:32:43.059Z</time></trkpt><trkpt lat="45.3534383" lon="10.6552267"><ele>104.6</ele><time>2026-04-11T09:32:44.056Z</time></trkpt><trkpt lat="45.3533233" lon="10.6551867"><ele>104.4</ele><time>2026-04-11T09:32:45.066Z</time></trkpt><trkpt lat="45.3532283" lon="10.655135"><ele>104.2</ele><time>2026-04-11T09:32:46.06Z</time></trkpt><trkpt lat="45.353135" lon="10.6551017"><ele>104.0</ele><time>2026-04-11T09:32:47.066Z</time></trkpt><trkpt lat="45.3530233" lon="10.6550733"><ele>104.0</ele><time>2026-04-11T09:32:48.062Z</time></trkpt><trkpt lat="45.3529133" lon="10.6550583"><ele>104.0</ele><time>2026-04-11T09:32:49.068Z</time></trkpt><trkpt lat="45.3528083" lon="10.6550433"><ele>104.0</ele><time>2026-04-11T09:32:50.066Z</time></trkpt><trkpt lat="45.3526933" lon="10.65504"><ele>104.0</ele><time>2026-04-11T09:32:51.074Z</time></trkpt><trkpt lat="45.35258" lon="10.6550283"><ele>104.0</ele><time>2026-04-11T09:32:52.07Z</time></trkpt><trkpt lat="45.3524717" lon="10.6550283"><ele>103.99999999999999</ele><time>2026-04-11T09:32:53.077Z</time></trkpt><trkpt lat="45.3523767" lon="10.6550217"><ele>104.0</ele><time>2026-04-11T09:32:54.068Z</time></trkpt><trkpt lat="45.3522883" lon="10.6550167"><ele>104.0</ele><time>2026-04-11T09:32:55.069Z</time></trkpt><trkpt lat="45.3522067" lon="10.6550183"><ele>104.0</ele><time>2026-04-11T09:32:56.063Z</time></trkpt><trkpt lat="45.3521383" lon="10.655015"><ele>103.99999999999999</ele><time>2026-04-11T09:32:57.069Z</time></trkpt><trkpt lat="45.3520267" lon="10.65501"><ele>104.0</ele><time>2026-04-11T09:32:59.071Z</time></trkpt><trkpt lat="45.3519367" lon="10.6550083"><ele>103.57142857142857</ele><time>2026-04-11T09:33:01.059Z</time></trkpt><trkpt lat="45.35187" lon="10.6549883"><ele>103.14285714285715</ele><time>2026-04-11T09:33:03.067Z</time></trkpt><trkpt lat="45.3517933" lon="10.6549583"><ele>102.71428571428572</ele><time>2026-04-11T09:33:05.07Z</time></trkpt><trkpt lat="45.3516983" lon="10.6549217"><ele>102.28571428571428</ele><time>2026-04-11T09:33:07.065Z</time></trkpt><trkpt lat="45.351635" lon="10.6549"><ele>101.85714285714286</ele><time>2026-04-11T09:33:08.065Z</time></trkpt><trkpt lat="45.3515717" lon="10.6548867"><ele>101.42857142857143</ele><time>2026-04-11T09:33:09.067Z</time></trkpt><trkpt lat="45.3515067" lon="10.654895"><ele>101.0</ele><time>2026-04-11T09:33:10.062Z</time></trkpt><trkpt lat="45.3513983" lon="10.6549067"><ele>100.99999999999999</ele><time>2026-04-11T09:33:12.071Z</time></trkpt><trkpt lat="45.3513533" lon="10.65484"><ele>101.0</ele><time>2026-04-11T09:33:14.062Z</time></trkpt><trkpt lat="45.3513883" lon="10.6546633"><ele>101.0</ele><time>2026-04-11T09:33:16.062Z</time></trkpt><trkpt lat="45.3514083" lon="10.6545567"><ele>101.0</ele><time>2026-04-11T09:33:17.056Z</time></trkpt><trkpt lat="45.3514183" lon="10.6544517"><ele>100.99999999999999</ele><time>2026-04-11T09:33:18.062Z</time></trkpt><trkpt lat="45.3514117" lon="10.65434"><ele>101.0</ele><time>2026-04-11T09:33:19.06Z</time></trkpt><trkpt lat="45.351385" lon="10.6542167"><ele>100.75</ele><time>2026-04-11T09:33:20.061Z</time></trkpt><trkpt lat="45.3513383" lon="10.6540717"><ele>100.5</ele><time>2026-04-11T09:33:21.063Z</time></trkpt><trkpt lat="45.3512683" lon="10.6539133"><ele>100.25</ele><time>2026-04-11T09:33:22.064Z</time></trkpt><trkpt lat="45.3512033" lon="10.6537483"><ele>100.0</ele><time>2026-04-11T09:33:23.057Z</time></trkpt><trkpt lat="45.3511283" lon="10.6536017"><ele>100.0</ele><time>2026-04-11T09:33:24.066Z</time></trkpt><trkpt lat="45.3510417" lon="10.6534367"><ele>100.0</ele><time>2026-04-11T09:33:25.06Z</time></trkpt><trkpt lat="45.3509867" lon="10.65332"><ele>100.0</ele><time>2026-04-11T09:33:26.064Z</time></trkpt><trkpt lat="45.3509417" lon="10.65318"><ele>100.0</ele><time>2026-04-11T09:33:27.057Z</time></trkpt><trkpt lat="45.3509067" lon="10.65303"><ele>100.0</ele><time>2026-04-11T09:33:28.076Z</time></trkpt><trkpt lat="45.3508733" lon="10.6528667"><ele>100.0</ele><time>2026-04-11T09:33:29.053Z</time></trkpt><trkpt lat="45.3508533" lon="10.6527267"><ele>100.0</ele><time>2026-04-11T09:33:30.069Z</time></trkpt><trkpt lat="45.3508533" lon="10.652605"><ele>100.0</ele><time>2026-04-11T09:33:31.064Z</time></trkpt><trkpt lat="45.3508483" lon="10.652415"><ele>100.0</ele><time>2026-04-11T09:33:33.055Z</time></trkpt><trkpt lat="45.35085" lon="10.652245"><ele>100.2</ele><time>2026-04-11T09:33:35.061Z</time></trkpt><trkpt lat="45.3508483" lon="10.652145"><ele>100.4</ele><time>2026-04-11T09:33:36.061Z</time></trkpt><trkpt lat="45.3508517" lon="10.65202"><ele>100.6</ele><time>2026-04-11T09:33:37.059Z</time></trkpt><trkpt lat="45.35087" lon="10.651885"><ele>100.8</ele><time>2026-04-11T09:33:38.067Z</time></trkpt><trkpt lat="45.3508817" lon="10.651735"><ele>101.0</ele><time>2026-04-11T09:33:39.055Z</time></trkpt><trkpt lat="45.3509033" lon="10.6515567"><ele>101.25</ele><time>2026-04-11T09:33:40.056Z</time></trkpt><trkpt lat="45.3509017" lon="10.651375"><ele>101.5</ele><time>2026-04-11T09:33:41.059Z</time></trkpt><trkpt lat="45.3509217" lon="10.6512067"><ele>101.75</ele><time>2026-04-11T09:33:42.063Z</time></trkpt><trkpt lat="45.35092" lon="10.650995"><ele>102.0</ele><time>2026-04-11T09:33:43.059Z</time></trkpt><trkpt lat="45.3509067" lon="10.65083"><ele>102.0</ele><time>2026-04-11T09:33:44.063Z</time></trkpt><trkpt lat="45.350885" lon="10.65067"><ele>102.0</ele><time>2026-04-11T09:33:45.061Z</time></trkpt><trkpt lat="45.3508617" lon="10.6505167"><ele>102.0</ele><time>2026-04-11T09:33:46.06Z</time></trkpt><trkpt lat="45.350855" lon="10.65037"><ele>102.0</ele><time>2026-04-11T09:33:47.059Z</time></trkpt><trkpt lat="45.3508767" lon="10.6502267"><ele>102.0</ele><time>2026-04-11T09:33:48.062Z</time></trkpt><trkpt lat="45.350905" lon="10.6500417"><ele>102.25</ele><time>2026-04-11T09:33:49.055Z</time></trkpt><trkpt lat="45.35095" lon="10.64986"><ele>102.5</ele><time>2026-04-11T09:33:50.057Z</time></trkpt><trkpt lat="45.35101" lon="10.649705"><ele>102.75</ele><time>2026-04-11T09:33:51.055Z</time></trkpt><trkpt lat="45.3510683" lon="10.649525"><ele>103.0</ele><time>2026-04-11T09:33:52.06Z</time></trkpt><trkpt lat="45.3511417" lon="10.6493617"><ele>103.5</ele><time>2026-04-11T09:33:53.056Z</time></trkpt><trkpt lat="45.3512233" lon="10.6492083"><ele>104.0</ele><time>2026-04-11T09:33:54.068Z</time></trkpt><trkpt lat="45.3512767" lon="10.64908"><ele>104.5</ele><time>2026-04-11T09:33:55.058Z</time></trkpt><trkpt lat="45.3513367" lon="10.6488783"><ele>105.0</ele><time>2026-04-11T09:33:56.07Z</time></trkpt><trkpt lat="45.351385" lon="10.64865"><ele>105.33333333333334</ele><time>2026-04-11T09:33:57.065Z</time></trkpt><trkpt lat="45.3514467" lon="10.6484017"><ele>105.66666666666667</ele><time>2026-04-11T09:33:58.08Z</time></trkpt><trkpt lat="45.3515017" lon="10.648155"><ele>106.0</ele><time>2026-04-11T09:33:59.072Z</time></trkpt><trkpt lat="45.3515617" lon="10.64788"><ele>106.33333333333334</ele><time>2026-04-11T09:34:00.072Z</time></trkpt><trkpt lat="45.3516133" lon="10.6475933"><ele>106.66666666666666</ele><time>2026-04-11T09:34:01.059Z</time></trkpt><trkpt lat="45.351665" lon="10.64733"><ele>107.0</ele><time>2026-04-11T09:34:02.098Z</time></trkpt><trkpt lat="45.3517117" lon="10.6471033"><ele>107.5</ele><time>2026-04-11T09:34:03.078Z</time></trkpt><trkpt lat="45.351755" lon="10.646915"><ele>108.0</ele><time>2026-04-11T09:34:04.073Z</time></trkpt><trkpt lat="45.35177" lon="10.6467567"><ele>108.5</ele><time>2026-04-11T09:34:05.064Z</time></trkpt><trkpt lat="45.351795" lon="10.6465917"><ele>109.0</ele><time>2026-04-11T09:34:06.075Z</time></trkpt><trkpt lat="45.3518267" lon="10.6464333"><ele>109.00000000000001</ele><time>2026-04-11T09:34:07.073Z</time></trkpt><trkpt lat="45.3518517" lon="10.6462933"><ele>109.0</ele><time>2026-04-11T09:34:08.071Z</time></trkpt><trkpt lat="45.3518667" lon="10.64617"><ele>109.0</ele><time>2026-04-11T09:34:09.077Z</time></trkpt><trkpt lat="45.3518933" lon="10.6460717"><ele>109.0</ele><time>2026-04-11T09:34:10.082Z</time></trkpt><trkpt lat="45.3519067" lon="10.6459783"><ele>109.00000000000001</ele><time>2026-04-11T09:34:11.061Z</time></trkpt><trkpt lat="45.35192" lon="10.6458367"><ele>109.0</ele><time>2026-04-11T09:34:13.066Z</time></trkpt><trkpt lat="45.351855" lon="10.645805"><ele>109.0</ele><time>2026-04-11T09:34:16.072Z</time></trkpt><trkpt lat="45.3517517" lon="10.6458367"><ele>109.0</ele><time>2026-04-11T09:34:18.061Z</time></trkpt><trkpt lat="45.3516633" lon="10.6457867"><ele>109.0</ele><time>2026-04-11T09:34:20.07Z</time></trkpt><trkpt lat="45.35163" lon="10.6456117"><ele>109.0</ele><time>2026-04-11T09:34:22.064Z</time></trkpt><trkpt lat="45.3516567" lon="10.6454917"><ele>109.0</ele><time>2026-04-11T09:34:23.067Z</time></trkpt><trkpt lat="45.3516983" lon="10.6453567"><ele>109.25</ele><time>2026-04-11T09:34:24.064Z</time></trkpt><trkpt lat="45.3517467" lon="10.6452083"><ele>109.5</ele><time>2026-04-11T09:34:25.066Z</time></trkpt><trkpt lat="45.3518067" lon="10.645045"><ele>109.75</ele><time>2026-04-11T09:34:26.068Z</time></trkpt><trkpt lat="45.3519133" lon="10.6448483"><ele>110.0</ele><time>2026-04-11T09:34:27.063Z</time></trkpt><trkpt lat="45.3519983" lon="10.6447117"><ele>110.0</ele><time>2026-04-11T09:34:28.068Z</time></trkpt><trkpt lat="45.35208" lon="10.644565"><ele>110.0</ele><time>2026-04-11T09:34:29.065Z</time></trkpt><trkpt lat="45.3521517" lon="10.6444467"><ele>110.0</ele><time>2026-04-11T09:34:30.072Z</time></trkpt><trkpt lat="45.3522317" lon="10.6443467"><ele>110.0</ele><time>2026-04-11T09:34:31.073Z</time></trkpt><trkpt lat="45.3522817" lon="10.6442633"><ele>110.0</ele><time>2026-04-11T09:34:32.069Z</time></trkpt><trkpt lat="45.3522667" lon="10.6441633"><ele>110.16666666666666</ele><time>2026-04-11T09:34:34.066Z</time></trkpt><trkpt lat="45.3521833" lon="10.644065"><ele>110.33333333333333</ele><time>2026-04-11T09:34:36.069Z</time></trkpt><trkpt lat="45.3521133" lon="10.6440233"><ele>110.5</ele><time>2026-04-11T09:34:37.06Z</time></trkpt><trkpt lat="45.352035" lon="10.643975"><ele>110.66666666666666</ele><time>2026-04-11T09:34:38.072Z</time></trkpt><trkpt lat="45.351955" lon="10.6439333"><ele>110.83333333333333</ele><time>2026-04-11T09:34:39.065Z</time></trkpt><trkpt lat="45.35189" lon="10.643885"><ele>111.0</ele><time>2026-04-11T09:34:40.062Z</time></trkpt><trkpt lat="45.351835" lon="10.6438267"><ele>111.0</ele><time>2026-04-11T09:34:41.059Z</time></trkpt><trkpt lat="45.3517283" lon="10.6438"><ele>111.0</ele><time>2026-04-11T09:34:43.061Z</time></trkpt><trkpt lat="45.3516117" lon="10.643735"><ele>111.0</ele><time>2026-04-11T09:34:45.07Z</time></trkpt><trkpt lat="45.3515383" lon="10.6436783"><ele>111.0</ele><time>2026-04-11T09:34:46.062Z</time></trkpt><trkpt lat="45.35145" lon="10.64363"><ele>111.0</ele><time>2026-04-11T09:34:47.065Z</time></trkpt><trkpt lat="45.351345" lon="10.64358"><ele>110.25</ele><time>2026-04-11T09:34:48.073Z</time></trkpt><trkpt lat="45.35123" lon="10.64353"><ele>109.5</ele><time>2026-04-11T09:34:49.062Z</time></trkpt><trkpt lat="45.3511267" lon="10.6434717"><ele>108.75</ele><time>2026-04-11T09:34:50.062Z</time></trkpt><trkpt lat="45.3510117" lon="10.6434117"><ele>108.0</ele><time>2026-04-11T09:34:51.061Z</time></trkpt><trkpt lat="45.350895" lon="10.64334"><ele>108.0</ele><time>2026-04-11T09:34:52.063Z</time></trkpt><trkpt lat="45.3507783" lon="10.6432933"><ele>108.0</ele><time>2026-04-11T09:34:53.057Z</time></trkpt><trkpt lat="45.3506683" lon="10.64322"><ele>108.0</ele><time>2026-04-11T09:34:54.064Z</time></trkpt><trkpt lat="45.3505567" lon="10.64316"><ele>108.0</ele><time>2026-04-11T09:34:55.064Z</time></trkpt><trkpt lat="45.350435" lon="10.6431133"><ele>107.75</ele><time>2026-04-11T09:34:56.08Z</time></trkpt><trkpt lat="45.3503133" lon="10.643065"><ele>107.5</ele><time>2026-04-11T09:34:57.059Z</time></trkpt><trkpt lat="45.3501967" lon="10.643015"><ele>107.25</ele><time>2026-04-11T09:34:58.071Z</time></trkpt><trkpt lat="45.350095" lon="10.6429717"><ele>107.0</ele><time>2026-04-11T09:34:59.058Z</time></trkpt><trkpt lat="45.3499983" lon="10.6429133"><ele>107.0</ele><time>2026-04-11T09:35:00.078Z</time></trkpt><trkpt lat="45.3498983" lon="10.642865"><ele>106.99999999999999</ele><time>2026-04-11T09:35:01.061Z</time></trkpt><trkpt lat="45.3497967" lon="10.6428267"><ele>106.99999999999999</ele><time>2026-04-11T09:35:02.061Z</time></trkpt><trkpt lat="45.3497033" lon="10.64278"><ele>107.0</ele><time>2026-04-11T09:35:03.063Z</time></trkpt><trkpt lat="45.3495833" lon="10.6427417"><ele>107.0</ele><time>2026-04-11T09:35:04.06Z</time></trkpt><trkpt lat="45.3494367" lon="10.6426983"><ele>106.5</ele><time>2026-04-11T09:35:05.057Z</time></trkpt><trkpt lat="45.3492983" lon="10.6426567"><ele>106.0</ele><time>2026-04-11T09:35:06.075Z</time></trkpt><trkpt lat="45.3491633" lon="10.642625"><ele>105.5</ele><time>2026-04-11T09:35:07.069Z</time></trkpt><trkpt lat="45.3490283" lon="10.6426033"><ele>105.0</ele><time>2026-04-11T09:35:08.063Z</time></trkpt><trkpt lat="45.34891" lon="10.6425417"><ele>105.8</ele><time>2026-04-11T09:35:09.055Z</time></trkpt><trkpt lat="45.348815" lon="10.64252"><ele>106.6</ele><time>2026-04-11T09:35:10.064Z</time></trkpt><trkpt lat="45.3487433" lon="10.64249"><ele>107.4</ele><time>2026-04-11T09:35:11.061Z</time></trkpt><trkpt lat="45.3486833" lon="10.64236"><ele>108.2</ele><time>2026-04-11T09:35:13.062Z</time></trkpt><trkpt lat="45.348675" lon="10.6422483"><ele>109.0</ele><time>2026-04-11T09:35:14.067Z</time></trkpt><trkpt lat="45.3486933" lon="10.6421"><ele>109.0</ele><time>2026-04-11T09:35:15.058Z</time></trkpt><trkpt lat="45.3487067" lon="10.64197"><ele>109.0</ele><time>2026-04-11T09:35:16.059Z</time></trkpt><trkpt lat="45.3487083" lon="10.6418567"><ele>109.0</ele><time>2026-04-11T09:35:17.061Z</time></trkpt><trkpt lat="45.3486933" lon="10.6417633"><ele>109.0</ele><time>2026-04-11T09:35:18.06Z</time></trkpt><trkpt lat="45.3485467" lon="10.6417517"><ele>109.0</ele><time>2026-04-11T09:35:20.057Z</time></trkpt><trkpt lat="45.34843" lon="10.6417933"><ele>109.0</ele><time>2026-04-11T09:35:21.061Z</time></trkpt><trkpt lat="45.3483033" lon="10.6418333"><ele>109.0</ele><time>2026-04-11T09:35:22.062Z</time></trkpt><trkpt lat="45.348185" lon="10.641875"><ele>109.0</ele><time>2026-04-11T09:35:23.062Z</time></trkpt><trkpt lat="45.3480833" lon="10.64189"><ele>109.0</ele><time>2026-04-11T09:35:24.06Z</time></trkpt><trkpt lat="45.3479867" lon="10.6419167"><ele>109.0</ele><time>2026-04-11T09:35:25.056Z</time></trkpt><trkpt lat="45.3478783" lon="10.6419333"><ele>109.0</ele><time>2026-04-11T09:35:26.068Z</time></trkpt><trkpt lat="45.3477767" lon="10.6419583"><ele>109.0</ele><time>2026-04-11T09:35:27.063Z</time></trkpt><trkpt lat="45.3476617" lon="10.641985"><ele>109.0</ele><time>2026-04-11T09:35:28.059Z</time></trkpt><trkpt lat="45.3475517" lon="10.6420033"><ele>109.0</ele><time>2026-04-11T09:35:29.056Z</time></trkpt><trkpt lat="45.347435" lon="10.6420083"><ele>108.66666666666667</ele><time>2026-04-11T09:35:30.063Z</time></trkpt><trkpt lat="45.3473417" lon="10.64202"><ele>108.33333333333334</ele><time>2026-04-11T09:35:31.056Z</time></trkpt><trkpt lat="45.34725" lon="10.6420683"><ele>108.0</ele><time>2026-04-11T09:35:32.061Z</time></trkpt><trkpt lat="45.3471633" lon="10.6420967"><ele>107.66666666666666</ele><time>2026-04-11T09:35:33.06Z</time></trkpt><trkpt lat="45.3471" lon="10.642105"><ele>107.33333333333333</ele><time>2026-04-11T09:35:34.065Z</time></trkpt><trkpt lat="45.3470067" lon="10.6421233"><ele>107.0</ele><time>2026-04-11T09:35:36.065Z</time></trkpt><trkpt lat="45.3468983" lon="10.6421417"><ele>106.49999999999999</ele><time>2026-04-11T09:35:38.063Z</time></trkpt><trkpt lat="45.3467833" lon="10.642155"><ele>106.0</ele><time>2026-04-11T09:35:40.056Z</time></trkpt><trkpt lat="45.3467033" lon="10.6421417"><ele>105.5</ele><time>2026-04-11T09:35:42.063Z</time></trkpt><trkpt lat="45.34665" lon="10.64208"><ele>105.0</ele><time>2026-04-11T09:35:44.061Z</time></trkpt><trkpt lat="45.346635" lon="10.6419783"><ele>104.49999999999999</ele><time>2026-04-11T09:35:46.062Z</time></trkpt><trkpt lat="45.34662" lon="10.6418717"><ele>104.0</ele><time>2026-04-11T09:35:48.059Z</time></trkpt><trkpt lat="45.3465817" lon="10.64173"><ele>105.2</ele><time>2026-04-11T09:35:50.056Z</time></trkpt><trkpt lat="45.34655" lon="10.641635"><ele>106.4</ele><time>2026-04-11T09:35:51.065Z</time></trkpt><trkpt lat="45.34651" lon="10.6415333"><ele>107.6</ele><time>2026-04-11T09:35:52.061Z</time></trkpt><trkpt lat="45.3464733" lon="10.641415"><ele>108.8</ele><time>2026-04-11T09:35:53.068Z</time></trkpt><trkpt lat="45.34643" lon="10.6412883"><ele>110.0</ele><time>2026-04-11T09:35:54.058Z</time></trkpt><trkpt lat="45.3463817" lon="10.64114"><ele>110.2</ele><time>2026-04-11T09:35:55.061Z</time></trkpt><trkpt lat="45.3463517" lon="10.6410233"><ele>110.4</ele><time>2026-04-11T09:35:56.067Z</time></trkpt><trkpt lat="45.3463383" lon="10.6409117"><ele>110.6</ele><time>2026-04-11T09:35:57.062Z</time></trkpt><trkpt lat="45.3463433" lon="10.6407967"><ele>110.8</ele><time>2026-04-11T09:35:58.068Z</time></trkpt><trkpt lat="45.3463667" lon="10.6406617"><ele>111.0</ele><time>2026-04-11T09:35:59.071Z</time></trkpt><trkpt lat="45.3464167" lon="10.6404967"><ele>111.0</ele><time>2026-04-11T09:36:00.066Z</time></trkpt><trkpt lat="45.3464183" lon="10.640315"><ele>111.0</ele><time>2026-04-11T09:36:01.061Z</time></trkpt><trkpt lat="45.3463983" lon="10.6401417"><ele>111.0</ele><time>2026-04-11T09:36:02.064Z</time></trkpt><trkpt lat="45.3463617" lon="10.63995"><ele>111.0</ele><time>2026-04-11T09:36:03.057Z</time></trkpt><trkpt lat="45.34632" lon="10.6397383"><ele>113.75</ele><time>2026-04-11T09:36:04.068Z</time></trkpt><trkpt lat="45.3462933" lon="10.6395533"><ele>116.5</ele><time>2026-04-11T09:36:05.062Z</time></trkpt><trkpt lat="45.3462567" lon="10.6393317"><ele>119.25</ele><time>2026-04-11T09:36:06.073Z</time></trkpt><trkpt lat="45.3462333" lon="10.639135"><ele>122.0</ele><time>2026-04-11T09:36:07.068Z</time></trkpt><trkpt lat="45.3462233" lon="10.6389717"><ele>121.99999999999999</ele><time>2026-04-11T09:36:08.068Z</time></trkpt><trkpt lat="45.3462017" lon="10.6388133"><ele>122.0</ele><time>2026-04-11T09:36:09.111Z</time></trkpt><trkpt lat="45.3461833" lon="10.638695"><ele>122.0</ele><time>2026-04-11T09:36:10.063Z</time></trkpt><trkpt lat="45.3461533" lon="10.6386"><ele>122.0</ele><time>2026-04-11T09:36:11.069Z</time></trkpt><trkpt lat="45.346095" lon="10.638505"><ele>121.99999999999999</ele><time>2026-04-11T09:36:12.066Z</time></trkpt><trkpt lat="45.3460567" lon="10.6384233"><ele>122.0</ele><time>2026-04-11T09:36:13.063Z</time></trkpt><trkpt lat="45.3460183" lon="10.6383433"><ele>122.0</ele><time>2026-04-11T09:36:14.064Z</time></trkpt><trkpt lat="45.3459617" lon="10.6381933"><ele>122.0</ele><time>2026-04-11T09:36:16.067Z</time></trkpt><trkpt lat="45.3459133" lon="10.6380483"><ele>122.0</ele><time>2026-04-11T09:36:18.075Z</time></trkpt><trkpt lat="45.3458733" lon="10.637885"><ele>122.0</ele><time>2026-04-11T09:36:20.066Z</time></trkpt><trkpt lat="45.3458383" lon="10.63775"><ele>121.99999999999999</ele><time>2026-04-11T09:36:22.069Z</time></trkpt><trkpt lat="45.345775" lon="10.6376333"><ele>122.0</ele><time>2026-04-11T09:36:24.075Z</time></trkpt><trkpt lat="45.3457267" lon="10.6375583"><ele>122.0</ele><time>2026-04-11T09:36:25.068Z</time></trkpt><trkpt lat="45.3456683" lon="10.63748"><ele>122.0</ele><time>2026-04-11T09:36:26.062Z</time></trkpt><trkpt lat="45.3456033" lon="10.6374017"><ele>121.99999999999999</ele><time>2026-04-11T09:36:27.065Z</time></trkpt><trkpt lat="45.3455183" lon="10.6373233"><ele>122.0</ele><time>2026-04-11T09:36:28.062Z</time></trkpt><trkpt lat="45.345415" lon="10.6372633"><ele>122.0</ele><time>2026-04-11T09:36:29.057Z</time></trkpt><trkpt lat="45.3453167" lon="10.6372017"><ele>121.99999999999999</ele><time>2026-04-11T09:36:30.073Z</time></trkpt><trkpt lat="45.3452083" lon="10.6371667"><ele>121.99999999999999</ele><time>2026-04-11T09:36:31.082Z</time></trkpt><trkpt lat="45.3451117" lon="10.637115"><ele>122.0</ele><time>2026-04-11T09:36:32.066Z</time></trkpt><trkpt lat="45.34503" lon="10.6370517"><ele>122.0</ele><time>2026-04-11T09:36:33.063Z</time></trkpt><trkpt lat="45.3449467" lon="10.6369433"><ele>122.19999999999999</ele><time>2026-04-11T09:36:34.072Z</time></trkpt><trkpt lat="45.34488" lon="10.6368383"><ele>122.39999999999999</ele><time>2026-04-11T09:36:35.087Z</time></trkpt><trkpt lat="45.344825" lon="10.63675"><ele>122.60000000000001</ele><time>2026-04-11T09:36:36.075Z</time></trkpt><trkpt lat="45.3447817" lon="10.6366383"><ele>122.80000000000001</ele><time>2026-04-11T09:36:37.066Z</time></trkpt><trkpt lat="45.3447317" lon="10.636525"><ele>123.0</ele><time>2026-04-11T09:36:38.061Z</time></trkpt><trkpt lat="45.3447267" lon="10.6363933"><ele>123.80000000000001</ele><time>2026-04-11T09:36:39.064Z</time></trkpt><trkpt lat="45.344695" lon="10.6362867"><ele>124.60000000000001</ele><time>2026-04-11T09:36:40.083Z</time></trkpt><trkpt lat="45.3446517" lon="10.6361867"><ele>125.39999999999999</ele><time>2026-04-11T09:36:41.058Z</time></trkpt><trkpt lat="45.3446083" lon="10.6360617"><ele>126.19999999999999</ele><time>2026-04-11T09:36:42.068Z</time></trkpt><trkpt lat="45.3445517" lon="10.63593"><ele>127.0</ele><time>2026-04-11T09:36:43.058Z</time></trkpt><trkpt lat="45.3444917" lon="10.635805"><ele>127.0</ele><time>2026-04-11T09:36:44.059Z</time></trkpt><trkpt lat="45.34443" lon="10.6356633"><ele>127.0</ele><time>2026-04-11T09:36:45.059Z</time></trkpt><trkpt lat="45.344365" lon="10.6355467"><ele>127.0</ele><time>2026-04-11T09:36:46.06Z</time></trkpt><trkpt lat="45.3442867" lon="10.6354033"><ele>127.0</ele><time>2026-04-11T09:36:47.061Z</time></trkpt><trkpt lat="45.34418" lon="10.635305"><ele>127.0</ele><time>2026-04-11T09:36:48.063Z</time></trkpt><trkpt lat="45.3440717" lon="10.6351933"><ele>127.0</ele><time>2026-04-11T09:36:49.06Z</time></trkpt><trkpt lat="45.34396" lon="10.63509"><ele>127.0</ele><time>2026-04-11T09:36:50.083Z</time></trkpt><trkpt lat="45.3438733" lon="10.63497"><ele>127.0</ele><time>2026-04-11T09:36:51.057Z</time></trkpt><trkpt lat="45.3437933" lon="10.63486"><ele>125.39999999999999</ele><time>2026-04-11T09:36:52.063Z</time></trkpt><trkpt lat="45.3437417" lon="10.6347433"><ele>123.79999999999998</ele><time>2026-04-11T09:36:53.068Z</time></trkpt><trkpt lat="45.343725" lon="10.6345817"><ele>122.2</ele><time>2026-04-11T09:36:54.057Z</time></trkpt><trkpt lat="45.3437" lon="10.6344983"><ele>120.6</ele><time>2026-04-11T09:36:55.061Z</time></trkpt><trkpt lat="45.3436817" lon="10.6343417"><ele>119.0</ele><time>2026-04-11T09:36:56.059Z</time></trkpt><trkpt lat="45.3436633" lon="10.634195"><ele>119.0</ele><time>2026-04-11T09:36:57.067Z</time></trkpt><trkpt lat="45.3436617" lon="10.6340317"><ele>119.0</ele><time>2026-04-11T09:36:58.07Z</time></trkpt><trkpt lat="45.3436483" lon="10.633885"><ele>119.0</ele><time>2026-04-11T09:36:59.067Z</time></trkpt><trkpt lat="45.3436433" lon="10.6337567"><ele>119.0</ele><time>2026-04-11T09:37:00.102Z</time></trkpt><trkpt lat="45.3436733" lon="10.633645"><ele>119.0</ele><time>2026-04-11T09:37:01.078Z</time></trkpt><trkpt lat="45.3437083" lon="10.6335483"><ele>120.49999999999999</ele><time>2026-04-11T09:37:02.091Z</time></trkpt><trkpt lat="45.3437583" lon="10.6334533"><ele>122.0</ele><time>2026-04-11T09:37:03.096Z</time></trkpt><trkpt lat="45.3438167" lon="10.6333567"><ele>123.5</ele><time>2026-04-11T09:37:04.066Z</time></trkpt><trkpt lat="45.343865" lon="10.6332583"><ele>125.0</ele><time>2026-04-11T09:37:05.062Z</time></trkpt><trkpt lat="45.343905" lon="10.63318"><ele>126.49999999999999</ele><time>2026-04-11T09:37:06.071Z</time></trkpt><trkpt lat="45.3439733" lon="10.6330967"><ele>128.0</ele><time>2026-04-11T09:37:08.079Z</time></trkpt><trkpt lat="45.3439067" lon="10.633115"><ele>128.0</ele><time>2026-04-11T09:37:19.068Z</time></trkpt><trkpt lat="45.343865" lon="10.63321"><ele>128.0</ele><time>2026-04-11T09:37:20.059Z</time></trkpt><trkpt lat="45.343815" lon="10.6333367"><ele>128.0</ele><time>2026-04-11T09:37:21.07Z</time></trkpt><trkpt lat="45.3437417" lon="10.6335067"><ele>128.0</ele><time>2026-04-11T09:37:22.069Z</time></trkpt><trkpt lat="45.3436783" lon="10.63368"><ele>126.2</ele><time>2026-04-11T09:37:23.089Z</time></trkpt><trkpt lat="45.3436483" lon="10.633795"><ele>124.4</ele><time>2026-04-11T09:37:24.063Z</time></trkpt><trkpt lat="45.343635" lon="10.6339083"><ele>122.60000000000001</ele><time>2026-04-11T09:37:25.068Z</time></trkpt><trkpt lat="45.3436333" lon="10.6340317"><ele>120.80000000000001</ele><time>2026-04-11T09:37:26.07Z</time></trkpt><trkpt lat="45.3436483" lon="10.6341683"><ele>119.0</ele><time>2026-04-11T09:37:27.068Z</time></trkpt><trkpt lat="45.3436683" lon="10.63432"><ele>118.99999999999999</ele><time>2026-04-11T09:37:28.071Z</time></trkpt><trkpt lat="45.3436783" lon="10.6344433"><ele>119.0</ele><time>2026-04-11T09:37:29.071Z</time></trkpt><trkpt lat="45.34369" lon="10.6345683"><ele>119.0</ele><time>2026-04-11T09:37:30.063Z</time></trkpt><trkpt lat="45.3437167" lon="10.6346867"><ele>119.0</ele><time>2026-04-11T09:37:31.069Z</time></trkpt><trkpt lat="45.3437333" lon="10.6347817"><ele>118.99999999999999</ele><time>2026-04-11T09:37:32.063Z</time></trkpt><trkpt lat="45.3437567" lon="10.6348767"><ele>119.0</ele><time>2026-04-11T09:37:33.067Z</time></trkpt><trkpt lat="45.3437917" lon="10.6350283"><ele>118.99999999999999</ele><time>2026-04-11T09:37:35.063Z</time></trkpt><trkpt lat="45.343765" lon="10.6351617"><ele>119.0</ele><time>2026-04-11T09:37:37.057Z</time></trkpt><trkpt lat="45.3437117" lon="10.6352317"><ele>119.0</ele><time>2026-04-11T09:37:38.061Z</time></trkpt><trkpt lat="45.3436567" lon="10.6352817"><ele>119.0</ele><time>2026-04-11T09:37:39.054Z</time></trkpt><trkpt lat="45.3435483" lon="10.6353117"><ele>118.99999999999999</ele><time>2026-04-11T09:37:41.067Z</time></trkpt><trkpt lat="45.343475" lon="10.6352733"><ele>119.0</ele><time>2026-04-11T09:37:42.066Z</time></trkpt><trkpt lat="45.3434017" lon="10.6352217"><ele>118.99999999999999</ele><time>2026-04-11T09:37:43.056Z</time></trkpt><trkpt lat="45.3433317" lon="10.635175"><ele>119.0</ele><time>2026-04-11T09:37:44.069Z</time></trkpt><trkpt lat="45.3432733" lon="10.6351167"><ele>119.0</ele><time>2026-04-11T09:37:45.06Z</time></trkpt><trkpt lat="45.34321" lon="10.6350633"><ele>119.0</ele><time>2026-04-11T09:37:46.081Z</time></trkpt><trkpt lat="45.34314" lon="10.6350183"><ele>118.99999999999999</ele><time>2026-04-11T09:37:47.063Z</time></trkpt><trkpt lat="45.3430667" lon="10.6349867"><ele>119.0</ele><time>2026-04-11T09:37:48.065Z</time></trkpt><trkpt lat="45.3429817" lon="10.6349617"><ele>118.0</ele><time>2026-04-11T09:37:49.06Z</time></trkpt><trkpt lat="45.3428983" lon="10.6349483"><ele>117.0</ele><time>2026-04-11T09:37:50.078Z</time></trkpt><trkpt lat="45.3428033" lon="10.634955"><ele>116.0</ele><time>2026-04-11T09:37:51.058Z</time></trkpt><trkpt lat="45.3427" lon="10.63498"><ele>115.0</ele><time>2026-04-11T09:37:52.057Z</time></trkpt><trkpt lat="45.3426" lon="10.6350333"><ele>114.0</ele><time>2026-04-11T09:37:53.06Z</time></trkpt><trkpt lat="45.3424667" lon="10.6351783"><ele>114.0</ele><time>2026-04-11T09:37:54.071Z</time></trkpt><trkpt lat="45.342345" lon="10.63529"><ele>114.0</ele><time>2026-04-11T09:37:55.063Z</time></trkpt><trkpt lat="45.3422283" lon="10.635405"><ele>114.0</ele><time>2026-04-11T09:37:56.057Z</time></trkpt><trkpt lat="45.3421033" lon="10.6355367"><ele>114.0</ele><time>2026-04-11T09:37:57.061Z</time></trkpt><trkpt lat="45.342" lon="10.6356367"><ele>113.0</ele><time>2026-04-11T09:37:58.058Z</time></trkpt><trkpt lat="45.3418983" lon="10.6357117"><ele>112.0</ele><time>2026-04-11T09:37:59.061Z</time></trkpt><trkpt lat="45.3418183" lon="10.6358133"><ele>111.0</ele><time>2026-04-11T09:38:00.082Z</time></trkpt><trkpt lat="45.34174" lon="10.6359167"><ele>110.0</ele><time>2026-04-11T09:38:01.059Z</time></trkpt><trkpt lat="45.341655" lon="10.6360183"><ele>109.0</ele><time>2026-04-11T09:38:02.058Z</time></trkpt><trkpt lat="45.3415733" lon="10.6361233"><ele>109.2</ele><time>2026-04-11T09:38:03.061Z</time></trkpt><trkpt lat="45.341495" lon="10.6362317"><ele>109.4</ele><time>2026-04-11T09:38:04.058Z</time></trkpt><trkpt lat="45.341415" lon="10.6363367"><ele>109.6</ele><time>2026-04-11T09:38:05.056Z</time></trkpt><trkpt lat="45.3413567" lon="10.6364433"><ele>109.8</ele><time>2026-04-11T09:38:06.066Z</time></trkpt><trkpt lat="45.3413" lon="10.63652"><ele>110.0</ele><time>2026-04-11T09:38:07.061Z</time></trkpt><trkpt lat="45.34125" lon="10.636575"><ele>109.0</ele><time>2026-04-11T09:38:08.061Z</time></trkpt><trkpt lat="45.3411483" lon="10.6366917"><ele>108.0</ele><time>2026-04-11T09:38:10.065Z</time></trkpt><trkpt lat="45.341105" lon="10.6368017"><ele>107.0</ele><time>2026-04-11T09:38:11.053Z</time></trkpt><trkpt lat="45.341055" lon="10.6369033"><ele>106.0</ele><time>2026-04-11T09:38:12.061Z</time></trkpt><trkpt lat="45.340995" lon="10.6370067"><ele>105.0</ele><time>2026-04-11T09:38:13.059Z</time></trkpt><trkpt lat="45.3409333" lon="10.637135"><ele>104.8</ele><time>2026-04-11T09:38:14.063Z</time></trkpt><trkpt lat="45.3408683" lon="10.637255"><ele>104.6</ele><time>2026-04-11T09:38:15.057Z</time></trkpt><trkpt lat="45.3408117" lon="10.6373717"><ele>104.4</ele><time>2026-04-11T09:38:16.064Z</time></trkpt><trkpt lat="45.34077" lon="10.637475"><ele>104.2</ele><time>2026-04-11T09:38:17.062Z</time></trkpt><trkpt lat="45.3407267" lon="10.6375617"><ele>104.0</ele><time>2026-04-11T09:38:18.065Z</time></trkpt><trkpt lat="45.3406583" lon="10.6376783"><ele>104.33333333333333</ele><time>2026-04-11T09:38:20.063Z</time></trkpt><trkpt lat="45.3406483" lon="10.6378067"><ele>104.66666666666666</ele><time>2026-04-11T09:38:23.062Z</time></trkpt><trkpt lat="45.3407083" lon="10.6379083"><ele>105.0</ele><time>2026-04-11T09:38:25.066Z</time></trkpt><trkpt lat="45.340755" lon="10.63797"><ele>105.33333333333334</ele><time>2026-04-11T09:38:26.067Z</time></trkpt><trkpt lat="45.3408167" lon="10.6380383"><ele>105.66666666666667</ele><time>2026-04-11T09:38:27.052Z</time></trkpt><trkpt lat="45.34088" lon="10.6381133"><ele>106.0</ele><time>2026-04-11T09:38:28.059Z</time></trkpt><trkpt lat="45.3409467" lon="10.63818"><ele>106.0</ele><time>2026-04-11T09:38:29.059Z</time></trkpt><trkpt lat="45.3410133" lon="10.638235"><ele>106.0</ele><time>2026-04-11T09:38:30.056Z</time></trkpt><trkpt lat="45.34108" lon="10.6382733"><ele>106.0</ele><time>2026-04-11T09:38:31.061Z</time></trkpt><trkpt lat="45.3411833" lon="10.6383317"><ele>106.0</ele><time>2026-04-11T09:38:33.061Z</time></trkpt><trkpt lat="45.3412733" lon="10.6384333"><ele>106.0</ele><time>2026-04-11T09:38:35.059Z</time></trkpt><trkpt lat="45.3413167" lon="10.63852"><ele>106.00000000000001</ele><time>2026-04-11T09:38:36.067Z</time></trkpt><trkpt lat="45.341365" lon="10.6386183"><ele>106.0</ele><time>2026-04-11T09:38:37.06Z</time></trkpt><trkpt lat="45.3414117" lon="10.6387367"><ele>106.0</ele><time>2026-04-11T09:38:38.072Z</time></trkpt><trkpt lat="45.34146" lon="10.6388567"><ele>106.0</ele><time>2026-04-11T09:38:39.057Z</time></trkpt><trkpt lat="45.34151" lon="10.6389533"><ele>106.00000000000001</ele><time>2026-04-11T09:38:40.055Z</time></trkpt><trkpt lat="45.34155" lon="10.6390233"><ele>106.0</ele><time>2026-04-11T09:38:41.054Z</time></trkpt><trkpt lat="45.3416367" lon="10.6391617"><ele>107.66666666666667</ele><time>2026-04-11T09:38:43.06Z</time></trkpt><trkpt lat="45.34169" lon="10.6392417"><ele>109.33333333333334</ele><time>2026-04-11T09:38:44.067Z</time></trkpt><trkpt lat="45.3417383" lon="10.6393267"><ele>111.0</ele><time>2026-04-11T09:38:45.059Z</time></trkpt><trkpt lat="45.3417833" lon="10.6394083"><ele>112.66666666666666</ele><time>2026-04-11T09:38:46.065Z</time></trkpt><trkpt lat="45.341825" lon="10.6394983"><ele>114.33333333333333</ele><time>2026-04-11T09:38:47.053Z</time></trkpt><trkpt lat="45.3418717" lon="10.63958"><ele>116.0</ele><time>2026-04-11T09:38:48.064Z</time></trkpt><trkpt lat="45.3419267" lon="10.6397267"><ele>116.16666666666666</ele><time>2026-04-11T09:38:50.064Z</time></trkpt><trkpt lat="45.341985" lon="10.63986"><ele>116.33333333333333</ele><time>2026-04-11T09:38:52.068Z</time></trkpt><trkpt lat="45.3420533" lon="10.6399933"><ele>116.5</ele><time>2026-04-11T09:38:54.068Z</time></trkpt><trkpt lat="45.3421" lon="10.640055"><ele>116.66666666666666</ele><time>2026-04-11T09:38:55.061Z</time></trkpt><trkpt lat="45.342155" lon="10.6401067"><ele>116.83333333333333</ele><time>2026-04-11T09:38:56.061Z</time></trkpt><trkpt lat="45.34222" lon="10.640155"><ele>117.0</ele><time>2026-04-11T09:38:57.062Z</time></trkpt><trkpt lat="45.34228" lon="10.6401983"><ele>117.6</ele><time>2026-04-11T09:38:58.064Z</time></trkpt><trkpt lat="45.3423667" lon="10.6402567"><ele>118.19999999999999</ele><time>2026-04-11T09:39:00.064Z</time></trkpt><trkpt lat="45.3424267" lon="10.6403717"><ele>118.8</ele><time>2026-04-11T09:39:02.059Z</time></trkpt><trkpt lat="45.3424467" lon="10.6404767"><ele>119.4</ele><time>2026-04-11T09:39:03.062Z</time></trkpt><trkpt lat="45.3424517" lon="10.6406083"><ele>120.0</ele><time>2026-04-11T09:39:04.072Z</time></trkpt><trkpt lat="45.3424467" lon="10.6407483"><ele>118.0</ele><time>2026-04-11T09:39:05.06Z</time></trkpt><trkpt lat="45.3424333" lon="10.64092"><ele>116.0</ele><time>2026-04-11T09:39:06.058Z</time></trkpt><trkpt lat="45.3423867" lon="10.6410883"><ele>114.0</ele><time>2026-04-11T09:39:07.064Z</time></trkpt><trkpt lat="45.3423333" lon="10.64121"><ele>112.0</ele><time>2026-04-11T09:39:08.052Z</time></trkpt><trkpt lat="45.3422633" lon="10.6413333"><ele>111.0</ele><time>2026-04-11T09:39:09.061Z</time></trkpt><trkpt lat="45.342195" lon="10.6414433"><ele>109.99999999999999</ele><time>2026-04-11T09:39:10.061Z</time></trkpt><trkpt lat="45.3421333" lon="10.6415683"><ele>108.99999999999999</ele><time>2026-04-11T09:39:11.059Z</time></trkpt><trkpt lat="45.3420817" lon="10.6416883"><ele>108.0</ele><time>2026-04-11T09:39:12.062Z</time></trkpt><trkpt lat="45.3420367" lon="10.6418167"><ele>107.0</ele><time>2026-04-11T09:39:13.054Z</time></trkpt><trkpt lat="45.3420117" lon="10.6419633"><ele>106.6</ele><time>2026-04-11T09:39:14.064Z</time></trkpt><trkpt lat="45.3419983" lon="10.6421167"><ele>106.19999999999999</ele><time>2026-04-11T09:39:15.063Z</time></trkpt><trkpt lat="45.3419767" lon="10.6422667"><ele>105.8</ele><time>2026-04-11T09:39:16.062Z</time></trkpt><trkpt lat="45.3419533" lon="10.6424067"><ele>105.4</ele><time>2026-04-11T09:39:17.06Z</time></trkpt><trkpt lat="45.3419233" lon="10.64255"><ele>105.0</ele><time>2026-04-11T09:39:18.065Z</time></trkpt><trkpt lat="45.34189" lon="10.642705"><ele>105.25</ele><time>2026-04-11T09:39:19.058Z</time></trkpt><trkpt lat="45.3418567" lon="10.64287"><ele>105.5</ele><time>2026-04-11T09:39:20.064Z</time></trkpt><trkpt lat="45.3418233" lon="10.6430483"><ele>105.75</ele><time>2026-04-11T09:39:21.06Z</time></trkpt><trkpt lat="45.3417917" lon="10.6432383"><ele>106.0</ele><time>2026-04-11T09:39:22.064Z</time></trkpt><trkpt lat="45.3417583" lon="10.6434183"><ele>106.0</ele><time>2026-04-11T09:39:23.064Z</time></trkpt><trkpt lat="45.341725" lon="10.64358"><ele>106.0</ele><time>2026-04-11T09:39:24.062Z</time></trkpt><trkpt lat="45.34169" lon="10.6437267"><ele>106.0</ele><time>2026-04-11T09:39:25.058Z</time></trkpt><trkpt lat="45.3416517" lon="10.6438417"><ele>106.0</ele><time>2026-04-11T09:39:26.065Z</time></trkpt><trkpt lat="45.3416283" lon="10.6439383"><ele>106.0</ele><time>2026-04-11T09:39:27.063Z</time></trkpt><trkpt lat="45.3415983" lon="10.6440517"><ele>105.6</ele><time>2026-04-11T09:39:28.068Z</time></trkpt><trkpt lat="45.341575" lon="10.6441733"><ele>105.19999999999999</ele><time>2026-04-11T09:39:29.064Z</time></trkpt><trkpt lat="45.3415583" lon="10.64432"><ele>104.80000000000001</ele><time>2026-04-11T09:39:30.065Z</time></trkpt><trkpt lat="45.34155" lon="10.64449"><ele>104.4</ele><time>2026-04-11T09:39:31.055Z</time></trkpt><trkpt lat="45.3415483" lon="10.6446817"><ele>104.0</ele><time>2026-04-11T09:39:32.055Z</time></trkpt><trkpt lat="45.3415483" lon="10.6448867"><ele>103.0</ele><time>2026-04-11T09:39:33.061Z</time></trkpt><trkpt lat="45.34155" lon="10.6450967"><ele>102.0</ele><time>2026-04-11T09:39:34.058Z</time></trkpt><trkpt lat="45.341545" lon="10.6453133"><ele>101.0</ele><time>2026-04-11T09:39:35.063Z</time></trkpt><trkpt lat="45.3415383" lon="10.6455333"><ele>100.75</ele><time>2026-04-11T09:39:36.066Z</time></trkpt><trkpt lat="45.3415283" lon="10.64575"><ele>100.5</ele><time>2026-04-11T09:39:37.059Z</time></trkpt><trkpt lat="45.34152" lon="10.6459633"><ele>100.25</ele><time>2026-04-11T09:39:38.071Z</time></trkpt><trkpt lat="45.341515" lon="10.646165"><ele>100.0</ele><time>2026-04-11T09:39:39.061Z</time></trkpt><trkpt lat="45.3415067" lon="10.646355"><ele>100.0</ele><time>2026-04-11T09:39:40.063Z</time></trkpt><trkpt lat="45.3414983" lon="10.646515"><ele>100.0</ele><time>2026-04-11T09:39:41.055Z</time></trkpt><trkpt lat="45.3415033" lon="10.6466667"><ele>100.0</ele><time>2026-04-11T09:39:42.064Z</time></trkpt><trkpt lat="45.3415067" lon="10.6467967"><ele>100.0</ele><time>2026-04-11T09:39:43.061Z</time></trkpt><trkpt lat="45.341505" lon="10.64692"><ele>100.0</ele><time>2026-04-11T09:39:44.068Z</time></trkpt><trkpt lat="45.341495" lon="10.64702"><ele>100.2</ele><time>2026-04-11T09:39:45.055Z</time></trkpt><trkpt lat="45.3415117" lon="10.6471717"><ele>100.4</ele><time>2026-04-11T09:39:47.056Z</time></trkpt><trkpt lat="45.341605" lon="10.64721"><ele>100.6</ele><time>2026-04-11T09:39:49.063Z</time></trkpt><trkpt lat="45.34168" lon="10.6472883"><ele>100.8</ele><time>2026-04-11T09:39:51.053Z</time></trkpt><trkpt lat="45.3417217" lon="10.64745"><ele>101.0</ele><time>2026-04-11T09:39:53.055Z</time></trkpt><trkpt lat="45.3417333" lon="10.6475817"><ele>101.0</ele><time>2026-04-11T09:39:54.077Z</time></trkpt><trkpt lat="45.341745" lon="10.6477367"><ele>101.0</ele><time>2026-04-11T09:39:55.076Z</time></trkpt><trkpt lat="45.3417667" lon="10.6479017"><ele>101.0</ele><time>2026-04-11T09:39:56.068Z</time></trkpt><trkpt lat="45.3417883" lon="10.6480717"><ele>101.0</ele><time>2026-04-11T09:39:57.059Z</time></trkpt><trkpt lat="45.341805" lon="10.6482167"><ele>100.83333333333333</ele><time>2026-04-11T09:39:58.067Z</time></trkpt><trkpt lat="45.341815" lon="10.6483333"><ele>100.66666666666666</ele><time>2026-04-11T09:39:59.057Z</time></trkpt><trkpt lat="45.34182" lon="10.648445"><ele>100.5</ele><time>2026-04-11T09:40:00.063Z</time></trkpt><trkpt lat="45.3418117" lon="10.6485467"><ele>100.33333333333334</ele><time>2026-04-11T09:40:01.067Z</time></trkpt><trkpt lat="45.3417617" lon="10.6486233"><ele>100.16666666666667</ele><time>2026-04-11T09:40:02.064Z</time></trkpt><trkpt lat="45.34173" lon="10.648745"><ele>100.0</ele><time>2026-04-11T09:40:03.06Z</time></trkpt><trkpt lat="45.3416917" lon="10.6489017"><ele>100.0</ele><time>2026-04-11T09:40:04.058Z</time></trkpt><trkpt lat="45.3416617" lon="10.64907"><ele>100.0</ele><time>2026-04-11T09:40:05.061Z</time></trkpt><trkpt lat="45.3416233" lon="10.6492433"><ele>100.0</ele><time>2026-04-11T09:40:06.067Z</time></trkpt><trkpt lat="45.341575" lon="10.6494333"><ele>100.0</ele><time>2026-04-11T09:40:07.073Z</time></trkpt><trkpt lat="45.3415267" lon="10.6496233"><ele>100.5</ele><time>2026-04-11T09:40:08.074Z</time></trkpt><trkpt lat="45.3414817" lon="10.6497883"><ele>101.0</ele><time>2026-04-11T09:40:09.065Z</time></trkpt><trkpt lat="45.3414367" lon="10.6499533"><ele>101.5</ele><time>2026-04-11T09:40:10.064Z</time></trkpt><trkpt lat="45.3414183" lon="10.65015"><ele>102.0</ele><time>2026-04-11T09:40:11.063Z</time></trkpt><trkpt lat="45.3413983" lon="10.65032"><ele>102.19999999999999</ele><time>2026-04-11T09:40:12.074Z</time></trkpt><trkpt lat="45.3413833" lon="10.65046"><ele>102.4</ele><time>2026-04-11T09:40:13.066Z</time></trkpt><trkpt lat="45.341385" lon="10.650565"><ele>102.6</ele><time>2026-04-11T09:40:14.072Z</time></trkpt><trkpt lat="45.3414333" lon="10.6506883"><ele>102.80000000000001</ele><time>2026-04-11T09:40:15.068Z</time></trkpt><trkpt lat="45.3414667" lon="10.6508033"><ele>103.0</ele><time>2026-04-11T09:40:16.059Z</time></trkpt><trkpt lat="45.3415017" lon="10.6509317"><ele>103.0</ele><time>2026-04-11T09:40:17.065Z</time></trkpt><trkpt lat="45.341565" lon="10.6510617"><ele>103.0</ele><time>2026-04-11T09:40:18.073Z</time></trkpt><trkpt lat="45.3416333" lon="10.65116"><ele>103.0</ele><time>2026-04-11T09:40:19.062Z</time></trkpt><trkpt lat="45.3417033" lon="10.6512467"><ele>103.0</ele><time>2026-04-11T09:40:20.066Z</time></trkpt><trkpt lat="45.3417567" lon="10.65132"><ele>103.0</ele><time>2026-04-11T09:40:21.064Z</time></trkpt><trkpt lat="45.34181" lon="10.651445"><ele>102.80000000000001</ele><time>2026-04-11T09:40:23.056Z</time></trkpt><trkpt lat="45.3418783" lon="10.6514967"><ele>102.6</ele><time>2026-04-11T09:40:25.071Z</time></trkpt><trkpt lat="45.3419733" lon="10.6515083"><ele>102.4</ele><time>2026-04-11T09:40:27.071Z</time></trkpt><trkpt lat="45.3420383" lon="10.6515933"><ele>102.19999999999999</ele><time>2026-04-11T09:40:29.064Z</time></trkpt><trkpt lat="45.3420617" lon="10.6517883"><ele>102.0</ele><time>2026-04-11T09:40:31.054Z</time></trkpt><trkpt lat="45.3420717" lon="10.65192"><ele>101.8</ele><time>2026-04-11T09:40:32.071Z</time></trkpt><trkpt lat="45.3420933" lon="10.65207"><ele>101.6</ele><time>2026-04-11T09:40:33.056Z</time></trkpt><trkpt lat="45.3421217" lon="10.6522267"><ele>101.39999999999999</ele><time>2026-04-11T09:40:34.069Z</time></trkpt><trkpt lat="45.3421333" lon="10.65238"><ele>101.19999999999999</ele><time>2026-04-11T09:40:35.053Z</time></trkpt><trkpt lat="45.3421267" lon="10.6525033"><ele>101.0</ele><time>2026-04-11T09:40:36.056Z</time></trkpt><trkpt lat="45.3421017" lon="10.65266"><ele>100.6</ele><time>2026-04-11T09:40:37.061Z</time></trkpt><trkpt lat="45.3420767" lon="10.6527917"><ele>100.19999999999999</ele><time>2026-04-11T09:40:38.058Z</time></trkpt><trkpt lat="45.34205" lon="10.6529433"><ele>99.80000000000001</ele><time>2026-04-11T09:40:39.062Z</time></trkpt><trkpt lat="45.342015" lon="10.65309"><ele>99.4</ele><time>2026-04-11T09:40:40.071Z</time></trkpt><trkpt lat="45.3419817" lon="10.65323"><ele>99.0</ele><time>2026-04-11T09:40:41.059Z</time></trkpt><trkpt lat="45.3419483" lon="10.65336"><ele>99.0</ele><time>2026-04-11T09:40:42.052Z</time></trkpt><trkpt lat="45.3419333" lon="10.6534833"><ele>99.0</ele><time>2026-04-11T09:40:43.059Z</time></trkpt><trkpt lat="45.3419283" lon="10.6536067"><ele>99.0</ele><time>2026-04-11T09:40:44.057Z</time></trkpt><trkpt lat="45.3419317" lon="10.6537433"><ele>99.0</ele><time>2026-04-11T09:40:45.054Z</time></trkpt><trkpt lat="45.3419333" lon="10.6539067"><ele>99.0</ele><time>2026-04-11T09:40:46.064Z</time></trkpt><trkpt lat="45.34193" lon="10.6540633"><ele>99.0</ele><time>2026-04-11T09:40:47.066Z</time></trkpt><trkpt lat="45.3419" lon="10.6542417"><ele>99.0</ele><time>2026-04-11T09:40:48.065Z</time></trkpt><trkpt lat="45.3418733" lon="10.6543883"><ele>99.0</ele><time>2026-04-11T09:40:49.053Z</time></trkpt><trkpt lat="45.34184" lon="10.6545183"><ele>99.0</ele><time>2026-04-11T09:40:50.06Z</time></trkpt><trkpt lat="45.3418033" lon="10.6546833"><ele>99.0</ele><time>2026-04-11T09:40:51.055Z</time></trkpt><trkpt lat="45.34177" lon="10.6548367"><ele>99.0</ele><time>2026-04-11T09:40:52.064Z</time></trkpt><trkpt lat="45.341735" lon="10.6549667"><ele>99.0</ele><time>2026-04-11T09:40:53.068Z</time></trkpt><trkpt lat="45.34169" lon="10.6551117"><ele>99.0</ele><time>2026-04-11T09:40:54.06Z</time></trkpt><trkpt lat="45.34165" lon="10.65525"><ele>99.0</ele><time>2026-04-11T09:40:55.054Z</time></trkpt><trkpt lat="45.3416383" lon="10.6553783"><ele>99.0</ele><time>2026-04-11T09:40:56.064Z</time></trkpt><trkpt lat="45.3416333" lon="10.6554983"><ele>99.0</ele><time>2026-04-11T09:40:57.065Z</time></trkpt><trkpt lat="45.3416333" lon="10.6556283"><ele>99.0</ele><time>2026-04-11T09:40:58.06Z</time></trkpt><trkpt lat="45.3416183" lon="10.6557683"><ele>99.0</ele><time>2026-04-11T09:40:59.063Z</time></trkpt><trkpt lat="45.3416167" lon="10.655915"><ele>99.0</ele><time>2026-04-11T09:41:00.063Z</time></trkpt><trkpt lat="45.3416067" lon="10.6560583"><ele>98.80000000000001</ele><time>2026-04-11T09:41:01.059Z</time></trkpt><trkpt lat="45.341595" lon="10.6562083"><ele>98.60000000000001</ele><time>2026-04-11T09:41:02.069Z</time></trkpt><trkpt lat="45.341595" lon="10.6563383"><ele>98.4</ele><time>2026-04-11T09:41:03.061Z</time></trkpt><trkpt lat="45.3416017" lon="10.6564833"><ele>98.2</ele><time>2026-04-11T09:41:04.058Z</time></trkpt><trkpt lat="45.341595" lon="10.6565983"><ele>98.0</ele><time>2026-04-11T09:41:05.063Z</time></trkpt><trkpt lat="45.34159" lon="10.656715"><ele>98.0</ele><time>2026-04-11T09:41:06.066Z</time></trkpt><trkpt lat="45.3415883" lon="10.6568167"><ele>98.0</ele><time>2026-04-11T09:41:07.083Z</time></trkpt><trkpt lat="45.3415667" lon="10.6569667"><ele>98.0</ele><time>2026-04-11T09:41:09.056Z</time></trkpt><trkpt lat="45.3414683" lon="10.6570267"><ele>98.0</ele><time>2026-04-11T09:41:11.062Z</time></trkpt><trkpt lat="45.3413817" lon="10.657025"><ele>98.0</ele><time>2026-04-11T09:41:12.063Z</time></trkpt><trkpt lat="45.3412733" lon="10.65702"><ele>97.60000000000001</ele><time>2026-04-11T09:41:13.065Z</time></trkpt><trkpt lat="45.341155" lon="10.6570133"><ele>97.2</ele><time>2026-04-11T09:41:14.07Z</time></trkpt><trkpt lat="45.3410417" lon="10.6570333"><ele>96.8</ele><time>2026-04-11T09:41:15.062Z</time></trkpt><trkpt lat="45.3409367" lon="10.6570483"><ele>96.4</ele><time>2026-04-11T09:41:16.063Z</time></trkpt><trkpt lat="45.3408467" lon="10.6570783"><ele>96.0</ele><time>2026-04-11T09:41:17.077Z</time></trkpt><trkpt lat="45.340775" lon="10.6571017"><ele>96.0</ele><time>2026-04-11T09:41:18.07Z</time></trkpt><trkpt lat="45.340685" lon="10.6571383"><ele>96.0</ele><time>2026-04-11T09:41:20.072Z</time></trkpt><trkpt lat="45.3406583" lon="10.657275"><ele>96.0</ele><time>2026-04-11T09:41:22.077Z</time></trkpt><trkpt lat="45.3406567" lon="10.6573717"><ele>96.0</ele><time>2026-04-11T09:41:23.064Z</time></trkpt><trkpt lat="45.3406567" lon="10.65749"><ele>96.0</ele><time>2026-04-11T09:41:24.08Z</time></trkpt><trkpt lat="45.3406567" lon="10.6576317"><ele>96.0</ele><time>2026-04-11T09:41:25.061Z</time></trkpt><trkpt lat="45.34065" lon="10.657785"><ele>95.75</ele><time>2026-04-11T09:41:26.065Z</time></trkpt><trkpt lat="45.3406333" lon="10.6579483"><ele>95.5</ele><time>2026-04-11T09:41:27.057Z</time></trkpt><trkpt lat="45.34062" lon="10.6581317"><ele>95.25</ele><time>2026-04-11T09:41:28.061Z</time></trkpt><trkpt lat="45.340605" lon="10.658305"><ele>95.0</ele><time>2026-04-11T09:41:29.084Z</time></trkpt><trkpt lat="45.340595" lon="10.6584533"><ele>95.0</ele><time>2026-04-11T09:41:30.062Z</time></trkpt><trkpt lat="45.3405883" lon="10.658585"><ele>95.0</ele><time>2026-04-11T09:41:31.067Z</time></trkpt><trkpt lat="45.340565" lon="10.6587233"><ele>95.0</ele><time>2026-04-11T09:41:32.061Z</time></trkpt><trkpt lat="45.3405567" lon="10.6588567"><ele>95.0</ele><time>2026-04-11T09:41:33.098Z</time></trkpt><trkpt lat="45.3405433" lon="10.6589667"><ele>95.0</ele><time>2026-04-11T09:41:34.067Z</time></trkpt><trkpt lat="45.3405333" lon="10.6590633"><ele>95.0</ele><time>2026-04-11T09:41:35.065Z</time></trkpt><trkpt lat="45.3405167" lon="10.65915"><ele>94.8</ele><time>2026-04-11T09:41:36.058Z</time></trkpt><trkpt lat="45.3405167" lon="10.65928"><ele>94.6</ele><time>2026-04-11T09:41:38.063Z</time></trkpt><trkpt lat="45.3405633" lon="10.6593917"><ele>94.4</ele><time>2026-04-11T09:42:49.065Z</time></trkpt><trkpt lat="45.3406683" lon="10.65939"><ele>94.2</ele><time>2026-04-11T09:42:51.075Z</time></trkpt><trkpt lat="45.34075" lon="10.6593717"><ele>94.0</ele><time>2026-04-11T09:42:52.071Z</time></trkpt><trkpt lat="45.340835" lon="10.65935"><ele>94.0</ele><time>2026-04-11T09:42:53.062Z</time></trkpt><trkpt lat="45.3409233" lon="10.6593317"><ele>94.0</ele><time>2026-04-11T09:42:54.073Z</time></trkpt><trkpt lat="45.3410083" lon="10.659305"><ele>94.0</ele><time>2026-04-11T09:42:55.065Z</time></trkpt><trkpt lat="45.3411333" lon="10.659285"><ele>94.0</ele><time>2026-04-11T09:42:56.072Z</time></trkpt><trkpt lat="45.3412517" lon="10.6592683"><ele>94.0</ele><time>2026-04-11T09:42:57.065Z</time></trkpt><trkpt lat="45.341335" lon="10.6592683"><ele>94.66666666666666</ele><time>2026-04-11T09:42:58.081Z</time></trkpt><trkpt lat="45.34141" lon="10.6592867"><ele>95.33333333333333</ele><time>2026-04-11T09:42:59.066Z</time></trkpt><trkpt lat="45.34148" lon="10.6593267"><ele>96.0</ele><time>2026-04-11T09:43:00.084Z</time></trkpt><trkpt lat="45.3415517" lon="10.6593583"><ele>96.66666666666666</ele><time>2026-04-11T09:43:01.079Z</time></trkpt><trkpt lat="45.3416283" lon="10.6593867"><ele>97.33333333333333</ele><time>2026-04-11T09:43:02.078Z</time></trkpt><trkpt lat="45.3417083" lon="10.65941"><ele>98.0</ele><time>2026-04-11T09:43:03.072Z</time></trkpt><trkpt lat="45.34179" lon="10.6594217"><ele>98.0</ele><time>2026-04-11T09:43:04.085Z</time></trkpt><trkpt lat="45.34188" lon="10.65942"><ele>98.0</ele><time>2026-04-11T09:43:05.057Z</time></trkpt><trkpt lat="45.34198" lon="10.6593967"><ele>98.0</ele><time>2026-04-11T09:43:06.066Z</time></trkpt><trkpt lat="45.3421017" lon="10.6593533"><ele>98.0</ele><time>2026-04-11T09:43:07.068Z</time></trkpt><trkpt lat="45.3421817" lon="10.6593167"><ele>98.0</ele><time>2026-04-11T09:43:08.067Z</time></trkpt><trkpt lat="45.342275" lon="10.6592667"><ele>98.49999999999999</ele><time>2026-04-11T09:43:09.068Z</time></trkpt><trkpt lat="45.3423533" lon="10.6592217"><ele>99.0</ele><time>2026-04-11T09:43:10.071Z</time></trkpt><trkpt lat="45.3424333" lon="10.65918"><ele>99.5</ele><time>2026-04-11T09:43:11.087Z</time></trkpt><trkpt lat="45.3425067" lon="10.659145"><ele>100.0</ele><time>2026-04-11T09:43:12.067Z</time></trkpt><trkpt lat="45.3426017" lon="10.6591033"><ele>100.49999999999999</ele><time>2026-04-11T09:43:13.073Z</time></trkpt><trkpt lat="45.342685" lon="10.65906"><ele>101.0</ele><time>2026-04-11T09:43:14.064Z</time></trkpt><trkpt lat="45.3427717" lon="10.65902"><ele>101.0</ele><time>2026-04-11T09:43:15.062Z</time></trkpt><trkpt lat="45.3428467" lon="10.6589883"><ele>101.0</ele><time>2026-04-11T09:43:16.075Z</time></trkpt><trkpt lat="45.3429483" lon="10.6589817"><ele>101.0</ele><time>2026-04-11T09:43:18.07Z</time></trkpt><trkpt lat="45.343" lon="10.6590617"><ele>101.0</ele><time>2026-04-11T09:43:20.07Z</time></trkpt><trkpt lat="45.3429783" lon="10.659295"><ele>101.0</ele><time>2026-04-11T09:43:22.079Z</time></trkpt><trkpt lat="45.342965" lon="10.6594333"><ele>101.0</ele><time>2026-04-11T09:43:23.063Z</time></trkpt><trkpt lat="45.342955" lon="10.6596167"><ele>101.0</ele><time>2026-04-11T09:43:24.064Z</time></trkpt><trkpt lat="45.3429433" lon="10.6597583"><ele>101.0</ele><time>2026-04-11T09:43:25.056Z</time></trkpt><trkpt lat="45.3429317" lon="10.6599"><ele>101.0</ele><time>2026-04-11T09:43:26.061Z</time></trkpt><trkpt lat="45.3429283" lon="10.6600233"><ele>101.0</ele><time>2026-04-11T09:43:27.063Z</time></trkpt><trkpt lat="45.342925" lon="10.660135"><ele>101.0</ele><time>2026-04-11T09:43:28.07Z</time></trkpt><trkpt lat="45.34291" lon="10.66023"><ele>101.0</ele><time>2026-04-11T09:43:29.069Z</time></trkpt><trkpt lat="45.34288" lon="10.6603133"><ele>101.0</ele><time>2026-04-11T09:43:30.074Z</time></trkpt><trkpt lat="45.3428233" lon="10.6603567"><ele>101.0</ele><time>2026-04-11T09:43:31.071Z</time></trkpt><trkpt lat="45.342745" lon="10.66046"><ele>101.0</ele><time>2026-04-11T09:43:33.063Z</time></trkpt><trkpt lat="45.3427417" lon="10.66055"><ele>101.0</ele><time>2026-04-11T09:43:34.065Z</time></trkpt><trkpt lat="45.3427383" lon="10.6606617"><ele>101.0</ele><time>2026-04-11T09:43:35.069Z</time></trkpt><trkpt lat="45.3427417" lon="10.6608017"><ele>101.0</ele><time>2026-04-11T09:43:36.074Z</time></trkpt><trkpt lat="45.3427467" lon="10.660975"><ele>101.0</ele><time>2026-04-11T09:43:37.071Z</time></trkpt><trkpt lat="45.342775" lon="10.6611917"><ele>101.0</ele><time>2026-04-11T09:43:38.068Z</time></trkpt><trkpt lat="45.342795" lon="10.6614083"><ele>101.0</ele><time>2026-04-11T09:43:39.069Z</time></trkpt><trkpt lat="45.3428167" lon="10.6616083"><ele>101.25</ele><time>2026-04-11T09:43:40.074Z</time></trkpt><trkpt lat="45.3428533" lon="10.6617967"><ele>101.5</ele><time>2026-04-11T09:43:41.062Z</time></trkpt><trkpt lat="45.34289" lon="10.6619483"><ele>101.75</ele><time>2026-04-11T09:43:42.074Z</time></trkpt><trkpt lat="45.3429117" lon="10.6620867"><ele>102.0</ele><time>2026-04-11T09:43:43.072Z</time></trkpt><trkpt lat="45.3429267" lon="10.6622583"><ele>102.0</ele><time>2026-04-11T09:43:44.089Z</time></trkpt><trkpt lat="45.34294" lon="10.6623883"><ele>102.0</ele><time>2026-04-11T09:43:45.085Z</time></trkpt><trkpt lat="45.3429217" lon="10.6625183"><ele>102.0</ele><time>2026-04-11T09:43:46.085Z</time></trkpt><trkpt lat="45.3429033" lon="10.6626233"><ele>102.0</ele><time>2026-04-11T09:43:47.068Z</time></trkpt><trkpt lat="45.34289" lon="10.6627417"><ele>102.0</ele><time>2026-04-11T09:43:48.059Z</time></trkpt><trkpt lat="45.3428933" lon="10.66284"><ele>102.0</ele><time>2026-04-11T09:43:49.072Z</time></trkpt><trkpt lat="45.342885" lon="10.663005"><ele>101.39999999999999</ele><time>2026-04-11T09:43:51.07Z</time></trkpt><trkpt lat="45.34287" lon="10.6631183"><ele>100.8</ele><time>2026-04-11T09:43:53.073Z</time></trkpt><trkpt lat="45.3428017" lon="10.66318"><ele>100.2</ele><time>2026-04-11T09:43:55.092Z</time></trkpt><trkpt lat="45.342685" lon="10.6632583"><ele>99.6</ele><time>2026-04-11T09:43:57.059Z</time></trkpt><trkpt lat="45.342605" lon="10.66328"><ele>99.0</ele><time>2026-04-11T09:43:58.068Z</time></trkpt><trkpt lat="45.3425117" lon="10.663325"><ele>99.0</ele><time>2026-04-11T09:43:59.062Z</time></trkpt><trkpt lat="45.3423983" lon="10.6633517"><ele>99.0</ele><time>2026-04-11T09:44:00.076Z</time></trkpt><trkpt lat="45.3422817" lon="10.6633633"><ele>99.0</ele><time>2026-04-11T09:44:01.057Z</time></trkpt><trkpt lat="45.3421617" lon="10.663395"><ele>99.0</ele><time>2026-04-11T09:44:02.071Z</time></trkpt><trkpt lat="45.3420483" lon="10.6634383"><ele>98.80000000000001</ele><time>2026-04-11T09:44:03.056Z</time></trkpt><trkpt lat="45.3419333" lon="10.663495"><ele>98.60000000000001</ele><time>2026-04-11T09:44:04.064Z</time></trkpt><trkpt lat="45.3418267" lon="10.6635583"><ele>98.4</ele><time>2026-04-11T09:44:05.058Z</time></trkpt><trkpt lat="45.3417333" lon="10.663615"><ele>98.2</ele><time>2026-04-11T09:44:06.067Z</time></trkpt><trkpt lat="45.341645" lon="10.66366"><ele>98.0</ele><time>2026-04-11T09:44:07.058Z</time></trkpt><trkpt lat="45.3415533" lon="10.6636917"><ele>98.0</ele><time>2026-04-11T09:44:08.06Z</time></trkpt><trkpt lat="45.3414583" lon="10.6637183"><ele>98.0</ele><time>2026-04-11T09:44:09.059Z</time></trkpt><trkpt lat="45.34136" lon="10.6637267"><ele>98.0</ele><time>2026-04-11T09:44:10.065Z</time></trkpt><trkpt lat="45.3412417" lon="10.6637483"><ele>98.0</ele><time>2026-04-11T09:44:11.082Z</time></trkpt><trkpt lat="45.3411233" lon="10.6637667"><ele>98.0</ele><time>2026-04-11T09:44:12.076Z</time></trkpt><trkpt lat="45.3410117" lon="10.6638"><ele>97.5</ele><time>2026-04-11T09:44:13.069Z</time></trkpt><trkpt lat="45.3409067" lon="10.6638433"><ele>97.0</ele><time>2026-04-11T09:44:14.074Z</time></trkpt><trkpt lat="45.340805" lon="10.6638933"><ele>96.5</ele><time>2026-04-11T09:44:15.07Z</time></trkpt><trkpt lat="45.3406917" lon="10.6640017"><ele>96.0</ele><time>2026-04-11T09:44:16.064Z</time></trkpt><trkpt lat="45.3405667" lon="10.664095"><ele>95.75</ele><time>2026-04-11T09:44:17.07Z</time></trkpt><trkpt lat="45.3404317" lon="10.66418"><ele>95.5</ele><time>2026-04-11T09:44:18.065Z</time></trkpt><trkpt lat="45.3403083" lon="10.6642433"><ele>95.25</ele><time>2026-04-11T09:44:19.065Z</time></trkpt><trkpt lat="45.3401883" lon="10.6643"><ele>95.0</ele><time>2026-04-11T09:44:20.072Z</time></trkpt><trkpt lat="45.340055" lon="10.6643583"><ele>95.0</ele><time>2026-04-11T09:44:21.079Z</time></trkpt><trkpt lat="45.339905" lon="10.664395"><ele>95.0</ele><time>2026-04-11T09:44:22.064Z</time></trkpt><trkpt lat="45.3397817" lon="10.6644617"><ele>95.0</ele><time>2026-04-11T09:44:23.084Z</time></trkpt><trkpt lat="45.3396867" lon="10.6644633"><ele>95.0</ele><time>2026-04-11T09:44:24.092Z</time></trkpt><trkpt lat="45.339595" lon="10.6645"><ele>94.8</ele><time>2026-04-11T09:44:25.082Z</time></trkpt><trkpt lat="45.3395083" lon="10.664545"><ele>94.6</ele><time>2026-04-11T09:44:26.065Z</time></trkpt><trkpt lat="45.3394" lon="10.66457"><ele>94.4</ele><time>2026-04-11T09:44:27.071Z</time></trkpt><trkpt lat="45.3393133" lon="10.6645517"><ele>94.2</ele><time>2026-04-11T09:44:28.068Z</time></trkpt><trkpt lat="45.3392283" lon="10.6645267"><ele>94.0</ele><time>2026-04-11T09:44:29.059Z</time></trkpt><trkpt lat="45.3391367" lon="10.6645133"><ele>94.0</ele><time>2026-04-11T09:44:30.068Z</time></trkpt><trkpt lat="45.3390433" lon="10.664505"><ele>94.0</ele><time>2026-04-11T09:44:31.063Z</time></trkpt><trkpt lat="45.338955" lon="10.664495"><ele>94.0</ele><time>2026-04-11T09:44:32.069Z</time></trkpt><trkpt lat="45.3388817" lon="10.66449"><ele>94.0</ele><time>2026-04-11T09:44:33.058Z</time></trkpt><trkpt lat="45.3387917" lon="10.6645033"><ele>94.0</ele><time>2026-04-11T09:44:34.078Z</time></trkpt><trkpt lat="45.3387167" lon="10.6645217"><ele>94.0</ele><time>2026-04-11T09:44:35.056Z</time></trkpt><trkpt lat="45.3386517" lon="10.6645417"><ele>93.83333333333333</ele><time>2026-04-11T09:44:36.072Z</time></trkpt><trkpt lat="45.338605" lon="10.664675"><ele>93.66666666666666</ele><time>2026-04-11T09:44:38.056Z</time></trkpt><trkpt lat="45.3386033" lon="10.6647783"><ele>93.5</ele><time>2026-04-11T09:44:39.055Z</time></trkpt><trkpt lat="45.3386033" lon="10.6648783"><ele>93.33333333333333</ele><time>2026-04-11T09:44:40.062Z</time></trkpt><trkpt lat="45.3386" lon="10.6649783"><ele>93.16666666666667</ele><time>2026-04-11T09:44:41.054Z</time></trkpt><trkpt lat="45.3385917" lon="10.6650833"><ele>93.0</ele><time>2026-04-11T09:44:42.064Z</time></trkpt><trkpt lat="45.3385917" lon="10.6651967"><ele>93.0</ele><time>2026-04-11T09:44:43.068Z</time></trkpt><trkpt lat="45.338595" lon="10.6653267"><ele>93.0</ele><time>2026-04-11T09:44:44.064Z</time></trkpt><trkpt lat="45.3386" lon="10.6654567"><ele>93.0</ele><time>2026-04-11T09:44:45.06Z</time></trkpt><trkpt lat="45.3385967" lon="10.6655883"><ele>93.0</ele><time>2026-04-11T09:44:46.06Z</time></trkpt><trkpt lat="45.3385967" lon="10.6657167"><ele>93.0</ele><time>2026-04-11T09:44:47.059Z</time></trkpt><trkpt lat="45.3386" lon="10.6658367"><ele>93.0</ele><time>2026-04-11T09:44:48.059Z</time></trkpt><trkpt lat="45.338605" lon="10.66595"><ele>93.0</ele><time>2026-04-11T09:44:49.06Z</time></trkpt><trkpt lat="45.3386083" lon="10.66605"><ele>93.0</ele><time>2026-04-11T09:44:50.06Z</time></trkpt><trkpt lat="45.3386183" lon="10.6662317"><ele>93.0</ele><time>2026-04-11T09:44:52.056Z</time></trkpt><trkpt lat="45.3386217" lon="10.6663433"><ele>93.0</ele><time>2026-04-11T09:44:53.061Z</time></trkpt><trkpt lat="45.3386233" lon="10.6664683"><ele>93.0</ele><time>2026-04-11T09:44:54.057Z</time></trkpt><trkpt lat="45.3386217" lon="10.6666167"><ele>92.5</ele><time>2026-04-11T09:44:55.061Z</time></trkpt><trkpt lat="45.338605" lon="10.6667867"><ele>92.0</ele><time>2026-04-11T09:44:56.063Z</time></trkpt><trkpt lat="45.33859" lon="10.6669633"><ele>91.5</ele><time>2026-04-11T09:44:57.062Z</time></trkpt><trkpt lat="45.3385817" lon="10.6671467"><ele>91.0</ele><time>2026-04-11T09:44:58.057Z</time></trkpt><trkpt lat="45.3385767" lon="10.6673583"><ele>90.4</ele><time>2026-04-11T09:44:59.063Z</time></trkpt><trkpt lat="45.3386" lon="10.6675267"><ele>89.8</ele><time>2026-04-11T09:45:00.063Z</time></trkpt><trkpt lat="45.3386167" lon="10.6676567"><ele>89.2</ele><time>2026-04-11T09:45:01.055Z</time></trkpt><trkpt lat="45.33862" lon="10.6677867"><ele>88.60000000000001</ele><time>2026-04-11T09:45:02.06Z</time></trkpt><trkpt lat="45.3386133" lon="10.6679083"><ele>88.0</ele><time>2026-04-11T09:45:03.061Z</time></trkpt><trkpt lat="45.3386067" lon="10.6680417"><ele>87.25</ele><time>2026-04-11T09:45:04.054Z</time></trkpt><trkpt lat="45.338595" lon="10.6682017"><ele>86.5</ele><time>2026-04-11T09:45:05.052Z</time></trkpt><trkpt lat="45.338585" lon="10.6683683"><ele>85.75</ele><time>2026-04-11T09:45:06.059Z</time></trkpt><trkpt lat="45.3385883" lon="10.6685417"><ele>85.0</ele><time>2026-04-11T09:45:07.052Z</time></trkpt><trkpt lat="45.3385633" lon="10.6687067"><ele>85.0</ele><time>2026-04-11T09:45:08.058Z</time></trkpt><trkpt lat="45.3385417" lon="10.6688833"><ele>85.0</ele><time>2026-04-11T09:45:09.067Z</time></trkpt><trkpt lat="45.3385117" lon="10.669045"><ele>85.0</ele><time>2026-04-11T09:45:10.062Z</time></trkpt><trkpt lat="45.3384517" lon="10.6692017"><ele>85.0</ele><time>2026-04-11T09:45:11.055Z</time></trkpt><trkpt lat="45.3383733" lon="10.6693517"><ele>85.25</ele><time>2026-04-11T09:45:12.066Z</time></trkpt><trkpt lat="45.3382783" lon="10.6695167"><ele>85.5</ele><time>2026-04-11T09:45:13.056Z</time></trkpt><trkpt lat="45.3381883" lon="10.669635"><ele>85.75</ele><time>2026-04-11T09:45:14.069Z</time></trkpt><trkpt lat="45.33809" lon="10.6697533"><ele>86.0</ele><time>2026-04-11T09:45:15.065Z</time></trkpt><trkpt lat="45.3380067" lon="10.6698633"><ele>86.0</ele><time>2026-04-11T09:45:16.059Z</time></trkpt><trkpt lat="45.3379367" lon="10.669955"><ele>86.0</ele><time>2026-04-11T09:45:17.057Z</time></trkpt><trkpt lat="45.33786" lon="10.670085"><ele>86.0</ele><time>2026-04-11T09:45:18.065Z</time></trkpt><trkpt lat="45.3378233" lon="10.6702517"><ele>86.0</ele><time>2026-04-11T09:45:19.059Z</time></trkpt><trkpt lat="45.3378033" lon="10.67038"><ele>86.0</ele><time>2026-04-11T09:45:20.061Z</time></trkpt><trkpt lat="45.33776" lon="10.67048"><ele>85.83333333333334</ele><time>2026-04-11T09:45:21.064Z</time></trkpt><trkpt lat="45.3377183" lon="10.6705633"><ele>85.66666666666667</ele><time>2026-04-11T09:45:22.059Z</time></trkpt><trkpt lat="45.33766" lon="10.6706133"><ele>85.5</ele><time>2026-04-11T09:45:23.069Z</time></trkpt><trkpt lat="45.3375883" lon="10.670635"><ele>85.33333333333333</ele><time>2026-04-11T09:45:24.071Z</time></trkpt><trkpt lat="45.3375117" lon="10.670635"><ele>85.16666666666666</ele><time>2026-04-11T09:45:25.059Z</time></trkpt><trkpt lat="45.3374317" lon="10.6706283"><ele>85.0</ele><time>2026-04-11T09:45:26.062Z</time></trkpt><trkpt lat="45.3373183" lon="10.6706083"><ele>85.0</ele><time>2026-04-11T09:45:28.07Z</time></trkpt><trkpt lat="45.3372183" lon="10.670585"><ele>85.0</ele><time>2026-04-11T09:45:30.06Z</time></trkpt><trkpt lat="45.33711" lon="10.6705483"><ele>85.0</ele><time>2026-04-11T09:45:32.062Z</time></trkpt><trkpt lat="45.337045" lon="10.6705217"><ele>85.0</ele><time>2026-04-11T09:45:33.067Z</time></trkpt><trkpt lat="45.33697" lon="10.6704783"><ele>85.0</ele><time>2026-04-11T09:45:34.065Z</time></trkpt><trkpt lat="45.3369017" lon="10.6704283"><ele>85.0</ele><time>2026-04-11T09:45:35.06Z</time></trkpt><trkpt lat="45.3368383" lon="10.6703783"><ele>85.0</ele><time>2026-04-11T09:45:36.074Z</time></trkpt><trkpt lat="45.336785" lon="10.67031"><ele>85.0</ele><time>2026-04-11T09:45:37.06Z</time></trkpt><trkpt lat="45.3367267" lon="10.6702433"><ele>85.0</ele><time>2026-04-11T09:45:38.06Z</time></trkpt><trkpt lat="45.336655" lon="10.6701883"><ele>85.0</ele><time>2026-04-11T09:45:39.057Z</time></trkpt><trkpt lat="45.3365633" lon="10.6701733"><ele>85.0</ele><time>2026-04-11T09:45:40.085Z</time></trkpt><trkpt lat="45.3364717" lon="10.6701883"><ele>85.0</ele><time>2026-04-11T09:45:41.075Z</time></trkpt><trkpt lat="45.3363767" lon="10.67023"><ele>85.2</ele><time>2026-04-11T09:45:42.064Z</time></trkpt><trkpt lat="45.336265" lon="10.670315"><ele>85.4</ele><time>2026-04-11T09:45:43.061Z</time></trkpt><trkpt lat="45.336175" lon="10.67039"><ele>85.6</ele><time>2026-04-11T09:45:44.057Z</time></trkpt><trkpt lat="45.3360867" lon="10.6704717"><ele>85.8</ele><time>2026-04-11T09:45:45.063Z</time></trkpt><trkpt lat="45.3359883" lon="10.6705367"><ele>86.0</ele><time>2026-04-11T09:45:46.063Z</time></trkpt><trkpt lat="45.3359367" lon="10.6706267"><ele>86.0</ele><time>2026-04-11T09:45:47.068Z</time></trkpt><trkpt lat="45.3358817" lon="10.6707533"><ele>86.0</ele><time>2026-04-11T09:45:48.083Z</time></trkpt><trkpt lat="45.33582" lon="10.6708583"><ele>86.0</ele><time>2026-04-11T09:45:49.053Z</time></trkpt><trkpt lat="45.3357567" lon="10.67099"><ele>86.0</ele><time>2026-04-11T09:45:50.06Z</time></trkpt><trkpt lat="45.3356883" lon="10.671135"><ele>86.0</ele><time>2026-04-11T09:45:51.081Z</time></trkpt><trkpt lat="45.33562" lon="10.6712867"><ele>85.8</ele><time>2026-04-11T09:45:52.069Z</time></trkpt><trkpt lat="45.33556" lon="10.6714267"><ele>85.6</ele><time>2026-04-11T09:45:53.069Z</time></trkpt><trkpt lat="45.335525" lon="10.6716117"><ele>85.4</ele><time>2026-04-11T09:45:54.062Z</time></trkpt><trkpt lat="45.33549" lon="10.6717433"><ele>85.2</ele><time>2026-04-11T09:45:55.059Z</time></trkpt><trkpt lat="45.335465" lon="10.6718567"><ele>85.0</ele><time>2026-04-11T09:45:56.07Z</time></trkpt><trkpt lat="45.3354383" lon="10.67194"><ele>84.83333333333333</ele><time>2026-04-11T09:45:57.074Z</time></trkpt><trkpt lat="45.3354083" lon="10.6720333"><ele>84.66666666666666</ele><time>2026-04-11T09:45:59.063Z</time></trkpt><trkpt lat="45.3354367" lon="10.6721183"><ele>84.5</ele><time>2026-04-11T09:46:01.061Z</time></trkpt><trkpt lat="45.3354917" lon="10.672165"><ele>84.33333333333333</ele><time>2026-04-11T09:46:02.064Z</time></trkpt><trkpt lat="45.3355517" lon="10.67223"><ele>84.16666666666667</ele><time>2026-04-11T09:46:03.06Z</time></trkpt><trkpt lat="45.3356283" lon="10.672295"><ele>84.0</ele><time>2026-04-11T09:46:04.06Z</time></trkpt><trkpt lat="45.33571" lon="10.6723667"><ele>84.0</ele><time>2026-04-11T09:46:05.059Z</time></trkpt><trkpt lat="45.3358033" lon="10.6724733"><ele>84.0</ele><time>2026-04-11T09:46:06.067Z</time></trkpt><trkpt lat="45.3358933" lon="10.6725633"><ele>84.0</ele><time>2026-04-11T09:46:07.062Z</time></trkpt><trkpt lat="45.3359917" lon="10.67265"><ele>84.0</ele><time>2026-04-11T09:46:08.057Z</time></trkpt><trkpt lat="45.3361017" lon="10.67273"><ele>84.0</ele><time>2026-04-11T09:46:09.053Z</time></trkpt><trkpt lat="45.336215" lon="10.6728233"><ele>84.0</ele><time>2026-04-11T09:46:10.06Z</time></trkpt><trkpt lat="45.3363467" lon="10.6729133"><ele>84.0</ele><time>2026-04-11T09:46:11.054Z</time></trkpt><trkpt lat="45.33646" lon="10.67299"><ele>84.0</ele><time>2026-04-11T09:46:12.066Z</time></trkpt><trkpt lat="45.3365983" lon="10.6730867"><ele>84.25</ele><time>2026-04-11T09:46:13.061Z</time></trkpt><trkpt lat="45.3367283" lon="10.6731367"><ele>84.5</ele><time>2026-04-11T09:46:14.061Z</time></trkpt><trkpt lat="45.33687" lon="10.6732017"><ele>84.75</ele><time>2026-04-11T09:46:15.056Z</time></trkpt><trkpt lat="45.3370117" lon="10.6732783"><ele>85.0</ele><time>2026-04-11T09:46:16.06Z</time></trkpt><trkpt lat="45.337165" lon="10.6733283"><ele>85.66666666666666</ele><time>2026-04-11T09:46:17.053Z</time></trkpt><trkpt lat="45.3373133" lon="10.6734017"><ele>86.33333333333333</ele><time>2026-04-11T09:46:18.061Z</time></trkpt><trkpt lat="45.33746" lon="10.67348"><ele>87.0</ele><time>2026-04-11T09:46:19.053Z</time></trkpt><trkpt lat="45.3376283" lon="10.6735433"><ele>87.0</ele><time>2026-04-11T09:46:20.066Z</time></trkpt><trkpt lat="45.3379367" lon="10.6736683"><ele>87.0</ele><time>2026-04-11T09:46:22.067Z</time></trkpt><trkpt lat="45.3380783" lon="10.6737233"><ele>87.66666666666667</ele><time>2026-04-11T09:46:23.062Z</time></trkpt><trkpt lat="45.3382217" lon="10.6737667"><ele>88.33333333333334</ele><time>2026-04-11T09:46:24.061Z</time></trkpt><trkpt lat="45.338375" lon="10.6738267"><ele>89.0</ele><time>2026-04-11T09:46:25.059Z</time></trkpt><trkpt lat="45.33852" lon="10.6738867"><ele>89.0</ele><time>2026-04-11T09:46:26.067Z</time></trkpt><trkpt lat="45.3386783" lon="10.6739483"><ele>89.0</ele><time>2026-04-11T09:46:27.056Z</time></trkpt><trkpt lat="45.33883" lon="10.6740083"><ele>89.0</ele><time>2026-04-11T09:46:28.053Z</time></trkpt><trkpt lat="45.33898" lon="10.674075"><ele>89.66666666666667</ele><time>2026-04-11T09:46:29.064Z</time></trkpt><trkpt lat="45.33914" lon="10.67415"><ele>90.33333333333333</ele><time>2026-04-11T09:46:30.066Z</time></trkpt><trkpt lat="45.3392883" lon="10.674215"><ele>91.0</ele><time>2026-04-11T09:46:31.059Z</time></trkpt><trkpt lat="45.3394383" lon="10.67427"><ele>91.0</ele><time>2026-04-11T09:46:32.066Z</time></trkpt><trkpt lat="45.3395917" lon="10.6743517"><ele>91.0</ele><time>2026-04-11T09:46:33.072Z</time></trkpt><trkpt lat="45.33973" lon="10.674405"><ele>91.0</ele><time>2026-04-11T09:46:34.066Z</time></trkpt><trkpt lat="45.3398783" lon="10.6744817"><ele>91.66666666666666</ele><time>2026-04-11T09:46:35.065Z</time></trkpt><trkpt lat="45.3400183" lon="10.6745867"><ele>92.33333333333333</ele><time>2026-04-11T09:46:36.066Z</time></trkpt><trkpt lat="45.3401533" lon="10.67469"><ele>93.0</ele><time>2026-04-11T09:46:37.055Z</time></trkpt><trkpt lat="45.3402967" lon="10.6747967"><ele>93.0</ele><time>2026-04-11T09:46:38.069Z</time></trkpt><trkpt lat="45.3404333" lon="10.6748983"><ele>93.0</ele><time>2026-04-11T09:46:39.061Z</time></trkpt><trkpt lat="45.340565" lon="10.6750133"><ele>93.0</ele><time>2026-04-11T09:46:40.069Z</time></trkpt><trkpt lat="45.3407" lon="10.675085"><ele>93.25</ele><time>2026-04-11T09:46:41.081Z</time></trkpt><trkpt lat="45.3408" lon="10.6751683"><ele>93.5</ele><time>2026-04-11T09:46:42.078Z</time></trkpt><trkpt lat="45.3409217" lon="10.6752467"><ele>93.75</ele><time>2026-04-11T09:46:43.077Z</time></trkpt><trkpt lat="45.341035" lon="10.6753217"><ele>94.0</ele><time>2026-04-11T09:46:44.071Z</time></trkpt><trkpt lat="45.341145" lon="10.6753833"><ele>94.0</ele><time>2026-04-11T09:46:45.069Z</time></trkpt><trkpt lat="45.3412267" lon="10.6754767"><ele>94.0</ele><time>2026-04-11T09:46:46.07Z</time></trkpt><trkpt lat="45.34131" lon="10.6755567"><ele>94.0</ele><time>2026-04-11T09:46:47.067Z</time></trkpt><trkpt lat="45.3413983" lon="10.6756033"><ele>94.0</ele><time>2026-04-11T09:46:48.068Z</time></trkpt><trkpt lat="45.3414683" lon="10.6756617"><ele>94.0</ele><time>2026-04-11T09:46:49.062Z</time></trkpt><trkpt lat="45.3415183" lon="10.6757317"><ele>94.2</ele><time>2026-04-11T09:46:50.06Z</time></trkpt><trkpt lat="45.3415383" lon="10.67583"><ele>94.4</ele><time>2026-04-11T09:46:51.074Z</time></trkpt><trkpt lat="45.3415567" lon="10.6759417"><ele>94.6</ele><time>2026-04-11T09:46:52.063Z</time></trkpt><trkpt lat="45.3415883" lon="10.6760683"><ele>94.8</ele><time>2026-04-11T09:46:53.062Z</time></trkpt><trkpt lat="45.341635" lon="10.67621"><ele>95.0</ele><time>2026-04-11T09:46:54.073Z</time></trkpt><trkpt lat="45.3416917" lon="10.67635"><ele>95.0</ele><time>2026-04-11T09:46:55.066Z</time></trkpt><trkpt lat="45.341755" lon="10.6764967"><ele>95.0</ele><time>2026-04-11T09:46:56.062Z</time></trkpt><trkpt lat="45.341805" lon="10.676665"><ele>95.0</ele><time>2026-04-11T09:46:57.067Z</time></trkpt><trkpt lat="45.3418617" lon="10.6768217"><ele>95.0</ele><time>2026-04-11T09:46:58.08Z</time></trkpt><trkpt lat="45.341935" lon="10.6769967"><ele>95.0</ele><time>2026-04-11T09:46:59.066Z</time></trkpt><trkpt lat="45.3420133" lon="10.677165"><ele>95.0</ele><time>2026-04-11T09:47:00.065Z</time></trkpt><trkpt lat="45.342075" lon="10.6773483"><ele>95.0</ele><time>2026-04-11T09:47:01.069Z</time></trkpt><trkpt lat="45.3421417" lon="10.6775183"><ele>95.0</ele><time>2026-04-11T09:47:02.068Z</time></trkpt><trkpt lat="45.3422167" lon="10.6776617"><ele>95.25</ele><time>2026-04-11T09:47:03.059Z</time></trkpt><trkpt lat="45.3422833" lon="10.6778317"><ele>95.5</ele><time>2026-04-11T09:47:04.079Z</time></trkpt><trkpt lat="45.3423617" lon="10.6780017"><ele>95.75</ele><time>2026-04-11T09:47:05.059Z</time></trkpt><trkpt lat="45.342465" lon="10.6781767"><ele>96.0</ele><time>2026-04-11T09:47:06.064Z</time></trkpt><trkpt lat="45.3425583" lon="10.6783117"><ele>96.0</ele><time>2026-04-11T09:47:07.06Z</time></trkpt><trkpt lat="45.3426483" lon="10.6784617"><ele>96.0</ele><time>2026-04-11T09:47:08.063Z</time></trkpt><trkpt lat="45.3427133" lon="10.6785483"><ele>96.0</ele><time>2026-04-11T09:47:09.062Z</time></trkpt><trkpt lat="45.3427933" lon="10.6786833"><ele>96.0</ele><time>2026-04-11T09:47:10.066Z</time></trkpt><trkpt lat="45.3428667" lon="10.67881"><ele>96.75</ele><time>2026-04-11T09:47:11.059Z</time></trkpt><trkpt lat="45.342925" lon="10.6789233"><ele>97.5</ele><time>2026-04-11T09:47:12.056Z</time></trkpt><trkpt lat="45.3429833" lon="10.6790433"><ele>98.25</ele><time>2026-04-11T09:47:13.054Z</time></trkpt><trkpt lat="45.3430567" lon="10.6791833"><ele>99.0</ele><time>2026-04-11T09:47:15.056Z</time></trkpt><trkpt lat="45.3431433" lon="10.6793183"><ele>100.16666666666667</ele><time>2026-04-11T09:47:17.057Z</time></trkpt><trkpt lat="45.3432" lon="10.6793933"><ele>101.33333333333334</ele><time>2026-04-11T09:47:18.067Z</time></trkpt><trkpt lat="45.3432583" lon="10.679475"><ele>102.5</ele><time>2026-04-11T09:47:19.052Z</time></trkpt><trkpt lat="45.343315" lon="10.67956"><ele>103.66666666666667</ele><time>2026-04-11T09:47:20.068Z</time></trkpt><trkpt lat="45.343365" lon="10.679645"><ele>104.83333333333334</ele><time>2026-04-11T09:47:21.055Z</time></trkpt><trkpt lat="45.3434133" lon="10.6797317"><ele>106.0</ele><time>2026-04-11T09:47:22.061Z</time></trkpt><trkpt lat="45.3434517" lon="10.6798083"><ele>106.19999999999999</ele><time>2026-04-11T09:47:23.068Z</time></trkpt><trkpt lat="45.34347" lon="10.67995"><ele>106.39999999999999</ele><time>2026-04-11T09:47:25.056Z</time></trkpt><trkpt lat="45.3434383" lon="10.68007"><ele>106.6</ele><time>2026-04-11T09:47:27.059Z</time></trkpt><trkpt lat="45.34338" lon="10.6802133"><ele>106.8</ele><time>2026-04-11T09:47:29.061Z</time></trkpt><trkpt lat="45.3433317" lon="10.6803117"><ele>107.0</ele><time>2026-04-11T09:47:30.056Z</time></trkpt><trkpt lat="45.3432683" lon="10.680425"><ele>106.5</ele><time>2026-04-11T09:47:31.051Z</time></trkpt><trkpt lat="45.3431967" lon="10.6805467"><ele>106.0</ele><time>2026-04-11T09:47:32.06Z</time></trkpt><trkpt lat="45.343125" lon="10.680705"><ele>105.5</ele><time>2026-04-11T09:47:33.06Z</time></trkpt><trkpt lat="45.3430683" lon="10.680865"><ele>105.0</ele><time>2026-04-11T09:47:34.062Z</time></trkpt><trkpt lat="45.3430283" lon="10.6809817"><ele>105.0</ele><time>2026-04-11T09:47:35.068Z</time></trkpt><trkpt lat="45.3429917" lon="10.6810917"><ele>105.0</ele><time>2026-04-11T09:47:36.062Z</time></trkpt><trkpt lat="45.3429183" lon="10.6812233"><ele>105.0</ele><time>2026-04-11T09:47:38.058Z</time></trkpt><trkpt lat="45.3428617" lon="10.6813383"><ele>105.0</ele><time>2026-04-11T09:47:41.055Z</time></trkpt><trkpt lat="45.3428067" lon="10.681465"><ele>105.0</ele><time>2026-04-11T09:47:43.059Z</time></trkpt><trkpt lat="45.3427717" lon="10.6815583"><ele>104.8</ele><time>2026-04-11T09:47:44.056Z</time></trkpt><trkpt lat="45.34273" lon="10.681665"><ele>104.6</ele><time>2026-04-11T09:47:45.055Z</time></trkpt><trkpt lat="45.34269" lon="10.68178"><ele>104.4</ele><time>2026-04-11T09:47:46.06Z</time></trkpt><trkpt lat="45.34265" lon="10.6819017"><ele>104.2</ele><time>2026-04-11T09:47:47.052Z</time></trkpt><trkpt lat="45.3426017" lon="10.682035"><ele>104.0</ele><time>2026-04-11T09:47:48.071Z</time></trkpt><trkpt lat="45.3425667" lon="10.6821683"><ele>103.80000000000001</ele><time>2026-04-11T09:47:49.061Z</time></trkpt><trkpt lat="45.342535" lon="10.6822817"><ele>103.60000000000001</ele><time>2026-04-11T09:47:50.062Z</time></trkpt><trkpt lat="45.3424983" lon="10.6824033"><ele>103.4</ele><time>2026-04-11T09:47:51.055Z</time></trkpt><trkpt lat="45.3424517" lon="10.6825133"><ele>103.2</ele><time>2026-04-11T09:47:52.056Z</time></trkpt><trkpt lat="45.3423983" lon="10.68261"><ele>103.0</ele><time>2026-04-11T09:47:53.052Z</time></trkpt><trkpt lat="45.342345" lon="10.6827483"><ele>102.80000000000001</ele><time>2026-04-11T09:47:54.066Z</time></trkpt><trkpt lat="45.3423017" lon="10.68288"><ele>102.6</ele><time>2026-04-11T09:47:55.058Z</time></trkpt><trkpt lat="45.3422783" lon="10.6830167"><ele>102.4</ele><time>2026-04-11T09:47:56.068Z</time></trkpt><trkpt lat="45.3422467" lon="10.6831467"><ele>102.19999999999999</ele><time>2026-04-11T09:47:57.055Z</time></trkpt><trkpt lat="45.3422283" lon="10.6832833"><ele>102.0</ele><time>2026-04-11T09:47:58.065Z</time></trkpt><trkpt lat="45.3422167" lon="10.683415"><ele>102.5</ele><time>2026-04-11T09:47:59.062Z</time></trkpt><trkpt lat="45.3421967" lon="10.6835"><ele>103.0</ele><time>2026-04-11T09:48:00.063Z</time></trkpt><trkpt lat="45.342145" lon="10.683595"><ele>103.5</ele><time>2026-04-11T09:48:02.064Z</time></trkpt><trkpt lat="45.3420567" lon="10.6835883"><ele>104.0</ele><time>2026-04-11T09:48:04.071Z</time></trkpt><trkpt lat="45.3419317" lon="10.6835367"><ele>104.5</ele><time>2026-04-11T09:48:06.061Z</time></trkpt><trkpt lat="45.3418667" lon="10.6835283"><ele>105.0</ele><time>2026-04-11T09:48:07.064Z</time></trkpt><trkpt lat="45.3418" lon="10.6835167"><ele>105.0</ele><time>2026-04-11T09:48:08.07Z</time></trkpt><trkpt lat="45.3417217" lon="10.683495"><ele>105.0</ele><time>2026-04-11T09:48:09.062Z</time></trkpt><trkpt lat="45.3416433" lon="10.6834617"><ele>105.0</ele><time>2026-04-11T09:48:10.061Z</time></trkpt><trkpt lat="45.3415617" lon="10.6833983"><ele>105.0</ele><time>2026-04-11T09:48:11.068Z</time></trkpt><trkpt lat="45.34147" lon="10.6833117"><ele>105.0</ele><time>2026-04-11T09:48:12.055Z</time></trkpt><trkpt lat="45.341355" lon="10.6832033"><ele>102.25</ele><time>2026-04-11T09:48:13.063Z</time></trkpt><trkpt lat="45.3412667" lon="10.6831"><ele>99.5</ele><time>2026-04-11T09:48:14.074Z</time></trkpt><trkpt lat="45.3411667" lon="10.6829867"><ele>96.75</ele><time>2026-04-11T09:48:15.069Z</time></trkpt><trkpt lat="45.3410583" lon="10.68294"><ele>94.0</ele><time>2026-04-11T09:48:16.063Z</time></trkpt><trkpt lat="45.3409317" lon="10.68284"><ele>93.75</ele><time>2026-04-11T09:48:17.064Z</time></trkpt><trkpt lat="45.3408183" lon="10.6827633"><ele>93.5</ele><time>2026-04-11T09:48:18.061Z</time></trkpt><trkpt lat="45.3406967" lon="10.6826783"><ele>93.25</ele><time>2026-04-11T09:48:19.071Z</time></trkpt><trkpt lat="45.34057" lon="10.6826233"><ele>93.0</ele><time>2026-04-11T09:48:20.077Z</time></trkpt><trkpt lat="45.3404517" lon="10.6825217"><ele>92.5</ele><time>2026-04-11T09:48:21.067Z</time></trkpt><trkpt lat="45.3403467" lon="10.682425"><ele>92.0</ele><time>2026-04-11T09:48:22.059Z</time></trkpt><trkpt lat="45.3402517" lon="10.6823117"><ele>91.5</ele><time>2026-04-11T09:48:23.06Z</time></trkpt><trkpt lat="45.3401617" lon="10.6822317"><ele>91.0</ele><time>2026-04-11T09:48:24.069Z</time></trkpt><trkpt lat="45.340075" lon="10.682165"><ele>91.0</ele><time>2026-04-11T09:48:25.07Z</time></trkpt><trkpt lat="45.3399967" lon="10.6821183"><ele>91.0</ele><time>2026-04-11T09:48:27.076Z</time></trkpt><trkpt lat="45.33996" lon="10.682215"><ele>91.0</ele><time>2026-04-11T09:48:30.069Z</time></trkpt><trkpt lat="45.33996" lon="10.6823833"><ele>91.0</ele><time>2026-04-11T09:48:32.058Z</time></trkpt><trkpt lat="45.3399633" lon="10.6825"><ele>91.0</ele><time>2026-04-11T09:48:33.108Z</time></trkpt><trkpt lat="45.3399733" lon="10.6826317"><ele>91.25</ele><time>2026-04-11T09:48:34.077Z</time></trkpt><trkpt lat="45.3399983" lon="10.6828033"><ele>91.5</ele><time>2026-04-11T09:48:35.073Z</time></trkpt><trkpt lat="45.34005" lon="10.6829633"><ele>91.75</ele><time>2026-04-11T09:48:36.061Z</time></trkpt><trkpt lat="45.3401067" lon="10.6831367"><ele>92.0</ele><time>2026-04-11T09:48:37.061Z</time></trkpt><trkpt lat="45.3401733" lon="10.6832967"><ele>92.0</ele><time>2026-04-11T09:48:38.072Z</time></trkpt><trkpt lat="45.3402317" lon="10.6834567"><ele>92.0</ele><time>2026-04-11T09:48:39.063Z</time></trkpt><trkpt lat="45.34027" lon="10.6836217"><ele>92.0</ele><time>2026-04-11T09:48:40.062Z</time></trkpt><trkpt lat="45.3403183" lon="10.6837833"><ele>92.0</ele><time>2026-04-11T09:48:41.074Z</time></trkpt><trkpt lat="45.3403717" lon="10.683905"><ele>91.6</ele><time>2026-04-11T09:48:42.072Z</time></trkpt><trkpt lat="45.34041" lon="10.6840483"><ele>91.19999999999999</ele><time>2026-04-11T09:48:43.062Z</time></trkpt><trkpt lat="45.3404717" lon="10.6841783"><ele>90.8</ele><time>2026-04-11T09:48:44.058Z</time></trkpt><trkpt lat="45.3405183" lon="10.6843367"><ele>90.4</ele><time>2026-04-11T09:48:45.076Z</time></trkpt><trkpt lat="45.3405467" lon="10.684485"><ele>90.0</ele><time>2026-04-11T09:48:46.063Z</time></trkpt><trkpt lat="45.3405517" lon="10.68463"><ele>90.25</ele><time>2026-04-11T09:48:47.071Z</time></trkpt><trkpt lat="45.3405717" lon="10.6848067"><ele>90.5</ele><time>2026-04-11T09:48:48.062Z</time></trkpt><trkpt lat="45.3405783" lon="10.6849717"><ele>90.75</ele><time>2026-04-11T09:48:49.054Z</time></trkpt><trkpt lat="45.340615" lon="10.68516"><ele>91.0</ele><time>2026-04-11T09:48:50.062Z</time></trkpt><trkpt lat="45.3406333" lon="10.6852983"><ele>91.0</ele><time>2026-04-11T09:48:51.058Z</time></trkpt><trkpt lat="45.3406667" lon="10.6854217"><ele>91.0</ele><time>2026-04-11T09:48:52.056Z</time></trkpt><trkpt lat="45.3407" lon="10.6855817"><ele>91.0</ele><time>2026-04-11T09:48:53.066Z</time></trkpt><trkpt lat="45.34074" lon="10.68573"><ele>91.0</ele><time>2026-04-11T09:48:54.062Z</time></trkpt><trkpt lat="45.3407683" lon="10.6858767"><ele>91.0</ele><time>2026-04-11T09:48:55.062Z</time></trkpt><trkpt lat="45.3408" lon="10.6860167"><ele>90.8</ele><time>2026-04-11T09:48:56.079Z</time></trkpt><trkpt lat="45.340835" lon="10.6861483"><ele>90.6</ele><time>2026-04-11T09:48:57.063Z</time></trkpt><trkpt lat="45.3408567" lon="10.68629"><ele>90.4</ele><time>2026-04-11T09:48:58.061Z</time></trkpt><trkpt lat="45.3408867" lon="10.6864467"><ele>90.2</ele><time>2026-04-11T09:48:59.063Z</time></trkpt><trkpt lat="45.340935" lon="10.6866133"><ele>90.0</ele><time>2026-04-11T09:49:00.062Z</time></trkpt><trkpt lat="45.34095" lon="10.6867517"><ele>90.0</ele><time>2026-04-11T09:49:01.063Z</time></trkpt><trkpt lat="45.3409567" lon="10.6869217"><ele>90.0</ele><time>2026-04-11T09:49:02.058Z</time></trkpt><trkpt lat="45.3409633" lon="10.6870617"><ele>90.0</ele><time>2026-04-11T09:49:03.068Z</time></trkpt><trkpt lat="45.3409617" lon="10.6871817"><ele>90.0</ele><time>2026-04-11T09:49:04.059Z</time></trkpt><trkpt lat="45.3409717" lon="10.6873083"><ele>90.0</ele><time>2026-04-11T09:49:05.065Z</time></trkpt><trkpt lat="45.3409767" lon="10.6874467"><ele>90.16666666666667</ele><time>2026-04-11T09:49:06.074Z</time></trkpt><trkpt lat="45.3409967" lon="10.68759"><ele>90.33333333333333</ele><time>2026-04-11T09:49:07.065Z</time></trkpt><trkpt lat="45.341025" lon="10.6877367"><ele>90.5</ele><time>2026-04-11T09:49:08.057Z</time></trkpt><trkpt lat="45.341045" lon="10.6878383"><ele>90.66666666666666</ele><time>2026-04-11T09:49:09.06Z</time></trkpt><trkpt lat="45.3410733" lon="10.6879517"><ele>90.83333333333333</ele><time>2026-04-11T09:49:10.062Z</time></trkpt><trkpt lat="45.3410917" lon="10.68804"><ele>91.0</ele><time>2026-04-11T09:49:11.063Z</time></trkpt><trkpt lat="45.3411033" lon="10.6881917"><ele>91.0</ele><time>2026-04-11T09:49:13.062Z</time></trkpt><trkpt lat="45.3410183" lon="10.68823"><ele>91.0</ele><time>2026-04-11T09:49:17.059Z</time></trkpt><trkpt lat="45.3409517" lon="10.688205"><ele>91.0</ele><time>2026-04-11T09:49:18.054Z</time></trkpt><trkpt lat="45.34086" lon="10.68817"><ele>91.0</ele><time>2026-04-11T09:49:19.057Z</time></trkpt><trkpt lat="45.3407583" lon="10.6881367"><ele>91.0</ele><time>2026-04-11T09:49:20.051Z</time></trkpt><trkpt lat="45.3406417" lon="10.6880967"><ele>90.5</ele><time>2026-04-11T09:49:21.061Z</time></trkpt><trkpt lat="45.340515" lon="10.688055"><ele>90.0</ele><time>2026-04-11T09:49:22.067Z</time></trkpt><trkpt lat="45.3403917" lon="10.6880017"><ele>89.5</ele><time>2026-04-11T09:49:23.052Z</time></trkpt><trkpt lat="45.340265" lon="10.6879417"><ele>89.0</ele><time>2026-04-11T09:49:24.06Z</time></trkpt><trkpt lat="45.34012" lon="10.687885"><ele>89.0</ele><time>2026-04-11T09:49:25.056Z</time></trkpt><trkpt lat="45.3399917" lon="10.6878017"><ele>89.0</ele><time>2026-04-11T09:49:26.055Z</time></trkpt><trkpt lat="45.3398717" lon="10.6877133"><ele>89.0</ele><time>2026-04-11T09:49:27.052Z</time></trkpt><trkpt lat="45.3397567" lon="10.6876033"><ele>89.0</ele><time>2026-04-11T09:49:28.054Z</time></trkpt><trkpt lat="45.339635" lon="10.6875233"><ele>89.0</ele><time>2026-04-11T09:49:29.052Z</time></trkpt><trkpt lat="45.3395133" lon="10.6874383"><ele>89.0</ele><time>2026-04-11T09:49:30.058Z</time></trkpt><trkpt lat="45.3393983" lon="10.68735"><ele>89.0</ele><time>2026-04-11T09:49:31.055Z</time></trkpt><trkpt lat="45.3392833" lon="10.6872633"><ele>89.0</ele><time>2026-04-11T09:49:32.057Z</time></trkpt><trkpt lat="45.3391667" lon="10.687175"><ele>89.0</ele><time>2026-04-11T09:49:33.052Z</time></trkpt><trkpt lat="45.3390433" lon="10.6870933"><ele>89.0</ele><time>2026-04-11T09:49:34.054Z</time></trkpt><trkpt lat="45.3389183" lon="10.6870133"><ele>89.0</ele><time>2026-04-11T09:49:35.064Z</time></trkpt><trkpt lat="45.338795" lon="10.6869383"><ele>89.0</ele><time>2026-04-11T09:49:36.054Z</time></trkpt><trkpt lat="45.3386733" lon="10.68687"><ele>88.5</ele><time>2026-04-11T09:49:37.058Z</time></trkpt><trkpt lat="45.33855" lon="10.6867983"><ele>88.0</ele><time>2026-04-11T09:49:38.058Z</time></trkpt><trkpt lat="45.338425" lon="10.686725"><ele>87.5</ele><time>2026-04-11T09:49:39.05Z</time></trkpt><trkpt lat="45.3382933" lon="10.68666"><ele>87.0</ele><time>2026-04-11T09:49:40.052Z</time></trkpt><trkpt lat="45.33816" lon="10.6866167"><ele>86.75</ele><time>2026-04-11T09:49:41.061Z</time></trkpt><trkpt lat="45.33803" lon="10.6865817"><ele>86.5</ele><time>2026-04-11T09:49:42.062Z</time></trkpt><trkpt lat="45.3379033" lon="10.6865467"><ele>86.25</ele><time>2026-04-11T09:49:43.062Z</time></trkpt><trkpt lat="45.33777" lon="10.6865083"><ele>86.0</ele><time>2026-04-11T09:49:44.057Z</time></trkpt><trkpt lat="45.3376233" lon="10.68647"><ele>86.0</ele><time>2026-04-11T09:49:45.061Z</time></trkpt><trkpt lat="45.3374717" lon="10.6864317"><ele>86.0</ele><time>2026-04-11T09:49:46.056Z</time></trkpt><trkpt lat="45.3373167" lon="10.6864083"><ele>86.0</ele><time>2026-04-11T09:49:47.056Z</time></trkpt><trkpt lat="45.3371517" lon="10.6863933"><ele>85.66666666666667</ele><time>2026-04-11T09:49:48.055Z</time></trkpt><trkpt lat="45.3369933" lon="10.686355"><ele>85.33333333333333</ele><time>2026-04-11T09:49:49.052Z</time></trkpt><trkpt lat="45.3368317" lon="10.6863333"><ele>85.0</ele><time>2026-04-11T09:49:50.061Z</time></trkpt><trkpt lat="45.3367067" lon="10.68627"><ele>85.0</ele><time>2026-04-11T09:49:51.057Z</time></trkpt><trkpt lat="45.336575" lon="10.686215"><ele>85.0</ele><time>2026-04-11T09:49:52.055Z</time></trkpt><trkpt lat="45.3364567" lon="10.6861533"><ele>85.0</ele><time>2026-04-11T09:49:53.061Z</time></trkpt><trkpt lat="45.3363383" lon="10.6860967"><ele>85.0</ele><time>2026-04-11T09:49:54.068Z</time></trkpt><trkpt lat="45.336235" lon="10.68608"><ele>84.5</ele><time>2026-04-11T09:49:55.057Z</time></trkpt><trkpt lat="45.33612" lon="10.6860333"><ele>84.0</ele><time>2026-04-11T09:49:56.07Z</time></trkpt><trkpt lat="45.336" lon="10.685985"><ele>83.5</ele><time>2026-04-11T09:49:57.058Z</time></trkpt><trkpt lat="45.3358817" lon="10.68593"><ele>83.0</ele><time>2026-04-11T09:49:58.066Z</time></trkpt><trkpt lat="45.335745" lon="10.6858617"><ele>83.0</ele><time>2026-04-11T09:49:59.063Z</time></trkpt><trkpt lat="45.33563" lon="10.6858"><ele>83.0</ele><time>2026-04-11T09:50:00.068Z</time></trkpt><trkpt lat="45.3355017" lon="10.6857233"><ele>83.0</ele><time>2026-04-11T09:50:01.057Z</time></trkpt><trkpt lat="45.3353933" lon="10.685645"><ele>83.0</ele><time>2026-04-11T09:50:02.067Z</time></trkpt><trkpt lat="45.3352917" lon="10.6856283"><ele>82.75</ele><time>2026-04-11T09:50:03.064Z</time></trkpt><trkpt lat="45.3351767" lon="10.68565"><ele>82.5</ele><time>2026-04-11T09:50:04.059Z</time></trkpt><trkpt lat="45.3350417" lon="10.6856817"><ele>82.25</ele><time>2026-04-11T09:50:05.061Z</time></trkpt><trkpt lat="45.334925" lon="10.6857383"><ele>82.0</ele><time>2026-04-11T09:50:06.062Z</time></trkpt><trkpt lat="45.33481" lon="10.6857733"><ele>82.16666666666666</ele><time>2026-04-11T09:50:07.064Z</time></trkpt><trkpt lat="45.33472" lon="10.6858017"><ele>82.33333333333333</ele><time>2026-04-11T09:50:08.067Z</time></trkpt><trkpt lat="45.334635" lon="10.6857867"><ele>82.5</ele><time>2026-04-11T09:50:09.058Z</time></trkpt><trkpt lat="45.3345567" lon="10.685755"><ele>82.66666666666667</ele><time>2026-04-11T09:50:10.067Z</time></trkpt><trkpt lat="45.3344983" lon="10.6857183"><ele>82.83333333333334</ele><time>2026-04-11T09:50:11.067Z</time></trkpt><trkpt lat="45.334425" lon="10.685635"><ele>83.0</ele><time>2026-04-11T09:50:13.059Z</time></trkpt><trkpt lat="45.3344533" lon="10.6855083"><ele>83.0</ele><time>2026-04-11T09:50:15.053Z</time></trkpt><trkpt lat="45.334495" lon="10.6854083"><ele>83.0</ele><time>2026-04-11T09:50:16.056Z</time></trkpt><trkpt lat="45.33454" lon="10.685285"><ele>83.0</ele><time>2026-04-11T09:50:17.061Z</time></trkpt><trkpt lat="45.3345917" lon="10.685115"><ele>83.0</ele><time>2026-04-11T09:50:18.063Z</time></trkpt><trkpt lat="45.334665" lon="10.6849233"><ele>83.0</ele><time>2026-04-11T09:50:19.058Z</time></trkpt><trkpt lat="45.3347283" lon="10.684725"><ele>83.0</ele><time>2026-04-11T09:50:20.058Z</time></trkpt><trkpt lat="45.3348017" lon="10.6844917"><ele>83.0</ele><time>2026-04-11T09:50:21.053Z</time></trkpt><trkpt lat="45.334865" lon="10.6842433"><ele>83.0</ele><time>2026-04-11T09:50:22.062Z</time></trkpt><trkpt lat="45.33492" lon="10.6839983"><ele>83.0</ele><time>2026-04-11T09:50:23.057Z</time></trkpt><trkpt lat="45.3349733" lon="10.6837717"><ele>83.0</ele><time>2026-04-11T09:50:24.055Z</time></trkpt><trkpt lat="45.3350483" lon="10.683555"><ele>83.0</ele><time>2026-04-11T09:50:25.054Z</time></trkpt><trkpt lat="45.3351267" lon="10.6833417"><ele>83.0</ele><time>2026-04-11T09:50:26.064Z</time></trkpt><trkpt lat="45.3352167" lon="10.6831717"><ele>83.0</ele><time>2026-04-11T09:50:27.051Z</time></trkpt><trkpt lat="45.3353033" lon="10.683005"><ele>83.0</ele><time>2026-04-11T09:50:28.056Z</time></trkpt><trkpt lat="45.3353833" lon="10.6828417"><ele>83.0</ele><time>2026-04-11T09:50:29.064Z</time></trkpt><trkpt lat="45.3354683" lon="10.6826767"><ele>83.0</ele><time>2026-04-11T09:50:30.067Z</time></trkpt><trkpt lat="45.335565" lon="10.6825017"><ele>83.0</ele><time>2026-04-11T09:50:31.056Z</time></trkpt><trkpt lat="45.335655" lon="10.6823417"><ele>83.25</ele><time>2026-04-11T09:50:32.062Z</time></trkpt><trkpt lat="45.335735" lon="10.6821867"><ele>83.5</ele><time>2026-04-11T09:50:33.055Z</time></trkpt><trkpt lat="45.335825" lon="10.682045"><ele>83.75</ele><time>2026-04-11T09:50:34.058Z</time></trkpt><trkpt lat="45.33591" lon="10.6818883"><ele>84.0</ele><time>2026-04-11T09:50:35.062Z</time></trkpt><trkpt lat="45.3359967" lon="10.6817217"><ele>84.33333333333333</ele><time>2026-04-11T09:50:36.072Z</time></trkpt><trkpt lat="45.336105" lon="10.6815517"><ele>84.66666666666666</ele><time>2026-04-11T09:50:37.066Z</time></trkpt><trkpt lat="45.3362" lon="10.68141"><ele>85.0</ele><time>2026-04-11T09:50:38.067Z</time></trkpt><trkpt lat="45.3363183" lon="10.68121"><ele>85.5</ele><time>2026-04-11T09:50:39.07Z</time></trkpt><trkpt lat="45.3364067" lon="10.6810483"><ele>86.0</ele><time>2026-04-11T09:50:40.068Z</time></trkpt><trkpt lat="45.3364867" lon="10.6809033"><ele>86.5</ele><time>2026-04-11T09:50:41.065Z</time></trkpt><trkpt lat="45.3365667" lon="10.68078"><ele>87.0</ele><time>2026-04-11T09:50:42.065Z</time></trkpt><trkpt lat="45.33662" lon="10.6806617"><ele>87.0</ele><time>2026-04-11T09:50:43.059Z</time></trkpt><trkpt lat="45.3366817" lon="10.680615"><ele>87.0</ele><time>2026-04-11T09:50:44.059Z</time></trkpt><trkpt lat="45.336725" lon="10.6804767"><ele>87.0</ele><time>2026-04-11T09:50:46.055Z</time></trkpt><trkpt lat="45.336675" lon="10.6803417"><ele>87.0</ele><time>2026-04-11T09:50:48.068Z</time></trkpt><trkpt lat="45.3366233" lon="10.68023"><ele>87.0</ele><time>2026-04-11T09:50:50.064Z</time></trkpt><trkpt lat="45.3365333" lon="10.6801233"><ele>86.6</ele><time>2026-04-11T09:50:52.053Z</time></trkpt><trkpt lat="45.3364783" lon="10.6800633"><ele>86.19999999999999</ele><time>2026-04-11T09:50:53.066Z</time></trkpt><trkpt lat="45.3364217" lon="10.679985"><ele>85.8</ele><time>2026-04-11T09:50:54.062Z</time></trkpt><trkpt lat="45.33636" lon="10.6798933"><ele>85.4</ele><time>2026-04-11T09:50:55.055Z</time></trkpt><trkpt lat="45.3362667" lon="10.6797833"><ele>85.0</ele><time>2026-04-11T09:50:56.052Z</time></trkpt><trkpt lat="45.3361817" lon="10.67969"><ele>85.0</ele><time>2026-04-11T09:50:57.054Z</time></trkpt><trkpt lat="45.3361167" lon="10.6795683"><ele>85.0</ele><time>2026-04-11T09:50:58.059Z</time></trkpt><trkpt lat="45.3360433" lon="10.6794783"><ele>85.0</ele><time>2026-04-11T09:50:59.057Z</time></trkpt><trkpt lat="45.335975" lon="10.6793817"><ele>85.0</ele><time>2026-04-11T09:51:00.061Z</time></trkpt><trkpt lat="45.3359217" lon="10.679265"><ele>85.0</ele><time>2026-04-11T09:51:01.051Z</time></trkpt><trkpt lat="45.3358517" lon="10.6791683"><ele>85.0</ele><time>2026-04-11T09:51:02.055Z</time></trkpt><trkpt lat="45.3357867" lon="10.679055"><ele>85.0</ele><time>2026-04-11T09:51:03.053Z</time></trkpt><trkpt lat="45.3357083" lon="10.6789267"><ele>85.0</ele><time>2026-04-11T09:51:04.058Z</time></trkpt><trkpt lat="45.3356317" lon="10.6788133"><ele>85.0</ele><time>2026-04-11T09:51:05.05Z</time></trkpt><trkpt lat="45.33557" lon="10.6786767"><ele>85.0</ele><time>2026-04-11T09:51:06.059Z</time></trkpt><trkpt lat="45.3355017" lon="10.678555"><ele>86.6</ele><time>2026-04-11T09:51:07.056Z</time></trkpt><trkpt lat="45.3354367" lon="10.6784533"><ele>88.2</ele><time>2026-04-11T09:51:08.063Z</time></trkpt><trkpt lat="45.3353683" lon="10.678385"><ele>89.80000000000001</ele><time>2026-04-11T09:51:09.053Z</time></trkpt><trkpt lat="45.3353017" lon="10.6783317"><ele>91.4</ele><time>2026-04-11T09:51:10.058Z</time></trkpt><trkpt lat="45.3352383" lon="10.6783133"><ele>93.0</ele><time>2026-04-11T09:51:11.054Z</time></trkpt><trkpt lat="45.3351033" lon="10.6783183"><ele>93.0</ele><time>2026-04-11T09:51:13.053Z</time></trkpt><trkpt lat="45.33501" lon="10.6783967"><ele>93.0</ele><time>2026-04-11T09:51:14.059Z</time></trkpt><trkpt lat="45.3349133" lon="10.6784833"><ele>93.0</ele><time>2026-04-11T09:51:15.051Z</time></trkpt><trkpt lat="45.3348233" lon="10.678555"><ele>93.0</ele><time>2026-04-11T09:51:16.056Z</time></trkpt><trkpt lat="45.334745" lon="10.6786183"><ele>93.0</ele><time>2026-04-11T09:51:17.051Z</time></trkpt><trkpt lat="45.3346717" lon="10.6786733"><ele>92.5</ele><time>2026-04-11T09:51:18.055Z</time></trkpt><trkpt lat="45.3346017" lon="10.6786683"><ele>92.0</ele><time>2026-04-11T09:51:19.054Z</time></trkpt><trkpt lat="45.3345317" lon="10.678625"><ele>91.5</ele><time>2026-04-11T09:51:20.053Z</time></trkpt><trkpt lat="45.3344667" lon="10.6785467"><ele>91.0</ele><time>2026-04-11T09:51:21.056Z</time></trkpt><trkpt lat="45.3344117" lon="10.6784417"><ele>90.5</ele><time>2026-04-11T09:51:22.05Z</time></trkpt><trkpt lat="45.334365" lon="10.6783483"><ele>90.0</ele><time>2026-04-11T09:51:23.056Z</time></trkpt><trkpt lat="45.33433" lon="10.6782533"><ele>90.0</ele><time>2026-04-11T09:51:24.053Z</time></trkpt><trkpt lat="45.3342967" lon="10.6781333"><ele>90.0</ele><time>2026-04-11T09:51:25.055Z</time></trkpt><trkpt lat="45.3342617" lon="10.6780067"><ele>90.0</ele><time>2026-04-11T09:51:26.063Z</time></trkpt><trkpt lat="45.33422" lon="10.6778583"><ele>90.0</ele><time>2026-04-11T09:51:27.056Z</time></trkpt><trkpt lat="45.3341833" lon="10.6777333"><ele>90.0</ele><time>2026-04-11T09:51:28.053Z</time></trkpt><trkpt lat="45.3341433" lon="10.6776217"><ele>89.6</ele><time>2026-04-11T09:51:29.051Z</time></trkpt><trkpt lat="45.3341017" lon="10.6775083"><ele>89.2</ele><time>2026-04-11T09:51:30.07Z</time></trkpt><trkpt lat="45.3340667" lon="10.677395"><ele>88.80000000000001</ele><time>2026-04-11T09:51:31.056Z</time></trkpt><trkpt lat="45.3340333" lon="10.677235"><ele>88.4</ele><time>2026-04-11T09:51:32.071Z</time></trkpt><trkpt lat="45.3340433" lon="10.6770433"><ele>88.0</ele><time>2026-04-11T09:51:33.075Z</time></trkpt><trkpt lat="45.3340017" lon="10.6768817"><ele>87.60000000000001</ele><time>2026-04-11T09:51:34.063Z</time></trkpt><trkpt lat="45.33398" lon="10.676725"><ele>87.2</ele><time>2026-04-11T09:51:35.059Z</time></trkpt><trkpt lat="45.3339583" lon="10.6765783"><ele>86.8</ele><time>2026-04-11T09:51:36.06Z</time></trkpt><trkpt lat="45.33394" lon="10.6764733"><ele>86.4</ele><time>2026-04-11T09:51:37.058Z</time></trkpt><trkpt lat="45.3339167" lon="10.6763667"><ele>86.0</ele><time>2026-04-11T09:51:38.058Z</time></trkpt><trkpt lat="45.3339017" lon="10.67625"><ele>86.16666666666667</ele><time>2026-04-11T09:51:39.061Z</time></trkpt><trkpt lat="45.3338867" lon="10.67611"><ele>86.33333333333334</ele><time>2026-04-11T09:51:40.059Z</time></trkpt><trkpt lat="45.333895" lon="10.6759817"><ele>86.5</ele><time>2026-04-11T09:51:41.06Z</time></trkpt><trkpt lat="45.333925" lon="10.675865"><ele>86.66666666666667</ele><time>2026-04-11T09:51:42.064Z</time></trkpt><trkpt lat="45.3339317" lon="10.6757533"><ele>86.83333333333333</ele><time>2026-04-11T09:51:43.068Z</time></trkpt><trkpt lat="45.3339633" lon="10.6756667"><ele>87.0</ele><time>2026-04-11T09:51:44.057Z</time></trkpt><trkpt lat="45.3339167" lon="10.675545"><ele>86.0</ele><time>2026-04-11T09:51:46.064Z</time></trkpt><trkpt lat="45.333805" lon="10.67549"><ele>85.0</ele><time>2026-04-11T09:51:48.053Z</time></trkpt><trkpt lat="45.3336917" lon="10.6753983"><ele>84.0</ele><time>2026-04-11T09:51:50.059Z</time></trkpt><trkpt lat="45.3336417" lon="10.6753283"><ele>83.0</ele><time>2026-04-11T09:51:51.069Z</time></trkpt><trkpt lat="45.333595" lon="10.6752317"><ele>82.0</ele><time>2026-04-11T09:51:52.102Z</time></trkpt><trkpt lat="45.3335533" lon="10.6751167"><ele>82.0</ele><time>2026-04-11T09:51:53.065Z</time></trkpt><trkpt lat="45.3334817" lon="10.6750117"><ele>82.0</ele><time>2026-04-11T09:51:54.066Z</time></trkpt><trkpt lat="45.333395" lon="10.674905"><ele>82.0</ele><time>2026-04-11T09:51:55.061Z</time></trkpt><trkpt lat="45.333365" lon="10.6747867"><ele>82.0</ele><time>2026-04-11T09:51:56.061Z</time></trkpt><trkpt lat="45.333355" lon="10.674665"><ele>82.0</ele><time>2026-04-11T09:51:57.064Z</time></trkpt><trkpt lat="45.3333533" lon="10.6745433"><ele>82.0</ele><time>2026-04-11T09:51:58.063Z</time></trkpt><trkpt lat="45.333375" lon="10.67441"><ele>82.0</ele><time>2026-04-11T09:51:59.079Z</time></trkpt><trkpt lat="45.3334167" lon="10.67427"><ele>82.0</ele><time>2026-04-11T09:52:00.085Z</time></trkpt><trkpt lat="45.333465" lon="10.6741433"><ele>82.0</ele><time>2026-04-11T09:52:01.057Z</time></trkpt><trkpt lat="45.3335067" lon="10.6740417"><ele>82.0</ele><time>2026-04-11T09:52:02.069Z</time></trkpt><trkpt lat="45.3335383" lon="10.673945"><ele>82.0</ele><time>2026-04-11T09:52:03.06Z</time></trkpt><trkpt lat="45.333535" lon="10.673775"><ele>82.0</ele><time>2026-04-11T09:52:05.057Z</time></trkpt><trkpt lat="45.333495" lon="10.6736617"><ele>82.0</ele><time>2026-04-11T09:52:06.061Z</time></trkpt><trkpt lat="45.33346" lon="10.673535"><ele>82.0</ele><time>2026-04-11T09:52:07.054Z</time></trkpt><trkpt lat="45.3334083" lon="10.6733717"><ele>82.0</ele><time>2026-04-11T09:52:08.061Z</time></trkpt><trkpt lat="45.3333733" lon="10.67326"><ele>82.0</ele><time>2026-04-11T09:52:09.052Z</time></trkpt><trkpt lat="45.3332983" lon="10.6731317"><ele>82.0</ele><time>2026-04-11T09:52:11.055Z</time></trkpt><trkpt lat="45.333225" lon="10.67309"><ele>82.0</ele><time>2026-04-11T09:52:13.052Z</time></trkpt><trkpt lat="45.3331467" lon="10.673175"><ele>82.0</ele><time>2026-04-11T09:52:14.074Z</time></trkpt><trkpt lat="45.33308" lon="10.673255"><ele>82.0</ele><time>2026-04-11T09:52:15.056Z</time></trkpt><trkpt lat="45.3330117" lon="10.6733383"><ele>82.0</ele><time>2026-04-11T09:52:16.063Z</time></trkpt><trkpt lat="45.3329467" lon="10.6734167"><ele>82.0</ele><time>2026-04-11T09:52:17.058Z</time></trkpt><trkpt lat="45.332885" lon="10.67351"><ele>82.0</ele><time>2026-04-11T09:52:18.057Z</time></trkpt><trkpt lat="45.3328183" lon="10.6736267"><ele>82.0</ele><time>2026-04-11T09:52:19.051Z</time></trkpt><trkpt lat="45.3327467" lon="10.6737483"><ele>82.0</ele><time>2026-04-11T09:52:20.053Z</time></trkpt><trkpt lat="45.3326717" lon="10.67388"><ele>81.75</ele><time>2026-04-11T09:52:21.056Z</time></trkpt><trkpt lat="45.3325967" lon="10.6740367"><ele>81.5</ele><time>2026-04-11T09:52:22.054Z</time></trkpt><trkpt lat="45.3325033" lon="10.6741683"><ele>81.25</ele><time>2026-04-11T09:52:23.057Z</time></trkpt><trkpt lat="45.3324417" lon="10.6743033"><ele>81.0</ele><time>2026-04-11T09:52:24.056Z</time></trkpt><trkpt lat="45.3323767" lon="10.6744267"><ele>81.8</ele><time>2026-04-11T09:52:25.055Z</time></trkpt><trkpt lat="45.3323167" lon="10.6745633"><ele>82.6</ele><time>2026-04-11T09:52:26.053Z</time></trkpt><trkpt lat="45.3322517" lon="10.6746617"><ele>83.4</ele><time>2026-04-11T09:52:27.053Z</time></trkpt><trkpt lat="45.332205" lon="10.6747533"><ele>84.2</ele><time>2026-04-11T09:52:28.052Z</time></trkpt><trkpt lat="45.332155" lon="10.6748467"><ele>85.0</ele><time>2026-04-11T09:52:29.057Z</time></trkpt><trkpt lat="45.332105" lon="10.6749383"><ele>87.2</ele><time>2026-04-11T09:52:30.059Z</time></trkpt><trkpt lat="45.332075" lon="10.6750633"><ele>89.4</ele><time>2026-04-11T09:52:31.055Z</time></trkpt><trkpt lat="45.3320717" lon="10.675205"><ele>91.6</ele><time>2026-04-11T09:52:32.054Z</time></trkpt><trkpt lat="45.3320833" lon="10.6753433"><ele>93.8</ele><time>2026-04-11T09:52:33.049Z</time></trkpt><trkpt lat="45.3321167" lon="10.67551"><ele>96.0</ele><time>2026-04-11T09:52:34.058Z</time></trkpt><trkpt lat="45.3321417" lon="10.675655"><ele>96.0</ele><time>2026-04-11T09:52:35.052Z</time></trkpt><trkpt lat="45.3321867" lon="10.67585"><ele>96.0</ele><time>2026-04-11T09:52:36.059Z</time></trkpt><trkpt lat="45.3322383" lon="10.6760217"><ele>96.0</ele><time>2026-04-11T09:52:37.057Z</time></trkpt><trkpt lat="45.3322967" lon="10.6762017"><ele>96.0</ele><time>2026-04-11T09:52:38.066Z</time></trkpt><trkpt lat="45.3323517" lon="10.6763283"><ele>94.0</ele><time>2026-04-11T09:52:39.054Z</time></trkpt><trkpt lat="45.33238" lon="10.6764683"><ele>92.0</ele><time>2026-04-11T09:52:40.057Z</time></trkpt><trkpt lat="45.332445" lon="10.6765983"><ele>90.0</ele><time>2026-04-11T09:52:41.051Z</time></trkpt><trkpt lat="45.3324933" lon="10.6766967"><ele>88.0</ele><time>2026-04-11T09:52:42.061Z</time></trkpt><trkpt lat="45.3325183" lon="10.676795"><ele>86.0</ele><time>2026-04-11T09:52:43.061Z</time></trkpt><trkpt lat="45.3325233" lon="10.6768983"><ele>84.0</ele><time>2026-04-11T09:52:44.057Z</time></trkpt><trkpt lat="45.3325183" lon="10.677025"><ele>83.25</ele><time>2026-04-11T09:52:45.05Z</time></trkpt><trkpt lat="45.3324867" lon="10.6771783"><ele>82.5</ele><time>2026-04-11T09:52:46.058Z</time></trkpt><trkpt lat="45.33247" lon="10.6773383"><ele>81.75</ele><time>2026-04-11T09:52:47.057Z</time></trkpt><trkpt lat="45.3324117" lon="10.6774883"><ele>81.0</ele><time>2026-04-11T09:52:48.054Z</time></trkpt><trkpt lat="45.332405" lon="10.6776717"><ele>81.0</ele><time>2026-04-11T09:52:49.057Z</time></trkpt><trkpt lat="45.332345" lon="10.6778717"><ele>81.0</ele><time>2026-04-11T09:52:50.056Z</time></trkpt><trkpt lat="45.3323" lon="10.6780567"><ele>81.0</ele><time>2026-04-11T09:52:51.054Z</time></trkpt><trkpt lat="45.3322217" lon="10.6782133"><ele>81.0</ele><time>2026-04-11T09:52:52.051Z</time></trkpt><trkpt lat="45.3321817" lon="10.6783917"><ele>81.0</ele><time>2026-04-11T09:52:53.059Z</time></trkpt><trkpt lat="45.3321367" lon="10.6785883"><ele>81.0</ele><time>2026-04-11T09:52:54.064Z</time></trkpt><trkpt lat="45.332095" lon="10.6787783"><ele>81.0</ele><time>2026-04-11T09:52:55.064Z</time></trkpt><trkpt lat="45.3320533" lon="10.6789633"><ele>81.0</ele><time>2026-04-11T09:52:56.059Z</time></trkpt><trkpt lat="45.33199" lon="10.6791617"><ele>80.75</ele><time>2026-04-11T09:52:57.057Z</time></trkpt><trkpt lat="45.331935" lon="10.67932"><ele>80.5</ele><time>2026-04-11T09:52:58.052Z</time></trkpt><trkpt lat="45.33189" lon="10.6795083"><ele>80.25</ele><time>2026-04-11T09:52:59.061Z</time></trkpt><trkpt lat="45.3318617" lon="10.6796883"><ele>80.0</ele><time>2026-04-11T09:53:00.065Z</time></trkpt><trkpt lat="45.331815" lon="10.6798733"><ele>80.0</ele><time>2026-04-11T09:53:01.057Z</time></trkpt><trkpt lat="45.3317717" lon="10.6800267"><ele>80.0</ele><time>2026-04-11T09:53:02.064Z</time></trkpt><trkpt lat="45.3317083" lon="10.6801933"><ele>80.0</ele><time>2026-04-11T09:53:03.055Z</time></trkpt><trkpt lat="45.3316433" lon="10.68034"><ele>80.0</ele><time>2026-04-11T09:53:04.052Z</time></trkpt><trkpt lat="45.3316033" lon="10.6805183"><ele>79.5</ele><time>2026-04-11T09:53:05.056Z</time></trkpt><trkpt lat="45.33154" lon="10.6806867"><ele>79.0</ele><time>2026-04-11T09:53:06.059Z</time></trkpt><trkpt lat="45.3314883" lon="10.6808517"><ele>78.5</ele><time>2026-04-11T09:53:07.051Z</time></trkpt><trkpt lat="45.3314583" lon="10.6810067"><ele>78.0</ele><time>2026-04-11T09:53:08.056Z</time></trkpt><trkpt lat="45.3314283" lon="10.6811667"><ele>77.6</ele><time>2026-04-11T09:53:09.058Z</time></trkpt><trkpt lat="45.3314217" lon="10.6813233"><ele>77.19999999999999</ele><time>2026-04-11T09:53:10.059Z</time></trkpt><trkpt lat="45.331435" lon="10.6814967"><ele>76.8</ele><time>2026-04-11T09:53:11.053Z</time></trkpt><trkpt lat="45.3314317" lon="10.681625"><ele>76.39999999999999</ele><time>2026-04-11T09:53:12.077Z</time></trkpt><trkpt lat="45.331405" lon="10.681755"><ele>76.0</ele><time>2026-04-11T09:53:13.058Z</time></trkpt><trkpt lat="45.3313233" lon="10.6818717"><ele>75.5</ele><time>2026-04-11T09:53:14.059Z</time></trkpt><trkpt lat="45.3312417" lon="10.6820167"><ele>75.0</ele><time>2026-04-11T09:53:15.055Z</time></trkpt><trkpt lat="45.3311617" lon="10.682175"><ele>74.5</ele><time>2026-04-11T09:53:16.06Z</time></trkpt><trkpt lat="45.331095" lon="10.68234"><ele>74.0</ele><time>2026-04-11T09:53:17.051Z</time></trkpt><trkpt lat="45.3310383" lon="10.6825017"><ele>74.0</ele><time>2026-04-11T09:53:18.06Z</time></trkpt><trkpt lat="45.3309783" lon="10.6826683"><ele>74.0</ele><time>2026-04-11T09:53:19.056Z</time></trkpt><trkpt lat="45.3309117" lon="10.6828217"><ele>74.0</ele><time>2026-04-11T09:53:20.051Z</time></trkpt><trkpt lat="45.330875" lon="10.6830317"><ele>74.0</ele><time>2026-04-11T09:53:21.057Z</time></trkpt><trkpt lat="45.3308217" lon="10.68323"><ele>74.25</ele><time>2026-04-11T09:53:22.061Z</time></trkpt><trkpt lat="45.3307633" lon="10.6834317"><ele>74.5</ele><time>2026-04-11T09:53:23.05Z</time></trkpt><trkpt lat="45.3307117" lon="10.68362"><ele>74.75</ele><time>2026-04-11T09:53:24.06Z</time></trkpt><trkpt lat="45.3306717" lon="10.6838167"><ele>75.0</ele><time>2026-04-11T09:53:25.055Z</time></trkpt><trkpt lat="45.330615" lon="10.6839633"><ele>75.0</ele><time>2026-04-11T09:53:26.064Z</time></trkpt><trkpt lat="45.330565" lon="10.6841117"><ele>75.0</ele><time>2026-04-11T09:53:27.057Z</time></trkpt><trkpt lat="45.33051" lon="10.6842617"><ele>75.0</ele><time>2026-04-11T09:53:28.058Z</time></trkpt><trkpt lat="45.3304367" lon="10.68444"><ele>75.0</ele><time>2026-04-11T09:53:29.064Z</time></trkpt><trkpt lat="45.3303483" lon="10.6846367"><ele>74.75</ele><time>2026-04-11T09:53:30.061Z</time></trkpt><trkpt lat="45.3302767" lon="10.6847967"><ele>74.5</ele><time>2026-04-11T09:53:31.062Z</time></trkpt><trkpt lat="45.3302117" lon="10.68494"><ele>74.25</ele><time>2026-04-11T09:53:32.053Z</time></trkpt><trkpt lat="45.3301583" lon="10.6850933"><ele>74.0</ele><time>2026-04-11T09:53:33.065Z</time></trkpt><trkpt lat="45.33007" lon="10.6852067"><ele>74.0</ele><time>2026-04-11T09:53:34.056Z</time></trkpt><trkpt lat="45.32998" lon="10.6853267"><ele>74.0</ele><time>2026-04-11T09:53:35.054Z</time></trkpt><trkpt lat="45.3298867" lon="10.6854467"><ele>74.0</ele><time>2026-04-11T09:53:36.06Z</time></trkpt><trkpt lat="45.329795" lon="10.6855667"><ele>74.0</ele><time>2026-04-11T09:53:37.063Z</time></trkpt><trkpt lat="45.3297033" lon="10.6856933"><ele>74.0</ele><time>2026-04-11T09:53:38.069Z</time></trkpt><trkpt lat="45.3296233" lon="10.6858067"><ele>74.0</ele><time>2026-04-11T09:53:39.064Z</time></trkpt><trkpt lat="45.3295433" lon="10.68591"><ele>74.0</ele><time>2026-04-11T09:53:40.08Z</time></trkpt><trkpt lat="45.3294667" lon="10.686"><ele>74.0</ele><time>2026-04-11T09:53:41.075Z</time></trkpt><trkpt lat="45.3294033" lon="10.68608"><ele>74.0</ele><time>2026-04-11T09:53:42.062Z</time></trkpt><trkpt lat="45.3293083" lon="10.686155"><ele>74.0</ele><time>2026-04-11T09:53:44.061Z</time></trkpt><trkpt lat="45.3292383" lon="10.6861367"><ele>74.0</ele><time>2026-04-11T09:53:46.054Z</time></trkpt><trkpt lat="45.3291617" lon="10.68599"><ele>74.0</ele><time>2026-04-11T09:53:48.063Z</time></trkpt><trkpt lat="45.329135" lon="10.6858433"><ele>74.0</ele><time>2026-04-11T09:53:49.052Z</time></trkpt><trkpt lat="45.3291133" lon="10.68564"><ele>74.0</ele><time>2026-04-11T09:53:50.063Z</time></trkpt><trkpt lat="45.3290717" lon="10.6854333"><ele>74.0</ele><time>2026-04-11T09:53:51.056Z</time></trkpt><trkpt lat="45.3290133" lon="10.6852033"><ele>74.0</ele><time>2026-04-11T09:53:52.054Z</time></trkpt><trkpt lat="45.3289467" lon="10.684965"><ele>75.0</ele><time>2026-04-11T09:53:53.06Z</time></trkpt><trkpt lat="45.3288783" lon="10.684695"><ele>76.0</ele><time>2026-04-11T09:53:54.057Z</time></trkpt><trkpt lat="45.3288" lon="10.6844317"><ele>77.0</ele><time>2026-04-11T09:53:55.057Z</time></trkpt><trkpt lat="45.3287117" lon="10.68415"><ele>77.33333333333334</ele><time>2026-04-11T09:53:56.05Z</time></trkpt><trkpt lat="45.3286517" lon="10.6838867"><ele>77.66666666666667</ele><time>2026-04-11T09:53:57.055Z</time></trkpt><trkpt lat="45.3285983" lon="10.68365"><ele>78.0</ele><time>2026-04-11T09:53:58.051Z</time></trkpt><trkpt lat="45.328565" lon="10.6834367"><ele>79.0</ele><time>2026-04-11T09:53:59.063Z</time></trkpt><trkpt lat="45.3285083" lon="10.6832283"><ele>80.0</ele><time>2026-04-11T09:54:00.135Z</time></trkpt><trkpt lat="45.328455" lon="10.6830317"><ele>81.0</ele><time>2026-04-11T09:54:01.056Z</time></trkpt><trkpt lat="45.3284217" lon="10.6828383"><ele>82.0</ele><time>2026-04-11T09:54:02.055Z</time></trkpt><trkpt lat="45.3283633" lon="10.6824567"><ele>82.5</ele><time>2026-04-11T09:54:04.056Z</time></trkpt><trkpt lat="45.3283183" lon="10.682265"><ele>83.0</ele><time>2026-04-11T09:54:05.051Z</time></trkpt><trkpt lat="45.3282567" lon="10.6820917"><ele>83.5</ele><time>2026-04-11T09:54:06.059Z</time></trkpt><trkpt lat="45.3281867" lon="10.6819317"><ele>84.0</ele><time>2026-04-11T09:54:07.057Z</time></trkpt><trkpt lat="45.3280883" lon="10.681775"><ele>84.5</ele><time>2026-04-11T09:54:08.051Z</time></trkpt><trkpt lat="45.3280017" lon="10.68162"><ele>85.0</ele><time>2026-04-11T09:54:09.052Z</time></trkpt><trkpt lat="45.3279283" lon="10.6814517"><ele>85.5</ele><time>2026-04-11T09:54:10.056Z</time></trkpt><trkpt lat="45.3278733" lon="10.6812817"><ele>86.0</ele><time>2026-04-11T09:54:11.052Z</time></trkpt><trkpt lat="45.32782" lon="10.6810833"><ele>86.0</ele><time>2026-04-11T09:54:12.058Z</time></trkpt><trkpt lat="45.3277467" lon="10.6809033"><ele>86.0</ele><time>2026-04-11T09:54:13.06Z</time></trkpt><trkpt lat="45.3276733" lon="10.6807133"><ele>86.0</ele><time>2026-04-11T09:54:14.059Z</time></trkpt><trkpt lat="45.327585" lon="10.6805467"><ele>86.0</ele><time>2026-04-11T09:54:15.049Z</time></trkpt><trkpt lat="45.3275017" lon="10.6803583"><ele>86.33333333333334</ele><time>2026-04-11T09:54:16.051Z</time></trkpt><trkpt lat="45.327435" lon="10.6801733"><ele>86.66666666666667</ele><time>2026-04-11T09:54:17.055Z</time></trkpt><trkpt lat="45.3273367" lon="10.6799783"><ele>87.0</ele><time>2026-04-11T09:54:18.062Z</time></trkpt><trkpt lat="45.3272283" lon="10.679835"><ele>88.25</ele><time>2026-04-11T09:54:19.057Z</time></trkpt><trkpt lat="45.32712" lon="10.6796783"><ele>89.5</ele><time>2026-04-11T09:54:20.059Z</time></trkpt><trkpt lat="45.3270417" lon="10.6795133"><ele>90.75</ele><time>2026-04-11T09:54:21.055Z</time></trkpt><trkpt lat="45.326955" lon="10.6793433"><ele>92.0</ele><time>2026-04-11T09:54:22.057Z</time></trkpt><trkpt lat="45.326895" lon="10.6791617"><ele>92.5</ele><time>2026-04-11T09:54:23.058Z</time></trkpt><trkpt lat="45.3268267" lon="10.678985"><ele>93.0</ele><time>2026-04-11T09:54:24.052Z</time></trkpt><trkpt lat="45.3267767" lon="10.6787933"><ele>93.5</ele><time>2026-04-11T09:54:25.056Z</time></trkpt><trkpt lat="45.326735" lon="10.6786017"><ele>94.0</ele><time>2026-04-11T09:54:26.06Z</time></trkpt><trkpt lat="45.3266883" lon="10.67842"><ele>94.66666666666666</ele><time>2026-04-11T09:54:27.051Z</time></trkpt><trkpt lat="45.3266417" lon="10.678225"><ele>95.33333333333333</ele><time>2026-04-11T09:54:28.054Z</time></trkpt><trkpt lat="45.3266033" lon="10.678"><ele>96.0</ele><time>2026-04-11T09:54:29.068Z</time></trkpt><trkpt lat="45.3265667" lon="10.67777"><ele>95.66666666666667</ele><time>2026-04-11T09:54:30.068Z</time></trkpt><trkpt lat="45.3265283" lon="10.6775517"><ele>95.33333333333334</ele><time>2026-04-11T09:54:31.053Z</time></trkpt><trkpt lat="45.3265233" lon="10.677345"><ele>95.0</ele><time>2026-04-11T09:54:32.055Z</time></trkpt><trkpt lat="45.326535" lon="10.6771017"><ele>94.33333333333334</ele><time>2026-04-11T09:54:33.055Z</time></trkpt><trkpt lat="45.3265083" lon="10.676875"><ele>93.66666666666667</ele><time>2026-04-11T09:54:34.057Z</time></trkpt><trkpt lat="45.326505" lon="10.6766583"><ele>93.0</ele><time>2026-04-11T09:54:35.054Z</time></trkpt><trkpt lat="45.326505" lon="10.6764417"><ele>93.0</ele><time>2026-04-11T09:54:36.055Z</time></trkpt><trkpt lat="45.326495" lon="10.6762483"><ele>93.0</ele><time>2026-04-11T09:54:37.054Z</time></trkpt><trkpt lat="45.3264417" lon="10.6760517"><ele>93.0</ele><time>2026-04-11T09:54:38.066Z</time></trkpt><trkpt lat="45.3263883" lon="10.6758517"><ele>93.0</ele><time>2026-04-11T09:54:39.055Z</time></trkpt><trkpt lat="45.3262833" lon="10.6756367"><ele>92.66666666666667</ele><time>2026-04-11T09:54:40.055Z</time></trkpt><trkpt lat="45.3261867" lon="10.6754517"><ele>92.33333333333334</ele><time>2026-04-11T09:54:41.051Z</time></trkpt><trkpt lat="45.32608" lon="10.6752783"><ele>92.0</ele><time>2026-04-11T09:54:42.059Z</time></trkpt><trkpt lat="45.3259583" lon="10.6751333"><ele>91.66666666666667</ele><time>2026-04-11T09:54:43.052Z</time></trkpt><trkpt lat="45.3258217" lon="10.6749667"><ele>91.33333333333333</ele><time>2026-04-11T09:54:44.058Z</time></trkpt><trkpt lat="45.3257267" lon="10.6747867"><ele>91.0</ele><time>2026-04-11T09:54:45.054Z</time></trkpt><trkpt lat="45.3256267" lon="10.6746217"><ele>90.66666666666666</ele><time>2026-04-11T09:54:46.059Z</time></trkpt><trkpt lat="45.3254983" lon="10.6744717"><ele>90.33333333333333</ele><time>2026-04-11T09:54:47.05Z</time></trkpt><trkpt lat="45.3253883" lon="10.674315"><ele>90.0</ele><time>2026-04-11T09:54:48.059Z</time></trkpt><trkpt lat="45.3253067" lon="10.6741333"><ele>89.75</ele><time>2026-04-11T09:54:49.062Z</time></trkpt><trkpt lat="45.32523" lon="10.67395"><ele>89.5</ele><time>2026-04-11T09:54:50.061Z</time></trkpt><trkpt lat="45.3251633" lon="10.6737717"><ele>89.25</ele><time>2026-04-11T09:54:51.056Z</time></trkpt><trkpt lat="45.3251267" lon="10.6736"><ele>89.0</ele><time>2026-04-11T09:54:52.059Z</time></trkpt><trkpt lat="45.3251033" lon="10.6734317"><ele>89.0</ele><time>2026-04-11T09:54:53.064Z</time></trkpt><trkpt lat="45.325115" lon="10.6732167"><ele>89.0</ele><time>2026-04-11T09:54:54.066Z</time></trkpt><trkpt lat="45.3251417" lon="10.6730233"><ele>89.0</ele><time>2026-04-11T09:54:55.06Z</time></trkpt><trkpt lat="45.3251667" lon="10.6728233"><ele>89.0</ele><time>2026-04-11T09:54:56.056Z</time></trkpt><trkpt lat="45.3251833" lon="10.6726083"><ele>89.0</ele><time>2026-04-11T09:54:57.065Z</time></trkpt><trkpt lat="45.325195" lon="10.67239"><ele>89.0</ele><time>2026-04-11T09:54:58.056Z</time></trkpt><trkpt lat="45.3252217" lon="10.672175"><ele>89.0</ele><time>2026-04-11T09:54:59.059Z</time></trkpt><trkpt lat="45.32522" lon="10.6719367"><ele>89.75</ele><time>2026-04-11T09:55:00.107Z</time></trkpt><trkpt lat="45.3252233" lon="10.67172"><ele>90.5</ele><time>2026-04-11T09:55:01.062Z</time></trkpt><trkpt lat="45.3252267" lon="10.67151"><ele>91.25</ele><time>2026-04-11T09:55:02.074Z</time></trkpt><trkpt lat="45.32523" lon="10.6713233"><ele>92.0</ele><time>2026-04-11T09:55:03.076Z</time></trkpt><trkpt lat="45.3252517" lon="10.671175"><ele>92.19999999999999</ele><time>2026-04-11T09:55:04.061Z</time></trkpt><trkpt lat="45.325315" lon="10.6710567"><ele>92.4</ele><time>2026-04-11T09:55:05.053Z</time></trkpt><trkpt lat="45.3253733" lon="10.6709617"><ele>92.6</ele><time>2026-04-11T09:55:06.058Z</time></trkpt><trkpt lat="45.3254467" lon="10.6708533"><ele>92.80000000000001</ele><time>2026-04-11T09:55:07.058Z</time></trkpt><trkpt lat="45.32551" lon="10.670705"><ele>93.0</ele><time>2026-04-11T09:55:08.054Z</time></trkpt><trkpt lat="45.3255667" lon="10.6705433"><ele>90.33333333333333</ele><time>2026-04-11T09:55:09.057Z</time></trkpt><trkpt lat="45.3256183" lon="10.67036"><ele>87.66666666666666</ele><time>2026-04-11T09:55:10.056Z</time></trkpt><trkpt lat="45.3256733" lon="10.6701483"><ele>85.0</ele><time>2026-04-11T09:55:11.062Z</time></trkpt><trkpt lat="45.3257283" lon="10.669925"><ele>85.0</ele><time>2026-04-11T09:55:12.053Z</time></trkpt><trkpt lat="45.3257983" lon="10.6697033"><ele>85.0</ele><time>2026-04-11T09:55:13.06Z</time></trkpt><trkpt lat="45.3258617" lon="10.6695283"><ele>85.0</ele><time>2026-04-11T09:55:14.066Z</time></trkpt><trkpt lat="45.3259267" lon="10.669315"><ele>85.0</ele><time>2026-04-11T09:55:15.049Z</time></trkpt><trkpt lat="45.3260017" lon="10.6691233"><ele>85.0</ele><time>2026-04-11T09:55:16.057Z</time></trkpt><trkpt lat="45.3260517" lon="10.668915"><ele>85.0</ele><time>2026-04-11T09:55:17.054Z</time></trkpt><trkpt lat="45.3261217" lon="10.6686883"><ele>84.66666666666666</ele><time>2026-04-11T09:55:18.057Z</time></trkpt><trkpt lat="45.3261933" lon="10.6684733"><ele>84.33333333333333</ele><time>2026-04-11T09:55:19.052Z</time></trkpt><trkpt lat="45.3262533" lon="10.6682833"><ele>84.0</ele><time>2026-04-11T09:55:20.06Z</time></trkpt><trkpt lat="45.3263233" lon="10.6680783"><ele>84.0</ele><time>2026-04-11T09:55:21.052Z</time></trkpt><trkpt lat="45.32638" lon="10.66789"><ele>84.0</ele><time>2026-04-11T09:55:22.056Z</time></trkpt><trkpt lat="45.3264117" lon="10.66769"><ele>84.0</ele><time>2026-04-11T09:55:23.056Z</time></trkpt><trkpt lat="45.3264567" lon="10.6674733"><ele>84.0</ele><time>2026-04-11T09:55:24.061Z</time></trkpt><trkpt lat="45.3264883" lon="10.6672583"><ele>84.66666666666667</ele><time>2026-04-11T09:55:25.069Z</time></trkpt><trkpt lat="45.3264833" lon="10.6670133"><ele>85.33333333333334</ele><time>2026-04-11T09:55:26.06Z</time></trkpt><trkpt lat="45.32648" lon="10.66677"><ele>86.0</ele><time>2026-04-11T09:55:27.059Z</time></trkpt><trkpt lat="45.3264817" lon="10.6665267"><ele>86.0</ele><time>2026-04-11T09:55:28.051Z</time></trkpt><trkpt lat="45.3264817" lon="10.6662933"><ele>86.0</ele><time>2026-04-11T09:55:29.065Z</time></trkpt><trkpt lat="45.3264883" lon="10.6660417"><ele>86.0</ele><time>2026-04-11T09:55:30.068Z</time></trkpt><trkpt lat="45.3264817" lon="10.6657967"><ele>86.0</ele><time>2026-04-11T09:55:31.059Z</time></trkpt><trkpt lat="45.326475" lon="10.6655417"><ele>86.0</ele><time>2026-04-11T09:55:32.054Z</time></trkpt><trkpt lat="45.3264733" lon="10.6653067"><ele>86.0</ele><time>2026-04-11T09:55:33.07Z</time></trkpt><trkpt lat="45.3264667" lon="10.66507"><ele>86.0</ele><time>2026-04-11T09:55:34.068Z</time></trkpt><trkpt lat="45.326465" lon="10.6648267"><ele>86.0</ele><time>2026-04-11T09:55:35.065Z</time></trkpt><trkpt lat="45.3264717" lon="10.6645783"><ele>86.0</ele><time>2026-04-11T09:55:36.069Z</time></trkpt><trkpt lat="45.3264867" lon="10.6643283"><ele>86.0</ele><time>2026-04-11T09:55:37.062Z</time></trkpt><trkpt lat="45.326515" lon="10.6640917"><ele>86.0</ele><time>2026-04-11T09:55:38.064Z</time></trkpt><trkpt lat="45.3265467" lon="10.66384"><ele>86.0</ele><time>2026-04-11T09:55:39.068Z</time></trkpt><trkpt lat="45.3266167" lon="10.6636017"><ele>86.5</ele><time>2026-04-11T09:55:40.059Z</time></trkpt><trkpt lat="45.32661" lon="10.6633883"><ele>87.0</ele><time>2026-04-11T09:55:41.052Z</time></trkpt><trkpt lat="45.3266317" lon="10.66318"><ele>87.5</ele><time>2026-04-11T09:55:42.071Z</time></trkpt><trkpt lat="45.3266583" lon="10.6630133"><ele>88.0</ele><time>2026-04-11T09:55:43.072Z</time></trkpt><trkpt lat="45.3267133" lon="10.6628933"><ele>88.0</ele><time>2026-04-11T09:55:44.07Z</time></trkpt><trkpt lat="45.3267783" lon="10.6627967"><ele>88.0</ele><time>2026-04-11T09:55:45.068Z</time></trkpt><trkpt lat="45.3268467" lon="10.662695"><ele>88.0</ele><time>2026-04-11T09:55:46.063Z</time></trkpt><trkpt lat="45.3268767" lon="10.6625967"><ele>88.0</ele><time>2026-04-11T09:55:47.059Z</time></trkpt><trkpt lat="45.32688" lon="10.662475"><ele>88.0</ele><time>2026-04-11T09:55:48.084Z</time></trkpt><trkpt lat="45.32689" lon="10.66234"><ele>88.0</ele><time>2026-04-11T09:55:49.07Z</time></trkpt><trkpt lat="45.3269033" lon="10.6621617"><ele>88.25</ele><time>2026-04-11T09:55:50.063Z</time></trkpt><trkpt lat="45.326915" lon="10.6619817"><ele>88.5</ele><time>2026-04-11T09:55:51.063Z</time></trkpt><trkpt lat="45.326925" lon="10.66177"><ele>88.75</ele><time>2026-04-11T09:55:52.063Z</time></trkpt><trkpt lat="45.3269167" lon="10.6615533"><ele>89.0</ele><time>2026-04-11T09:55:53.062Z</time></trkpt><trkpt lat="45.3269133" lon="10.6613333"><ele>89.0</ele><time>2026-04-11T09:55:54.065Z</time></trkpt><trkpt lat="45.326895" lon="10.6611333"><ele>89.0</ele><time>2026-04-11T09:55:55.06Z</time></trkpt><trkpt lat="45.3268567" lon="10.6609133"><ele>89.0</ele><time>2026-04-11T09:55:56.087Z</time></trkpt><trkpt lat="45.3268133" lon="10.6607033"><ele>89.75</ele><time>2026-04-11T09:55:57.073Z</time></trkpt><trkpt lat="45.3267767" lon="10.66051"><ele>90.5</ele><time>2026-04-11T09:55:58.078Z</time></trkpt><trkpt lat="45.3267433" lon="10.6603233"><ele>91.25</ele><time>2026-04-11T09:55:59.065Z</time></trkpt><trkpt lat="45.32672" lon="10.6601283"><ele>92.0</ele><time>2026-04-11T09:56:00.075Z</time></trkpt><trkpt lat="45.3267117" lon="10.6599733"><ele>92.75</ele><time>2026-04-11T09:56:01.062Z</time></trkpt><trkpt lat="45.3267183" lon="10.6598083"><ele>93.5</ele><time>2026-04-11T09:56:02.069Z</time></trkpt><trkpt lat="45.32674" lon="10.659635"><ele>94.25</ele><time>2026-04-11T09:56:03.07Z</time></trkpt><trkpt lat="45.3267517" lon="10.659445"><ele>95.0</ele><time>2026-04-11T09:56:04.065Z</time></trkpt><trkpt lat="45.32678" lon="10.6592517"><ele>95.5</ele><time>2026-04-11T09:56:05.061Z</time></trkpt><trkpt lat="45.3267967" lon="10.6590467"><ele>96.0</ele><time>2026-04-11T09:56:06.068Z</time></trkpt><trkpt lat="45.326825" lon="10.6588517"><ele>96.5</ele><time>2026-04-11T09:56:07.084Z</time></trkpt><trkpt lat="45.3268283" lon="10.6586867"><ele>97.0</ele><time>2026-04-11T09:56:08.085Z</time></trkpt><trkpt lat="45.326805" lon="10.6585117"><ele>97.8</ele><time>2026-04-11T09:56:09.082Z</time></trkpt><trkpt lat="45.3267967" lon="10.658385"><ele>98.6</ele><time>2026-04-11T09:56:10.086Z</time></trkpt><trkpt lat="45.32681" lon="10.65826"><ele>99.39999999999999</ele><time>2026-04-11T09:56:11.072Z</time></trkpt><trkpt lat="45.32683" lon="10.6581383"><ele>100.19999999999999</ele><time>2026-04-11T09:56:12.064Z</time></trkpt><trkpt lat="45.3268583" lon="10.6579933"><ele>101.0</ele><time>2026-04-11T09:56:13.076Z</time></trkpt><trkpt lat="45.3269" lon="10.6578833"><ele>101.0</ele><time>2026-04-11T09:56:14.061Z</time></trkpt><trkpt lat="45.326965" lon="10.6577867"><ele>101.0</ele><time>2026-04-11T09:56:15.064Z</time></trkpt><trkpt lat="45.3270483" lon="10.6577067"><ele>101.0</ele><time>2026-04-11T09:56:16.061Z</time></trkpt><trkpt lat="45.3271333" lon="10.657635"><ele>101.0</ele><time>2026-04-11T09:56:17.052Z</time></trkpt><trkpt lat="45.327235" lon="10.6575517"><ele>101.0</ele><time>2026-04-11T09:56:18.064Z</time></trkpt><trkpt lat="45.327355" lon="10.6574617"><ele>102.25</ele><time>2026-04-11T09:56:19.056Z</time></trkpt><trkpt lat="45.3274617" lon="10.6573717"><ele>103.5</ele><time>2026-04-11T09:56:20.063Z</time></trkpt><trkpt lat="45.327595" lon="10.6572767"><ele>104.75</ele><time>2026-04-11T09:56:21.055Z</time></trkpt><trkpt lat="45.327695" lon="10.6571933"><ele>106.0</ele><time>2026-04-11T09:56:22.103Z</time></trkpt><trkpt lat="45.3277967" lon="10.6571133"><ele>106.0</ele><time>2026-04-11T09:56:23.055Z</time></trkpt><trkpt lat="45.3278917" lon="10.6570267"><ele>106.0</ele><time>2026-04-11T09:56:24.068Z</time></trkpt><trkpt lat="45.3279967" lon="10.6569583"><ele>106.0</ele><time>2026-04-11T09:56:25.06Z</time></trkpt><trkpt lat="45.328125" lon="10.6568717"><ele>106.0</ele><time>2026-04-11T09:56:26.074Z</time></trkpt><trkpt lat="45.3282667" lon="10.6567633"><ele>106.25</ele><time>2026-04-11T09:56:27.058Z</time></trkpt><trkpt lat="45.3283983" lon="10.6566917"><ele>106.5</ele><time>2026-04-11T09:56:28.064Z</time></trkpt><trkpt lat="45.3285117" lon="10.6566167"><ele>106.75</ele><time>2026-04-11T09:56:29.053Z</time></trkpt><trkpt lat="45.32865" lon="10.6565417"><ele>107.0</ele><time>2026-04-11T09:56:30.06Z</time></trkpt><trkpt lat="45.328785" lon="10.6564583"><ele>105.33333333333333</ele><time>2026-04-11T09:56:31.058Z</time></trkpt><trkpt lat="45.3289217" lon="10.656365"><ele>103.66666666666666</ele><time>2026-04-11T09:56:32.06Z</time></trkpt><trkpt lat="45.3290583" lon="10.6562583"><ele>102.0</ele><time>2026-04-11T09:56:33.058Z</time></trkpt><trkpt lat="45.3291917" lon="10.6561417"><ele>103.33333333333334</ele><time>2026-04-11T09:56:34.065Z</time></trkpt><trkpt lat="45.3293233" lon="10.6560267"><ele>104.66666666666667</ele><time>2026-04-11T09:56:35.064Z</time></trkpt><trkpt lat="45.3294583" lon="10.6558967"><ele>106.0</ele><time>2026-04-11T09:56:36.055Z</time></trkpt><trkpt lat="45.32958" lon="10.6557583"><ele>106.0</ele><time>2026-04-11T09:56:37.07Z</time></trkpt><trkpt lat="45.3297033" lon="10.65563"><ele>106.0</ele><time>2026-04-11T09:56:38.062Z</time></trkpt><trkpt lat="45.3298183" lon="10.6555233"><ele>106.0</ele><time>2026-04-11T09:56:39.062Z</time></trkpt><trkpt lat="45.3299317" lon="10.6554167"><ele>106.0</ele><time>2026-04-11T09:56:40.066Z</time></trkpt><trkpt lat="45.33004" lon="10.6553217"><ele>105.0</ele><time>2026-04-11T09:56:41.063Z</time></trkpt><trkpt lat="45.3301333" lon="10.655265"><ele>104.0</ele><time>2026-04-11T09:56:42.056Z</time></trkpt><trkpt lat="45.330255" lon="10.655265"><ele>103.0</ele><time>2026-04-11T09:56:43.067Z</time></trkpt><trkpt lat="45.33036" lon="10.6552217"><ele>102.0</ele><time>2026-04-11T09:56:44.057Z</time></trkpt><trkpt lat="45.33045" lon="10.6551633"><ele>101.0</ele><time>2026-04-11T09:56:45.053Z</time></trkpt><trkpt lat="45.3305583" lon="10.65514"><ele>101.0</ele><time>2026-04-11T09:56:46.069Z</time></trkpt><trkpt lat="45.330655" lon="10.65512"><ele>101.0</ele><time>2026-04-11T09:56:47.061Z</time></trkpt><trkpt lat="45.3307867" lon="10.6550417"><ele>101.0</ele><time>2026-04-11T09:56:48.063Z</time></trkpt><trkpt lat="45.3309133" lon="10.654965"><ele>101.0</ele><time>2026-04-11T09:56:49.062Z</time></trkpt><trkpt lat="45.3310317" lon="10.6549117"><ele>100.99999999999999</ele><time>2026-04-11T09:56:50.076Z</time></trkpt><trkpt lat="45.3311517" lon="10.6549117"><ele>101.0</ele><time>2026-04-11T09:56:51.063Z</time></trkpt><trkpt lat="45.3312333" lon="10.6548617"><ele>101.0</ele><time>2026-04-11T09:56:52.066Z</time></trkpt><trkpt lat="45.3313017" lon="10.6548233"><ele>101.0</ele><time>2026-04-11T09:56:53.061Z</time></trkpt><trkpt lat="45.3313433" lon="10.6547267"><ele>100.99999999999999</ele><time>2026-04-11T09:56:54.076Z</time></trkpt><trkpt lat="45.3313717" lon="10.6546167"><ele>101.0</ele><time>2026-04-11T09:56:55.052Z</time></trkpt><trkpt lat="45.3313583" lon="10.654455"><ele>101.0</ele><time>2026-04-11T09:56:56.076Z</time></trkpt><trkpt lat="45.3313417" lon="10.6542867"><ele>101.0</ele><time>2026-04-11T09:56:57.052Z</time></trkpt><trkpt lat="45.331325" lon="10.6540967"><ele>101.0</ele><time>2026-04-11T09:56:58.06Z</time></trkpt><trkpt lat="45.3312967" lon="10.6539467"><ele>101.0</ele><time>2026-04-11T09:56:59.06Z</time></trkpt><trkpt lat="45.3312967" lon="10.653735"><ele>100.33333333333333</ele><time>2026-04-11T09:57:00.076Z</time></trkpt><trkpt lat="45.331305" lon="10.6534633"><ele>99.66666666666666</ele><time>2026-04-11T09:57:01.051Z</time></trkpt><trkpt lat="45.3313033" lon="10.6532883"><ele>99.0</ele><time>2026-04-11T09:57:02.064Z</time></trkpt><trkpt lat="45.33129" lon="10.6530933"><ele>99.0</ele><time>2026-04-11T09:57:03.06Z</time></trkpt><trkpt lat="45.3312917" lon="10.6529133"><ele>99.0</ele><time>2026-04-11T09:57:04.068Z</time></trkpt><trkpt lat="45.3312867" lon="10.6527217"><ele>99.0</ele><time>2026-04-11T09:57:05.06Z</time></trkpt><trkpt lat="45.3312867" lon="10.6525467"><ele>99.0</ele><time>2026-04-11T09:57:06.056Z</time></trkpt><trkpt lat="45.3312867" lon="10.6523833"><ele>98.66666666666667</ele><time>2026-04-11T09:57:07.048Z</time></trkpt><trkpt lat="45.331285" lon="10.6522417"><ele>98.33333333333334</ele><time>2026-04-11T09:57:08.057Z</time></trkpt><trkpt lat="45.3312833" lon="10.6521117"><ele>98.0</ele><time>2026-04-11T09:57:09.058Z</time></trkpt><trkpt lat="45.3312817" lon="10.652005"><ele>97.66666666666667</ele><time>2026-04-11T09:57:10.046Z</time></trkpt><trkpt lat="45.3312533" lon="10.6518933"><ele>97.33333333333334</ele><time>2026-04-11T09:57:12.065Z</time></trkpt><trkpt lat="45.3311633" lon="10.65186"><ele>97.0</ele><time>2026-04-11T09:57:14.055Z</time></trkpt><trkpt lat="45.33107" lon="10.6518467"><ele>96.66666666666667</ele><time>2026-04-11T09:57:16.054Z</time></trkpt><trkpt lat="45.331035" lon="10.651765"><ele>96.33333333333334</ele><time>2026-04-11T09:57:18.072Z</time></trkpt><trkpt lat="45.33105" lon="10.65164"><ele>96.0</ele><time>2026-04-11T09:57:20.061Z</time></trkpt><trkpt lat="45.3310167" lon="10.65154"><ele>95.66666666666667</ele><time>2026-04-11T09:57:22.062Z</time></trkpt><trkpt lat="45.3309183" lon="10.65148"><ele>95.33333333333334</ele><time>2026-04-11T09:57:24.06Z</time></trkpt><trkpt lat="45.3308333" lon="10.6513983"><ele>95.0</ele><time>2026-04-11T09:57:26.058Z</time></trkpt><trkpt lat="45.3308133" lon="10.6512783"><ele>95.0</ele><time>2026-04-11T09:57:28.067Z</time></trkpt><trkpt lat="45.3308283" lon="10.65118"><ele>95.0</ele><time>2026-04-11T09:57:29.062Z</time></trkpt><trkpt lat="45.3308417" lon="10.651065"><ele>95.0</ele><time>2026-04-11T09:57:30.06Z</time></trkpt><trkpt lat="45.33085" lon="10.65091"><ele>95.0</ele><time>2026-04-11T09:57:32.067Z</time></trkpt><trkpt lat="45.330925" lon="10.650825"><ele>95.0</ele><time>2026-04-11T09:57:34.064Z</time></trkpt><trkpt lat="45.331035" lon="10.65076"><ele>95.14285714285714</ele><time>2026-04-11T09:57:36.062Z</time></trkpt><trkpt lat="45.3310967" lon="10.650725"><ele>95.28571428571429</ele><time>2026-04-11T09:57:37.062Z</time></trkpt><trkpt lat="45.331165" lon="10.6507"><ele>95.42857142857142</ele><time>2026-04-11T09:57:38.066Z</time></trkpt><trkpt lat="45.331235" lon="10.65067"><ele>95.57142857142857</ele><time>2026-04-11T09:57:39.061Z</time></trkpt><trkpt lat="45.33131" lon="10.6506567"><ele>95.71428571428571</ele><time>2026-04-11T09:57:40.059Z</time></trkpt><trkpt lat="45.3313933" lon="10.6506583"><ele>95.85714285714285</ele><time>2026-04-11T09:57:41.064Z</time></trkpt><trkpt lat="45.3314733" lon="10.6506633"><ele>96.0</ele><time>2026-04-11T09:57:42.065Z</time></trkpt><trkpt lat="45.3315483" lon="10.6506517"><ele>95.6</ele><time>2026-04-11T09:57:43.068Z</time></trkpt><trkpt lat="45.331655" lon="10.6505817"><ele>95.19999999999999</ele><time>2026-04-11T09:57:45.086Z</time></trkpt><trkpt lat="45.3316967" lon="10.650505"><ele>94.80000000000001</ele><time>2026-04-11T09:57:46.075Z</time></trkpt><trkpt lat="45.331725" lon="10.6504117"><ele>94.4</ele><time>2026-04-11T09:57:47.063Z</time></trkpt><trkpt lat="45.3317367" lon="10.6502833"><ele>94.0</ele><time>2026-04-11T09:57:48.059Z</time></trkpt><trkpt lat="45.331745" lon="10.65013"><ele>94.0</ele><time>2026-04-11T09:57:49.05Z</time></trkpt><trkpt lat="45.3317567" lon="10.6499533"><ele>94.0</ele><time>2026-04-11T09:57:50.065Z</time></trkpt><trkpt lat="45.3317567" lon="10.6497767"><ele>94.0</ele><time>2026-04-11T09:57:51.056Z</time></trkpt><trkpt lat="45.3317767" lon="10.64959"><ele>94.0</ele><time>2026-04-11T09:57:52.058Z</time></trkpt><trkpt lat="45.331785" lon="10.64942"><ele>93.75</ele><time>2026-04-11T09:57:53.067Z</time></trkpt><trkpt lat="45.3317967" lon="10.649245"><ele>93.5</ele><time>2026-04-11T09:57:54.062Z</time></trkpt><trkpt lat="45.3318117" lon="10.6490567"><ele>93.25</ele><time>2026-04-11T09:57:55.052Z</time></trkpt><trkpt lat="45.3318333" lon="10.648865"><ele>93.0</ele><time>2026-04-11T09:57:56.058Z</time></trkpt><trkpt lat="45.3318467" lon="10.6486633"><ele>92.25</ele><time>2026-04-11T09:57:57.062Z</time></trkpt><trkpt lat="45.3318567" lon="10.6484617"><ele>91.5</ele><time>2026-04-11T09:57:58.058Z</time></trkpt><trkpt lat="45.3318817" lon="10.648245"><ele>90.75</ele><time>2026-04-11T09:57:59.055Z</time></trkpt><trkpt lat="45.3318967" lon="10.648045"><ele>90.0</ele><time>2026-04-11T09:58:00.064Z</time></trkpt><trkpt lat="45.3319117" lon="10.6478567"><ele>90.0</ele><time>2026-04-11T09:58:01.061Z</time></trkpt><trkpt lat="45.3319133" lon="10.6476617"><ele>90.0</ele><time>2026-04-11T09:58:02.075Z</time></trkpt><trkpt lat="45.3319183" lon="10.6474767"><ele>90.0</ele><time>2026-04-11T09:58:03.074Z</time></trkpt><trkpt lat="45.3319417" lon="10.6473167"><ele>90.0</ele><time>2026-04-11T09:58:04.069Z</time></trkpt><trkpt lat="45.331965" lon="10.6471467"><ele>90.0</ele><time>2026-04-11T09:58:05.054Z</time></trkpt><trkpt lat="45.331985" lon="10.6470167"><ele>90.0</ele><time>2026-04-11T09:58:06.072Z</time></trkpt><trkpt lat="45.332035" lon="10.6469417"><ele>90.0</ele><time>2026-04-11T09:58:07.069Z</time></trkpt><trkpt lat="45.3320733" lon="10.6468417"><ele>90.0</ele><time>2026-04-11T09:58:08.076Z</time></trkpt><trkpt lat="45.332115" lon="10.6467633"><ele>90.0</ele><time>2026-04-11T09:58:09.091Z</time></trkpt><trkpt lat="45.3321733" lon="10.64669"><ele>90.0</ele><time>2026-04-11T09:58:10.077Z</time></trkpt><trkpt lat="45.3322267" lon="10.6466033"><ele>91.0</ele><time>2026-04-11T09:58:11.068Z</time></trkpt><trkpt lat="45.3322683" lon="10.6465083"><ele>92.0</ele><time>2026-04-11T09:58:12.062Z</time></trkpt><trkpt lat="45.33234" lon="10.6463817"><ele>93.0</ele><time>2026-04-11T09:58:14.071Z</time></trkpt><trkpt lat="45.3323983" lon="10.6462967"><ele>94.0</ele><time>2026-04-11T09:58:17.065Z</time></trkpt><trkpt lat="45.3324617" lon="10.6462483"><ele>95.0</ele><time>2026-04-11T09:58:20.051Z</time></trkpt><trkpt lat="45.3325417" lon="10.6463017"><ele>96.0</ele><time>2026-04-11T09:58:23.064Z</time></trkpt><trkpt lat="45.33264" lon="10.64635"><ele>96.0</ele><time>2026-04-11T09:58:26.061Z</time></trkpt><trkpt lat="45.3327067" lon="10.6463967"><ele>96.0</ele><time>2026-04-11T09:58:27.05Z</time></trkpt><trkpt lat="45.3327833" lon="10.6464633"><ele>96.0</ele><time>2026-04-11T09:58:28.064Z</time></trkpt><trkpt lat="45.3328983" lon="10.6465667"><ele>96.0</ele><time>2026-04-11T09:58:29.059Z</time></trkpt><trkpt lat="45.3330183" lon="10.64667"><ele>96.0</ele><time>2026-04-11T09:58:30.068Z</time></trkpt><trkpt lat="45.3331167" lon="10.64676"><ele>95.6</ele><time>2026-04-11T09:58:31.053Z</time></trkpt><trkpt lat="45.3331983" lon="10.6468267"><ele>95.19999999999999</ele><time>2026-04-11T09:58:32.064Z</time></trkpt><trkpt lat="45.3332867" lon="10.646865"><ele>94.80000000000001</ele><time>2026-04-11T09:58:33.051Z</time></trkpt><trkpt lat="45.33335" lon="10.6469483"><ele>94.4</ele><time>2026-04-11T09:58:35.059Z</time></trkpt><trkpt lat="45.3334317" lon="10.6468383"><ele>94.0</ele><time>2026-04-11T09:58:40.052Z</time></trkpt><trkpt lat="45.33346" lon="10.64674"><ele>94.0</ele><time>2026-04-11T09:58:41.057Z</time></trkpt><trkpt lat="45.333515" lon="10.6466167"><ele>94.0</ele><time>2026-04-11T09:58:42.062Z</time></trkpt><trkpt lat="45.3335833" lon="10.6464833"><ele>94.0</ele><time>2026-04-11T09:58:43.053Z</time></trkpt><trkpt lat="45.33366" lon="10.6463333"><ele>94.0</ele><time>2026-04-11T09:58:44.057Z</time></trkpt><trkpt lat="45.3337267" lon="10.6461617"><ele>94.2</ele><time>2026-04-11T09:58:45.058Z</time></trkpt><trkpt lat="45.333785" lon="10.6460417"><ele>94.4</ele><time>2026-04-11T09:58:46.053Z</time></trkpt><trkpt lat="45.3338033" lon="10.6459417"><ele>94.6</ele><time>2026-04-11T09:58:47.07Z</time></trkpt><trkpt lat="45.333795" lon="10.645805"><ele>94.8</ele><time>2026-04-11T09:58:48.058Z</time></trkpt><trkpt lat="45.333785" lon="10.6456683"><ele>95.0</ele><time>2026-04-11T09:58:49.058Z</time></trkpt><trkpt lat="45.3337567" lon="10.6455483"><ele>95.0</ele><time>2026-04-11T09:58:50.054Z</time></trkpt><trkpt lat="45.3337133" lon="10.6454183"><ele>95.0</ele><time>2026-04-11T09:58:51.054Z</time></trkpt><trkpt lat="45.3336483" lon="10.645245"><ele>95.0</ele><time>2026-04-11T09:58:52.056Z</time></trkpt><trkpt lat="45.3336067" lon="10.6450933"><ele>95.0</ele><time>2026-04-11T09:58:53.05Z</time></trkpt><trkpt lat="45.3335683" lon="10.64491"><ele>95.8</ele><time>2026-04-11T09:58:54.059Z</time></trkpt><trkpt lat="45.3335567" lon="10.6447983"><ele>96.6</ele><time>2026-04-11T09:58:55.064Z</time></trkpt><trkpt lat="45.3335433" lon="10.6446283"><ele>97.4</ele><time>2026-04-11T09:58:57.049Z</time></trkpt><trkpt lat="45.3334533" lon="10.6444933"><ele>98.2</ele><time>2026-04-11T09:58:59.053Z</time></trkpt><trkpt lat="45.333375" lon="10.6444217"><ele>99.0</ele><time>2026-04-11T09:59:00.061Z</time></trkpt><trkpt lat="45.333275" lon="10.644355"><ele>99.0</ele><time>2026-04-11T09:59:01.057Z</time></trkpt><trkpt lat="45.3331767" lon="10.64428"><ele>99.0</ele><time>2026-04-11T09:59:02.066Z</time></trkpt><trkpt lat="45.3330817" lon="10.6442083"><ele>99.0</ele><time>2026-04-11T09:59:03.05Z</time></trkpt><trkpt lat="45.3330217" lon="10.6441583"><ele>99.0</ele><time>2026-04-11T09:59:04.063Z</time></trkpt><trkpt lat="45.3329417" lon="10.6440667"><ele>99.0</ele><time>2026-04-11T09:59:06.061Z</time></trkpt><trkpt lat="45.3329333" lon="10.64396"><ele>98.25</ele><time>2026-04-11T09:59:08.06Z</time></trkpt><trkpt lat="45.3329667" lon="10.6438517"><ele>97.5</ele><time>2026-04-11T09:59:09.051Z</time></trkpt><trkpt lat="45.3330283" lon="10.6436983"><ele>96.75</ele><time>2026-04-11T09:59:10.072Z</time></trkpt><trkpt lat="45.3330917" lon="10.6435283"><ele>96.0</ele><time>2026-04-11T09:59:11.053Z</time></trkpt><trkpt lat="45.3331433" lon="10.6433733"><ele>96.0</ele><time>2026-04-11T09:59:12.052Z</time></trkpt><trkpt lat="45.3331933" lon="10.6432383"><ele>96.0</ele><time>2026-04-11T09:59:13.061Z</time></trkpt><trkpt lat="45.333235" lon="10.6431267"><ele>96.0</ele><time>2026-04-11T09:59:14.068Z</time></trkpt><trkpt lat="45.3332733" lon="10.6430367"><ele>96.0</ele><time>2026-04-11T09:59:15.049Z</time></trkpt><trkpt lat="45.3333083" lon="10.6428867"><ele>96.0</ele><time>2026-04-11T09:59:17.056Z</time></trkpt><trkpt lat="45.3332583" lon="10.6428283"><ele>96.0</ele><time>2026-04-11T09:59:18.055Z</time></trkpt><trkpt lat="45.3331983" lon="10.6427633"><ele>95.19999999999999</ele><time>2026-04-11T09:59:19.055Z</time></trkpt><trkpt lat="45.3331417" lon="10.64267"><ele>94.39999999999999</ele><time>2026-04-11T09:59:20.059Z</time></trkpt><trkpt lat="45.333085" lon="10.642565"><ele>93.6</ele><time>2026-04-11T09:59:21.055Z</time></trkpt><trkpt lat="45.33307" lon="10.642395"><ele>92.8</ele><time>2026-04-11T09:59:22.056Z</time></trkpt><trkpt lat="45.33308" lon="10.6422267"><ele>92.0</ele><time>2026-04-11T09:59:23.06Z</time></trkpt><trkpt lat="45.333055" lon="10.64207"><ele>91.66666666666667</ele><time>2026-04-11T09:59:24.063Z</time></trkpt><trkpt lat="45.33301" lon="10.6419567"><ele>91.33333333333334</ele><time>2026-04-11T09:59:25.077Z</time></trkpt><trkpt lat="45.3329533" lon="10.6418567"><ele>91.0</ele><time>2026-04-11T09:59:26.062Z</time></trkpt><trkpt lat="45.332905" lon="10.6417617"><ele>90.66666666666667</ele><time>2026-04-11T09:59:27.061Z</time></trkpt><trkpt lat="45.3328483" lon="10.641675"><ele>90.33333333333333</ele><time>2026-04-11T09:59:28.056Z</time></trkpt><trkpt lat="45.332785" lon="10.6416167"><ele>90.0</ele><time>2026-04-11T09:59:29.057Z</time></trkpt><trkpt lat="45.3327217" lon="10.6415783"><ele>90.0</ele><time>2026-04-11T09:59:30.065Z</time></trkpt><trkpt lat="45.3326067" lon="10.64174"><ele>90.0</ele><time>2026-04-11T09:59:32.066Z</time></trkpt><trkpt lat="45.3325467" lon="10.641845"><ele>90.0</ele><time>2026-04-11T09:59:33.065Z</time></trkpt><trkpt lat="45.3324867" lon="10.641955"><ele>90.0</ele><time>2026-04-11T09:59:34.07Z</time></trkpt><trkpt lat="45.33242" lon="10.6420533"><ele>90.0</ele><time>2026-04-11T09:59:35.055Z</time></trkpt><trkpt lat="45.3323483" lon="10.6421083"><ele>90.0</ele><time>2026-04-11T09:59:36.059Z</time></trkpt><trkpt lat="45.3322567" lon="10.6421583"><ele>90.0</ele><time>2026-04-11T09:59:37.062Z</time></trkpt><trkpt lat="45.33215" lon="10.642185"><ele>90.0</ele><time>2026-04-11T09:59:38.06Z</time></trkpt><trkpt lat="45.3320533" lon="10.64221"><ele>90.0</ele><time>2026-04-11T09:59:39.061Z</time></trkpt><trkpt lat="45.3319483" lon="10.6422317"><ele>89.66666666666667</ele><time>2026-04-11T09:59:40.068Z</time></trkpt><trkpt lat="45.33183" lon="10.6422333"><ele>89.33333333333333</ele><time>2026-04-11T09:59:41.059Z</time></trkpt><trkpt lat="45.3317317" lon="10.64221"><ele>89.0</ele><time>2026-04-11T09:59:42.063Z</time></trkpt><trkpt lat="45.3316817" lon="10.6421367"><ele>88.66666666666666</ele><time>2026-04-11T09:59:43.059Z</time></trkpt><trkpt lat="45.33163" lon="10.6420533"><ele>88.33333333333333</ele><time>2026-04-11T09:59:44.082Z</time></trkpt><trkpt lat="45.33161" lon="10.6419533"><ele>88.0</ele><time>2026-04-11T09:59:45.068Z</time></trkpt><trkpt lat="45.3316083" lon="10.6418317"><ele>88.0</ele><time>2026-04-11T09:59:46.06Z</time></trkpt><trkpt lat="45.3316317" lon="10.6416967"><ele>88.0</ele><time>2026-04-11T09:59:47.055Z</time></trkpt><trkpt lat="45.3316567" lon="10.6415567"><ele>88.0</ele><time>2026-04-11T09:59:48.066Z</time></trkpt><trkpt lat="45.3317067" lon="10.6413933"><ele>88.0</ele><time>2026-04-11T09:59:49.061Z</time></trkpt><trkpt lat="45.3317217" lon="10.6412267"><ele>88.0</ele><time>2026-04-11T09:59:50.062Z</time></trkpt><trkpt lat="45.3317217" lon="10.641065"><ele>87.83333333333333</ele><time>2026-04-11T09:59:51.068Z</time></trkpt><trkpt lat="45.3317267" lon="10.64094"><ele>87.66666666666666</ele><time>2026-04-11T09:59:52.081Z</time></trkpt><trkpt lat="45.3317583" lon="10.6408133"><ele>87.5</ele><time>2026-04-11T09:59:53.061Z</time></trkpt><trkpt lat="45.3317767" lon="10.640665"><ele>87.33333333333333</ele><time>2026-04-11T09:59:54.062Z</time></trkpt><trkpt lat="45.331765" lon="10.640555"><ele>87.16666666666667</ele><time>2026-04-11T09:59:55.061Z</time></trkpt><trkpt lat="45.3317433" lon="10.6404467"><ele>87.0</ele><time>2026-04-11T09:59:56.076Z</time></trkpt><trkpt lat="45.331725" lon="10.64035"><ele>86.57142857142857</ele><time>2026-04-11T09:59:57.055Z</time></trkpt><trkpt lat="45.3317267" lon="10.640245"><ele>86.14285714285714</ele><time>2026-04-11T09:59:58.062Z</time></trkpt><trkpt lat="45.3317217" lon="10.64014"><ele>85.71428571428572</ele><time>2026-04-11T09:59:59.062Z</time></trkpt><trkpt lat="45.3317033" lon="10.6400483"><ele>85.28571428571428</ele><time>2026-04-11T10:00:00.089Z</time></trkpt><trkpt lat="45.3316617" lon="10.6399667"><ele>84.85714285714286</ele><time>2026-04-11T10:00:01.052Z</time></trkpt><trkpt lat="45.3316283" lon="10.63989"><ele>84.42857142857143</ele><time>2026-04-11T10:00:02.063Z</time></trkpt><trkpt lat="45.3316117" lon="10.6398017"><ele>84.0</ele><time>2026-04-11T10:00:03.053Z</time></trkpt><trkpt lat="45.3316167" lon="10.6397017"><ele>84.0</ele><time>2026-04-11T10:00:04.062Z</time></trkpt><trkpt lat="45.3316417" lon="10.6396"><ele>84.0</ele><time>2026-04-11T10:00:05.068Z</time></trkpt><trkpt lat="45.33169" lon="10.6395017"><ele>84.0</ele><time>2026-04-11T10:00:06.068Z</time></trkpt><trkpt lat="45.3317483" lon="10.6394283"><ele>84.0</ele><time>2026-04-11T10:00:07.054Z</time></trkpt><trkpt lat="45.33182" lon="10.6393617"><ele>84.0</ele><time>2026-04-11T10:00:08.059Z</time></trkpt><trkpt lat="45.3318933" lon="10.6392917"><ele>84.0</ele><time>2026-04-11T10:00:09.052Z</time></trkpt><trkpt lat="45.33196" lon="10.6392067"><ele>84.0</ele><time>2026-04-11T10:00:10.057Z</time></trkpt><trkpt lat="45.3320317" lon="10.6391083"><ele>84.0</ele><time>2026-04-11T10:00:11.063Z</time></trkpt><trkpt lat="45.332105" lon="10.6390167"><ele>84.0</ele><time>2026-04-11T10:00:12.06Z</time></trkpt><trkpt lat="45.3321817" lon="10.6389267"><ele>84.0</ele><time>2026-04-11T10:00:13.054Z</time></trkpt><trkpt lat="45.3322733" lon="10.63886"><ele>84.0</ele><time>2026-04-11T10:00:14.061Z</time></trkpt><trkpt lat="45.33237" lon="10.6387833"><ele>84.5</ele><time>2026-04-11T10:00:15.063Z</time></trkpt><trkpt lat="45.3324683" lon="10.6386967"><ele>85.0</ele><time>2026-04-11T10:00:16.067Z</time></trkpt><trkpt lat="45.332565" lon="10.6386133"><ele>85.5</ele><time>2026-04-11T10:00:17.058Z</time></trkpt><trkpt lat="45.3326683" lon="10.6385167"><ele>86.0</ele><time>2026-04-11T10:00:18.064Z</time></trkpt><trkpt lat="45.3327583" lon="10.6384217"><ele>86.5</ele><time>2026-04-11T10:00:19.052Z</time></trkpt><trkpt lat="45.3328417" lon="10.6383367"><ele>87.0</ele><time>2026-04-11T10:00:20.057Z</time></trkpt><trkpt lat="45.3329117" lon="10.63826"><ele>87.5</ele><time>2026-04-11T10:00:21.055Z</time></trkpt><trkpt lat="45.3329733" lon="10.6382217"><ele>88.0</ele><time>2026-04-11T10:00:22.055Z</time></trkpt><trkpt lat="45.3330217" lon="10.6381617"><ele>88.5</ele><time>2026-04-11T10:00:23.056Z</time></trkpt><trkpt lat="45.333105" lon="10.638055"><ele>89.0</ele><time>2026-04-11T10:00:25.049Z</time></trkpt><trkpt lat="45.3331983" lon="10.637965"><ele>89.0</ele><time>2026-04-11T10:00:27.051Z</time></trkpt><trkpt lat="45.3332817" lon="10.637895"><ele>89.0</ele><time>2026-04-11T10:00:29.059Z</time></trkpt><trkpt lat="45.3333583" lon="10.6378433"><ele>89.0</ele><time>2026-04-11T10:00:32.214Z</time></trkpt><trkpt lat="45.33344" lon="10.6378033"><ele>89.0</ele><time>2026-04-11T10:00:35.196Z</time></trkpt><trkpt lat="45.3335433" lon="10.637755"><ele>89.0</ele><time>2026-04-11T10:00:37.204Z</time></trkpt><trkpt lat="45.33367" lon="10.6376983"><ele>89.5</ele><time>2026-04-11T10:00:39.196Z</time></trkpt><trkpt lat="45.3337433" lon="10.6376617"><ele>90.0</ele><time>2026-04-11T10:00:40.204Z</time></trkpt><trkpt lat="45.3338183" lon="10.637625"><ele>90.5</ele><time>2026-04-11T10:00:41.196Z</time></trkpt><trkpt lat="45.3339433" lon="10.6375583"><ele>91.0</ele><time>2026-04-11T10:00:43.208Z</time></trkpt><trkpt lat="45.3340083" lon="10.6375"><ele>91.5</ele><time>2026-04-11T10:00:44.201Z</time></trkpt><trkpt lat="45.3340783" lon="10.63744"><ele>92.0</ele><time>2026-04-11T10:00:45.194Z</time></trkpt><trkpt lat="45.3341483" lon="10.6373783"><ele>92.0</ele><time>2026-04-11T10:00:46.208Z</time></trkpt><trkpt lat="45.3342833" lon="10.637215"><ele>92.0</ele><time>2026-04-11T10:00:48.478Z</time></trkpt><trkpt lat="45.3343433" lon="10.63713"><ele>92.0</ele><time>2026-04-11T10:00:49.497Z</time></trkpt><trkpt lat="45.3344017" lon="10.63704"><ele>92.0</ele><time>2026-04-11T10:00:50.468Z</time></trkpt><trkpt lat="45.3344617" lon="10.6369433"><ele>92.0</ele><time>2026-04-11T10:00:51.47Z</time></trkpt><trkpt lat="45.3345183" lon="10.6368483"><ele>93.0</ele><time>2026-04-11T10:00:52.468Z</time></trkpt><trkpt lat="45.3345867" lon="10.6367517"><ele>94.0</ele><time>2026-04-11T10:00:53.487Z</time></trkpt><trkpt lat="45.3346767" lon="10.6366833"><ele>95.0</ele><time>2026-04-11T10:00:54.461Z</time></trkpt><trkpt lat="45.3347583" lon="10.6366033"><ele>96.0</ele><time>2026-04-11T10:00:55.467Z</time></trkpt><trkpt lat="45.3348367" lon="10.6365233"><ele>97.0</ele><time>2026-04-11T10:00:56.48Z</time></trkpt><trkpt lat="45.334935" lon="10.636435"><ele>97.0</ele><time>2026-04-11T10:00:57.464Z</time></trkpt><trkpt lat="45.3350333" lon="10.6363567"><ele>97.0</ele><time>2026-04-11T10:00:58.492Z</time></trkpt><trkpt lat="45.3351333" lon="10.636245"><ele>97.0</ele><time>2026-04-11T10:00:59.486Z</time></trkpt><trkpt lat="45.3352333" lon="10.6361717"><ele>97.0</ele><time>2026-04-11T10:01:00.523Z</time></trkpt><trkpt lat="45.3353133" lon="10.6360717"><ele>97.0</ele><time>2026-04-11T10:01:01.463Z</time></trkpt><trkpt lat="45.3353833" lon="10.635985"><ele>97.0</ele><time>2026-04-11T10:01:02.472Z</time></trkpt><trkpt lat="45.3354483" lon="10.6358817"><ele>97.0</ele><time>2026-04-11T10:01:03.49Z</time></trkpt><trkpt lat="45.335495" lon="10.63576"><ele>97.0</ele><time>2026-04-11T10:01:04.467Z</time></trkpt><trkpt lat="45.3356" lon="10.6356017"><ele>97.0</ele><time>2026-04-11T10:01:05.471Z</time></trkpt><trkpt lat="45.33565" lon="10.635415"><ele>98.25</ele><time>2026-04-11T10:01:06.465Z</time></trkpt><trkpt lat="45.335715" lon="10.635255"><ele>99.5</ele><time>2026-04-11T10:01:07.478Z</time></trkpt><trkpt lat="45.3357733" lon="10.635105"><ele>100.75</ele><time>2026-04-11T10:01:08.473Z</time></trkpt><trkpt lat="45.33583" lon="10.6349717"><ele>102.0</ele><time>2026-04-11T10:01:09.476Z</time></trkpt><trkpt lat="45.3358933" lon="10.6348033"><ele>102.0</ele><time>2026-04-11T10:01:10.466Z</time></trkpt><trkpt lat="45.3359567" lon="10.6346933"><ele>102.0</ele><time>2026-04-11T10:01:11.496Z</time></trkpt><trkpt lat="45.33603" lon="10.6345767"><ele>102.0</ele><time>2026-04-11T10:01:12.491Z</time></trkpt><trkpt lat="45.336115" lon="10.6345017"><ele>102.0</ele><time>2026-04-11T10:01:13.521Z</time></trkpt><trkpt lat="45.336215" lon="10.6344383"><ele>102.0</ele><time>2026-04-11T10:01:14.545Z</time></trkpt><trkpt lat="45.3363433" lon="10.6343967"><ele>102.5</ele><time>2026-04-11T10:01:15.547Z</time></trkpt><trkpt lat="45.33645" lon="10.6343917"><ele>103.0</ele><time>2026-04-11T10:01:16.488Z</time></trkpt><trkpt lat="45.3365367" lon="10.6343733"><ele>103.5</ele><time>2026-04-11T10:01:17.473Z</time></trkpt><trkpt lat="45.3365967" lon="10.6344067"><ele>104.0</ele><time>2026-04-11T10:01:18.473Z</time></trkpt><trkpt lat="45.3366383" lon="10.634485"><ele>104.5</ele><time>2026-04-11T10:01:19.479Z</time></trkpt><trkpt lat="45.3366933" lon="10.6345767"><ele>105.0</ele><time>2026-04-11T10:01:20.478Z</time></trkpt><trkpt lat="45.336765" lon="10.6346817"><ele>105.0</ele><time>2026-04-11T10:01:21.48Z</time></trkpt><trkpt lat="45.336865" lon="10.6348017"><ele>105.0</ele><time>2026-04-11T10:01:22.479Z</time></trkpt><trkpt lat="45.3369617" lon="10.6348917"><ele>105.0</ele><time>2026-04-11T10:01:23.474Z</time></trkpt><trkpt lat="45.337045" lon="10.63498"><ele>105.0</ele><time>2026-04-11T10:01:24.55Z</time></trkpt><trkpt lat="45.337175" lon="10.6350533"><ele>106.4</ele><time>2026-04-11T10:01:25.521Z</time></trkpt><trkpt lat="45.3372733" lon="10.63514"><ele>107.8</ele><time>2026-04-11T10:01:26.497Z</time></trkpt><trkpt lat="45.3373683" lon="10.6352283"><ele>109.19999999999999</ele><time>2026-04-11T10:01:27.483Z</time></trkpt><trkpt lat="45.3374217" lon="10.6352917"><ele>110.6</ele><time>2026-04-11T10:01:28.473Z</time></trkpt><trkpt lat="45.3375" lon="10.6353333"><ele>112.0</ele><time>2026-04-11T10:01:30.486Z</time></trkpt><trkpt lat="45.337605" lon="10.635245"><ele>112.0</ele><time>2026-04-11T10:01:32.471Z</time></trkpt><trkpt lat="45.3376667" lon="10.6351733"><ele>111.99999999999999</ele><time>2026-04-11T10:01:33.469Z</time></trkpt><trkpt lat="45.33773" lon="10.6350933"><ele>111.99999999999999</ele><time>2026-04-11T10:01:34.474Z</time></trkpt><trkpt lat="45.33781" lon="10.6350067"><ele>112.0</ele><time>2026-04-11T10:01:35.48Z</time></trkpt><trkpt lat="45.3378983" lon="10.6349117"><ele>112.0</ele><time>2026-04-11T10:01:36.468Z</time></trkpt><trkpt lat="45.337995" lon="10.634805"><ele>112.66666666666667</ele><time>2026-04-11T10:01:37.462Z</time></trkpt><trkpt lat="45.338115" lon="10.6346683"><ele>113.33333333333334</ele><time>2026-04-11T10:01:38.473Z</time></trkpt><trkpt lat="45.3382617" lon="10.6345433"><ele>114.0</ele><time>2026-04-11T10:01:39.454Z</time></trkpt><trkpt lat="45.3383883" lon="10.6344183"><ele>114.0</ele><time>2026-04-11T10:01:40.494Z</time></trkpt><trkpt lat="45.3385017" lon="10.6343267"><ele>114.0</ele><time>2026-04-11T10:01:41.475Z</time></trkpt><trkpt lat="45.3386117" lon="10.634245"><ele>114.0</ele><time>2026-04-11T10:01:42.465Z</time></trkpt><trkpt lat="45.3387067" lon="10.6341767"><ele>114.0</ele><time>2026-04-11T10:01:43.473Z</time></trkpt><trkpt lat="45.3387833" lon="10.6341217"><ele>114.0</ele><time>2026-04-11T10:01:44.476Z</time></trkpt><trkpt lat="45.33887" lon="10.63404"><ele>115.25</ele><time>2026-04-11T10:01:45.469Z</time></trkpt><trkpt lat="45.3390033" lon="10.634005"><ele>116.5</ele><time>2026-04-11T10:01:47.467Z</time></trkpt><trkpt lat="45.339105" lon="10.634045"><ele>117.75</ele><time>2026-04-11T10:01:49.474Z</time></trkpt><trkpt lat="45.339175" lon="10.6341767"><ele>119.0</ele><time>2026-04-11T10:01:51.47Z</time></trkpt><trkpt lat="45.3392617" lon="10.63423"><ele>119.0</ele><time>2026-04-11T10:01:53.477Z</time></trkpt><trkpt lat="45.339415" lon="10.634165"><ele>119.0</ele><time>2026-04-11T10:01:55.454Z</time></trkpt><trkpt lat="45.3395317" lon="10.63409"><ele>119.0</ele><time>2026-04-11T10:01:56.46Z</time></trkpt><trkpt lat="45.33965" lon="10.634025"><ele>119.0</ele><time>2026-04-11T10:01:57.462Z</time></trkpt><trkpt lat="45.3397683" lon="10.633975"><ele>120.0</ele><time>2026-04-11T10:01:58.473Z</time></trkpt><trkpt lat="45.3398967" lon="10.6339283"><ele>121.0</ele><time>2026-04-11T10:01:59.46Z</time></trkpt><trkpt lat="45.3400383" lon="10.6338717"><ele>122.0</ele><time>2026-04-11T10:02:00.474Z</time></trkpt><trkpt lat="45.3401867" lon="10.633805"><ele>123.0</ele><time>2026-04-11T10:02:01.463Z</time></trkpt><trkpt lat="45.34033" lon="10.6337483"><ele>123.0</ele><time>2026-04-11T10:02:02.462Z</time></trkpt><trkpt lat="45.34046" lon="10.633695"><ele>123.0</ele><time>2026-04-11T10:02:03.459Z</time></trkpt><trkpt lat="45.3405883" lon="10.6336267"><ele>123.0</ele><time>2026-04-11T10:02:04.464Z</time></trkpt><trkpt lat="45.3407117" lon="10.6335583"><ele>123.0</ele><time>2026-04-11T10:02:05.457Z</time></trkpt><trkpt lat="45.3408333" lon="10.633495"><ele>123.25</ele><time>2026-04-11T10:02:06.461Z</time></trkpt><trkpt lat="45.3409517" lon="10.6334417"><ele>123.5</ele><time>2026-04-11T10:02:07.467Z</time></trkpt><trkpt lat="45.3410783" lon="10.6333817"><ele>123.75</ele><time>2026-04-11T10:02:08.461Z</time></trkpt><trkpt lat="45.3411967" lon="10.6333317"><ele>124.0</ele><time>2026-04-11T10:02:09.48Z</time></trkpt><trkpt lat="45.3413117" lon="10.6332533"><ele>124.5</ele><time>2026-04-11T10:02:10.471Z</time></trkpt><trkpt lat="45.3414" lon="10.633135"><ele>125.0</ele><time>2026-04-11T10:02:11.463Z</time></trkpt><trkpt lat="45.34149" lon="10.6330233"><ele>125.5</ele><time>2026-04-11T10:02:12.469Z</time></trkpt><trkpt lat="45.3415933" lon="10.6328783"><ele>126.0</ele><time>2026-04-11T10:02:13.47Z</time></trkpt><trkpt lat="45.3416967" lon="10.632715"><ele>126.0</ele><time>2026-04-11T10:02:14.465Z</time></trkpt><trkpt lat="45.3417933" lon="10.6325233"><ele>126.0</ele><time>2026-04-11T10:02:15.459Z</time></trkpt><trkpt lat="45.3418983" lon="10.632325"><ele>126.0</ele><time>2026-04-11T10:02:16.475Z</time></trkpt><trkpt lat="45.341985" lon="10.6321117"><ele>126.0</ele><time>2026-04-11T10:02:17.455Z</time></trkpt><trkpt lat="45.3420667" lon="10.6319133"><ele>126.0</ele><time>2026-04-11T10:02:18.478Z</time></trkpt><trkpt lat="45.3421433" lon="10.631785"><ele>126.0</ele><time>2026-04-11T10:02:19.474Z</time></trkpt><trkpt lat="45.342235" lon="10.6315217"><ele>127.5</ele><time>2026-04-11T10:02:20.466Z</time></trkpt><trkpt lat="45.342325" lon="10.6314133"><ele>129.0</ele><time>2026-04-11T10:02:21.459Z</time></trkpt><trkpt lat="45.3424283" lon="10.631315"><ele>130.5</ele><time>2026-04-11T10:02:22.463Z</time></trkpt><trkpt lat="45.3425483" lon="10.6312383"><ele>132.0</ele><time>2026-04-11T10:02:23.461Z</time></trkpt><trkpt lat="45.3426783" lon="10.6311417"><ele>132.25</ele><time>2026-04-11T10:02:24.454Z</time></trkpt><trkpt lat="45.3427917" lon="10.63107"><ele>132.5</ele><time>2026-04-11T10:02:25.464Z</time></trkpt><trkpt lat="45.3428867" lon="10.6309967"><ele>132.75</ele><time>2026-04-11T10:02:26.463Z</time></trkpt><trkpt lat="45.3430133" lon="10.630875"><ele>133.0</ele><time>2026-04-11T10:02:27.459Z</time></trkpt><trkpt lat="45.3431117" lon="10.63078"><ele>133.0</ele><time>2026-04-11T10:02:28.458Z</time></trkpt><trkpt lat="45.34322" lon="10.6306983"><ele>133.0</ele><time>2026-04-11T10:02:29.475Z</time></trkpt><trkpt lat="45.34332" lon="10.6306033"><ele>133.0</ele><time>2026-04-11T10:02:30.476Z</time></trkpt><trkpt lat="45.3434133" lon="10.63051"><ele>133.0</ele><time>2026-04-11T10:02:31.473Z</time></trkpt><trkpt lat="45.3435283" lon="10.6304267"><ele>133.0</ele><time>2026-04-11T10:02:32.473Z</time></trkpt><trkpt lat="45.343625" lon="10.6303333"><ele>133.0</ele><time>2026-04-11T10:02:33.455Z</time></trkpt><trkpt lat="45.3437217" lon="10.6302433"><ele>133.0</ele><time>2026-04-11T10:02:34.472Z</time></trkpt><trkpt lat="45.3438267" lon="10.63012"><ele>133.0</ele><time>2026-04-11T10:02:35.457Z</time></trkpt><trkpt lat="45.3438983" lon="10.63004"><ele>133.20000000000002</ele><time>2026-04-11T10:02:36.459Z</time></trkpt><trkpt lat="45.3439683" lon="10.6299517"><ele>133.4</ele><time>2026-04-11T10:02:37.461Z</time></trkpt><trkpt lat="45.3440433" lon="10.6298567"><ele>133.60000000000002</ele><time>2026-04-11T10:02:38.465Z</time></trkpt><trkpt lat="45.3441233" lon="10.629765"><ele>133.8</ele><time>2026-04-11T10:02:39.454Z</time></trkpt><trkpt lat="45.3442033" lon="10.6297"><ele>134.0</ele><time>2026-04-11T10:02:40.455Z</time></trkpt><trkpt lat="45.3442833" lon="10.629625"><ele>134.0</ele><time>2026-04-11T10:02:41.461Z</time></trkpt><trkpt lat="45.34437" lon="10.6295533"><ele>134.0</ele><time>2026-04-11T10:02:42.464Z</time></trkpt><trkpt lat="45.3444633" lon="10.62947"><ele>134.0</ele><time>2026-04-11T10:02:43.458Z</time></trkpt><trkpt lat="45.344555" lon="10.6293933"><ele>134.0</ele><time>2026-04-11T10:02:44.5Z</time></trkpt><trkpt lat="45.3446267" lon="10.6293367"><ele>134.0</ele><time>2026-04-11T10:02:45.47Z</time></trkpt><trkpt lat="45.3447633" lon="10.6292283"><ele>133.25</ele><time>2026-04-11T10:02:47.454Z</time></trkpt><trkpt lat="45.344855" lon="10.629145"><ele>132.5</ele><time>2026-04-11T10:02:48.463Z</time></trkpt><trkpt lat="45.3449567" lon="10.629045"><ele>131.75</ele><time>2026-04-11T10:02:49.46Z</time></trkpt><trkpt lat="45.3450733" lon="10.6289233"><ele>131.0</ele><time>2026-04-11T10:02:50.47Z</time></trkpt><trkpt lat="45.3451867" lon="10.6288017"><ele>131.0</ele><time>2026-04-11T10:02:51.473Z</time></trkpt><trkpt lat="45.3453033" lon="10.628695"><ele>131.0</ele><time>2026-04-11T10:02:52.461Z</time></trkpt><trkpt lat="45.345385" lon="10.628585"><ele>131.0</ele><time>2026-04-11T10:02:53.459Z</time></trkpt><trkpt lat="45.3454617" lon="10.6284817"><ele>131.0</ele><time>2026-04-11T10:02:54.463Z</time></trkpt><trkpt lat="45.345535" lon="10.628335"><ele>130.66666666666666</ele><time>2026-04-11T10:02:55.461Z</time></trkpt><trkpt lat="45.3455667" lon="10.62813"><ele>130.33333333333334</ele><time>2026-04-11T10:02:56.463Z</time></trkpt><trkpt lat="45.34558" lon="10.6279017"><ele>130.0</ele><time>2026-04-11T10:02:57.47Z</time></trkpt><trkpt lat="45.3455817" lon="10.627695"><ele>130.0</ele><time>2026-04-11T10:02:58.466Z</time></trkpt><trkpt lat="45.3455817" lon="10.627485"><ele>130.0</ele><time>2026-04-11T10:02:59.464Z</time></trkpt><trkpt lat="45.345555" lon="10.627275"><ele>130.0</ele><time>2026-04-11T10:03:00.461Z</time></trkpt><trkpt lat="45.3455583" lon="10.627075"><ele>130.0</ele><time>2026-04-11T10:03:01.477Z</time></trkpt><trkpt lat="45.3455533" lon="10.6268833"><ele>129.25</ele><time>2026-04-11T10:03:02.462Z</time></trkpt><trkpt lat="45.3455483" lon="10.6267183"><ele>128.5</ele><time>2026-04-11T10:03:03.465Z</time></trkpt><trkpt lat="45.3455333" lon="10.626535"><ele>127.75</ele><time>2026-04-11T10:03:04.49Z</time></trkpt><trkpt lat="45.345545" lon="10.6263433"><ele>127.0</ele><time>2026-04-11T10:03:05.472Z</time></trkpt><trkpt lat="45.345545" lon="10.626145"><ele>125.5</ele><time>2026-04-11T10:03:06.454Z</time></trkpt><trkpt lat="45.34555" lon="10.6259567"><ele>124.0</ele><time>2026-04-11T10:03:07.466Z</time></trkpt><trkpt lat="45.3455417" lon="10.62576"><ele>122.5</ele><time>2026-04-11T10:03:08.46Z</time></trkpt><trkpt lat="45.34552" lon="10.6255833"><ele>121.0</ele><time>2026-04-11T10:03:09.456Z</time></trkpt><trkpt lat="45.3455033" lon="10.6254"><ele>119.4</ele><time>2026-04-11T10:03:10.474Z</time></trkpt><trkpt lat="45.3454883" lon="10.6252333"><ele>117.8</ele><time>2026-04-11T10:03:11.465Z</time></trkpt><trkpt lat="45.3454767" lon="10.6250883"><ele>116.20000000000002</ele><time>2026-04-11T10:03:12.461Z</time></trkpt><trkpt lat="45.3454833" lon="10.62496"><ele>114.60000000000001</ele><time>2026-04-11T10:03:13.465Z</time></trkpt><trkpt lat="45.3454633" lon="10.6248283"><ele>113.0</ele><time>2026-04-11T10:03:14.458Z</time></trkpt><trkpt lat="45.3454633" lon="10.624715"><ele>112.99999999999999</ele><time>2026-04-11T10:03:15.452Z</time></trkpt><trkpt lat="45.34542" lon="10.62462"><ele>113.0</ele><time>2026-04-11T10:03:16.462Z</time></trkpt><trkpt lat="45.34541" lon="10.6245133"><ele>113.0</ele><time>2026-04-11T10:03:17.458Z</time></trkpt><trkpt lat="45.3454033" lon="10.62438"><ele>113.0</ele><time>2026-04-11T10:03:18.458Z</time></trkpt><trkpt lat="45.3453967" lon="10.6242583"><ele>112.99999999999999</ele><time>2026-04-11T10:03:19.452Z</time></trkpt><trkpt lat="45.34539" lon="10.6241517"><ele>113.0</ele><time>2026-04-11T10:03:20.482Z</time></trkpt><trkpt lat="45.3453783" lon="10.623985"><ele>112.0</ele><time>2026-04-11T10:03:22.458Z</time></trkpt><trkpt lat="45.345365" lon="10.6238367"><ele>111.00000000000001</ele><time>2026-04-11T10:03:24.458Z</time></trkpt><trkpt lat="45.3453467" lon="10.6237067"><ele>110.00000000000001</ele><time>2026-04-11T10:03:26.474Z</time></trkpt><trkpt lat="45.3453183" lon="10.62357"><ele>109.0</ele><time>2026-04-11T10:03:28.457Z</time></trkpt><trkpt lat="45.3452933" lon="10.62341"><ele>108.0</ele><time>2026-04-11T10:03:30.46Z</time></trkpt><trkpt lat="45.3452767" lon="10.6233133"><ele>107.60000000000001</ele><time>2026-04-11T10:03:31.455Z</time></trkpt><trkpt lat="45.3452533" lon="10.6231783"><ele>107.20000000000002</ele><time>2026-04-11T10:03:32.457Z</time></trkpt><trkpt lat="45.3452317" lon="10.62304"><ele>106.8</ele><time>2026-04-11T10:03:33.458Z</time></trkpt><trkpt lat="45.3452133" lon="10.6228933"><ele>106.4</ele><time>2026-04-11T10:03:34.453Z</time></trkpt><trkpt lat="45.3451867" lon="10.6227517"><ele>106.0</ele><time>2026-04-11T10:03:35.456Z</time></trkpt><trkpt lat="45.3451533" lon="10.6226183"><ele>107.0</ele><time>2026-04-11T10:03:36.46Z</time></trkpt><trkpt lat="45.3451333" lon="10.6224533"><ele>108.0</ele><time>2026-04-11T10:03:37.456Z</time></trkpt><trkpt lat="45.3451067" lon="10.6223033"><ele>109.0</ele><time>2026-04-11T10:03:38.456Z</time></trkpt><trkpt lat="45.3450783" lon="10.622145"><ele>110.0</ele><time>2026-04-11T10:03:39.458Z</time></trkpt><trkpt lat="45.3450467" lon="10.6219617"><ele>111.0</ele><time>2026-04-11T10:03:40.452Z</time></trkpt><trkpt lat="45.3450283" lon="10.621795"><ele>112.0</ele><time>2026-04-11T10:03:41.454Z</time></trkpt><trkpt lat="45.3450333" lon="10.6216667"><ele>113.0</ele><time>2026-04-11T10:03:42.462Z</time></trkpt><trkpt lat="45.34503" lon="10.621525"><ele>114.0</ele><time>2026-04-11T10:03:43.457Z</time></trkpt><trkpt lat="45.3450233" lon="10.6214017"><ele>115.0</ele><time>2026-04-11T10:03:44.46Z</time></trkpt><trkpt lat="45.3450283" lon="10.621285"><ele>115.4</ele><time>2026-04-11T10:03:45.452Z</time></trkpt><trkpt lat="45.3450467" lon="10.6210867"><ele>115.8</ele><time>2026-04-11T10:03:47.452Z</time></trkpt><trkpt lat="45.345075" lon="10.6209617"><ele>116.19999999999999</ele><time>2026-04-11T10:03:48.463Z</time></trkpt><trkpt lat="45.34511" lon="10.620825"><ele>116.6</ele><time>2026-04-11T10:03:49.459Z</time></trkpt><trkpt lat="45.3451383" lon="10.620685"><ele>117.0</ele><time>2026-04-11T10:03:50.447Z</time></trkpt><trkpt lat="45.345185" lon="10.6205283"><ele>117.0</ele><time>2026-04-11T10:03:51.456Z</time></trkpt><trkpt lat="45.3452283" lon="10.6203583"><ele>117.0</ele><time>2026-04-11T10:03:52.454Z</time></trkpt><trkpt lat="45.3452833" lon="10.6201817"><ele>117.0</ele><time>2026-04-11T10:03:53.454Z</time></trkpt><trkpt lat="45.34534" lon="10.6200083"><ele>117.0</ele><time>2026-04-11T10:03:54.455Z</time></trkpt><trkpt lat="45.3453917" lon="10.619835"><ele>117.25</ele><time>2026-04-11T10:03:55.454Z</time></trkpt><trkpt lat="45.34544" lon="10.6196617"><ele>117.5</ele><time>2026-04-11T10:03:56.459Z</time></trkpt><trkpt lat="45.34548" lon="10.6194983"><ele>117.75</ele><time>2026-04-11T10:03:57.453Z</time></trkpt><trkpt lat="45.3455183" lon="10.619325"><ele>118.0</ele><time>2026-04-11T10:03:58.459Z</time></trkpt><trkpt lat="45.3455717" lon="10.61916"><ele>119.0</ele><time>2026-04-11T10:03:59.459Z</time></trkpt><trkpt lat="45.3456433" lon="10.61898"><ele>120.0</ele><time>2026-04-11T10:04:00.456Z</time></trkpt><trkpt lat="45.3456983" lon="10.618785"><ele>121.0</ele><time>2026-04-11T10:04:01.464Z</time></trkpt><trkpt lat="45.345775" lon="10.6185983"><ele>122.0</ele><time>2026-04-11T10:04:02.463Z</time></trkpt><trkpt lat="45.345855" lon="10.6183967"><ele>122.0</ele><time>2026-04-11T10:04:03.46Z</time></trkpt><trkpt lat="45.3459333" lon="10.6181967"><ele>122.0</ele><time>2026-04-11T10:04:04.453Z</time></trkpt><trkpt lat="45.3460233" lon="10.6180033"><ele>122.0</ele><time>2026-04-11T10:04:05.456Z</time></trkpt><trkpt lat="45.3461017" lon="10.6178167"><ele>120.66666666666666</ele><time>2026-04-11T10:04:06.454Z</time></trkpt><trkpt lat="45.34618" lon="10.6176083"><ele>119.33333333333334</ele><time>2026-04-11T10:04:07.458Z</time></trkpt><trkpt lat="45.3462617" lon="10.6174117"><ele>118.0</ele><time>2026-04-11T10:04:08.466Z</time></trkpt><trkpt lat="45.34637" lon="10.617215"><ele>119.33333333333334</ele><time>2026-04-11T10:04:09.461Z</time></trkpt><trkpt lat="45.3464583" lon="10.6170167"><ele>120.66666666666666</ele><time>2026-04-11T10:04:10.454Z</time></trkpt><trkpt lat="45.3465783" lon="10.6167867"><ele>122.0</ele><time>2026-04-11T10:04:11.462Z</time></trkpt><trkpt lat="45.3466767" lon="10.6165767"><ele>122.0</ele><time>2026-04-11T10:04:12.454Z</time></trkpt><trkpt lat="45.3467633" lon="10.6163417"><ele>122.0</ele><time>2026-04-11T10:04:13.457Z</time></trkpt><trkpt lat="45.34684" lon="10.6161217"><ele>122.0</ele><time>2026-04-11T10:04:14.46Z</time></trkpt><trkpt lat="45.3469417" lon="10.6158517"><ele>121.66666666666666</ele><time>2026-04-11T10:04:15.458Z</time></trkpt><trkpt lat="45.34703" lon="10.61562"><ele>121.33333333333334</ele><time>2026-04-11T10:04:16.461Z</time></trkpt><trkpt lat="45.347115" lon="10.6153733"><ele>121.0</ele><time>2026-04-11T10:04:17.46Z</time></trkpt><trkpt lat="45.3471683" lon="10.61513"><ele>122.33333333333334</ele><time>2026-04-11T10:04:18.465Z</time></trkpt><trkpt lat="45.3472367" lon="10.6148617"><ele>123.66666666666666</ele><time>2026-04-11T10:04:19.451Z</time></trkpt><trkpt lat="45.3472883" lon="10.6145983"><ele>125.0</ele><time>2026-04-11T10:04:20.458Z</time></trkpt><trkpt lat="45.3473383" lon="10.6143367"><ele>125.66666666666666</ele><time>2026-04-11T10:04:21.461Z</time></trkpt><trkpt lat="45.3473933" lon="10.6140933"><ele>126.33333333333334</ele><time>2026-04-11T10:04:22.455Z</time></trkpt><trkpt lat="45.3474533" lon="10.6138567"><ele>127.0</ele><time>2026-04-11T10:04:23.455Z</time></trkpt><trkpt lat="45.3475017" lon="10.6136267"><ele>129.0</ele><time>2026-04-11T10:04:24.473Z</time></trkpt><trkpt lat="45.3475467" lon="10.613405"><ele>131.0</ele><time>2026-04-11T10:04:25.464Z</time></trkpt><trkpt lat="45.3476067" lon="10.6131967"><ele>133.0</ele><time>2026-04-11T10:04:26.462Z</time></trkpt><trkpt lat="45.3476783" lon="10.6130133"><ele>135.33333333333334</ele><time>2026-04-11T10:04:27.479Z</time></trkpt><trkpt lat="45.3477967" lon="10.6128067"><ele>137.66666666666666</ele><time>2026-04-11T10:04:28.455Z</time></trkpt><trkpt lat="45.347915" lon="10.6125733"><ele>140.0</ele><time>2026-04-11T10:04:29.448Z</time></trkpt><trkpt lat="45.347995" lon="10.6123733"><ele>143.33333333333331</ele><time>2026-04-11T10:04:30.461Z</time></trkpt><trkpt lat="45.348085" lon="10.6121617"><ele>146.66666666666666</ele><time>2026-04-11T10:04:31.463Z</time></trkpt><trkpt lat="45.3481683" lon="10.6119683"><ele>150.0</ele><time>2026-04-11T10:04:32.453Z</time></trkpt><trkpt lat="45.348225" lon="10.6118017"><ele>151.25</ele><time>2026-04-11T10:04:33.465Z</time></trkpt><trkpt lat="45.3482883" lon="10.6117017"><ele>152.5</ele><time>2026-04-11T10:04:34.457Z</time></trkpt><trkpt lat="45.3483283" lon="10.6115033"><ele>153.75</ele><time>2026-04-11T10:04:35.472Z</time></trkpt><trkpt lat="45.3483633" lon="10.6113817"><ele>155.0</ele><time>2026-04-11T10:04:36.46Z</time></trkpt><trkpt lat="45.3483683" lon="10.6112"><ele>155.25</ele><time>2026-04-11T10:04:37.465Z</time></trkpt><trkpt lat="45.34834" lon="10.611005"><ele>155.5</ele><time>2026-04-11T10:04:38.458Z</time></trkpt><trkpt lat="45.3483083" lon="10.6108167"><ele>155.75</ele><time>2026-04-11T10:04:39.471Z</time></trkpt><trkpt lat="45.3482583" lon="10.610595"><ele>156.0</ele><time>2026-04-11T10:04:40.465Z</time></trkpt><trkpt lat="45.3481967" lon="10.6103967"><ele>155.75</ele><time>2026-04-11T10:04:41.464Z</time></trkpt><trkpt lat="45.3481333" lon="10.6102233"><ele>155.5</ele><time>2026-04-11T10:04:42.46Z</time></trkpt><trkpt lat="45.348105" lon="10.6100633"><ele>155.25</ele><time>2026-04-11T10:04:43.468Z</time></trkpt><trkpt lat="45.3480833" lon="10.6099217"><ele>155.0</ele><time>2026-04-11T10:04:44.458Z</time></trkpt><trkpt lat="45.3480983" lon="10.6097833"><ele>155.0</ele><time>2026-04-11T10:04:45.461Z</time></trkpt><trkpt lat="45.3481217" lon="10.6096467"><ele>155.0</ele><time>2026-04-11T10:04:46.468Z</time></trkpt><trkpt lat="45.3481383" lon="10.6094783"><ele>155.0</ele><time>2026-04-11T10:04:47.461Z</time></trkpt><trkpt lat="45.3481583" lon="10.6093267"><ele>155.0</ele><time>2026-04-11T10:04:48.455Z</time></trkpt><trkpt lat="45.3481933" lon="10.60913"><ele>155.0</ele><time>2026-04-11T10:04:49.471Z</time></trkpt><trkpt lat="45.3481817" lon="10.6089667"><ele>155.0</ele><time>2026-04-11T10:04:50.46Z</time></trkpt><trkpt lat="45.3482117" lon="10.6088133"><ele>155.0</ele><time>2026-04-11T10:04:51.456Z</time></trkpt><trkpt lat="45.348235" lon="10.6086767"><ele>155.0</ele><time>2026-04-11T10:04:52.456Z</time></trkpt><trkpt lat="45.3482483" lon="10.6085767"><ele>155.0</ele><time>2026-04-11T10:04:53.458Z</time></trkpt><trkpt lat="45.348265" lon="10.6084867"><ele>155.4</ele><time>2026-04-11T10:04:54.463Z</time></trkpt><trkpt lat="45.348305" lon="10.6083517"><ele>155.8</ele><time>2026-04-11T10:04:56.466Z</time></trkpt><trkpt lat="45.3484167" lon="10.6083383"><ele>156.2</ele><time>2026-04-11T10:04:58.452Z</time></trkpt><trkpt lat="45.348495" lon="10.608355"><ele>156.6</ele><time>2026-04-11T10:04:59.465Z</time></trkpt><trkpt lat="45.34858" lon="10.60836"><ele>157.0</ele><time>2026-04-11T10:05:00.502Z</time></trkpt><trkpt lat="45.3487567" lon="10.608335"><ele>157.0</ele><time>2026-04-11T10:05:02.461Z</time></trkpt><trkpt lat="45.3488617" lon="10.6083133"><ele>157.0</ele><time>2026-04-11T10:05:03.463Z</time></trkpt><trkpt lat="45.3489517" lon="10.6083017"><ele>157.0</ele><time>2026-04-11T10:05:04.46Z</time></trkpt><trkpt lat="45.3490483" lon="10.6082817"><ele>157.0</ele><time>2026-04-11T10:05:05.457Z</time></trkpt><trkpt lat="45.3491483" lon="10.6082583"><ele>157.0</ele><time>2026-04-11T10:05:06.463Z</time></trkpt><trkpt lat="45.3492467" lon="10.608225"><ele>159.0</ele><time>2026-04-11T10:05:07.459Z</time></trkpt><trkpt lat="45.3493433" lon="10.6081983"><ele>161.0</ele><time>2026-04-11T10:05:08.459Z</time></trkpt><trkpt lat="45.3494317" lon="10.60817"><ele>163.0</ele><time>2026-04-11T10:05:09.454Z</time></trkpt><trkpt lat="45.3495183" lon="10.6081517"><ele>165.0</ele><time>2026-04-11T10:05:10.457Z</time></trkpt><trkpt lat="45.349595" lon="10.6081267"><ele>167.0</ele><time>2026-04-11T10:05:11.455Z</time></trkpt><trkpt lat="45.3496717" lon="10.6081117"><ele>169.0</ele><time>2026-04-11T10:05:12.461Z</time></trkpt><trkpt lat="45.3497367" lon="10.6080983"><ele>170.6</ele><time>2026-04-11T10:05:13.464Z</time></trkpt><trkpt lat="45.3498" lon="10.608125"><ele>172.2</ele><time>2026-04-11T10:05:14.466Z</time></trkpt><trkpt lat="45.34987" lon="10.6081783"><ele>173.79999999999998</ele><time>2026-04-11T10:05:15.457Z</time></trkpt><trkpt lat="45.349955" lon="10.60826"><ele>175.39999999999998</ele><time>2026-04-11T10:05:16.45Z</time></trkpt><trkpt lat="45.3500517" lon="10.6083717"><ele>177.0</ele><time>2026-04-11T10:05:17.465Z</time></trkpt><trkpt lat="45.3501517" lon="10.6084617"><ele>177.0</ele><time>2026-04-11T10:05:18.469Z</time></trkpt><trkpt lat="45.350235" lon="10.60858"><ele>177.0</ele><time>2026-04-11T10:05:19.468Z</time></trkpt><trkpt lat="45.3503133" lon="10.608635"><ele>177.0</ele><time>2026-04-11T10:05:20.452Z</time></trkpt><trkpt lat="45.35041" lon="10.608625"><ele>177.0</ele><time>2026-04-11T10:05:22.465Z</time></trkpt><trkpt lat="45.3504717" lon="10.6085883"><ele>177.0</ele><time>2026-04-11T10:05:24.453Z</time></trkpt><trkpt lat="45.3505133" lon="10.6086683"><ele>177.0</ele><time>2026-04-11T10:05:26.464Z</time></trkpt><trkpt lat="45.3505767" lon="10.6088417"><ele>175.2</ele><time>2026-04-11T10:05:28.463Z</time></trkpt><trkpt lat="45.35061" lon="10.6089483"><ele>173.39999999999998</ele><time>2026-04-11T10:05:29.464Z</time></trkpt><trkpt lat="45.3506433" lon="10.6090633"><ele>171.60000000000002</ele><time>2026-04-11T10:05:30.457Z</time></trkpt><trkpt lat="45.350695" lon="10.609175"><ele>169.8</ele><time>2026-04-11T10:05:31.457Z</time></trkpt><trkpt lat="45.3507483" lon="10.60928"><ele>168.0</ele><time>2026-04-11T10:05:32.466Z</time></trkpt><trkpt lat="45.35082" lon="10.6093817"><ele>168.0</ele><time>2026-04-11T10:05:33.455Z</time></trkpt><trkpt lat="45.3508817" lon="10.6094667"><ele>168.0</ele><time>2026-04-11T10:05:34.462Z</time></trkpt><trkpt lat="45.3509483" lon="10.60955"><ele>168.0</ele><time>2026-04-11T10:05:35.464Z</time></trkpt><trkpt lat="45.351005" lon="10.6096483"><ele>168.0</ele><time>2026-04-11T10:05:36.453Z</time></trkpt><trkpt lat="45.351065" lon="10.6097633"><ele>168.0</ele><time>2026-04-11T10:05:37.46Z</time></trkpt><trkpt lat="45.3511367" lon="10.609885"><ele>169.60000000000002</ele><time>2026-04-11T10:05:38.455Z</time></trkpt><trkpt lat="45.3512117" lon="10.610005"><ele>171.20000000000002</ele><time>2026-04-11T10:05:39.452Z</time></trkpt><trkpt lat="45.351285" lon="10.61015"><ele>172.8</ele><time>2026-04-11T10:05:40.45Z</time></trkpt><trkpt lat="45.3513617" lon="10.6102433"><ele>174.4</ele><time>2026-04-11T10:05:41.46Z</time></trkpt><trkpt lat="45.3514283" lon="10.61034"><ele>176.0</ele><time>2026-04-11T10:05:42.469Z</time></trkpt><trkpt lat="45.3515" lon="10.6104133"><ele>173.16666666666666</ele><time>2026-04-11T10:05:43.461Z</time></trkpt><trkpt lat="45.351555" lon="10.6104867"><ele>170.33333333333331</ele><time>2026-04-11T10:05:44.478Z</time></trkpt><trkpt lat="45.3516267" lon="10.610545"><ele>167.5</ele><time>2026-04-11T10:05:45.46Z</time></trkpt><trkpt lat="45.3517433" lon="10.6106367"><ele>164.66666666666666</ele><time>2026-04-11T10:05:47.472Z</time></trkpt><trkpt lat="45.3517967" lon="10.6106933"><ele>161.83333333333334</ele><time>2026-04-11T10:05:48.456Z</time></trkpt><trkpt lat="45.3518267" lon="10.6107767"><ele>159.0</ele><time>2026-04-11T10:05:49.458Z</time></trkpt><trkpt lat="45.3518417" lon="10.6108733"><ele>159.0</ele><time>2026-04-11T10:05:50.471Z</time></trkpt><trkpt lat="45.3518633" lon="10.611"><ele>159.0</ele><time>2026-04-11T10:05:51.466Z</time></trkpt><trkpt lat="45.35189" lon="10.6111433"><ele>159.0</ele><time>2026-04-11T10:05:52.456Z</time></trkpt><trkpt lat="45.35192" lon="10.61125"><ele>159.0</ele><time>2026-04-11T10:05:53.453Z</time></trkpt><trkpt lat="45.3519283" lon="10.6113517"><ele>159.0</ele><time>2026-04-11T10:05:54.463Z</time></trkpt><trkpt lat="45.3519217" lon="10.6114517"><ele>159.0</ele><time>2026-04-11T10:05:55.452Z</time></trkpt><trkpt lat="45.3518967" lon="10.61154"><ele>161.16666666666666</ele><time>2026-04-11T10:05:56.458Z</time></trkpt><trkpt lat="45.3518817" lon="10.6116467"><ele>163.33333333333334</ele><time>2026-04-11T10:05:57.459Z</time></trkpt><trkpt lat="45.35186" lon="10.611765"><ele>165.5</ele><time>2026-04-11T10:05:58.462Z</time></trkpt><trkpt lat="45.3518483" lon="10.6118917"><ele>167.66666666666669</ele><time>2026-04-11T10:05:59.455Z</time></trkpt><trkpt lat="45.351835" lon="10.6120167"><ele>169.83333333333334</ele><time>2026-04-11T10:06:00.454Z</time></trkpt><trkpt lat="45.35184" lon="10.6121683"><ele>172.0</ele><time>2026-04-11T10:06:01.455Z</time></trkpt><trkpt lat="45.35183" lon="10.61231"><ele>173.5</ele><time>2026-04-11T10:06:02.451Z</time></trkpt><trkpt lat="45.351845" lon="10.6125033"><ele>175.0</ele><time>2026-04-11T10:06:03.461Z</time></trkpt><trkpt lat="45.3518833" lon="10.61265"><ele>176.5</ele><time>2026-04-11T10:06:04.457Z</time></trkpt><trkpt lat="45.3519267" lon="10.612815"><ele>178.0</ele><time>2026-04-11T10:06:05.459Z</time></trkpt><trkpt lat="45.3519733" lon="10.6129883"><ele>178.8</ele><time>2026-04-11T10:06:06.464Z</time></trkpt><trkpt lat="45.3520217" lon="10.6131567"><ele>179.60000000000002</ele><time>2026-04-11T10:06:07.458Z</time></trkpt><trkpt lat="45.352075" lon="10.613315"><ele>180.39999999999998</ele><time>2026-04-11T10:06:08.453Z</time></trkpt><trkpt lat="45.3521133" lon="10.6134383"><ele>181.2</ele><time>2026-04-11T10:06:09.459Z</time></trkpt><trkpt lat="45.3521317" lon="10.6135533"><ele>182.0</ele><time>2026-04-11T10:06:10.456Z</time></trkpt><trkpt lat="45.3521517" lon="10.613695"><ele>183.39999999999998</ele><time>2026-04-11T10:06:11.454Z</time></trkpt><trkpt lat="45.3521717" lon="10.613835"><ele>184.79999999999998</ele><time>2026-04-11T10:06:12.453Z</time></trkpt><trkpt lat="45.3522017" lon="10.613975"><ele>186.2</ele><time>2026-04-11T10:06:13.458Z</time></trkpt><trkpt lat="45.352215" lon="10.6141033"><ele>187.6</ele><time>2026-04-11T10:06:14.459Z</time></trkpt><trkpt lat="45.352235" lon="10.6142367"><ele>189.0</ele><time>2026-04-11T10:06:15.455Z</time></trkpt><trkpt lat="45.3522483" lon="10.6143717"><ele>182.79999999999998</ele><time>2026-04-11T10:06:16.461Z</time></trkpt><trkpt lat="45.35228" lon="10.6145217"><ele>176.6</ele><time>2026-04-11T10:06:17.464Z</time></trkpt><trkpt lat="45.3523017" lon="10.6146783"><ele>170.4</ele><time>2026-04-11T10:06:18.464Z</time></trkpt><trkpt lat="45.3522933" lon="10.614805"><ele>164.2</ele><time>2026-04-11T10:06:19.462Z</time></trkpt><trkpt lat="45.3522717" lon="10.6149167"><ele>158.0</ele><time>2026-04-11T10:06:20.453Z</time></trkpt><trkpt lat="45.3522433" lon="10.6150217"><ele>161.8</ele><time>2026-04-11T10:06:21.456Z</time></trkpt><trkpt lat="45.3522033" lon="10.6151417"><ele>165.60000000000002</ele><time>2026-04-11T10:06:22.458Z</time></trkpt><trkpt lat="45.3521583" lon="10.6153"><ele>169.39999999999998</ele><time>2026-04-11T10:06:23.456Z</time></trkpt><trkpt lat="45.3521217" lon="10.61544"><ele>173.2</ele><time>2026-04-11T10:06:24.449Z</time></trkpt><trkpt lat="45.35208" lon="10.615565"><ele>177.0</ele><time>2026-04-11T10:06:25.451Z</time></trkpt><trkpt lat="45.3520317" lon="10.6156783"><ele>177.0</ele><time>2026-04-11T10:06:26.456Z</time></trkpt><trkpt lat="45.35198" lon="10.6157917"><ele>177.0</ele><time>2026-04-11T10:06:27.453Z</time></trkpt><trkpt lat="45.3519217" lon="10.6159033"><ele>177.0</ele><time>2026-04-11T10:06:28.463Z</time></trkpt><trkpt lat="45.3518583" lon="10.6160333"><ele>177.0</ele><time>2026-04-11T10:06:29.456Z</time></trkpt><trkpt lat="45.3518083" lon="10.6161367"><ele>177.0</ele><time>2026-04-11T10:06:30.459Z</time></trkpt><trkpt lat="45.3517617" lon="10.6162567"><ele>174.6</ele><time>2026-04-11T10:06:31.45Z</time></trkpt><trkpt lat="45.3517233" lon="10.616385"><ele>172.2</ele><time>2026-04-11T10:06:32.458Z</time></trkpt><trkpt lat="45.351675" lon="10.6165167"><ele>169.8</ele><time>2026-04-11T10:06:33.451Z</time></trkpt><trkpt lat="45.351625" lon="10.6166383"><ele>167.4</ele><time>2026-04-11T10:06:34.45Z</time></trkpt><trkpt lat="45.3515567" lon="10.6167983"><ele>165.0</ele><time>2026-04-11T10:06:35.453Z</time></trkpt><trkpt lat="45.3514883" lon="10.6169267"><ele>163.16666666666666</ele><time>2026-04-11T10:06:36.458Z</time></trkpt><trkpt lat="45.3514233" lon="10.6170483"><ele>161.33333333333334</ele><time>2026-04-11T10:06:37.449Z</time></trkpt><trkpt lat="45.3513667" lon="10.6171483"><ele>159.5</ele><time>2026-04-11T10:06:38.454Z</time></trkpt><trkpt lat="45.3513183" lon="10.6172383"><ele>157.66666666666669</ele><time>2026-04-11T10:06:39.453Z</time></trkpt><trkpt lat="45.35128" lon="10.61733"><ele>155.83333333333334</ele><time>2026-04-11T10:06:40.455Z</time></trkpt><trkpt lat="45.3512467" lon="10.6174433"><ele>154.0</ele><time>2026-04-11T10:06:41.461Z</time></trkpt><trkpt lat="45.3512083" lon="10.6175633"><ele>158.4</ele><time>2026-04-11T10:06:42.457Z</time></trkpt><trkpt lat="45.3511783" lon="10.617685"><ele>162.8</ele><time>2026-04-11T10:06:43.453Z</time></trkpt><trkpt lat="45.3511483" lon="10.6178233"><ele>167.20000000000002</ele><time>2026-04-11T10:06:44.451Z</time></trkpt><trkpt lat="45.3511267" lon="10.6179817"><ele>171.60000000000002</ele><time>2026-04-11T10:06:45.454Z</time></trkpt><trkpt lat="45.3511067" lon="10.6181483"><ele>176.0</ele><time>2026-04-11T10:06:46.455Z</time></trkpt><trkpt lat="45.351095" lon="10.6183133"><ele>176.0</ele><time>2026-04-11T10:06:47.453Z</time></trkpt><trkpt lat="45.3510783" lon="10.6184583"><ele>176.0</ele><time>2026-04-11T10:06:48.459Z</time></trkpt><trkpt lat="45.35107" lon="10.61861"><ele>176.0</ele><time>2026-04-11T10:06:49.459Z</time></trkpt><trkpt lat="45.3510633" lon="10.6187683"><ele>176.0</ele><time>2026-04-11T10:06:50.451Z</time></trkpt><trkpt lat="45.3510567" lon="10.6189233"><ele>176.0</ele><time>2026-04-11T10:06:51.456Z</time></trkpt><trkpt lat="45.35105" lon="10.6190667"><ele>175.8</ele><time>2026-04-11T10:06:52.45Z</time></trkpt><trkpt lat="45.35106" lon="10.6192233"><ele>175.60000000000002</ele><time>2026-04-11T10:06:53.457Z</time></trkpt><trkpt lat="45.3510717" lon="10.6193683"><ele>175.4</ele><time>2026-04-11T10:06:54.46Z</time></trkpt><trkpt lat="45.35107" lon="10.6195"><ele>175.2</ele><time>2026-04-11T10:06:55.458Z</time></trkpt><trkpt lat="45.3510633" lon="10.61963"><ele>175.0</ele><time>2026-04-11T10:06:56.454Z</time></trkpt><trkpt lat="45.3510167" lon="10.619745"><ele>175.0</ele><time>2026-04-11T10:06:57.466Z</time></trkpt><trkpt lat="45.3509817" lon="10.6198717"><ele>175.0</ele><time>2026-04-11T10:06:58.462Z</time></trkpt><trkpt lat="45.3509383" lon="10.6199883"><ele>175.0</ele><time>2026-04-11T10:06:59.454Z</time></trkpt><trkpt lat="45.3508933" lon="10.6201017"><ele>175.0</ele><time>2026-04-11T10:07:00.458Z</time></trkpt><trkpt lat="45.3508617" lon="10.6202233"><ele>175.0</ele><time>2026-04-11T10:07:01.457Z</time></trkpt><trkpt lat="45.3508683" lon="10.6203467"><ele>174.83333333333334</ele><time>2026-04-11T10:07:02.459Z</time></trkpt><trkpt lat="45.3508817" lon="10.62047"><ele>174.66666666666669</ele><time>2026-04-11T10:07:03.453Z</time></trkpt><trkpt lat="45.350895" lon="10.6205767"><ele>174.5</ele><time>2026-04-11T10:07:04.458Z</time></trkpt><trkpt lat="45.3509117" lon="10.620685"><ele>174.33333333333334</ele><time>2026-04-11T10:07:05.456Z</time></trkpt><trkpt lat="45.3509183" lon="10.6207867"><ele>174.16666666666666</ele><time>2026-04-11T10:07:06.454Z</time></trkpt><trkpt lat="45.3509333" lon="10.6208783"><ele>174.0</ele><time>2026-04-11T10:07:07.458Z</time></trkpt><trkpt lat="45.3509817" lon="10.62099"><ele>174.0</ele><time>2026-04-11T10:07:08.461Z</time></trkpt><trkpt lat="45.3510017" lon="10.6211217"><ele>174.0</ele><time>2026-04-11T10:07:09.464Z</time></trkpt><trkpt lat="45.3510467" lon="10.62126"><ele>174.0</ele><time>2026-04-11T10:07:10.458Z</time></trkpt><trkpt lat="45.3510817" lon="10.6214"><ele>174.0</ele><time>2026-04-11T10:07:11.456Z</time></trkpt><trkpt lat="45.351145" lon="10.6215617"><ele>174.0</ele><time>2026-04-11T10:07:12.451Z</time></trkpt><trkpt lat="45.3512033" lon="10.6216767"><ele>173.33333333333334</ele><time>2026-04-11T10:07:13.457Z</time></trkpt><trkpt lat="45.3512533" lon="10.62181"><ele>172.66666666666666</ele><time>2026-04-11T10:07:14.449Z</time></trkpt><trkpt lat="45.3512817" lon="10.62192"><ele>172.0</ele><time>2026-04-11T10:07:15.461Z</time></trkpt><trkpt lat="45.3512917" lon="10.62202"><ele>171.33333333333331</ele><time>2026-04-11T10:07:16.454Z</time></trkpt><trkpt lat="45.3512817" lon="10.6221117"><ele>170.66666666666666</ele><time>2026-04-11T10:07:17.457Z</time></trkpt><trkpt lat="45.3512217" lon="10.6221733"><ele>170.0</ele><time>2026-04-11T10:07:18.453Z</time></trkpt><trkpt lat="45.3511567" lon="10.62223"><ele>169.66666666666666</ele><time>2026-04-11T10:07:19.459Z</time></trkpt><trkpt lat="45.3510767" lon="10.622295"><ele>169.33333333333331</ele><time>2026-04-11T10:07:20.459Z</time></trkpt><trkpt lat="45.350995" lon="10.6223567"><ele>169.0</ele><time>2026-04-11T10:07:21.457Z</time></trkpt><trkpt lat="45.3509217" lon="10.62242"><ele>168.66666666666666</ele><time>2026-04-11T10:07:22.454Z</time></trkpt><trkpt lat="45.350865" lon="10.62248"><ele>168.33333333333334</ele><time>2026-04-11T10:07:23.455Z</time></trkpt><trkpt lat="45.35081" lon="10.6226017"><ele>168.0</ele><time>2026-04-11T10:07:25.451Z</time></trkpt><trkpt lat="45.3508483" lon="10.6226983"><ele>167.8</ele><time>2026-04-11T10:07:26.457Z</time></trkpt><trkpt lat="45.3508867" lon="10.622825"><ele>167.60000000000002</ele><time>2026-04-11T10:07:27.458Z</time></trkpt><trkpt lat="45.3509433" lon="10.6229767"><ele>167.39999999999998</ele><time>2026-04-11T10:07:28.453Z</time></trkpt><trkpt lat="45.3509917" lon="10.62312"><ele>167.2</ele><time>2026-04-11T10:07:29.457Z</time></trkpt><trkpt lat="45.3510467" lon="10.6232683"><ele>167.0</ele><time>2026-04-11T10:07:30.461Z</time></trkpt><trkpt lat="45.3510983" lon="10.6234033"><ele>167.0</ele><time>2026-04-11T10:07:31.455Z</time></trkpt><trkpt lat="45.35115" lon="10.62352"><ele>167.0</ele><time>2026-04-11T10:07:32.458Z</time></trkpt><trkpt lat="45.351195" lon="10.623615"><ele>167.0</ele><time>2026-04-11T10:07:33.463Z</time></trkpt><trkpt lat="45.3512333" lon="10.6236883"><ele>167.0</ele><time>2026-04-11T10:07:34.459Z</time></trkpt><trkpt lat="45.3512717" lon="10.6238133"><ele>167.0</ele><time>2026-04-11T10:07:36.473Z</time></trkpt><trkpt lat="45.3512583" lon="10.623925"><ele>167.0</ele><time>2026-04-11T10:07:38.455Z</time></trkpt><trkpt lat="45.351285" lon="10.624085"><ele>165.5</ele><time>2026-04-11T10:07:40.459Z</time></trkpt><trkpt lat="45.3513217" lon="10.62419"><ele>164.0</ele><time>2026-04-11T10:07:41.449Z</time></trkpt><trkpt lat="45.3513533" lon="10.624285"><ele>162.5</ele><time>2026-04-11T10:07:42.461Z</time></trkpt><trkpt lat="45.3513883" lon="10.6243617"><ele>161.0</ele><time>2026-04-11T10:07:43.47Z</time></trkpt><trkpt lat="45.35144" lon="10.6245033"><ele>159.5</ele><time>2026-04-11T10:07:45.463Z</time></trkpt><trkpt lat="45.3515033" lon="10.6246267"><ele>158.0</ele><time>2026-04-11T10:07:47.463Z</time></trkpt><trkpt lat="45.351595" lon="10.624675"><ele>156.4</ele><time>2026-04-11T10:07:49.479Z</time></trkpt><trkpt lat="45.3517233" lon="10.624665"><ele>154.8</ele><time>2026-04-11T10:07:51.457Z</time></trkpt><trkpt lat="45.3517983" lon="10.6246"><ele>153.2</ele><time>2026-04-11T10:07:52.454Z</time></trkpt><trkpt lat="45.3518783" lon="10.6245233"><ele>151.6</ele><time>2026-04-11T10:07:53.461Z</time></trkpt><trkpt lat="45.351955" lon="10.62445"><ele>150.0</ele><time>2026-04-11T10:07:54.46Z</time></trkpt><trkpt lat="45.3520333" lon="10.6243717"><ele>150.0</ele><time>2026-04-11T10:07:55.462Z</time></trkpt><trkpt lat="45.352125" lon="10.6243033"><ele>150.0</ele><time>2026-04-11T10:07:56.453Z</time></trkpt><trkpt lat="45.3522083" lon="10.624225"><ele>150.0</ele><time>2026-04-11T10:07:57.454Z</time></trkpt><trkpt lat="45.3523017" lon="10.624135"><ele>150.0</ele><time>2026-04-11T10:07:58.46Z</time></trkpt><trkpt lat="45.352385" lon="10.6240717"><ele>150.0</ele><time>2026-04-11T10:07:59.457Z</time></trkpt><trkpt lat="45.3524933" lon="10.6239533"><ele>149.5</ele><time>2026-04-11T10:08:01.461Z</time></trkpt><trkpt lat="45.352545" lon="10.6238933"><ele>149.0</ele><time>2026-04-11T10:08:03.465Z</time></trkpt><trkpt lat="45.3526417" lon="10.62381"><ele>148.5</ele><time>2026-04-11T10:08:11.457Z</time></trkpt><trkpt lat="45.3527267" lon="10.6237417"><ele>148.0</ele><time>2026-04-11T10:08:13.466Z</time></trkpt><trkpt lat="45.3527767" lon="10.6236767"><ele>147.5</ele><time>2026-04-11T10:08:15.456Z</time></trkpt><trkpt lat="45.35282" lon="10.6236067"><ele>147.0</ele><time>2026-04-11T10:08:18.456Z</time></trkpt><trkpt lat="45.3528767" lon="10.623545"><ele>147.0</ele><time>2026-04-11T10:08:20.457Z</time></trkpt><trkpt lat="45.3529667" lon="10.6234417"><ele>147.0</ele><time>2026-04-11T10:08:22.458Z</time></trkpt><trkpt lat="45.3530567" lon="10.623295"><ele>147.0</ele><time>2026-04-11T10:08:24.459Z</time></trkpt><trkpt lat="45.3531117" lon="10.6232083"><ele>147.0</ele><time>2026-04-11T10:08:25.458Z</time></trkpt><trkpt lat="45.3531683" lon="10.6231167"><ele>147.0</ele><time>2026-04-11T10:08:26.463Z</time></trkpt><trkpt lat="45.3532317" lon="10.6230283"><ele>147.6</ele><time>2026-04-11T10:08:27.462Z</time></trkpt><trkpt lat="45.3532983" lon="10.6229267"><ele>148.2</ele><time>2026-04-11T10:08:28.455Z</time></trkpt><trkpt lat="45.3533533" lon="10.6228317"><ele>148.8</ele><time>2026-04-11T10:08:29.453Z</time></trkpt><trkpt lat="45.3533983" lon="10.6227117"><ele>149.4</ele><time>2026-04-11T10:08:30.463Z</time></trkpt><trkpt lat="45.3534383" lon="10.6226017"><ele>150.0</ele><time>2026-04-11T10:08:31.459Z</time></trkpt><trkpt lat="45.3534783" lon="10.622395"><ele>148.5</ele><time>2026-04-11T10:08:32.452Z</time></trkpt><trkpt lat="45.3535" lon="10.622215"><ele>147.0</ele><time>2026-04-11T10:08:33.45Z</time></trkpt><trkpt lat="45.3535333" lon="10.6220233"><ele>145.5</ele><time>2026-04-11T10:08:34.466Z</time></trkpt><trkpt lat="45.3535283" lon="10.6218983"><ele>144.0</ele><time>2026-04-11T10:08:35.454Z</time></trkpt><trkpt lat="45.3535483" lon="10.62175"><ele>143.33333333333334</ele><time>2026-04-11T10:08:36.459Z</time></trkpt><trkpt lat="45.35357" lon="10.6216467"><ele>142.66666666666666</ele><time>2026-04-11T10:08:37.474Z</time></trkpt><trkpt lat="45.3536" lon="10.6215517"><ele>142.0</ele><time>2026-04-11T10:08:38.457Z</time></trkpt><trkpt lat="45.3536383" lon="10.6214683"><ele>141.33333333333331</ele><time>2026-04-11T10:08:39.453Z</time></trkpt><trkpt lat="45.35368" lon="10.6213567"><ele>140.66666666666666</ele><time>2026-04-11T10:08:40.456Z</time></trkpt><trkpt lat="45.3537217" lon="10.62126"><ele>140.0</ele><time>2026-04-11T10:08:41.455Z</time></trkpt><trkpt lat="45.3538033" lon="10.621105"><ele>139.16666666666666</ele><time>2026-04-11T10:08:42.457Z</time></trkpt><trkpt lat="45.3538417" lon="10.6210267"><ele>138.33333333333331</ele><time>2026-04-11T10:08:43.461Z</time></trkpt><trkpt lat="45.3538917" lon="10.6209133"><ele>137.5</ele><time>2026-04-11T10:08:45.451Z</time></trkpt><trkpt lat="45.3538883" lon="10.6208183"><ele>136.66666666666666</ele><time>2026-04-11T10:08:47.454Z</time></trkpt><trkpt lat="45.3538417" lon="10.6206867"><ele>135.83333333333334</ele><time>2026-04-11T10:08:49.457Z</time></trkpt><trkpt lat="45.3537867" lon="10.620595"><ele>135.0</ele><time>2026-04-11T10:08:50.458Z</time></trkpt><trkpt lat="45.3537167" lon="10.6204883"><ele>135.0</ele><time>2026-04-11T10:08:51.452Z</time></trkpt><trkpt lat="45.3536333" lon="10.6203633"><ele>135.0</ele><time>2026-04-11T10:08:52.454Z</time></trkpt><trkpt lat="45.3535433" lon="10.620225"><ele>135.0</ele><time>2026-04-11T10:08:53.463Z</time></trkpt><trkpt lat="45.3534533" lon="10.620075"><ele>135.0</ele><time>2026-04-11T10:08:54.46Z</time></trkpt><trkpt lat="45.3533883" lon="10.6198867"><ele>135.0</ele><time>2026-04-11T10:08:55.468Z</time></trkpt><trkpt lat="45.35332" lon="10.6196867"><ele>135.0</ele><time>2026-04-11T10:08:56.455Z</time></trkpt><trkpt lat="45.3532717" lon="10.6194633"><ele>135.0</ele><time>2026-04-11T10:08:57.456Z</time></trkpt><trkpt lat="45.3532283" lon="10.61922"><ele>135.33333333333334</ele><time>2026-04-11T10:08:58.453Z</time></trkpt><trkpt lat="45.3532167" lon="10.618995"><ele>135.66666666666669</ele><time>2026-04-11T10:08:59.456Z</time></trkpt><trkpt lat="45.3532" lon="10.6187467"><ele>136.0</ele><time>2026-04-11T10:09:00.449Z</time></trkpt><trkpt lat="45.3532" lon="10.6185117"><ele>135.33333333333334</ele><time>2026-04-11T10:09:01.449Z</time></trkpt><trkpt lat="45.3531717" lon="10.6182667"><ele>134.66666666666666</ele><time>2026-04-11T10:09:02.527Z</time></trkpt><trkpt lat="45.3531583" lon="10.61801"><ele>134.0</ele><time>2026-04-11T10:09:03.458Z</time></trkpt><trkpt lat="45.3531417" lon="10.6177683"><ele>133.66666666666666</ele><time>2026-04-11T10:09:04.456Z</time></trkpt><trkpt lat="45.35313" lon="10.617525"><ele>133.33333333333334</ele><time>2026-04-11T10:09:05.455Z</time></trkpt><trkpt lat="45.353145" lon="10.6172483"><ele>133.0</ele><time>2026-04-11T10:09:06.463Z</time></trkpt><trkpt lat="45.3531367" lon="10.6170067"><ele>132.66666666666669</ele><time>2026-04-11T10:09:07.45Z</time></trkpt><trkpt lat="45.3531467" lon="10.6167867"><ele>132.33333333333334</ele><time>2026-04-11T10:09:08.462Z</time></trkpt><trkpt lat="45.3531517" lon="10.6165417"><ele>132.0</ele><time>2026-04-11T10:09:09.457Z</time></trkpt><trkpt lat="45.3531517" lon="10.6162933"><ele>132.0</ele><time>2026-04-11T10:09:10.453Z</time></trkpt><trkpt lat="45.3531733" lon="10.6160617"><ele>132.0</ele><time>2026-04-11T10:09:11.454Z</time></trkpt><trkpt lat="45.3532133" lon="10.6158367"><ele>132.0</ele><time>2026-04-11T10:09:12.454Z</time></trkpt><trkpt lat="45.3532717" lon="10.6156283"><ele>132.0</ele><time>2026-04-11T10:09:13.455Z</time></trkpt><trkpt lat="45.3532933" lon="10.6153967"><ele>132.0</ele><time>2026-04-11T10:09:14.454Z</time></trkpt><trkpt lat="45.3533183" lon="10.6151683"><ele>132.0</ele><time>2026-04-11T10:09:15.457Z</time></trkpt><trkpt lat="45.35334" lon="10.6149367"><ele>132.33333333333334</ele><time>2026-04-11T10:09:16.454Z</time></trkpt><trkpt lat="45.3533683" lon="10.6146967"><ele>132.66666666666669</ele><time>2026-04-11T10:09:17.452Z</time></trkpt><trkpt lat="45.353395" lon="10.61446"><ele>133.0</ele><time>2026-04-11T10:09:18.476Z</time></trkpt><trkpt lat="45.3533817" lon="10.6142383"><ele>133.33333333333334</ele><time>2026-04-11T10:09:19.486Z</time></trkpt><trkpt lat="45.3533683" lon="10.61399"><ele>133.66666666666666</ele><time>2026-04-11T10:09:20.458Z</time></trkpt><trkpt lat="45.3533717" lon="10.6137483"><ele>134.0</ele><time>2026-04-11T10:09:21.457Z</time></trkpt><trkpt lat="45.35334" lon="10.6135117"><ele>132.66666666666666</ele><time>2026-04-11T10:09:22.457Z</time></trkpt><trkpt lat="45.3532867" lon="10.6132983"><ele>131.33333333333334</ele><time>2026-04-11T10:09:23.455Z</time></trkpt><trkpt lat="45.3532683" lon="10.6130833"><ele>130.0</ele><time>2026-04-11T10:09:24.457Z</time></trkpt><trkpt lat="45.3532017" lon="10.6128533"><ele>129.66666666666669</ele><time>2026-04-11T10:09:25.455Z</time></trkpt><trkpt lat="45.35317" lon="10.6126133"><ele>129.33333333333334</ele><time>2026-04-11T10:09:26.447Z</time></trkpt><trkpt lat="45.35318" lon="10.61241"><ele>129.0</ele><time>2026-04-11T10:09:27.461Z</time></trkpt><trkpt lat="45.3531717" lon="10.6122167"><ele>129.0</ele><time>2026-04-11T10:09:28.457Z</time></trkpt><trkpt lat="45.353175" lon="10.6120267"><ele>129.0</ele><time>2026-04-11T10:09:29.459Z</time></trkpt><trkpt lat="45.35318" lon="10.6118317"><ele>129.0</ele><time>2026-04-11T10:09:30.45Z</time></trkpt><trkpt lat="45.35318" lon="10.6116867"><ele>129.0</ele><time>2026-04-11T10:09:31.455Z</time></trkpt><trkpt lat="45.353155" lon="10.6115617"><ele>129.0</ele><time>2026-04-11T10:09:32.464Z</time></trkpt><trkpt lat="45.35315" lon="10.61144"><ele>129.0</ele><time>2026-04-11T10:09:33.459Z</time></trkpt><trkpt lat="45.3531217" lon="10.6113067"><ele>129.0</ele><time>2026-04-11T10:09:34.461Z</time></trkpt><trkpt lat="45.353055" lon="10.6111283"><ele>129.0</ele><time>2026-04-11T10:09:35.461Z</time></trkpt><trkpt lat="45.3529767" lon="10.6109567"><ele>131.5</ele><time>2026-04-11T10:09:36.447Z</time></trkpt><trkpt lat="45.3529233" lon="10.6107717"><ele>134.0</ele><time>2026-04-11T10:09:37.458Z</time></trkpt><trkpt lat="45.35286" lon="10.6105667"><ele>136.5</ele><time>2026-04-11T10:09:38.464Z</time></trkpt><trkpt lat="45.352805" lon="10.6103683"><ele>139.0</ele><time>2026-04-11T10:09:39.464Z</time></trkpt><trkpt lat="45.3527817" lon="10.6101367"><ele>139.0</ele><time>2026-04-11T10:09:40.456Z</time></trkpt><trkpt lat="45.3527817" lon="10.6098683"><ele>139.0</ele><time>2026-04-11T10:09:41.458Z</time></trkpt><trkpt lat="45.352795" lon="10.609615"><ele>139.0</ele><time>2026-04-11T10:09:42.462Z</time></trkpt><trkpt lat="45.3528333" lon="10.609375"><ele>138.33333333333334</ele><time>2026-04-11T10:09:43.454Z</time></trkpt><trkpt lat="45.3528767" lon="10.6091317"><ele>137.66666666666666</ele><time>2026-04-11T10:09:44.459Z</time></trkpt><trkpt lat="45.3529267" lon="10.6088833"><ele>137.0</ele><time>2026-04-11T10:09:45.451Z</time></trkpt><trkpt lat="45.352975" lon="10.60867"><ele>136.75</ele><time>2026-04-11T10:09:46.454Z</time></trkpt><trkpt lat="45.3529567" lon="10.608445"><ele>136.5</ele><time>2026-04-11T10:09:47.472Z</time></trkpt><trkpt lat="45.3530083" lon="10.6082467"><ele>136.25</ele><time>2026-04-11T10:09:48.464Z</time></trkpt><trkpt lat="45.3530183" lon="10.60807"><ele>136.0</ele><time>2026-04-11T10:09:49.458Z</time></trkpt><trkpt lat="45.3530183" lon="10.6079217"><ele>135.8</ele><time>2026-04-11T10:09:50.457Z</time></trkpt><trkpt lat="45.3530133" lon="10.60778"><ele>135.6</ele><time>2026-04-11T10:09:51.451Z</time></trkpt><trkpt lat="45.353045" lon="10.6076917"><ele>135.4</ele><time>2026-04-11T10:09:52.45Z</time></trkpt><trkpt lat="45.3531483" lon="10.6075967"><ele>135.2</ele><time>2026-04-11T10:09:54.452Z</time></trkpt><trkpt lat="45.3532233" lon="10.6075467"><ele>135.0</ele><time>2026-04-11T10:09:56.459Z</time></trkpt><trkpt lat="45.3532517" lon="10.6074233"><ele>132.8</ele><time>2026-04-11T10:09:58.461Z</time></trkpt><trkpt lat="45.35325" lon="10.6073"><ele>130.6</ele><time>2026-04-11T10:09:59.452Z</time></trkpt><trkpt lat="45.3532467" lon="10.6071433"><ele>128.4</ele><time>2026-04-11T10:10:00.457Z</time></trkpt><trkpt lat="45.3532517" lon="10.6069767"><ele>126.2</ele><time>2026-04-11T10:10:01.457Z</time></trkpt><trkpt lat="45.3532583" lon="10.6068"><ele>124.0</ele><time>2026-04-11T10:10:02.456Z</time></trkpt><trkpt lat="45.3532633" lon="10.60661"><ele>124.0</ele><time>2026-04-11T10:10:03.456Z</time></trkpt><trkpt lat="45.3532583" lon="10.60636"><ele>124.0</ele><time>2026-04-11T10:10:04.451Z</time></trkpt><trkpt lat="45.3532767" lon="10.6061867"><ele>124.0</ele><time>2026-04-11T10:10:05.45Z</time></trkpt><trkpt lat="45.3532883" lon="10.6060017"><ele>124.0</ele><time>2026-04-11T10:10:06.457Z</time></trkpt><trkpt lat="45.35331" lon="10.6058133"><ele>124.16666666666667</ele><time>2026-04-11T10:10:07.456Z</time></trkpt><trkpt lat="45.353295" lon="10.6056633"><ele>124.33333333333334</ele><time>2026-04-11T10:10:08.453Z</time></trkpt><trkpt lat="45.3532967" lon="10.6055517"><ele>124.5</ele><time>2026-04-11T10:10:09.458Z</time></trkpt><trkpt lat="45.3532933" lon="10.6054517"><ele>124.66666666666666</ele><time>2026-04-11T10:10:10.458Z</time></trkpt><trkpt lat="45.3533" lon="10.6053083"><ele>124.83333333333333</ele><time>2026-04-11T10:10:12.459Z</time></trkpt><trkpt lat="45.3533483" lon="10.6052317"><ele>125.0</ele><time>2026-04-11T10:10:14.459Z</time></trkpt><trkpt lat="45.3534933" lon="10.60528"><ele>125.0</ele><time>2026-04-11T10:10:16.461Z</time></trkpt><trkpt lat="45.3535683" lon="10.605305"><ele>125.0</ele><time>2026-04-11T10:10:17.463Z</time></trkpt><trkpt lat="45.3536767" lon="10.6053"><ele>125.0</ele><time>2026-04-11T10:10:19.459Z</time></trkpt><trkpt lat="45.353705" lon="10.6051117"><ele>125.0</ele><time>2026-04-11T10:10:21.453Z</time></trkpt><trkpt lat="45.3537117" lon="10.6049733"><ele>125.0</ele><time>2026-04-11T10:10:22.464Z</time></trkpt><trkpt lat="45.3537133" lon="10.6048283"><ele>125.0</ele><time>2026-04-11T10:10:23.464Z</time></trkpt><trkpt lat="45.35371" lon="10.604655"><ele>125.0</ele><time>2026-04-11T10:10:24.46Z</time></trkpt><trkpt lat="45.3537367" lon="10.6044983"><ele>125.0</ele><time>2026-04-11T10:10:25.468Z</time></trkpt><trkpt lat="45.3537617" lon="10.6043283"><ele>125.0</ele><time>2026-04-11T10:10:26.462Z</time></trkpt><trkpt lat="45.35379" lon="10.6041667"><ele>125.16666666666666</ele><time>2026-04-11T10:10:27.455Z</time></trkpt><trkpt lat="45.3538083" lon="10.6040233"><ele>125.33333333333333</ele><time>2026-04-11T10:10:28.453Z</time></trkpt><trkpt lat="45.3538383" lon="10.603895"><ele>125.5</ele><time>2026-04-11T10:10:29.46Z</time></trkpt><trkpt lat="45.3538667" lon="10.603785"><ele>125.66666666666666</ele><time>2026-04-11T10:10:30.454Z</time></trkpt><trkpt lat="45.353885" lon="10.6036567"><ele>125.83333333333333</ele><time>2026-04-11T10:10:31.456Z</time></trkpt><trkpt lat="45.3539033" lon="10.60355"><ele>126.0</ele><time>2026-04-11T10:10:32.461Z</time></trkpt><trkpt lat="45.3539317" lon="10.6034583"><ele>125.6</ele><time>2026-04-11T10:10:33.475Z</time></trkpt><trkpt lat="45.35397" lon="10.6033667"><ele>125.19999999999999</ele><time>2026-04-11T10:10:34.456Z</time></trkpt><trkpt lat="45.3540267" lon="10.60328"><ele>124.80000000000001</ele><time>2026-04-11T10:10:35.46Z</time></trkpt><trkpt lat="45.3540933" lon="10.6031833"><ele>124.4</ele><time>2026-04-11T10:10:36.455Z</time></trkpt><trkpt lat="45.3541617" lon="10.6030933"><ele>124.0</ele><time>2026-04-11T10:10:37.46Z</time></trkpt><trkpt lat="45.3542467" lon="10.6029933"><ele>124.0</ele><time>2026-04-11T10:10:38.462Z</time></trkpt><trkpt lat="45.3543283" lon="10.6028717"><ele>124.0</ele><time>2026-04-11T10:10:39.463Z</time></trkpt><trkpt lat="45.35442" lon="10.602755"><ele>124.0</ele><time>2026-04-11T10:10:40.455Z</time></trkpt><trkpt lat="45.35449" lon="10.60265"><ele>124.0</ele><time>2026-04-11T10:10:41.459Z</time></trkpt><trkpt lat="45.3545683" lon="10.6025367"><ele>124.0</ele><time>2026-04-11T10:10:42.466Z</time></trkpt><trkpt lat="45.3546517" lon="10.6024417"><ele>124.0</ele><time>2026-04-11T10:10:43.454Z</time></trkpt><trkpt lat="45.3547283" lon="10.6023483"><ele>124.0</ele><time>2026-04-11T10:10:44.462Z</time></trkpt><trkpt lat="45.3548083" lon="10.6022283"><ele>124.0</ele><time>2026-04-11T10:10:45.46Z</time></trkpt><trkpt lat="45.3548867" lon="10.6020967"><ele>124.0</ele><time>2026-04-11T10:10:46.458Z</time></trkpt><trkpt lat="45.354965" lon="10.6019817"><ele>124.00000000000001</ele><time>2026-04-11T10:10:47.453Z</time></trkpt><trkpt lat="45.3550417" lon="10.6019067"><ele>124.0</ele><time>2026-04-11T10:10:48.461Z</time></trkpt><trkpt lat="45.3550983" lon="10.6018133"><ele>124.0</ele><time>2026-04-11T10:10:49.46Z</time></trkpt><trkpt lat="45.3551467" lon="10.6017083"><ele>124.0</ele><time>2026-04-11T10:10:50.457Z</time></trkpt><trkpt lat="45.35519" lon="10.601625"><ele>124.00000000000001</ele><time>2026-04-11T10:10:51.468Z</time></trkpt><trkpt lat="45.3552417" lon="10.6015067"><ele>124.0</ele><time>2026-04-11T10:10:53.464Z</time></trkpt><trkpt lat="45.3551817" lon="10.6014033"><ele>124.00000000000001</ele><time>2026-04-11T10:10:56.463Z</time></trkpt><trkpt lat="45.3551133" lon="10.6013883"><ele>124.0</ele><time>2026-04-11T10:10:57.459Z</time></trkpt><trkpt lat="45.3550283" lon="10.6013817"><ele>124.0</ele><time>2026-04-11T10:10:58.469Z</time></trkpt><trkpt lat="45.35494" lon="10.60137"><ele>124.0</ele><time>2026-04-11T10:10:59.463Z</time></trkpt><trkpt lat="45.3548467" lon="10.6013467"><ele>124.00000000000001</ele><time>2026-04-11T10:11:00.458Z</time></trkpt><trkpt lat="45.3547417" lon="10.601335"><ele>124.0</ele><time>2026-04-11T10:11:01.456Z</time></trkpt><trkpt lat="45.3546367" lon="10.6013283"><ele>124.25</ele><time>2026-04-11T10:11:02.451Z</time></trkpt><trkpt lat="45.354525" lon="10.6013283"><ele>124.5</ele><time>2026-04-11T10:11:03.462Z</time></trkpt><trkpt lat="45.35439" lon="10.6013267"><ele>124.75</ele><time>2026-04-11T10:11:04.456Z</time></trkpt><trkpt lat="45.3542733" lon="10.6013267"><ele>125.0</ele><time>2026-04-11T10:11:05.461Z</time></trkpt><trkpt lat="45.3541467" lon="10.6013467"><ele>125.0</ele><time>2026-04-11T10:11:06.465Z</time></trkpt><trkpt lat="45.354025" lon="10.6013633"><ele>125.0</ele><time>2026-04-11T10:11:07.453Z</time></trkpt><trkpt lat="45.3539117" lon="10.6013617"><ele>125.0</ele><time>2026-04-11T10:11:08.462Z</time></trkpt><trkpt lat="45.353805" lon="10.6013517"><ele>125.0</ele><time>2026-04-11T10:11:09.454Z</time></trkpt><trkpt lat="45.353725" lon="10.6013517"><ele>125.0</ele><time>2026-04-11T10:11:10.45Z</time></trkpt><trkpt lat="45.3536333" lon="10.6013283"><ele>127.2</ele><time>2026-04-11T10:11:12.458Z</time></trkpt><trkpt lat="45.3536033" lon="10.6011983"><ele>129.4</ele><time>2026-04-11T10:11:14.456Z</time></trkpt><trkpt lat="45.3536167" lon="10.6010417"><ele>131.6</ele><time>2026-04-11T10:11:15.453Z</time></trkpt><trkpt lat="45.35363" lon="10.6008833"><ele>133.8</ele><time>2026-04-11T10:11:16.461Z</time></trkpt><trkpt lat="45.3536517" lon="10.6007217"><ele>136.0</ele><time>2026-04-11T10:11:17.467Z</time></trkpt><trkpt lat="45.3536533" lon="10.6005583"><ele>136.0</ele><time>2026-04-11T10:11:18.481Z</time></trkpt><trkpt lat="45.35368" lon="10.600365"><ele>136.0</ele><time>2026-04-11T10:11:19.462Z</time></trkpt><trkpt lat="45.3536817" lon="10.600165"><ele>136.0</ele><time>2026-04-11T10:11:21.452Z</time></trkpt><trkpt lat="45.35369" lon="10.6000367"><ele>136.0</ele><time>2026-04-11T10:11:22.455Z</time></trkpt><trkpt lat="45.3537067" lon="10.5999017"><ele>136.4</ele><time>2026-04-11T10:11:23.472Z</time></trkpt><trkpt lat="45.3537233" lon="10.5997717"><ele>136.8</ele><time>2026-04-11T10:11:24.467Z</time></trkpt><trkpt lat="45.3537383" lon="10.5996383"><ele>137.20000000000002</ele><time>2026-04-11T10:11:25.455Z</time></trkpt><trkpt lat="45.3537517" lon="10.599495"><ele>137.6</ele><time>2026-04-11T10:11:26.463Z</time></trkpt><trkpt lat="45.3537383" lon="10.5993533"><ele>138.0</ele><time>2026-04-11T10:11:27.466Z</time></trkpt><trkpt lat="45.35375" lon="10.5991983"><ele>138.4</ele><time>2026-04-11T10:11:28.452Z</time></trkpt><trkpt lat="45.35377" lon="10.5990583"><ele>138.8</ele><time>2026-04-11T10:11:29.478Z</time></trkpt><trkpt lat="45.3537983" lon="10.5989033"><ele>139.2</ele><time>2026-04-11T10:11:30.463Z</time></trkpt><trkpt lat="45.3538233" lon="10.5987483"><ele>139.6</ele><time>2026-04-11T10:11:31.487Z</time></trkpt><trkpt lat="45.3538533" lon="10.5986217"><ele>140.0</ele><time>2026-04-11T10:11:32.46Z</time></trkpt><trkpt lat="45.3538767" lon="10.5985017"><ele>137.2</ele><time>2026-04-11T10:11:33.462Z</time></trkpt><trkpt lat="45.353875" lon="10.5983517"><ele>134.4</ele><time>2026-04-11T10:11:34.453Z</time></trkpt><trkpt lat="45.3538933" lon="10.5982233"><ele>131.6</ele><time>2026-04-11T10:11:35.456Z</time></trkpt><trkpt lat="45.3539017" lon="10.598105"><ele>128.8</ele><time>2026-04-11T10:11:36.466Z</time></trkpt><trkpt lat="45.3538983" lon="10.5979933"><ele>126.0</ele><time>2026-04-11T10:11:37.457Z</time></trkpt><trkpt lat="45.3538967" lon="10.5978617"><ele>127.19999999999999</ele><time>2026-04-11T10:11:39.463Z</time></trkpt><trkpt lat="45.3539317" lon="10.597785"><ele>128.39999999999998</ele><time>2026-04-11T10:11:42.467Z</time></trkpt><trkpt lat="45.354025" lon="10.5977217"><ele>129.6</ele><time>2026-04-11T10:11:44.454Z</time></trkpt><trkpt lat="45.3541067" lon="10.5976767"><ele>130.79999999999998</ele><time>2026-04-11T10:11:45.482Z</time></trkpt><trkpt lat="45.354195" lon="10.5976417"><ele>132.0</ele><time>2026-04-11T10:11:46.475Z</time></trkpt><trkpt lat="45.35432" lon="10.59756"><ele>132.0</ele><time>2026-04-11T10:11:47.45Z</time></trkpt><trkpt lat="45.354435" lon="10.5975117"><ele>132.0</ele><time>2026-04-11T10:11:48.463Z</time></trkpt><trkpt lat="45.3545633" lon="10.59746"><ele>132.0</ele><time>2026-04-11T10:11:49.461Z</time></trkpt><trkpt lat="45.3547017" lon="10.597425"><ele>132.0</ele><time>2026-04-11T10:11:50.461Z</time></trkpt><trkpt lat="45.3548517" lon="10.5974"><ele>130.33333333333334</ele><time>2026-04-11T10:11:51.459Z</time></trkpt><trkpt lat="45.35511" lon="10.5974033"><ele>128.66666666666669</ele><time>2026-04-11T10:11:53.456Z</time></trkpt><trkpt lat="45.3552017" lon="10.5974867"><ele>127.0</ele><time>2026-04-11T10:11:54.459Z</time></trkpt><trkpt lat="45.3553167" lon="10.5975583"><ele>127.0</ele><time>2026-04-11T10:11:55.462Z</time></trkpt><trkpt lat="45.3554417" lon="10.59765"><ele>127.0</ele><time>2026-04-11T10:11:56.457Z</time></trkpt><trkpt lat="45.355555" lon="10.59771"><ele>127.0</ele><time>2026-04-11T10:11:57.458Z</time></trkpt><trkpt lat="45.355695" lon="10.5977617"><ele>127.0</ele><time>2026-04-11T10:11:58.458Z</time></trkpt><trkpt lat="45.355835" lon="10.5977783"><ele>127.6</ele><time>2026-04-11T10:11:59.461Z</time></trkpt><trkpt lat="45.3559367" lon="10.5977833"><ele>128.2</ele><time>2026-04-11T10:12:00.457Z</time></trkpt><trkpt lat="45.35606" lon="10.597795"><ele>128.8</ele><time>2026-04-11T10:12:01.466Z</time></trkpt><trkpt lat="45.356145" lon="10.5978"><ele>129.4</ele><time>2026-04-11T10:12:02.461Z</time></trkpt><trkpt lat="45.3562417" lon="10.5977883"><ele>130.0</ele><time>2026-04-11T10:12:03.465Z</time></trkpt><trkpt lat="45.3563517" lon="10.59775"><ele>130.16666666666669</ele><time>2026-04-11T10:12:04.455Z</time></trkpt><trkpt lat="45.35644" lon="10.5977283"><ele>130.33333333333334</ele><time>2026-04-11T10:12:05.466Z</time></trkpt><trkpt lat="45.356495" lon="10.5976767"><ele>130.5</ele><time>2026-04-11T10:12:06.458Z</time></trkpt><trkpt lat="45.3565583" lon="10.5975233"><ele>130.66666666666666</ele><time>2026-04-11T10:12:08.465Z</time></trkpt><trkpt lat="45.3565917" lon="10.5974233"><ele>130.83333333333331</ele><time>2026-04-11T10:12:09.461Z</time></trkpt><trkpt lat="45.35663" lon="10.5973183"><ele>131.0</ele><time>2026-04-11T10:12:10.456Z</time></trkpt><trkpt lat="45.356675" lon="10.5971967"><ele>131.0</ele><time>2026-04-11T10:12:11.464Z</time></trkpt><trkpt lat="45.356695" lon="10.5970283"><ele>131.0</ele><time>2026-04-11T10:12:12.461Z</time></trkpt><trkpt lat="45.3567333" lon="10.5969533"><ele>131.0</ele><time>2026-04-11T10:12:13.46Z</time></trkpt><trkpt lat="45.3567567" lon="10.5968133"><ele>131.0</ele><time>2026-04-11T10:12:14.463Z</time></trkpt><trkpt lat="45.3567733" lon="10.5966567"><ele>131.0</ele><time>2026-04-11T10:12:15.461Z</time></trkpt><trkpt lat="45.3567833" lon="10.59649"><ele>131.4</ele><time>2026-04-11T10:12:16.457Z</time></trkpt><trkpt lat="45.3567783" lon="10.5963317"><ele>131.8</ele><time>2026-04-11T10:12:17.458Z</time></trkpt><trkpt lat="45.356755" lon="10.5961833"><ele>132.20000000000002</ele><time>2026-04-11T10:12:18.474Z</time></trkpt><trkpt lat="45.3567317" lon="10.5960583"><ele>132.6</ele><time>2026-04-11T10:12:19.451Z</time></trkpt><trkpt lat="45.3567133" lon="10.5959583"><ele>133.0</ele><time>2026-04-11T10:12:20.461Z</time></trkpt><trkpt lat="45.3567217" lon="10.59582"><ele>133.33333333333334</ele><time>2026-04-11T10:12:22.458Z</time></trkpt><trkpt lat="45.3567883" lon="10.5958417"><ele>133.66666666666669</ele><time>2026-04-11T10:12:25.461Z</time></trkpt><trkpt lat="45.3568567" lon="10.5958333"><ele>134.0</ele><time>2026-04-11T10:12:28.454Z</time></trkpt><trkpt lat="45.3569017" lon="10.5957133"><ele>134.33333333333334</ele><time>2026-04-11T10:12:30.46Z</time></trkpt><trkpt lat="45.3569467" lon="10.595605"><ele>134.66666666666666</ele><time>2026-04-11T10:12:31.461Z</time></trkpt><trkpt lat="45.3569983" lon="10.595495"><ele>135.0</ele><time>2026-04-11T10:12:32.458Z</time></trkpt><trkpt lat="45.3570867" lon="10.5953983"><ele>135.5</ele><time>2026-04-11T10:12:33.461Z</time></trkpt><trkpt lat="45.3571917" lon="10.59531"><ele>136.0</ele><time>2026-04-11T10:12:34.46Z</time></trkpt><trkpt lat="45.3573" lon="10.59521"><ele>136.5</ele><time>2026-04-11T10:12:35.455Z</time></trkpt><trkpt lat="45.357405" lon="10.5951"><ele>137.0</ele><time>2026-04-11T10:12:36.459Z</time></trkpt><trkpt lat="45.3575067" lon="10.5949917"><ele>137.0</ele><time>2026-04-11T10:12:37.46Z</time></trkpt><trkpt lat="45.35761" lon="10.5948833"><ele>137.0</ele><time>2026-04-11T10:12:38.472Z</time></trkpt><trkpt lat="45.3577317" lon="10.5947667"><ele>137.0</ele><time>2026-04-11T10:12:39.46Z</time></trkpt><trkpt lat="45.357865" lon="10.5946617"><ele>137.0</ele><time>2026-04-11T10:12:40.456Z</time></trkpt><trkpt lat="45.358" lon="10.59455"><ele>140.0</ele><time>2026-04-11T10:12:41.458Z</time></trkpt><trkpt lat="45.35812" lon="10.5944433"><ele>143.0</ele><time>2026-04-11T10:12:42.475Z</time></trkpt><trkpt lat="45.35822" lon="10.594335"><ele>146.0</ele><time>2026-04-11T10:12:43.451Z</time></trkpt><trkpt lat="45.3583533" lon="10.5940483"><ele>146.0</ele><time>2026-04-11T10:12:45.45Z</time></trkpt><trkpt lat="45.358415" lon="10.59391"><ele>146.0</ele><time>2026-04-11T10:12:46.452Z</time></trkpt><trkpt lat="45.3584667" lon="10.5937467"><ele>146.0</ele><time>2026-04-11T10:12:47.456Z</time></trkpt><trkpt lat="45.3585617" lon="10.59362"><ele>146.0</ele><time>2026-04-11T10:12:48.46Z</time></trkpt><trkpt lat="45.3586933" lon="10.59348"><ele>146.25</ele><time>2026-04-11T10:12:49.45Z</time></trkpt><trkpt lat="45.3588" lon="10.5933817"><ele>146.5</ele><time>2026-04-11T10:12:50.456Z</time></trkpt><trkpt lat="45.3589017" lon="10.5932517"><ele>146.75</ele><time>2026-04-11T10:12:51.449Z</time></trkpt><trkpt lat="45.3589817" lon="10.59314"><ele>147.0</ele><time>2026-04-11T10:12:52.452Z</time></trkpt><trkpt lat="45.3590833" lon="10.5930567"><ele>150.33333333333334</ele><time>2026-04-11T10:12:53.462Z</time></trkpt><trkpt lat="45.3592017" lon="10.5929417"><ele>153.66666666666669</ele><time>2026-04-11T10:12:54.455Z</time></trkpt><trkpt lat="45.35935" lon="10.5928283"><ele>157.0</ele><time>2026-04-11T10:12:55.453Z</time></trkpt><trkpt lat="45.3594917" lon="10.5927017"><ele>158.25</ele><time>2026-04-11T10:12:56.464Z</time></trkpt><trkpt lat="45.359625" lon="10.5926167"><ele>159.5</ele><time>2026-04-11T10:12:57.454Z</time></trkpt><trkpt lat="45.3597367" lon="10.59255"><ele>160.75</ele><time>2026-04-11T10:12:58.459Z</time></trkpt><trkpt lat="45.3598267" lon="10.5924817"><ele>162.0</ele><time>2026-04-11T10:12:59.485Z</time></trkpt><trkpt lat="45.3599583" lon="10.5922283"><ele>162.0</ele><time>2026-04-11T10:13:00.461Z</time></trkpt><trkpt lat="45.3600567" lon="10.5922083"><ele>162.0</ele><time>2026-04-11T10:13:01.455Z</time></trkpt><trkpt lat="45.3601517" lon="10.5921133"><ele>162.0</ele><time>2026-04-11T10:13:02.457Z</time></trkpt><trkpt lat="45.3602333" lon="10.5919967"><ele>162.0</ele><time>2026-04-11T10:13:03.455Z</time></trkpt><trkpt lat="45.3603283" lon="10.5918267"><ele>162.0</ele><time>2026-04-11T10:13:04.454Z</time></trkpt><trkpt lat="45.3604417" lon="10.5917"><ele>162.0</ele><time>2026-04-11T10:13:05.453Z</time></trkpt><trkpt lat="45.3605367" lon="10.5915533"><ele>162.0</ele><time>2026-04-11T10:13:06.47Z</time></trkpt><trkpt lat="45.3606117" lon="10.5914117"><ele>162.0</ele><time>2026-04-11T10:13:07.457Z</time></trkpt><trkpt lat="45.3606833" lon="10.5912633"><ele>161.2</ele><time>2026-04-11T10:13:08.456Z</time></trkpt><trkpt lat="45.3607367" lon="10.5911317"><ele>160.39999999999998</ele><time>2026-04-11T10:13:09.459Z</time></trkpt><trkpt lat="45.360765" lon="10.5909883"><ele>159.60000000000002</ele><time>2026-04-11T10:13:10.461Z</time></trkpt><trkpt lat="45.3607683" lon="10.5908533"><ele>158.8</ele><time>2026-04-11T10:13:11.471Z</time></trkpt><trkpt lat="45.360775" lon="10.5906667"><ele>158.0</ele><time>2026-04-11T10:13:12.465Z</time></trkpt><trkpt lat="45.3608083" lon="10.5904533"><ele>158.0</ele><time>2026-04-11T10:13:13.466Z</time></trkpt><trkpt lat="45.3608267" lon="10.5903483"><ele>158.0</ele><time>2026-04-11T10:13:14.468Z</time></trkpt><trkpt lat="45.3608767" lon="10.59015"><ele>158.0</ele><time>2026-04-11T10:13:15.462Z</time></trkpt><trkpt lat="45.360975" lon="10.5899567"><ele>158.0</ele><time>2026-04-11T10:13:16.462Z</time></trkpt><trkpt lat="45.36104" lon="10.5898217"><ele>157.0</ele><time>2026-04-11T10:13:17.456Z</time></trkpt><trkpt lat="45.3611283" lon="10.5896867"><ele>156.0</ele><time>2026-04-11T10:13:18.472Z</time></trkpt><trkpt lat="45.3611867" lon="10.5895933"><ele>155.0</ele><time>2026-04-11T10:13:19.462Z</time></trkpt><trkpt lat="45.3612267" lon="10.5895017"><ele>154.0</ele><time>2026-04-11T10:13:20.452Z</time></trkpt><trkpt lat="45.3612733" lon="10.58938"><ele>153.0</ele><time>2026-04-11T10:13:21.457Z</time></trkpt><trkpt lat="45.361295" lon="10.5892817"><ele>153.20000000000002</ele><time>2026-04-11T10:13:22.488Z</time></trkpt><trkpt lat="45.3613317" lon="10.5891667"><ele>153.4</ele><time>2026-04-11T10:13:22.968Z</time></trkpt><trkpt lat="45.3613667" lon="10.5890567"><ele>153.60000000000002</ele><time>2026-04-11T10:13:23.948Z</time></trkpt><trkpt lat="45.3613933" lon="10.5889517"><ele>153.8</ele><time>2026-04-11T10:13:24.94Z</time></trkpt><trkpt lat="45.36145" lon="10.588775"><ele>154.0</ele><time>2026-04-11T10:13:27.402Z</time></trkpt><trkpt lat="45.3614767" lon="10.5886867"><ele>154.42857142857142</ele><time>2026-04-11T10:13:28.403Z</time></trkpt><trkpt lat="45.3615017" lon="10.5885983"><ele>154.85714285714286</ele><time>2026-04-11T10:13:29.402Z</time></trkpt><trkpt lat="45.36152" lon="10.5885067"><ele>155.28571428571428</ele><time>2026-04-11T10:13:30.404Z</time></trkpt><trkpt lat="45.361545" lon="10.588415"><ele>155.71428571428572</ele><time>2026-04-11T10:13:31.412Z</time></trkpt><trkpt lat="45.3615733" lon="10.58833"><ele>156.14285714285714</ele><time>2026-04-11T10:13:32.416Z</time></trkpt><trkpt lat="45.3616067" lon="10.5882467"><ele>156.57142857142856</ele><time>2026-04-11T10:13:33.409Z</time></trkpt><trkpt lat="45.3616433" lon="10.5881633"><ele>157.0</ele><time>2026-04-11T10:13:34.411Z</time></trkpt><trkpt lat="45.3616867" lon="10.58808"><ele>157.0</ele><time>2026-04-11T10:13:35.405Z</time></trkpt><trkpt lat="45.3617383" lon="10.588"><ele>157.0</ele><time>2026-04-11T10:13:36.404Z</time></trkpt><trkpt lat="45.3618033" lon="10.5879183"><ele>157.0</ele><time>2026-04-11T10:13:37.405Z</time></trkpt><trkpt lat="45.3618833" lon="10.58782"><ele>157.0</ele><time>2026-04-11T10:13:38.402Z</time></trkpt><trkpt lat="45.36198" lon="10.5877233"><ele>157.0</ele><time>2026-04-11T10:13:39.408Z</time></trkpt><trkpt lat="45.3620817" lon="10.5876117"><ele>157.5</ele><time>2026-04-11T10:13:40.404Z</time></trkpt><trkpt lat="45.36219" lon="10.5874883"><ele>158.0</ele><time>2026-04-11T10:13:41.406Z</time></trkpt><trkpt lat="45.362295" lon="10.5873467"><ele>158.5</ele><time>2026-04-11T10:13:42.41Z</time></trkpt><trkpt lat="45.3623833" lon="10.5872017"><ele>159.0</ele><time>2026-04-11T10:13:43.407Z</time></trkpt><trkpt lat="45.3624517" lon="10.5870633"><ele>158.33333333333334</ele><time>2026-04-11T10:13:44.405Z</time></trkpt><trkpt lat="45.3625133" lon="10.5869483"><ele>157.66666666666666</ele><time>2026-04-11T10:13:45.424Z</time></trkpt><trkpt lat="45.3625667" lon="10.586855"><ele>157.0</ele><time>2026-04-11T10:13:46.407Z</time></trkpt><trkpt lat="45.3626117" lon="10.5867833"><ele>156.33333333333331</ele><time>2026-04-11T10:13:47.409Z</time></trkpt><trkpt lat="45.3626933" lon="10.5867033"><ele>155.66666666666666</ele><time>2026-04-11T10:13:49.404Z</time></trkpt><trkpt lat="45.362785" lon="10.58673"><ele>155.0</ele><time>2026-04-11T10:13:51.417Z</time></trkpt><trkpt lat="45.3628533" lon="10.58677"><ele>155.0</ele><time>2026-04-11T10:13:52.396Z</time></trkpt><trkpt lat="45.3629283" lon="10.5868"><ele>155.0</ele><time>2026-04-11T10:13:53.426Z</time></trkpt><trkpt lat="45.363025" lon="10.5868417"><ele>155.0</ele><time>2026-04-11T10:13:54.443Z</time></trkpt><trkpt lat="45.3631333" lon="10.5868567"><ele>155.0</ele><time>2026-04-11T10:13:55.406Z</time></trkpt><trkpt lat="45.3632533" lon="10.586865"><ele>155.0</ele><time>2026-04-11T10:13:56.415Z</time></trkpt><trkpt lat="45.3633483" lon="10.5868833"><ele>154.33333333333331</ele><time>2026-04-11T10:13:57.417Z</time></trkpt><trkpt lat="45.3634367" lon="10.5869017"><ele>153.66666666666666</ele><time>2026-04-11T10:13:58.417Z</time></trkpt><trkpt lat="45.3634817" lon="10.5869667"><ele>153.0</ele><time>2026-04-11T10:13:59.445Z</time></trkpt><trkpt lat="45.3635383" lon="10.58703"><ele>152.33333333333334</ele><time>2026-04-11T10:14:00.377Z</time></trkpt><trkpt lat="45.3635733" lon="10.5871333"><ele>151.66666666666669</ele><time>2026-04-11T10:14:01.36Z</time></trkpt><trkpt lat="45.36359" lon="10.587245"><ele>151.0</ele><time>2026-04-11T10:14:02.349Z</time></trkpt><trkpt lat="45.36359" lon="10.5873683"><ele>151.0</ele><time>2026-04-11T10:14:03.355Z</time></trkpt><trkpt lat="45.3635817" lon="10.587495"><ele>151.0</ele><time>2026-04-11T10:14:04.351Z</time></trkpt><trkpt lat="45.3635767" lon="10.58761"><ele>151.0</ele><time>2026-04-11T10:14:05.348Z</time></trkpt><trkpt lat="45.3635833" lon="10.5877233"><ele>151.0</ele><time>2026-04-11T10:14:06.35Z</time></trkpt><trkpt lat="45.3636667" lon="10.5878183"><ele>151.0</ele><time>2026-04-11T10:14:07.343Z</time></trkpt><trkpt lat="45.363755" lon="10.58792"><ele>147.75</ele><time>2026-04-11T10:14:08.342Z</time></trkpt><trkpt lat="45.3638833" lon="10.5880167"><ele>144.5</ele><time>2026-04-11T10:14:09.344Z</time></trkpt><trkpt lat="45.3639933" lon="10.5880667"><ele>141.25</ele><time>2026-04-11T10:14:10.352Z</time></trkpt><trkpt lat="45.3640983" lon="10.5881317"><ele>138.0</ele><time>2026-04-11T10:14:11.34Z</time></trkpt><trkpt lat="45.364205" lon="10.5881683"><ele>138.0</ele><time>2026-04-11T10:14:12.362Z</time></trkpt><trkpt lat="45.3643067" lon="10.588205"><ele>138.0</ele><time>2026-04-11T10:14:13.351Z</time></trkpt><trkpt lat="45.3644133" lon="10.58825"><ele>138.0</ele><time>2026-04-11T10:14:14.344Z</time></trkpt><trkpt lat="45.3645183" lon="10.5883117"><ele>138.0</ele><time>2026-04-11T10:14:15.359Z</time></trkpt><trkpt lat="45.364635" lon="10.58836"><ele>138.5</ele><time>2026-04-11T10:14:16.344Z</time></trkpt><trkpt lat="45.3647567" lon="10.5884183"><ele>139.0</ele><time>2026-04-11T10:14:17.361Z</time></trkpt><trkpt lat="45.3648767" lon="10.5884683"><ele>139.5</ele><time>2026-04-11T10:14:18.365Z</time></trkpt><trkpt lat="45.3649917" lon="10.5885083"><ele>140.0</ele><time>2026-04-11T10:14:19.344Z</time></trkpt><trkpt lat="45.3651133" lon="10.5884883"><ele>140.0</ele><time>2026-04-11T10:14:20.342Z</time></trkpt><trkpt lat="45.365265" lon="10.5884817"><ele>140.0</ele><time>2026-04-11T10:14:21.352Z</time></trkpt><trkpt lat="45.365415" lon="10.58847"><ele>140.0</ele><time>2026-04-11T10:14:22.346Z</time></trkpt><trkpt lat="45.3655567" lon="10.5884417"><ele>140.0</ele><time>2026-04-11T10:14:23.36Z</time></trkpt><trkpt lat="45.3656667" lon="10.5884317"><ele>140.6</ele><time>2026-04-11T10:14:24.354Z</time></trkpt><trkpt lat="45.3657667" lon="10.5884433"><ele>141.2</ele><time>2026-04-11T10:14:25.356Z</time></trkpt><trkpt lat="45.3658683" lon="10.5884783"><ele>141.8</ele><time>2026-04-11T10:14:26.361Z</time></trkpt><trkpt lat="45.36595" lon="10.5885333"><ele>142.4</ele><time>2026-04-11T10:14:27.344Z</time></trkpt><trkpt lat="45.3660233" lon="10.5885633"><ele>143.0</ele><time>2026-04-11T10:14:28.365Z</time></trkpt><trkpt lat="45.3661067" lon="10.5886217"><ele>143.25</ele><time>2026-04-11T10:14:30.379Z</time></trkpt><trkpt lat="45.3661367" lon="10.5887133"><ele>143.5</ele><time>2026-04-11T10:14:32.373Z</time></trkpt><trkpt lat="45.3660867" lon="10.5889083"><ele>143.75</ele><time>2026-04-11T10:14:34.363Z</time></trkpt><trkpt lat="45.366045" lon="10.5890517"><ele>144.0</ele><time>2026-04-11T10:14:35.342Z</time></trkpt><trkpt lat="45.3659983" lon="10.5892267"><ele>144.0</ele><time>2026-04-11T10:14:36.344Z</time></trkpt><trkpt lat="45.3659633" lon="10.589415"><ele>144.0</ele><time>2026-04-11T10:14:37.344Z</time></trkpt><trkpt lat="45.3659283" lon="10.5895883"><ele>144.0</ele><time>2026-04-11T10:14:38.348Z</time></trkpt><trkpt lat="45.365925" lon="10.5897383"><ele>144.0</ele><time>2026-04-11T10:14:39.338Z</time></trkpt><trkpt lat="45.365925" lon="10.5898433"><ele>144.0</ele><time>2026-04-11T10:14:40.345Z</time></trkpt><trkpt lat="45.3659267" lon="10.589955"><ele>144.0</ele><time>2026-04-11T10:14:41.342Z</time></trkpt><trkpt lat="45.3659633" lon="10.590085"><ele>144.0</ele><time>2026-04-11T10:14:43.34Z</time></trkpt><trkpt lat="45.3659883" lon="10.5901733"><ele>144.0</ele><time>2026-04-11T10:14:45.34Z</time></trkpt><trkpt lat="45.3660017" lon="10.590265"><ele>144.0</ele><time>2026-04-11T10:14:47.341Z</time></trkpt><trkpt lat="45.3660283" lon="10.5903883"><ele>144.0</ele><time>2026-04-11T10:14:50.339Z</time></trkpt><trkpt lat="45.3660983" lon="10.5904383"><ele>144.0</ele><time>2026-04-11T10:14:52.347Z</time></trkpt><trkpt lat="45.3661833" lon="10.5904267"><ele>144.0</ele><time>2026-04-11T10:14:54.349Z</time></trkpt><trkpt lat="45.366225" lon="10.5903433"><ele>144.0</ele><time>2026-04-11T10:15:55.337Z</time></trkpt><trkpt lat="45.3662283" lon="10.5901967"><ele>144.0</ele><time>2026-04-11T10:15:57.346Z</time></trkpt><trkpt lat="45.366255" lon="10.59007"><ele>144.0</ele><time>2026-04-11T10:15:59.343Z</time></trkpt><trkpt lat="45.3663217" lon="10.590005"><ele>144.0</ele><time>2026-04-11T10:16:01.34Z</time></trkpt><trkpt lat="45.3664267" lon="10.5899933"><ele>144.6</ele><time>2026-04-11T10:16:03.34Z</time></trkpt><trkpt lat="45.366495" lon="10.59"><ele>145.2</ele><time>2026-04-11T10:16:04.347Z</time></trkpt><trkpt lat="45.3665767" lon="10.590005"><ele>145.79999999999998</ele><time>2026-04-11T10:16:05.343Z</time></trkpt><trkpt lat="45.36667" lon="10.590015"><ele>146.4</ele><time>2026-04-11T10:16:06.343Z</time></trkpt><trkpt lat="45.3667833" lon="10.5900483"><ele>147.0</ele><time>2026-04-11T10:16:07.342Z</time></trkpt><trkpt lat="45.3669017" lon="10.5900467"><ele>147.0</ele><time>2026-04-11T10:16:08.344Z</time></trkpt><trkpt lat="45.3670117" lon="10.590095"><ele>147.0</ele><time>2026-04-11T10:16:09.338Z</time></trkpt><trkpt lat="45.3671117" lon="10.5901367"><ele>147.0</ele><time>2026-04-11T10:16:10.352Z</time></trkpt><trkpt lat="45.3672283" lon="10.5901667"><ele>147.0</ele><time>2026-04-11T10:16:11.34Z</time></trkpt><trkpt lat="45.3673383" lon="10.5901767"><ele>147.0</ele><time>2026-04-11T10:16:12.349Z</time></trkpt><trkpt lat="45.36744" lon="10.5901983"><ele>147.4</ele><time>2026-04-11T10:16:13.337Z</time></trkpt><trkpt lat="45.3675117" lon="10.590215"><ele>147.79999999999998</ele><time>2026-04-11T10:16:14.345Z</time></trkpt><trkpt lat="45.36758" lon="10.5902283"><ele>148.2</ele><time>2026-04-11T10:16:15.34Z</time></trkpt><trkpt lat="45.367685" lon="10.590305"><ele>148.6</ele><time>2026-04-11T10:16:17.344Z</time></trkpt><trkpt lat="45.3677567" lon="10.5904483"><ele>149.0</ele><time>2026-04-11T10:16:19.337Z</time></trkpt><trkpt lat="45.367855" lon="10.59053"><ele>149.5</ele><time>2026-04-11T10:16:21.345Z</time></trkpt><trkpt lat="45.3679183" lon="10.5905417"><ele>150.0</ele><time>2026-04-11T10:16:22.349Z</time></trkpt><trkpt lat="45.36799" lon="10.5905467"><ele>150.5</ele><time>2026-04-11T10:16:23.338Z</time></trkpt><trkpt lat="45.3680833" lon="10.5905333"><ele>151.0</ele><time>2026-04-11T10:16:24.339Z</time></trkpt><trkpt lat="45.3681717" lon="10.5905267"><ele>151.5</ele><time>2026-04-11T10:16:25.339Z</time></trkpt><trkpt lat="45.368255" lon="10.590535"><ele>152.0</ele><time>2026-04-11T10:16:26.337Z</time></trkpt><trkpt lat="45.3683217" lon="10.5905483"><ele>150.79999999999998</ele><time>2026-04-11T10:16:27.344Z</time></trkpt><trkpt lat="45.3683883" lon="10.59054"><ele>149.6</ele><time>2026-04-11T10:16:28.341Z</time></trkpt><trkpt lat="45.3684617" lon="10.5905783"><ele>148.39999999999998</ele><time>2026-04-11T10:16:30.348Z</time></trkpt><trkpt lat="45.3684683" lon="10.590735"><ele>147.2</ele><time>2026-04-11T10:16:33.337Z</time></trkpt><trkpt lat="45.3684417" lon="10.5908633"><ele>146.0</ele><time>2026-04-11T10:16:34.344Z</time></trkpt><trkpt lat="45.3684167" lon="10.5910033"><ele>146.0</ele><time>2026-04-11T10:16:35.336Z</time></trkpt><trkpt lat="45.368385" lon="10.5911683"><ele>146.0</ele><time>2026-04-11T10:16:36.365Z</time></trkpt><trkpt lat="45.3683517" lon="10.5913567"><ele>146.0</ele><time>2026-04-11T10:16:37.363Z</time></trkpt><trkpt lat="45.3683267" lon="10.5915367"><ele>146.0</ele><time>2026-04-11T10:16:38.358Z</time></trkpt><trkpt lat="45.3682867" lon="10.5917467"><ele>146.25</ele><time>2026-04-11T10:16:39.347Z</time></trkpt><trkpt lat="45.36825" lon="10.5919683"><ele>146.5</ele><time>2026-04-11T10:16:40.346Z</time></trkpt><trkpt lat="45.368235" lon="10.5921433"><ele>146.75</ele><time>2026-04-11T10:16:41.339Z</time></trkpt><trkpt lat="45.36821" lon="10.5923017"><ele>147.0</ele><time>2026-04-11T10:16:42.344Z</time></trkpt><trkpt lat="45.3681817" lon="10.59244"><ele>147.0</ele><time>2026-04-11T10:16:43.361Z</time></trkpt><trkpt lat="45.3681533" lon="10.5926"><ele>147.0</ele><time>2026-04-11T10:16:44.352Z</time></trkpt><trkpt lat="45.36813" lon="10.5927617"><ele>147.0</ele><time>2026-04-11T10:16:45.34Z</time></trkpt><trkpt lat="45.3681067" lon="10.5928883"><ele>147.0</ele><time>2026-04-11T10:16:46.348Z</time></trkpt><trkpt lat="45.3681067" lon="10.5930017"><ele>147.0</ele><time>2026-04-11T10:16:47.368Z</time></trkpt><trkpt lat="45.368095" lon="10.5931083"><ele>147.0</ele><time>2026-04-11T10:16:48.346Z</time></trkpt><trkpt lat="45.3681117" lon="10.5932517"><ele>147.0</ele><time>2026-04-11T10:16:50.357Z</time></trkpt><trkpt lat="45.3682467" lon="10.59331"><ele>147.0</ele><time>2026-04-11T10:16:52.346Z</time></trkpt><trkpt lat="45.3683333" lon="10.593305"><ele>147.0</ele><time>2026-04-11T10:16:53.342Z</time></trkpt><trkpt lat="45.3684133" lon="10.5932883"><ele>147.0</ele><time>2026-04-11T10:16:54.349Z</time></trkpt><trkpt lat="45.3684933" lon="10.59329"><ele>147.0</ele><time>2026-04-11T10:16:55.348Z</time></trkpt><trkpt lat="45.3685767" lon="10.5933333"><ele>147.0</ele><time>2026-04-11T10:16:56.344Z</time></trkpt><trkpt lat="45.36864" lon="10.5934217"><ele>147.0</ele><time>2026-04-11T10:16:57.35Z</time></trkpt><trkpt lat="45.368695" lon="10.5935483"><ele>147.0</ele><time>2026-04-11T10:16:58.343Z</time></trkpt><trkpt lat="45.3687433" lon="10.59372"><ele>147.0</ele><time>2026-04-11T10:16:59.352Z</time></trkpt><trkpt lat="45.3687933" lon="10.5938967"><ele>147.4</ele><time>2026-04-11T10:17:00.341Z</time></trkpt><trkpt lat="45.3688317" lon="10.5940533"><ele>147.79999999999998</ele><time>2026-04-11T10:17:01.347Z</time></trkpt><trkpt lat="45.3688733" lon="10.5941833"><ele>148.2</ele><time>2026-04-11T10:17:02.349Z</time></trkpt><trkpt lat="45.368915" lon="10.5943033"><ele>148.6</ele><time>2026-04-11T10:17:03.353Z</time></trkpt><trkpt lat="45.3689517" lon="10.5944183"><ele>149.0</ele><time>2026-04-11T10:17:04.352Z</time></trkpt><trkpt lat="45.3689867" lon="10.5945317"><ele>144.75</ele><time>2026-04-11T10:17:05.343Z</time></trkpt><trkpt lat="45.3689917" lon="10.594675"><ele>140.5</ele><time>2026-04-11T10:17:06.345Z</time></trkpt><trkpt lat="45.3689767" lon="10.5948483"><ele>136.25</ele><time>2026-04-11T10:17:07.35Z</time></trkpt><trkpt lat="45.3689533" lon="10.595045"><ele>132.0</ele><time>2026-04-11T10:17:08.349Z</time></trkpt><trkpt lat="45.368925" lon="10.59524"><ele>132.0</ele><time>2026-04-11T10:17:09.358Z</time></trkpt><trkpt lat="45.36893" lon="10.595435"><ele>132.0</ele><time>2026-04-11T10:17:10.348Z</time></trkpt><trkpt lat="45.368965" lon="10.5956133"><ele>132.0</ele><time>2026-04-11T10:17:11.343Z</time></trkpt><trkpt lat="45.3690133" lon="10.5957933"><ele>132.0</ele><time>2026-04-11T10:17:12.364Z</time></trkpt><trkpt lat="45.3690767" lon="10.5959383"><ele>132.0</ele><time>2026-04-11T10:17:13.355Z</time></trkpt><trkpt lat="45.3691267" lon="10.5960833"><ele>132.0</ele><time>2026-04-11T10:17:14.351Z</time></trkpt><trkpt lat="45.369165" lon="10.596225"><ele>132.0</ele><time>2026-04-11T10:17:15.357Z</time></trkpt><trkpt lat="45.3692233" lon="10.5963367"><ele>132.0</ele><time>2026-04-11T10:17:16.352Z</time></trkpt><trkpt lat="45.3692867" lon="10.59639"><ele>132.0</ele><time>2026-04-11T10:17:17.345Z</time></trkpt><trkpt lat="45.369355" lon="10.5964483"><ele>131.0</ele><time>2026-04-11T10:17:19.348Z</time></trkpt><trkpt lat="45.3694783" lon="10.59644"><ele>130.0</ele><time>2026-04-11T10:17:21.349Z</time></trkpt><trkpt lat="45.3695683" lon="10.5964133"><ele>129.0</ele><time>2026-04-11T10:17:22.349Z</time></trkpt><trkpt lat="45.369675" lon="10.5963783"><ele>128.0</ele><time>2026-04-11T10:17:23.356Z</time></trkpt><trkpt lat="45.3698033" lon="10.5962867"><ele>126.0</ele><time>2026-04-11T10:17:24.364Z</time></trkpt><trkpt lat="45.36993" lon="10.5962183"><ele>124.0</ele><time>2026-04-11T10:17:25.352Z</time></trkpt><trkpt lat="45.3700583" lon="10.5961633"><ele>122.0</ele><time>2026-04-11T10:17:26.337Z</time></trkpt><trkpt lat="45.37014" lon="10.5960983"><ele>120.0</ele><time>2026-04-11T10:17:27.343Z</time></trkpt><trkpt lat="45.3702033" lon="10.5959617"><ele>120.0</ele><time>2026-04-11T10:17:29.34Z</time></trkpt><trkpt lat="45.37022" lon="10.595875"><ele>120.0</ele><time>2026-04-11T10:17:30.339Z</time></trkpt><trkpt lat="45.3702317" lon="10.5957683"><ele>120.0</ele><time>2026-04-11T10:17:31.347Z</time></trkpt><trkpt lat="45.3702383" lon="10.595615"><ele>120.0</ele><time>2026-04-11T10:17:32.335Z</time></trkpt><trkpt lat="45.3702283" lon="10.5953783"><ele>120.0</ele><time>2026-04-11T10:17:33.336Z</time></trkpt><trkpt lat="45.3702317" lon="10.59515"><ele>120.33333333333334</ele><time>2026-04-11T10:17:34.341Z</time></trkpt><trkpt lat="45.370225" lon="10.594895"><ele>120.66666666666667</ele><time>2026-04-11T10:17:35.34Z</time></trkpt><trkpt lat="45.3702067" lon="10.5946233"><ele>121.0</ele><time>2026-04-11T10:17:36.337Z</time></trkpt><trkpt lat="45.3701833" lon="10.5943633"><ele>121.5</ele><time>2026-04-11T10:17:37.369Z</time></trkpt><trkpt lat="45.37016" lon="10.5941583"><ele>122.0</ele><time>2026-04-11T10:17:38.346Z</time></trkpt><trkpt lat="45.370155" lon="10.5939767"><ele>122.5</ele><time>2026-04-11T10:17:39.337Z</time></trkpt><trkpt lat="45.3701467" lon="10.593815"><ele>123.0</ele><time>2026-04-11T10:17:40.343Z</time></trkpt><trkpt lat="45.3701367" lon="10.59372"><ele>123.2</ele><time>2026-04-11T10:17:41.347Z</time></trkpt><trkpt lat="45.3701433" lon="10.593595"><ele>123.4</ele><time>2026-04-11T10:17:42.353Z</time></trkpt><trkpt lat="45.3701367" lon="10.5934717"><ele>123.60000000000001</ele><time>2026-04-11T10:17:43.34Z</time></trkpt><trkpt lat="45.3701667" lon="10.5933583"><ele>123.80000000000001</ele><time>2026-04-11T10:17:44.346Z</time></trkpt><trkpt lat="45.370195" lon="10.593225"><ele>124.0</ele><time>2026-04-11T10:17:45.344Z</time></trkpt><trkpt lat="45.3702617" lon="10.5930583"><ele>124.0</ele><time>2026-04-11T10:17:46.344Z</time></trkpt><trkpt lat="45.37033" lon="10.5928767"><ele>124.0</ele><time>2026-04-11T10:17:47.343Z</time></trkpt><trkpt lat="45.37041" lon="10.5926933"><ele>124.0</ele><time>2026-04-11T10:17:48.348Z</time></trkpt><trkpt lat="45.3704917" lon="10.5924967"><ele>121.5</ele><time>2026-04-11T10:17:49.332Z</time></trkpt><trkpt lat="45.3705683" lon="10.592305"><ele>119.0</ele><time>2026-04-11T10:17:50.341Z</time></trkpt><trkpt lat="45.37071" lon="10.5922083"><ele>116.5</ele><time>2026-04-11T10:17:51.336Z</time></trkpt><trkpt lat="45.3707717" lon="10.5920567"><ele>114.0</ele><time>2026-04-11T10:17:52.336Z</time></trkpt><trkpt lat="45.3708167" lon="10.5918833"><ele>114.0</ele><time>2026-04-11T10:17:53.34Z</time></trkpt><trkpt lat="45.370835" lon="10.5916917"><ele>114.0</ele><time>2026-04-11T10:17:54.347Z</time></trkpt><trkpt lat="45.370835" lon="10.5915283"><ele>114.0</ele><time>2026-04-11T10:17:55.337Z</time></trkpt><trkpt lat="45.3708717" lon="10.59137"><ele>114.0</ele><time>2026-04-11T10:17:56.339Z</time></trkpt><trkpt lat="45.37087" lon="10.591185"><ele>113.6</ele><time>2026-04-11T10:17:57.342Z</time></trkpt><trkpt lat="45.3708367" lon="10.5910583"><ele>113.2</ele><time>2026-04-11T10:17:58.348Z</time></trkpt><trkpt lat="45.3708017" lon="10.5909567"><ele>112.79999999999998</ele><time>2026-04-11T10:17:59.339Z</time></trkpt><trkpt lat="45.370755" lon="10.5908133"><ele>112.39999999999999</ele><time>2026-04-11T10:18:00.349Z</time></trkpt><trkpt lat="45.3706967" lon="10.59069"><ele>112.0</ele><time>2026-04-11T10:18:01.34Z</time></trkpt><trkpt lat="45.3706367" lon="10.5905333"><ele>112.0</ele><time>2026-04-11T10:18:02.344Z</time></trkpt><trkpt lat="45.3705467" lon="10.5904233"><ele>112.0</ele><time>2026-04-11T10:18:03.341Z</time></trkpt><trkpt lat="45.37045" lon="10.5902633"><ele>112.0</ele><time>2026-04-11T10:18:04.346Z</time></trkpt><trkpt lat="45.37036" lon="10.5901367"><ele>112.0</ele><time>2026-04-11T10:18:05.337Z</time></trkpt><trkpt lat="45.3703083" lon="10.5899917"><ele>114.19999999999999</ele><time>2026-04-11T10:18:06.349Z</time></trkpt><trkpt lat="45.3702667" lon="10.5898833"><ele>116.39999999999999</ele><time>2026-04-11T10:18:07.342Z</time></trkpt><trkpt lat="45.3702183" lon="10.58977"><ele>118.60000000000001</ele><time>2026-04-11T10:18:08.348Z</time></trkpt><trkpt lat="45.3701567" lon="10.58967"><ele>120.80000000000001</ele><time>2026-04-11T10:18:09.341Z</time></trkpt><trkpt lat="45.37008" lon="10.5895967"><ele>123.0</ele><time>2026-04-11T10:18:10.351Z</time></trkpt><trkpt lat="45.369985" lon="10.5895417"><ele>123.25</ele><time>2026-04-11T10:18:11.341Z</time></trkpt><trkpt lat="45.3698767" lon="10.5894883"><ele>123.5</ele><time>2026-04-11T10:18:12.359Z</time></trkpt><trkpt lat="45.3697633" lon="10.5894233"><ele>123.75</ele><time>2026-04-11T10:18:13.348Z</time></trkpt><trkpt lat="45.369655" lon="10.5893483"><ele>124.0</ele><time>2026-04-11T10:18:14.364Z</time></trkpt><trkpt lat="45.3695667" lon="10.589275"><ele>124.0</ele><time>2026-04-11T10:18:15.342Z</time></trkpt><trkpt lat="45.3694933" lon="10.5892067"><ele>124.0</ele><time>2026-04-11T10:18:16.34Z</time></trkpt><trkpt lat="45.3694317" lon="10.58912"><ele>124.0</ele><time>2026-04-11T10:18:17.348Z</time></trkpt><trkpt lat="45.3693767" lon="10.5889867"><ele>124.0</ele><time>2026-04-11T10:18:18.342Z</time></trkpt><trkpt lat="45.3693317" lon="10.58881"><ele>124.0</ele><time>2026-04-11T10:18:19.352Z</time></trkpt><trkpt lat="45.3692783" lon="10.5886233"><ele>122.6</ele><time>2026-04-11T10:18:20.345Z</time></trkpt><trkpt lat="45.369185" lon="10.5885"><ele>121.2</ele><time>2026-04-11T10:18:21.341Z</time></trkpt><trkpt lat="45.369115" lon="10.588375"><ele>119.79999999999998</ele><time>2026-04-11T10:18:22.353Z</time></trkpt><trkpt lat="45.3690783" lon="10.58826"><ele>118.39999999999999</ele><time>2026-04-11T10:18:23.345Z</time></trkpt><trkpt lat="45.3689867" lon="10.58815"><ele>117.0</ele><time>2026-04-11T10:18:25.351Z</time></trkpt><trkpt lat="45.3689167" lon="10.5881083"><ele>118.39999999999999</ele><time>2026-04-11T10:18:26.349Z</time></trkpt><trkpt lat="45.3688283" lon="10.5880617"><ele>119.79999999999998</ele><time>2026-04-11T10:18:27.347Z</time></trkpt><trkpt lat="45.368745" lon="10.5879917"><ele>121.2</ele><time>2026-04-11T10:18:28.35Z</time></trkpt><trkpt lat="45.368665" lon="10.5879167"><ele>122.6</ele><time>2026-04-11T10:18:29.348Z</time></trkpt><trkpt lat="45.3685867" lon="10.5878333"><ele>124.0</ele><time>2026-04-11T10:18:30.358Z</time></trkpt><trkpt lat="45.3685167" lon="10.587735"><ele>124.0</ele><time>2026-04-11T10:18:31.358Z</time></trkpt><trkpt lat="45.3684633" lon="10.5876333"><ele>124.0</ele><time>2026-04-11T10:18:32.347Z</time></trkpt><trkpt lat="45.368395" lon="10.5875017"><ele>124.0</ele><time>2026-04-11T10:18:33.342Z</time></trkpt><trkpt lat="45.3683533" lon="10.5873783"><ele>124.0</ele><time>2026-04-11T10:18:34.351Z</time></trkpt><trkpt lat="45.3683217" lon="10.5872583"><ele>124.0</ele><time>2026-04-11T10:18:35.34Z</time></trkpt><trkpt lat="45.3682667" lon="10.5871833"><ele>124.0</ele><time>2026-04-11T10:18:36.34Z</time></trkpt><trkpt lat="45.3681867" lon="10.587095"><ele>124.0</ele><time>2026-04-11T10:18:37.337Z</time></trkpt><trkpt lat="45.3680867" lon="10.5869967"><ele>124.0</ele><time>2026-04-11T10:18:38.346Z</time></trkpt><trkpt lat="45.3680367" lon="10.58685"><ele>124.0</ele><time>2026-04-11T10:18:39.341Z</time></trkpt><trkpt lat="45.36798" lon="10.5867283"><ele>124.0</ele><time>2026-04-11T10:18:40.335Z</time></trkpt><trkpt lat="45.3679417" lon="10.5866"><ele>123.25</ele><time>2026-04-11T10:18:41.339Z</time></trkpt><trkpt lat="45.367865" lon="10.5864583"><ele>122.5</ele><time>2026-04-11T10:18:42.347Z</time></trkpt><trkpt lat="45.3677683" lon="10.586285"><ele>121.75</ele><time>2026-04-11T10:18:43.34Z</time></trkpt><trkpt lat="45.3676817" lon="10.5861367"><ele>121.0</ele><time>2026-04-11T10:18:44.351Z</time></trkpt><trkpt lat="45.36759" lon="10.586"><ele>121.0</ele><time>2026-04-11T10:18:45.362Z</time></trkpt><trkpt lat="45.3675267" lon="10.5858667"><ele>121.0</ele><time>2026-04-11T10:18:46.352Z</time></trkpt><trkpt lat="45.36747" lon="10.5857217"><ele>121.0</ele><time>2026-04-11T10:18:47.348Z</time></trkpt><trkpt lat="45.3674067" lon="10.5855733"><ele>121.0</ele><time>2026-04-11T10:18:48.354Z</time></trkpt><trkpt lat="45.3673383" lon="10.585525"><ele>121.0</ele><time>2026-04-11T10:18:49.345Z</time></trkpt><trkpt lat="45.367285" lon="10.5854583"><ele>121.00000000000001</ele><time>2026-04-11T10:18:50.341Z</time></trkpt><trkpt lat="45.3672817" lon="10.5853483"><ele>121.0</ele><time>2026-04-11T10:18:51.348Z</time></trkpt><trkpt lat="45.367265" lon="10.5852533"><ele>121.0</ele><time>2026-04-11T10:18:52.353Z</time></trkpt><trkpt lat="45.3672583" lon="10.5851583"><ele>121.0</ele><time>2026-04-11T10:18:53.345Z</time></trkpt><trkpt lat="45.3672983" lon="10.5850367"><ele>121.00000000000001</ele><time>2026-04-11T10:18:54.363Z</time></trkpt><trkpt lat="45.3673283" lon="10.584905"><ele>121.0</ele><time>2026-04-11T10:18:55.351Z</time></trkpt><trkpt lat="45.3673633" lon="10.5847483"><ele>121.33333333333334</ele><time>2026-04-11T10:18:56.352Z</time></trkpt><trkpt lat="45.3674233" lon="10.5846217"><ele>121.66666666666666</ele><time>2026-04-11T10:18:57.358Z</time></trkpt><trkpt lat="45.3675917" lon="10.58433"><ele>122.0</ele><time>2026-04-11T10:18:59.351Z</time></trkpt><trkpt lat="45.3676617" lon="10.5841917"><ele>123.0</ele><time>2026-04-11T10:19:00.341Z</time></trkpt><trkpt lat="45.36771" lon="10.5840533"><ele>123.99999999999999</ele><time>2026-04-11T10:19:01.349Z</time></trkpt><trkpt lat="45.3677567" lon="10.5839017"><ele>124.99999999999999</ele><time>2026-04-11T10:19:02.344Z</time></trkpt><trkpt lat="45.3678283" lon="10.58379"><ele>126.0</ele><time>2026-04-11T10:19:03.353Z</time></trkpt><trkpt lat="45.3678817" lon="10.5836433"><ele>127.0</ele><time>2026-04-11T10:19:04.345Z</time></trkpt><trkpt lat="45.3679117" lon="10.5835333"><ele>127.5</ele><time>2026-04-11T10:19:05.347Z</time></trkpt><trkpt lat="45.3679567" lon="10.5833633"><ele>128.0</ele><time>2026-04-11T10:19:06.346Z</time></trkpt><trkpt lat="45.3679433" lon="10.5831683"><ele>128.5</ele><time>2026-04-11T10:19:07.34Z</time></trkpt><trkpt lat="45.3679833" lon="10.5829983"><ele>129.0</ele><time>2026-04-11T10:19:08.343Z</time></trkpt><trkpt lat="45.3680083" lon="10.5828267"><ele>129.0</ele><time>2026-04-11T10:19:09.343Z</time></trkpt><trkpt lat="45.3680117" lon="10.582645"><ele>129.0</ele><time>2026-04-11T10:19:10.352Z</time></trkpt><trkpt lat="45.3680417" lon="10.582505"><ele>129.0</ele><time>2026-04-11T10:19:11.381Z</time></trkpt><trkpt lat="45.3680617" lon="10.5823467"><ele>129.0</ele><time>2026-04-11T10:19:12.35Z</time></trkpt><trkpt lat="45.3680917" lon="10.5821983"><ele>125.6</ele><time>2026-04-11T10:19:13.348Z</time></trkpt><trkpt lat="45.3681383" lon="10.582105"><ele>122.2</ele><time>2026-04-11T10:19:14.357Z</time></trkpt><trkpt lat="45.3681967" lon="10.5820133"><ele>118.79999999999998</ele><time>2026-04-11T10:19:15.345Z</time></trkpt><trkpt lat="45.368265" lon="10.5819483"><ele>115.39999999999999</ele><time>2026-04-11T10:19:16.355Z</time></trkpt><trkpt lat="45.36836" lon="10.5819067"><ele>112.0</ele><time>2026-04-11T10:19:17.355Z</time></trkpt><trkpt lat="45.3684683" lon="10.5818667"><ele>112.0</ele><time>2026-04-11T10:19:18.352Z</time></trkpt><trkpt lat="45.3686083" lon="10.581825"><ele>112.0</ele><time>2026-04-11T10:19:19.349Z</time></trkpt><trkpt lat="45.3687583" lon="10.58178"><ele>112.0</ele><time>2026-04-11T10:19:20.347Z</time></trkpt><trkpt lat="45.3689117" lon="10.581725"><ele>111.75</ele><time>2026-04-11T10:19:21.344Z</time></trkpt><trkpt lat="45.3690483" lon="10.58165"><ele>111.5</ele><time>2026-04-11T10:19:22.355Z</time></trkpt><trkpt lat="45.3691933" lon="10.5815817"><ele>111.25</ele><time>2026-04-11T10:19:23.358Z</time></trkpt><trkpt lat="45.3693183" lon="10.58151"><ele>111.0</ele><time>2026-04-11T10:19:24.346Z</time></trkpt><trkpt lat="45.3694033" lon="10.581425"><ele>111.0</ele><time>2026-04-11T10:19:25.37Z</time></trkpt><trkpt lat="45.369485" lon="10.5813383"><ele>111.0</ele><time>2026-04-11T10:19:27.345Z</time></trkpt><trkpt lat="45.3694733" lon="10.5812383"><ele>111.0</ele><time>2026-04-11T10:19:29.341Z</time></trkpt><trkpt lat="45.369395" lon="10.5811633"><ele>111.0</ele><time>2026-04-11T10:19:32.346Z</time></trkpt><trkpt lat="45.3693183" lon="10.581175"><ele>111.0</ele><time>2026-04-11T10:19:33.34Z</time></trkpt><trkpt lat="45.3692267" lon="10.5812067"><ele>111.0</ele><time>2026-04-11T10:19:34.352Z</time></trkpt><trkpt lat="45.36911" lon="10.581265"><ele>111.0</ele><time>2026-04-11T10:19:35.349Z</time></trkpt><trkpt lat="45.3689467" lon="10.5813517"><ele>111.0</ele><time>2026-04-11T10:19:36.342Z</time></trkpt><trkpt lat="45.368785" lon="10.5813933"><ele>111.0</ele><time>2026-04-11T10:19:37.345Z</time></trkpt><trkpt lat="45.3685867" lon="10.58144"><ele>111.33333333333334</ele><time>2026-04-11T10:19:38.34Z</time></trkpt><trkpt lat="45.3683833" lon="10.5814783"><ele>111.66666666666667</ele><time>2026-04-11T10:19:39.341Z</time></trkpt><trkpt lat="45.3681717" lon="10.5814967"><ele>112.0</ele><time>2026-04-11T10:19:40.341Z</time></trkpt><trkpt lat="45.3679817" lon="10.58152"><ele>116.0</ele><time>2026-04-11T10:19:41.349Z</time></trkpt><trkpt lat="45.3678017" lon="10.5815333"><ele>120.0</ele><time>2026-04-11T10:19:42.345Z</time></trkpt><trkpt lat="45.3676383" lon="10.58155"><ele>124.0</ele><time>2026-04-11T10:19:43.352Z</time></trkpt><trkpt lat="45.3674767" lon="10.5815717"><ele>124.0</ele><time>2026-04-11T10:19:44.352Z</time></trkpt><trkpt lat="45.3673317" lon="10.5815833"><ele>124.0</ele><time>2026-04-11T10:19:45.368Z</time></trkpt><trkpt lat="45.3671817" lon="10.58159"><ele>124.0</ele><time>2026-04-11T10:19:46.354Z</time></trkpt><trkpt lat="45.3670267" lon="10.5816017"><ele>125.25</ele><time>2026-04-11T10:19:47.347Z</time></trkpt><trkpt lat="45.3668767" lon="10.581615"><ele>126.5</ele><time>2026-04-11T10:19:48.359Z</time></trkpt><trkpt lat="45.3667383" lon="10.5816317"><ele>127.75</ele><time>2026-04-11T10:19:49.35Z</time></trkpt><trkpt lat="45.36662" lon="10.5816367"><ele>129.0</ele><time>2026-04-11T10:19:50.353Z</time></trkpt><trkpt lat="45.3665067" lon="10.5816317"><ele>129.0</ele><time>2026-04-11T10:19:51.345Z</time></trkpt><trkpt lat="45.3664017" lon="10.58165"><ele>129.0</ele><time>2026-04-11T10:19:52.343Z</time></trkpt><trkpt lat="45.3663" lon="10.5816583"><ele>129.0</ele><time>2026-04-11T10:19:53.34Z</time></trkpt><trkpt lat="45.366215" lon="10.5816"><ele>129.0</ele><time>2026-04-11T10:19:54.35Z</time></trkpt><trkpt lat="45.36612" lon="10.5816317"><ele>129.0</ele><time>2026-04-11T10:19:55.343Z</time></trkpt><trkpt lat="45.3660467" lon="10.5816417"><ele>129.5</ele><time>2026-04-11T10:19:56.343Z</time></trkpt><trkpt lat="45.3659817" lon="10.5815967"><ele>130.0</ele><time>2026-04-11T10:19:57.335Z</time></trkpt><trkpt lat="45.3659167" lon="10.5815517"><ele>130.5</ele><time>2026-04-11T10:19:58.346Z</time></trkpt><trkpt lat="45.3658633" lon="10.5814917"><ele>131.0</ele><time>2026-04-11T10:19:59.34Z</time></trkpt><trkpt lat="45.3658083" lon="10.581445"><ele>131.5</ele><time>2026-04-11T10:20:00.345Z</time></trkpt><trkpt lat="45.3657517" lon="10.58136"><ele>132.0</ele><time>2026-04-11T10:20:01.339Z</time></trkpt><trkpt lat="45.3656867" lon="10.5812483"><ele>132.0</ele><time>2026-04-11T10:20:02.34Z</time></trkpt><trkpt lat="45.3656233" lon="10.5810967"><ele>132.0</ele><time>2026-04-11T10:20:03.333Z</time></trkpt><trkpt lat="45.36557" lon="10.5809183"><ele>132.0</ele><time>2026-04-11T10:20:04.338Z</time></trkpt><trkpt lat="45.3655433" lon="10.580735"><ele>132.0</ele><time>2026-04-11T10:20:05.349Z</time></trkpt><trkpt lat="45.3655033" lon="10.58052"><ele>133.0</ele><time>2026-04-11T10:20:06.341Z</time></trkpt><trkpt lat="45.3654533" lon="10.580305"><ele>134.0</ele><time>2026-04-11T10:20:07.343Z</time></trkpt><trkpt lat="45.3653983" lon="10.580065"><ele>135.0</ele><time>2026-04-11T10:20:08.346Z</time></trkpt><trkpt lat="45.3653483" lon="10.57981"><ele>135.0</ele><time>2026-04-11T10:20:09.356Z</time></trkpt><trkpt lat="45.3653" lon="10.5795467"><ele>135.0</ele><time>2026-04-11T10:20:10.339Z</time></trkpt><trkpt lat="45.365255" lon="10.5792883"><ele>135.0</ele><time>2026-04-11T10:20:11.343Z</time></trkpt><trkpt lat="45.365225" lon="10.579035"><ele>136.66666666666666</ele><time>2026-04-11T10:20:12.374Z</time></trkpt><trkpt lat="45.3652033" lon="10.5787733"><ele>138.33333333333331</ele><time>2026-04-11T10:20:13.348Z</time></trkpt><trkpt lat="45.3651917" lon="10.5785017"><ele>140.0</ele><time>2026-04-11T10:20:14.357Z</time></trkpt><trkpt lat="45.3651783" lon="10.5782217"><ele>140.66666666666666</ele><time>2026-04-11T10:20:15.353Z</time></trkpt><trkpt lat="45.36518" lon="10.5779367"><ele>141.33333333333334</ele><time>2026-04-11T10:20:16.338Z</time></trkpt><trkpt lat="45.3652" lon="10.5776583"><ele>142.0</ele><time>2026-04-11T10:20:17.351Z</time></trkpt><trkpt lat="45.3652333" lon="10.5773733"><ele>142.0</ele><time>2026-04-11T10:20:18.341Z</time></trkpt><trkpt lat="45.365275" lon="10.5770967"><ele>142.0</ele><time>2026-04-11T10:20:19.333Z</time></trkpt><trkpt lat="45.36532" lon="10.5768233"><ele>142.0</ele><time>2026-04-11T10:20:20.338Z</time></trkpt><trkpt lat="45.3653633" lon="10.576555"><ele>141.66666666666669</ele><time>2026-04-11T10:20:21.339Z</time></trkpt><trkpt lat="45.3653983" lon="10.57629"><ele>141.33333333333334</ele><time>2026-04-11T10:20:22.344Z</time></trkpt><trkpt lat="45.3654283" lon="10.57602"><ele>141.0</ele><time>2026-04-11T10:20:23.338Z</time></trkpt><trkpt lat="45.3654617" lon="10.5757467"><ele>140.0</ele><time>2026-04-11T10:20:24.34Z</time></trkpt><trkpt lat="45.3654933" lon="10.5754733"><ele>139.0</ele><time>2026-04-11T10:20:25.339Z</time></trkpt><trkpt lat="45.3655233" lon="10.5752167"><ele>138.0</ele><time>2026-04-11T10:20:26.341Z</time></trkpt><trkpt lat="45.3655583" lon="10.5749733"><ele>135.33333333333334</ele><time>2026-04-11T10:20:27.349Z</time></trkpt><trkpt lat="45.3655817" lon="10.5747417"><ele>132.66666666666669</ele><time>2026-04-11T10:20:28.348Z</time></trkpt><trkpt lat="45.3656217" lon="10.5745317"><ele>130.0</ele><time>2026-04-11T10:20:29.344Z</time></trkpt><trkpt lat="45.3657" lon="10.574365"><ele>130.0</ele><time>2026-04-11T10:20:30.342Z</time></trkpt><trkpt lat="45.3657733" lon="10.5742233"><ele>130.0</ele><time>2026-04-11T10:20:31.342Z</time></trkpt><trkpt lat="45.365825" lon="10.5740483"><ele>130.0</ele><time>2026-04-11T10:20:32.337Z</time></trkpt><trkpt lat="45.3658417" lon="10.57387"><ele>130.0</ele><time>2026-04-11T10:20:33.344Z</time></trkpt><trkpt lat="45.3658283" lon="10.57371"><ele>130.0</ele><time>2026-04-11T10:20:34.346Z</time></trkpt><trkpt lat="45.3658433" lon="10.5735683"><ele>130.0</ele><time>2026-04-11T10:20:35.34Z</time></trkpt><trkpt lat="45.3658467" lon="10.5734683"><ele>130.0</ele><time>2026-04-11T10:20:36.349Z</time></trkpt><trkpt lat="45.3658433" lon="10.5733667"><ele>130.0</ele><time>2026-04-11T10:20:37.339Z</time></trkpt><trkpt lat="45.365845" lon="10.5732133"><ele>130.0</ele><time>2026-04-11T10:20:39.336Z</time></trkpt><trkpt lat="45.3658417" lon="10.57308"><ele>130.0</ele><time>2026-04-11T10:20:41.341Z</time></trkpt><trkpt lat="45.365855" lon="10.5729217"><ele>130.0</ele><time>2026-04-11T10:20:43.342Z</time></trkpt><trkpt lat="45.3658767" lon="10.5728367"><ele>130.0</ele><time>2026-04-11T10:20:44.341Z</time></trkpt><trkpt lat="45.3659433" lon="10.5727217"><ele>130.0</ele><time>2026-04-11T10:20:46.343Z</time></trkpt><trkpt lat="45.3660517" lon="10.5727367"><ele>130.0</ele><time>2026-04-11T10:20:48.332Z</time></trkpt><trkpt lat="45.3661233" lon="10.5727833"><ele>130.0</ele><time>2026-04-11T10:20:49.337Z</time></trkpt><trkpt lat="45.3661967" lon="10.5728483"><ele>130.0</ele><time>2026-04-11T10:20:50.335Z</time></trkpt><trkpt lat="45.3662783" lon="10.5729317"><ele>130.0</ele><time>2026-04-11T10:20:51.333Z</time></trkpt><trkpt lat="45.36636" lon="10.5729983"><ele>130.0</ele><time>2026-04-11T10:20:52.338Z</time></trkpt><trkpt lat="45.3664267" lon="10.573075"><ele>130.0</ele><time>2026-04-11T10:20:53.338Z</time></trkpt><trkpt lat="45.3664983" lon="10.5731433"><ele>130.0</ele><time>2026-04-11T10:20:54.343Z</time></trkpt><trkpt lat="45.36657" lon="10.5732083"><ele>130.0</ele><time>2026-04-11T10:20:55.335Z</time></trkpt><trkpt lat="45.3666467" lon="10.5732567"><ele>130.0</ele><time>2026-04-11T10:20:56.346Z</time></trkpt><trkpt lat="45.36673" lon="10.5732883"><ele>130.66666666666669</ele><time>2026-04-11T10:20:57.336Z</time></trkpt><trkpt lat="45.3668317" lon="10.5732983"><ele>131.33333333333334</ele><time>2026-04-11T10:20:58.33Z</time></trkpt><trkpt lat="45.366905" lon="10.5733217"><ele>132.0</ele><time>2026-04-11T10:20:59.34Z</time></trkpt><trkpt lat="45.3669683" lon="10.57331"><ele>132.66666666666666</ele><time>2026-04-11T10:21:00.346Z</time></trkpt><trkpt lat="45.3670633" lon="10.573275"><ele>133.33333333333331</ele><time>2026-04-11T10:21:02.339Z</time></trkpt><trkpt lat="45.367145" lon="10.5732267"><ele>134.0</ele><time>2026-04-11T10:21:04.346Z</time></trkpt><trkpt lat="45.36725" lon="10.5731717"><ele>133.8</ele><time>2026-04-11T10:21:06.345Z</time></trkpt><trkpt lat="45.367335" lon="10.573115"><ele>133.60000000000002</ele><time>2026-04-11T10:21:07.333Z</time></trkpt><trkpt lat="45.367405" lon="10.5730367"><ele>133.4</ele><time>2026-04-11T10:21:08.346Z</time></trkpt><trkpt lat="45.36749" lon="10.5729467"><ele>133.20000000000002</ele><time>2026-04-11T10:21:09.335Z</time></trkpt><trkpt lat="45.367575" lon="10.57283"><ele>133.0</ele><time>2026-04-11T10:21:10.334Z</time></trkpt><trkpt lat="45.36767" lon="10.5727167"><ele>133.0</ele><time>2026-04-11T10:21:11.333Z</time></trkpt><trkpt lat="45.3677767" lon="10.5726067"><ele>133.0</ele><time>2026-04-11T10:21:12.34Z</time></trkpt><trkpt lat="45.36788" lon="10.57248"><ele>133.0</ele><time>2026-04-11T10:21:13.332Z</time></trkpt><trkpt lat="45.367985" lon="10.5723217"><ele>133.0</ele><time>2026-04-11T10:21:14.334Z</time></trkpt><trkpt lat="45.3680867" lon="10.57217"><ele>128.66666666666669</ele><time>2026-04-11T10:21:15.338Z</time></trkpt><trkpt lat="45.368225" lon="10.5720017"><ele>124.33333333333334</ele><time>2026-04-11T10:21:16.334Z</time></trkpt><trkpt lat="45.3683117" lon="10.5718417"><ele>120.0</ele><time>2026-04-11T10:21:17.34Z</time></trkpt><trkpt lat="45.3683733" lon="10.5716783"><ele>120.0</ele><time>2026-04-11T10:21:18.337Z</time></trkpt><trkpt lat="45.3684683" lon="10.5715383"><ele>120.0</ele><time>2026-04-11T10:21:19.332Z</time></trkpt><trkpt lat="45.36855" lon="10.57146"><ele>120.0</ele><time>2026-04-11T10:21:20.337Z</time></trkpt><trkpt lat="45.3686717" lon="10.57142"><ele>120.0</ele><time>2026-04-11T10:21:21.333Z</time></trkpt><trkpt lat="45.368755" lon="10.5713583"><ele>120.0</ele><time>2026-04-11T10:21:22.34Z</time></trkpt><trkpt lat="45.3688567" lon="10.5713283"><ele>120.0</ele><time>2026-04-11T10:21:23.334Z</time></trkpt><trkpt lat="45.36893" lon="10.57127"><ele>120.0</ele><time>2026-04-11T10:21:24.341Z</time></trkpt><trkpt lat="45.3690033" lon="10.57118"><ele>120.0</ele><time>2026-04-11T10:21:25.343Z</time></trkpt><trkpt lat="45.3690583" lon="10.5710833"><ele>120.0</ele><time>2026-04-11T10:21:26.34Z</time></trkpt><trkpt lat="45.3691283" lon="10.5709733"><ele>117.75</ele><time>2026-04-11T10:21:27.332Z</time></trkpt><trkpt lat="45.3692083" lon="10.5708583"><ele>115.5</ele><time>2026-04-11T10:21:28.345Z</time></trkpt><trkpt lat="45.3692583" lon="10.5707083"><ele>113.25</ele><time>2026-04-11T10:21:29.335Z</time></trkpt><trkpt lat="45.3693167" lon="10.5705667"><ele>111.0</ele><time>2026-04-11T10:21:30.342Z</time></trkpt><trkpt lat="45.3693817" lon="10.5704317"><ele>112.25</ele><time>2026-04-11T10:21:31.342Z</time></trkpt><trkpt lat="45.36942" lon="10.5702483"><ele>113.5</ele><time>2026-04-11T10:21:32.344Z</time></trkpt><trkpt lat="45.3694917" lon="10.570095"><ele>114.75</ele><time>2026-04-11T10:21:33.333Z</time></trkpt><trkpt lat="45.3695633" lon="10.569945"><ele>116.0</ele><time>2026-04-11T10:21:34.359Z</time></trkpt><trkpt lat="45.3696617" lon="10.5697983"><ele>115.0</ele><time>2026-04-11T10:21:35.346Z</time></trkpt><trkpt lat="45.369755" lon="10.56967"><ele>114.0</ele><time>2026-04-11T10:21:36.338Z</time></trkpt><trkpt lat="45.3698533" lon="10.56953"><ele>113.0</ele><time>2026-04-11T10:21:37.338Z</time></trkpt><trkpt lat="45.3699483" lon="10.5693817"><ele>112.0</ele><time>2026-04-11T10:21:38.348Z</time></trkpt><trkpt lat="45.3700467" lon="10.56925"><ele>112.0</ele><time>2026-04-11T10:21:39.336Z</time></trkpt><trkpt lat="45.3701417" lon="10.5691233"><ele>112.0</ele><time>2026-04-11T10:21:40.334Z</time></trkpt><trkpt lat="45.3702333" lon="10.5689833"><ele>112.0</ele><time>2026-04-11T10:21:41.34Z</time></trkpt><trkpt lat="45.370335" lon="10.5688933"><ele>112.0</ele><time>2026-04-11T10:21:42.336Z</time></trkpt><trkpt lat="45.37045" lon="10.5687933"><ele>113.0</ele><time>2026-04-11T10:21:43.348Z</time></trkpt><trkpt lat="45.3706033" lon="10.5686817"><ele>114.0</ele><time>2026-04-11T10:21:44.343Z</time></trkpt><trkpt lat="45.3707317" lon="10.5685867"><ele>115.0</ele><time>2026-04-11T10:21:45.352Z</time></trkpt><trkpt lat="45.3708317" lon="10.5684517"><ele>115.0</ele><time>2026-04-11T10:21:46.341Z</time></trkpt><trkpt lat="45.3709383" lon="10.56831"><ele>115.0</ele><time>2026-04-11T10:21:47.345Z</time></trkpt><trkpt lat="45.371035" lon="10.5681817"><ele>115.0</ele><time>2026-04-11T10:21:48.338Z</time></trkpt><trkpt lat="45.37113" lon="10.5680383"><ele>115.0</ele><time>2026-04-11T10:21:49.338Z</time></trkpt><trkpt lat="45.3712233" lon="10.5679133"><ele>116.75</ele><time>2026-04-11T10:21:50.344Z</time></trkpt><trkpt lat="45.371365" lon="10.567795"><ele>118.5</ele><time>2026-04-11T10:21:51.341Z</time></trkpt><trkpt lat="45.37144" lon="10.5676983"><ele>120.25</ele><time>2026-04-11T10:21:52.342Z</time></trkpt><trkpt lat="45.371505" lon="10.567615"><ele>122.0</ele><time>2026-04-11T10:21:53.373Z</time></trkpt><trkpt lat="45.3715833" lon="10.5675083"><ele>122.0</ele><time>2026-04-11T10:21:54.352Z</time></trkpt><trkpt lat="45.3716233" lon="10.5674217"><ele>121.99999999999999</ele><time>2026-04-11T10:21:55.341Z</time></trkpt><trkpt lat="45.37167" lon="10.5673517"><ele>121.99999999999999</ele><time>2026-04-11T10:21:56.345Z</time></trkpt><trkpt lat="45.3717417" lon="10.5671867"><ele>122.0</ele><time>2026-04-11T10:21:58.344Z</time></trkpt><trkpt lat="45.37179" lon="10.56709"><ele>122.0</ele><time>2026-04-11T10:21:59.338Z</time></trkpt><trkpt lat="45.3718383" lon="10.56698"><ele>123.16666666666666</ele><time>2026-04-11T10:22:00.352Z</time></trkpt><trkpt lat="45.3719" lon="10.566845"><ele>124.33333333333333</ele><time>2026-04-11T10:22:01.332Z</time></trkpt><trkpt lat="45.3719467" lon="10.56676"><ele>125.5</ele><time>2026-04-11T10:22:02.344Z</time></trkpt><trkpt lat="45.37197" lon="10.5666733"><ele>126.66666666666666</ele><time>2026-04-11T10:22:03.355Z</time></trkpt><trkpt lat="45.3720183" lon="10.5665833"><ele>127.83333333333333</ele><time>2026-04-11T10:22:05.334Z</time></trkpt><trkpt lat="45.37209" lon="10.5666"><ele>129.0</ele><time>2026-04-11T10:22:07.35Z</time></trkpt><trkpt lat="45.3722367" lon="10.5666317"><ele>131.0</ele><time>2026-04-11T10:22:09.341Z</time></trkpt><trkpt lat="45.372425" lon="10.56663"><ele>133.0</ele><time>2026-04-11T10:22:10.35Z</time></trkpt><trkpt lat="45.372585" lon="10.56662"><ele>135.0</ele><time>2026-04-11T10:22:11.355Z</time></trkpt><trkpt lat="45.3727633" lon="10.56658"><ele>135.0</ele><time>2026-04-11T10:22:12.35Z</time></trkpt><trkpt lat="45.372955" lon="10.5665283"><ele>135.0</ele><time>2026-04-11T10:22:13.349Z</time></trkpt><trkpt lat="45.3730983" lon="10.5664517"><ele>135.0</ele><time>2026-04-11T10:22:14.342Z</time></trkpt><trkpt lat="45.37319" lon="10.5664017"><ele>135.0</ele><time>2026-04-11T10:22:15.347Z</time></trkpt><trkpt lat="45.3732433" lon="10.56635"><ele>135.66666666666666</ele><time>2026-04-11T10:22:16.34Z</time></trkpt><trkpt lat="45.373325" lon="10.5663017"><ele>136.33333333333334</ele><time>2026-04-11T10:22:18.35Z</time></trkpt><trkpt lat="45.3733967" lon="10.5662983"><ele>137.0</ele><time>2026-04-11T10:22:22.355Z</time></trkpt><trkpt lat="45.3734817" lon="10.5662617"><ele>137.66666666666669</ele><time>2026-04-11T10:22:25.346Z</time></trkpt><trkpt lat="45.37354" lon="10.566215"><ele>138.33333333333334</ele><time>2026-04-11T10:22:27.354Z</time></trkpt><trkpt lat="45.3735983" lon="10.5661633"><ele>139.0</ele><time>2026-04-11T10:22:29.342Z</time></trkpt><trkpt lat="45.3736583" lon="10.5661033"><ele>139.16666666666669</ele><time>2026-04-11T10:22:31.339Z</time></trkpt><trkpt lat="45.3737083" lon="10.5660433"><ele>139.33333333333334</ele><time>2026-04-11T10:22:33.343Z</time></trkpt><trkpt lat="45.3737533" lon="10.56593"><ele>139.5</ele><time>2026-04-11T10:22:35.337Z</time></trkpt><trkpt lat="45.3737967" lon="10.5658017"><ele>139.66666666666666</ele><time>2026-04-11T10:22:37.338Z</time></trkpt><trkpt lat="45.3738367" lon="10.5656517"><ele>139.83333333333331</ele><time>2026-04-11T10:22:39.335Z</time></trkpt><trkpt lat="45.3738633" lon="10.56557"><ele>140.0</ele><time>2026-04-11T10:22:40.345Z</time></trkpt><trkpt lat="45.3738917" lon="10.5654767"><ele>140.0</ele><time>2026-04-11T10:22:41.346Z</time></trkpt><trkpt lat="45.3739233" lon="10.5653767"><ele>140.0</ele><time>2026-04-11T10:22:42.344Z</time></trkpt><trkpt lat="45.3739567" lon="10.565275"><ele>140.0</ele><time>2026-04-11T10:22:43.359Z</time></trkpt><trkpt lat="45.3739883" lon="10.5651767"><ele>140.0</ele><time>2026-04-11T10:22:44.338Z</time></trkpt><trkpt lat="45.3740217" lon="10.56509"><ele>140.0</ele><time>2026-04-11T10:22:45.352Z</time></trkpt><trkpt lat="45.3740517" lon="10.5650067"><ele>140.0</ele><time>2026-04-11T10:22:46.346Z</time></trkpt><trkpt lat="45.374085" lon="10.564915"><ele>140.0</ele><time>2026-04-11T10:22:47.348Z</time></trkpt><trkpt lat="45.3741233" lon="10.564815"><ele>140.2</ele><time>2026-04-11T10:22:48.346Z</time></trkpt><trkpt lat="45.374165" lon="10.5647083"><ele>140.4</ele><time>2026-04-11T10:22:49.341Z</time></trkpt><trkpt lat="45.37421" lon="10.5645983"><ele>140.6</ele><time>2026-04-11T10:22:50.347Z</time></trkpt><trkpt lat="45.3742567" lon="10.5644867"><ele>140.8</ele><time>2026-04-11T10:22:51.342Z</time></trkpt><trkpt lat="45.3742717" lon="10.5643467"><ele>141.0</ele><time>2026-04-11T10:22:52.334Z</time></trkpt><trkpt lat="45.374325" lon="10.56425"><ele>141.8</ele><time>2026-04-11T10:22:53.341Z</time></trkpt><trkpt lat="45.37437" lon="10.564155"><ele>142.6</ele><time>2026-04-11T10:22:54.346Z</time></trkpt><trkpt lat="45.3744233" lon="10.5640783"><ele>143.4</ele><time>2026-04-11T10:22:55.344Z</time></trkpt><trkpt lat="45.374475" lon="10.563985"><ele>144.2</ele><time>2026-04-11T10:22:56.34Z</time></trkpt><trkpt lat="45.3745317" lon="10.5638733"><ele>145.0</ele><time>2026-04-11T10:22:57.337Z</time></trkpt><trkpt lat="45.3746033" lon="10.56374"><ele>144.75</ele><time>2026-04-11T10:22:58.347Z</time></trkpt><trkpt lat="45.374675" lon="10.5635767"><ele>144.5</ele><time>2026-04-11T10:22:59.337Z</time></trkpt><trkpt lat="45.374755" lon="10.56342"><ele>144.25</ele><time>2026-04-11T10:23:00.348Z</time></trkpt><trkpt lat="45.3748433" lon="10.5632333"><ele>144.0</ele><time>2026-04-11T10:23:01.343Z</time></trkpt><trkpt lat="45.374935" lon="10.563045"><ele>146.0</ele><time>2026-04-11T10:23:02.35Z</time></trkpt><trkpt lat="45.37504" lon="10.5628483"><ele>148.0</ele><time>2026-04-11T10:23:03.339Z</time></trkpt><trkpt lat="45.3751567" lon="10.5626383"><ele>150.0</ele><time>2026-04-11T10:23:04.363Z</time></trkpt><trkpt lat="45.37529" lon="10.5624117"><ele>150.0</ele><time>2026-04-11T10:23:05.338Z</time></trkpt><trkpt lat="45.37543" lon="10.5621733"><ele>150.0</ele><time>2026-04-11T10:23:06.341Z</time></trkpt><trkpt lat="45.3755567" lon="10.561965"><ele>150.0</ele><time>2026-04-11T10:23:07.346Z</time></trkpt><trkpt lat="45.37568" lon="10.5617767"><ele>148.33333333333334</ele><time>2026-04-11T10:23:08.344Z</time></trkpt><trkpt lat="45.3757967" lon="10.5615867"><ele>146.66666666666669</ele><time>2026-04-11T10:23:09.339Z</time></trkpt><trkpt lat="45.3759033" lon="10.561395"><ele>145.0</ele><time>2026-04-11T10:23:10.342Z</time></trkpt><trkpt lat="45.37601" lon="10.5612183"><ele>147.0</ele><time>2026-04-11T10:23:11.34Z</time></trkpt><trkpt lat="45.376135" lon="10.5610583"><ele>149.0</ele><time>2026-04-11T10:23:12.335Z</time></trkpt><trkpt lat="45.3762217" lon="10.5608817"><ele>151.0</ele><time>2026-04-11T10:23:13.348Z</time></trkpt><trkpt lat="45.3763233" lon="10.560715"><ele>148.5</ele><time>2026-04-11T10:23:14.341Z</time></trkpt><trkpt lat="45.3764567" lon="10.5605917"><ele>146.0</ele><time>2026-04-11T10:23:15.337Z</time></trkpt><trkpt lat="45.3765683" lon="10.5604983"><ele>143.5</ele><time>2026-04-11T10:23:16.349Z</time></trkpt><trkpt lat="45.3766733" lon="10.5604067"><ele>141.0</ele><time>2026-04-11T10:23:17.345Z</time></trkpt><trkpt lat="45.3767717" lon="10.5603317"><ele>140.75</ele><time>2026-04-11T10:23:18.336Z</time></trkpt><trkpt lat="45.3768717" lon="10.5602483"><ele>140.5</ele><time>2026-04-11T10:23:19.345Z</time></trkpt><trkpt lat="45.3769867" lon="10.5601417"><ele>140.25</ele><time>2026-04-11T10:23:20.332Z</time></trkpt><trkpt lat="45.37709" lon="10.56004"><ele>140.0</ele><time>2026-04-11T10:23:21.347Z</time></trkpt><trkpt lat="45.3772067" lon="10.5599133"><ele>139.33333333333331</ele><time>2026-04-11T10:23:22.341Z</time></trkpt><trkpt lat="45.37734" lon="10.5597517"><ele>138.66666666666666</ele><time>2026-04-11T10:23:23.351Z</time></trkpt><trkpt lat="45.377485" lon="10.559565"><ele>138.0</ele><time>2026-04-11T10:23:24.355Z</time></trkpt><trkpt lat="45.3776367" lon="10.55938"><ele>136.66666666666666</ele><time>2026-04-11T10:23:25.341Z</time></trkpt><trkpt lat="45.3777867" lon="10.5591983"><ele>135.33333333333331</ele><time>2026-04-11T10:23:26.347Z</time></trkpt><trkpt lat="45.3779333" lon="10.5590417"><ele>134.0</ele><time>2026-04-11T10:23:27.353Z</time></trkpt><trkpt lat="45.3780667" lon="10.5589067"><ele>133.6</ele><time>2026-04-11T10:23:28.344Z</time></trkpt><trkpt lat="45.3781817" lon="10.5587933"><ele>133.2</ele><time>2026-04-11T10:23:29.344Z</time></trkpt><trkpt lat="45.3782783" lon="10.558695"><ele>132.79999999999998</ele><time>2026-04-11T10:23:30.344Z</time></trkpt><trkpt lat="45.3783617" lon="10.5586167"><ele>132.4</ele><time>2026-04-11T10:23:31.335Z</time></trkpt><trkpt lat="45.3784417" lon="10.5585717"><ele>132.0</ele><time>2026-04-11T10:23:32.344Z</time></trkpt><trkpt lat="45.378545" lon="10.5585167"><ele>131.75</ele><time>2026-04-11T10:23:34.341Z</time></trkpt><trkpt lat="45.3786367" lon="10.5584017"><ele>131.5</ele><time>2026-04-11T10:23:36.338Z</time></trkpt><trkpt lat="45.3786833" lon="10.55829"><ele>131.25</ele><time>2026-04-11T10:23:37.337Z</time></trkpt><trkpt lat="45.378735" lon="10.5581267"><ele>131.0</ele><time>2026-04-11T10:23:38.337Z</time></trkpt><trkpt lat="45.3788017" lon="10.5579383"><ele>130.5</ele><time>2026-04-11T10:23:39.363Z</time></trkpt><trkpt lat="45.3788517" lon="10.5577467"><ele>130.0</ele><time>2026-04-11T10:23:40.348Z</time></trkpt><trkpt lat="45.3789283" lon="10.5576"><ele>129.5</ele><time>2026-04-11T10:23:41.335Z</time></trkpt><trkpt lat="45.378995" lon="10.5574383"><ele>129.0</ele><time>2026-04-11T10:23:42.339Z</time></trkpt><trkpt lat="45.379065" lon="10.5572717"><ele>129.0</ele><time>2026-04-11T10:23:43.341Z</time></trkpt><trkpt lat="45.37914" lon="10.55711"><ele>129.0</ele><time>2026-04-11T10:23:44.373Z</time></trkpt><trkpt lat="45.3792183" lon="10.5569533"><ele>129.0</ele><time>2026-04-11T10:23:45.349Z</time></trkpt><trkpt lat="45.3793217" lon="10.5567983"><ele>129.0</ele><time>2026-04-11T10:23:46.337Z</time></trkpt><trkpt lat="45.3794217" lon="10.5566717"><ele>128.75</ele><time>2026-04-11T10:23:47.339Z</time></trkpt><trkpt lat="45.3795433" lon="10.556535"><ele>128.5</ele><time>2026-04-11T10:23:48.343Z</time></trkpt><trkpt lat="45.37963" lon="10.5564267"><ele>128.25</ele><time>2026-04-11T10:23:49.343Z</time></trkpt><trkpt lat="45.379715" lon="10.55633"><ele>128.0</ele><time>2026-04-11T10:23:50.354Z</time></trkpt><trkpt lat="45.37983" lon="10.5562067"><ele>128.0</ele><time>2026-04-11T10:23:51.344Z</time></trkpt><trkpt lat="45.379925" lon="10.5561333"><ele>128.0</ele><time>2026-04-11T10:23:52.345Z</time></trkpt><trkpt lat="45.38" lon="10.55604"><ele>128.0</ele><time>2026-04-11T10:23:53.343Z</time></trkpt><trkpt lat="45.3800717" lon="10.5559633"><ele>128.0</ele><time>2026-04-11T10:23:54.335Z</time></trkpt><trkpt lat="45.3801367" lon="10.5558883"><ele>128.0</ele><time>2026-04-11T10:23:55.343Z</time></trkpt><trkpt lat="45.3801917" lon="10.5558033"><ele>128.0</ele><time>2026-04-11T10:23:56.348Z</time></trkpt><trkpt lat="45.3802433" lon="10.5556983"><ele>128.0</ele><time>2026-04-11T10:23:57.376Z</time></trkpt><trkpt lat="45.3803017" lon="10.5555883"><ele>128.0</ele><time>2026-04-11T10:23:58.339Z</time></trkpt><trkpt lat="45.3803383" lon="10.55542"><ele>128.0</ele><time>2026-04-11T10:23:59.353Z</time></trkpt><trkpt lat="45.3803917" lon="10.55521"><ele>127.5</ele><time>2026-04-11T10:24:00.337Z</time></trkpt><trkpt lat="45.3804383" lon="10.555025"><ele>127.0</ele><time>2026-04-11T10:24:01.34Z</time></trkpt><trkpt lat="45.38051" lon="10.5548883"><ele>126.5</ele><time>2026-04-11T10:24:02.345Z</time></trkpt><trkpt lat="45.3805867" lon="10.55478"><ele>126.0</ele><time>2026-04-11T10:24:03.334Z</time></trkpt><trkpt lat="45.3806767" lon="10.5546083"><ele>125.6</ele><time>2026-04-11T10:24:04.34Z</time></trkpt><trkpt lat="45.3807433" lon="10.55442"><ele>125.19999999999999</ele><time>2026-04-11T10:24:05.35Z</time></trkpt><trkpt lat="45.3808033" lon="10.5543033"><ele>124.80000000000001</ele><time>2026-04-11T10:24:06.344Z</time></trkpt><trkpt lat="45.380835" lon="10.5541783"><ele>124.4</ele><time>2026-04-11T10:24:07.336Z</time></trkpt><trkpt lat="45.3808483" lon="10.5540867"><ele>124.0</ele><time>2026-04-11T10:24:08.356Z</time></trkpt><trkpt lat="45.3808333" lon="10.55395"><ele>124.0</ele><time>2026-04-11T10:24:09.353Z</time></trkpt><trkpt lat="45.3807883" lon="10.5538367"><ele>124.0</ele><time>2026-04-11T10:24:10.341Z</time></trkpt><trkpt lat="45.3807183" lon="10.5537383"><ele>124.0</ele><time>2026-04-11T10:24:11.346Z</time></trkpt><trkpt lat="45.38062" lon="10.5536367"><ele>124.0</ele><time>2026-04-11T10:24:12.344Z</time></trkpt><trkpt lat="45.3805567" lon="10.5535483"><ele>124.0</ele><time>2026-04-11T10:24:13.334Z</time></trkpt><trkpt lat="45.3804867" lon="10.55346"><ele>123.83333333333334</ele><time>2026-04-11T10:24:14.347Z</time></trkpt><trkpt lat="45.3804267" lon="10.5533733"><ele>123.66666666666667</ele><time>2026-04-11T10:24:15.344Z</time></trkpt><trkpt lat="45.3803933" lon="10.5532867"><ele>123.5</ele><time>2026-04-11T10:24:16.339Z</time></trkpt><trkpt lat="45.3803733" lon="10.55319"><ele>123.33333333333334</ele><time>2026-04-11T10:24:17.34Z</time></trkpt><trkpt lat="45.3803633" lon="10.5530767"><ele>123.16666666666667</ele><time>2026-04-11T10:24:18.343Z</time></trkpt><trkpt lat="45.38037" lon="10.5529283"><ele>123.0</ele><time>2026-04-11T10:24:19.333Z</time></trkpt><trkpt lat="45.38039" lon="10.5527933"><ele>123.2</ele><time>2026-04-11T10:24:20.343Z</time></trkpt><trkpt lat="45.38042" lon="10.5526733"><ele>123.4</ele><time>2026-04-11T10:24:21.338Z</time></trkpt><trkpt lat="45.380465" lon="10.5525583"><ele>123.60000000000001</ele><time>2026-04-11T10:24:22.33Z</time></trkpt><trkpt lat="45.3805217" lon="10.5524433"><ele>123.80000000000001</ele><time>2026-04-11T10:24:23.336Z</time></trkpt><trkpt lat="45.380585" lon="10.5523467"><ele>124.0</ele><time>2026-04-11T10:24:24.344Z</time></trkpt><trkpt lat="45.3806883" lon="10.5522667"><ele>124.0</ele><time>2026-04-11T10:24:25.338Z</time></trkpt><trkpt lat="45.3807833" lon="10.552195"><ele>124.0</ele><time>2026-04-11T10:24:26.35Z</time></trkpt><trkpt lat="45.38088" lon="10.5521333"><ele>124.0</ele><time>2026-04-11T10:24:27.341Z</time></trkpt><trkpt lat="45.3810017" lon="10.5520617"><ele>124.0</ele><time>2026-04-11T10:24:28.333Z</time></trkpt><trkpt lat="45.381125" lon="10.5519417"><ele>124.25</ele><time>2026-04-11T10:24:29.335Z</time></trkpt><trkpt lat="45.3812383" lon="10.55186"><ele>124.5</ele><time>2026-04-11T10:24:30.342Z</time></trkpt><trkpt lat="45.3813617" lon="10.55177"><ele>124.75</ele><time>2026-04-11T10:24:31.337Z</time></trkpt><trkpt lat="45.3815133" lon="10.55168"><ele>125.0</ele><time>2026-04-11T10:24:32.336Z</time></trkpt><trkpt lat="45.381655" lon="10.551575"><ele>125.0</ele><time>2026-04-11T10:24:33.333Z</time></trkpt><trkpt lat="45.3817983" lon="10.551495"><ele>125.0</ele><time>2026-04-11T10:24:34.341Z</time></trkpt><trkpt lat="45.38195" lon="10.5514133"><ele>125.0</ele><time>2026-04-11T10:24:35.336Z</time></trkpt><trkpt lat="45.382105" lon="10.5513367"><ele>125.0</ele><time>2026-04-11T10:24:36.341Z</time></trkpt><trkpt lat="45.38226" lon="10.551265"><ele>125.0</ele><time>2026-04-11T10:24:37.338Z</time></trkpt><trkpt lat="45.3824333" lon="10.5511683"><ele>125.0</ele><time>2026-04-11T10:24:38.344Z</time></trkpt><trkpt lat="45.382595" lon="10.5511267"><ele>125.4</ele><time>2026-04-11T10:24:39.344Z</time></trkpt><trkpt lat="45.382715" lon="10.5510433"><ele>125.8</ele><time>2026-04-11T10:24:40.338Z</time></trkpt><trkpt lat="45.3828133" lon="10.5509817"><ele>126.19999999999999</ele><time>2026-04-11T10:24:41.331Z</time></trkpt><trkpt lat="45.3828867" lon="10.5509433"><ele>126.6</ele><time>2026-04-11T10:24:42.339Z</time></trkpt><trkpt lat="45.382975" lon="10.5508717"><ele>127.0</ele><time>2026-04-11T10:24:43.339Z</time></trkpt><trkpt lat="45.38306" lon="10.5508"><ele>127.5</ele><time>2026-04-11T10:24:44.352Z</time></trkpt><trkpt lat="45.383135" lon="10.5507067"><ele>128.0</ele><time>2026-04-11T10:24:45.332Z</time></trkpt><trkpt lat="45.38323" lon="10.5506033"><ele>128.5</ele><time>2026-04-11T10:24:46.346Z</time></trkpt><trkpt lat="45.3833317" lon="10.5505183"><ele>129.0</ele><time>2026-04-11T10:24:47.338Z</time></trkpt><trkpt lat="45.3834567" lon="10.550435"><ele>129.0</ele><time>2026-04-11T10:24:48.342Z</time></trkpt><trkpt lat="45.3835767" lon="10.550375"><ele>129.0</ele><time>2026-04-11T10:24:49.339Z</time></trkpt><trkpt lat="45.3836667" lon="10.5502883"><ele>129.0</ele><time>2026-04-11T10:24:50.337Z</time></trkpt><trkpt lat="45.383755" lon="10.5502267"><ele>129.0</ele><time>2026-04-11T10:24:51.334Z</time></trkpt><trkpt lat="45.3838567" lon="10.5501517"><ele>129.0</ele><time>2026-04-11T10:24:52.341Z</time></trkpt><trkpt lat="45.3839633" lon="10.5500983"><ele>130.25</ele><time>2026-04-11T10:24:53.337Z</time></trkpt><trkpt lat="45.384075" lon="10.5500317"><ele>131.5</ele><time>2026-04-11T10:24:54.341Z</time></trkpt><trkpt lat="45.3842033" lon="10.549975"><ele>132.75</ele><time>2026-04-11T10:24:55.338Z</time></trkpt><trkpt lat="45.384325" lon="10.549915"><ele>134.0</ele><time>2026-04-11T10:24:56.354Z</time></trkpt><trkpt lat="45.384435" lon="10.54988"><ele>134.0</ele><time>2026-04-11T10:24:57.344Z</time></trkpt><trkpt lat="45.384545" lon="10.5498183"><ele>134.0</ele><time>2026-04-11T10:24:58.337Z</time></trkpt><trkpt lat="45.384645" lon="10.5497733"><ele>134.0</ele><time>2026-04-11T10:24:59.338Z</time></trkpt><trkpt lat="45.3847467" lon="10.549725"><ele>134.0</ele><time>2026-04-11T10:25:00.335Z</time></trkpt><trkpt lat="45.384825" lon="10.5496533"><ele>134.0</ele><time>2026-04-11T10:25:01.332Z</time></trkpt><trkpt lat="45.3849183" lon="10.5495817"><ele>132.75</ele><time>2026-04-11T10:25:02.344Z</time></trkpt><trkpt lat="45.38501" lon="10.5494883"><ele>131.5</ele><time>2026-04-11T10:25:03.339Z</time></trkpt><trkpt lat="45.3851067" lon="10.5494"><ele>130.25</ele><time>2026-04-11T10:25:04.336Z</time></trkpt><trkpt lat="45.3851833" lon="10.5492533"><ele>129.0</ele><time>2026-04-11T10:25:05.339Z</time></trkpt><trkpt lat="45.38532" lon="10.5491167"><ele>129.0</ele><time>2026-04-11T10:25:06.343Z</time></trkpt><trkpt lat="45.385425" lon="10.548975"><ele>129.0</ele><time>2026-04-11T10:25:07.34Z</time></trkpt><trkpt lat="45.38553" lon="10.548825"><ele>129.0</ele><time>2026-04-11T10:25:08.338Z</time></trkpt><trkpt lat="45.3856333" lon="10.5486867"><ele>129.0</ele><time>2026-04-11T10:25:09.344Z</time></trkpt><trkpt lat="45.3857183" lon="10.54856"><ele>128.2</ele><time>2026-04-11T10:25:10.342Z</time></trkpt><trkpt lat="45.3857967" lon="10.5484667"><ele>127.4</ele><time>2026-04-11T10:25:11.352Z</time></trkpt><trkpt lat="45.3858683" lon="10.548385"><ele>126.6</ele><time>2026-04-11T10:25:12.351Z</time></trkpt><trkpt lat="45.3859683" lon="10.5483367"><ele>125.8</ele><time>2026-04-11T10:25:13.343Z</time></trkpt><trkpt lat="45.386085" lon="10.5482533"><ele>125.0</ele><time>2026-04-11T10:25:14.35Z</time></trkpt><trkpt lat="45.3861983" lon="10.5481867"><ele>125.0</ele><time>2026-04-11T10:25:15.353Z</time></trkpt><trkpt lat="45.3863317" lon="10.5480467"><ele>125.0</ele><time>2026-04-11T10:25:16.34Z</time></trkpt><trkpt lat="45.386455" lon="10.547935"><ele>125.0</ele><time>2026-04-11T10:25:17.342Z</time></trkpt><trkpt lat="45.3865667" lon="10.54779"><ele>125.0</ele><time>2026-04-11T10:25:18.346Z</time></trkpt><trkpt lat="45.3867033" lon="10.547625"><ele>125.0</ele><time>2026-04-11T10:25:19.348Z</time></trkpt><trkpt lat="45.386825" lon="10.5475033"><ele>125.0</ele><time>2026-04-11T10:25:20.341Z</time></trkpt><trkpt lat="45.3869433" lon="10.547355"><ele>125.0</ele><time>2026-04-11T10:25:21.341Z</time></trkpt><trkpt lat="45.387105" lon="10.54725"><ele>125.0</ele><time>2026-04-11T10:25:22.354Z</time></trkpt><trkpt lat="45.3872183" lon="10.5470883"><ele>125.0</ele><time>2026-04-11T10:25:23.353Z</time></trkpt><trkpt lat="45.38733" lon="10.5469717"><ele>124.75</ele><time>2026-04-11T10:25:24.34Z</time></trkpt><trkpt lat="45.38744" lon="10.5468333"><ele>124.5</ele><time>2026-04-11T10:25:25.342Z</time></trkpt><trkpt lat="45.38754" lon="10.5467433"><ele>124.25</ele><time>2026-04-11T10:25:26.348Z</time></trkpt><trkpt lat="45.3876567" lon="10.5466667"><ele>124.0</ele><time>2026-04-11T10:25:27.339Z</time></trkpt><trkpt lat="45.3877567" lon="10.546585"><ele>124.0</ele><time>2026-04-11T10:25:28.385Z</time></trkpt><trkpt lat="45.38789" lon="10.5464867"><ele>124.0</ele><time>2026-04-11T10:25:29.366Z</time></trkpt><trkpt lat="45.38804" lon="10.54634"><ele>124.0</ele><time>2026-04-11T10:25:30.343Z</time></trkpt><trkpt lat="45.3882283" lon="10.54613"><ele>123.66666666666667</ele><time>2026-04-11T10:25:31.347Z</time></trkpt><trkpt lat="45.38837" lon="10.5459867"><ele>123.33333333333334</ele><time>2026-04-11T10:25:32.344Z</time></trkpt><trkpt lat="45.3885" lon="10.5458117"><ele>123.0</ele><time>2026-04-11T10:25:33.352Z</time></trkpt><trkpt lat="45.38859" lon="10.5456883"><ele>123.0</ele><time>2026-04-11T10:25:34.346Z</time></trkpt><trkpt lat="45.38867" lon="10.5456133"><ele>123.00000000000001</ele><time>2026-04-11T10:25:35.356Z</time></trkpt><trkpt lat="45.38873" lon="10.5454967"><ele>123.00000000000001</ele><time>2026-04-11T10:25:36.344Z</time></trkpt><trkpt lat="45.3887633" lon="10.5453767"><ele>123.0</ele><time>2026-04-11T10:25:38.346Z</time></trkpt><trkpt lat="45.3888217" lon="10.5452333"><ele>123.0</ele><time>2026-04-11T10:25:40.343Z</time></trkpt><trkpt lat="45.3888683" lon="10.5451517"><ele>124.4</ele><time>2026-04-11T10:25:41.341Z</time></trkpt><trkpt lat="45.38893" lon="10.5450667"><ele>125.80000000000001</ele><time>2026-04-11T10:25:42.344Z</time></trkpt><trkpt lat="45.3889983" lon="10.5449683"><ele>127.2</ele><time>2026-04-11T10:25:43.351Z</time></trkpt><trkpt lat="45.38906" lon="10.544935"><ele>128.6</ele><time>2026-04-11T10:25:44.351Z</time></trkpt><trkpt lat="45.389125" lon="10.5447783"><ele>130.0</ele><time>2026-04-11T10:25:45.336Z</time></trkpt><trkpt lat="45.3891733" lon="10.54454"><ele>130.0</ele><time>2026-04-11T10:25:46.332Z</time></trkpt><trkpt lat="45.38927" lon="10.5443917"><ele>130.0</ele><time>2026-04-11T10:25:47.34Z</time></trkpt><trkpt lat="45.3893267" lon="10.5442617"><ele>130.0</ele><time>2026-04-11T10:25:48.347Z</time></trkpt><trkpt lat="45.3894233" lon="10.5441517"><ele>130.0</ele><time>2026-04-11T10:25:49.347Z</time></trkpt><trkpt lat="45.389525" lon="10.5440783"><ele>130.0</ele><time>2026-04-11T10:25:50.354Z</time></trkpt><trkpt lat="45.389655" lon="10.5440267"><ele>130.0</ele><time>2026-04-11T10:25:51.356Z</time></trkpt><trkpt lat="45.38977" lon="10.5439667"><ele>130.0</ele><time>2026-04-11T10:25:52.342Z</time></trkpt><trkpt lat="45.3898667" lon="10.5438733"><ele>130.0</ele><time>2026-04-11T10:25:53.353Z</time></trkpt><trkpt lat="45.3899333" lon="10.5437667"><ele>130.0</ele><time>2026-04-11T10:25:54.344Z</time></trkpt><trkpt lat="45.3899717" lon="10.5436717"><ele>130.0</ele><time>2026-04-11T10:25:55.339Z</time></trkpt><trkpt lat="45.39003" lon="10.543595"><ele>130.0</ele><time>2026-04-11T10:25:56.344Z</time></trkpt><trkpt lat="45.3901" lon="10.5435567"><ele>130.0</ele><time>2026-04-11T10:25:57.347Z</time></trkpt><trkpt lat="45.3901967" lon="10.5435633"><ele>130.0</ele><time>2026-04-11T10:25:58.343Z</time></trkpt><trkpt lat="45.3903233" lon="10.5436133"><ele>130.0</ele><time>2026-04-11T10:25:59.348Z</time></trkpt><trkpt lat="45.390455" lon="10.54366"><ele>130.0</ele><time>2026-04-11T10:26:00.347Z</time></trkpt><trkpt lat="45.3905767" lon="10.5436833"><ele>130.0</ele><time>2026-04-11T10:26:01.343Z</time></trkpt><trkpt lat="45.39068" lon="10.5437333"><ele>130.0</ele><time>2026-04-11T10:26:02.352Z</time></trkpt><trkpt lat="45.39077" lon="10.5437683"><ele>129.66666666666669</ele><time>2026-04-11T10:26:03.344Z</time></trkpt><trkpt lat="45.3908433" lon="10.543785"><ele>129.33333333333334</ele><time>2026-04-11T10:26:04.349Z</time></trkpt><trkpt lat="45.390915" lon="10.543805"><ele>129.0</ele><time>2026-04-11T10:26:05.351Z</time></trkpt><trkpt lat="45.3909917" lon="10.5438217"><ele>128.66666666666666</ele><time>2026-04-11T10:26:06.355Z</time></trkpt><trkpt lat="45.3910667" lon="10.5438383"><ele>128.33333333333331</ele><time>2026-04-11T10:26:07.348Z</time></trkpt><trkpt lat="45.3911467" lon="10.5438533"><ele>128.0</ele><time>2026-04-11T10:26:08.345Z</time></trkpt><trkpt lat="45.3912317" lon="10.543865"><ele>128.0</ele><time>2026-04-11T10:26:09.337Z</time></trkpt><trkpt lat="45.3913217" lon="10.54386"><ele>128.0</ele><time>2026-04-11T10:26:10.341Z</time></trkpt><trkpt lat="45.3914017" lon="10.5438433"><ele>128.0</ele><time>2026-04-11T10:26:11.338Z</time></trkpt><trkpt lat="45.3914833" lon="10.54382"><ele>128.0</ele><time>2026-04-11T10:26:12.341Z</time></trkpt><trkpt lat="45.39157" lon="10.5437633"><ele>128.0</ele><time>2026-04-11T10:26:13.343Z</time></trkpt><trkpt lat="45.391655" lon="10.5436867"><ele>128.0</ele><time>2026-04-11T10:26:14.347Z</time></trkpt><trkpt lat="45.3917417" lon="10.5435883"><ele>128.0</ele><time>2026-04-11T10:26:15.334Z</time></trkpt><trkpt lat="45.39184" lon="10.543505"><ele>128.0</ele><time>2026-04-11T10:26:16.342Z</time></trkpt><trkpt lat="45.3919533" lon="10.5434117"><ele>128.0</ele><time>2026-04-11T10:26:17.333Z</time></trkpt><trkpt lat="45.3920567" lon="10.54332"><ele>128.0</ele><time>2026-04-11T10:26:18.336Z</time></trkpt><trkpt lat="45.3921667" lon="10.5432217"><ele>128.0</ele><time>2026-04-11T10:26:19.347Z</time></trkpt><trkpt lat="45.39228" lon="10.5431433"><ele>128.0</ele><time>2026-04-11T10:26:20.338Z</time></trkpt><trkpt lat="45.3923883" lon="10.54301"><ele>128.0</ele><time>2026-04-11T10:26:21.333Z</time></trkpt><trkpt lat="45.392485" lon="10.5429167"><ele>128.5</ele><time>2026-04-11T10:26:22.342Z</time></trkpt><trkpt lat="45.392575" lon="10.542785"><ele>129.0</ele><time>2026-04-11T10:26:23.339Z</time></trkpt><trkpt lat="45.3926733" lon="10.542615"><ele>129.5</ele><time>2026-04-11T10:26:24.332Z</time></trkpt><trkpt lat="45.3927483" lon="10.5424833"><ele>130.0</ele><time>2026-04-11T10:26:25.336Z</time></trkpt><trkpt lat="45.3928117" lon="10.54232"><ele>130.0</ele><time>2026-04-11T10:26:26.334Z</time></trkpt><trkpt lat="45.3928667" lon="10.54213"><ele>130.0</ele><time>2026-04-11T10:26:27.332Z</time></trkpt><trkpt lat="45.3929233" lon="10.5419233"><ele>130.0</ele><time>2026-04-11T10:26:28.329Z</time></trkpt><trkpt lat="45.3929767" lon="10.5417333"><ele>130.0</ele><time>2026-04-11T10:26:29.337Z</time></trkpt><trkpt lat="45.3930383" lon="10.5415683"><ele>131.25</ele><time>2026-04-11T10:26:30.338Z</time></trkpt><trkpt lat="45.3930983" lon="10.5414083"><ele>132.5</ele><time>2026-04-11T10:26:31.335Z</time></trkpt><trkpt lat="45.3931833" lon="10.54122"><ele>133.75</ele><time>2026-04-11T10:26:32.333Z</time></trkpt><trkpt lat="45.3932833" lon="10.54106"><ele>135.0</ele><time>2026-04-11T10:26:33.335Z</time></trkpt><trkpt lat="45.3933717" lon="10.5408633"><ele>135.0</ele><time>2026-04-11T10:26:34.356Z</time></trkpt><trkpt lat="45.3934283" lon="10.5407283"><ele>135.0</ele><time>2026-04-11T10:26:35.329Z</time></trkpt><trkpt lat="45.3935033" lon="10.5406033"><ele>135.0</ele><time>2026-04-11T10:26:36.333Z</time></trkpt><trkpt lat="45.3935567" lon="10.5404983"><ele>135.0</ele><time>2026-04-11T10:26:37.33Z</time></trkpt><trkpt lat="45.3935983" lon="10.540415"><ele>135.0</ele><time>2026-04-11T10:26:38.334Z</time></trkpt><trkpt lat="45.393635" lon="10.5403317"><ele>134.6</ele><time>2026-04-11T10:26:39.333Z</time></trkpt><trkpt lat="45.3936083" lon="10.540175"><ele>134.2</ele><time>2026-04-11T10:26:41.331Z</time></trkpt><trkpt lat="45.3935667" lon="10.5401"><ele>133.8</ele><time>2026-04-11T10:26:42.337Z</time></trkpt><trkpt lat="45.3934567" lon="10.5400433"><ele>133.4</ele><time>2026-04-11T10:26:43.333Z</time></trkpt><trkpt lat="45.3933333" lon="10.5399567"><ele>133.0</ele><time>2026-04-11T10:26:44.333Z</time></trkpt><trkpt lat="45.3931967" lon="10.53986"><ele>133.0</ele><time>2026-04-11T10:26:45.336Z</time></trkpt><trkpt lat="45.3930917" lon="10.539745"><ele>133.0</ele><time>2026-04-11T10:26:46.335Z</time></trkpt><trkpt lat="45.39296" lon="10.53963"><ele>133.0</ele><time>2026-04-11T10:26:47.331Z</time></trkpt><trkpt lat="45.392845" lon="10.539525"><ele>133.0</ele><time>2026-04-11T10:26:48.342Z</time></trkpt><trkpt lat="45.39274" lon="10.5394467"><ele>132.83333333333334</ele><time>2026-04-11T10:26:49.334Z</time></trkpt><trkpt lat="45.3926533" lon="10.53938"><ele>132.66666666666669</ele><time>2026-04-11T10:26:50.334Z</time></trkpt><trkpt lat="45.3925783" lon="10.5393433"><ele>132.5</ele><time>2026-04-11T10:26:51.338Z</time></trkpt><trkpt lat="45.3925033" lon="10.5392717"><ele>132.33333333333334</ele><time>2026-04-11T10:26:52.334Z</time></trkpt><trkpt lat="45.3924467" lon="10.539225"><ele>132.16666666666666</ele><time>2026-04-11T10:26:53.333Z</time></trkpt><trkpt lat="45.3924433" lon="10.5390967"><ele>132.0</ele><time>2026-04-11T10:26:55.336Z</time></trkpt><trkpt lat="45.3925083" lon="10.5390217"><ele>132.0</ele><time>2026-04-11T10:26:56.341Z</time></trkpt><trkpt lat="45.3925783" lon="10.53894"><ele>132.0</ele><time>2026-04-11T10:26:57.337Z</time></trkpt><trkpt lat="45.3926783" lon="10.53884"><ele>132.0</ele><time>2026-04-11T10:26:58.338Z</time></trkpt><trkpt lat="45.3928033" lon="10.53871"><ele>132.0</ele><time>2026-04-11T10:26:59.333Z</time></trkpt><trkpt lat="45.3928567" lon="10.5385933"><ele>132.5</ele><time>2026-04-11T10:27:00.333Z</time></trkpt><trkpt lat="45.3929333" lon="10.538465"><ele>133.0</ele><time>2026-04-11T10:27:01.337Z</time></trkpt><trkpt lat="45.3930067" lon="10.5383367"><ele>133.5</ele><time>2026-04-11T10:27:02.33Z</time></trkpt><trkpt lat="45.3931167" lon="10.538245"><ele>134.0</ele><time>2026-04-11T10:27:03.34Z</time></trkpt><trkpt lat="45.3932217" lon="10.5380717"><ele>134.0</ele><time>2026-04-11T10:27:04.337Z</time></trkpt><trkpt lat="45.3933233" lon="10.53796"><ele>134.0</ele><time>2026-04-11T10:27:05.334Z</time></trkpt><trkpt lat="45.3934467" lon="10.5378167"><ele>134.0</ele><time>2026-04-11T10:27:06.347Z</time></trkpt><trkpt lat="45.3935783" lon="10.53768"><ele>134.0</ele><time>2026-04-11T10:27:07.336Z</time></trkpt><trkpt lat="45.3937033" lon="10.5375467"><ele>134.0</ele><time>2026-04-11T10:27:08.331Z</time></trkpt><trkpt lat="45.3938183" lon="10.53743"><ele>134.0</ele><time>2026-04-11T10:27:09.339Z</time></trkpt><trkpt lat="45.3939267" lon="10.5372917"><ele>134.0</ele><time>2026-04-11T10:27:10.339Z</time></trkpt><trkpt lat="45.3940317" lon="10.5371683"><ele>133.5</ele><time>2026-04-11T10:27:11.342Z</time></trkpt><trkpt lat="45.39416" lon="10.5370417"><ele>133.0</ele><time>2026-04-11T10:27:12.345Z</time></trkpt><trkpt lat="45.3943033" lon="10.5369233"><ele>132.5</ele><time>2026-04-11T10:27:13.331Z</time></trkpt><trkpt lat="45.3944067" lon="10.5368283"><ele>132.0</ele><time>2026-04-11T10:27:14.332Z</time></trkpt><trkpt lat="45.394555" lon="10.5367567"><ele>132.33333333333334</ele><time>2026-04-11T10:27:15.336Z</time></trkpt><trkpt lat="45.3947183" lon="10.5366833"><ele>132.66666666666669</ele><time>2026-04-11T10:27:16.353Z</time></trkpt><trkpt lat="45.3948817" lon="10.5365917"><ele>133.0</ele><time>2026-04-11T10:27:17.338Z</time></trkpt><trkpt lat="45.395045" lon="10.5364867"><ele>133.0</ele><time>2026-04-11T10:27:18.345Z</time></trkpt><trkpt lat="45.3951783" lon="10.53641"><ele>133.0</ele><time>2026-04-11T10:27:19.336Z</time></trkpt><trkpt lat="45.3952817" lon="10.536355"><ele>133.0</ele><time>2026-04-11T10:27:20.339Z</time></trkpt><trkpt lat="45.3953683" lon="10.5363333"><ele>133.0</ele><time>2026-04-11T10:27:21.338Z</time></trkpt><trkpt lat="45.3954533" lon="10.5363217"><ele>133.0</ele><time>2026-04-11T10:27:22.336Z</time></trkpt><trkpt lat="45.39555" lon="10.5363517"><ele>132.25</ele><time>2026-04-11T10:27:23.357Z</time></trkpt><trkpt lat="45.3956533" lon="10.536435"><ele>131.5</ele><time>2026-04-11T10:27:24.342Z</time></trkpt><trkpt lat="45.39575" lon="10.5365317"><ele>130.75</ele><time>2026-04-11T10:27:25.34Z</time></trkpt><trkpt lat="45.3958617" lon="10.5366667"><ele>130.0</ele><time>2026-04-11T10:27:26.335Z</time></trkpt><trkpt lat="45.3960183" lon="10.536775"><ele>130.0</ele><time>2026-04-11T10:27:27.347Z</time></trkpt><trkpt lat="45.3961583" lon="10.53688"><ele>130.0</ele><time>2026-04-11T10:27:28.33Z</time></trkpt><trkpt lat="45.396265" lon="10.5369833"><ele>130.0</ele><time>2026-04-11T10:27:29.336Z</time></trkpt><trkpt lat="45.39638" lon="10.5370667"><ele>130.0</ele><time>2026-04-11T10:27:30.337Z</time></trkpt><trkpt lat="45.396485" lon="10.5371267"><ele>130.0</ele><time>2026-04-11T10:27:31.331Z</time></trkpt><trkpt lat="45.39658" lon="10.5371367"><ele>130.0</ele><time>2026-04-11T10:27:32.338Z</time></trkpt><trkpt lat="45.3966983" lon="10.5371233"><ele>130.0</ele><time>2026-04-11T10:27:33.341Z</time></trkpt><trkpt lat="45.3968583" lon="10.5370517"><ele>130.0</ele><time>2026-04-11T10:27:34.332Z</time></trkpt><trkpt lat="45.3970267" lon="10.537005"><ele>132.5</ele><time>2026-04-11T10:27:35.336Z</time></trkpt><trkpt lat="45.3971917" lon="10.53692"><ele>135.0</ele><time>2026-04-11T10:27:36.341Z</time></trkpt><trkpt lat="45.3973333" lon="10.5368433"><ele>137.5</ele><time>2026-04-11T10:27:37.339Z</time></trkpt><trkpt lat="45.3974267" lon="10.5367333"><ele>140.0</ele><time>2026-04-11T10:27:38.34Z</time></trkpt><trkpt lat="45.397495" lon="10.5366383"><ele>140.0</ele><time>2026-04-11T10:27:39.386Z</time></trkpt><trkpt lat="45.3976" lon="10.5364933"><ele>140.0</ele><time>2026-04-11T10:27:41.339Z</time></trkpt><trkpt lat="45.39768" lon="10.5363917"><ele>140.0</ele><time>2026-04-11T10:27:43.35Z</time></trkpt><trkpt lat="45.3977333" lon="10.536315"><ele>140.0</ele><time>2026-04-11T10:27:45.332Z</time></trkpt><trkpt lat="45.397795" lon="10.5362417"><ele>140.0</ele><time>2026-04-11T10:27:48.341Z</time></trkpt><trkpt lat="45.3978517" lon="10.53616"><ele>139.66666666666666</ele><time>2026-04-11T10:27:50.343Z</time></trkpt><trkpt lat="45.3979" lon="10.5360883"><ele>139.33333333333331</ele><time>2026-04-11T10:27:52.345Z</time></trkpt><trkpt lat="45.3979517" lon="10.5359817"><ele>139.0</ele><time>2026-04-11T10:27:55.338Z</time></trkpt><trkpt lat="45.3980033" lon="10.53591"><ele>138.66666666666666</ele><time>2026-04-11T10:27:57.341Z</time></trkpt><trkpt lat="45.3980783" lon="10.535775"><ele>138.33333333333334</ele><time>2026-04-11T10:27:59.336Z</time></trkpt><trkpt lat="45.39811" lon="10.5356817"><ele>138.0</ele><time>2026-04-11T10:28:00.341Z</time></trkpt><trkpt lat="45.3981367" lon="10.535575"><ele>138.0</ele><time>2026-04-11T10:28:01.341Z</time></trkpt><trkpt lat="45.398155" lon="10.5354517"><ele>138.0</ele><time>2026-04-11T10:28:02.329Z</time></trkpt><trkpt lat="45.3981717" lon="10.5353067"><ele>138.0</ele><time>2026-04-11T10:28:03.337Z</time></trkpt><trkpt lat="45.3981817" lon="10.5351433"><ele>138.0</ele><time>2026-04-11T10:28:04.342Z</time></trkpt><trkpt lat="45.3982183" lon="10.534985"><ele>138.0</ele><time>2026-04-11T10:28:05.336Z</time></trkpt><trkpt lat="45.3982633" lon="10.5348217"><ele>137.25</ele><time>2026-04-11T10:28:06.343Z</time></trkpt><trkpt lat="45.3982867" lon="10.534655"><ele>136.5</ele><time>2026-04-11T10:28:07.343Z</time></trkpt><trkpt lat="45.3983017" lon="10.5344667"><ele>135.75</ele><time>2026-04-11T10:28:08.337Z</time></trkpt><trkpt lat="45.398315" lon="10.5342633"><ele>135.0</ele><time>2026-04-11T10:28:09.337Z</time></trkpt><trkpt lat="45.39835" lon="10.5340867"><ele>134.0</ele><time>2026-04-11T10:28:10.339Z</time></trkpt><trkpt lat="45.398385" lon="10.5339117"><ele>133.0</ele><time>2026-04-11T10:28:11.343Z</time></trkpt><trkpt lat="45.398405" lon="10.533735"><ele>132.0</ele><time>2026-04-11T10:28:12.332Z</time></trkpt><trkpt lat="45.3984267" lon="10.5335933"><ele>131.0</ele><time>2026-04-11T10:28:13.331Z</time></trkpt><trkpt lat="45.398445" lon="10.5334517"><ele>130.5</ele><time>2026-04-11T10:28:14.338Z</time></trkpt><trkpt lat="45.398465" lon="10.53332"><ele>130.0</ele><time>2026-04-11T10:28:15.336Z</time></trkpt><trkpt lat="45.39848" lon="10.533185"><ele>129.5</ele><time>2026-04-11T10:28:16.332Z</time></trkpt><trkpt lat="45.3984817" lon="10.5330567"><ele>129.0</ele><time>2026-04-11T10:28:17.331Z</time></trkpt><trkpt lat="45.3984683" lon="10.5329483"><ele>128.5</ele><time>2026-04-11T10:28:18.336Z</time></trkpt><trkpt lat="45.3984417" lon="10.532845"><ele>128.0</ele><time>2026-04-11T10:28:19.334Z</time></trkpt><trkpt lat="45.39841" lon="10.5327633"><ele>128.0</ele><time>2026-04-11T10:28:20.335Z</time></trkpt><trkpt lat="45.3983967" lon="10.5326083"><ele>128.0</ele><time>2026-04-11T10:28:22.337Z</time></trkpt><trkpt lat="45.3984667" lon="10.5324783"><ele>128.0</ele><time>2026-04-11T10:28:24.339Z</time></trkpt><trkpt lat="45.39855" lon="10.5324"><ele>128.0</ele><time>2026-04-11T10:28:25.332Z</time></trkpt><trkpt lat="45.39866" lon="10.532315"><ele>128.0</ele><time>2026-04-11T10:28:26.334Z</time></trkpt><trkpt lat="45.3987617" lon="10.532205"><ele>128.0</ele><time>2026-04-11T10:28:27.339Z</time></trkpt><trkpt lat="45.3988417" lon="10.53209"><ele>128.0</ele><time>2026-04-11T10:28:28.336Z</time></trkpt><trkpt lat="45.3989267" lon="10.5319567"><ele>128.0</ele><time>2026-04-11T10:28:29.335Z</time></trkpt><trkpt lat="45.3990267" lon="10.53183"><ele>128.5</ele><time>2026-04-11T10:28:30.341Z</time></trkpt><trkpt lat="45.399125" lon="10.5316933"><ele>129.0</ele><time>2026-04-11T10:28:31.338Z</time></trkpt><trkpt lat="45.3992217" lon="10.5315183"><ele>129.5</ele><time>2026-04-11T10:28:32.362Z</time></trkpt><trkpt lat="45.3992967" lon="10.53136"><ele>130.0</ele><time>2026-04-11T10:28:33.343Z</time></trkpt><trkpt lat="45.3993733" lon="10.5311967"><ele>130.0</ele><time>2026-04-11T10:28:34.337Z</time></trkpt><trkpt lat="45.39943" lon="10.5310683"><ele>130.0</ele><time>2026-04-11T10:28:35.333Z</time></trkpt><trkpt lat="45.39951" lon="10.5309517"><ele>130.0</ele><time>2026-04-11T10:28:36.339Z</time></trkpt><trkpt lat="45.3996233" lon="10.530865"><ele>130.0</ele><time>2026-04-11T10:28:37.338Z</time></trkpt><trkpt lat="45.3997383" lon="10.5307383"><ele>132.0</ele><time>2026-04-11T10:28:38.338Z</time></trkpt><trkpt lat="45.39987" lon="10.5305867"><ele>134.0</ele><time>2026-04-11T10:28:39.338Z</time></trkpt><trkpt lat="45.3999917" lon="10.5304283"><ele>136.0</ele><time>2026-04-11T10:28:40.344Z</time></trkpt><trkpt lat="45.4002167" lon="10.530155"><ele>136.25</ele><time>2026-04-11T10:28:42.344Z</time></trkpt><trkpt lat="45.400345" lon="10.53008"><ele>136.5</ele><time>2026-04-11T10:28:43.352Z</time></trkpt><trkpt lat="45.4004383" lon="10.5299517"><ele>136.75</ele><time>2026-04-11T10:28:44.356Z</time></trkpt><trkpt lat="45.4005217" lon="10.5298917"><ele>137.0</ele><time>2026-04-11T10:28:45.335Z</time></trkpt><trkpt lat="45.400615" lon="10.5298217"><ele>136.6</ele><time>2026-04-11T10:28:46.345Z</time></trkpt><trkpt lat="45.4006817" lon="10.5297817"><ele>136.2</ele><time>2026-04-11T10:28:47.357Z</time></trkpt><trkpt lat="45.4007783" lon="10.5297683"><ele>135.8</ele><time>2026-04-11T10:28:49.339Z</time></trkpt><trkpt lat="45.400865" lon="10.5300067"><ele>135.4</ele><time>2026-04-11T10:28:52.343Z</time></trkpt><trkpt lat="45.4008883" lon="10.53013"><ele>135.0</ele><time>2026-04-11T10:28:53.338Z</time></trkpt><trkpt lat="45.4009133" lon="10.5302583"><ele>134.83333333333334</ele><time>2026-04-11T10:28:54.34Z</time></trkpt><trkpt lat="45.4009383" lon="10.5304017"><ele>134.66666666666666</ele><time>2026-04-11T10:28:55.336Z</time></trkpt><trkpt lat="45.4009733" lon="10.5305117"><ele>134.5</ele><time>2026-04-11T10:28:56.342Z</time></trkpt><trkpt lat="45.4009917" lon="10.5306033"><ele>134.33333333333331</ele><time>2026-04-11T10:28:57.336Z</time></trkpt><trkpt lat="45.401015" lon="10.5307"><ele>134.16666666666666</ele><time>2026-04-11T10:28:58.336Z</time></trkpt><trkpt lat="45.401035" lon="10.5307933"><ele>134.0</ele><time>2026-04-11T10:28:59.346Z</time></trkpt><trkpt lat="45.401075" lon="10.530885"><ele>134.0</ele><time>2026-04-11T10:29:00.344Z</time></trkpt><trkpt lat="45.4010983" lon="10.530975"><ele>134.0</ele><time>2026-04-11T10:29:01.338Z</time></trkpt><trkpt lat="45.4011167" lon="10.5310633"><ele>134.0</ele><time>2026-04-11T10:29:02.347Z</time></trkpt><trkpt lat="45.4011333" lon="10.5311567"><ele>134.0</ele><time>2026-04-11T10:29:03.34Z</time></trkpt><trkpt lat="45.4011417" lon="10.53125"><ele>134.0</ele><time>2026-04-11T10:29:04.339Z</time></trkpt><trkpt lat="45.4011467" lon="10.53134"><ele>134.0</ele><time>2026-04-11T10:29:05.337Z</time></trkpt><trkpt lat="45.4011417" lon="10.5314333"><ele>134.0</ele><time>2026-04-11T10:29:06.342Z</time></trkpt><trkpt lat="45.4011317" lon="10.5315317"><ele>133.57142857142858</ele><time>2026-04-11T10:29:07.336Z</time></trkpt><trkpt lat="45.401135" lon="10.5316317"><ele>133.14285714285714</ele><time>2026-04-11T10:29:08.341Z</time></trkpt><trkpt lat="45.401145" lon="10.53173"><ele>132.71428571428572</ele><time>2026-04-11T10:29:09.34Z</time></trkpt><trkpt lat="45.4011567" lon="10.5318217"><ele>132.28571428571428</ele><time>2026-04-11T10:29:10.335Z</time></trkpt><trkpt lat="45.4011767" lon="10.531915"><ele>131.85714285714286</ele><time>2026-04-11T10:29:11.37Z</time></trkpt><trkpt lat="45.4012117" lon="10.532"><ele>131.42857142857144</ele><time>2026-04-11T10:29:12.336Z</time></trkpt><trkpt lat="45.4012617" lon="10.5320767"><ele>131.0</ele><time>2026-04-11T10:29:13.336Z</time></trkpt><trkpt lat="45.4013317" lon="10.5321567"><ele>130.0</ele><time>2026-04-11T10:29:14.34Z</time></trkpt><trkpt lat="45.401415" lon="10.5322433"><ele>129.0</ele><time>2026-04-11T10:29:15.337Z</time></trkpt><trkpt lat="45.401545" lon="10.5323467"><ele>128.0</ele><time>2026-04-11T10:29:16.338Z</time></trkpt><trkpt lat="45.4016533" lon="10.5324267"><ele>127.0</ele><time>2026-04-11T10:29:17.332Z</time></trkpt><trkpt lat="45.4017867" lon="10.5325233"><ele>127.0</ele><time>2026-04-11T10:29:18.354Z</time></trkpt><trkpt lat="45.4019" lon="10.532585"><ele>127.0</ele><time>2026-04-11T10:29:19.344Z</time></trkpt><trkpt lat="45.402" lon="10.5326367"><ele>127.0</ele><time>2026-04-11T10:29:20.342Z</time></trkpt><trkpt lat="45.4021067" lon="10.5326767"><ele>127.0</ele><time>2026-04-11T10:29:21.337Z</time></trkpt><trkpt lat="45.4022267" lon="10.5326817"><ele>126.83333333333334</ele><time>2026-04-11T10:29:22.341Z</time></trkpt><trkpt lat="45.4023283" lon="10.53271"><ele>126.66666666666667</ele><time>2026-04-11T10:29:23.335Z</time></trkpt><trkpt lat="45.4023983" lon="10.5327117"><ele>126.5</ele><time>2026-04-11T10:29:24.342Z</time></trkpt><trkpt lat="45.4024783" lon="10.5327233"><ele>126.33333333333334</ele><time>2026-04-11T10:29:25.34Z</time></trkpt><trkpt lat="45.402545" lon="10.5327367"><ele>126.16666666666667</ele><time>2026-04-11T10:29:26.341Z</time></trkpt><trkpt lat="45.4026033" lon="10.532785"><ele>126.0</ele><time>2026-04-11T10:29:27.338Z</time></trkpt><trkpt lat="45.40266" lon="10.5328567"><ele>125.6</ele><time>2026-04-11T10:29:28.352Z</time></trkpt><trkpt lat="45.4027183" lon="10.532955"><ele>125.19999999999999</ele><time>2026-04-11T10:29:29.336Z</time></trkpt><trkpt lat="45.4027783" lon="10.5330833"><ele>124.80000000000001</ele><time>2026-04-11T10:29:30.336Z</time></trkpt><trkpt lat="45.4028367" lon="10.5332"><ele>124.4</ele><time>2026-04-11T10:29:31.337Z</time></trkpt><trkpt lat="45.40287" lon="10.533305"><ele>124.0</ele><time>2026-04-11T10:29:32.338Z</time></trkpt><trkpt lat="45.402905" lon="10.533395"><ele>124.0</ele><time>2026-04-11T10:29:33.336Z</time></trkpt><trkpt lat="45.4029533" lon="10.533475"><ele>124.0</ele><time>2026-04-11T10:29:34.344Z</time></trkpt><trkpt lat="45.40302" lon="10.533555"><ele>124.0</ele><time>2026-04-11T10:29:35.345Z</time></trkpt><trkpt lat="45.4031017" lon="10.533645"><ele>124.0</ele><time>2026-04-11T10:29:36.336Z</time></trkpt><trkpt lat="45.40319" lon="10.5337483"><ele>124.0</ele><time>2026-04-11T10:29:37.338Z</time></trkpt><trkpt lat="45.4032667" lon="10.5338483"><ele>123.4</ele><time>2026-04-11T10:29:38.342Z</time></trkpt><trkpt lat="45.4033517" lon="10.53396"><ele>122.80000000000001</ele><time>2026-04-11T10:29:39.334Z</time></trkpt><trkpt lat="45.4034267" lon="10.5340433"><ele>122.19999999999999</ele><time>2026-04-11T10:29:40.34Z</time></trkpt><trkpt lat="45.4035083" lon="10.53411"><ele>121.6</ele><time>2026-04-11T10:29:41.342Z</time></trkpt><trkpt lat="45.4036117" lon="10.5341183"><ele>121.0</ele><time>2026-04-11T10:29:42.339Z</time></trkpt><trkpt lat="45.4036967" lon="10.5341583"><ele>120.25</ele><time>2026-04-11T10:29:43.341Z</time></trkpt><trkpt lat="45.4038367" lon="10.5342117"><ele>119.5</ele><time>2026-04-11T10:29:44.342Z</time></trkpt><trkpt lat="45.40395" lon="10.5342583"><ele>118.75</ele><time>2026-04-11T10:29:45.336Z</time></trkpt><trkpt lat="45.4040717" lon="10.53431"><ele>118.0</ele><time>2026-04-11T10:29:46.346Z</time></trkpt><trkpt lat="45.4042133" lon="10.5343467"><ele>118.0</ele><time>2026-04-11T10:29:47.34Z</time></trkpt><trkpt lat="45.4043333" lon="10.53443"><ele>118.0</ele><time>2026-04-11T10:29:48.344Z</time></trkpt><trkpt lat="45.4044833" lon="10.5344767"><ele>118.0</ele><time>2026-04-11T10:29:49.335Z</time></trkpt><trkpt lat="45.404625" lon="10.5345367"><ele>118.0</ele><time>2026-04-11T10:29:50.351Z</time></trkpt><trkpt lat="45.4047467" lon="10.53459"><ele>116.33333333333334</ele><time>2026-04-11T10:29:51.336Z</time></trkpt><trkpt lat="45.4048817" lon="10.5346317"><ele>114.66666666666666</ele><time>2026-04-11T10:29:52.339Z</time></trkpt><trkpt lat="45.405025" lon="10.5347017"><ele>113.0</ele><time>2026-04-11T10:29:53.33Z</time></trkpt><trkpt lat="45.4051783" lon="10.53479"><ele>113.0</ele><time>2026-04-11T10:29:54.339Z</time></trkpt><trkpt lat="45.4053217" lon="10.53486"><ele>113.0</ele><time>2026-04-11T10:29:55.342Z</time></trkpt><trkpt lat="45.40544" lon="10.5349217"><ele>113.0</ele><time>2026-04-11T10:29:56.339Z</time></trkpt><trkpt lat="45.4055183" lon="10.5349983"><ele>113.0</ele><time>2026-04-11T10:29:57.338Z</time></trkpt><trkpt lat="45.4056133" lon="10.5350067"><ele>112.83333333333333</ele><time>2026-04-11T10:29:58.351Z</time></trkpt><trkpt lat="45.4056833" lon="10.53501"><ele>112.66666666666666</ele><time>2026-04-11T10:29:59.337Z</time></trkpt><trkpt lat="45.405765" lon="10.5350033"><ele>112.5</ele><time>2026-04-11T10:30:00.343Z</time></trkpt><trkpt lat="45.405835" lon="10.53503"><ele>112.33333333333334</ele><time>2026-04-11T10:30:01.333Z</time></trkpt><trkpt lat="45.4059017" lon="10.5350767"><ele>112.16666666666667</ele><time>2026-04-11T10:30:02.341Z</time></trkpt><trkpt lat="45.4059883" lon="10.5351483"><ele>112.0</ele><time>2026-04-11T10:30:03.342Z</time></trkpt><trkpt lat="45.4060983" lon="10.5352433"><ele>112.00000000000001</ele><time>2026-04-11T10:30:04.337Z</time></trkpt><trkpt lat="45.40618" lon="10.5352817"><ele>112.0</ele><time>2026-04-11T10:30:05.333Z</time></trkpt><trkpt lat="45.4062533" lon="10.53531"><ele>112.0</ele><time>2026-04-11T10:30:06.346Z</time></trkpt><trkpt lat="45.4063217" lon="10.535285"><ele>112.0</ele><time>2026-04-11T10:30:07.341Z</time></trkpt><trkpt lat="45.4063917" lon="10.53523"><ele>112.00000000000001</ele><time>2026-04-11T10:30:08.338Z</time></trkpt><trkpt lat="45.4064667" lon="10.53515"><ele>112.0</ele><time>2026-04-11T10:30:09.338Z</time></trkpt><trkpt lat="45.4065433" lon="10.5350467"><ele>111.66666666666667</ele><time>2026-04-11T10:30:10.342Z</time></trkpt><trkpt lat="45.406605" lon="10.5349383"><ele>111.33333333333334</ele><time>2026-04-11T10:30:11.33Z</time></trkpt><trkpt lat="45.4066633" lon="10.5348667"><ele>111.0</ele><time>2026-04-11T10:30:12.351Z</time></trkpt><trkpt lat="45.40672" lon="10.5348267"><ele>110.66666666666666</ele><time>2026-04-11T10:30:13.338Z</time></trkpt><trkpt lat="45.4067983" lon="10.5349283"><ele>110.33333333333333</ele><time>2026-04-11T10:30:15.357Z</time></trkpt><trkpt lat="45.406825" lon="10.53506"><ele>110.0</ele><time>2026-04-11T10:30:16.347Z</time></trkpt><trkpt lat="45.4068717" lon="10.5352017"><ele>110.0</ele><time>2026-04-11T10:30:17.349Z</time></trkpt><trkpt lat="45.4069317" lon="10.5353683"><ele>110.0</ele><time>2026-04-11T10:30:18.343Z</time></trkpt><trkpt lat="45.4069683" lon="10.5355483"><ele>110.0</ele><time>2026-04-11T10:30:19.348Z</time></trkpt><trkpt lat="45.4070133" lon="10.53574"><ele>110.0</ele><time>2026-04-11T10:30:20.347Z</time></trkpt><trkpt lat="45.40706" lon="10.53594"><ele>110.0</ele><time>2026-04-11T10:30:21.338Z</time></trkpt><trkpt lat="45.4070983" lon="10.53615"><ele>110.0</ele><time>2026-04-11T10:30:22.349Z</time></trkpt><trkpt lat="45.4071417" lon="10.53632"><ele>110.0</ele><time>2026-04-11T10:30:23.351Z</time></trkpt><trkpt lat="45.4071917" lon="10.5364867"><ele>110.0</ele><time>2026-04-11T10:30:24.358Z</time></trkpt><trkpt lat="45.407265" lon="10.5366717"><ele>110.25</ele><time>2026-04-11T10:30:25.336Z</time></trkpt><trkpt lat="45.4073183" lon="10.5368583"><ele>110.5</ele><time>2026-04-11T10:30:26.345Z</time></trkpt><trkpt lat="45.4073633" lon="10.537055"><ele>110.75</ele><time>2026-04-11T10:30:27.341Z</time></trkpt><trkpt lat="45.407405" lon="10.537235"><ele>111.0</ele><time>2026-04-11T10:30:28.366Z</time></trkpt><trkpt lat="45.4074417" lon="10.5374067"><ele>111.6</ele><time>2026-04-11T10:30:29.356Z</time></trkpt><trkpt lat="45.4074717" lon="10.537535"><ele>112.19999999999999</ele><time>2026-04-11T10:30:30.356Z</time></trkpt><trkpt lat="45.407525" lon="10.5376667"><ele>112.80000000000001</ele><time>2026-04-11T10:30:31.34Z</time></trkpt><trkpt lat="45.4075817" lon="10.5377533"><ele>113.4</ele><time>2026-04-11T10:30:32.343Z</time></trkpt><trkpt lat="45.4076633" lon="10.5378467"><ele>114.0</ele><time>2026-04-11T10:30:34.332Z</time></trkpt><trkpt lat="45.4077983" lon="10.5377883"><ele>114.0</ele><time>2026-04-11T10:30:36.354Z</time></trkpt><trkpt lat="45.4078933" lon="10.53771"><ele>114.0</ele><time>2026-04-11T10:30:37.338Z</time></trkpt><trkpt lat="45.4079983" lon="10.5376467"><ele>114.0</ele><time>2026-04-11T10:30:38.342Z</time></trkpt><trkpt lat="45.4080917" lon="10.5375683"><ele>114.0</ele><time>2026-04-11T10:30:39.341Z</time></trkpt><trkpt lat="45.4082033" lon="10.5375117"><ele>114.5</ele><time>2026-04-11T10:30:40.342Z</time></trkpt><trkpt lat="45.4083083" lon="10.53746"><ele>115.0</ele><time>2026-04-11T10:30:41.338Z</time></trkpt><trkpt lat="45.4084383" lon="10.5373783"><ele>115.5</ele><time>2026-04-11T10:30:42.343Z</time></trkpt><trkpt lat="45.408555" lon="10.5373133"><ele>116.0</ele><time>2026-04-11T10:30:43.336Z</time></trkpt><trkpt lat="45.4086267" lon="10.5372583"><ele>115.99999999999999</ele><time>2026-04-11T10:30:44.354Z</time></trkpt><trkpt lat="45.408695" lon="10.5372183"><ele>116.0</ele><time>2026-04-11T10:30:45.337Z</time></trkpt><trkpt lat="45.40879" lon="10.5372267"><ele>116.0</ele><time>2026-04-11T10:30:47.342Z</time></trkpt><trkpt lat="45.40882" lon="10.5373217"><ele>116.0</ele><time>2026-04-11T10:30:49.337Z</time></trkpt><trkpt lat="45.4088067" lon="10.5374183"><ele>115.99999999999999</ele><time>2026-04-11T10:30:50.341Z</time></trkpt><trkpt lat="45.40879" lon="10.5375317"><ele>116.0</ele><time>2026-04-11T10:30:51.338Z</time></trkpt><trkpt lat="45.4087767" lon="10.5376617"><ele>116.0</ele><time>2026-04-11T10:30:52.344Z</time></trkpt><trkpt lat="45.4087667" lon="10.5378217"><ele>116.0</ele><time>2026-04-11T10:30:53.334Z</time></trkpt><trkpt lat="45.40877" lon="10.5379833"><ele>116.0</ele><time>2026-04-11T10:30:54.353Z</time></trkpt><trkpt lat="45.40877" lon="10.5381667"><ele>116.0</ele><time>2026-04-11T10:30:55.342Z</time></trkpt><trkpt lat="45.4087633" lon="10.53832"><ele>116.6</ele><time>2026-04-11T10:30:56.337Z</time></trkpt><trkpt lat="45.4087883" lon="10.5384483"><ele>117.19999999999999</ele><time>2026-04-11T10:30:57.343Z</time></trkpt><trkpt lat="45.4087833" lon="10.5385783"><ele>117.80000000000001</ele><time>2026-04-11T10:30:58.339Z</time></trkpt><trkpt lat="45.408785" lon="10.5387"><ele>118.4</ele><time>2026-04-11T10:30:59.346Z</time></trkpt><trkpt lat="45.4087783" lon="10.5388017"><ele>119.0</ele><time>2026-04-11T10:31:00.347Z</time></trkpt><trkpt lat="45.4088117" lon="10.538955"><ele>119.28571428571428</ele><time>2026-04-11T10:31:02.352Z</time></trkpt><trkpt lat="45.4088617" lon="10.5390433"><ele>119.57142857142857</ele><time>2026-04-11T10:31:05.356Z</time></trkpt><trkpt lat="45.4088483" lon="10.5391467"><ele>119.85714285714286</ele><time>2026-04-11T10:31:08.341Z</time></trkpt><trkpt lat="45.408825" lon="10.5392483"><ele>120.14285714285714</ele><time>2026-04-11T10:31:34.339Z</time></trkpt><trkpt lat="45.4088333" lon="10.5393583"><ele>120.42857142857142</ele><time>2026-04-11T10:31:39.335Z</time></trkpt><trkpt lat="45.408835" lon="10.5394583"><ele>120.71428571428571</ele><time>2026-04-11T10:31:43.341Z</time></trkpt><trkpt lat="45.4089" lon="10.539415"><ele>121.0</ele><time>2026-04-11T10:31:49.342Z</time></trkpt><trkpt lat="45.4089422" lon="10.5391743"><ele>121.0</ele><time>2026-04-11T10:42:52.225Z</time></trkpt><trkpt lat="45.4080518" lon="10.5392963"><ele>121.0</ele><time>2026-04-11T10:44:05.338Z</time></trkpt><trkpt lat="45.4081891" lon="10.5393893"><ele>121.0</ele><time>2026-04-11T10:44:06.339Z</time></trkpt><trkpt lat="45.408358" lon="10.5395019"><ele>121.0</ele><time>2026-04-11T10:44:07.336Z</time></trkpt><trkpt lat="45.4084946" lon="10.5395948"><ele>121.6</ele><time>2026-04-11T10:44:08.338Z</time></trkpt><trkpt lat="45.408587" lon="10.5396742"><ele>122.19999999999999</ele><time>2026-04-11T10:44:09.34Z</time></trkpt><trkpt lat="45.4086621" lon="10.5397333"><ele>122.80000000000001</ele><time>2026-04-11T10:44:10.342Z</time></trkpt><trkpt lat="45.4087428" lon="10.5397717"><ele>123.4</ele><time>2026-04-11T10:44:11.342Z</time></trkpt><trkpt lat="45.4088351" lon="10.5398001"><ele>124.0</ele><time>2026-04-11T10:44:12.342Z</time></trkpt><trkpt lat="45.4088239" lon="10.5396872"><ele>124.0</ele><time>2026-04-11T10:44:17.346Z</time></trkpt><trkpt lat="45.4088028" lon="10.5394891"><ele>121.0</ele><time>2026-04-11T10:44:35.338Z</time></trkpt><trkpt lat="45.4088993" lon="10.5394527"><ele>129.0</ele><time>2026-04-11T10:45:02.328Z</time></trkpt></trkseg></trk></gpx>